<?xml version="1.0" encoding="UTF-8" standalone="no" ?><gpx xmlns="http://www.topografix.com/GPX/1/1" xmlns:gpxx="http://www.garmin.com/xmlschemas/GpxExtensions/v3" xmlns:wptx1="http://www.garmin.com/xmlschemas/WaypointExtension/v1" xmlns:gpxtpx="http://www.garmin.com/xmlschemas/TrackPointExtension/v1" creator="GuideVTT.com" version="1.1" xmlns:xsi="http://www.w3.org/2001/XMLSchema-instance" xsi:schemaLocation="http://www.topografix.com/GPX/1/1 http://www.topografix.com/GPX/1/1/gpx.xsd http://www.garmin.com/xmlschemas/GpxExtensions/v3 http://www8.garmin.com/xmlschemas/GpxExtensionsv3.xsd http://www.garmin.com/xmlschemas/WaypointExtension/v1 http://www8.garmin.com/xmlschemas/WaypointExtensionv1.xsd http://www.garmin.com/xmlschemas/TrackPointExtension/v1 http://www.garmin.com/xmlschemas/TrackPointExtensionv1.xsd">
<metadata><link href="http://www.garmin.com"><text>Garmin International</text></link><time>2013-06-22T15:13:50Z</time></metadata>
<trk><name>2019-05-28_1034__20190528_1034.gpx</name><extensions><gpxx:TrackExtension><gpxx:DisplayColor>Cyan</gpxx:DisplayColor></gpxx:TrackExtension></extensions><trkseg>
<trkpt lat="43.4490953" lon="6.7928004"><ele></ele><time>2022-5-30T18:27:44Z</time></trkpt>
<trkpt lat="43.4490953" lon="6.7928004"><ele></ele><time>2022-5-30T18:27:47Z</time></trkpt>
<trkpt lat="43.4490953" lon="6.7928004"><ele></ele><time>2022-5-30T18:27:50Z</time></trkpt>
<trkpt lat="43.4490953" lon="6.7928004"><ele></ele><time>2022-5-30T18:27:53Z</time></trkpt>
<trkpt lat="43.4491259" lon="6.7928015"><ele></ele><time>2022-5-30T18:27:56Z</time></trkpt>
<trkpt lat="43.4491250" lon="6.7928053"><ele></ele><time>2022-5-30T18:27:59Z</time></trkpt>
<trkpt lat="43.4491250" lon="6.7928054"><ele></ele><time>2022-5-30T18:28:2Z</time></trkpt>
<trkpt lat="43.4491251" lon="6.7928054"><ele></ele><time>2022-5-30T18:28:5Z</time></trkpt>
<trkpt lat="43.4491252" lon="6.7928055"><ele></ele><time>2022-5-30T18:28:8Z</time></trkpt>
<trkpt lat="43.4491256" lon="6.7928054"><ele></ele><time>2022-5-30T18:28:11Z</time></trkpt>
<trkpt lat="43.4491259" lon="6.7928053"><ele></ele><time>2022-5-30T18:28:14Z</time></trkpt>
<trkpt lat="43.4491267" lon="6.7928054"><ele></ele><time>2022-5-30T18:28:17Z</time></trkpt>
<trkpt lat="43.4491268" lon="6.7928054"><ele></ele><time>2022-5-30T18:28:20Z</time></trkpt>
<trkpt lat="43.4491265" lon="6.7928053"><ele></ele><time>2022-5-30T18:28:23Z</time></trkpt>
<trkpt lat="43.4491266" lon="6.7928044"><ele></ele><time>2022-5-30T18:28:26Z</time></trkpt>
<trkpt lat="43.4491267" lon="6.7928041"><ele></ele><time>2022-5-30T18:28:29Z</time></trkpt>
<trkpt lat="43.4491269" lon="6.7928039"><ele></ele><time>2022-5-30T18:28:32Z</time></trkpt>
<trkpt lat="43.4491271" lon="6.7928038"><ele></ele><time>2022-5-30T18:28:35Z</time></trkpt>
<trkpt lat="43.4491274" lon="6.7928038"><ele></ele><time>2022-5-30T18:28:38Z</time></trkpt>
<trkpt lat="43.4491277" lon="6.7928038"><ele></ele><time>2022-5-30T18:28:41Z</time></trkpt>
<trkpt lat="43.4491278" lon="6.7928040"><ele></ele><time>2022-5-30T18:28:44Z</time></trkpt>
<trkpt lat="43.4491277" lon="6.7928042"><ele></ele><time>2022-5-30T18:28:47Z</time></trkpt>
<trkpt lat="43.4491280" lon="6.7928053"><ele></ele><time>2022-5-30T18:28:50Z</time></trkpt>
<trkpt lat="43.4491307" lon="6.7928090"><ele></ele><time>2022-5-30T18:28:53Z</time></trkpt>
<trkpt lat="43.4491844" lon="6.7928506"><ele></ele><time>2022-5-30T18:28:56Z</time></trkpt>
<trkpt lat="43.4491917" lon="6.7928733"><ele></ele><time>2022-5-30T18:28:59Z</time></trkpt>
<trkpt lat="43.4492184" lon="6.7928749"><ele></ele><time>2022-5-30T18:29:2Z</time></trkpt>
<trkpt lat="43.4492441" lon="6.7928791"><ele></ele><time>2022-5-30T18:29:5Z</time></trkpt>
<trkpt lat="43.4492677" lon="6.7928848"><ele></ele><time>2022-5-30T18:29:8Z</time></trkpt>
<trkpt lat="43.4492699" lon="6.7928851"><ele></ele><time>2022-5-30T18:29:11Z</time></trkpt>
<trkpt lat="43.4492706" lon="6.7928855"><ele></ele><time>2022-5-30T18:29:14Z</time></trkpt>
<trkpt lat="43.4492714" lon="6.7928857"><ele></ele><time>2022-5-30T18:29:17Z</time></trkpt>
<trkpt lat="43.4492725" lon="6.7928858"><ele></ele><time>2022-5-30T18:29:20Z</time></trkpt>
<trkpt lat="43.4492735" lon="6.7928860"><ele></ele><time>2022-5-30T18:29:23Z</time></trkpt>
<trkpt lat="43.4492750" lon="6.7928880"><ele></ele><time>2022-5-30T18:29:26Z</time></trkpt>
<trkpt lat="43.4492748" lon="6.7928881"><ele></ele><time>2022-5-30T18:29:29Z</time></trkpt>
<trkpt lat="43.4492787" lon="6.7928806"><ele></ele><time>2022-5-30T18:29:32Z</time></trkpt>
<trkpt lat="43.4492772" lon="6.7928810"><ele></ele><time>2022-5-30T18:29:35Z</time></trkpt>
<trkpt lat="43.4492881" lon="6.7928801"><ele></ele><time>2022-5-30T18:29:38Z</time></trkpt>
<trkpt lat="43.4492980" lon="6.7928743"><ele></ele><time>2022-5-30T18:29:41Z</time></trkpt>
<trkpt lat="43.4492994" lon="6.7928738"><ele></ele><time>2022-5-30T18:29:44Z</time></trkpt>
<trkpt lat="43.4493115" lon="6.7928769"><ele></ele><time>2022-5-30T18:29:47Z</time></trkpt>
<trkpt lat="43.4493343" lon="6.7928814"><ele></ele><time>2022-5-30T18:29:50Z</time></trkpt>
<trkpt lat="43.4493525" lon="6.7928871"><ele></ele><time>2022-5-30T18:29:53Z</time></trkpt>
<trkpt lat="43.4493745" lon="6.7928918"><ele></ele><time>2022-5-30T18:29:56Z</time></trkpt>
<trkpt lat="43.4493918" lon="6.7928966"><ele></ele><time>2022-5-30T18:29:59Z</time></trkpt>
<trkpt lat="43.4494137" lon="6.7928852"><ele></ele><time>2022-5-30T18:30:2Z</time></trkpt>
<trkpt lat="43.4494271" lon="6.7928634"><ele></ele><time>2022-5-30T18:30:5Z</time></trkpt>
<trkpt lat="43.4494301" lon="6.7928401"><ele></ele><time>2022-5-30T18:30:8Z</time></trkpt>
<trkpt lat="43.4494327" lon="6.7928133"><ele></ele><time>2022-5-30T18:30:11Z</time></trkpt>
<trkpt lat="43.4494355" lon="6.7927853"><ele></ele><time>2022-5-30T18:30:14Z</time></trkpt>
<trkpt lat="43.4494351" lon="6.7927554"><ele></ele><time>2022-5-30T18:30:17Z</time></trkpt>
<trkpt lat="43.4494335" lon="6.7927204"><ele></ele><time>2022-5-30T18:30:20Z</time></trkpt>
<trkpt lat="43.4494305" lon="6.7926844"><ele></ele><time>2022-5-30T18:30:23Z</time></trkpt>
<trkpt lat="43.4494272" lon="6.7926498"><ele></ele><time>2022-5-30T18:30:26Z</time></trkpt>
<trkpt lat="43.4494299" lon="6.7926077"><ele></ele><time>2022-5-30T18:30:29Z</time></trkpt>
<trkpt lat="43.4494392" lon="6.7925562"><ele></ele><time>2022-5-30T18:30:32Z</time></trkpt>
<trkpt lat="43.4494469" lon="6.7925014"><ele></ele><time>2022-5-30T18:30:35Z</time></trkpt>
<trkpt lat="43.4494566" lon="6.7924432"><ele></ele><time>2022-5-30T18:30:38Z</time></trkpt>
<trkpt lat="43.4494650" lon="6.7923771"><ele></ele><time>2022-5-30T18:30:41Z</time></trkpt>
<trkpt lat="43.4494706" lon="6.7923057"><ele></ele><time>2022-5-30T18:30:44Z</time></trkpt>
<trkpt lat="43.4494770" lon="6.7922370"><ele></ele><time>2022-5-30T18:30:47Z</time></trkpt>
<trkpt lat="43.4494799" lon="6.7921709"><ele></ele><time>2022-5-30T18:30:50Z</time></trkpt>
<trkpt lat="43.4494777" lon="6.7921075"><ele></ele><time>2022-5-30T18:30:53Z</time></trkpt>
<trkpt lat="43.4494794" lon="6.7920597"><ele></ele><time>2022-5-30T18:30:56Z</time></trkpt>
<trkpt lat="43.4494815" lon="6.7920187"><ele></ele><time>2022-5-30T18:30:59Z</time></trkpt>
<trkpt lat="43.4494844" lon="6.7919812"><ele></ele><time>2022-5-30T18:31:2Z</time></trkpt>
<trkpt lat="43.4494877" lon="6.7919447"><ele></ele><time>2022-5-30T18:31:5Z</time></trkpt>
<trkpt lat="43.4494916" lon="6.7919091"><ele></ele><time>2022-5-30T18:31:8Z</time></trkpt>
<trkpt lat="43.4494930" lon="6.7918695"><ele></ele><time>2022-5-30T18:31:11Z</time></trkpt>
<trkpt lat="43.4494915" lon="6.7918382"><ele></ele><time>2022-5-30T18:31:14Z</time></trkpt>
<trkpt lat="43.4494905" lon="6.7917982"><ele></ele><time>2022-5-30T18:31:17Z</time></trkpt>
<trkpt lat="43.4494886" lon="6.7917612"><ele></ele><time>2022-5-30T18:31:20Z</time></trkpt>
<trkpt lat="43.4494892" lon="6.7917166"><ele></ele><time>2022-5-30T18:31:23Z</time></trkpt>
<trkpt lat="43.4494864" lon="6.7916699"><ele></ele><time>2022-5-30T18:31:26Z</time></trkpt>
<trkpt lat="43.4494878" lon="6.7916289"><ele></ele><time>2022-5-30T18:31:29Z</time></trkpt>
<trkpt lat="43.4494868" lon="6.7915918"><ele></ele><time>2022-5-30T18:31:32Z</time></trkpt>
<trkpt lat="43.4494891" lon="6.7915613"><ele></ele><time>2022-5-30T18:31:35Z</time></trkpt>
<trkpt lat="43.4494853" lon="6.7915380"><ele></ele><time>2022-5-30T18:31:38Z</time></trkpt>
<trkpt lat="43.4494831" lon="6.7915219"><ele></ele><time>2022-5-30T18:31:41Z</time></trkpt>
<trkpt lat="43.4494766" lon="6.7915066"><ele></ele><time>2022-5-30T18:31:44Z</time></trkpt>
<trkpt lat="43.4494731" lon="6.7914919"><ele></ele><time>2022-5-30T18:31:47Z</time></trkpt>
<trkpt lat="43.4494725" lon="6.7914794"><ele></ele><time>2022-5-30T18:31:50Z</time></trkpt>
<trkpt lat="43.4494710" lon="6.7914640"><ele></ele><time>2022-5-30T18:31:53Z</time></trkpt>
<trkpt lat="43.4494708" lon="6.7914525"><ele></ele><time>2022-5-30T18:31:56Z</time></trkpt>
<trkpt lat="43.4494708" lon="6.7914394"><ele></ele><time>2022-5-30T18:31:59Z</time></trkpt>
<trkpt lat="43.4494702" lon="6.7914203"><ele></ele><time>2022-5-30T18:32:2Z</time></trkpt>
<trkpt lat="43.4494694" lon="6.7913916"><ele></ele><time>2022-5-30T18:32:5Z</time></trkpt>
<trkpt lat="43.4494669" lon="6.7913693"><ele></ele><time>2022-5-30T18:32:8Z</time></trkpt>
<trkpt lat="43.4494635" lon="6.7913508"><ele></ele><time>2022-5-30T18:32:11Z</time></trkpt>
<trkpt lat="43.4494637" lon="6.7913061"><ele></ele><time>2022-5-30T18:32:14Z</time></trkpt>
<trkpt lat="43.4494644" lon="6.7912639"><ele></ele><time>2022-5-30T18:32:17Z</time></trkpt>
<trkpt lat="43.4494737" lon="6.7912067"><ele></ele><time>2022-5-30T18:32:20Z</time></trkpt>
<trkpt lat="43.4494766" lon="6.7911437"><ele></ele><time>2022-5-30T18:32:23Z</time></trkpt>
<trkpt lat="43.4494626" lon="6.7910806"><ele></ele><time>2022-5-30T18:32:26Z</time></trkpt>
<trkpt lat="43.4494405" lon="6.7910233"><ele></ele><time>2022-5-30T18:32:29Z</time></trkpt>
<trkpt lat="43.4494292" lon="6.7909799"><ele></ele><time>2022-5-30T18:32:32Z</time></trkpt>
<trkpt lat="43.4494079" lon="6.7909493"><ele></ele><time>2022-5-30T18:32:35Z</time></trkpt>
<trkpt lat="43.4493857" lon="6.7909211"><ele></ele><time>2022-5-30T18:32:38Z</time></trkpt>
<trkpt lat="43.4493641" lon="6.7908927"><ele></ele><time>2022-5-30T18:32:41Z</time></trkpt>
<trkpt lat="43.4493394" lon="6.7908676"><ele></ele><time>2022-5-30T18:32:44Z</time></trkpt>
<trkpt lat="43.4493121" lon="6.7908526"><ele></ele><time>2022-5-30T18:32:47Z</time></trkpt>
<trkpt lat="43.4492817" lon="6.7908307"><ele></ele><time>2022-5-30T18:32:50Z</time></trkpt>
<trkpt lat="43.4492467" lon="6.7908069"><ele></ele><time>2022-5-30T18:32:53Z</time></trkpt>
<trkpt lat="43.4492119" lon="6.7907943"><ele></ele><time>2022-5-30T18:32:56Z</time></trkpt>
<trkpt lat="43.4491798" lon="6.7907673"><ele></ele><time>2022-5-30T18:32:59Z</time></trkpt>
<trkpt lat="43.4491380" lon="6.7907345"><ele></ele><time>2022-5-30T18:33:2Z</time></trkpt>
<trkpt lat="43.4490755" lon="6.7906879"><ele></ele><time>2022-5-30T18:33:5Z</time></trkpt>
<trkpt lat="43.4489971" lon="6.7906826"><ele></ele><time>2022-5-30T18:33:8Z</time></trkpt>
<trkpt lat="43.4489430" lon="6.7906587"><ele></ele><time>2022-5-30T18:33:11Z</time></trkpt>
<trkpt lat="43.4488994" lon="6.7906418"><ele></ele><time>2022-5-30T18:33:14Z</time></trkpt>
<trkpt lat="43.4488580" lon="6.7905622"><ele></ele><time>2022-5-30T18:33:17Z</time></trkpt>
<trkpt lat="43.4488451" lon="6.7904483"><ele></ele><time>2022-5-30T18:33:20Z</time></trkpt>
<trkpt lat="43.4488435" lon="6.7903287"><ele></ele><time>2022-5-30T18:33:23Z</time></trkpt>
<trkpt lat="43.4488453" lon="6.7902298"><ele></ele><time>2022-5-30T18:33:26Z</time></trkpt>
<trkpt lat="43.4488378" lon="6.7901260"><ele></ele><time>2022-5-30T18:33:29Z</time></trkpt>
<trkpt lat="43.4488135" lon="6.7900187"><ele></ele><time>2022-5-30T18:33:32Z</time></trkpt>
<trkpt lat="43.4487893" lon="6.7899127"><ele></ele><time>2022-5-30T18:33:35Z</time></trkpt>
<trkpt lat="43.4487583" lon="6.7897901"><ele></ele><time>2022-5-30T18:33:38Z</time></trkpt>
<trkpt lat="43.4487427" lon="6.7896754"><ele></ele><time>2022-5-30T18:33:41Z</time></trkpt>
<trkpt lat="43.4487335" lon="6.7895530"><ele></ele><time>2022-5-30T18:33:44Z</time></trkpt>
<trkpt lat="43.4487391" lon="6.7894367"><ele></ele><time>2022-5-30T18:33:47Z</time></trkpt>
<trkpt lat="43.4487661" lon="6.7893254"><ele></ele><time>2022-5-30T18:33:50Z</time></trkpt>
<trkpt lat="43.4488208" lon="6.7892399"><ele></ele><time>2022-5-30T18:33:53Z</time></trkpt>
<trkpt lat="43.4488703" lon="6.7891598"><ele></ele><time>2022-5-30T18:33:56Z</time></trkpt>
<trkpt lat="43.4489140" lon="6.7890930"><ele></ele><time>2022-5-30T18:33:59Z</time></trkpt>
<trkpt lat="43.4489539" lon="6.7890335"><ele></ele><time>2022-5-30T18:34:2Z</time></trkpt>
<trkpt lat="43.4490002" lon="6.7889948"><ele></ele><time>2022-5-30T18:34:5Z</time></trkpt>
<trkpt lat="43.4490508" lon="6.7889820"><ele></ele><time>2022-5-30T18:34:8Z</time></trkpt>
<trkpt lat="43.4490935" lon="6.7889781"><ele></ele><time>2022-5-30T18:34:11Z</time></trkpt>
<trkpt lat="43.4491350" lon="6.7889720"><ele></ele><time>2022-5-30T18:34:14Z</time></trkpt>
<trkpt lat="43.4491786" lon="6.7889697"><ele></ele><time>2022-5-30T18:34:17Z</time></trkpt>
<trkpt lat="43.4492180" lon="6.7889677"><ele></ele><time>2022-5-30T18:34:20Z</time></trkpt>
<trkpt lat="43.4492608" lon="6.7889621"><ele></ele><time>2022-5-30T18:34:23Z</time></trkpt>
<trkpt lat="43.4493029" lon="6.7889577"><ele></ele><time>2022-5-30T18:34:26Z</time></trkpt>
<trkpt lat="43.4493419" lon="6.7889595"><ele></ele><time>2022-5-30T18:34:29Z</time></trkpt>
<trkpt lat="43.4493758" lon="6.7889658"><ele></ele><time>2022-5-30T18:34:32Z</time></trkpt>
<trkpt lat="43.4494067" lon="6.7889701"><ele></ele><time>2022-5-30T18:34:35Z</time></trkpt>
<trkpt lat="43.4494369" lon="6.7889732"><ele></ele><time>2022-5-30T18:34:38Z</time></trkpt>
<trkpt lat="43.4494708" lon="6.7889786"><ele></ele><time>2022-5-30T18:34:41Z</time></trkpt>
<trkpt lat="43.4495019" lon="6.7889776"><ele></ele><time>2022-5-30T18:34:44Z</time></trkpt>
<trkpt lat="43.4495365" lon="6.7889787"><ele></ele><time>2022-5-30T18:34:47Z</time></trkpt>
<trkpt lat="43.4495692" lon="6.7889725"><ele></ele><time>2022-5-30T18:34:50Z</time></trkpt>
<trkpt lat="43.4496055" lon="6.7889755"><ele></ele><time>2022-5-30T18:34:53Z</time></trkpt>
<trkpt lat="43.4496401" lon="6.7889779"><ele></ele><time>2022-5-30T18:34:56Z</time></trkpt>
<trkpt lat="43.4496775" lon="6.7889842"><ele></ele><time>2022-5-30T18:34:59Z</time></trkpt>
<trkpt lat="43.4497078" lon="6.7889848"><ele></ele><time>2022-5-30T18:35:2Z</time></trkpt>
<trkpt lat="43.4497389" lon="6.7889854"><ele></ele><time>2022-5-30T18:35:5Z</time></trkpt>
<trkpt lat="43.4497709" lon="6.7889960"><ele></ele><time>2022-5-30T18:35:8Z</time></trkpt>
<trkpt lat="43.4498064" lon="6.7890063"><ele></ele><time>2022-5-30T18:35:11Z</time></trkpt>
<trkpt lat="43.4498387" lon="6.7890128"><ele></ele><time>2022-5-30T18:35:14Z</time></trkpt>
<trkpt lat="43.4498673" lon="6.7890230"><ele></ele><time>2022-5-30T18:35:17Z</time></trkpt>
<trkpt lat="43.4498957" lon="6.7890324"><ele></ele><time>2022-5-30T18:35:20Z</time></trkpt>
<trkpt lat="43.4499235" lon="6.7890427"><ele></ele><time>2022-5-30T18:35:23Z</time></trkpt>
<trkpt lat="43.4499511" lon="6.7890534"><ele></ele><time>2022-5-30T18:35:26Z</time></trkpt>
<trkpt lat="43.4499756" lon="6.7890625"><ele></ele><time>2022-5-30T18:35:29Z</time></trkpt>
<trkpt lat="43.4499985" lon="6.7890739"><ele></ele><time>2022-5-30T18:35:32Z</time></trkpt>
<trkpt lat="43.4500202" lon="6.7890889"><ele></ele><time>2022-5-30T18:35:35Z</time></trkpt>
<trkpt lat="43.4500386" lon="6.7891008"><ele></ele><time>2022-5-30T18:35:38Z</time></trkpt>
<trkpt lat="43.4500596" lon="6.7891185"><ele></ele><time>2022-5-30T18:35:41Z</time></trkpt>
<trkpt lat="43.4500795" lon="6.7891333"><ele></ele><time>2022-5-30T18:35:44Z</time></trkpt>
<trkpt lat="43.4501007" lon="6.7891555"><ele></ele><time>2022-5-30T18:35:47Z</time></trkpt>
<trkpt lat="43.4501212" lon="6.7891783"><ele></ele><time>2022-5-30T18:35:50Z</time></trkpt>
<trkpt lat="43.4501426" lon="6.7892017"><ele></ele><time>2022-5-30T18:35:53Z</time></trkpt>
<trkpt lat="43.4501625" lon="6.7892274"><ele></ele><time>2022-5-30T18:35:56Z</time></trkpt>
<trkpt lat="43.4501861" lon="6.7892517"><ele></ele><time>2022-5-30T18:35:59Z</time></trkpt>
<trkpt lat="43.4502094" lon="6.7892744"><ele></ele><time>2022-5-30T18:36:2Z</time></trkpt>
<trkpt lat="43.4502325" lon="6.7892960"><ele></ele><time>2022-5-30T18:36:5Z</time></trkpt>
<trkpt lat="43.4502560" lon="6.7893196"><ele></ele><time>2022-5-30T18:36:8Z</time></trkpt>
<trkpt lat="43.4502801" lon="6.7893412"><ele></ele><time>2022-5-30T18:36:11Z</time></trkpt>
<trkpt lat="43.4503036" lon="6.7893605"><ele></ele><time>2022-5-30T18:36:14Z</time></trkpt>
<trkpt lat="43.4503283" lon="6.7893751"><ele></ele><time>2022-5-30T18:36:17Z</time></trkpt>
<trkpt lat="43.4503540" lon="6.7893903"><ele></ele><time>2022-5-30T18:36:20Z</time></trkpt>
<trkpt lat="43.4503818" lon="6.7894020"><ele></ele><time>2022-5-30T18:36:23Z</time></trkpt>
<trkpt lat="43.4504084" lon="6.7894065"><ele></ele><time>2022-5-30T18:36:26Z</time></trkpt>
<trkpt lat="43.4504378" lon="6.7894110"><ele></ele><time>2022-5-30T18:36:29Z</time></trkpt>
<trkpt lat="43.4504667" lon="6.7894134"><ele></ele><time>2022-5-30T18:36:32Z</time></trkpt>
<trkpt lat="43.4504934" lon="6.7894163"><ele></ele><time>2022-5-30T18:36:35Z</time></trkpt>
<trkpt lat="43.4505185" lon="6.7894213"><ele></ele><time>2022-5-30T18:36:38Z</time></trkpt>
<trkpt lat="43.4505445" lon="6.7894231"><ele></ele><time>2022-5-30T18:36:41Z</time></trkpt>
<trkpt lat="43.4505691" lon="6.7894249"><ele></ele><time>2022-5-30T18:36:44Z</time></trkpt>
<trkpt lat="43.4505962" lon="6.7894224"><ele></ele><time>2022-5-30T18:36:47Z</time></trkpt>
<trkpt lat="43.4506186" lon="6.7894028"><ele></ele><time>2022-5-30T18:36:50Z</time></trkpt>
<trkpt lat="43.4506424" lon="6.7893842"><ele></ele><time>2022-5-30T18:36:53Z</time></trkpt>
<trkpt lat="43.4506649" lon="6.7893684"><ele></ele><time>2022-5-30T18:36:56Z</time></trkpt>
<trkpt lat="43.4506876" lon="6.7893510"><ele></ele><time>2022-5-30T18:36:59Z</time></trkpt>
<trkpt lat="43.4507083" lon="6.7893262"><ele></ele><time>2022-5-30T18:37:2Z</time></trkpt>
<trkpt lat="43.4507281" lon="6.7892984"><ele></ele><time>2022-5-30T18:37:5Z</time></trkpt>
<trkpt lat="43.4507553" lon="6.7892749"><ele></ele><time>2022-5-30T18:37:8Z</time></trkpt>
<trkpt lat="43.4507845" lon="6.7892638"><ele></ele><time>2022-5-30T18:37:11Z</time></trkpt>
<trkpt lat="43.4508124" lon="6.7892457"><ele></ele><time>2022-5-30T18:37:14Z</time></trkpt>
<trkpt lat="43.4508400" lon="6.7892291"><ele></ele><time>2022-5-30T18:37:17Z</time></trkpt>
<trkpt lat="43.4508715" lon="6.7892141"><ele></ele><time>2022-5-30T18:37:20Z</time></trkpt>
<trkpt lat="43.4509062" lon="6.7891976"><ele></ele><time>2022-5-30T18:37:23Z</time></trkpt>
<trkpt lat="43.4509465" lon="6.7891847"><ele></ele><time>2022-5-30T18:37:26Z</time></trkpt>
<trkpt lat="43.4509906" lon="6.7891683"><ele></ele><time>2022-5-30T18:37:29Z</time></trkpt>
<trkpt lat="43.4510400" lon="6.7891605"><ele></ele><time>2022-5-30T18:37:32Z</time></trkpt>
<trkpt lat="43.4510907" lon="6.7891537"><ele></ele><time>2022-5-30T18:37:35Z</time></trkpt>
<trkpt lat="43.4511494" lon="6.7891416"><ele></ele><time>2022-5-30T18:37:38Z</time></trkpt>
<trkpt lat="43.4512124" lon="6.7891288"><ele></ele><time>2022-5-30T18:37:41Z</time></trkpt>
<trkpt lat="43.4512729" lon="6.7891156"><ele></ele><time>2022-5-30T18:37:44Z</time></trkpt>
<trkpt lat="43.4513334" lon="6.7891145"><ele></ele><time>2022-5-30T18:37:47Z</time></trkpt>
<trkpt lat="43.4513964" lon="6.7891145"><ele></ele><time>2022-5-30T18:37:50Z</time></trkpt>
<trkpt lat="43.4514620" lon="6.7891145"><ele></ele><time>2022-5-30T18:37:53Z</time></trkpt>
<trkpt lat="43.4515319" lon="6.7891261"><ele></ele><time>2022-5-30T18:37:56Z</time></trkpt>
<trkpt lat="43.4516022" lon="6.7891489"><ele></ele><time>2022-5-30T18:37:59Z</time></trkpt>
<trkpt lat="43.4516662" lon="6.7891724"><ele></ele><time>2022-5-30T18:38:2Z</time></trkpt>
<trkpt lat="43.4517187" lon="6.7892017"><ele></ele><time>2022-5-30T18:38:5Z</time></trkpt>
<trkpt lat="43.4517779" lon="6.7892348"><ele></ele><time>2022-5-30T18:38:8Z</time></trkpt>
<trkpt lat="43.4518322" lon="6.7892629"><ele></ele><time>2022-5-30T18:38:11Z</time></trkpt>
<trkpt lat="43.4518868" lon="6.7892918"><ele></ele><time>2022-5-30T18:38:14Z</time></trkpt>
<trkpt lat="43.4519425" lon="6.7893288"><ele></ele><time>2022-5-30T18:38:17Z</time></trkpt>
<trkpt lat="43.4519961" lon="6.7893683"><ele></ele><time>2022-5-30T18:38:20Z</time></trkpt>
<trkpt lat="43.4520522" lon="6.7894082"><ele></ele><time>2022-5-30T18:38:23Z</time></trkpt>
<trkpt lat="43.4521126" lon="6.7894451"><ele></ele><time>2022-5-30T18:38:26Z</time></trkpt>
<trkpt lat="43.4521775" lon="6.7894821"><ele></ele><time>2022-5-30T18:38:29Z</time></trkpt>
<trkpt lat="43.4522312" lon="6.7895153"><ele></ele><time>2022-5-30T18:38:32Z</time></trkpt>
<trkpt lat="43.4522928" lon="6.7895449"><ele></ele><time>2022-5-30T18:38:35Z</time></trkpt>
<trkpt lat="43.4523552" lon="6.7895589"><ele></ele><time>2022-5-30T18:38:38Z</time></trkpt>
<trkpt lat="43.4524108" lon="6.7895574"><ele></ele><time>2022-5-30T18:38:41Z</time></trkpt>
<trkpt lat="43.4524521" lon="6.7895415"><ele></ele><time>2022-5-30T18:38:44Z</time></trkpt>
<trkpt lat="43.4525018" lon="6.7895132"><ele></ele><time>2022-5-30T18:38:47Z</time></trkpt>
<trkpt lat="43.4525423" lon="6.7894628"><ele></ele><time>2022-5-30T18:38:50Z</time></trkpt>
<trkpt lat="43.4525812" lon="6.7894052"><ele></ele><time>2022-5-30T18:38:53Z</time></trkpt>
<trkpt lat="43.4526177" lon="6.7893420"><ele></ele><time>2022-5-30T18:38:56Z</time></trkpt>
<trkpt lat="43.4526507" lon="6.7892839"><ele></ele><time>2022-5-30T18:38:59Z</time></trkpt>
<trkpt lat="43.4526836" lon="6.7892269"><ele></ele><time>2022-5-30T18:39:2Z</time></trkpt>
<trkpt lat="43.4527232" lon="6.7891636"><ele></ele><time>2022-5-30T18:39:5Z</time></trkpt>
<trkpt lat="43.4527655" lon="6.7890918"><ele></ele><time>2022-5-30T18:39:8Z</time></trkpt>
<trkpt lat="43.4528047" lon="6.7890139"><ele></ele><time>2022-5-30T18:39:11Z</time></trkpt>
<trkpt lat="43.4528393" lon="6.7889217"><ele></ele><time>2022-5-30T18:39:14Z</time></trkpt>
<trkpt lat="43.4528536" lon="6.7888171"><ele></ele><time>2022-5-30T18:39:17Z</time></trkpt>
<trkpt lat="43.4528604" lon="6.7887131"><ele></ele><time>2022-5-30T18:39:20Z</time></trkpt>
<trkpt lat="43.4528414" lon="6.7886134"><ele></ele><time>2022-5-30T18:39:23Z</time></trkpt>
<trkpt lat="43.4528172" lon="6.7885198"><ele></ele><time>2022-5-30T18:39:26Z</time></trkpt>
<trkpt lat="43.4527827" lon="6.7884341"><ele></ele><time>2022-5-30T18:39:29Z</time></trkpt>
<trkpt lat="43.4527479" lon="6.7883458"><ele></ele><time>2022-5-30T18:39:32Z</time></trkpt>
<trkpt lat="43.4527312" lon="6.7882514"><ele></ele><time>2022-5-30T18:39:35Z</time></trkpt>
<trkpt lat="43.4527139" lon="6.7881595"><ele></ele><time>2022-5-30T18:39:38Z</time></trkpt>
<trkpt lat="43.4526906" lon="6.7880715"><ele></ele><time>2022-5-30T18:39:41Z</time></trkpt>
<trkpt lat="43.4526727" lon="6.7879904"><ele></ele><time>2022-5-30T18:39:44Z</time></trkpt>
<trkpt lat="43.4526511" lon="6.7879153"><ele></ele><time>2022-5-30T18:39:47Z</time></trkpt>
<trkpt lat="43.4526314" lon="6.7878433"><ele></ele><time>2022-5-30T18:39:50Z</time></trkpt>
<trkpt lat="43.4526119" lon="6.7877692"><ele></ele><time>2022-5-30T18:39:53Z</time></trkpt>
<trkpt lat="43.4525922" lon="6.7876980"><ele></ele><time>2022-5-30T18:39:56Z</time></trkpt>
<trkpt lat="43.4525761" lon="6.7876282"><ele></ele><time>2022-5-30T18:39:59Z</time></trkpt>
<trkpt lat="43.4525592" lon="6.7875635"><ele></ele><time>2022-5-30T18:40:2Z</time></trkpt>
<trkpt lat="43.4525366" lon="6.7875016"><ele></ele><time>2022-5-30T18:40:5Z</time></trkpt>
<trkpt lat="43.4525148" lon="6.7874411"><ele></ele><time>2022-5-30T18:40:8Z</time></trkpt>
<trkpt lat="43.4524938" lon="6.7873733"><ele></ele><time>2022-5-30T18:40:11Z</time></trkpt>
<trkpt lat="43.4524706" lon="6.7873004"><ele></ele><time>2022-5-30T18:40:14Z</time></trkpt>
<trkpt lat="43.4524465" lon="6.7872216"><ele></ele><time>2022-5-30T18:40:17Z</time></trkpt>
<trkpt lat="43.4524171" lon="6.7871420"><ele></ele><time>2022-5-30T18:40:20Z</time></trkpt>
<trkpt lat="43.4523854" lon="6.7870634"><ele></ele><time>2022-5-30T18:40:23Z</time></trkpt>
<trkpt lat="43.4523438" lon="6.7869850"><ele></ele><time>2022-5-30T18:40:26Z</time></trkpt>
<trkpt lat="43.4522940" lon="6.7869164"><ele></ele><time>2022-5-30T18:40:29Z</time></trkpt>
<trkpt lat="43.4522456" lon="6.7868536"><ele></ele><time>2022-5-30T18:40:32Z</time></trkpt>
<trkpt lat="43.4521916" lon="6.7867967"><ele></ele><time>2022-5-30T18:40:35Z</time></trkpt>
<trkpt lat="43.4521444" lon="6.7867441"><ele></ele><time>2022-5-30T18:40:38Z</time></trkpt>
<trkpt lat="43.4520970" lon="6.7867006"><ele></ele><time>2022-5-30T18:40:41Z</time></trkpt>
<trkpt lat="43.4520479" lon="6.7866620"><ele></ele><time>2022-5-30T18:40:44Z</time></trkpt>
<trkpt lat="43.4519983" lon="6.7866319"><ele></ele><time>2022-5-30T18:40:47Z</time></trkpt>
<trkpt lat="43.4519492" lon="6.7866092"><ele></ele><time>2022-5-30T18:40:50Z</time></trkpt>
<trkpt lat="43.4519072" lon="6.7865938"><ele></ele><time>2022-5-30T18:40:53Z</time></trkpt>
<trkpt lat="43.4518522" lon="6.7865687"><ele></ele><time>2022-5-30T18:40:56Z</time></trkpt>
<trkpt lat="43.4517918" lon="6.7865409"><ele></ele><time>2022-5-30T18:40:59Z</time></trkpt>
<trkpt lat="43.4517392" lon="6.7865176"><ele></ele><time>2022-5-30T18:41:2Z</time></trkpt>
<trkpt lat="43.4516862" lon="6.7864892"><ele></ele><time>2022-5-30T18:41:5Z</time></trkpt>
<trkpt lat="43.4516324" lon="6.7864524"><ele></ele><time>2022-5-30T18:41:8Z</time></trkpt>
<trkpt lat="43.4515861" lon="6.7864061"><ele></ele><time>2022-5-30T18:41:11Z</time></trkpt>
<trkpt lat="43.4515376" lon="6.7863587"><ele></ele><time>2022-5-30T18:41:14Z</time></trkpt>
<trkpt lat="43.4514828" lon="6.7863047"><ele></ele><time>2022-5-30T18:41:17Z</time></trkpt>
<trkpt lat="43.4514283" lon="6.7862420"><ele></ele><time>2022-5-30T18:41:20Z</time></trkpt>
<trkpt lat="43.4513768" lon="6.7861802"><ele></ele><time>2022-5-30T18:41:23Z</time></trkpt>
<trkpt lat="43.4513342" lon="6.7861033"><ele></ele><time>2022-5-30T18:41:26Z</time></trkpt>
<trkpt lat="43.4512935" lon="6.7860245"><ele></ele><time>2022-5-30T18:41:29Z</time></trkpt>
<trkpt lat="43.4512568" lon="6.7859374"><ele></ele><time>2022-5-30T18:41:32Z</time></trkpt>
<trkpt lat="43.4512303" lon="6.7858448"><ele></ele><time>2022-5-30T18:41:35Z</time></trkpt>
<trkpt lat="43.4512208" lon="6.7857498"><ele></ele><time>2022-5-30T18:41:38Z</time></trkpt>
<trkpt lat="43.4512100" lon="6.7856523"><ele></ele><time>2022-5-30T18:41:41Z</time></trkpt>
<trkpt lat="43.4512045" lon="6.7855596"><ele></ele><time>2022-5-30T18:41:44Z</time></trkpt>
<trkpt lat="43.4512150" lon="6.7854670"><ele></ele><time>2022-5-30T18:41:47Z</time></trkpt>
<trkpt lat="43.4512293" lon="6.7853738"><ele></ele><time>2022-5-30T18:41:50Z</time></trkpt>
<trkpt lat="43.4512314" lon="6.7852832"><ele></ele><time>2022-5-30T18:41:53Z</time></trkpt>
<trkpt lat="43.4512376" lon="6.7851972"><ele></ele><time>2022-5-30T18:41:56Z</time></trkpt>
<trkpt lat="43.4512402" lon="6.7851120"><ele></ele><time>2022-5-30T18:41:59Z</time></trkpt>
<trkpt lat="43.4512436" lon="6.7850236"><ele></ele><time>2022-5-30T18:42:2Z</time></trkpt>
<trkpt lat="43.4512456" lon="6.7849464"><ele></ele><time>2022-5-30T18:42:5Z</time></trkpt>
<trkpt lat="43.4512475" lon="6.7848767"><ele></ele><time>2022-5-30T18:42:8Z</time></trkpt>
<trkpt lat="43.4512521" lon="6.7848127"><ele></ele><time>2022-5-30T18:42:11Z</time></trkpt>
<trkpt lat="43.4512590" lon="6.7847526"><ele></ele><time>2022-5-30T18:42:14Z</time></trkpt>
<trkpt lat="43.4512654" lon="6.7846961"><ele></ele><time>2022-5-30T18:42:17Z</time></trkpt>
<trkpt lat="43.4512801" lon="6.7846323"><ele></ele><time>2022-5-30T18:42:20Z</time></trkpt>
<trkpt lat="43.4512925" lon="6.7845688"><ele></ele><time>2022-5-30T18:42:23Z</time></trkpt>
<trkpt lat="43.4512980" lon="6.7845057"><ele></ele><time>2022-5-30T18:42:26Z</time></trkpt>
<trkpt lat="43.4513066" lon="6.7844506"><ele></ele><time>2022-5-30T18:42:29Z</time></trkpt>
<trkpt lat="43.4513210" lon="6.7844081"><ele></ele><time>2022-5-30T18:42:32Z</time></trkpt>
<trkpt lat="43.4513415" lon="6.7843574"><ele></ele><time>2022-5-30T18:42:35Z</time></trkpt>
<trkpt lat="43.4513614" lon="6.7843040"><ele></ele><time>2022-5-30T18:42:38Z</time></trkpt>
<trkpt lat="43.4513815" lon="6.7842500"><ele></ele><time>2022-5-30T18:42:41Z</time></trkpt>
<trkpt lat="43.4513993" lon="6.7841970"><ele></ele><time>2022-5-30T18:42:44Z</time></trkpt>
<trkpt lat="43.4514269" lon="6.7841568"><ele></ele><time>2022-5-30T18:42:47Z</time></trkpt>
<trkpt lat="43.4514500" lon="6.7841158"><ele></ele><time>2022-5-30T18:42:50Z</time></trkpt>
<trkpt lat="43.4514698" lon="6.7840762"><ele></ele><time>2022-5-30T18:42:53Z</time></trkpt>
<trkpt lat="43.4514863" lon="6.7840362"><ele></ele><time>2022-5-30T18:42:56Z</time></trkpt>
<trkpt lat="43.4515055" lon="6.7840013"><ele></ele><time>2022-5-30T18:42:59Z</time></trkpt>
<trkpt lat="43.4515255" lon="6.7839656"><ele></ele><time>2022-5-30T18:43:2Z</time></trkpt>
<trkpt lat="43.4515466" lon="6.7839317"><ele></ele><time>2022-5-30T18:43:5Z</time></trkpt>
<trkpt lat="43.4515686" lon="6.7839015"><ele></ele><time>2022-5-30T18:43:8Z</time></trkpt>
<trkpt lat="43.4515895" lon="6.7838746"><ele></ele><time>2022-5-30T18:43:11Z</time></trkpt>
<trkpt lat="43.4516098" lon="6.7838472"><ele></ele><time>2022-5-30T18:43:14Z</time></trkpt>
<trkpt lat="43.4516387" lon="6.7838307"><ele></ele><time>2022-5-30T18:43:17Z</time></trkpt>
<trkpt lat="43.4516697" lon="6.7838209"><ele></ele><time>2022-5-30T18:43:20Z</time></trkpt>
<trkpt lat="43.4517053" lon="6.7838133"><ele></ele><time>2022-5-30T18:43:23Z</time></trkpt>
<trkpt lat="43.4517404" lon="6.7838136"><ele></ele><time>2022-5-30T18:43:26Z</time></trkpt>
<trkpt lat="43.4517779" lon="6.7838097"><ele></ele><time>2022-5-30T18:43:29Z</time></trkpt>
<trkpt lat="43.4518137" lon="6.7838057"><ele></ele><time>2022-5-30T18:43:32Z</time></trkpt>
<trkpt lat="43.4518497" lon="6.7838012"><ele></ele><time>2022-5-30T18:43:35Z</time></trkpt>
<trkpt lat="43.4518893" lon="6.7838064"><ele></ele><time>2022-5-30T18:43:38Z</time></trkpt>
<trkpt lat="43.4519272" lon="6.7838124"><ele></ele><time>2022-5-30T18:43:41Z</time></trkpt>
<trkpt lat="43.4519667" lon="6.7838143"><ele></ele><time>2022-5-30T18:43:44Z</time></trkpt>
<trkpt lat="43.4520049" lon="6.7838153"><ele></ele><time>2022-5-30T18:43:47Z</time></trkpt>
<trkpt lat="43.4520449" lon="6.7838201"><ele></ele><time>2022-5-30T18:43:50Z</time></trkpt>
<trkpt lat="43.4520921" lon="6.7838331"><ele></ele><time>2022-5-30T18:43:53Z</time></trkpt>
<trkpt lat="43.4521356" lon="6.7838530"><ele></ele><time>2022-5-30T18:43:56Z</time></trkpt>
<trkpt lat="43.4521729" lon="6.7838649"><ele></ele><time>2022-5-30T18:43:59Z</time></trkpt>
<trkpt lat="43.4522110" lon="6.7838809"><ele></ele><time>2022-5-30T18:44:2Z</time></trkpt>
<trkpt lat="43.4522530" lon="6.7839000"><ele></ele><time>2022-5-30T18:44:5Z</time></trkpt>
<trkpt lat="43.4522913" lon="6.7839161"><ele></ele><time>2022-5-30T18:44:8Z</time></trkpt>
<trkpt lat="43.4523300" lon="6.7839387"><ele></ele><time>2022-5-30T18:44:11Z</time></trkpt>
<trkpt lat="43.4523681" lon="6.7839598"><ele></ele><time>2022-5-30T18:44:14Z</time></trkpt>
<trkpt lat="43.4524054" lon="6.7839771"><ele></ele><time>2022-5-30T18:44:17Z</time></trkpt>
<trkpt lat="43.4524429" lon="6.7839897"><ele></ele><time>2022-5-30T18:44:20Z</time></trkpt>
<trkpt lat="43.4524799" lon="6.7839949"><ele></ele><time>2022-5-30T18:44:23Z</time></trkpt>
<trkpt lat="43.4525211" lon="6.7839974"><ele></ele><time>2022-5-30T18:44:26Z</time></trkpt>
<trkpt lat="43.4525669" lon="6.7840005"><ele></ele><time>2022-5-30T18:44:29Z</time></trkpt>
<trkpt lat="43.4526193" lon="6.7840007"><ele></ele><time>2022-5-30T18:44:32Z</time></trkpt>
<trkpt lat="43.4526727" lon="6.7839864"><ele></ele><time>2022-5-30T18:44:35Z</time></trkpt>
<trkpt lat="43.4527210" lon="6.7839652"><ele></ele><time>2022-5-30T18:44:38Z</time></trkpt>
<trkpt lat="43.4527732" lon="6.7839419"><ele></ele><time>2022-5-30T18:44:41Z</time></trkpt>
<trkpt lat="43.4528231" lon="6.7839090"><ele></ele><time>2022-5-30T18:44:44Z</time></trkpt>
<trkpt lat="43.4528721" lon="6.7838633"><ele></ele><time>2022-5-30T18:44:47Z</time></trkpt>
<trkpt lat="43.4529184" lon="6.7838179"><ele></ele><time>2022-5-30T18:44:50Z</time></trkpt>
<trkpt lat="43.4529604" lon="6.7837768"><ele></ele><time>2022-5-30T18:44:53Z</time></trkpt>
<trkpt lat="43.4530013" lon="6.7837392"><ele></ele><time>2022-5-30T18:44:56Z</time></trkpt>
<trkpt lat="43.4530390" lon="6.7837058"><ele></ele><time>2022-5-30T18:44:59Z</time></trkpt>
<trkpt lat="43.4530736" lon="6.7836745"><ele></ele><time>2022-5-30T18:45:2Z</time></trkpt>
<trkpt lat="43.4531070" lon="6.7836435"><ele></ele><time>2022-5-30T18:45:5Z</time></trkpt>
<trkpt lat="43.4531374" lon="6.7836194"><ele></ele><time>2022-5-30T18:45:8Z</time></trkpt>
<trkpt lat="43.4531667" lon="6.7836004"><ele></ele><time>2022-5-30T18:45:11Z</time></trkpt>
<trkpt lat="43.4531945" lon="6.7835856"><ele></ele><time>2022-5-30T18:45:14Z</time></trkpt>
<trkpt lat="43.4532230" lon="6.7835868"><ele></ele><time>2022-5-30T18:45:17Z</time></trkpt>
<trkpt lat="43.4532503" lon="6.7835942"><ele></ele><time>2022-5-30T18:45:20Z</time></trkpt>
<trkpt lat="43.4532809" lon="6.7836169"><ele></ele><time>2022-5-30T18:45:23Z</time></trkpt>
<trkpt lat="43.4533117" lon="6.7836528"><ele></ele><time>2022-5-30T18:45:26Z</time></trkpt>
<trkpt lat="43.4533383" lon="6.7836920"><ele></ele><time>2022-5-30T18:45:29Z</time></trkpt>
<trkpt lat="43.4533638" lon="6.7837371"><ele></ele><time>2022-5-30T18:45:32Z</time></trkpt>
<trkpt lat="43.4533904" lon="6.7837839"><ele></ele><time>2022-5-30T18:45:35Z</time></trkpt>
<trkpt lat="43.4534158" lon="6.7838313"><ele></ele><time>2022-5-30T18:45:38Z</time></trkpt>
<trkpt lat="43.4534394" lon="6.7838742"><ele></ele><time>2022-5-30T18:45:41Z</time></trkpt>
<trkpt lat="43.4534652" lon="6.7839192"><ele></ele><time>2022-5-30T18:45:44Z</time></trkpt>
<trkpt lat="43.4534937" lon="6.7839693"><ele></ele><time>2022-5-30T18:45:47Z</time></trkpt>
<trkpt lat="43.4535226" lon="6.7840205"><ele></ele><time>2022-5-30T18:45:50Z</time></trkpt>
<trkpt lat="43.4535477" lon="6.7840753"><ele></ele><time>2022-5-30T18:45:53Z</time></trkpt>
<trkpt lat="43.4535703" lon="6.7841315"><ele></ele><time>2022-5-30T18:45:56Z</time></trkpt>
<trkpt lat="43.4536027" lon="6.7841852"><ele></ele><time>2022-5-30T18:45:59Z</time></trkpt>
<trkpt lat="43.4536409" lon="6.7842288"><ele></ele><time>2022-5-30T18:46:2Z</time></trkpt>
<trkpt lat="43.4536726" lon="6.7842748"><ele></ele><time>2022-5-30T18:46:5Z</time></trkpt>
<trkpt lat="43.4536993" lon="6.7843226"><ele></ele><time>2022-5-30T18:46:8Z</time></trkpt>
<trkpt lat="43.4537244" lon="6.7843708"><ele></ele><time>2022-5-30T18:46:11Z</time></trkpt>
<trkpt lat="43.4537469" lon="6.7844161"><ele></ele><time>2022-5-30T18:46:14Z</time></trkpt>
<trkpt lat="43.4537681" lon="6.7844568"><ele></ele><time>2022-5-30T18:46:17Z</time></trkpt>
<trkpt lat="43.4537910" lon="6.7844980"><ele></ele><time>2022-5-30T18:46:20Z</time></trkpt>
<trkpt lat="43.4538133" lon="6.7845457"><ele></ele><time>2022-5-30T18:46:23Z</time></trkpt>
<trkpt lat="43.4538387" lon="6.7845927"><ele></ele><time>2022-5-30T18:46:26Z</time></trkpt>
<trkpt lat="43.4538668" lon="6.7846434"><ele></ele><time>2022-5-30T18:46:29Z</time></trkpt>
<trkpt lat="43.4538928" lon="6.7847078"><ele></ele><time>2022-5-30T18:46:32Z</time></trkpt>
<trkpt lat="43.4539246" lon="6.7847641"><ele></ele><time>2022-5-30T18:46:35Z</time></trkpt>
<trkpt lat="43.4539560" lon="6.7848190"><ele></ele><time>2022-5-30T18:46:38Z</time></trkpt>
<trkpt lat="43.4539832" lon="6.7848799"><ele></ele><time>2022-5-30T18:46:41Z</time></trkpt>
<trkpt lat="43.4540136" lon="6.7849420"><ele></ele><time>2022-5-30T18:46:44Z</time></trkpt>
<trkpt lat="43.4540432" lon="6.7850095"><ele></ele><time>2022-5-30T18:46:47Z</time></trkpt>
<trkpt lat="43.4540751" lon="6.7850804"><ele></ele><time>2022-5-30T18:46:50Z</time></trkpt>
<trkpt lat="43.4541119" lon="6.7851461"><ele></ele><time>2022-5-30T18:46:53Z</time></trkpt>
<trkpt lat="43.4541473" lon="6.7852090"><ele></ele><time>2022-5-30T18:46:56Z</time></trkpt>
<trkpt lat="43.4541826" lon="6.7852734"><ele></ele><time>2022-5-30T18:46:59Z</time></trkpt>
<trkpt lat="43.4542164" lon="6.7853430"><ele></ele><time>2022-5-30T18:47:2Z</time></trkpt>
<trkpt lat="43.4542514" lon="6.7854140"><ele></ele><time>2022-5-30T18:47:5Z</time></trkpt>
<trkpt lat="43.4542846" lon="6.7854780"><ele></ele><time>2022-5-30T18:47:8Z</time></trkpt>
<trkpt lat="43.4543236" lon="6.7855483"><ele></ele><time>2022-5-30T18:47:11Z</time></trkpt>
<trkpt lat="43.4543629" lon="6.7856167"><ele></ele><time>2022-5-30T18:47:14Z</time></trkpt>
<trkpt lat="43.4544029" lon="6.7856815"><ele></ele><time>2022-5-30T18:47:17Z</time></trkpt>
<trkpt lat="43.4544363" lon="6.7857435"><ele></ele><time>2022-5-30T18:47:20Z</time></trkpt>
<trkpt lat="43.4544710" lon="6.7858056"><ele></ele><time>2022-5-30T18:47:23Z</time></trkpt>
<trkpt lat="43.4545085" lon="6.7858717"><ele></ele><time>2022-5-30T18:47:26Z</time></trkpt>
<trkpt lat="43.4545429" lon="6.7859387"><ele></ele><time>2022-5-30T18:47:29Z</time></trkpt>
<trkpt lat="43.4545822" lon="6.7860076"><ele></ele><time>2022-5-30T18:47:32Z</time></trkpt>
<trkpt lat="43.4546252" lon="6.7860853"><ele></ele><time>2022-5-30T18:47:35Z</time></trkpt>
<trkpt lat="43.4546640" lon="6.7861564"><ele></ele><time>2022-5-30T18:47:38Z</time></trkpt>
<trkpt lat="43.4547027" lon="6.7862220"><ele></ele><time>2022-5-30T18:47:41Z</time></trkpt>
<trkpt lat="43.4547409" lon="6.7862791"><ele></ele><time>2022-5-30T18:47:44Z</time></trkpt>
<trkpt lat="43.4547778" lon="6.7863394"><ele></ele><time>2022-5-30T18:47:47Z</time></trkpt>
<trkpt lat="43.4548152" lon="6.7863985"><ele></ele><time>2022-5-30T18:47:50Z</time></trkpt>
<trkpt lat="43.4548469" lon="6.7864628"><ele></ele><time>2022-5-30T18:47:53Z</time></trkpt>
<trkpt lat="43.4548744" lon="6.7865294"><ele></ele><time>2022-5-30T18:47:56Z</time></trkpt>
<trkpt lat="43.4548963" lon="6.7865912"><ele></ele><time>2022-5-30T18:47:59Z</time></trkpt>
<trkpt lat="43.4549162" lon="6.7866540"><ele></ele><time>2022-5-30T18:48:2Z</time></trkpt>
<trkpt lat="43.4549376" lon="6.7867207"><ele></ele><time>2022-5-30T18:48:5Z</time></trkpt>
<trkpt lat="43.4549583" lon="6.7867850"><ele></ele><time>2022-5-30T18:48:8Z</time></trkpt>
<trkpt lat="43.4549774" lon="6.7868556"><ele></ele><time>2022-5-30T18:48:11Z</time></trkpt>
<trkpt lat="43.4549919" lon="6.7869256"><ele></ele><time>2022-5-30T18:48:14Z</time></trkpt>
<trkpt lat="43.4550061" lon="6.7869964"><ele></ele><time>2022-5-30T18:48:17Z</time></trkpt>
<trkpt lat="43.4550232" lon="6.7870684"><ele></ele><time>2022-5-30T18:48:20Z</time></trkpt>
<trkpt lat="43.4550432" lon="6.7871301"><ele></ele><time>2022-5-30T18:48:23Z</time></trkpt>
<trkpt lat="43.4550555" lon="6.7871905"><ele></ele><time>2022-5-30T18:48:26Z</time></trkpt>
<trkpt lat="43.4550679" lon="6.7872583"><ele></ele><time>2022-5-30T18:48:29Z</time></trkpt>
<trkpt lat="43.4550825" lon="6.7873248"><ele></ele><time>2022-5-30T18:48:32Z</time></trkpt>
<trkpt lat="43.4551022" lon="6.7874016"><ele></ele><time>2022-5-30T18:48:35Z</time></trkpt>
<trkpt lat="43.4551225" lon="6.7874762"><ele></ele><time>2022-5-30T18:48:38Z</time></trkpt>
<trkpt lat="43.4551479" lon="6.7875653"><ele></ele><time>2022-5-30T18:48:41Z</time></trkpt>
<trkpt lat="43.4551751" lon="6.7876600"><ele></ele><time>2022-5-30T18:48:44Z</time></trkpt>
<trkpt lat="43.4552020" lon="6.7877576"><ele></ele><time>2022-5-30T18:48:47Z</time></trkpt>
<trkpt lat="43.4552305" lon="6.7878502"><ele></ele><time>2022-5-30T18:48:50Z</time></trkpt>
<trkpt lat="43.4552609" lon="6.7879448"><ele></ele><time>2022-5-30T18:48:53Z</time></trkpt>
<trkpt lat="43.4552877" lon="6.7880398"><ele></ele><time>2022-5-30T18:48:56Z</time></trkpt>
<trkpt lat="43.4553102" lon="6.7881348"><ele></ele><time>2022-5-30T18:48:59Z</time></trkpt>
<trkpt lat="43.4553317" lon="6.7882207"><ele></ele><time>2022-5-30T18:49:2Z</time></trkpt>
<trkpt lat="43.4553547" lon="6.7883071"><ele></ele><time>2022-5-30T18:49:5Z</time></trkpt>
<trkpt lat="43.4553753" lon="6.7883923"><ele></ele><time>2022-5-30T18:49:8Z</time></trkpt>
<trkpt lat="43.4553966" lon="6.7884794"><ele></ele><time>2022-5-30T18:49:11Z</time></trkpt>
<trkpt lat="43.4554154" lon="6.7885664"><ele></ele><time>2022-5-30T18:49:14Z</time></trkpt>
<trkpt lat="43.4554317" lon="6.7886518"><ele></ele><time>2022-5-30T18:49:17Z</time></trkpt>
<trkpt lat="43.4554482" lon="6.7887381"><ele></ele><time>2022-5-30T18:49:20Z</time></trkpt>
<trkpt lat="43.4554600" lon="6.7888237"><ele></ele><time>2022-5-30T18:49:23Z</time></trkpt>
<trkpt lat="43.4554711" lon="6.7889026"><ele></ele><time>2022-5-30T18:49:26Z</time></trkpt>
<trkpt lat="43.4554844" lon="6.7889777"><ele></ele><time>2022-5-30T18:49:29Z</time></trkpt>
<trkpt lat="43.4555006" lon="6.7890597"><ele></ele><time>2022-5-30T18:49:32Z</time></trkpt>
<trkpt lat="43.4555230" lon="6.7891459"><ele></ele><time>2022-5-30T18:49:35Z</time></trkpt>
<trkpt lat="43.4555417" lon="6.7892344"><ele></ele><time>2022-5-30T18:49:38Z</time></trkpt>
<trkpt lat="43.4555584" lon="6.7893168"><ele></ele><time>2022-5-30T18:49:41Z</time></trkpt>
<trkpt lat="43.4555760" lon="6.7894020"><ele></ele><time>2022-5-30T18:49:44Z</time></trkpt>
<trkpt lat="43.4555940" lon="6.7894872"><ele></ele><time>2022-5-30T18:49:47Z</time></trkpt>
<trkpt lat="43.4556121" lon="6.7895688"><ele></ele><time>2022-5-30T18:49:50Z</time></trkpt>
<trkpt lat="43.4556308" lon="6.7896486"><ele></ele><time>2022-5-30T18:49:53Z</time></trkpt>
<trkpt lat="43.4556503" lon="6.7897301"><ele></ele><time>2022-5-30T18:49:56Z</time></trkpt>
<trkpt lat="43.4556696" lon="6.7898119"><ele></ele><time>2022-5-30T18:49:59Z</time></trkpt>
<trkpt lat="43.4556912" lon="6.7898887"><ele></ele><time>2022-5-30T18:50:2Z</time></trkpt>
<trkpt lat="43.4557158" lon="6.7899662"><ele></ele><time>2022-5-30T18:50:5Z</time></trkpt>
<trkpt lat="43.4557383" lon="6.7900397"><ele></ele><time>2022-5-30T18:50:8Z</time></trkpt>
<trkpt lat="43.4557592" lon="6.7901116"><ele></ele><time>2022-5-30T18:50:11Z</time></trkpt>
<trkpt lat="43.4557856" lon="6.7901856"><ele></ele><time>2022-5-30T18:50:14Z</time></trkpt>
<trkpt lat="43.4558149" lon="6.7902597"><ele></ele><time>2022-5-30T18:50:17Z</time></trkpt>
<trkpt lat="43.4558437" lon="6.7903328"><ele></ele><time>2022-5-30T18:50:20Z</time></trkpt>
<trkpt lat="43.4558728" lon="6.7904113"><ele></ele><time>2022-5-30T18:50:23Z</time></trkpt>
<trkpt lat="43.4559017" lon="6.7904876"><ele></ele><time>2022-5-30T18:50:26Z</time></trkpt>
<trkpt lat="43.4559345" lon="6.7905575"><ele></ele><time>2022-5-30T18:50:29Z</time></trkpt>
<trkpt lat="43.4559647" lon="6.7906235"><ele></ele><time>2022-5-30T18:50:32Z</time></trkpt>
<trkpt lat="43.4559941" lon="6.7906912"><ele></ele><time>2022-5-30T18:50:35Z</time></trkpt>
<trkpt lat="43.4560246" lon="6.7907599"><ele></ele><time>2022-5-30T18:50:38Z</time></trkpt>
<trkpt lat="43.4560549" lon="6.7908293"><ele></ele><time>2022-5-30T18:50:41Z</time></trkpt>
<trkpt lat="43.4560823" lon="6.7908985"><ele></ele><time>2022-5-30T18:50:44Z</time></trkpt>
<trkpt lat="43.4561119" lon="6.7909670"><ele></ele><time>2022-5-30T18:50:47Z</time></trkpt>
<trkpt lat="43.4561416" lon="6.7910360"><ele></ele><time>2022-5-30T18:50:50Z</time></trkpt>
<trkpt lat="43.4561687" lon="6.7911092"><ele></ele><time>2022-5-30T18:50:53Z</time></trkpt>
<trkpt lat="43.4561942" lon="6.7911832"><ele></ele><time>2022-5-30T18:50:56Z</time></trkpt>
<trkpt lat="43.4562151" lon="6.7912616"><ele></ele><time>2022-5-30T18:50:59Z</time></trkpt>
<trkpt lat="43.4562325" lon="6.7913365"><ele></ele><time>2022-5-30T18:51:2Z</time></trkpt>
<trkpt lat="43.4562475" lon="6.7914074"><ele></ele><time>2022-5-30T18:51:5Z</time></trkpt>
<trkpt lat="43.4562551" lon="6.7914774"><ele></ele><time>2022-5-30T18:51:8Z</time></trkpt>
<trkpt lat="43.4562637" lon="6.7915524"><ele></ele><time>2022-5-30T18:51:11Z</time></trkpt>
<trkpt lat="43.4562725" lon="6.7916272"><ele></ele><time>2022-5-30T18:51:14Z</time></trkpt>
<trkpt lat="43.4562794" lon="6.7917010"><ele></ele><time>2022-5-30T18:51:17Z</time></trkpt>
<trkpt lat="43.4562839" lon="6.7917738"><ele></ele><time>2022-5-30T18:51:20Z</time></trkpt>
<trkpt lat="43.4562903" lon="6.7918483"><ele></ele><time>2022-5-30T18:51:23Z</time></trkpt>
<trkpt lat="43.4562954" lon="6.7919195"><ele></ele><time>2022-5-30T18:51:26Z</time></trkpt>
<trkpt lat="43.4563034" lon="6.7920017"><ele></ele><time>2022-5-30T18:51:29Z</time></trkpt>
<trkpt lat="43.4563121" lon="6.7920857"><ele></ele><time>2022-5-30T18:51:32Z</time></trkpt>
<trkpt lat="43.4563208" lon="6.7921718"><ele></ele><time>2022-5-30T18:51:35Z</time></trkpt>
<trkpt lat="43.4563323" lon="6.7922520"><ele></ele><time>2022-5-30T18:51:38Z</time></trkpt>
<trkpt lat="43.4563501" lon="6.7923313"><ele></ele><time>2022-5-30T18:51:41Z</time></trkpt>
<trkpt lat="43.4563673" lon="6.7924007"><ele></ele><time>2022-5-30T18:51:44Z</time></trkpt>
<trkpt lat="43.4563845" lon="6.7924740"><ele></ele><time>2022-5-30T18:51:47Z</time></trkpt>
<trkpt lat="43.4564021" lon="6.7925491"><ele></ele><time>2022-5-30T18:51:50Z</time></trkpt>
<trkpt lat="43.4564235" lon="6.7926300"><ele></ele><time>2022-5-30T18:51:53Z</time></trkpt>
<trkpt lat="43.4564485" lon="6.7927146"><ele></ele><time>2022-5-30T18:51:56Z</time></trkpt>
<trkpt lat="43.4564718" lon="6.7928087"><ele></ele><time>2022-5-30T18:51:59Z</time></trkpt>
<trkpt lat="43.4564928" lon="6.7928997"><ele></ele><time>2022-5-30T18:52:2Z</time></trkpt>
<trkpt lat="43.4565156" lon="6.7929831"><ele></ele><time>2022-5-30T18:52:5Z</time></trkpt>
<trkpt lat="43.4565386" lon="6.7930668"><ele></ele><time>2022-5-30T18:52:8Z</time></trkpt>
<trkpt lat="43.4565567" lon="6.7931513"><ele></ele><time>2022-5-30T18:52:11Z</time></trkpt>
<trkpt lat="43.4565783" lon="6.7932326"><ele></ele><time>2022-5-30T18:52:14Z</time></trkpt>
<trkpt lat="43.4565977" lon="6.7933167"><ele></ele><time>2022-5-30T18:52:17Z</time></trkpt>
<trkpt lat="43.4566138" lon="6.7934055"><ele></ele><time>2022-5-30T18:52:20Z</time></trkpt>
<trkpt lat="43.4566335" lon="6.7934926"><ele></ele><time>2022-5-30T18:52:23Z</time></trkpt>
<trkpt lat="43.4566521" lon="6.7935830"><ele></ele><time>2022-5-30T18:52:26Z</time></trkpt>
<trkpt lat="43.4566710" lon="6.7936741"><ele></ele><time>2022-5-30T18:52:29Z</time></trkpt>
<trkpt lat="43.4566909" lon="6.7937655"><ele></ele><time>2022-5-30T18:52:32Z</time></trkpt>
<trkpt lat="43.4567112" lon="6.7938576"><ele></ele><time>2022-5-30T18:52:35Z</time></trkpt>
<trkpt lat="43.4567310" lon="6.7939488"><ele></ele><time>2022-5-30T18:52:38Z</time></trkpt>
<trkpt lat="43.4567524" lon="6.7940403"><ele></ele><time>2022-5-30T18:52:41Z</time></trkpt>
<trkpt lat="43.4567770" lon="6.7941347"><ele></ele><time>2022-5-30T18:52:44Z</time></trkpt>
<trkpt lat="43.4568030" lon="6.7942303"><ele></ele><time>2022-5-30T18:52:47Z</time></trkpt>
<trkpt lat="43.4568296" lon="6.7943247"><ele></ele><time>2022-5-30T18:52:50Z</time></trkpt>
<trkpt lat="43.4568467" lon="6.7944216"><ele></ele><time>2022-5-30T18:52:53Z</time></trkpt>
<trkpt lat="43.4568547" lon="6.7945200"><ele></ele><time>2022-5-30T18:52:56Z</time></trkpt>
<trkpt lat="43.4568626" lon="6.7946209"><ele></ele><time>2022-5-30T18:52:59Z</time></trkpt>
<trkpt lat="43.4568791" lon="6.7947234"><ele></ele><time>2022-5-30T18:53:2Z</time></trkpt>
<trkpt lat="43.4568873" lon="6.7948282"><ele></ele><time>2022-5-30T18:53:5Z</time></trkpt>
<trkpt lat="43.4568824" lon="6.7949363"><ele></ele><time>2022-5-30T18:53:8Z</time></trkpt>
<trkpt lat="43.4568867" lon="6.7950420"><ele></ele><time>2022-5-30T18:53:11Z</time></trkpt>
<trkpt lat="43.4568874" lon="6.7951485"><ele></ele><time>2022-5-30T18:53:14Z</time></trkpt>
<trkpt lat="43.4568833" lon="6.7952527"><ele></ele><time>2022-5-30T18:53:17Z</time></trkpt>
<trkpt lat="43.4568707" lon="6.7953522"><ele></ele><time>2022-5-30T18:53:20Z</time></trkpt>
<trkpt lat="43.4568540" lon="6.7954509"><ele></ele><time>2022-5-30T18:53:23Z</time></trkpt>
<trkpt lat="43.4568425" lon="6.7955534"><ele></ele><time>2022-5-30T18:53:26Z</time></trkpt>
<trkpt lat="43.4568339" lon="6.7956590"><ele></ele><time>2022-5-30T18:53:29Z</time></trkpt>
<trkpt lat="43.4568273" lon="6.7957675"><ele></ele><time>2022-5-30T18:53:32Z</time></trkpt>
<trkpt lat="43.4568028" lon="6.7958727"><ele></ele><time>2022-5-30T18:53:35Z</time></trkpt>
<trkpt lat="43.4567694" lon="6.7959749"><ele></ele><time>2022-5-30T18:53:38Z</time></trkpt>
<trkpt lat="43.4567471" lon="6.7960805"><ele></ele><time>2022-5-30T18:53:41Z</time></trkpt>
<trkpt lat="43.4567116" lon="6.7961813"><ele></ele><time>2022-5-30T18:53:44Z</time></trkpt>
<trkpt lat="43.4566679" lon="6.7962826"><ele></ele><time>2022-5-30T18:53:47Z</time></trkpt>
<trkpt lat="43.4566308" lon="6.7963889"><ele></ele><time>2022-5-30T18:53:50Z</time></trkpt>
<trkpt lat="43.4565963" lon="6.7964972"><ele></ele><time>2022-5-30T18:53:53Z</time></trkpt>
<trkpt lat="43.4565546" lon="6.7966048"><ele></ele><time>2022-5-30T18:53:56Z</time></trkpt>
<trkpt lat="43.4565071" lon="6.7967092"><ele></ele><time>2022-5-30T18:53:59Z</time></trkpt>
<trkpt lat="43.4564565" lon="6.7968145"><ele></ele><time>2022-5-30T18:54:2Z</time></trkpt>
<trkpt lat="43.4564200" lon="6.7969287"><ele></ele><time>2022-5-30T18:54:5Z</time></trkpt>
<trkpt lat="43.4564025" lon="6.7970533"><ele></ele><time>2022-5-30T18:54:8Z</time></trkpt>
<trkpt lat="43.4563785" lon="6.7971771"><ele></ele><time>2022-5-30T18:54:11Z</time></trkpt>
<trkpt lat="43.4563490" lon="6.7972957"><ele></ele><time>2022-5-30T18:54:14Z</time></trkpt>
<trkpt lat="43.4563068" lon="6.7974057"><ele></ele><time>2022-5-30T18:54:17Z</time></trkpt>
<trkpt lat="43.4562580" lon="6.7975122"><ele></ele><time>2022-5-30T18:54:20Z</time></trkpt>
<trkpt lat="43.4562128" lon="6.7976211"><ele></ele><time>2022-5-30T18:54:23Z</time></trkpt>
<trkpt lat="43.4561707" lon="6.7977362"><ele></ele><time>2022-5-30T18:54:26Z</time></trkpt>
<trkpt lat="43.4561386" lon="6.7978562"><ele></ele><time>2022-5-30T18:54:29Z</time></trkpt>
<trkpt lat="43.4561108" lon="6.7979813"><ele></ele><time>2022-5-30T18:54:32Z</time></trkpt>
<trkpt lat="43.4560849" lon="6.7981072"><ele></ele><time>2022-5-30T18:54:35Z</time></trkpt>
<trkpt lat="43.4560501" lon="6.7982232"><ele></ele><time>2022-5-30T18:54:38Z</time></trkpt>
<trkpt lat="43.4560210" lon="6.7983352"><ele></ele><time>2022-5-30T18:54:41Z</time></trkpt>
<trkpt lat="43.4559785" lon="6.7984419"><ele></ele><time>2022-5-30T18:54:44Z</time></trkpt>
<trkpt lat="43.4559455" lon="6.7985482"><ele></ele><time>2022-5-30T18:54:47Z</time></trkpt>
<trkpt lat="43.4559136" lon="6.7986501"><ele></ele><time>2022-5-30T18:54:50Z</time></trkpt>
<trkpt lat="43.4558847" lon="6.7987502"><ele></ele><time>2022-5-30T18:54:53Z</time></trkpt>
<trkpt lat="43.4558724" lon="6.7988549"><ele></ele><time>2022-5-30T18:54:56Z</time></trkpt>
<trkpt lat="43.4558515" lon="6.7989504"><ele></ele><time>2022-5-30T18:54:59Z</time></trkpt>
<trkpt lat="43.4558308" lon="6.7990483"><ele></ele><time>2022-5-30T18:55:2Z</time></trkpt>
<trkpt lat="43.4558085" lon="6.7991494"><ele></ele><time>2022-5-30T18:55:5Z</time></trkpt>
<trkpt lat="43.4557847" lon="6.7992426"><ele></ele><time>2022-5-30T18:55:8Z</time></trkpt>
<trkpt lat="43.4557713" lon="6.7993330"><ele></ele><time>2022-5-30T18:55:11Z</time></trkpt>
<trkpt lat="43.4557714" lon="6.7994249"><ele></ele><time>2022-5-30T18:55:14Z</time></trkpt>
<trkpt lat="43.4557681" lon="6.7995094"><ele></ele><time>2022-5-30T18:55:17Z</time></trkpt>
<trkpt lat="43.4557660" lon="6.7995997"><ele></ele><time>2022-5-30T18:55:20Z</time></trkpt>
<trkpt lat="43.4557643" lon="6.7996945"><ele></ele><time>2022-5-30T18:55:23Z</time></trkpt>
<trkpt lat="43.4557613" lon="6.7997978"><ele></ele><time>2022-5-30T18:55:26Z</time></trkpt>
<trkpt lat="43.4557709" lon="6.7999015"><ele></ele><time>2022-5-30T18:55:29Z</time></trkpt>
<trkpt lat="43.4557680" lon="6.8000046"><ele></ele><time>2022-5-30T18:55:32Z</time></trkpt>
<trkpt lat="43.4557593" lon="6.8001084"><ele></ele><time>2022-5-30T18:55:35Z</time></trkpt>
<trkpt lat="43.4557607" lon="6.8002024"><ele></ele><time>2022-5-30T18:55:38Z</time></trkpt>
<trkpt lat="43.4557583" lon="6.8002945"><ele></ele><time>2022-5-30T18:55:41Z</time></trkpt>
<trkpt lat="43.4557752" lon="6.8003897"><ele></ele><time>2022-5-30T18:55:44Z</time></trkpt>
<trkpt lat="43.4557854" lon="6.8004835"><ele></ele><time>2022-5-30T18:55:47Z</time></trkpt>
<trkpt lat="43.4557867" lon="6.8005775"><ele></ele><time>2022-5-30T18:55:50Z</time></trkpt>
<trkpt lat="43.4557871" lon="6.8006682"><ele></ele><time>2022-5-30T18:55:53Z</time></trkpt>
<trkpt lat="43.4557817" lon="6.8007587"><ele></ele><time>2022-5-30T18:55:56Z</time></trkpt>
<trkpt lat="43.4557773" lon="6.8008520"><ele></ele><time>2022-5-30T18:55:59Z</time></trkpt>
<trkpt lat="43.4557742" lon="6.8009412"><ele></ele><time>2022-5-30T18:56:2Z</time></trkpt>
<trkpt lat="43.4557747" lon="6.8010259"><ele></ele><time>2022-5-30T18:56:5Z</time></trkpt>
<trkpt lat="43.4557800" lon="6.8011126"><ele></ele><time>2022-5-30T18:56:8Z</time></trkpt>
<trkpt lat="43.4557830" lon="6.8011980"><ele></ele><time>2022-5-30T18:56:11Z</time></trkpt>
<trkpt lat="43.4557882" lon="6.8012818"><ele></ele><time>2022-5-30T18:56:14Z</time></trkpt>
<trkpt lat="43.4557940" lon="6.8013634"><ele></ele><time>2022-5-30T18:56:17Z</time></trkpt>
<trkpt lat="43.4557970" lon="6.8014399"><ele></ele><time>2022-5-30T18:56:20Z</time></trkpt>
<trkpt lat="43.4557969" lon="6.8015086"><ele></ele><time>2022-5-30T18:56:23Z</time></trkpt>
<trkpt lat="43.4557986" lon="6.8015818"><ele></ele><time>2022-5-30T18:56:26Z</time></trkpt>
<trkpt lat="43.4558120" lon="6.8016613"><ele></ele><time>2022-5-30T18:56:29Z</time></trkpt>
<trkpt lat="43.4558240" lon="6.8017407"><ele></ele><time>2022-5-30T18:56:32Z</time></trkpt>
<trkpt lat="43.4558286" lon="6.8018186"><ele></ele><time>2022-5-30T18:56:35Z</time></trkpt>
<trkpt lat="43.4558327" lon="6.8018961"><ele></ele><time>2022-5-30T18:56:38Z</time></trkpt>
<trkpt lat="43.4558337" lon="6.8019683"><ele></ele><time>2022-5-30T18:56:41Z</time></trkpt>
<trkpt lat="43.4558360" lon="6.8020361"><ele></ele><time>2022-5-30T18:56:44Z</time></trkpt>
<trkpt lat="43.4558345" lon="6.8021078"><ele></ele><time>2022-5-30T18:56:47Z</time></trkpt>
<trkpt lat="43.4558317" lon="6.8021847"><ele></ele><time>2022-5-30T18:56:50Z</time></trkpt>
<trkpt lat="43.4558290" lon="6.8022657"><ele></ele><time>2022-5-30T18:56:53Z</time></trkpt>
<trkpt lat="43.4558312" lon="6.8023541"><ele></ele><time>2022-5-30T18:56:56Z</time></trkpt>
<trkpt lat="43.4558305" lon="6.8024457"><ele></ele><time>2022-5-30T18:56:59Z</time></trkpt>
<trkpt lat="43.4558297" lon="6.8025408"><ele></ele><time>2022-5-30T18:57:2Z</time></trkpt>
<trkpt lat="43.4558257" lon="6.8026387"><ele></ele><time>2022-5-30T18:57:5Z</time></trkpt>
<trkpt lat="43.4558210" lon="6.8027371"><ele></ele><time>2022-5-30T18:57:8Z</time></trkpt>
<trkpt lat="43.4558143" lon="6.8028318"><ele></ele><time>2022-5-30T18:57:11Z</time></trkpt>
<trkpt lat="43.4558065" lon="6.8029301"><ele></ele><time>2022-5-30T18:57:14Z</time></trkpt>
<trkpt lat="43.4557929" lon="6.8030268"><ele></ele><time>2022-5-30T18:57:17Z</time></trkpt>
<trkpt lat="43.4557798" lon="6.8031276"><ele></ele><time>2022-5-30T18:57:20Z</time></trkpt>
<trkpt lat="43.4557654" lon="6.8032310"><ele></ele><time>2022-5-30T18:57:23Z</time></trkpt>
<trkpt lat="43.4557470" lon="6.8033300"><ele></ele><time>2022-5-30T18:57:26Z</time></trkpt>
<trkpt lat="43.4557098" lon="6.8034213"><ele></ele><time>2022-5-30T18:57:29Z</time></trkpt>
<trkpt lat="43.4556533" lon="6.8034983"><ele></ele><time>2022-5-30T18:57:32Z</time></trkpt>
<trkpt lat="43.4555848" lon="6.8035680"><ele></ele><time>2022-5-30T18:57:35Z</time></trkpt>
<trkpt lat="43.4555180" lon="6.8036493"><ele></ele><time>2022-5-30T18:57:38Z</time></trkpt>
<trkpt lat="43.4554507" lon="6.8037398"><ele></ele><time>2022-5-30T18:57:41Z</time></trkpt>
<trkpt lat="43.4553820" lon="6.8038305"><ele></ele><time>2022-5-30T18:57:44Z</time></trkpt>
<trkpt lat="43.4553150" lon="6.8039256"><ele></ele><time>2022-5-30T18:57:47Z</time></trkpt>
<trkpt lat="43.4552454" lon="6.8040236"><ele></ele><time>2022-5-30T18:57:50Z</time></trkpt>
<trkpt lat="43.4551659" lon="6.8041112"><ele></ele><time>2022-5-30T18:57:53Z</time></trkpt>
<trkpt lat="43.4550817" lon="6.8041923"><ele></ele><time>2022-5-30T18:57:56Z</time></trkpt>
<trkpt lat="43.4550054" lon="6.8042901"><ele></ele><time>2022-5-30T18:57:59Z</time></trkpt>
<trkpt lat="43.4549289" lon="6.8043901"><ele></ele><time>2022-5-30T18:58:2Z</time></trkpt>
<trkpt lat="43.4548521" lon="6.8044893"><ele></ele><time>2022-5-30T18:58:5Z</time></trkpt>
<trkpt lat="43.4547759" lon="6.8045879"><ele></ele><time>2022-5-30T18:58:8Z</time></trkpt>
<trkpt lat="43.4547005" lon="6.8046855"><ele></ele><time>2022-5-30T18:58:11Z</time></trkpt>
<trkpt lat="43.4546242" lon="6.8047798"><ele></ele><time>2022-5-30T18:58:14Z</time></trkpt>
<trkpt lat="43.4545480" lon="6.8048715"><ele></ele><time>2022-5-30T18:58:17Z</time></trkpt>
<trkpt lat="43.4544743" lon="6.8049628"><ele></ele><time>2022-5-30T18:58:20Z</time></trkpt>
<trkpt lat="43.4544003" lon="6.8050491"><ele></ele><time>2022-5-30T18:58:23Z</time></trkpt>
<trkpt lat="43.4543256" lon="6.8051287"><ele></ele><time>2022-5-30T18:58:26Z</time></trkpt>
<trkpt lat="43.4542560" lon="6.8052123"><ele></ele><time>2022-5-30T18:58:29Z</time></trkpt>
<trkpt lat="43.4541888" lon="6.8052935"><ele></ele><time>2022-5-30T18:58:32Z</time></trkpt>
<trkpt lat="43.4541227" lon="6.8053720"><ele></ele><time>2022-5-30T18:58:35Z</time></trkpt>
<trkpt lat="43.4540561" lon="6.8054477"><ele></ele><time>2022-5-30T18:58:38Z</time></trkpt>
<trkpt lat="43.4539881" lon="6.8055216"><ele></ele><time>2022-5-30T18:58:41Z</time></trkpt>
<trkpt lat="43.4539223" lon="6.8055992"><ele></ele><time>2022-5-30T18:58:44Z</time></trkpt>
<trkpt lat="43.4538626" lon="6.8056842"><ele></ele><time>2022-5-30T18:58:47Z</time></trkpt>
<trkpt lat="43.4538073" lon="6.8057719"><ele></ele><time>2022-5-30T18:58:50Z</time></trkpt>
<trkpt lat="43.4537633" lon="6.8058668"><ele></ele><time>2022-5-30T18:58:53Z</time></trkpt>
<trkpt lat="43.4537276" lon="6.8059704"><ele></ele><time>2022-5-30T18:58:56Z</time></trkpt>
<trkpt lat="43.4537033" lon="6.8060831"><ele></ele><time>2022-5-30T18:58:59Z</time></trkpt>
<trkpt lat="43.4536828" lon="6.8061957"><ele></ele><time>2022-5-30T18:59:2Z</time></trkpt>
<trkpt lat="43.4536596" lon="6.8063037"><ele></ele><time>2022-5-30T18:59:5Z</time></trkpt>
<trkpt lat="43.4536405" lon="6.8064122"><ele></ele><time>2022-5-30T18:59:8Z</time></trkpt>
<trkpt lat="43.4536242" lon="6.8065201"><ele></ele><time>2022-5-30T18:59:11Z</time></trkpt>
<trkpt lat="43.4536065" lon="6.8066251"><ele></ele><time>2022-5-30T18:59:14Z</time></trkpt>
<trkpt lat="43.4535851" lon="6.8067245"><ele></ele><time>2022-5-30T18:59:17Z</time></trkpt>
<trkpt lat="43.4535625" lon="6.8068190"><ele></ele><time>2022-5-30T18:59:20Z</time></trkpt>
<trkpt lat="43.4535457" lon="6.8069125"><ele></ele><time>2022-5-30T18:59:23Z</time></trkpt>
<trkpt lat="43.4535298" lon="6.8070047"><ele></ele><time>2022-5-30T18:59:26Z</time></trkpt>
<trkpt lat="43.4535114" lon="6.8070951"><ele></ele><time>2022-5-30T18:59:29Z</time></trkpt>
<trkpt lat="43.4534985" lon="6.8071826"><ele></ele><time>2022-5-30T18:59:32Z</time></trkpt>
<trkpt lat="43.4534865" lon="6.8072675"><ele></ele><time>2022-5-30T18:59:35Z</time></trkpt>
<trkpt lat="43.4534699" lon="6.8073494"><ele></ele><time>2022-5-30T18:59:38Z</time></trkpt>
<trkpt lat="43.4534475" lon="6.8074298"><ele></ele><time>2022-5-30T18:59:41Z</time></trkpt>
<trkpt lat="43.4534267" lon="6.8075104"><ele></ele><time>2022-5-30T18:59:44Z</time></trkpt>
<trkpt lat="43.4534112" lon="6.8075946"><ele></ele><time>2022-5-30T18:59:47Z</time></trkpt>
<trkpt lat="43.4533877" lon="6.8076786"><ele></ele><time>2022-5-30T18:59:50Z</time></trkpt>
<trkpt lat="43.4533544" lon="6.8077524"><ele></ele><time>2022-5-30T18:59:53Z</time></trkpt>
<trkpt lat="43.4533193" lon="6.8078158"><ele></ele><time>2022-5-30T18:59:56Z</time></trkpt>
<trkpt lat="43.4532991" lon="6.8078913"><ele></ele><time>2022-5-30T18:59:59Z</time></trkpt>
<trkpt lat="43.4532994" lon="6.8079718"><ele></ele><time>2022-5-30T19:0:2Z</time></trkpt>
<trkpt lat="43.4533181" lon="6.8080580"><ele></ele><time>2022-5-30T19:0:5Z</time></trkpt>
<trkpt lat="43.4533347" lon="6.8081432"><ele></ele><time>2022-5-30T19:0:8Z</time></trkpt>
<trkpt lat="43.4533243" lon="6.8082318"><ele></ele><time>2022-5-30T19:0:11Z</time></trkpt>
<trkpt lat="43.4533027" lon="6.8083149"><ele></ele><time>2022-5-30T19:0:14Z</time></trkpt>
<trkpt lat="43.4532942" lon="6.8083991"><ele></ele><time>2022-5-30T19:0:17Z</time></trkpt>
<trkpt lat="43.4532867" lon="6.8084843"><ele></ele><time>2022-5-30T19:0:20Z</time></trkpt>
<trkpt lat="43.4532755" lon="6.8085704"><ele></ele><time>2022-5-30T19:0:23Z</time></trkpt>
<trkpt lat="43.4532670" lon="6.8086521"><ele></ele><time>2022-5-30T19:0:26Z</time></trkpt>
<trkpt lat="43.4532613" lon="6.8087333"><ele></ele><time>2022-5-30T19:0:29Z</time></trkpt>
<trkpt lat="43.4532530" lon="6.8088134"><ele></ele><time>2022-5-30T19:0:32Z</time></trkpt>
<trkpt lat="43.4532442" lon="6.8088941"><ele></ele><time>2022-5-30T19:0:35Z</time></trkpt>
<trkpt lat="43.4532358" lon="6.8089748"><ele></ele><time>2022-5-30T19:0:38Z</time></trkpt>
<trkpt lat="43.4532296" lon="6.8090512"><ele></ele><time>2022-5-30T19:0:41Z</time></trkpt>
<trkpt lat="43.4532228" lon="6.8091250"><ele></ele><time>2022-5-30T19:0:44Z</time></trkpt>
<trkpt lat="43.4532161" lon="6.8091993"><ele></ele><time>2022-5-30T19:0:47Z</time></trkpt>
<trkpt lat="43.4532108" lon="6.8092779"><ele></ele><time>2022-5-30T19:0:50Z</time></trkpt>
<trkpt lat="43.4532043" lon="6.8093497"><ele></ele><time>2022-5-30T19:0:53Z</time></trkpt>
<trkpt lat="43.4531950" lon="6.8094237"><ele></ele><time>2022-5-30T19:0:56Z</time></trkpt>
<trkpt lat="43.4531841" lon="6.8094960"><ele></ele><time>2022-5-30T19:0:59Z</time></trkpt>
<trkpt lat="43.4531735" lon="6.8095659"><ele></ele><time>2022-5-30T19:1:2Z</time></trkpt>
<trkpt lat="43.4531654" lon="6.8096344"><ele></ele><time>2022-5-30T19:1:5Z</time></trkpt>
<trkpt lat="43.4531519" lon="6.8097063"><ele></ele><time>2022-5-30T19:1:8Z</time></trkpt>
<trkpt lat="43.4531435" lon="6.8097763"><ele></ele><time>2022-5-30T19:1:11Z</time></trkpt>
<trkpt lat="43.4531367" lon="6.8098451"><ele></ele><time>2022-5-30T19:1:14Z</time></trkpt>
<trkpt lat="43.4531306" lon="6.8099127"><ele></ele><time>2022-5-30T19:1:17Z</time></trkpt>
<trkpt lat="43.4531256" lon="6.8099794"><ele></ele><time>2022-5-30T19:1:20Z</time></trkpt>
<trkpt lat="43.4531236" lon="6.8100481"><ele></ele><time>2022-5-30T19:1:23Z</time></trkpt>
<trkpt lat="43.4531182" lon="6.8101180"><ele></ele><time>2022-5-30T19:1:26Z</time></trkpt>
<trkpt lat="43.4531110" lon="6.8101888"><ele></ele><time>2022-5-30T19:1:29Z</time></trkpt>
<trkpt lat="43.4531090" lon="6.8102589"><ele></ele><time>2022-5-30T19:1:32Z</time></trkpt>
<trkpt lat="43.4530933" lon="6.8103240"><ele></ele><time>2022-5-30T19:1:35Z</time></trkpt>
<trkpt lat="43.4530801" lon="6.8103902"><ele></ele><time>2022-5-30T19:1:38Z</time></trkpt>
<trkpt lat="43.4530706" lon="6.8104611"><ele></ele><time>2022-5-30T19:1:41Z</time></trkpt>
<trkpt lat="43.4530648" lon="6.8105329"><ele></ele><time>2022-5-30T19:1:44Z</time></trkpt>
<trkpt lat="43.4530581" lon="6.8106028"><ele></ele><time>2022-5-30T19:1:47Z</time></trkpt>
<trkpt lat="43.4530529" lon="6.8106756"><ele></ele><time>2022-5-30T19:1:50Z</time></trkpt>
<trkpt lat="43.4530417" lon="6.8107444"><ele></ele><time>2022-5-30T19:1:53Z</time></trkpt>
<trkpt lat="43.4530288" lon="6.8108157"><ele></ele><time>2022-5-30T19:1:56Z</time></trkpt>
<trkpt lat="43.4530232" lon="6.8108869"><ele></ele><time>2022-5-30T19:1:59Z</time></trkpt>
<trkpt lat="43.4530196" lon="6.8109626"><ele></ele><time>2022-5-30T19:2:2Z</time></trkpt>
<trkpt lat="43.4530148" lon="6.8110427"><ele></ele><time>2022-5-30T19:2:5Z</time></trkpt>
<trkpt lat="43.4530047" lon="6.8111244"><ele></ele><time>2022-5-30T19:2:8Z</time></trkpt>
<trkpt lat="43.4529913" lon="6.8112071"><ele></ele><time>2022-5-30T19:2:11Z</time></trkpt>
<trkpt lat="43.4529693" lon="6.8112837"><ele></ele><time>2022-5-30T19:2:14Z</time></trkpt>
<trkpt lat="43.4529488" lon="6.8113623"><ele></ele><time>2022-5-30T19:2:17Z</time></trkpt>
<trkpt lat="43.4529214" lon="6.8114362"><ele></ele><time>2022-5-30T19:2:20Z</time></trkpt>
<trkpt lat="43.4528959" lon="6.8115071"><ele></ele><time>2022-5-30T19:2:23Z</time></trkpt>
<trkpt lat="43.4528763" lon="6.8115764"><ele></ele><time>2022-5-30T19:2:26Z</time></trkpt>
<trkpt lat="43.4528530" lon="6.8116440"><ele></ele><time>2022-5-30T19:2:29Z</time></trkpt>
<trkpt lat="43.4528319" lon="6.8117128"><ele></ele><time>2022-5-30T19:2:32Z</time></trkpt>
<trkpt lat="43.4528101" lon="6.8117789"><ele></ele><time>2022-5-30T19:2:35Z</time></trkpt>
<trkpt lat="43.4527874" lon="6.8118494"><ele></ele><time>2022-5-30T19:2:38Z</time></trkpt>
<trkpt lat="43.4527615" lon="6.8119135"><ele></ele><time>2022-5-30T19:2:41Z</time></trkpt>
<trkpt lat="43.4527360" lon="6.8119718"><ele></ele><time>2022-5-30T19:2:44Z</time></trkpt>
<trkpt lat="43.4527097" lon="6.8120379"><ele></ele><time>2022-5-30T19:2:47Z</time></trkpt>
<trkpt lat="43.4526873" lon="6.8121038"><ele></ele><time>2022-5-30T19:2:50Z</time></trkpt>
<trkpt lat="43.4526647" lon="6.8121685"><ele></ele><time>2022-5-30T19:2:53Z</time></trkpt>
<trkpt lat="43.4526405" lon="6.8122320"><ele></ele><time>2022-5-30T19:2:56Z</time></trkpt>
<trkpt lat="43.4526140" lon="6.8122903"><ele></ele><time>2022-5-30T19:2:59Z</time></trkpt>
<trkpt lat="43.4525878" lon="6.8123515"><ele></ele><time>2022-5-30T19:3:2Z</time></trkpt>
<trkpt lat="43.4525623" lon="6.8124135"><ele></ele><time>2022-5-30T19:3:5Z</time></trkpt>
<trkpt lat="43.4525375" lon="6.8124790"><ele></ele><time>2022-5-30T19:3:8Z</time></trkpt>
<trkpt lat="43.4525090" lon="6.8125476"><ele></ele><time>2022-5-30T19:3:11Z</time></trkpt>
<trkpt lat="43.4524818" lon="6.8126115"><ele></ele><time>2022-5-30T19:3:14Z</time></trkpt>
<trkpt lat="43.4524566" lon="6.8126713"><ele></ele><time>2022-5-30T19:3:17Z</time></trkpt>
<trkpt lat="43.4524336" lon="6.8127298"><ele></ele><time>2022-5-30T19:3:20Z</time></trkpt>
<trkpt lat="43.4524079" lon="6.8127871"><ele></ele><time>2022-5-30T19:3:23Z</time></trkpt>
<trkpt lat="43.4523791" lon="6.8128408"><ele></ele><time>2022-5-30T19:3:26Z</time></trkpt>
<trkpt lat="43.4523486" lon="6.8128853"><ele></ele><time>2022-5-30T19:3:29Z</time></trkpt>
<trkpt lat="43.4523186" lon="6.8129329"><ele></ele><time>2022-5-30T19:3:32Z</time></trkpt>
<trkpt lat="43.4522894" lon="6.8129895"><ele></ele><time>2022-5-30T19:3:35Z</time></trkpt>
<trkpt lat="43.4522768" lon="6.8130539"><ele></ele><time>2022-5-30T19:3:38Z</time></trkpt>
<trkpt lat="43.4522704" lon="6.8131151"><ele></ele><time>2022-5-30T19:3:41Z</time></trkpt>
<trkpt lat="43.4522611" lon="6.8131759"><ele></ele><time>2022-5-30T19:3:44Z</time></trkpt>
<trkpt lat="43.4522398" lon="6.8132282"><ele></ele><time>2022-5-30T19:3:47Z</time></trkpt>
<trkpt lat="43.4522098" lon="6.8132758"><ele></ele><time>2022-5-30T19:3:50Z</time></trkpt>
<trkpt lat="43.4521790" lon="6.8133223"><ele></ele><time>2022-5-30T19:3:53Z</time></trkpt>
<trkpt lat="43.4521530" lon="6.8133753"><ele></ele><time>2022-5-30T19:3:56Z</time></trkpt>
<trkpt lat="43.4521299" lon="6.8134286"><ele></ele><time>2022-5-30T19:3:59Z</time></trkpt>
<trkpt lat="43.4521095" lon="6.8134859"><ele></ele><time>2022-5-30T19:4:2Z</time></trkpt>
<trkpt lat="43.4520894" lon="6.8135438"><ele></ele><time>2022-5-30T19:4:5Z</time></trkpt>
<trkpt lat="43.4520663" lon="6.8136008"><ele></ele><time>2022-5-30T19:4:8Z</time></trkpt>
<trkpt lat="43.4520442" lon="6.8136587"><ele></ele><time>2022-5-30T19:4:11Z</time></trkpt>
<trkpt lat="43.4520234" lon="6.8137151"><ele></ele><time>2022-5-30T19:4:14Z</time></trkpt>
<trkpt lat="43.4519999" lon="6.8137685"><ele></ele><time>2022-5-30T19:4:17Z</time></trkpt>
<trkpt lat="43.4519777" lon="6.8138236"><ele></ele><time>2022-5-30T19:4:20Z</time></trkpt>
<trkpt lat="43.4519565" lon="6.8138778"><ele></ele><time>2022-5-30T19:4:23Z</time></trkpt>
<trkpt lat="43.4519352" lon="6.8139329"><ele></ele><time>2022-5-30T19:4:26Z</time></trkpt>
<trkpt lat="43.4519148" lon="6.8139864"><ele></ele><time>2022-5-30T19:4:29Z</time></trkpt>
<trkpt lat="43.4518946" lon="6.8140370"><ele></ele><time>2022-5-30T19:4:32Z</time></trkpt>
<trkpt lat="43.4518743" lon="6.8140875"><ele></ele><time>2022-5-30T19:4:35Z</time></trkpt>
<trkpt lat="43.4518523" lon="6.8141383"><ele></ele><time>2022-5-30T19:4:38Z</time></trkpt>
<trkpt lat="43.4518306" lon="6.8141906"><ele></ele><time>2022-5-30T19:4:41Z</time></trkpt>
<trkpt lat="43.4518101" lon="6.8142435"><ele></ele><time>2022-5-30T19:4:44Z</time></trkpt>
<trkpt lat="43.4517907" lon="6.8142949"><ele></ele><time>2022-5-30T19:4:47Z</time></trkpt>
<trkpt lat="43.4517712" lon="6.8143460"><ele></ele><time>2022-5-30T19:4:50Z</time></trkpt>
<trkpt lat="43.4517526" lon="6.8143973"><ele></ele><time>2022-5-30T19:4:53Z</time></trkpt>
<trkpt lat="43.4517353" lon="6.8144465"><ele></ele><time>2022-5-30T19:4:56Z</time></trkpt>
<trkpt lat="43.4517153" lon="6.8144941"><ele></ele><time>2022-5-30T19:4:59Z</time></trkpt>
<trkpt lat="43.4516979" lon="6.8145414"><ele></ele><time>2022-5-30T19:5:2Z</time></trkpt>
<trkpt lat="43.4516797" lon="6.8145884"><ele></ele><time>2022-5-30T19:5:5Z</time></trkpt>
<trkpt lat="43.4516625" lon="6.8146357"><ele></ele><time>2022-5-30T19:5:8Z</time></trkpt>
<trkpt lat="43.4516437" lon="6.8146838"><ele></ele><time>2022-5-30T19:5:11Z</time></trkpt>
<trkpt lat="43.4516240" lon="6.8147288"><ele></ele><time>2022-5-30T19:5:14Z</time></trkpt>
<trkpt lat="43.4516100" lon="6.8147783"><ele></ele><time>2022-5-30T19:5:17Z</time></trkpt>
<trkpt lat="43.4515970" lon="6.8148290"><ele></ele><time>2022-5-30T19:5:20Z</time></trkpt>
<trkpt lat="43.4515830" lon="6.8148747"><ele></ele><time>2022-5-30T19:5:23Z</time></trkpt>
<trkpt lat="43.4515683" lon="6.8149199"><ele></ele><time>2022-5-30T19:5:26Z</time></trkpt>
<trkpt lat="43.4515543" lon="6.8149729"><ele></ele><time>2022-5-30T19:5:29Z</time></trkpt>
<trkpt lat="43.4515365" lon="6.8150209"><ele></ele><time>2022-5-30T19:5:32Z</time></trkpt>
<trkpt lat="43.4515173" lon="6.8150707"><ele></ele><time>2022-5-30T19:5:35Z</time></trkpt>
<trkpt lat="43.4514980" lon="6.8151159"><ele></ele><time>2022-5-30T19:5:38Z</time></trkpt>
<trkpt lat="43.4514800" lon="6.8151638"><ele></ele><time>2022-5-30T19:5:41Z</time></trkpt>
<trkpt lat="43.4514629" lon="6.8152080"><ele></ele><time>2022-5-30T19:5:44Z</time></trkpt>
<trkpt lat="43.4514451" lon="6.8152497"><ele></ele><time>2022-5-30T19:5:47Z</time></trkpt>
<trkpt lat="43.4514269" lon="6.8152924"><ele></ele><time>2022-5-30T19:5:50Z</time></trkpt>
<trkpt lat="43.4514078" lon="6.8153341"><ele></ele><time>2022-5-30T19:5:53Z</time></trkpt>
<trkpt lat="43.4513901" lon="6.8153741"><ele></ele><time>2022-5-30T19:5:56Z</time></trkpt>
<trkpt lat="43.4513751" lon="6.8154154"><ele></ele><time>2022-5-30T19:5:59Z</time></trkpt>
<trkpt lat="43.4513583" lon="6.8154569"><ele></ele><time>2022-5-30T19:6:2Z</time></trkpt>
<trkpt lat="43.4513406" lon="6.8154970"><ele></ele><time>2022-5-30T19:6:5Z</time></trkpt>
<trkpt lat="43.4513228" lon="6.8155360"><ele></ele><time>2022-5-30T19:6:8Z</time></trkpt>
<trkpt lat="43.4513048" lon="6.8155761"><ele></ele><time>2022-5-30T19:6:11Z</time></trkpt>
<trkpt lat="43.4512873" lon="6.8156159"><ele></ele><time>2022-5-30T19:6:14Z</time></trkpt>
<trkpt lat="43.4512724" lon="6.8156560"><ele></ele><time>2022-5-30T19:6:17Z</time></trkpt>
<trkpt lat="43.4512571" lon="6.8156942"><ele></ele><time>2022-5-30T19:6:20Z</time></trkpt>
<trkpt lat="43.4512391" lon="6.8157348"><ele></ele><time>2022-5-30T19:6:23Z</time></trkpt>
<trkpt lat="43.4512216" lon="6.8157768"><ele></ele><time>2022-5-30T19:6:26Z</time></trkpt>
<trkpt lat="43.4512046" lon="6.8158177"><ele></ele><time>2022-5-30T19:6:29Z</time></trkpt>
<trkpt lat="43.4511877" lon="6.8158596"><ele></ele><time>2022-5-30T19:6:32Z</time></trkpt>
<trkpt lat="43.4511707" lon="6.8159015"><ele></ele><time>2022-5-30T19:6:35Z</time></trkpt>
<trkpt lat="43.4511534" lon="6.8159414"><ele></ele><time>2022-5-30T19:6:38Z</time></trkpt>
<trkpt lat="43.4511357" lon="6.8159813"><ele></ele><time>2022-5-30T19:6:41Z</time></trkpt>
<trkpt lat="43.4511189" lon="6.8160230"><ele></ele><time>2022-5-30T19:6:44Z</time></trkpt>
<trkpt lat="43.4511014" lon="6.8160654"><ele></ele><time>2022-5-30T19:6:47Z</time></trkpt>
<trkpt lat="43.4510819" lon="6.8161057"><ele></ele><time>2022-5-30T19:6:50Z</time></trkpt>
<trkpt lat="43.4510628" lon="6.8161472"><ele></ele><time>2022-5-30T19:6:53Z</time></trkpt>
<trkpt lat="43.4510438" lon="6.8161908"><ele></ele><time>2022-5-30T19:6:56Z</time></trkpt>
<trkpt lat="43.4510261" lon="6.8162374"><ele></ele><time>2022-5-30T19:6:59Z</time></trkpt>
<trkpt lat="43.4510069" lon="6.8162838"><ele></ele><time>2022-5-30T19:7:2Z</time></trkpt>
<trkpt lat="43.4509883" lon="6.8163315"><ele></ele><time>2022-5-30T19:7:5Z</time></trkpt>
<trkpt lat="43.4509705" lon="6.8163769"><ele></ele><time>2022-5-30T19:7:8Z</time></trkpt>
<trkpt lat="43.4509517" lon="6.8164234"><ele></ele><time>2022-5-30T19:7:11Z</time></trkpt>
<trkpt lat="43.4509327" lon="6.8164713"><ele></ele><time>2022-5-30T19:7:14Z</time></trkpt>
<trkpt lat="43.4509142" lon="6.8165179"><ele></ele><time>2022-5-30T19:7:17Z</time></trkpt>
<trkpt lat="43.4508958" lon="6.8165644"><ele></ele><time>2022-5-30T19:7:20Z</time></trkpt>
<trkpt lat="43.4508783" lon="6.8166108"><ele></ele><time>2022-5-30T19:7:23Z</time></trkpt>
<trkpt lat="43.4508590" lon="6.8166604"><ele></ele><time>2022-5-30T19:7:26Z</time></trkpt>
<trkpt lat="43.4508411" lon="6.8167086"><ele></ele><time>2022-5-30T19:7:29Z</time></trkpt>
<trkpt lat="43.4508218" lon="6.8167561"><ele></ele><time>2022-5-30T19:7:32Z</time></trkpt>
<trkpt lat="43.4508019" lon="6.8168060"><ele></ele><time>2022-5-30T19:7:35Z</time></trkpt>
<trkpt lat="43.4507821" lon="6.8168557"><ele></ele><time>2022-5-30T19:7:38Z</time></trkpt>
<trkpt lat="43.4507617" lon="6.8169073"><ele></ele><time>2022-5-30T19:7:41Z</time></trkpt>
<trkpt lat="43.4507407" lon="6.8169610"><ele></ele><time>2022-5-30T19:7:44Z</time></trkpt>
<trkpt lat="43.4507183" lon="6.8170156"><ele></ele><time>2022-5-30T19:7:47Z</time></trkpt>
<trkpt lat="43.4506959" lon="6.8170714"><ele></ele><time>2022-5-30T19:7:50Z</time></trkpt>
<trkpt lat="43.4506736" lon="6.8171268"><ele></ele><time>2022-5-30T19:7:53Z</time></trkpt>
<trkpt lat="43.4506522" lon="6.8171806"><ele></ele><time>2022-5-30T19:7:56Z</time></trkpt>
<trkpt lat="43.4506302" lon="6.8172356"><ele></ele><time>2022-5-30T19:7:59Z</time></trkpt>
<trkpt lat="43.4506068" lon="6.8172911"><ele></ele><time>2022-5-30T19:8:2Z</time></trkpt>
<trkpt lat="43.4505857" lon="6.8173473"><ele></ele><time>2022-5-30T19:8:5Z</time></trkpt>
<trkpt lat="43.4505622" lon="6.8174021"><ele></ele><time>2022-5-30T19:8:8Z</time></trkpt>
<trkpt lat="43.4505393" lon="6.8174606"><ele></ele><time>2022-5-30T19:8:11Z</time></trkpt>
<trkpt lat="43.4505175" lon="6.8175185"><ele></ele><time>2022-5-30T19:8:14Z</time></trkpt>
<trkpt lat="43.4504956" lon="6.8175779"><ele></ele><time>2022-5-30T19:8:17Z</time></trkpt>
<trkpt lat="43.4504730" lon="6.8176355"><ele></ele><time>2022-5-30T19:8:20Z</time></trkpt>
<trkpt lat="43.4504510" lon="6.8176930"><ele></ele><time>2022-5-30T19:8:23Z</time></trkpt>
<trkpt lat="43.4504339" lon="6.8177559"><ele></ele><time>2022-5-30T19:8:26Z</time></trkpt>
<trkpt lat="43.4504177" lon="6.8178153"><ele></ele><time>2022-5-30T19:8:29Z</time></trkpt>
<trkpt lat="43.4503998" lon="6.8178711"><ele></ele><time>2022-5-30T19:8:32Z</time></trkpt>
<trkpt lat="43.4503773" lon="6.8179215"><ele></ele><time>2022-5-30T19:8:35Z</time></trkpt>
<trkpt lat="43.4503579" lon="6.8179685"><ele></ele><time>2022-5-30T19:8:38Z</time></trkpt>
<trkpt lat="43.4503382" lon="6.8180188"><ele></ele><time>2022-5-30T19:8:41Z</time></trkpt>
<trkpt lat="43.4503184" lon="6.8180675"><ele></ele><time>2022-5-30T19:8:44Z</time></trkpt>
<trkpt lat="43.4502985" lon="6.8181164"><ele></ele><time>2022-5-30T19:8:47Z</time></trkpt>
<trkpt lat="43.4502814" lon="6.8181688"><ele></ele><time>2022-5-30T19:8:50Z</time></trkpt>
<trkpt lat="43.4502684" lon="6.8182183"><ele></ele><time>2022-5-30T19:8:53Z</time></trkpt>
<trkpt lat="43.4502599" lon="6.8182581"><ele></ele><time>2022-5-30T19:8:56Z</time></trkpt>
<trkpt lat="43.4502663" lon="6.8182874"><ele></ele><time>2022-5-30T19:8:59Z</time></trkpt>
<trkpt lat="43.4502820" lon="6.8183112"><ele></ele><time>2022-5-30T19:9:2Z</time></trkpt>
<trkpt lat="43.4503021" lon="6.8183309"><ele></ele><time>2022-5-30T19:9:5Z</time></trkpt>
<trkpt lat="43.4503182" lon="6.8183567"><ele></ele><time>2022-5-30T19:9:8Z</time></trkpt>
<trkpt lat="43.4503143" lon="6.8183848"><ele></ele><time>2022-5-30T19:9:11Z</time></trkpt>
<trkpt lat="43.4502996" lon="6.8184042"><ele></ele><time>2022-5-30T19:9:14Z</time></trkpt>
<trkpt lat="43.4503019" lon="6.8184294"><ele></ele><time>2022-5-30T19:9:17Z</time></trkpt>
<trkpt lat="43.4503045" lon="6.8184646"><ele></ele><time>2022-5-30T19:9:20Z</time></trkpt>
<trkpt lat="43.4503020" lon="6.8185066"><ele></ele><time>2022-5-30T19:9:23Z</time></trkpt>
<trkpt lat="43.4502999" lon="6.8185434"><ele></ele><time>2022-5-30T19:9:26Z</time></trkpt>
<trkpt lat="43.4503012" lon="6.8185745"><ele></ele><time>2022-5-30T19:9:29Z</time></trkpt>
<trkpt lat="43.4503044" lon="6.8186026"><ele></ele><time>2022-5-30T19:9:32Z</time></trkpt>
<trkpt lat="43.4503077" lon="6.8186402"><ele></ele><time>2022-5-30T19:9:35Z</time></trkpt>
<trkpt lat="43.4503120" lon="6.8186756"><ele></ele><time>2022-5-30T19:9:38Z</time></trkpt>
<trkpt lat="43.4503193" lon="6.8187078"><ele></ele><time>2022-5-30T19:9:41Z</time></trkpt>
<trkpt lat="43.4503261" lon="6.8187374"><ele></ele><time>2022-5-30T19:9:44Z</time></trkpt>
<trkpt lat="43.4503366" lon="6.8187722"><ele></ele><time>2022-5-30T19:9:47Z</time></trkpt>
<trkpt lat="43.4503473" lon="6.8188072"><ele></ele><time>2022-5-30T19:9:50Z</time></trkpt>
<trkpt lat="43.4503606" lon="6.8188412"><ele></ele><time>2022-5-30T19:9:53Z</time></trkpt>
<trkpt lat="43.4503752" lon="6.8188712"><ele></ele><time>2022-5-30T19:9:56Z</time></trkpt>
<trkpt lat="43.4503924" lon="6.8188991"><ele></ele><time>2022-5-30T19:9:59Z</time></trkpt>
<trkpt lat="43.4504187" lon="6.8189220"><ele></ele><time>2022-5-30T19:10:2Z</time></trkpt>
<trkpt lat="43.4504477" lon="6.8189434"><ele></ele><time>2022-5-30T19:10:5Z</time></trkpt>
<trkpt lat="43.4504794" lon="6.8189611"><ele></ele><time>2022-5-30T19:10:8Z</time></trkpt>
<trkpt lat="43.4505092" lon="6.8189770"><ele></ele><time>2022-5-30T19:10:11Z</time></trkpt>
<trkpt lat="43.4505432" lon="6.8189975"><ele></ele><time>2022-5-30T19:10:14Z</time></trkpt>
<trkpt lat="43.4505712" lon="6.8190088"><ele></ele><time>2022-5-30T19:10:17Z</time></trkpt>
<trkpt lat="43.4505976" lon="6.8190202"><ele></ele><time>2022-5-30T19:10:20Z</time></trkpt>
<trkpt lat="43.4506273" lon="6.8190329"><ele></ele><time>2022-5-30T19:10:23Z</time></trkpt>
<trkpt lat="43.4506557" lon="6.8190437"><ele></ele><time>2022-5-30T19:10:26Z</time></trkpt>
<trkpt lat="43.4506850" lon="6.8190553"><ele></ele><time>2022-5-30T19:10:29Z</time></trkpt>
<trkpt lat="43.4507155" lon="6.8190691"><ele></ele><time>2022-5-30T19:10:32Z</time></trkpt>
<trkpt lat="43.4507421" lon="6.8190798"><ele></ele><time>2022-5-30T19:10:35Z</time></trkpt>
<trkpt lat="43.4507713" lon="6.8190898"><ele></ele><time>2022-5-30T19:10:38Z</time></trkpt>
<trkpt lat="43.4507978" lon="6.8190980"><ele></ele><time>2022-5-30T19:10:41Z</time></trkpt>
<trkpt lat="43.4508232" lon="6.8191064"><ele></ele><time>2022-5-30T19:10:44Z</time></trkpt>
<trkpt lat="43.4508505" lon="6.8191188"><ele></ele><time>2022-5-30T19:10:47Z</time></trkpt>
<trkpt lat="43.4508768" lon="6.8191353"><ele></ele><time>2022-5-30T19:10:50Z</time></trkpt>
<trkpt lat="43.4509062" lon="6.8191476"><ele></ele><time>2022-5-30T19:10:53Z</time></trkpt>
<trkpt lat="43.4509333" lon="6.8191612"><ele></ele><time>2022-5-30T19:10:56Z</time></trkpt>
<trkpt lat="43.4509637" lon="6.8191770"><ele></ele><time>2022-5-30T19:10:59Z</time></trkpt>
<trkpt lat="43.4509923" lon="6.8191935"><ele></ele><time>2022-5-30T19:11:2Z</time></trkpt>
<trkpt lat="43.4510241" lon="6.8192111"><ele></ele><time>2022-5-30T19:11:5Z</time></trkpt>
<trkpt lat="43.4510522" lon="6.8192258"><ele></ele><time>2022-5-30T19:11:8Z</time></trkpt>
<trkpt lat="43.4510823" lon="6.8192425"><ele></ele><time>2022-5-30T19:11:11Z</time></trkpt>
<trkpt lat="43.4511122" lon="6.8192713"><ele></ele><time>2022-5-30T19:11:14Z</time></trkpt>
<trkpt lat="43.4511380" lon="6.8193088"><ele></ele><time>2022-5-30T19:11:17Z</time></trkpt>
<trkpt lat="43.4511553" lon="6.8193445"><ele></ele><time>2022-5-30T19:11:20Z</time></trkpt>
<trkpt lat="43.4511649" lon="6.8193850"><ele></ele><time>2022-5-30T19:11:23Z</time></trkpt>
<trkpt lat="43.4511766" lon="6.8194281"><ele></ele><time>2022-5-30T19:11:26Z</time></trkpt>
<trkpt lat="43.4511943" lon="6.8194730"><ele></ele><time>2022-5-30T19:11:29Z</time></trkpt>
<trkpt lat="43.4512122" lon="6.8195171"><ele></ele><time>2022-5-30T19:11:32Z</time></trkpt>
<trkpt lat="43.4512322" lon="6.8195590"><ele></ele><time>2022-5-30T19:11:35Z</time></trkpt>
<trkpt lat="43.4512558" lon="6.8195931"><ele></ele><time>2022-5-30T19:11:38Z</time></trkpt>
<trkpt lat="43.4512868" lon="6.8196108"><ele></ele><time>2022-5-30T19:11:41Z</time></trkpt>
<trkpt lat="43.4513172" lon="6.8196197"><ele></ele><time>2022-5-30T19:11:44Z</time></trkpt>
<trkpt lat="43.4513499" lon="6.8196298"><ele></ele><time>2022-5-30T19:11:47Z</time></trkpt>
<trkpt lat="43.4513831" lon="6.8196340"><ele></ele><time>2022-5-30T19:11:50Z</time></trkpt>
<trkpt lat="43.4514163" lon="6.8196273"><ele></ele><time>2022-5-30T19:11:53Z</time></trkpt>
<trkpt lat="43.4514451" lon="6.8196140"><ele></ele><time>2022-5-30T19:11:56Z</time></trkpt>
<trkpt lat="43.4514707" lon="6.8196031"><ele></ele><time>2022-5-30T19:11:59Z</time></trkpt>
<trkpt lat="43.4514945" lon="6.8195988"><ele></ele><time>2022-5-30T19:12:2Z</time></trkpt>
<trkpt lat="43.4515191" lon="6.8196042"><ele></ele><time>2022-5-30T19:12:5Z</time></trkpt>
<trkpt lat="43.4515420" lon="6.8196158"><ele></ele><time>2022-5-30T19:12:8Z</time></trkpt>
<trkpt lat="43.4515659" lon="6.8196305"><ele></ele><time>2022-5-30T19:12:11Z</time></trkpt>
<trkpt lat="43.4515936" lon="6.8196455"><ele></ele><time>2022-5-30T19:12:14Z</time></trkpt>
<trkpt lat="43.4516254" lon="6.8196579"><ele></ele><time>2022-5-30T19:12:17Z</time></trkpt>
<trkpt lat="43.4516609" lon="6.8196764"><ele></ele><time>2022-5-30T19:12:20Z</time></trkpt>
<trkpt lat="43.4516967" lon="6.8196952"><ele></ele><time>2022-5-30T19:12:23Z</time></trkpt>
<trkpt lat="43.4517360" lon="6.8197077"><ele></ele><time>2022-5-30T19:12:26Z</time></trkpt>
<trkpt lat="43.4517790" lon="6.8197207"><ele></ele><time>2022-5-30T19:12:29Z</time></trkpt>
<trkpt lat="43.4518198" lon="6.8197323"><ele></ele><time>2022-5-30T19:12:32Z</time></trkpt>
<trkpt lat="43.4518576" lon="6.8197511"><ele></ele><time>2022-5-30T19:12:35Z</time></trkpt>
<trkpt lat="43.4518952" lon="6.8197695"><ele></ele><time>2022-5-30T19:12:38Z</time></trkpt>
<trkpt lat="43.4519288" lon="6.8197828"><ele></ele><time>2022-5-30T19:12:41Z</time></trkpt>
<trkpt lat="43.4519630" lon="6.8197958"><ele></ele><time>2022-5-30T19:12:44Z</time></trkpt>
<trkpt lat="43.4519951" lon="6.8198126"><ele></ele><time>2022-5-30T19:12:47Z</time></trkpt>
<trkpt lat="43.4520267" lon="6.8198303"><ele></ele><time>2022-5-30T19:12:50Z</time></trkpt>
<trkpt lat="43.4520626" lon="6.8198441"><ele></ele><time>2022-5-30T19:12:53Z</time></trkpt>
<trkpt lat="43.4520957" lon="6.8198541"><ele></ele><time>2022-5-30T19:12:56Z</time></trkpt>
<trkpt lat="43.4521235" lon="6.8198647"><ele></ele><time>2022-5-30T19:12:59Z</time></trkpt>
<trkpt lat="43.4521562" lon="6.8198791"><ele></ele><time>2022-5-30T19:13:2Z</time></trkpt>
<trkpt lat="43.4521917" lon="6.8198912"><ele></ele><time>2022-5-30T19:13:5Z</time></trkpt>
<trkpt lat="43.4522307" lon="6.8199006"><ele></ele><time>2022-5-30T19:13:8Z</time></trkpt>
<trkpt lat="43.4522661" lon="6.8199137"><ele></ele><time>2022-5-30T19:13:11Z</time></trkpt>
<trkpt lat="43.4522938" lon="6.8199285"><ele></ele><time>2022-5-30T19:13:14Z</time></trkpt>
<trkpt lat="43.4523290" lon="6.8199436"><ele></ele><time>2022-5-30T19:13:17Z</time></trkpt>
<trkpt lat="43.4523652" lon="6.8199548"><ele></ele><time>2022-5-30T19:13:20Z</time></trkpt>
<trkpt lat="43.4524015" lon="6.8199663"><ele></ele><time>2022-5-30T19:13:23Z</time></trkpt>
<trkpt lat="43.4524370" lon="6.8199784"><ele></ele><time>2022-5-30T19:13:26Z</time></trkpt>
<trkpt lat="43.4524743" lon="6.8199914"><ele></ele><time>2022-5-30T19:13:29Z</time></trkpt>
<trkpt lat="43.4525165" lon="6.8200053"><ele></ele><time>2022-5-30T19:13:32Z</time></trkpt>
<trkpt lat="43.4525533" lon="6.8200196"><ele></ele><time>2022-5-30T19:13:35Z</time></trkpt>
<trkpt lat="43.4525894" lon="6.8200356"><ele></ele><time>2022-5-30T19:13:38Z</time></trkpt>
<trkpt lat="43.4526243" lon="6.8200530"><ele></ele><time>2022-5-30T19:13:41Z</time></trkpt>
<trkpt lat="43.4526580" lon="6.8200682"><ele></ele><time>2022-5-30T19:13:44Z</time></trkpt>
<trkpt lat="43.4526922" lon="6.8200809"><ele></ele><time>2022-5-30T19:13:47Z</time></trkpt>
<trkpt lat="43.4527257" lon="6.8200947"><ele></ele><time>2022-5-30T19:13:50Z</time></trkpt>
<trkpt lat="43.4527592" lon="6.8201060"><ele></ele><time>2022-5-30T19:13:53Z</time></trkpt>
<trkpt lat="43.4527945" lon="6.8201217"><ele></ele><time>2022-5-30T19:13:56Z</time></trkpt>
<trkpt lat="43.4528282" lon="6.8201356"><ele></ele><time>2022-5-30T19:13:59Z</time></trkpt>
<trkpt lat="43.4528615" lon="6.8201483"><ele></ele><time>2022-5-30T19:14:2Z</time></trkpt>
<trkpt lat="43.4528911" lon="6.8201644"><ele></ele><time>2022-5-30T19:14:5Z</time></trkpt>
<trkpt lat="43.4529285" lon="6.8201810"><ele></ele><time>2022-5-30T19:14:8Z</time></trkpt>
<trkpt lat="43.4529647" lon="6.8201996"><ele></ele><time>2022-5-30T19:14:11Z</time></trkpt>
<trkpt lat="43.4530002" lon="6.8202165"><ele></ele><time>2022-5-30T19:14:14Z</time></trkpt>
<trkpt lat="43.4530374" lon="6.8202353"><ele></ele><time>2022-5-30T19:14:17Z</time></trkpt>
<trkpt lat="43.4530785" lon="6.8202531"><ele></ele><time>2022-5-30T19:14:20Z</time></trkpt>
<trkpt lat="43.4531155" lon="6.8202695"><ele></ele><time>2022-5-30T19:14:23Z</time></trkpt>
<trkpt lat="43.4531528" lon="6.8202872"><ele></ele><time>2022-5-30T19:14:26Z</time></trkpt>
<trkpt lat="43.4531780" lon="6.8203032"><ele></ele><time>2022-5-30T19:14:29Z</time></trkpt>
<trkpt lat="43.4532131" lon="6.8203189"><ele></ele><time>2022-5-30T19:14:32Z</time></trkpt>
<trkpt lat="43.4532467" lon="6.8203344"><ele></ele><time>2022-5-30T19:14:35Z</time></trkpt>
<trkpt lat="43.4532815" lon="6.8203481"><ele></ele><time>2022-5-30T19:14:38Z</time></trkpt>
<trkpt lat="43.4533181" lon="6.8203586"><ele></ele><time>2022-5-30T19:14:41Z</time></trkpt>
<trkpt lat="43.4533578" lon="6.8203727"><ele></ele><time>2022-5-30T19:14:44Z</time></trkpt>
<trkpt lat="43.4533937" lon="6.8203903"><ele></ele><time>2022-5-30T19:14:47Z</time></trkpt>
<trkpt lat="43.4534267" lon="6.8204046"><ele></ele><time>2022-5-30T19:14:50Z</time></trkpt>
<trkpt lat="43.4534537" lon="6.8204152"><ele></ele><time>2022-5-30T19:14:53Z</time></trkpt>
<trkpt lat="43.4534899" lon="6.8204264"><ele></ele><time>2022-5-30T19:14:56Z</time></trkpt>
<trkpt lat="43.4535239" lon="6.8204373"><ele></ele><time>2022-5-30T19:14:59Z</time></trkpt>
<trkpt lat="43.4535514" lon="6.8204498"><ele></ele><time>2022-5-30T19:15:2Z</time></trkpt>
<trkpt lat="43.4535783" lon="6.8204631"><ele></ele><time>2022-5-30T19:15:5Z</time></trkpt>
<trkpt lat="43.4536130" lon="6.8204778"><ele></ele><time>2022-5-30T19:15:8Z</time></trkpt>
<trkpt lat="43.4536474" lon="6.8204941"><ele></ele><time>2022-5-30T19:15:11Z</time></trkpt>
<trkpt lat="43.4536846" lon="6.8205123"><ele></ele><time>2022-5-30T19:15:14Z</time></trkpt>
<trkpt lat="43.4537246" lon="6.8205302"><ele></ele><time>2022-5-30T19:15:17Z</time></trkpt>
<trkpt lat="43.4537610" lon="6.8205479"><ele></ele><time>2022-5-30T19:15:20Z</time></trkpt>
<trkpt lat="43.4537963" lon="6.8205678"><ele></ele><time>2022-5-30T19:15:23Z</time></trkpt>
<trkpt lat="43.4538314" lon="6.8205876"><ele></ele><time>2022-5-30T19:15:26Z</time></trkpt>
<trkpt lat="43.4538610" lon="6.8206053"><ele></ele><time>2022-5-30T19:15:29Z</time></trkpt>
<trkpt lat="43.4538947" lon="6.8206234"><ele></ele><time>2022-5-30T19:15:32Z</time></trkpt>
<trkpt lat="43.4539303" lon="6.8206387"><ele></ele><time>2022-5-30T19:15:35Z</time></trkpt>
<trkpt lat="43.4539626" lon="6.8206448"><ele></ele><time>2022-5-30T19:15:38Z</time></trkpt>
<trkpt lat="43.4539957" lon="6.8206565"><ele></ele><time>2022-5-30T19:15:41Z</time></trkpt>
<trkpt lat="43.4540281" lon="6.8206699"><ele></ele><time>2022-5-30T19:15:44Z</time></trkpt>
<trkpt lat="43.4540573" lon="6.8206862"><ele></ele><time>2022-5-30T19:15:47Z</time></trkpt>
<trkpt lat="43.4540940" lon="6.8207038"><ele></ele><time>2022-5-30T19:15:50Z</time></trkpt>
<trkpt lat="43.4541284" lon="6.8207212"><ele></ele><time>2022-5-30T19:15:53Z</time></trkpt>
<trkpt lat="43.4541610" lon="6.8207343"><ele></ele><time>2022-5-30T19:15:56Z</time></trkpt>
<trkpt lat="43.4541874" lon="6.8207385"><ele></ele><time>2022-5-30T19:15:59Z</time></trkpt>
<trkpt lat="43.4542165" lon="6.8207467"><ele></ele><time>2022-5-30T19:16:2Z</time></trkpt>
<trkpt lat="43.4542451" lon="6.8207566"><ele></ele><time>2022-5-30T19:16:5Z</time></trkpt>
<trkpt lat="43.4542796" lon="6.8207639"><ele></ele><time>2022-5-30T19:16:8Z</time></trkpt>
<trkpt lat="43.4543132" lon="6.8207745"><ele></ele><time>2022-5-30T19:16:11Z</time></trkpt>
<trkpt lat="43.4543485" lon="6.8207849"><ele></ele><time>2022-5-30T19:16:14Z</time></trkpt>
<trkpt lat="43.4543787" lon="6.8207946"><ele></ele><time>2022-5-30T19:16:17Z</time></trkpt>
<trkpt lat="43.4544137" lon="6.8208059"><ele></ele><time>2022-5-30T19:16:20Z</time></trkpt>
<trkpt lat="43.4544519" lon="6.8208224"><ele></ele><time>2022-5-30T19:16:23Z</time></trkpt>
<trkpt lat="43.4544932" lon="6.8208397"><ele></ele><time>2022-5-30T19:16:26Z</time></trkpt>
<trkpt lat="43.4545319" lon="6.8208485"><ele></ele><time>2022-5-30T19:16:29Z</time></trkpt>
<trkpt lat="43.4545640" lon="6.8208628"><ele></ele><time>2022-5-30T19:16:32Z</time></trkpt>
<trkpt lat="43.4545973" lon="6.8208805"><ele></ele><time>2022-5-30T19:16:35Z</time></trkpt>
<trkpt lat="43.4546363" lon="6.8208977"><ele></ele><time>2022-5-30T19:16:38Z</time></trkpt>
<trkpt lat="43.4546723" lon="6.8209119"><ele></ele><time>2022-5-30T19:16:41Z</time></trkpt>
<trkpt lat="43.4547012" lon="6.8209333"><ele></ele><time>2022-5-30T19:16:44Z</time></trkpt>
<trkpt lat="43.4547288" lon="6.8209509"><ele></ele><time>2022-5-30T19:16:47Z</time></trkpt>
<trkpt lat="43.4547662" lon="6.8209640"><ele></ele><time>2022-5-30T19:16:50Z</time></trkpt>
<trkpt lat="43.4548039" lon="6.8209769"><ele></ele><time>2022-5-30T19:16:53Z</time></trkpt>
<trkpt lat="43.4548400" lon="6.8209906"><ele></ele><time>2022-5-30T19:16:56Z</time></trkpt>
<trkpt lat="43.4548714" lon="6.8210055"><ele></ele><time>2022-5-30T19:16:59Z</time></trkpt>
<trkpt lat="43.4549039" lon="6.8210287"><ele></ele><time>2022-5-30T19:17:2Z</time></trkpt>
<trkpt lat="43.4549456" lon="6.8210543"><ele></ele><time>2022-5-30T19:17:5Z</time></trkpt>
<trkpt lat="43.4549803" lon="6.8210752"><ele></ele><time>2022-5-30T19:17:8Z</time></trkpt>
<trkpt lat="43.4550121" lon="6.8210890"><ele></ele><time>2022-5-30T19:17:11Z</time></trkpt>
<trkpt lat="43.4550431" lon="6.8211047"><ele></ele><time>2022-5-30T19:17:14Z</time></trkpt>
<trkpt lat="43.4550752" lon="6.8211232"><ele></ele><time>2022-5-30T19:17:17Z</time></trkpt>
<trkpt lat="43.4551093" lon="6.8211412"><ele></ele><time>2022-5-30T19:17:20Z</time></trkpt>
<trkpt lat="43.4551401" lon="6.8211555"><ele></ele><time>2022-5-30T19:17:23Z</time></trkpt>
<trkpt lat="43.4551733" lon="6.8211689"><ele></ele><time>2022-5-30T19:17:26Z</time></trkpt>
<trkpt lat="43.4552085" lon="6.8211841"><ele></ele><time>2022-5-30T19:17:29Z</time></trkpt>
<trkpt lat="43.4552405" lon="6.8212002"><ele></ele><time>2022-5-30T19:17:32Z</time></trkpt>
<trkpt lat="43.4552748" lon="6.8212151"><ele></ele><time>2022-5-30T19:17:35Z</time></trkpt>
<trkpt lat="43.4553099" lon="6.8212317"><ele></ele><time>2022-5-30T19:17:38Z</time></trkpt>
<trkpt lat="43.4553447" lon="6.8212465"><ele></ele><time>2022-5-30T19:17:41Z</time></trkpt>
<trkpt lat="43.4553875" lon="6.8212628"><ele></ele><time>2022-5-30T19:17:44Z</time></trkpt>
<trkpt lat="43.4554256" lon="6.8212748"><ele></ele><time>2022-5-30T19:17:47Z</time></trkpt>
<trkpt lat="43.4554678" lon="6.8212817"><ele></ele><time>2022-5-30T19:17:50Z</time></trkpt>
<trkpt lat="43.4555054" lon="6.8212711"><ele></ele><time>2022-5-30T19:17:53Z</time></trkpt>
<trkpt lat="43.4555409" lon="6.8212576"><ele></ele><time>2022-5-30T19:17:56Z</time></trkpt>
<trkpt lat="43.4555721" lon="6.8212435"><ele></ele><time>2022-5-30T19:17:59Z</time></trkpt>
<trkpt lat="43.4555964" lon="6.8212245"><ele></ele><time>2022-5-30T19:18:2Z</time></trkpt>
<trkpt lat="43.4556203" lon="6.8212001"><ele></ele><time>2022-5-30T19:18:5Z</time></trkpt>
<trkpt lat="43.4556422" lon="6.8211766"><ele></ele><time>2022-5-30T19:18:8Z</time></trkpt>
<trkpt lat="43.4556660" lon="6.8211510"><ele></ele><time>2022-5-30T19:18:11Z</time></trkpt>
<trkpt lat="43.4556901" lon="6.8211244"><ele></ele><time>2022-5-30T19:18:14Z</time></trkpt>
<trkpt lat="43.4557076" lon="6.8211002"><ele></ele><time>2022-5-30T19:18:17Z</time></trkpt>
<trkpt lat="43.4557243" lon="6.8210890"><ele></ele><time>2022-5-30T19:18:20Z</time></trkpt>
<trkpt lat="43.4557357" lon="6.8210787"><ele></ele><time>2022-5-30T19:18:23Z</time></trkpt>
<trkpt lat="43.4557468" lon="6.8210618"><ele></ele><time>2022-5-30T19:18:26Z</time></trkpt>
<trkpt lat="43.4557558" lon="6.8210389"><ele></ele><time>2022-5-30T19:18:29Z</time></trkpt>
<trkpt lat="43.4557651" lon="6.8210206"><ele></ele><time>2022-5-30T19:18:32Z</time></trkpt>
<trkpt lat="43.4557731" lon="6.8210126"><ele></ele><time>2022-5-30T19:18:35Z</time></trkpt>
<trkpt lat="43.4557764" lon="6.8210109"><ele></ele><time>2022-5-30T19:18:38Z</time></trkpt>
<trkpt lat="43.4557863" lon="6.8209978"><ele></ele><time>2022-5-30T19:18:41Z</time></trkpt>
<trkpt lat="43.4557939" lon="6.8209895"><ele></ele><time>2022-5-30T19:18:44Z</time></trkpt>
<trkpt lat="43.4557937" lon="6.8209902"><ele></ele><time>2022-5-30T19:18:47Z</time></trkpt>
<trkpt lat="43.4557938" lon="6.8209903"><ele></ele><time>2022-5-30T19:18:50Z</time></trkpt>
<trkpt lat="43.4557944" lon="6.8209903"><ele></ele><time>2022-5-30T19:18:53Z</time></trkpt>
<trkpt lat="43.4557953" lon="6.8209901"><ele></ele><time>2022-5-30T19:18:56Z</time></trkpt>
<trkpt lat="43.4557944" lon="6.8209921"><ele></ele><time>2022-5-30T19:18:59Z</time></trkpt>
<trkpt lat="43.4557925" lon="6.8209970"><ele></ele><time>2022-5-30T19:19:2Z</time></trkpt>
<trkpt lat="43.4557919" lon="6.8209991"><ele></ele><time>2022-5-30T19:19:5Z</time></trkpt>
<trkpt lat="43.4557922" lon="6.8209993"><ele></ele><time>2022-5-30T19:19:8Z</time></trkpt>
<trkpt lat="43.4557941" lon="6.8209970"><ele></ele><time>2022-5-30T19:19:11Z</time></trkpt>
<trkpt lat="43.4557945" lon="6.8209965"><ele></ele><time>2022-5-30T19:19:14Z</time></trkpt>
<trkpt lat="43.4557957" lon="6.8209945"><ele></ele><time>2022-5-30T19:19:17Z</time></trkpt>
<trkpt lat="43.4557964" lon="6.8209932"><ele></ele><time>2022-5-30T19:19:20Z</time></trkpt>
<trkpt lat="43.4557967" lon="6.8209924"><ele></ele><time>2022-5-30T19:19:23Z</time></trkpt>
<trkpt lat="43.4557975" lon="6.8209914"><ele></ele><time>2022-5-30T19:19:26Z</time></trkpt>
<trkpt lat="43.4557978" lon="6.8209909"><ele></ele><time>2022-5-30T19:19:29Z</time></trkpt>
<trkpt lat="43.4557981" lon="6.8209901"><ele></ele><time>2022-5-30T19:19:32Z</time></trkpt>
<trkpt lat="43.4557985" lon="6.8209895"><ele></ele><time>2022-5-30T19:19:35Z</time></trkpt>
<trkpt lat="43.4557992" lon="6.8209879"><ele></ele><time>2022-5-30T19:19:38Z</time></trkpt>
<trkpt lat="43.4557999" lon="6.8209869"><ele></ele><time>2022-5-30T19:19:41Z</time></trkpt>
<trkpt lat="43.4558037" lon="6.8209795"><ele></ele><time>2022-5-30T19:19:44Z</time></trkpt>
<trkpt lat="43.4558098" lon="6.8209704"><ele></ele><time>2022-5-30T19:19:47Z</time></trkpt>
<trkpt lat="43.4558120" lon="6.8209716"><ele></ele><time>2022-5-30T19:19:50Z</time></trkpt>
<trkpt lat="43.4558109" lon="6.8209800"><ele></ele><time>2022-5-30T19:19:53Z</time></trkpt>
<trkpt lat="43.4558114" lon="6.8209906"><ele></ele><time>2022-5-30T19:19:56Z</time></trkpt>
<trkpt lat="43.4558125" lon="6.8210117"><ele></ele><time>2022-5-30T19:19:59Z</time></trkpt>
<trkpt lat="43.4558134" lon="6.8210316"><ele></ele><time>2022-5-30T19:20:2Z</time></trkpt>
<trkpt lat="43.4558103" lon="6.8210705"><ele></ele><time>2022-5-30T19:20:5Z</time></trkpt>
<trkpt lat="43.4558088" lon="6.8211162"><ele></ele><time>2022-5-30T19:20:8Z</time></trkpt>
<trkpt lat="43.4558016" lon="6.8211518"><ele></ele><time>2022-5-30T19:20:11Z</time></trkpt>
<trkpt lat="43.4557837" lon="6.8211938"><ele></ele><time>2022-5-30T19:20:14Z</time></trkpt>
<trkpt lat="43.4557701" lon="6.8212257"><ele></ele><time>2022-5-30T19:20:17Z</time></trkpt>
<trkpt lat="43.4557546" lon="6.8212745"><ele></ele><time>2022-5-30T19:20:20Z</time></trkpt>
<trkpt lat="43.4557364" lon="6.8213291"><ele></ele><time>2022-5-30T19:20:23Z</time></trkpt>
<trkpt lat="43.4557184" lon="6.8213855"><ele></ele><time>2022-5-30T19:20:26Z</time></trkpt>
<trkpt lat="43.4557017" lon="6.8214339"><ele></ele><time>2022-5-30T19:20:29Z</time></trkpt>
<trkpt lat="43.4556979" lon="6.8214812"><ele></ele><time>2022-5-30T19:20:32Z</time></trkpt>
<trkpt lat="43.4556939" lon="6.8215288"><ele></ele><time>2022-5-30T19:20:35Z</time></trkpt>
<trkpt lat="43.4556866" lon="6.8215616"><ele></ele><time>2022-5-30T19:20:38Z</time></trkpt>
<trkpt lat="43.4556888" lon="6.8215966"><ele></ele><time>2022-5-30T19:20:41Z</time></trkpt>
<trkpt lat="43.4556955" lon="6.8216425"><ele></ele><time>2022-5-30T19:20:44Z</time></trkpt>
<trkpt lat="43.4557128" lon="6.8216845"><ele></ele><time>2022-5-30T19:20:47Z</time></trkpt>
<trkpt lat="43.4557399" lon="6.8217224"><ele></ele><time>2022-5-30T19:20:50Z</time></trkpt>
<trkpt lat="43.4557633" lon="6.8217500"><ele></ele><time>2022-5-30T19:20:53Z</time></trkpt>
<trkpt lat="43.4557792" lon="6.8217796"><ele></ele><time>2022-5-30T19:20:56Z</time></trkpt>
<trkpt lat="43.4557899" lon="6.8218152"><ele></ele><time>2022-5-30T19:20:59Z</time></trkpt>
<trkpt lat="43.4558093" lon="6.8218505"><ele></ele><time>2022-5-30T19:21:2Z</time></trkpt>
<trkpt lat="43.4558381" lon="6.8218855"><ele></ele><time>2022-5-30T19:21:5Z</time></trkpt>
<trkpt lat="43.4558518" lon="6.8219137"><ele></ele><time>2022-5-30T19:21:8Z</time></trkpt>
<trkpt lat="43.4558621" lon="6.8219527"><ele></ele><time>2022-5-30T19:21:11Z</time></trkpt>
<trkpt lat="43.4558635" lon="6.8219937"><ele></ele><time>2022-5-30T19:21:14Z</time></trkpt>
<trkpt lat="43.4558616" lon="6.8220326"><ele></ele><time>2022-5-30T19:21:17Z</time></trkpt>
<trkpt lat="43.4558664" lon="6.8220691"><ele></ele><time>2022-5-30T19:21:20Z</time></trkpt>
<trkpt lat="43.4558682" lon="6.8221064"><ele></ele><time>2022-5-30T19:21:23Z</time></trkpt>
<trkpt lat="43.4558714" lon="6.8221385"><ele></ele><time>2022-5-30T19:21:26Z</time></trkpt>
<trkpt lat="43.4558742" lon="6.8221685"><ele></ele><time>2022-5-30T19:21:29Z</time></trkpt>
<trkpt lat="43.4558774" lon="6.8221977"><ele></ele><time>2022-5-30T19:21:32Z</time></trkpt>
<trkpt lat="43.4558820" lon="6.8222222"><ele></ele><time>2022-5-30T19:21:35Z</time></trkpt>
<trkpt lat="43.4558867" lon="6.8222463"><ele></ele><time>2022-5-30T19:21:38Z</time></trkpt>
<trkpt lat="43.4559051" lon="6.8222690"><ele></ele><time>2022-5-30T19:21:41Z</time></trkpt>
<trkpt lat="43.4559268" lon="6.8222899"><ele></ele><time>2022-5-30T19:21:44Z</time></trkpt>
<trkpt lat="43.4559441" lon="6.8223240"><ele></ele><time>2022-5-30T19:21:47Z</time></trkpt>
<trkpt lat="43.4559630" lon="6.8223578"><ele></ele><time>2022-5-30T19:21:50Z</time></trkpt>
<trkpt lat="43.4559795" lon="6.8223900"><ele></ele><time>2022-5-30T19:21:53Z</time></trkpt>
<trkpt lat="43.4559917" lon="6.8224234"><ele></ele><time>2022-5-30T19:21:56Z</time></trkpt>
<trkpt lat="43.4560042" lon="6.8224568"><ele></ele><time>2022-5-30T19:21:59Z</time></trkpt>
<trkpt lat="43.4560185" lon="6.8224917"><ele></ele><time>2022-5-30T19:22:2Z</time></trkpt>
<trkpt lat="43.4560362" lon="6.8225233"><ele></ele><time>2022-5-30T19:22:5Z</time></trkpt>
<trkpt lat="43.4560532" lon="6.8225598"><ele></ele><time>2022-5-30T19:22:8Z</time></trkpt>
<trkpt lat="43.4560729" lon="6.8225910"><ele></ele><time>2022-5-30T19:22:11Z</time></trkpt>
<trkpt lat="43.4560930" lon="6.8226244"><ele></ele><time>2022-5-30T19:22:14Z</time></trkpt>
<trkpt lat="43.4561168" lon="6.8226598"><ele></ele><time>2022-5-30T19:22:17Z</time></trkpt>
<trkpt lat="43.4561399" lon="6.8226917"><ele></ele><time>2022-5-30T19:22:20Z</time></trkpt>
<trkpt lat="43.4561515" lon="6.8227098"><ele></ele><time>2022-5-30T19:22:23Z</time></trkpt>
<trkpt lat="43.4561637" lon="6.8227331"><ele></ele><time>2022-5-30T19:22:26Z</time></trkpt>
<trkpt lat="43.4561754" lon="6.8227615"><ele></ele><time>2022-5-30T19:22:29Z</time></trkpt>
<trkpt lat="43.4561875" lon="6.8227943"><ele></ele><time>2022-5-30T19:22:32Z</time></trkpt>
<trkpt lat="43.4562034" lon="6.8228271"><ele></ele><time>2022-5-30T19:22:35Z</time></trkpt>
<trkpt lat="43.4562196" lon="6.8228611"><ele></ele><time>2022-5-30T19:22:38Z</time></trkpt>
<trkpt lat="43.4562376" lon="6.8228920"><ele></ele><time>2022-5-30T19:22:41Z</time></trkpt>
<trkpt lat="43.4562555" lon="6.8229207"><ele></ele><time>2022-5-30T19:22:44Z</time></trkpt>
<trkpt lat="43.4562759" lon="6.8229486"><ele></ele><time>2022-5-30T19:22:47Z</time></trkpt>
<trkpt lat="43.4562946" lon="6.8229764"><ele></ele><time>2022-5-30T19:22:50Z</time></trkpt>
<trkpt lat="43.4563151" lon="6.8230010"><ele></ele><time>2022-5-30T19:22:53Z</time></trkpt>
<trkpt lat="43.4563339" lon="6.8230186"><ele></ele><time>2022-5-30T19:22:56Z</time></trkpt>
<trkpt lat="43.4563508" lon="6.8230385"><ele></ele><time>2022-5-30T19:22:59Z</time></trkpt>
<trkpt lat="43.4563694" lon="6.8230619"><ele></ele><time>2022-5-30T19:23:2Z</time></trkpt>
<trkpt lat="43.4563938" lon="6.8230858"><ele></ele><time>2022-5-30T19:23:5Z</time></trkpt>
<trkpt lat="43.4564238" lon="6.8231085"><ele></ele><time>2022-5-30T19:23:8Z</time></trkpt>
<trkpt lat="43.4564444" lon="6.8231228"><ele></ele><time>2022-5-30T19:23:11Z</time></trkpt>
<trkpt lat="43.4564615" lon="6.8231347"><ele></ele><time>2022-5-30T19:23:14Z</time></trkpt>
<trkpt lat="43.4564819" lon="6.8231471"><ele></ele><time>2022-5-30T19:23:17Z</time></trkpt>
<trkpt lat="43.4565025" lon="6.8231612"><ele></ele><time>2022-5-30T19:23:20Z</time></trkpt>
<trkpt lat="43.4565252" lon="6.8231751"><ele></ele><time>2022-5-30T19:23:23Z</time></trkpt>
<trkpt lat="43.4565435" lon="6.8231878"><ele></ele><time>2022-5-30T19:23:26Z</time></trkpt>
<trkpt lat="43.4565573" lon="6.8231977"><ele></ele><time>2022-5-30T19:23:29Z</time></trkpt>
<trkpt lat="43.4565602" lon="6.8232195"><ele></ele><time>2022-5-30T19:23:32Z</time></trkpt>
<trkpt lat="43.4565453" lon="6.8232565"><ele></ele><time>2022-5-30T19:23:35Z</time></trkpt>
<trkpt lat="43.4565304" lon="6.8232980"><ele></ele><time>2022-5-30T19:23:38Z</time></trkpt>
<trkpt lat="43.4565103" lon="6.8233225"><ele></ele><time>2022-5-30T19:23:41Z</time></trkpt>
<trkpt lat="43.4564876" lon="6.8233540"><ele></ele><time>2022-5-30T19:23:44Z</time></trkpt>
<trkpt lat="43.4564570" lon="6.8233924"><ele></ele><time>2022-5-30T19:23:47Z</time></trkpt>
<trkpt lat="43.4564280" lon="6.8234260"><ele></ele><time>2022-5-30T19:23:50Z</time></trkpt>
<trkpt lat="43.4564020" lon="6.8234616"><ele></ele><time>2022-5-30T19:23:53Z</time></trkpt>
<trkpt lat="43.4563741" lon="6.8234997"><ele></ele><time>2022-5-30T19:23:56Z</time></trkpt>
<trkpt lat="43.4563500" lon="6.8235352"><ele></ele><time>2022-5-30T19:23:59Z</time></trkpt>
<trkpt lat="43.4563252" lon="6.8235768"><ele></ele><time>2022-5-30T19:24:2Z</time></trkpt>
<trkpt lat="43.4563001" lon="6.8236162"><ele></ele><time>2022-5-30T19:24:5Z</time></trkpt>
<trkpt lat="43.4562718" lon="6.8236564"><ele></ele><time>2022-5-30T19:24:8Z</time></trkpt>
<trkpt lat="43.4562391" lon="6.8236991"><ele></ele><time>2022-5-30T19:24:11Z</time></trkpt>
<trkpt lat="43.4562078" lon="6.8237448"><ele></ele><time>2022-5-30T19:24:14Z</time></trkpt>
<trkpt lat="43.4561847" lon="6.8237913"><ele></ele><time>2022-5-30T19:24:17Z</time></trkpt>
<trkpt lat="43.4561631" lon="6.8238425"><ele></ele><time>2022-5-30T19:24:20Z</time></trkpt>
<trkpt lat="43.4561395" lon="6.8238916"><ele></ele><time>2022-5-30T19:24:23Z</time></trkpt>
<trkpt lat="43.4561126" lon="6.8239349"><ele></ele><time>2022-5-30T19:24:26Z</time></trkpt>
<trkpt lat="43.4560856" lon="6.8239815"><ele></ele><time>2022-5-30T19:24:29Z</time></trkpt>
<trkpt lat="43.4560683" lon="6.8240294"><ele></ele><time>2022-5-30T19:24:32Z</time></trkpt>
<trkpt lat="43.4560696" lon="6.8240801"><ele></ele><time>2022-5-30T19:24:35Z</time></trkpt>
<trkpt lat="43.4560607" lon="6.8241208"><ele></ele><time>2022-5-30T19:24:38Z</time></trkpt>
<trkpt lat="43.4560482" lon="6.8241749"><ele></ele><time>2022-5-30T19:24:41Z</time></trkpt>
<trkpt lat="43.4560377" lon="6.8242260"><ele></ele><time>2022-5-30T19:24:44Z</time></trkpt>
<trkpt lat="43.4560219" lon="6.8242787"><ele></ele><time>2022-5-30T19:24:47Z</time></trkpt>
<trkpt lat="43.4559944" lon="6.8243329"><ele></ele><time>2022-5-30T19:24:50Z</time></trkpt>
<trkpt lat="43.4559669" lon="6.8243738"><ele></ele><time>2022-5-30T19:24:53Z</time></trkpt>
<trkpt lat="43.4559438" lon="6.8244053"><ele></ele><time>2022-5-30T19:24:56Z</time></trkpt>
<trkpt lat="43.4559253" lon="6.8244279"><ele></ele><time>2022-5-30T19:24:59Z</time></trkpt>
<trkpt lat="43.4559118" lon="6.8244595"><ele></ele><time>2022-5-30T19:25:2Z</time></trkpt>
<trkpt lat="43.4559181" lon="6.8244837"><ele></ele><time>2022-5-30T19:25:5Z</time></trkpt>
<trkpt lat="43.4559244" lon="6.8245167"><ele></ele><time>2022-5-30T19:25:8Z</time></trkpt>
<trkpt lat="43.4559257" lon="6.8245510"><ele></ele><time>2022-5-30T19:25:11Z</time></trkpt>
<trkpt lat="43.4559107" lon="6.8245946"><ele></ele><time>2022-5-30T19:25:14Z</time></trkpt>
<trkpt lat="43.4559099" lon="6.8246716"><ele></ele><time>2022-5-30T19:25:17Z</time></trkpt>
<trkpt lat="43.4559034" lon="6.8247377"><ele></ele><time>2022-5-30T19:25:20Z</time></trkpt>
<trkpt lat="43.4559027" lon="6.8247916"><ele></ele><time>2022-5-30T19:25:23Z</time></trkpt>
<trkpt lat="43.4559265" lon="6.8248096"><ele></ele><time>2022-5-30T19:25:26Z</time></trkpt>
<trkpt lat="43.4559672" lon="6.8248344"><ele></ele><time>2022-5-30T19:25:29Z</time></trkpt>
<trkpt lat="43.4560000" lon="6.8248699"><ele></ele><time>2022-5-30T19:25:32Z</time></trkpt>
<trkpt lat="43.4560312" lon="6.8248985"><ele></ele><time>2022-5-30T19:25:35Z</time></trkpt>
<trkpt lat="43.4560747" lon="6.8249266"><ele></ele><time>2022-5-30T19:25:38Z</time></trkpt>
<trkpt lat="43.4561105" lon="6.8249448"><ele></ele><time>2022-5-30T19:25:41Z</time></trkpt>
<trkpt lat="43.4561348" lon="6.8249633"><ele></ele><time>2022-5-30T19:25:44Z</time></trkpt>
<trkpt lat="43.4561498" lon="6.8249796"><ele></ele><time>2022-5-30T19:25:47Z</time></trkpt>
<trkpt lat="43.4561623" lon="6.8249895"><ele></ele><time>2022-5-30T19:25:50Z</time></trkpt>
<trkpt lat="43.4561712" lon="6.8249969"><ele></ele><time>2022-5-30T19:25:53Z</time></trkpt>
<trkpt lat="43.4561715" lon="6.8250011"><ele></ele><time>2022-5-30T19:25:56Z</time></trkpt>
<trkpt lat="43.4561696" lon="6.8250076"><ele></ele><time>2022-5-30T19:25:59Z</time></trkpt>
<trkpt lat="43.4561741" lon="6.8250105"><ele></ele><time>2022-5-30T19:26:2Z</time></trkpt>
<trkpt lat="43.4561866" lon="6.8250191"><ele></ele><time>2022-5-30T19:26:5Z</time></trkpt>
<trkpt lat="43.4562009" lon="6.8250277"><ele></ele><time>2022-5-30T19:26:8Z</time></trkpt>
<trkpt lat="43.4562026" lon="6.8250293"><ele></ele><time>2022-5-30T19:26:11Z</time></trkpt>
<trkpt lat="43.4562051" lon="6.8250337"><ele></ele><time>2022-5-30T19:26:14Z</time></trkpt>
<trkpt lat="43.4561868" lon="6.8250246"><ele></ele><time>2022-5-30T19:26:17Z</time></trkpt>
<trkpt lat="43.4561879" lon="6.8250244"><ele></ele><time>2022-5-30T19:26:20Z</time></trkpt>
<trkpt lat="43.4561900" lon="6.8250260"><ele></ele><time>2022-5-30T19:26:23Z</time></trkpt>
<trkpt lat="43.4562003" lon="6.8250330"><ele></ele><time>2022-5-30T19:26:26Z</time></trkpt>
<trkpt lat="43.4562011" lon="6.8250341"><ele></ele><time>2022-5-30T19:26:29Z</time></trkpt>
<trkpt lat="43.4561996" lon="6.8250360"><ele></ele><time>2022-5-30T19:26:32Z</time></trkpt>
<trkpt lat="43.4562019" lon="6.8250356"><ele></ele><time>2022-5-30T19:26:35Z</time></trkpt>
<trkpt lat="43.4562029" lon="6.8250357"><ele></ele><time>2022-5-30T19:26:38Z</time></trkpt>
<trkpt lat="43.4562089" lon="6.8250387"><ele></ele><time>2022-5-30T19:26:41Z</time></trkpt>
<trkpt lat="43.4562096" lon="6.8250448"><ele></ele><time>2022-5-30T19:26:44Z</time></trkpt>
<trkpt lat="43.4562099" lon="6.8250497"><ele></ele><time>2022-5-30T19:26:47Z</time></trkpt>
<trkpt lat="43.4562100" lon="6.8250494"><ele></ele><time>2022-5-30T19:26:50Z</time></trkpt>
<trkpt lat="43.4562088" lon="6.8250569"><ele></ele><time>2022-5-30T19:26:53Z</time></trkpt>
<trkpt lat="43.4562125" lon="6.8250577"><ele></ele><time>2022-5-30T19:26:56Z</time></trkpt>
<trkpt lat="43.4562021" lon="6.8250780"><ele></ele><time>2022-5-30T19:26:59Z</time></trkpt>
<trkpt lat="43.4561928" lon="6.8251127"><ele></ele><time>2022-5-30T19:27:2Z</time></trkpt>
<trkpt lat="43.4561937" lon="6.8251374"><ele></ele><time>2022-5-30T19:27:5Z</time></trkpt>
<trkpt lat="43.4562086" lon="6.8251503"><ele></ele><time>2022-5-30T19:27:8Z</time></trkpt>
<trkpt lat="43.4562228" lon="6.8251615"><ele></ele><time>2022-5-30T19:27:11Z</time></trkpt>
<trkpt lat="43.4562363" lon="6.8251728"><ele></ele><time>2022-5-30T19:27:14Z</time></trkpt>
<trkpt lat="43.4562456" lon="6.8251950"><ele></ele><time>2022-5-30T19:27:17Z</time></trkpt>
<trkpt lat="43.4562570" lon="6.8252045"><ele></ele><time>2022-5-30T19:27:20Z</time></trkpt>
<trkpt lat="43.4562659" lon="6.8252074"><ele></ele><time>2022-5-30T19:27:23Z</time></trkpt>
<trkpt lat="43.4562700" lon="6.8252069"><ele></ele><time>2022-5-30T19:27:26Z</time></trkpt>
<trkpt lat="43.4562722" lon="6.8252063"><ele></ele><time>2022-5-30T19:27:29Z</time></trkpt>
<trkpt lat="43.4562696" lon="6.8251962"><ele></ele><time>2022-5-30T19:27:32Z</time></trkpt>
<trkpt lat="43.4562696" lon="6.8251957"><ele></ele><time>2022-5-30T19:27:35Z</time></trkpt>
<trkpt lat="43.4562708" lon="6.8251940"><ele></ele><time>2022-5-30T19:27:38Z</time></trkpt>
<trkpt lat="43.4562712" lon="6.8251931"><ele></ele><time>2022-5-30T19:27:41Z</time></trkpt>
<trkpt lat="43.4562713" lon="6.8251929"><ele></ele><time>2022-5-30T19:27:44Z</time></trkpt>
<trkpt lat="43.4562716" lon="6.8251924"><ele></ele><time>2022-5-30T19:27:47Z</time></trkpt>
<trkpt lat="43.4562723" lon="6.8251909"><ele></ele><time>2022-5-30T19:27:50Z</time></trkpt>
<trkpt lat="43.4562737" lon="6.8251886"><ele></ele><time>2022-5-30T19:27:53Z</time></trkpt>
<trkpt lat="43.4562749" lon="6.8251866"><ele></ele><time>2022-5-30T19:27:56Z</time></trkpt>
<trkpt lat="43.4562825" lon="6.8251829"><ele></ele><time>2022-5-30T19:27:59Z</time></trkpt>
<trkpt lat="43.4562863" lon="6.8251694"><ele></ele><time>2022-5-30T19:28:2Z</time></trkpt>
<trkpt lat="43.4562914" lon="6.8251500"><ele></ele><time>2022-5-30T19:28:5Z</time></trkpt>
<trkpt lat="43.4562966" lon="6.8251225"><ele></ele><time>2022-5-30T19:28:8Z</time></trkpt>
<trkpt lat="43.4563075" lon="6.8250869"><ele></ele><time>2022-5-30T19:28:11Z</time></trkpt>
<trkpt lat="43.4563185" lon="6.8250569"><ele></ele><time>2022-5-30T19:28:14Z</time></trkpt>
<trkpt lat="43.4563299" lon="6.8250256"><ele></ele><time>2022-5-30T19:28:17Z</time></trkpt>
<trkpt lat="43.4563524" lon="6.8250057"><ele></ele><time>2022-5-30T19:28:20Z</time></trkpt>
<trkpt lat="43.4563733" lon="6.8249737"><ele></ele><time>2022-5-30T19:28:23Z</time></trkpt>
<trkpt lat="43.4563908" lon="6.8249433"><ele></ele><time>2022-5-30T19:28:26Z</time></trkpt>
<trkpt lat="43.4564074" lon="6.8249124"><ele></ele><time>2022-5-30T19:28:29Z</time></trkpt>
<trkpt lat="43.4564295" lon="6.8248832"><ele></ele><time>2022-5-30T19:28:32Z</time></trkpt>
<trkpt lat="43.4564541" lon="6.8248501"><ele></ele><time>2022-5-30T19:28:35Z</time></trkpt>
<trkpt lat="43.4564786" lon="6.8248191"><ele></ele><time>2022-5-30T19:28:38Z</time></trkpt>
<trkpt lat="43.4565016" lon="6.8247887"><ele></ele><time>2022-5-30T19:28:41Z</time></trkpt>
<trkpt lat="43.4565248" lon="6.8247615"><ele></ele><time>2022-5-30T19:28:44Z</time></trkpt>
<trkpt lat="43.4565455" lon="6.8247363"><ele></ele><time>2022-5-30T19:28:47Z</time></trkpt>
<trkpt lat="43.4565629" lon="6.8247134"><ele></ele><time>2022-5-30T19:28:50Z</time></trkpt>
<trkpt lat="43.4565809" lon="6.8246921"><ele></ele><time>2022-5-30T19:28:53Z</time></trkpt>
<trkpt lat="43.4565974" lon="6.8246703"><ele></ele><time>2022-5-30T19:28:56Z</time></trkpt>
<trkpt lat="43.4566152" lon="6.8246449"><ele></ele><time>2022-5-30T19:28:59Z</time></trkpt>
<trkpt lat="43.4566373" lon="6.8246242"><ele></ele><time>2022-5-30T19:29:2Z</time></trkpt>
<trkpt lat="43.4566619" lon="6.8246069"><ele></ele><time>2022-5-30T19:29:5Z</time></trkpt>
<trkpt lat="43.4566855" lon="6.8245877"><ele></ele><time>2022-5-30T19:29:8Z</time></trkpt>
<trkpt lat="43.4567073" lon="6.8245701"><ele></ele><time>2022-5-30T19:29:11Z</time></trkpt>
<trkpt lat="43.4567285" lon="6.8245513"><ele></ele><time>2022-5-30T19:29:14Z</time></trkpt>
<trkpt lat="43.4567535" lon="6.8245358"><ele></ele><time>2022-5-30T19:29:17Z</time></trkpt>
<trkpt lat="43.4567759" lon="6.8245171"><ele></ele><time>2022-5-30T19:29:20Z</time></trkpt>
<trkpt lat="43.4567980" lon="6.8244961"><ele></ele><time>2022-5-30T19:29:23Z</time></trkpt>
<trkpt lat="43.4568198" lon="6.8244697"><ele></ele><time>2022-5-30T19:29:26Z</time></trkpt>
<trkpt lat="43.4568398" lon="6.8244470"><ele></ele><time>2022-5-30T19:29:29Z</time></trkpt>
<trkpt lat="43.4568621" lon="6.8244184"><ele></ele><time>2022-5-30T19:29:32Z</time></trkpt>
<trkpt lat="43.4568837" lon="6.8243921"><ele></ele><time>2022-5-30T19:29:35Z</time></trkpt>
<trkpt lat="43.4569068" lon="6.8243643"><ele></ele><time>2022-5-30T19:29:38Z</time></trkpt>
<trkpt lat="43.4569287" lon="6.8243382"><ele></ele><time>2022-5-30T19:29:41Z</time></trkpt>
<trkpt lat="43.4569509" lon="6.8243108"><ele></ele><time>2022-5-30T19:29:44Z</time></trkpt>
<trkpt lat="43.4569700" lon="6.8242842"><ele></ele><time>2022-5-30T19:29:47Z</time></trkpt>
<trkpt lat="43.4569939" lon="6.8242571"><ele></ele><time>2022-5-30T19:29:50Z</time></trkpt>
<trkpt lat="43.4570162" lon="6.8242314"><ele></ele><time>2022-5-30T19:29:53Z</time></trkpt>
<trkpt lat="43.4570362" lon="6.8242020"><ele></ele><time>2022-5-30T19:29:56Z</time></trkpt>
<trkpt lat="43.4570585" lon="6.8241751"><ele></ele><time>2022-5-30T19:29:59Z</time></trkpt>
<trkpt lat="43.4570808" lon="6.8241467"><ele></ele><time>2022-5-30T19:30:2Z</time></trkpt>
<trkpt lat="43.4571038" lon="6.8241177"><ele></ele><time>2022-5-30T19:30:5Z</time></trkpt>
<trkpt lat="43.4571273" lon="6.8240913"><ele></ele><time>2022-5-30T19:30:8Z</time></trkpt>
<trkpt lat="43.4571555" lon="6.8240620"><ele></ele><time>2022-5-30T19:30:11Z</time></trkpt>
<trkpt lat="43.4571804" lon="6.8240326"><ele></ele><time>2022-5-30T19:30:14Z</time></trkpt>
<trkpt lat="43.4572006" lon="6.8240051"><ele></ele><time>2022-5-30T19:30:17Z</time></trkpt>
<trkpt lat="43.4572234" lon="6.8239646"><ele></ele><time>2022-5-30T19:30:20Z</time></trkpt>
<trkpt lat="43.4572463" lon="6.8239232"><ele></ele><time>2022-5-30T19:30:23Z</time></trkpt>
<trkpt lat="43.4572707" lon="6.8238840"><ele></ele><time>2022-5-30T19:30:26Z</time></trkpt>
<trkpt lat="43.4572913" lon="6.8238448"><ele></ele><time>2022-5-30T19:30:29Z</time></trkpt>
<trkpt lat="43.4573042" lon="6.8238014"><ele></ele><time>2022-5-30T19:30:32Z</time></trkpt>
<trkpt lat="43.4573201" lon="6.8237627"><ele></ele><time>2022-5-30T19:30:35Z</time></trkpt>
<trkpt lat="43.4573351" lon="6.8237270"><ele></ele><time>2022-5-30T19:30:38Z</time></trkpt>
<trkpt lat="43.4573470" lon="6.8236868"><ele></ele><time>2022-5-30T19:30:41Z</time></trkpt>
<trkpt lat="43.4573532" lon="6.8236565"><ele></ele><time>2022-5-30T19:30:44Z</time></trkpt>
<trkpt lat="43.4573597" lon="6.8236329"><ele></ele><time>2022-5-30T19:30:47Z</time></trkpt>
<trkpt lat="43.4573660" lon="6.8236114"><ele></ele><time>2022-5-30T19:30:50Z</time></trkpt>
<trkpt lat="43.4573784" lon="6.8235895"><ele></ele><time>2022-5-30T19:30:53Z</time></trkpt>
<trkpt lat="43.4573899" lon="6.8235717"><ele></ele><time>2022-5-30T19:30:56Z</time></trkpt>
<trkpt lat="43.4574013" lon="6.8235581"><ele></ele><time>2022-5-30T19:30:59Z</time></trkpt>
<trkpt lat="43.4574136" lon="6.8235458"><ele></ele><time>2022-5-30T19:31:2Z</time></trkpt>
<trkpt lat="43.4574359" lon="6.8235380"><ele></ele><time>2022-5-30T19:31:5Z</time></trkpt>
<trkpt lat="43.4574548" lon="6.8235215"><ele></ele><time>2022-5-30T19:31:8Z</time></trkpt>
<trkpt lat="43.4574739" lon="6.8234975"><ele></ele><time>2022-5-30T19:31:11Z</time></trkpt>
<trkpt lat="43.4574962" lon="6.8234784"><ele></ele><time>2022-5-30T19:31:14Z</time></trkpt>
<trkpt lat="43.4575166" lon="6.8234622"><ele></ele><time>2022-5-30T19:31:17Z</time></trkpt>
<trkpt lat="43.4575367" lon="6.8234506"><ele></ele><time>2022-5-30T19:31:20Z</time></trkpt>
<trkpt lat="43.4575555" lon="6.8234384"><ele></ele><time>2022-5-30T19:31:23Z</time></trkpt>
<trkpt lat="43.4575761" lon="6.8234268"><ele></ele><time>2022-5-30T19:31:26Z</time></trkpt>
<trkpt lat="43.4575979" lon="6.8234214"><ele></ele><time>2022-5-30T19:31:29Z</time></trkpt>
<trkpt lat="43.4576168" lon="6.8234156"><ele></ele><time>2022-5-30T19:31:32Z</time></trkpt>
<trkpt lat="43.4576381" lon="6.8234083"><ele></ele><time>2022-5-30T19:31:35Z</time></trkpt>
<trkpt lat="43.4576598" lon="6.8234025"><ele></ele><time>2022-5-30T19:31:38Z</time></trkpt>
<trkpt lat="43.4576798" lon="6.8234015"><ele></ele><time>2022-5-30T19:31:41Z</time></trkpt>
<trkpt lat="43.4577037" lon="6.8233976"><ele></ele><time>2022-5-30T19:31:44Z</time></trkpt>
<trkpt lat="43.4577279" lon="6.8233960"><ele></ele><time>2022-5-30T19:31:47Z</time></trkpt>
<trkpt lat="43.4577527" lon="6.8233936"><ele></ele><time>2022-5-30T19:31:50Z</time></trkpt>
<trkpt lat="43.4577731" lon="6.8233920"><ele></ele><time>2022-5-30T19:31:53Z</time></trkpt>
<trkpt lat="43.4577927" lon="6.8233894"><ele></ele><time>2022-5-30T19:31:56Z</time></trkpt>
<trkpt lat="43.4578160" lon="6.8233881"><ele></ele><time>2022-5-30T19:31:59Z</time></trkpt>
<trkpt lat="43.4578340" lon="6.8233888"><ele></ele><time>2022-5-30T19:32:2Z</time></trkpt>
<trkpt lat="43.4578580" lon="6.8233860"><ele></ele><time>2022-5-30T19:32:5Z</time></trkpt>
<trkpt lat="43.4578831" lon="6.8233867"><ele></ele><time>2022-5-30T19:32:8Z</time></trkpt>
<trkpt lat="43.4579062" lon="6.8233872"><ele></ele><time>2022-5-30T19:32:11Z</time></trkpt>
<trkpt lat="43.4579305" lon="6.8233891"><ele></ele><time>2022-5-30T19:32:14Z</time></trkpt>
<trkpt lat="43.4579534" lon="6.8234010"><ele></ele><time>2022-5-30T19:32:17Z</time></trkpt>
<trkpt lat="43.4579751" lon="6.8234078"><ele></ele><time>2022-5-30T19:32:20Z</time></trkpt>
<trkpt lat="43.4579977" lon="6.8234120"><ele></ele><time>2022-5-30T19:32:23Z</time></trkpt>
<trkpt lat="43.4580237" lon="6.8234103"><ele></ele><time>2022-5-30T19:32:26Z</time></trkpt>
<trkpt lat="43.4580511" lon="6.8234047"><ele></ele><time>2022-5-30T19:32:29Z</time></trkpt>
<trkpt lat="43.4580734" lon="6.8233944"><ele></ele><time>2022-5-30T19:32:32Z</time></trkpt>
<trkpt lat="43.4580988" lon="6.8233839"><ele></ele><time>2022-5-30T19:32:35Z</time></trkpt>
<trkpt lat="43.4581235" lon="6.8233766"><ele></ele><time>2022-5-30T19:32:38Z</time></trkpt>
<trkpt lat="43.4581428" lon="6.8233716"><ele></ele><time>2022-5-30T19:32:41Z</time></trkpt>
<trkpt lat="43.4581661" lon="6.8233687"><ele></ele><time>2022-5-30T19:32:44Z</time></trkpt>
<trkpt lat="43.4581873" lon="6.8233677"><ele></ele><time>2022-5-30T19:32:47Z</time></trkpt>
<trkpt lat="43.4582080" lon="6.8233649"><ele></ele><time>2022-5-30T19:32:50Z</time></trkpt>
<trkpt lat="43.4582277" lon="6.8233615"><ele></ele><time>2022-5-30T19:32:53Z</time></trkpt>
<trkpt lat="43.4582473" lon="6.8233641"><ele></ele><time>2022-5-30T19:32:56Z</time></trkpt>
<trkpt lat="43.4582644" lon="6.8233667"><ele></ele><time>2022-5-30T19:32:59Z</time></trkpt>
<trkpt lat="43.4582844" lon="6.8233654"><ele></ele><time>2022-5-30T19:33:2Z</time></trkpt>
<trkpt lat="43.4583036" lon="6.8233528"><ele></ele><time>2022-5-30T19:33:5Z</time></trkpt>
<trkpt lat="43.4583216" lon="6.8233420"><ele></ele><time>2022-5-30T19:33:8Z</time></trkpt>
<trkpt lat="43.4583402" lon="6.8233293"><ele></ele><time>2022-5-30T19:33:11Z</time></trkpt>
<trkpt lat="43.4583567" lon="6.8233168"><ele></ele><time>2022-5-30T19:33:14Z</time></trkpt>
<trkpt lat="43.4583772" lon="6.8233091"><ele></ele><time>2022-5-30T19:33:17Z</time></trkpt>
<trkpt lat="43.4583975" lon="6.8232986"><ele></ele><time>2022-5-30T19:33:20Z</time></trkpt>
<trkpt lat="43.4584176" lon="6.8232876"><ele></ele><time>2022-5-30T19:33:23Z</time></trkpt>
<trkpt lat="43.4584360" lon="6.8232725"><ele></ele><time>2022-5-30T19:33:26Z</time></trkpt>
<trkpt lat="43.4584542" lon="6.8232547"><ele></ele><time>2022-5-30T19:33:29Z</time></trkpt>
<trkpt lat="43.4584750" lon="6.8232365"><ele></ele><time>2022-5-30T19:33:32Z</time></trkpt>
<trkpt lat="43.4584965" lon="6.8232150"><ele></ele><time>2022-5-30T19:33:35Z</time></trkpt>
<trkpt lat="43.4585148" lon="6.8231949"><ele></ele><time>2022-5-30T19:33:38Z</time></trkpt>
<trkpt lat="43.4585364" lon="6.8231717"><ele></ele><time>2022-5-30T19:33:41Z</time></trkpt>
<trkpt lat="43.4585619" lon="6.8231464"><ele></ele><time>2022-5-30T19:33:44Z</time></trkpt>
<trkpt lat="43.4585934" lon="6.8231273"><ele></ele><time>2022-5-30T19:33:47Z</time></trkpt>
<trkpt lat="43.4586299" lon="6.8231210"><ele></ele><time>2022-5-30T19:33:50Z</time></trkpt>
<trkpt lat="43.4586660" lon="6.8231188"><ele></ele><time>2022-5-30T19:33:53Z</time></trkpt>
<trkpt lat="43.4587021" lon="6.8231145"><ele></ele><time>2022-5-30T19:33:56Z</time></trkpt>
<trkpt lat="43.4587410" lon="6.8231095"><ele></ele><time>2022-5-30T19:33:59Z</time></trkpt>
<trkpt lat="43.4587796" lon="6.8231071"><ele></ele><time>2022-5-30T19:34:2Z</time></trkpt>
<trkpt lat="43.4588176" lon="6.8231035"><ele></ele><time>2022-5-30T19:34:5Z</time></trkpt>
<trkpt lat="43.4588591" lon="6.8230976"><ele></ele><time>2022-5-30T19:34:8Z</time></trkpt>
<trkpt lat="43.4588980" lon="6.8230809"><ele></ele><time>2022-5-30T19:34:11Z</time></trkpt>
<trkpt lat="43.4589349" lon="6.8230563"><ele></ele><time>2022-5-30T19:34:14Z</time></trkpt>
<trkpt lat="43.4589667" lon="6.8230242"><ele></ele><time>2022-5-30T19:34:17Z</time></trkpt>
<trkpt lat="43.4589981" lon="6.8229865"><ele></ele><time>2022-5-30T19:34:20Z</time></trkpt>
<trkpt lat="43.4590265" lon="6.8229498"><ele></ele><time>2022-5-30T19:34:23Z</time></trkpt>
<trkpt lat="43.4590470" lon="6.8229000"><ele></ele><time>2022-5-30T19:34:26Z</time></trkpt>
<trkpt lat="43.4590614" lon="6.8228506"><ele></ele><time>2022-5-30T19:34:29Z</time></trkpt>
<trkpt lat="43.4590751" lon="6.8228135"><ele></ele><time>2022-5-30T19:34:32Z</time></trkpt>
<trkpt lat="43.4590824" lon="6.8227829"><ele></ele><time>2022-5-30T19:34:35Z</time></trkpt>
<trkpt lat="43.4590860" lon="6.8227496"><ele></ele><time>2022-5-30T19:34:38Z</time></trkpt>
<trkpt lat="43.4590905" lon="6.8227123"><ele></ele><time>2022-5-30T19:34:41Z</time></trkpt>
<trkpt lat="43.4590945" lon="6.8226861"><ele></ele><time>2022-5-30T19:34:44Z</time></trkpt>
<trkpt lat="43.4590999" lon="6.8226569"><ele></ele><time>2022-5-30T19:34:47Z</time></trkpt>
<trkpt lat="43.4591101" lon="6.8226303"><ele></ele><time>2022-5-30T19:34:50Z</time></trkpt>
<trkpt lat="43.4591237" lon="6.8225983"><ele></ele><time>2022-5-30T19:34:53Z</time></trkpt>
<trkpt lat="43.4591366" lon="6.8225659"><ele></ele><time>2022-5-30T19:34:56Z</time></trkpt>
<trkpt lat="43.4591516" lon="6.8225393"><ele></ele><time>2022-5-30T19:34:59Z</time></trkpt>
<trkpt lat="43.4591697" lon="6.8225220"><ele></ele><time>2022-5-30T19:35:2Z</time></trkpt>
<trkpt lat="43.4591868" lon="6.8225000"><ele></ele><time>2022-5-30T19:35:5Z</time></trkpt>
<trkpt lat="43.4591994" lon="6.8224716"><ele></ele><time>2022-5-30T19:35:8Z</time></trkpt>
<trkpt lat="43.4592136" lon="6.8224390"><ele></ele><time>2022-5-30T19:35:11Z</time></trkpt>
<trkpt lat="43.4592277" lon="6.8224129"><ele></ele><time>2022-5-30T19:35:14Z</time></trkpt>
<trkpt lat="43.4592448" lon="6.8223918"><ele></ele><time>2022-5-30T19:35:17Z</time></trkpt>
<trkpt lat="43.4592583" lon="6.8223664"><ele></ele><time>2022-5-30T19:35:20Z</time></trkpt>
<trkpt lat="43.4592719" lon="6.8223430"><ele></ele><time>2022-5-30T19:35:23Z</time></trkpt>
<trkpt lat="43.4592853" lon="6.8223191"><ele></ele><time>2022-5-30T19:35:26Z</time></trkpt>
<trkpt lat="43.4592942" lon="6.8222927"><ele></ele><time>2022-5-30T19:35:29Z</time></trkpt>
<trkpt lat="43.4593002" lon="6.8222616"><ele></ele><time>2022-5-30T19:35:32Z</time></trkpt>
<trkpt lat="43.4593077" lon="6.8222281"><ele></ele><time>2022-5-30T19:35:35Z</time></trkpt>
<trkpt lat="43.4593139" lon="6.8221914"><ele></ele><time>2022-5-30T19:35:38Z</time></trkpt>
<trkpt lat="43.4593207" lon="6.8221576"><ele></ele><time>2022-5-30T19:35:41Z</time></trkpt>
<trkpt lat="43.4593284" lon="6.8221283"><ele></ele><time>2022-5-30T19:35:44Z</time></trkpt>
<trkpt lat="43.4593344" lon="6.8221002"><ele></ele><time>2022-5-30T19:35:47Z</time></trkpt>
<trkpt lat="43.4593423" lon="6.8220673"><ele></ele><time>2022-5-30T19:35:50Z</time></trkpt>
<trkpt lat="43.4593509" lon="6.8220298"><ele></ele><time>2022-5-30T19:35:53Z</time></trkpt>
<trkpt lat="43.4593647" lon="6.8219893"><ele></ele><time>2022-5-30T19:35:56Z</time></trkpt>
<trkpt lat="43.4593752" lon="6.8219432"><ele></ele><time>2022-5-30T19:35:59Z</time></trkpt>
<trkpt lat="43.4593840" lon="6.8218938"><ele></ele><time>2022-5-30T19:36:2Z</time></trkpt>
<trkpt lat="43.4593930" lon="6.8218437"><ele></ele><time>2022-5-30T19:36:5Z</time></trkpt>
<trkpt lat="43.4594033" lon="6.8217918"><ele></ele><time>2022-5-30T19:36:8Z</time></trkpt>
<trkpt lat="43.4594164" lon="6.8217459"><ele></ele><time>2022-5-30T19:36:11Z</time></trkpt>
<trkpt lat="43.4594273" lon="6.8217055"><ele></ele><time>2022-5-30T19:36:14Z</time></trkpt>
<trkpt lat="43.4594402" lon="6.8216693"><ele></ele><time>2022-5-30T19:36:17Z</time></trkpt>
<trkpt lat="43.4594592" lon="6.8216357"><ele></ele><time>2022-5-30T19:36:20Z</time></trkpt>
<trkpt lat="43.4594826" lon="6.8216054"><ele></ele><time>2022-5-30T19:36:23Z</time></trkpt>
<trkpt lat="43.4595051" lon="6.8215741"><ele></ele><time>2022-5-30T19:36:26Z</time></trkpt>
<trkpt lat="43.4595221" lon="6.8215413"><ele></ele><time>2022-5-30T19:36:29Z</time></trkpt>
<trkpt lat="43.4595377" lon="6.8215037"><ele></ele><time>2022-5-30T19:36:32Z</time></trkpt>
<trkpt lat="43.4595537" lon="6.8214678"><ele></ele><time>2022-5-30T19:36:35Z</time></trkpt>
<trkpt lat="43.4595665" lon="6.8214390"><ele></ele><time>2022-5-30T19:36:38Z</time></trkpt>
<trkpt lat="43.4595734" lon="6.8214211"><ele></ele><time>2022-5-30T19:36:41Z</time></trkpt>
<trkpt lat="43.4595846" lon="6.8214113"><ele></ele><time>2022-5-30T19:36:44Z</time></trkpt>
<trkpt lat="43.4596011" lon="6.8213998"><ele></ele><time>2022-5-30T19:36:47Z</time></trkpt>
<trkpt lat="43.4596124" lon="6.8213909"><ele></ele><time>2022-5-30T19:36:50Z</time></trkpt>
<trkpt lat="43.4596208" lon="6.8213822"><ele></ele><time>2022-5-30T19:36:53Z</time></trkpt>
<trkpt lat="43.4596217" lon="6.8213847"><ele></ele><time>2022-5-30T19:36:56Z</time></trkpt>
<trkpt lat="43.4596238" lon="6.8213845"><ele></ele><time>2022-5-30T19:36:59Z</time></trkpt>
<trkpt lat="43.4596282" lon="6.8213818"><ele></ele><time>2022-5-30T19:37:2Z</time></trkpt>
<trkpt lat="43.4596336" lon="6.8213784"><ele></ele><time>2022-5-30T19:37:5Z</time></trkpt>
<trkpt lat="43.4596428" lon="6.8213782"><ele></ele><time>2022-5-30T19:37:8Z</time></trkpt>
<trkpt lat="43.4596554" lon="6.8213821"><ele></ele><time>2022-5-30T19:37:11Z</time></trkpt>
<trkpt lat="43.4596742" lon="6.8213792"><ele></ele><time>2022-5-30T19:37:14Z</time></trkpt>
<trkpt lat="43.4596908" lon="6.8213662"><ele></ele><time>2022-5-30T19:37:17Z</time></trkpt>
<trkpt lat="43.4597105" lon="6.8213471"><ele></ele><time>2022-5-30T19:37:20Z</time></trkpt>
<trkpt lat="43.4597325" lon="6.8213303"><ele></ele><time>2022-5-30T19:37:23Z</time></trkpt>
<trkpt lat="43.4597493" lon="6.8213136"><ele></ele><time>2022-5-30T19:37:26Z</time></trkpt>
<trkpt lat="43.4597714" lon="6.8212956"><ele></ele><time>2022-5-30T19:37:29Z</time></trkpt>
<trkpt lat="43.4597990" lon="6.8212770"><ele></ele><time>2022-5-30T19:37:32Z</time></trkpt>
<trkpt lat="43.4598286" lon="6.8212559"><ele></ele><time>2022-5-30T19:37:35Z</time></trkpt>
<trkpt lat="43.4598642" lon="6.8212428"><ele></ele><time>2022-5-30T19:37:38Z</time></trkpt>
<trkpt lat="43.4599065" lon="6.8212269"><ele></ele><time>2022-5-30T19:37:41Z</time></trkpt>
<trkpt lat="43.4599489" lon="6.8212030"><ele></ele><time>2022-5-30T19:37:44Z</time></trkpt>
<trkpt lat="43.4599986" lon="6.8211659"><ele></ele><time>2022-5-30T19:37:47Z</time></trkpt>
<trkpt lat="43.4600497" lon="6.8211327"><ele></ele><time>2022-5-30T19:37:50Z</time></trkpt>
<trkpt lat="43.4601043" lon="6.8210986"><ele></ele><time>2022-5-30T19:37:53Z</time></trkpt>
<trkpt lat="43.4601616" lon="6.8210612"><ele></ele><time>2022-5-30T19:37:56Z</time></trkpt>
<trkpt lat="43.4602156" lon="6.8210259"><ele></ele><time>2022-5-30T19:37:59Z</time></trkpt>
<trkpt lat="43.4602680" lon="6.8209981"><ele></ele><time>2022-5-30T19:38:2Z</time></trkpt>
<trkpt lat="43.4603103" lon="6.8209732"><ele></ele><time>2022-5-30T19:38:5Z</time></trkpt>
<trkpt lat="43.4603487" lon="6.8209538"><ele></ele><time>2022-5-30T19:38:8Z</time></trkpt>
<trkpt lat="43.4603842" lon="6.8209332"><ele></ele><time>2022-5-30T19:38:11Z</time></trkpt>
<trkpt lat="43.4604248" lon="6.8209159"><ele></ele><time>2022-5-30T19:38:14Z</time></trkpt>
<trkpt lat="43.4604615" lon="6.8209019"><ele></ele><time>2022-5-30T19:38:17Z</time></trkpt>
<trkpt lat="43.4604956" lon="6.8208898"><ele></ele><time>2022-5-30T19:38:20Z</time></trkpt>
<trkpt lat="43.4605310" lon="6.8208776"><ele></ele><time>2022-5-30T19:38:23Z</time></trkpt>
<trkpt lat="43.4605642" lon="6.8208662"><ele></ele><time>2022-5-30T19:38:26Z</time></trkpt>
<trkpt lat="43.4605969" lon="6.8208536"><ele></ele><time>2022-5-30T19:38:29Z</time></trkpt>
<trkpt lat="43.4606320" lon="6.8208379"><ele></ele><time>2022-5-30T19:38:32Z</time></trkpt>
<trkpt lat="43.4606631" lon="6.8208240"><ele></ele><time>2022-5-30T19:38:35Z</time></trkpt>
<trkpt lat="43.4606826" lon="6.8208150"><ele></ele><time>2022-5-30T19:38:38Z</time></trkpt>
<trkpt lat="43.4606851" lon="6.8208179"><ele></ele><time>2022-5-30T19:38:41Z</time></trkpt>
<trkpt lat="43.4606863" lon="6.8208214"><ele></ele><time>2022-5-30T19:38:44Z</time></trkpt>
<trkpt lat="43.4606943" lon="6.8208184"><ele></ele><time>2022-5-30T19:38:47Z</time></trkpt>
<trkpt lat="43.4606989" lon="6.8208161"><ele></ele><time>2022-5-30T19:38:50Z</time></trkpt>
<trkpt lat="43.4607062" lon="6.8208138"><ele></ele><time>2022-5-30T19:38:53Z</time></trkpt>
<trkpt lat="43.4607117" lon="6.8208145"><ele></ele><time>2022-5-30T19:38:56Z</time></trkpt>
<trkpt lat="43.4607172" lon="6.8208127"><ele></ele><time>2022-5-30T19:38:59Z</time></trkpt>
<trkpt lat="43.4607181" lon="6.8208167"><ele></ele><time>2022-5-30T19:39:2Z</time></trkpt>
<trkpt lat="43.4607213" lon="6.8208161"><ele></ele><time>2022-5-30T19:39:5Z</time></trkpt>
<trkpt lat="43.4607225" lon="6.8208160"><ele></ele><time>2022-5-30T19:39:8Z</time></trkpt>
<trkpt lat="43.4607292" lon="6.8208130"><ele></ele><time>2022-5-30T19:39:11Z</time></trkpt>
<trkpt lat="43.4607472" lon="6.8207990"><ele></ele><time>2022-5-30T19:39:14Z</time></trkpt>
<trkpt lat="43.4607693" lon="6.8207891"><ele></ele><time>2022-5-30T19:39:17Z</time></trkpt>
<trkpt lat="43.4607903" lon="6.8207798"><ele></ele><time>2022-5-30T19:39:20Z</time></trkpt>
<trkpt lat="43.4608147" lon="6.8207717"><ele></ele><time>2022-5-30T19:39:23Z</time></trkpt>
<trkpt lat="43.4608378" lon="6.8207599"><ele></ele><time>2022-5-30T19:39:26Z</time></trkpt>
<trkpt lat="43.4608601" lon="6.8207431"><ele></ele><time>2022-5-30T19:39:29Z</time></trkpt>
<trkpt lat="43.4608839" lon="6.8207297"><ele></ele><time>2022-5-30T19:39:32Z</time></trkpt>
<trkpt lat="43.4609110" lon="6.8207157"><ele></ele><time>2022-5-30T19:39:35Z</time></trkpt>
<trkpt lat="43.4609361" lon="6.8206947"><ele></ele><time>2022-5-30T19:39:38Z</time></trkpt>
<trkpt lat="43.4609596" lon="6.8206772"><ele></ele><time>2022-5-30T19:39:41Z</time></trkpt>
<trkpt lat="43.4609832" lon="6.8206569"><ele></ele><time>2022-5-30T19:39:44Z</time></trkpt>
<trkpt lat="43.4610075" lon="6.8206370"><ele></ele><time>2022-5-30T19:39:47Z</time></trkpt>
<trkpt lat="43.4610294" lon="6.8206172"><ele></ele><time>2022-5-30T19:39:50Z</time></trkpt>
<trkpt lat="43.4610520" lon="6.8205946"><ele></ele><time>2022-5-30T19:39:53Z</time></trkpt>
<trkpt lat="43.4610716" lon="6.8205708"><ele></ele><time>2022-5-30T19:39:56Z</time></trkpt>
<trkpt lat="43.4610882" lon="6.8205518"><ele></ele><time>2022-5-30T19:39:59Z</time></trkpt>
<trkpt lat="43.4611067" lon="6.8205323"><ele></ele><time>2022-5-30T19:40:2Z</time></trkpt>
<trkpt lat="43.4611240" lon="6.8205137"><ele></ele><time>2022-5-30T19:40:5Z</time></trkpt>
<trkpt lat="43.4611432" lon="6.8204962"><ele></ele><time>2022-5-30T19:40:8Z</time></trkpt>
<trkpt lat="43.4611618" lon="6.8204765"><ele></ele><time>2022-5-30T19:40:11Z</time></trkpt>
<trkpt lat="43.4611811" lon="6.8204589"><ele></ele><time>2022-5-30T19:40:14Z</time></trkpt>
<trkpt lat="43.4611909" lon="6.8204488"><ele></ele><time>2022-5-30T19:40:17Z</time></trkpt>
<trkpt lat="43.4612041" lon="6.8204342"><ele></ele><time>2022-5-30T19:40:20Z</time></trkpt>
<trkpt lat="43.4612217" lon="6.8204183"><ele></ele><time>2022-5-30T19:40:23Z</time></trkpt>
<trkpt lat="43.4612368" lon="6.8204026"><ele></ele><time>2022-5-30T19:40:26Z</time></trkpt>
<trkpt lat="43.4612521" lon="6.8203881"><ele></ele><time>2022-5-30T19:40:29Z</time></trkpt>
<trkpt lat="43.4612720" lon="6.8203778"><ele></ele><time>2022-5-30T19:40:32Z</time></trkpt>
<trkpt lat="43.4612901" lon="6.8203672"><ele></ele><time>2022-5-30T19:40:35Z</time></trkpt>
<trkpt lat="43.4613079" lon="6.8203559"><ele></ele><time>2022-5-30T19:40:38Z</time></trkpt>
<trkpt lat="43.4613243" lon="6.8203464"><ele></ele><time>2022-5-30T19:40:41Z</time></trkpt>
<trkpt lat="43.4613409" lon="6.8203376"><ele></ele><time>2022-5-30T19:40:44Z</time></trkpt>
<trkpt lat="43.4613534" lon="6.8203191"><ele></ele><time>2022-5-30T19:40:47Z</time></trkpt>
<trkpt lat="43.4613668" lon="6.8202895"><ele></ele><time>2022-5-30T19:40:50Z</time></trkpt>
<trkpt lat="43.4613783" lon="6.8202600"><ele></ele><time>2022-5-30T19:40:53Z</time></trkpt>
<trkpt lat="43.4613892" lon="6.8202302"><ele></ele><time>2022-5-30T19:40:56Z</time></trkpt>
<trkpt lat="43.4614055" lon="6.8202106"><ele></ele><time>2022-5-30T19:40:59Z</time></trkpt>
<trkpt lat="43.4614199" lon="6.8201919"><ele></ele><time>2022-5-30T19:41:2Z</time></trkpt>
<trkpt lat="43.4614328" lon="6.8201711"><ele></ele><time>2022-5-30T19:41:5Z</time></trkpt>
<trkpt lat="43.4614489" lon="6.8201518"><ele></ele><time>2022-5-30T19:41:8Z</time></trkpt>
<trkpt lat="43.4614682" lon="6.8201332"><ele></ele><time>2022-5-30T19:41:11Z</time></trkpt>
<trkpt lat="43.4614803" lon="6.8201114"><ele></ele><time>2022-5-30T19:41:14Z</time></trkpt>
<trkpt lat="43.4614924" lon="6.8200871"><ele></ele><time>2022-5-30T19:41:17Z</time></trkpt>
<trkpt lat="43.4615000" lon="6.8200639"><ele></ele><time>2022-5-30T19:41:20Z</time></trkpt>
<trkpt lat="43.4615089" lon="6.8200395"><ele></ele><time>2022-5-30T19:41:23Z</time></trkpt>
<trkpt lat="43.4615199" lon="6.8200151"><ele></ele><time>2022-5-30T19:41:26Z</time></trkpt>
<trkpt lat="43.4615325" lon="6.8199875"><ele></ele><time>2022-5-30T19:41:29Z</time></trkpt>
<trkpt lat="43.4615561" lon="6.8199698"><ele></ele><time>2022-5-30T19:41:32Z</time></trkpt>
<trkpt lat="43.4615806" lon="6.8199541"><ele></ele><time>2022-5-30T19:41:35Z</time></trkpt>
<trkpt lat="43.4616042" lon="6.8199390"><ele></ele><time>2022-5-30T19:41:38Z</time></trkpt>
<trkpt lat="43.4616261" lon="6.8199258"><ele></ele><time>2022-5-30T19:41:41Z</time></trkpt>
<trkpt lat="43.4616443" lon="6.8199121"><ele></ele><time>2022-5-30T19:41:44Z</time></trkpt>
<trkpt lat="43.4616645" lon="6.8198975"><ele></ele><time>2022-5-30T19:41:47Z</time></trkpt>
<trkpt lat="43.4616881" lon="6.8198780"><ele></ele><time>2022-5-30T19:41:50Z</time></trkpt>
<trkpt lat="43.4617104" lon="6.8198559"><ele></ele><time>2022-5-30T19:41:53Z</time></trkpt>
<trkpt lat="43.4617313" lon="6.8198378"><ele></ele><time>2022-5-30T19:41:56Z</time></trkpt>
<trkpt lat="43.4617481" lon="6.8198168"><ele></ele><time>2022-5-30T19:41:59Z</time></trkpt>
<trkpt lat="43.4617635" lon="6.8198023"><ele></ele><time>2022-5-30T19:42:2Z</time></trkpt>
<trkpt lat="43.4617863" lon="6.8197931"><ele></ele><time>2022-5-30T19:42:5Z</time></trkpt>
<trkpt lat="43.4618109" lon="6.8197846"><ele></ele><time>2022-5-30T19:42:8Z</time></trkpt>
<trkpt lat="43.4618357" lon="6.8197756"><ele></ele><time>2022-5-30T19:42:11Z</time></trkpt>
<trkpt lat="43.4618643" lon="6.8197676"><ele></ele><time>2022-5-30T19:42:14Z</time></trkpt>
<trkpt lat="43.4618944" lon="6.8197568"><ele></ele><time>2022-5-30T19:42:17Z</time></trkpt>
<trkpt lat="43.4619225" lon="6.8197477"><ele></ele><time>2022-5-30T19:42:20Z</time></trkpt>
<trkpt lat="43.4619476" lon="6.8197383"><ele></ele><time>2022-5-30T19:42:23Z</time></trkpt>
<trkpt lat="43.4619698" lon="6.8197286"><ele></ele><time>2022-5-30T19:42:26Z</time></trkpt>
<trkpt lat="43.4619911" lon="6.8197197"><ele></ele><time>2022-5-30T19:42:29Z</time></trkpt>
<trkpt lat="43.4620024" lon="6.8197117"><ele></ele><time>2022-5-30T19:42:32Z</time></trkpt>
<trkpt lat="43.4620182" lon="6.8197013"><ele></ele><time>2022-5-30T19:42:35Z</time></trkpt>
<trkpt lat="43.4620330" lon="6.8196899"><ele></ele><time>2022-5-30T19:42:38Z</time></trkpt>
<trkpt lat="43.4620417" lon="6.8196811"><ele></ele><time>2022-5-30T19:42:41Z</time></trkpt>
<trkpt lat="43.4620609" lon="6.8196763"><ele></ele><time>2022-5-30T19:42:44Z</time></trkpt>
<trkpt lat="43.4620860" lon="6.8196671"><ele></ele><time>2022-5-30T19:42:47Z</time></trkpt>
<trkpt lat="43.4621049" lon="6.8196541"><ele></ele><time>2022-5-30T19:42:50Z</time></trkpt>
<trkpt lat="43.4621221" lon="6.8196431"><ele></ele><time>2022-5-30T19:42:53Z</time></trkpt>
<trkpt lat="43.4621369" lon="6.8196335"><ele></ele><time>2022-5-30T19:42:56Z</time></trkpt>
<trkpt lat="43.4621537" lon="6.8196277"><ele></ele><time>2022-5-30T19:42:59Z</time></trkpt>
<trkpt lat="43.4621688" lon="6.8196242"><ele></ele><time>2022-5-30T19:43:2Z</time></trkpt>
<trkpt lat="43.4621833" lon="6.8196231"><ele></ele><time>2022-5-30T19:43:5Z</time></trkpt>
<trkpt lat="43.4622015" lon="6.8196200"><ele></ele><time>2022-5-30T19:43:8Z</time></trkpt>
<trkpt lat="43.4622209" lon="6.8196180"><ele></ele><time>2022-5-30T19:43:11Z</time></trkpt>
<trkpt lat="43.4622394" lon="6.8196175"><ele></ele><time>2022-5-30T19:43:14Z</time></trkpt>
<trkpt lat="43.4622593" lon="6.8196148"><ele></ele><time>2022-5-30T19:43:17Z</time></trkpt>
<trkpt lat="43.4622817" lon="6.8196115"><ele></ele><time>2022-5-30T19:43:20Z</time></trkpt>
<trkpt lat="43.4623011" lon="6.8196079"><ele></ele><time>2022-5-30T19:43:23Z</time></trkpt>
<trkpt lat="43.4623237" lon="6.8196025"><ele></ele><time>2022-5-30T19:43:26Z</time></trkpt>
<trkpt lat="43.4623478" lon="6.8195966"><ele></ele><time>2022-5-30T19:43:29Z</time></trkpt>
<trkpt lat="43.4623663" lon="6.8195909"><ele></ele><time>2022-5-30T19:43:32Z</time></trkpt>
<trkpt lat="43.4623829" lon="6.8195863"><ele></ele><time>2022-5-30T19:43:35Z</time></trkpt>
<trkpt lat="43.4624022" lon="6.8195820"><ele></ele><time>2022-5-30T19:43:38Z</time></trkpt>
<trkpt lat="43.4624258" lon="6.8195826"><ele></ele><time>2022-5-30T19:43:41Z</time></trkpt>
<trkpt lat="43.4624446" lon="6.8195760"><ele></ele><time>2022-5-30T19:43:44Z</time></trkpt>
<trkpt lat="43.4624636" lon="6.8195675"><ele></ele><time>2022-5-30T19:43:47Z</time></trkpt>
<trkpt lat="43.4624815" lon="6.8195567"><ele></ele><time>2022-5-30T19:43:50Z</time></trkpt>
<trkpt lat="43.4624998" lon="6.8195486"><ele></ele><time>2022-5-30T19:43:53Z</time></trkpt>
<trkpt lat="43.4625158" lon="6.8195426"><ele></ele><time>2022-5-30T19:43:56Z</time></trkpt>
<trkpt lat="43.4625278" lon="6.8195339"><ele></ele><time>2022-5-30T19:43:59Z</time></trkpt>
<trkpt lat="43.4625478" lon="6.8195326"><ele></ele><time>2022-5-30T19:44:2Z</time></trkpt>
<trkpt lat="43.4625669" lon="6.8195301"><ele></ele><time>2022-5-30T19:44:5Z</time></trkpt>
<trkpt lat="43.4625830" lon="6.8195247"><ele></ele><time>2022-5-30T19:44:8Z</time></trkpt>
<trkpt lat="43.4625970" lon="6.8195199"><ele></ele><time>2022-5-30T19:44:11Z</time></trkpt>
<trkpt lat="43.4626146" lon="6.8195206"><ele></ele><time>2022-5-30T19:44:14Z</time></trkpt>
<trkpt lat="43.4626334" lon="6.8195226"><ele></ele><time>2022-5-30T19:44:17Z</time></trkpt>
<trkpt lat="43.4626499" lon="6.8195233"><ele></ele><time>2022-5-30T19:44:20Z</time></trkpt>
<trkpt lat="43.4626686" lon="6.8195173"><ele></ele><time>2022-5-30T19:44:23Z</time></trkpt>
<trkpt lat="43.4626831" lon="6.8195016"><ele></ele><time>2022-5-30T19:44:26Z</time></trkpt>
<trkpt lat="43.4627047" lon="6.8194999"><ele></ele><time>2022-5-30T19:44:29Z</time></trkpt>
<trkpt lat="43.4627287" lon="6.8194989"><ele></ele><time>2022-5-30T19:44:32Z</time></trkpt>
<trkpt lat="43.4627537" lon="6.8195066"><ele></ele><time>2022-5-30T19:44:35Z</time></trkpt>
<trkpt lat="43.4627810" lon="6.8195057"><ele></ele><time>2022-5-30T19:44:38Z</time></trkpt>
<trkpt lat="43.4628114" lon="6.8194965"><ele></ele><time>2022-5-30T19:44:41Z</time></trkpt>
<trkpt lat="43.4628440" lon="6.8194894"><ele></ele><time>2022-5-30T19:44:44Z</time></trkpt>
<trkpt lat="43.4628695" lon="6.8194803"><ele></ele><time>2022-5-30T19:44:47Z</time></trkpt>
<trkpt lat="43.4628954" lon="6.8194697"><ele></ele><time>2022-5-30T19:44:50Z</time></trkpt>
<trkpt lat="43.4629184" lon="6.8194633"><ele></ele><time>2022-5-30T19:44:53Z</time></trkpt>
<trkpt lat="43.4629410" lon="6.8194608"><ele></ele><time>2022-5-30T19:44:56Z</time></trkpt>
<trkpt lat="43.4629655" lon="6.8194566"><ele></ele><time>2022-5-30T19:44:59Z</time></trkpt>
<trkpt lat="43.4629927" lon="6.8194544"><ele></ele><time>2022-5-30T19:45:2Z</time></trkpt>
<trkpt lat="43.4630204" lon="6.8194564"><ele></ele><time>2022-5-30T19:45:5Z</time></trkpt>
<trkpt lat="43.4630485" lon="6.8194549"><ele></ele><time>2022-5-30T19:45:8Z</time></trkpt>
<trkpt lat="43.4630807" lon="6.8194538"><ele></ele><time>2022-5-30T19:45:11Z</time></trkpt>
<trkpt lat="43.4631137" lon="6.8194518"><ele></ele><time>2022-5-30T19:45:14Z</time></trkpt>
<trkpt lat="43.4631436" lon="6.8194479"><ele></ele><time>2022-5-30T19:45:17Z</time></trkpt>
<trkpt lat="43.4631715" lon="6.8194432"><ele></ele><time>2022-5-30T19:45:20Z</time></trkpt>
<trkpt lat="43.4632004" lon="6.8194373"><ele></ele><time>2022-5-30T19:45:23Z</time></trkpt>
<trkpt lat="43.4632273" lon="6.8194330"><ele></ele><time>2022-5-30T19:45:26Z</time></trkpt>
<trkpt lat="43.4632533" lon="6.8194386"><ele></ele><time>2022-5-30T19:45:29Z</time></trkpt>
<trkpt lat="43.4632815" lon="6.8194434"><ele></ele><time>2022-5-30T19:45:32Z</time></trkpt>
<trkpt lat="43.4633082" lon="6.8194400"><ele></ele><time>2022-5-30T19:45:35Z</time></trkpt>
<trkpt lat="43.4633324" lon="6.8194324"><ele></ele><time>2022-5-30T19:45:38Z</time></trkpt>
<trkpt lat="43.4633534" lon="6.8194271"><ele></ele><time>2022-5-30T19:45:41Z</time></trkpt>
<trkpt lat="43.4633748" lon="6.8194241"><ele></ele><time>2022-5-30T19:45:44Z</time></trkpt>
<trkpt lat="43.4633992" lon="6.8194201"><ele></ele><time>2022-5-30T19:45:47Z</time></trkpt>
<trkpt lat="43.4634215" lon="6.8194123"><ele></ele><time>2022-5-30T19:45:50Z</time></trkpt>
<trkpt lat="43.4634486" lon="6.8194044"><ele></ele><time>2022-5-30T19:45:53Z</time></trkpt>
<trkpt lat="43.4634788" lon="6.8193939"><ele></ele><time>2022-5-30T19:45:56Z</time></trkpt>
<trkpt lat="43.4635111" lon="6.8193812"><ele></ele><time>2022-5-30T19:45:59Z</time></trkpt>
<trkpt lat="43.4635453" lon="6.8193660"><ele></ele><time>2022-5-30T19:46:2Z</time></trkpt>
<trkpt lat="43.4635841" lon="6.8193439"><ele></ele><time>2022-5-30T19:46:5Z</time></trkpt>
<trkpt lat="43.4636113" lon="6.8193124"><ele></ele><time>2022-5-30T19:46:8Z</time></trkpt>
<trkpt lat="43.4636391" lon="6.8192814"><ele></ele><time>2022-5-30T19:46:11Z</time></trkpt>
<trkpt lat="43.4636679" lon="6.8192539"><ele></ele><time>2022-5-30T19:46:14Z</time></trkpt>
<trkpt lat="43.4636964" lon="6.8192352"><ele></ele><time>2022-5-30T19:46:17Z</time></trkpt>
<trkpt lat="43.4637260" lon="6.8192175"><ele></ele><time>2022-5-30T19:46:20Z</time></trkpt>
<trkpt lat="43.4637582" lon="6.8191966"><ele></ele><time>2022-5-30T19:46:23Z</time></trkpt>
<trkpt lat="43.4637898" lon="6.8191781"><ele></ele><time>2022-5-30T19:46:26Z</time></trkpt>
<trkpt lat="43.4638262" lon="6.8191637"><ele></ele><time>2022-5-30T19:46:29Z</time></trkpt>
<trkpt lat="43.4638695" lon="6.8191545"><ele></ele><time>2022-5-30T19:46:32Z</time></trkpt>
<trkpt lat="43.4639149" lon="6.8191358"><ele></ele><time>2022-5-30T19:46:35Z</time></trkpt>
<trkpt lat="43.4639616" lon="6.8191232"><ele></ele><time>2022-5-30T19:46:38Z</time></trkpt>
<trkpt lat="43.4640113" lon="6.8191118"><ele></ele><time>2022-5-30T19:46:41Z</time></trkpt>
<trkpt lat="43.4640671" lon="6.8191147"><ele></ele><time>2022-5-30T19:46:44Z</time></trkpt>
<trkpt lat="43.4641262" lon="6.8190970"><ele></ele><time>2022-5-30T19:46:47Z</time></trkpt>
<trkpt lat="43.4641906" lon="6.8190776"><ele></ele><time>2022-5-30T19:46:50Z</time></trkpt>
<trkpt lat="43.4642619" lon="6.8190666"><ele></ele><time>2022-5-30T19:46:53Z</time></trkpt>
<trkpt lat="43.4643295" lon="6.8190642"><ele></ele><time>2022-5-30T19:46:56Z</time></trkpt>
<trkpt lat="43.4644013" lon="6.8190797"><ele></ele><time>2022-5-30T19:46:59Z</time></trkpt>
<trkpt lat="43.4644696" lon="6.8191154"><ele></ele><time>2022-5-30T19:47:2Z</time></trkpt>
<trkpt lat="43.4645398" lon="6.8191489"><ele></ele><time>2022-5-30T19:47:5Z</time></trkpt>
<trkpt lat="43.4646072" lon="6.8191864"><ele></ele><time>2022-5-30T19:47:8Z</time></trkpt>
<trkpt lat="43.4646634" lon="6.8192435"><ele></ele><time>2022-5-30T19:47:11Z</time></trkpt>
<trkpt lat="43.4647151" lon="6.8193077"><ele></ele><time>2022-5-30T19:47:14Z</time></trkpt>
<trkpt lat="43.4647641" lon="6.8193684"><ele></ele><time>2022-5-30T19:47:17Z</time></trkpt>
<trkpt lat="43.4648102" lon="6.8194151"><ele></ele><time>2022-5-30T19:47:20Z</time></trkpt>
<trkpt lat="43.4648529" lon="6.8194483"><ele></ele><time>2022-5-30T19:47:23Z</time></trkpt>
<trkpt lat="43.4648853" lon="6.8194666"><ele></ele><time>2022-5-30T19:47:26Z</time></trkpt>
<trkpt lat="43.4649092" lon="6.8194824"><ele></ele><time>2022-5-30T19:47:29Z</time></trkpt>
<trkpt lat="43.4649200" lon="6.8195099"><ele></ele><time>2022-5-30T19:47:32Z</time></trkpt>
<trkpt lat="43.4649353" lon="6.8195402"><ele></ele><time>2022-5-30T19:47:35Z</time></trkpt>
<trkpt lat="43.4649552" lon="6.8195667"><ele></ele><time>2022-5-30T19:47:38Z</time></trkpt>
<trkpt lat="43.4649792" lon="6.8195885"><ele></ele><time>2022-5-30T19:47:41Z</time></trkpt>
<trkpt lat="43.4650042" lon="6.8196093"><ele></ele><time>2022-5-30T19:47:44Z</time></trkpt>
<trkpt lat="43.4650291" lon="6.8196279"><ele></ele><time>2022-5-30T19:47:47Z</time></trkpt>
<trkpt lat="43.4650548" lon="6.8196446"><ele></ele><time>2022-5-30T19:47:50Z</time></trkpt>
<trkpt lat="43.4650796" lon="6.8196661"><ele></ele><time>2022-5-30T19:47:53Z</time></trkpt>
<trkpt lat="43.4651031" lon="6.8196922"><ele></ele><time>2022-5-30T19:47:56Z</time></trkpt>
<trkpt lat="43.4651269" lon="6.8197161"><ele></ele><time>2022-5-30T19:47:59Z</time></trkpt>
<trkpt lat="43.4651445" lon="6.8197356"><ele></ele><time>2022-5-30T19:48:2Z</time></trkpt>
<trkpt lat="43.4651619" lon="6.8197618"><ele></ele><time>2022-5-30T19:48:5Z</time></trkpt>
<trkpt lat="43.4651759" lon="6.8197951"><ele></ele><time>2022-5-30T19:48:8Z</time></trkpt>
<trkpt lat="43.4651888" lon="6.8198207"><ele></ele><time>2022-5-30T19:48:11Z</time></trkpt>
<trkpt lat="43.4651888" lon="6.8198207"><ele></ele><time>2022-5-30T19:48:14Z</time></trkpt>
<trkpt lat="43.4651888" lon="6.8198207"><ele></ele><time>2022-5-30T19:48:17Z</time></trkpt>
<trkpt lat="43.4651888" lon="6.8198207"><ele></ele><time>2022-5-30T19:48:20Z</time></trkpt>
<trkpt lat="43.4651888" lon="6.8198207"><ele></ele><time>2022-5-30T19:48:23Z</time></trkpt>
<trkpt lat="43.4651888" lon="6.8198207"><ele></ele><time>2022-5-30T19:48:26Z</time></trkpt>
<trkpt lat="43.4651888" lon="6.8198207"><ele></ele><time>2022-5-30T19:48:29Z</time></trkpt>
<trkpt lat="43.4651888" lon="6.8198207"><ele></ele><time>2022-5-30T19:48:32Z</time></trkpt>
<trkpt lat="43.4651888" lon="6.8198207"><ele></ele><time>2022-5-30T19:48:35Z</time></trkpt>
<trkpt lat="43.4651888" lon="6.8198207"><ele></ele><time>2022-5-30T19:48:38Z</time></trkpt>
<trkpt lat="43.4651888" lon="6.8198207"><ele></ele><time>2022-5-30T19:48:41Z</time></trkpt>
<trkpt lat="43.4651888" lon="6.8198207"><ele></ele><time>2022-5-30T19:48:44Z</time></trkpt>
<trkpt lat="43.4651888" lon="6.8198207"><ele></ele><time>2022-5-30T19:48:47Z</time></trkpt>
<trkpt lat="43.4651888" lon="6.8198207"><ele></ele><time>2022-5-30T19:48:50Z</time></trkpt>
<trkpt lat="43.4651888" lon="6.8198207"><ele></ele><time>2022-5-30T19:48:53Z</time></trkpt>
<trkpt lat="43.4651888" lon="6.8198207"><ele></ele><time>2022-5-30T19:48:56Z</time></trkpt>
<trkpt lat="43.4651997" lon="6.8198507"><ele></ele><time>2022-5-30T19:48:59Z</time></trkpt>
<trkpt lat="43.4652117" lon="6.8198885"><ele></ele><time>2022-5-30T19:49:2Z</time></trkpt>
<trkpt lat="43.4652203" lon="6.8199305"><ele></ele><time>2022-5-30T19:49:5Z</time></trkpt>
<trkpt lat="43.4652246" lon="6.8199815"><ele></ele><time>2022-5-30T19:49:8Z</time></trkpt>
<trkpt lat="43.4652161" lon="6.8200348"><ele></ele><time>2022-5-30T19:49:11Z</time></trkpt>
<trkpt lat="43.4652072" lon="6.8200874"><ele></ele><time>2022-5-30T19:49:14Z</time></trkpt>
<trkpt lat="43.4652076" lon="6.8201380"><ele></ele><time>2022-5-30T19:49:17Z</time></trkpt>
<trkpt lat="43.4652105" lon="6.8201929"><ele></ele><time>2022-5-30T19:49:20Z</time></trkpt>
<trkpt lat="43.4652233" lon="6.8202591"><ele></ele><time>2022-5-30T19:49:23Z</time></trkpt>
<trkpt lat="43.4652402" lon="6.8203279"><ele></ele><time>2022-5-30T19:49:26Z</time></trkpt>
<trkpt lat="43.4652638" lon="6.8203972"><ele></ele><time>2022-5-30T19:49:29Z</time></trkpt>
<trkpt lat="43.4652915" lon="6.8204697"><ele></ele><time>2022-5-30T19:49:32Z</time></trkpt>
<trkpt lat="43.4653168" lon="6.8205331"><ele></ele><time>2022-5-30T19:49:35Z</time></trkpt>
<trkpt lat="43.4653402" lon="6.8205832"><ele></ele><time>2022-5-30T19:49:38Z</time></trkpt>
<trkpt lat="43.4653607" lon="6.8206277"><ele></ele><time>2022-5-30T19:49:41Z</time></trkpt>
<trkpt lat="43.4653767" lon="6.8206766"><ele></ele><time>2022-5-30T19:49:44Z</time></trkpt>
<trkpt lat="43.4653800" lon="6.8207238"><ele></ele><time>2022-5-30T19:49:47Z</time></trkpt>
<trkpt lat="43.4653718" lon="6.8207810"><ele></ele><time>2022-5-30T19:49:50Z</time></trkpt>
<trkpt lat="43.4653619" lon="6.8208437"><ele></ele><time>2022-5-30T19:49:53Z</time></trkpt>
<trkpt lat="43.4653550" lon="6.8209079"><ele></ele><time>2022-5-30T19:49:56Z</time></trkpt>
<trkpt lat="43.4653475" lon="6.8209728"><ele></ele><time>2022-5-30T19:49:59Z</time></trkpt>
<trkpt lat="43.4653469" lon="6.8210518"><ele></ele><time>2022-5-30T19:50:2Z</time></trkpt>
<trkpt lat="43.4653575" lon="6.8211381"><ele></ele><time>2022-5-30T19:50:5Z</time></trkpt>
<trkpt lat="43.4653806" lon="6.8212263"><ele></ele><time>2022-5-30T19:50:8Z</time></trkpt>
<trkpt lat="43.4654075" lon="6.8213072"><ele></ele><time>2022-5-30T19:50:11Z</time></trkpt>
<trkpt lat="43.4654551" lon="6.8213801"><ele></ele><time>2022-5-30T19:50:14Z</time></trkpt>
<trkpt lat="43.4655126" lon="6.8214257"><ele></ele><time>2022-5-30T19:50:17Z</time></trkpt>
<trkpt lat="43.4655696" lon="6.8214540"><ele></ele><time>2022-5-30T19:50:20Z</time></trkpt>
<trkpt lat="43.4656287" lon="6.8214595"><ele></ele><time>2022-5-30T19:50:23Z</time></trkpt>
<trkpt lat="43.4656986" lon="6.8214643"><ele></ele><time>2022-5-30T19:50:26Z</time></trkpt>
<trkpt lat="43.4657562" lon="6.8214749"><ele></ele><time>2022-5-30T19:50:29Z</time></trkpt>
<trkpt lat="43.4657911" lon="6.8215098"><ele></ele><time>2022-5-30T19:50:32Z</time></trkpt>
<trkpt lat="43.4658136" lon="6.8215819"><ele></ele><time>2022-5-30T19:50:35Z</time></trkpt>
<trkpt lat="43.4658455" lon="6.8216648"><ele></ele><time>2022-5-30T19:50:38Z</time></trkpt>
<trkpt lat="43.4658847" lon="6.8217452"><ele></ele><time>2022-5-30T19:50:41Z</time></trkpt>
<trkpt lat="43.4659170" lon="6.8218319"><ele></ele><time>2022-5-30T19:50:44Z</time></trkpt>
<trkpt lat="43.4659220" lon="6.8219211"><ele></ele><time>2022-5-30T19:50:47Z</time></trkpt>
<trkpt lat="43.4659304" lon="6.8220024"><ele></ele><time>2022-5-30T19:50:50Z</time></trkpt>
<trkpt lat="43.4659641" lon="6.8220578"><ele></ele><time>2022-5-30T19:50:53Z</time></trkpt>
<trkpt lat="43.4660134" lon="6.8220876"><ele></ele><time>2022-5-30T19:50:56Z</time></trkpt>
<trkpt lat="43.4660689" lon="6.8220946"><ele></ele><time>2022-5-30T19:50:59Z</time></trkpt>
<trkpt lat="43.4661230" lon="6.8220826"><ele></ele><time>2022-5-30T19:51:2Z</time></trkpt>
<trkpt lat="43.4661857" lon="6.8220772"><ele></ele><time>2022-5-30T19:51:5Z</time></trkpt>
<trkpt lat="43.4662489" lon="6.8220969"><ele></ele><time>2022-5-30T19:51:8Z</time></trkpt>
<trkpt lat="43.4663041" lon="6.8221237"><ele></ele><time>2022-5-30T19:51:11Z</time></trkpt>
<trkpt lat="43.4663365" lon="6.8221670"><ele></ele><time>2022-5-30T19:51:14Z</time></trkpt>
<trkpt lat="43.4663542" lon="6.8222330"><ele></ele><time>2022-5-30T19:51:17Z</time></trkpt>
<trkpt lat="43.4663724" lon="6.8223220"><ele></ele><time>2022-5-30T19:51:20Z</time></trkpt>
<trkpt lat="43.4663798" lon="6.8224112"><ele></ele><time>2022-5-30T19:51:23Z</time></trkpt>
<trkpt lat="43.4663867" lon="6.8224840"><ele></ele><time>2022-5-30T19:51:26Z</time></trkpt>
<trkpt lat="43.4663916" lon="6.8225367"><ele></ele><time>2022-5-30T19:51:29Z</time></trkpt>
<trkpt lat="43.4663976" lon="6.8225797"><ele></ele><time>2022-5-30T19:51:32Z</time></trkpt>
<trkpt lat="43.4664080" lon="6.8226167"><ele></ele><time>2022-5-30T19:51:35Z</time></trkpt>
<trkpt lat="43.4664289" lon="6.8226320"><ele></ele><time>2022-5-30T19:51:38Z</time></trkpt>
<trkpt lat="43.4664553" lon="6.8226219"><ele></ele><time>2022-5-30T19:51:41Z</time></trkpt>
<trkpt lat="43.4664792" lon="6.8226008"><ele></ele><time>2022-5-30T19:51:44Z</time></trkpt>
<trkpt lat="43.4665036" lon="6.8225865"><ele></ele><time>2022-5-30T19:51:47Z</time></trkpt>
<trkpt lat="43.4665259" lon="6.8225724"><ele></ele><time>2022-5-30T19:51:50Z</time></trkpt>
<trkpt lat="43.4665400" lon="6.8225636"><ele></ele><time>2022-5-30T19:51:53Z</time></trkpt>
<trkpt lat="43.4665522" lon="6.8225560"><ele></ele><time>2022-5-30T19:51:56Z</time></trkpt>
<trkpt lat="43.4665673" lon="6.8225466"><ele></ele><time>2022-5-30T19:51:59Z</time></trkpt>
<trkpt lat="43.4665877" lon="6.8225297"><ele></ele><time>2022-5-30T19:52:2Z</time></trkpt>
<trkpt lat="43.4666220" lon="6.8225037"><ele></ele><time>2022-5-30T19:52:5Z</time></trkpt>
<trkpt lat="43.4666545" lon="6.8224795"><ele></ele><time>2022-5-30T19:52:8Z</time></trkpt>
<trkpt lat="43.4666881" lon="6.8224655"><ele></ele><time>2022-5-30T19:52:11Z</time></trkpt>
<trkpt lat="43.4667139" lon="6.8224659"><ele></ele><time>2022-5-30T19:52:14Z</time></trkpt>
<trkpt lat="43.4667256" lon="6.8224563"><ele></ele><time>2022-5-30T19:52:17Z</time></trkpt>
<trkpt lat="43.4667366" lon="6.8224396"><ele></ele><time>2022-5-30T19:52:20Z</time></trkpt>
<trkpt lat="43.4667492" lon="6.8224278"><ele></ele><time>2022-5-30T19:52:23Z</time></trkpt>
<trkpt lat="43.4667492" lon="6.8224278"><ele></ele><time>2022-5-30T19:52:26Z</time></trkpt>
<trkpt lat="43.4667492" lon="6.8224278"><ele></ele><time>2022-5-30T19:52:29Z</time></trkpt>
<trkpt lat="43.4667492" lon="6.8224278"><ele></ele><time>2022-5-30T19:52:32Z</time></trkpt>
<trkpt lat="43.4667492" lon="6.8224278"><ele></ele><time>2022-5-30T19:52:35Z</time></trkpt>
<trkpt lat="43.4667492" lon="6.8224278"><ele></ele><time>2022-5-30T19:52:38Z</time></trkpt>
<trkpt lat="43.4667628" lon="6.8224264"><ele></ele><time>2022-5-30T19:52:41Z</time></trkpt>
<trkpt lat="43.4667785" lon="6.8224096"><ele></ele><time>2022-5-30T19:52:44Z</time></trkpt>
<trkpt lat="43.4668080" lon="6.8223818"><ele></ele><time>2022-5-30T19:52:47Z</time></trkpt>
<trkpt lat="43.4668245" lon="6.8223533"><ele></ele><time>2022-5-30T19:52:50Z</time></trkpt>
<trkpt lat="43.4668351" lon="6.8223269"><ele></ele><time>2022-5-30T19:52:53Z</time></trkpt>
<trkpt lat="43.4668463" lon="6.8222942"><ele></ele><time>2022-5-30T19:52:56Z</time></trkpt>
<trkpt lat="43.4668609" lon="6.8222484"><ele></ele><time>2022-5-30T19:52:59Z</time></trkpt>
<trkpt lat="43.4668775" lon="6.8221910"><ele></ele><time>2022-5-30T19:53:2Z</time></trkpt>
<trkpt lat="43.4668961" lon="6.8221492"><ele></ele><time>2022-5-30T19:53:5Z</time></trkpt>
<trkpt lat="43.4669263" lon="6.8221262"><ele></ele><time>2022-5-30T19:53:8Z</time></trkpt>
<trkpt lat="43.4669537" lon="6.8221108"><ele></ele><time>2022-5-30T19:53:11Z</time></trkpt>
<trkpt lat="43.4669761" lon="6.8221041"><ele></ele><time>2022-5-30T19:53:14Z</time></trkpt>
<trkpt lat="43.4669912" lon="6.8220999"><ele></ele><time>2022-5-30T19:53:17Z</time></trkpt>
<trkpt lat="43.4670124" lon="6.8220913"><ele></ele><time>2022-5-30T19:53:20Z</time></trkpt>
<trkpt lat="43.4670347" lon="6.8220824"><ele></ele><time>2022-5-30T19:53:23Z</time></trkpt>
<trkpt lat="43.4670647" lon="6.8220441"><ele></ele><time>2022-5-30T19:53:26Z</time></trkpt>
<trkpt lat="43.4670892" lon="6.8219870"><ele></ele><time>2022-5-30T19:53:29Z</time></trkpt>
<trkpt lat="43.4671197" lon="6.8219354"><ele></ele><time>2022-5-30T19:53:32Z</time></trkpt>
<trkpt lat="43.4671542" lon="6.8218909"><ele></ele><time>2022-5-30T19:53:35Z</time></trkpt>
<trkpt lat="43.4671716" lon="6.8218466"><ele></ele><time>2022-5-30T19:53:38Z</time></trkpt>
<trkpt lat="43.4671996" lon="6.8218050"><ele></ele><time>2022-5-30T19:53:41Z</time></trkpt>
<trkpt lat="43.4672358" lon="6.8217749"><ele></ele><time>2022-5-30T19:53:44Z</time></trkpt>
<trkpt lat="43.4672545" lon="6.8217449"><ele></ele><time>2022-5-30T19:53:47Z</time></trkpt>
<trkpt lat="43.4672648" lon="6.8217031"><ele></ele><time>2022-5-30T19:53:50Z</time></trkpt>
<trkpt lat="43.4672821" lon="6.8216690"><ele></ele><time>2022-5-30T19:53:53Z</time></trkpt>
<trkpt lat="43.4673004" lon="6.8216340"><ele></ele><time>2022-5-30T19:53:56Z</time></trkpt>
<trkpt lat="43.4672969" lon="6.8215928"><ele></ele><time>2022-5-30T19:53:59Z</time></trkpt>
<trkpt lat="43.4673092" lon="6.8215327"><ele></ele><time>2022-5-30T19:54:2Z</time></trkpt>
<trkpt lat="43.4673236" lon="6.8214773"><ele></ele><time>2022-5-30T19:54:5Z</time></trkpt>
<trkpt lat="43.4673393" lon="6.8214257"><ele></ele><time>2022-5-30T19:54:8Z</time></trkpt>
<trkpt lat="43.4673566" lon="6.8213747"><ele></ele><time>2022-5-30T19:54:11Z</time></trkpt>
<trkpt lat="43.4673770" lon="6.8213239"><ele></ele><time>2022-5-30T19:54:14Z</time></trkpt>
<trkpt lat="43.4673902" lon="6.8212809"><ele></ele><time>2022-5-30T19:54:17Z</time></trkpt>
<trkpt lat="43.4674013" lon="6.8212499"><ele></ele><time>2022-5-30T19:54:20Z</time></trkpt>
<trkpt lat="43.4674082" lon="6.8212232"><ele></ele><time>2022-5-30T19:54:23Z</time></trkpt>
<trkpt lat="43.4674145" lon="6.8211984"><ele></ele><time>2022-5-30T19:54:26Z</time></trkpt>
<trkpt lat="43.4674251" lon="6.8211679"><ele></ele><time>2022-5-30T19:54:29Z</time></trkpt>
<trkpt lat="43.4674242" lon="6.8211310"><ele></ele><time>2022-5-30T19:54:32Z</time></trkpt>
<trkpt lat="43.4674279" lon="6.8210946"><ele></ele><time>2022-5-30T19:54:35Z</time></trkpt>
<trkpt lat="43.4674328" lon="6.8210597"><ele></ele><time>2022-5-30T19:54:38Z</time></trkpt>
<trkpt lat="43.4674390" lon="6.8210268"><ele></ele><time>2022-5-30T19:54:41Z</time></trkpt>
<trkpt lat="43.4674528" lon="6.8209957"><ele></ele><time>2022-5-30T19:54:44Z</time></trkpt>
<trkpt lat="43.4674688" lon="6.8209600"><ele></ele><time>2022-5-30T19:54:47Z</time></trkpt>
<trkpt lat="43.4674861" lon="6.8209247"><ele></ele><time>2022-5-30T19:54:50Z</time></trkpt>
<trkpt lat="43.4675071" lon="6.8208951"><ele></ele><time>2022-5-30T19:54:53Z</time></trkpt>
<trkpt lat="43.4675256" lon="6.8208678"><ele></ele><time>2022-5-30T19:54:56Z</time></trkpt>
<trkpt lat="43.4675415" lon="6.8208447"><ele></ele><time>2022-5-30T19:54:59Z</time></trkpt>
<trkpt lat="43.4675530" lon="6.8208165"><ele></ele><time>2022-5-30T19:55:2Z</time></trkpt>
<trkpt lat="43.4675590" lon="6.8207828"><ele></ele><time>2022-5-30T19:55:5Z</time></trkpt>
<trkpt lat="43.4675662" lon="6.8207466"><ele></ele><time>2022-5-30T19:55:8Z</time></trkpt>
<trkpt lat="43.4675713" lon="6.8207105"><ele></ele><time>2022-5-30T19:55:11Z</time></trkpt>
<trkpt lat="43.4675714" lon="6.8206626"><ele></ele><time>2022-5-30T19:55:14Z</time></trkpt>
<trkpt lat="43.4675752" lon="6.8206115"><ele></ele><time>2022-5-30T19:55:17Z</time></trkpt>
<trkpt lat="43.4675819" lon="6.8205684"><ele></ele><time>2022-5-30T19:55:20Z</time></trkpt>
<trkpt lat="43.4675940" lon="6.8205293"><ele></ele><time>2022-5-30T19:55:23Z</time></trkpt>
<trkpt lat="43.4676029" lon="6.8205153"><ele></ele><time>2022-5-30T19:55:26Z</time></trkpt>
<trkpt lat="43.4676010" lon="6.8205211"><ele></ele><time>2022-5-30T19:55:29Z</time></trkpt>
<trkpt lat="43.4676024" lon="6.8205191"><ele></ele><time>2022-5-30T19:55:32Z</time></trkpt>
<trkpt lat="43.4676040" lon="6.8205160"><ele></ele><time>2022-5-30T19:55:35Z</time></trkpt>
<trkpt lat="43.4676147" lon="6.8204990"><ele></ele><time>2022-5-30T19:55:38Z</time></trkpt>
<trkpt lat="43.4676252" lon="6.8204709"><ele></ele><time>2022-5-30T19:55:41Z</time></trkpt>
<trkpt lat="43.4676435" lon="6.8204387"><ele></ele><time>2022-5-30T19:55:44Z</time></trkpt>
<trkpt lat="43.4676649" lon="6.8204104"><ele></ele><time>2022-5-30T19:55:47Z</time></trkpt>
<trkpt lat="43.4676846" lon="6.8203752"><ele></ele><time>2022-5-30T19:55:50Z</time></trkpt>
<trkpt lat="43.4677165" lon="6.8203395"><ele></ele><time>2022-5-30T19:55:53Z</time></trkpt>
<trkpt lat="43.4677508" lon="6.8203088"><ele></ele><time>2022-5-30T19:55:56Z</time></trkpt>
<trkpt lat="43.4677790" lon="6.8202847"><ele></ele><time>2022-5-30T19:55:59Z</time></trkpt>
<trkpt lat="43.4678048" lon="6.8202621"><ele></ele><time>2022-5-30T19:56:2Z</time></trkpt>
<trkpt lat="43.4678313" lon="6.8202379"><ele></ele><time>2022-5-30T19:56:5Z</time></trkpt>
<trkpt lat="43.4678545" lon="6.8202221"><ele></ele><time>2022-5-30T19:56:8Z</time></trkpt>
<trkpt lat="43.4678725" lon="6.8202117"><ele></ele><time>2022-5-30T19:56:11Z</time></trkpt>
<trkpt lat="43.4678898" lon="6.8202105"><ele></ele><time>2022-5-30T19:56:14Z</time></trkpt>
<trkpt lat="43.4679118" lon="6.8202169"><ele></ele><time>2022-5-30T19:56:17Z</time></trkpt>
<trkpt lat="43.4679387" lon="6.8202071"><ele></ele><time>2022-5-30T19:56:20Z</time></trkpt>
<trkpt lat="43.4679689" lon="6.8202067"><ele></ele><time>2022-5-30T19:56:23Z</time></trkpt>
<trkpt lat="43.4679991" lon="6.8202219"><ele></ele><time>2022-5-30T19:56:26Z</time></trkpt>
<trkpt lat="43.4680316" lon="6.8202447"><ele></ele><time>2022-5-30T19:56:29Z</time></trkpt>
<trkpt lat="43.4680634" lon="6.8202662"><ele></ele><time>2022-5-30T19:56:32Z</time></trkpt>
<trkpt lat="43.4680981" lon="6.8202870"><ele></ele><time>2022-5-30T19:56:35Z</time></trkpt>
<trkpt lat="43.4681346" lon="6.8203068"><ele></ele><time>2022-5-30T19:56:38Z</time></trkpt>
<trkpt lat="43.4681753" lon="6.8203321"><ele></ele><time>2022-5-30T19:56:41Z</time></trkpt>
<trkpt lat="43.4682157" lon="6.8203685"><ele></ele><time>2022-5-30T19:56:44Z</time></trkpt>
<trkpt lat="43.4682529" lon="6.8204098"><ele></ele><time>2022-5-30T19:56:47Z</time></trkpt>
<trkpt lat="43.4682802" lon="6.8204696"><ele></ele><time>2022-5-30T19:56:50Z</time></trkpt>
<trkpt lat="43.4683049" lon="6.8205250"><ele></ele><time>2022-5-30T19:56:53Z</time></trkpt>
<trkpt lat="43.4683285" lon="6.8205775"><ele></ele><time>2022-5-30T19:56:56Z</time></trkpt>
<trkpt lat="43.4683520" lon="6.8206271"><ele></ele><time>2022-5-30T19:56:59Z</time></trkpt>
<trkpt lat="43.4683768" lon="6.8206769"><ele></ele><time>2022-5-30T19:57:2Z</time></trkpt>
<trkpt lat="43.4684028" lon="6.8207236"><ele></ele><time>2022-5-30T19:57:5Z</time></trkpt>
<trkpt lat="43.4684311" lon="6.8207643"><ele></ele><time>2022-5-30T19:57:8Z</time></trkpt>
<trkpt lat="43.4684594" lon="6.8208057"><ele></ele><time>2022-5-30T19:57:11Z</time></trkpt>
<trkpt lat="43.4684938" lon="6.8208357"><ele></ele><time>2022-5-30T19:57:14Z</time></trkpt>
<trkpt lat="43.4685312" lon="6.8208606"><ele></ele><time>2022-5-30T19:57:17Z</time></trkpt>
<trkpt lat="43.4685690" lon="6.8208811"><ele></ele><time>2022-5-30T19:57:20Z</time></trkpt>
<trkpt lat="43.4686078" lon="6.8208981"><ele></ele><time>2022-5-30T19:57:23Z</time></trkpt>
<trkpt lat="43.4686453" lon="6.8209157"><ele></ele><time>2022-5-30T19:57:26Z</time></trkpt>
<trkpt lat="43.4686837" lon="6.8209339"><ele></ele><time>2022-5-30T19:57:29Z</time></trkpt>
<trkpt lat="43.4687203" lon="6.8209513"><ele></ele><time>2022-5-30T19:57:32Z</time></trkpt>
<trkpt lat="43.4687569" lon="6.8209530"><ele></ele><time>2022-5-30T19:57:35Z</time></trkpt>
<trkpt lat="43.4687894" lon="6.8209414"><ele></ele><time>2022-5-30T19:57:38Z</time></trkpt>
<trkpt lat="43.4688214" lon="6.8209282"><ele></ele><time>2022-5-30T19:57:41Z</time></trkpt>
<trkpt lat="43.4688507" lon="6.8209188"><ele></ele><time>2022-5-30T19:57:44Z</time></trkpt>
<trkpt lat="43.4688743" lon="6.8209107"><ele></ele><time>2022-5-30T19:57:47Z</time></trkpt>
<trkpt lat="43.4688940" lon="6.8208945"><ele></ele><time>2022-5-30T19:57:50Z</time></trkpt>
<trkpt lat="43.4689176" lon="6.8208751"><ele></ele><time>2022-5-30T19:57:53Z</time></trkpt>
<trkpt lat="43.4689453" lon="6.8208581"><ele></ele><time>2022-5-30T19:57:56Z</time></trkpt>
<trkpt lat="43.4689684" lon="6.8208331"><ele></ele><time>2022-5-30T19:57:59Z</time></trkpt>
<trkpt lat="43.4689917" lon="6.8208050"><ele></ele><time>2022-5-30T19:58:2Z</time></trkpt>
<trkpt lat="43.4690139" lon="6.8207752"><ele></ele><time>2022-5-30T19:58:5Z</time></trkpt>
<trkpt lat="43.4690287" lon="6.8207422"><ele></ele><time>2022-5-30T19:58:8Z</time></trkpt>
<trkpt lat="43.4690403" lon="6.8207069"><ele></ele><time>2022-5-30T19:58:11Z</time></trkpt>
<trkpt lat="43.4690523" lon="6.8206718"><ele></ele><time>2022-5-30T19:58:14Z</time></trkpt>
<trkpt lat="43.4690663" lon="6.8206348"><ele></ele><time>2022-5-30T19:58:17Z</time></trkpt>
<trkpt lat="43.4690828" lon="6.8205980"><ele></ele><time>2022-5-30T19:58:20Z</time></trkpt>
<trkpt lat="43.4690991" lon="6.8205598"><ele></ele><time>2022-5-30T19:58:23Z</time></trkpt>
<trkpt lat="43.4691153" lon="6.8205211"><ele></ele><time>2022-5-30T19:58:26Z</time></trkpt>
<trkpt lat="43.4691331" lon="6.8204864"><ele></ele><time>2022-5-30T19:58:29Z</time></trkpt>
<trkpt lat="43.4691549" lon="6.8204555"><ele></ele><time>2022-5-30T19:58:32Z</time></trkpt>
<trkpt lat="43.4691759" lon="6.8204186"><ele></ele><time>2022-5-30T19:58:35Z</time></trkpt>
<trkpt lat="43.4691975" lon="6.8203856"><ele></ele><time>2022-5-30T19:58:38Z</time></trkpt>
<trkpt lat="43.4692283" lon="6.8203716"><ele></ele><time>2022-5-30T19:58:41Z</time></trkpt>
<trkpt lat="43.4692591" lon="6.8203548"><ele></ele><time>2022-5-30T19:58:44Z</time></trkpt>
<trkpt lat="43.4692931" lon="6.8203311"><ele></ele><time>2022-5-30T19:58:47Z</time></trkpt>
<trkpt lat="43.4693247" lon="6.8203086"><ele></ele><time>2022-5-30T19:58:50Z</time></trkpt>
<trkpt lat="43.4693570" lon="6.8202920"><ele></ele><time>2022-5-30T19:58:53Z</time></trkpt>
<trkpt lat="43.4693902" lon="6.8202803"><ele></ele><time>2022-5-30T19:58:56Z</time></trkpt>
<trkpt lat="43.4694276" lon="6.8202698"><ele></ele><time>2022-5-30T19:58:59Z</time></trkpt>
<trkpt lat="43.4694651" lon="6.8202616"><ele></ele><time>2022-5-30T19:59:2Z</time></trkpt>
<trkpt lat="43.4694990" lon="6.8202652"><ele></ele><time>2022-5-30T19:59:5Z</time></trkpt>
<trkpt lat="43.4695335" lon="6.8202686"><ele></ele><time>2022-5-30T19:59:8Z</time></trkpt>
<trkpt lat="43.4695670" lon="6.8202715"><ele></ele><time>2022-5-30T19:59:11Z</time></trkpt>
<trkpt lat="43.4696015" lon="6.8202722"><ele></ele><time>2022-5-30T19:59:14Z</time></trkpt>
<trkpt lat="43.4696327" lon="6.8202740"><ele></ele><time>2022-5-30T19:59:17Z</time></trkpt>
<trkpt lat="43.4696706" lon="6.8202728"><ele></ele><time>2022-5-30T19:59:20Z</time></trkpt>
<trkpt lat="43.4697041" lon="6.8202731"><ele></ele><time>2022-5-30T19:59:23Z</time></trkpt>
<trkpt lat="43.4697416" lon="6.8202752"><ele></ele><time>2022-5-30T19:59:26Z</time></trkpt>
<trkpt lat="43.4697769" lon="6.8202748"><ele></ele><time>2022-5-30T19:59:29Z</time></trkpt>
<trkpt lat="43.4698135" lon="6.8202834"><ele></ele><time>2022-5-30T19:59:32Z</time></trkpt>
<trkpt lat="43.4698458" lon="6.8203097"><ele></ele><time>2022-5-30T19:59:35Z</time></trkpt>
<trkpt lat="43.4698767" lon="6.8203380"><ele></ele><time>2022-5-30T19:59:38Z</time></trkpt>
<trkpt lat="43.4699074" lon="6.8203692"><ele></ele><time>2022-5-30T19:59:41Z</time></trkpt>
<trkpt lat="43.4699383" lon="6.8204012"><ele></ele><time>2022-5-30T19:59:44Z</time></trkpt>
<trkpt lat="43.4699742" lon="6.8204419"><ele></ele><time>2022-5-30T19:59:47Z</time></trkpt>
<trkpt lat="43.4700014" lon="6.8204911"><ele></ele><time>2022-5-30T19:59:50Z</time></trkpt>
<trkpt lat="43.4700246" lon="6.8205382"><ele></ele><time>2022-5-30T19:59:53Z</time></trkpt>
<trkpt lat="43.4700474" lon="6.8205853"><ele></ele><time>2022-5-30T19:59:56Z</time></trkpt>
<trkpt lat="43.4700701" lon="6.8206324"><ele></ele><time>2022-5-30T19:59:59Z</time></trkpt>
<trkpt lat="43.4700892" lon="6.8206829"><ele></ele><time>2022-5-30T20:0:2Z</time></trkpt>
<trkpt lat="43.4701084" lon="6.8207300"><ele></ele><time>2022-5-30T20:0:5Z</time></trkpt>
<trkpt lat="43.4701277" lon="6.8207789"><ele></ele><time>2022-5-30T20:0:8Z</time></trkpt>
<trkpt lat="43.4701478" lon="6.8208285"><ele></ele><time>2022-5-30T20:0:11Z</time></trkpt>
<trkpt lat="43.4701676" lon="6.8208750"><ele></ele><time>2022-5-30T20:0:14Z</time></trkpt>
<trkpt lat="43.4701876" lon="6.8209213"><ele></ele><time>2022-5-30T20:0:17Z</time></trkpt>
<trkpt lat="43.4702105" lon="6.8209613"><ele></ele><time>2022-5-30T20:0:20Z</time></trkpt>
<trkpt lat="43.4702326" lon="6.8210006"><ele></ele><time>2022-5-30T20:0:23Z</time></trkpt>
<trkpt lat="43.4702548" lon="6.8210393"><ele></ele><time>2022-5-30T20:0:26Z</time></trkpt>
<trkpt lat="43.4702782" lon="6.8210741"><ele></ele><time>2022-5-30T20:0:29Z</time></trkpt>
<trkpt lat="43.4703027" lon="6.8211120"><ele></ele><time>2022-5-30T20:0:32Z</time></trkpt>
<trkpt lat="43.4703244" lon="6.8211464"><ele></ele><time>2022-5-30T20:0:35Z</time></trkpt>
<trkpt lat="43.4703489" lon="6.8211844"><ele></ele><time>2022-5-30T20:0:38Z</time></trkpt>
<trkpt lat="43.4703736" lon="6.8212238"><ele></ele><time>2022-5-30T20:0:41Z</time></trkpt>
<trkpt lat="43.4703983" lon="6.8212642"><ele></ele><time>2022-5-30T20:0:44Z</time></trkpt>
<trkpt lat="43.4704215" lon="6.8213057"><ele></ele><time>2022-5-30T20:0:47Z</time></trkpt>
<trkpt lat="43.4704443" lon="6.8213474"><ele></ele><time>2022-5-30T20:0:50Z</time></trkpt>
<trkpt lat="43.4704683" lon="6.8213954"><ele></ele><time>2022-5-30T20:0:53Z</time></trkpt>
<trkpt lat="43.4704935" lon="6.8214430"><ele></ele><time>2022-5-30T20:0:56Z</time></trkpt>
<trkpt lat="43.4705211" lon="6.8214830"><ele></ele><time>2022-5-30T20:0:59Z</time></trkpt>
<trkpt lat="43.4705487" lon="6.8215193"><ele></ele><time>2022-5-30T20:1:2Z</time></trkpt>
<trkpt lat="43.4705765" lon="6.8215583"><ele></ele><time>2022-5-30T20:1:5Z</time></trkpt>
<trkpt lat="43.4706039" lon="6.8215978"><ele></ele><time>2022-5-30T20:1:8Z</time></trkpt>
<trkpt lat="43.4706279" lon="6.8216386"><ele></ele><time>2022-5-30T20:1:11Z</time></trkpt>
<trkpt lat="43.4706518" lon="6.8216829"><ele></ele><time>2022-5-30T20:1:14Z</time></trkpt>
<trkpt lat="43.4706714" lon="6.8217328"><ele></ele><time>2022-5-30T20:1:17Z</time></trkpt>
<trkpt lat="43.4706912" lon="6.8217830"><ele></ele><time>2022-5-30T20:1:20Z</time></trkpt>
<trkpt lat="43.4707102" lon="6.8218349"><ele></ele><time>2022-5-30T20:1:23Z</time></trkpt>
<trkpt lat="43.4707276" lon="6.8218880"><ele></ele><time>2022-5-30T20:1:26Z</time></trkpt>
<trkpt lat="43.4707421" lon="6.8219403"><ele></ele><time>2022-5-30T20:1:29Z</time></trkpt>
<trkpt lat="43.4707574" lon="6.8219914"><ele></ele><time>2022-5-30T20:1:32Z</time></trkpt>
<trkpt lat="43.4707744" lon="6.8220409"><ele></ele><time>2022-5-30T20:1:35Z</time></trkpt>
<trkpt lat="43.4707896" lon="6.8220843"><ele></ele><time>2022-5-30T20:1:38Z</time></trkpt>
<trkpt lat="43.4708057" lon="6.8221280"><ele></ele><time>2022-5-30T20:1:41Z</time></trkpt>
<trkpt lat="43.4708309" lon="6.8221698"><ele></ele><time>2022-5-30T20:1:44Z</time></trkpt>
<trkpt lat="43.4708568" lon="6.8222093"><ele></ele><time>2022-5-30T20:1:47Z</time></trkpt>
<trkpt lat="43.4708863" lon="6.8222380"><ele></ele><time>2022-5-30T20:1:50Z</time></trkpt>
<trkpt lat="43.4709129" lon="6.8222632"><ele></ele><time>2022-5-30T20:1:53Z</time></trkpt>
<trkpt lat="43.4709401" lon="6.8222924"><ele></ele><time>2022-5-30T20:1:56Z</time></trkpt>
<trkpt lat="43.4709693" lon="6.8223235"><ele></ele><time>2022-5-30T20:1:59Z</time></trkpt>
<trkpt lat="43.4710016" lon="6.8223570"><ele></ele><time>2022-5-30T20:2:2Z</time></trkpt>
<trkpt lat="43.4710328" lon="6.8223889"><ele></ele><time>2022-5-30T20:2:5Z</time></trkpt>
<trkpt lat="43.4710683" lon="6.8224211"><ele></ele><time>2022-5-30T20:2:8Z</time></trkpt>
<trkpt lat="43.4711034" lon="6.8224530"><ele></ele><time>2022-5-30T20:2:11Z</time></trkpt>
<trkpt lat="43.4711405" lon="6.8224872"><ele></ele><time>2022-5-30T20:2:14Z</time></trkpt>
<trkpt lat="43.4711822" lon="6.8225347"><ele></ele><time>2022-5-30T20:2:17Z</time></trkpt>
<trkpt lat="43.4712218" lon="6.8225797"><ele></ele><time>2022-5-30T20:2:20Z</time></trkpt>
<trkpt lat="43.4712644" lon="6.8226230"><ele></ele><time>2022-5-30T20:2:23Z</time></trkpt>
<trkpt lat="43.4713102" lon="6.8226625"><ele></ele><time>2022-5-30T20:2:26Z</time></trkpt>
<trkpt lat="43.4713641" lon="6.8226979"><ele></ele><time>2022-5-30T20:2:29Z</time></trkpt>
<trkpt lat="43.4714097" lon="6.8227355"><ele></ele><time>2022-5-30T20:2:32Z</time></trkpt>
<trkpt lat="43.4714536" lon="6.8227782"><ele></ele><time>2022-5-30T20:2:35Z</time></trkpt>
<trkpt lat="43.4715024" lon="6.8228202"><ele></ele><time>2022-5-30T20:2:38Z</time></trkpt>
<trkpt lat="43.4715526" lon="6.8228498"><ele></ele><time>2022-5-30T20:2:41Z</time></trkpt>
<trkpt lat="43.4716106" lon="6.8228683"><ele></ele><time>2022-5-30T20:2:44Z</time></trkpt>
<trkpt lat="43.4716721" lon="6.8228623"><ele></ele><time>2022-5-30T20:2:47Z</time></trkpt>
<trkpt lat="43.4717259" lon="6.8228318"><ele></ele><time>2022-5-30T20:2:50Z</time></trkpt>
<trkpt lat="43.4717759" lon="6.8227961"><ele></ele><time>2022-5-30T20:2:53Z</time></trkpt>
<trkpt lat="43.4718292" lon="6.8227513"><ele></ele><time>2022-5-30T20:2:56Z</time></trkpt>
<trkpt lat="43.4718795" lon="6.8227027"><ele></ele><time>2022-5-30T20:2:59Z</time></trkpt>
<trkpt lat="43.4719375" lon="6.8226583"><ele></ele><time>2022-5-30T20:3:2Z</time></trkpt>
<trkpt lat="43.4719951" lon="6.8226098"><ele></ele><time>2022-5-30T20:3:5Z</time></trkpt>
<trkpt lat="43.4720522" lon="6.8225557"><ele></ele><time>2022-5-30T20:3:8Z</time></trkpt>
<trkpt lat="43.4721096" lon="6.8225003"><ele></ele><time>2022-5-30T20:3:11Z</time></trkpt>
<trkpt lat="43.4721655" lon="6.8224426"><ele></ele><time>2022-5-30T20:3:14Z</time></trkpt>
<trkpt lat="43.4722216" lon="6.8223827"><ele></ele><time>2022-5-30T20:3:17Z</time></trkpt>
<trkpt lat="43.4722740" lon="6.8223234"><ele></ele><time>2022-5-30T20:3:20Z</time></trkpt>
<trkpt lat="43.4723208" lon="6.8222605"><ele></ele><time>2022-5-30T20:3:23Z</time></trkpt>
<trkpt lat="43.4723678" lon="6.8221881"><ele></ele><time>2022-5-30T20:3:26Z</time></trkpt>
<trkpt lat="43.4724135" lon="6.8221128"><ele></ele><time>2022-5-30T20:3:29Z</time></trkpt>
<trkpt lat="43.4724538" lon="6.8220349"><ele></ele><time>2022-5-30T20:3:32Z</time></trkpt>
<trkpt lat="43.4724934" lon="6.8219533"><ele></ele><time>2022-5-30T20:3:35Z</time></trkpt>
<trkpt lat="43.4725326" lon="6.8218704"><ele></ele><time>2022-5-30T20:3:38Z</time></trkpt>
<trkpt lat="43.4725705" lon="6.8217872"><ele></ele><time>2022-5-30T20:3:41Z</time></trkpt>
<trkpt lat="43.4726062" lon="6.8217029"><ele></ele><time>2022-5-30T20:3:44Z</time></trkpt>
<trkpt lat="43.4726405" lon="6.8216218"><ele></ele><time>2022-5-30T20:3:47Z</time></trkpt>
<trkpt lat="43.4726803" lon="6.8215411"><ele></ele><time>2022-5-30T20:3:50Z</time></trkpt>
<trkpt lat="43.4727205" lon="6.8214584"><ele></ele><time>2022-5-30T20:3:53Z</time></trkpt>
<trkpt lat="43.4727647" lon="6.8213784"><ele></ele><time>2022-5-30T20:3:56Z</time></trkpt>
<trkpt lat="43.4728058" lon="6.8212946"><ele></ele><time>2022-5-30T20:3:59Z</time></trkpt>
<trkpt lat="43.4728445" lon="6.8212067"><ele></ele><time>2022-5-30T20:4:2Z</time></trkpt>
<trkpt lat="43.4728829" lon="6.8211208"><ele></ele><time>2022-5-30T20:4:5Z</time></trkpt>
<trkpt lat="43.4729177" lon="6.8210346"><ele></ele><time>2022-5-30T20:4:8Z</time></trkpt>
<trkpt lat="43.4729596" lon="6.8209533"><ele></ele><time>2022-5-30T20:4:11Z</time></trkpt>
<trkpt lat="43.4729989" lon="6.8208722"><ele></ele><time>2022-5-30T20:4:14Z</time></trkpt>
<trkpt lat="43.4730404" lon="6.8207934"><ele></ele><time>2022-5-30T20:4:17Z</time></trkpt>
<trkpt lat="43.4730862" lon="6.8207188"><ele></ele><time>2022-5-30T20:4:20Z</time></trkpt>
<trkpt lat="43.4731293" lon="6.8206380"><ele></ele><time>2022-5-30T20:4:23Z</time></trkpt>
<trkpt lat="43.4731718" lon="6.8205561"><ele></ele><time>2022-5-30T20:4:26Z</time></trkpt>
<trkpt lat="43.4732173" lon="6.8204781"><ele></ele><time>2022-5-30T20:4:29Z</time></trkpt>
<trkpt lat="43.4732653" lon="6.8204036"><ele></ele><time>2022-5-30T20:4:32Z</time></trkpt>
<trkpt lat="43.4733082" lon="6.8203238"><ele></ele><time>2022-5-30T20:4:35Z</time></trkpt>
<trkpt lat="43.4733502" lon="6.8202443"><ele></ele><time>2022-5-30T20:4:38Z</time></trkpt>
<trkpt lat="43.4733945" lon="6.8201677"><ele></ele><time>2022-5-30T20:4:41Z</time></trkpt>
<trkpt lat="43.4734339" lon="6.8200824"><ele></ele><time>2022-5-30T20:4:44Z</time></trkpt>
<trkpt lat="43.4734736" lon="6.8199958"><ele></ele><time>2022-5-30T20:4:47Z</time></trkpt>
<trkpt lat="43.4735001" lon="6.8199038"><ele></ele><time>2022-5-30T20:4:50Z</time></trkpt>
<trkpt lat="43.4735301" lon="6.8198133"><ele></ele><time>2022-5-30T20:4:53Z</time></trkpt>
<trkpt lat="43.4735401" lon="6.8197161"><ele></ele><time>2022-5-30T20:4:56Z</time></trkpt>
<trkpt lat="43.4735614" lon="6.8196166"><ele></ele><time>2022-5-30T20:4:59Z</time></trkpt>
<trkpt lat="43.4735739" lon="6.8195121"><ele></ele><time>2022-5-30T20:5:2Z</time></trkpt>
<trkpt lat="43.4735682" lon="6.8194090"><ele></ele><time>2022-5-30T20:5:5Z</time></trkpt>
<trkpt lat="43.4735628" lon="6.8193079"><ele></ele><time>2022-5-30T20:5:8Z</time></trkpt>
<trkpt lat="43.4735651" lon="6.8192062"><ele></ele><time>2022-5-30T20:5:11Z</time></trkpt>
<trkpt lat="43.4735797" lon="6.8191064"><ele></ele><time>2022-5-30T20:5:14Z</time></trkpt>
<trkpt lat="43.4735894" lon="6.8190084"><ele></ele><time>2022-5-30T20:5:17Z</time></trkpt>
<trkpt lat="43.4735973" lon="6.8189081"><ele></ele><time>2022-5-30T20:5:20Z</time></trkpt>
<trkpt lat="43.4736133" lon="6.8188072"><ele></ele><time>2022-5-30T20:5:23Z</time></trkpt>
<trkpt lat="43.4736248" lon="6.8187064"><ele></ele><time>2022-5-30T20:5:26Z</time></trkpt>
<trkpt lat="43.4736445" lon="6.8186097"><ele></ele><time>2022-5-30T20:5:29Z</time></trkpt>
<trkpt lat="43.4736671" lon="6.8185142"><ele></ele><time>2022-5-30T20:5:32Z</time></trkpt>
<trkpt lat="43.4736855" lon="6.8184239"><ele></ele><time>2022-5-30T20:5:35Z</time></trkpt>
<trkpt lat="43.4736960" lon="6.8183491"><ele></ele><time>2022-5-30T20:5:38Z</time></trkpt>
<trkpt lat="43.4737106" lon="6.8182923"><ele></ele><time>2022-5-30T20:5:41Z</time></trkpt>
<trkpt lat="43.4737388" lon="6.8182528"><ele></ele><time>2022-5-30T20:5:44Z</time></trkpt>
<trkpt lat="43.4737840" lon="6.8182302"><ele></ele><time>2022-5-30T20:5:47Z</time></trkpt>
<trkpt lat="43.4738374" lon="6.8182231"><ele></ele><time>2022-5-30T20:5:50Z</time></trkpt>
<trkpt lat="43.4738829" lon="6.8182241"><ele></ele><time>2022-5-30T20:5:53Z</time></trkpt>
<trkpt lat="43.4739221" lon="6.8182391"><ele></ele><time>2022-5-30T20:5:56Z</time></trkpt>
<trkpt lat="43.4739452" lon="6.8182809"><ele></ele><time>2022-5-30T20:5:59Z</time></trkpt>
<trkpt lat="43.4739541" lon="6.8183271"><ele></ele><time>2022-5-30T20:6:2Z</time></trkpt>
<trkpt lat="43.4739513" lon="6.8183730"><ele></ele><time>2022-5-30T20:6:5Z</time></trkpt>
<trkpt lat="43.4739476" lon="6.8184222"><ele></ele><time>2022-5-30T20:6:8Z</time></trkpt>
<trkpt lat="43.4739470" lon="6.8184723"><ele></ele><time>2022-5-30T20:6:11Z</time></trkpt>
<trkpt lat="43.4739441" lon="6.8185188"><ele></ele><time>2022-5-30T20:6:14Z</time></trkpt>
<trkpt lat="43.4739401" lon="6.8185728"><ele></ele><time>2022-5-30T20:6:17Z</time></trkpt>
<trkpt lat="43.4739428" lon="6.8186304"><ele></ele><time>2022-5-30T20:6:20Z</time></trkpt>
<trkpt lat="43.4739486" lon="6.8186863"><ele></ele><time>2022-5-30T20:6:23Z</time></trkpt>
<trkpt lat="43.4739561" lon="6.8187361"><ele></ele><time>2022-5-30T20:6:26Z</time></trkpt>
<trkpt lat="43.4739656" lon="6.8187834"><ele></ele><time>2022-5-30T20:6:29Z</time></trkpt>
<trkpt lat="43.4739763" lon="6.8188301"><ele></ele><time>2022-5-30T20:6:32Z</time></trkpt>
<trkpt lat="43.4739833" lon="6.8188768"><ele></ele><time>2022-5-30T20:6:35Z</time></trkpt>
<trkpt lat="43.4739818" lon="6.8189211"><ele></ele><time>2022-5-30T20:6:38Z</time></trkpt>
<trkpt lat="43.4739802" lon="6.8189690"><ele></ele><time>2022-5-30T20:6:41Z</time></trkpt>
<trkpt lat="43.4739771" lon="6.8190138"><ele></ele><time>2022-5-30T20:6:44Z</time></trkpt>
<trkpt lat="43.4739716" lon="6.8190610"><ele></ele><time>2022-5-30T20:6:47Z</time></trkpt>
<trkpt lat="43.4739684" lon="6.8191160"><ele></ele><time>2022-5-30T20:6:50Z</time></trkpt>
<trkpt lat="43.4739646" lon="6.8191783"><ele></ele><time>2022-5-30T20:6:53Z</time></trkpt>
<trkpt lat="43.4739621" lon="6.8192402"><ele></ele><time>2022-5-30T20:6:56Z</time></trkpt>
<trkpt lat="43.4739606" lon="6.8193005"><ele></ele><time>2022-5-30T20:6:59Z</time></trkpt>
<trkpt lat="43.4739614" lon="6.8193634"><ele></ele><time>2022-5-30T20:7:2Z</time></trkpt>
<trkpt lat="43.4739607" lon="6.8194309"><ele></ele><time>2022-5-30T20:7:5Z</time></trkpt>
<trkpt lat="43.4739630" lon="6.8194990"><ele></ele><time>2022-5-30T20:7:8Z</time></trkpt>
<trkpt lat="43.4739644" lon="6.8195691"><ele></ele><time>2022-5-30T20:7:11Z</time></trkpt>
<trkpt lat="43.4739648" lon="6.8196422"><ele></ele><time>2022-5-30T20:7:14Z</time></trkpt>
<trkpt lat="43.4739618" lon="6.8197176"><ele></ele><time>2022-5-30T20:7:17Z</time></trkpt>
<trkpt lat="43.4739623" lon="6.8197955"><ele></ele><time>2022-5-30T20:7:20Z</time></trkpt>
<trkpt lat="43.4739672" lon="6.8198727"><ele></ele><time>2022-5-30T20:7:23Z</time></trkpt>
<trkpt lat="43.4739738" lon="6.8199495"><ele></ele><time>2022-5-30T20:7:26Z</time></trkpt>
<trkpt lat="43.4739797" lon="6.8200253"><ele></ele><time>2022-5-30T20:7:29Z</time></trkpt>
<trkpt lat="43.4739716" lon="6.8200876"><ele></ele><time>2022-5-30T20:7:32Z</time></trkpt>
<trkpt lat="43.4739572" lon="6.8201468"><ele></ele><time>2022-5-30T20:7:35Z</time></trkpt>
<trkpt lat="43.4739623" lon="6.8202202"><ele></ele><time>2022-5-30T20:7:38Z</time></trkpt>
<trkpt lat="43.4739653" lon="6.8202944"><ele></ele><time>2022-5-30T20:7:41Z</time></trkpt>
<trkpt lat="43.4739621" lon="6.8203709"><ele></ele><time>2022-5-30T20:7:44Z</time></trkpt>
<trkpt lat="43.4739557" lon="6.8204556"><ele></ele><time>2022-5-30T20:7:47Z</time></trkpt>
<trkpt lat="43.4739386" lon="6.8205518"><ele></ele><time>2022-5-30T20:7:50Z</time></trkpt>
<trkpt lat="43.4739277" lon="6.8206399"><ele></ele><time>2022-5-30T20:7:53Z</time></trkpt>
<trkpt lat="43.4739085" lon="6.8207264"><ele></ele><time>2022-5-30T20:7:56Z</time></trkpt>
<trkpt lat="43.4738803" lon="6.8208105"><ele></ele><time>2022-5-30T20:7:59Z</time></trkpt>
<trkpt lat="43.4738523" lon="6.8208986"><ele></ele><time>2022-5-30T20:8:2Z</time></trkpt>
<trkpt lat="43.4738234" lon="6.8209950"><ele></ele><time>2022-5-30T20:8:5Z</time></trkpt>
<trkpt lat="43.4737965" lon="6.8210883"><ele></ele><time>2022-5-30T20:8:8Z</time></trkpt>
<trkpt lat="43.4737885" lon="6.8211804"><ele></ele><time>2022-5-30T20:8:11Z</time></trkpt>
<trkpt lat="43.4737691" lon="6.8212700"><ele></ele><time>2022-5-30T20:8:14Z</time></trkpt>
<trkpt lat="43.4737200" lon="6.8213376"><ele></ele><time>2022-5-30T20:8:17Z</time></trkpt>
<trkpt lat="43.4736651" lon="6.8213943"><ele></ele><time>2022-5-30T20:8:20Z</time></trkpt>
<trkpt lat="43.4736082" lon="6.8214430"><ele></ele><time>2022-5-30T20:8:23Z</time></trkpt>
<trkpt lat="43.4735551" lon="6.8214967"><ele></ele><time>2022-5-30T20:8:26Z</time></trkpt>
<trkpt lat="43.4735062" lon="6.8215535"><ele></ele><time>2022-5-30T20:8:29Z</time></trkpt>
<trkpt lat="43.4734619" lon="6.8216159"><ele></ele><time>2022-5-30T20:8:32Z</time></trkpt>
<trkpt lat="43.4734216" lon="6.8216794"><ele></ele><time>2022-5-30T20:8:35Z</time></trkpt>
<trkpt lat="43.4733861" lon="6.8217466"><ele></ele><time>2022-5-30T20:8:38Z</time></trkpt>
<trkpt lat="43.4733515" lon="6.8218185"><ele></ele><time>2022-5-30T20:8:41Z</time></trkpt>
<trkpt lat="43.4733182" lon="6.8218905"><ele></ele><time>2022-5-30T20:8:44Z</time></trkpt>
<trkpt lat="43.4732884" lon="6.8219624"><ele></ele><time>2022-5-30T20:8:47Z</time></trkpt>
<trkpt lat="43.4732608" lon="6.8220362"><ele></ele><time>2022-5-30T20:8:50Z</time></trkpt>
<trkpt lat="43.4732370" lon="6.8221114"><ele></ele><time>2022-5-30T20:8:53Z</time></trkpt>
<trkpt lat="43.4732185" lon="6.8221876"><ele></ele><time>2022-5-30T20:8:56Z</time></trkpt>
<trkpt lat="43.4732020" lon="6.8222619"><ele></ele><time>2022-5-30T20:8:59Z</time></trkpt>
<trkpt lat="43.4731868" lon="6.8223333"><ele></ele><time>2022-5-30T20:9:2Z</time></trkpt>
<trkpt lat="43.4731694" lon="6.8224041"><ele></ele><time>2022-5-30T20:9:5Z</time></trkpt>
<trkpt lat="43.4731558" lon="6.8224827"><ele></ele><time>2022-5-30T20:9:8Z</time></trkpt>
<trkpt lat="43.4731447" lon="6.8225658"><ele></ele><time>2022-5-30T20:9:11Z</time></trkpt>
<trkpt lat="43.4731331" lon="6.8226447"><ele></ele><time>2022-5-30T20:9:14Z</time></trkpt>
<trkpt lat="43.4731264" lon="6.8227221"><ele></ele><time>2022-5-30T20:9:17Z</time></trkpt>
<trkpt lat="43.4731227" lon="6.8227986"><ele></ele><time>2022-5-30T20:9:20Z</time></trkpt>
<trkpt lat="43.4731187" lon="6.8228752"><ele></ele><time>2022-5-30T20:9:23Z</time></trkpt>
<trkpt lat="43.4731118" lon="6.8229511"><ele></ele><time>2022-5-30T20:9:26Z</time></trkpt>
<trkpt lat="43.4731070" lon="6.8230299"><ele></ele><time>2022-5-30T20:9:29Z</time></trkpt>
<trkpt lat="43.4731035" lon="6.8231121"><ele></ele><time>2022-5-30T20:9:32Z</time></trkpt>
<trkpt lat="43.4730986" lon="6.8231946"><ele></ele><time>2022-5-30T20:9:35Z</time></trkpt>
<trkpt lat="43.4730920" lon="6.8232773"><ele></ele><time>2022-5-30T20:9:38Z</time></trkpt>
<trkpt lat="43.4730876" lon="6.8233577"><ele></ele><time>2022-5-30T20:9:41Z</time></trkpt>
<trkpt lat="43.4730839" lon="6.8234383"><ele></ele><time>2022-5-30T20:9:44Z</time></trkpt>
<trkpt lat="43.4730772" lon="6.8235167"><ele></ele><time>2022-5-30T20:9:47Z</time></trkpt>
<trkpt lat="43.4730701" lon="6.8235984"><ele></ele><time>2022-5-30T20:9:50Z</time></trkpt>
<trkpt lat="43.4730595" lon="6.8236693"><ele></ele><time>2022-5-30T20:9:53Z</time></trkpt>
<trkpt lat="43.4730437" lon="6.8237295"><ele></ele><time>2022-5-30T20:9:56Z</time></trkpt>
<trkpt lat="43.4730290" lon="6.8237822"><ele></ele><time>2022-5-30T20:9:59Z</time></trkpt>
<trkpt lat="43.4730193" lon="6.8238399"><ele></ele><time>2022-5-30T20:10:2Z</time></trkpt>
<trkpt lat="43.4730115" lon="6.8238980"><ele></ele><time>2022-5-30T20:10:5Z</time></trkpt>
<trkpt lat="43.4730032" lon="6.8239525"><ele></ele><time>2022-5-30T20:10:8Z</time></trkpt>
<trkpt lat="43.4729939" lon="6.8240060"><ele></ele><time>2022-5-30T20:10:11Z</time></trkpt>
<trkpt lat="43.4729828" lon="6.8240548"><ele></ele><time>2022-5-30T20:10:14Z</time></trkpt>
<trkpt lat="43.4729719" lon="6.8241048"><ele></ele><time>2022-5-30T20:10:17Z</time></trkpt>
<trkpt lat="43.4729606" lon="6.8241559"><ele></ele><time>2022-5-30T20:10:20Z</time></trkpt>
<trkpt lat="43.4729509" lon="6.8242055"><ele></ele><time>2022-5-30T20:10:23Z</time></trkpt>
<trkpt lat="43.4729406" lon="6.8242562"><ele></ele><time>2022-5-30T20:10:26Z</time></trkpt>
<trkpt lat="43.4729293" lon="6.8243078"><ele></ele><time>2022-5-30T20:10:29Z</time></trkpt>
<trkpt lat="43.4729186" lon="6.8243642"><ele></ele><time>2022-5-30T20:10:32Z</time></trkpt>
<trkpt lat="43.4729125" lon="6.8244283"><ele></ele><time>2022-5-30T20:10:35Z</time></trkpt>
<trkpt lat="43.4729039" lon="6.8244885"><ele></ele><time>2022-5-30T20:10:38Z</time></trkpt>
<trkpt lat="43.4728938" lon="6.8245516"><ele></ele><time>2022-5-30T20:10:41Z</time></trkpt>
<trkpt lat="43.4728777" lon="6.8246144"><ele></ele><time>2022-5-30T20:10:44Z</time></trkpt>
<trkpt lat="43.4728567" lon="6.8246804"><ele></ele><time>2022-5-30T20:10:47Z</time></trkpt>
<trkpt lat="43.4728312" lon="6.8247391"><ele></ele><time>2022-5-30T20:10:50Z</time></trkpt>
<trkpt lat="43.4728075" lon="6.8247954"><ele></ele><time>2022-5-30T20:10:53Z</time></trkpt>
<trkpt lat="43.4727866" lon="6.8248487"><ele></ele><time>2022-5-30T20:10:56Z</time></trkpt>
<trkpt lat="43.4727653" lon="6.8249012"><ele></ele><time>2022-5-30T20:10:59Z</time></trkpt>
<trkpt lat="43.4727414" lon="6.8249516"><ele></ele><time>2022-5-30T20:11:2Z</time></trkpt>
<trkpt lat="43.4727161" lon="6.8250000"><ele></ele><time>2022-5-30T20:11:5Z</time></trkpt>
<trkpt lat="43.4726957" lon="6.8250538"><ele></ele><time>2022-5-30T20:11:8Z</time></trkpt>
<trkpt lat="43.4726807" lon="6.8251060"><ele></ele><time>2022-5-30T20:11:11Z</time></trkpt>
<trkpt lat="43.4726677" lon="6.8251573"><ele></ele><time>2022-5-30T20:11:14Z</time></trkpt>
<trkpt lat="43.4726565" lon="6.8252115"><ele></ele><time>2022-5-30T20:11:17Z</time></trkpt>
<trkpt lat="43.4726437" lon="6.8252626"><ele></ele><time>2022-5-30T20:11:20Z</time></trkpt>
<trkpt lat="43.4726301" lon="6.8253119"><ele></ele><time>2022-5-30T20:11:23Z</time></trkpt>
<trkpt lat="43.4726290" lon="6.8253704"><ele></ele><time>2022-5-30T20:11:26Z</time></trkpt>
<trkpt lat="43.4726306" lon="6.8254292"><ele></ele><time>2022-5-30T20:11:29Z</time></trkpt>
<trkpt lat="43.4726311" lon="6.8254957"><ele></ele><time>2022-5-30T20:11:32Z</time></trkpt>
<trkpt lat="43.4726344" lon="6.8255660"><ele></ele><time>2022-5-30T20:11:35Z</time></trkpt>
<trkpt lat="43.4726370" lon="6.8256388"><ele></ele><time>2022-5-30T20:11:38Z</time></trkpt>
<trkpt lat="43.4726425" lon="6.8257073"><ele></ele><time>2022-5-30T20:11:41Z</time></trkpt>
<trkpt lat="43.4726415" lon="6.8257686"><ele></ele><time>2022-5-30T20:11:44Z</time></trkpt>
<trkpt lat="43.4726409" lon="6.8258318"><ele></ele><time>2022-5-30T20:11:47Z</time></trkpt>
<trkpt lat="43.4726375" lon="6.8258998"><ele></ele><time>2022-5-30T20:11:50Z</time></trkpt>
<trkpt lat="43.4726198" lon="6.8259517"><ele></ele><time>2022-5-30T20:11:53Z</time></trkpt>
<trkpt lat="43.4725949" lon="6.8259910"><ele></ele><time>2022-5-30T20:11:56Z</time></trkpt>
<trkpt lat="43.4725682" lon="6.8260295"><ele></ele><time>2022-5-30T20:11:59Z</time></trkpt>
<trkpt lat="43.4725434" lon="6.8260680"><ele></ele><time>2022-5-30T20:12:2Z</time></trkpt>
<trkpt lat="43.4725193" lon="6.8261060"><ele></ele><time>2022-5-30T20:12:5Z</time></trkpt>
<trkpt lat="43.4724963" lon="6.8261455"><ele></ele><time>2022-5-30T20:12:8Z</time></trkpt>
<trkpt lat="43.4724730" lon="6.8261882"><ele></ele><time>2022-5-30T20:12:11Z</time></trkpt>
<trkpt lat="43.4724604" lon="6.8262340"><ele></ele><time>2022-5-30T20:12:14Z</time></trkpt>
<trkpt lat="43.4724480" lon="6.8262843"><ele></ele><time>2022-5-30T20:12:17Z</time></trkpt>
<trkpt lat="43.4724354" lon="6.8263335"><ele></ele><time>2022-5-30T20:12:20Z</time></trkpt>
<trkpt lat="43.4724225" lon="6.8263786"><ele></ele><time>2022-5-30T20:12:23Z</time></trkpt>
<trkpt lat="43.4724133" lon="6.8264206"><ele></ele><time>2022-5-30T20:12:26Z</time></trkpt>
<trkpt lat="43.4724165" lon="6.8264701"><ele></ele><time>2022-5-30T20:12:29Z</time></trkpt>
<trkpt lat="43.4724148" lon="6.8265189"><ele></ele><time>2022-5-30T20:12:32Z</time></trkpt>
<trkpt lat="43.4724107" lon="6.8265670"><ele></ele><time>2022-5-30T20:12:35Z</time></trkpt>
<trkpt lat="43.4724074" lon="6.8266157"><ele></ele><time>2022-5-30T20:12:38Z</time></trkpt>
<trkpt lat="43.4724043" lon="6.8266686"><ele></ele><time>2022-5-30T20:12:41Z</time></trkpt>
<trkpt lat="43.4724019" lon="6.8267248"><ele></ele><time>2022-5-30T20:12:44Z</time></trkpt>
<trkpt lat="43.4724006" lon="6.8267766"><ele></ele><time>2022-5-30T20:12:47Z</time></trkpt>
<trkpt lat="43.4723983" lon="6.8268313"><ele></ele><time>2022-5-30T20:12:50Z</time></trkpt>
<trkpt lat="43.4723970" lon="6.8268821"><ele></ele><time>2022-5-30T20:12:53Z</time></trkpt>
<trkpt lat="43.4723975" lon="6.8269332"><ele></ele><time>2022-5-30T20:12:56Z</time></trkpt>
<trkpt lat="43.4723976" lon="6.8269818"><ele></ele><time>2022-5-30T20:12:59Z</time></trkpt>
<trkpt lat="43.4723949" lon="6.8270298"><ele></ele><time>2022-5-30T20:13:2Z</time></trkpt>
<trkpt lat="43.4723933" lon="6.8270751"><ele></ele><time>2022-5-30T20:13:5Z</time></trkpt>
<trkpt lat="43.4723900" lon="6.8271249"><ele></ele><time>2022-5-30T20:13:8Z</time></trkpt>
<trkpt lat="43.4723880" lon="6.8271730"><ele></ele><time>2022-5-30T20:13:11Z</time></trkpt>
<trkpt lat="43.4723838" lon="6.8272222"><ele></ele><time>2022-5-30T20:13:14Z</time></trkpt>
<trkpt lat="43.4723800" lon="6.8272729"><ele></ele><time>2022-5-30T20:13:17Z</time></trkpt>
<trkpt lat="43.4723765" lon="6.8273252"><ele></ele><time>2022-5-30T20:13:20Z</time></trkpt>
<trkpt lat="43.4723780" lon="6.8273695"><ele></ele><time>2022-5-30T20:13:23Z</time></trkpt>
<trkpt lat="43.4723760" lon="6.8274144"><ele></ele><time>2022-5-30T20:13:26Z</time></trkpt>
<trkpt lat="43.4723744" lon="6.8274573"><ele></ele><time>2022-5-30T20:13:29Z</time></trkpt>
<trkpt lat="43.4723751" lon="6.8274984"><ele></ele><time>2022-5-30T20:13:32Z</time></trkpt>
<trkpt lat="43.4723780" lon="6.8275390"><ele></ele><time>2022-5-30T20:13:35Z</time></trkpt>
<trkpt lat="43.4723776" lon="6.8275808"><ele></ele><time>2022-5-30T20:13:38Z</time></trkpt>
<trkpt lat="43.4723790" lon="6.8276208"><ele></ele><time>2022-5-30T20:13:41Z</time></trkpt>
<trkpt lat="43.4723775" lon="6.8276593"><ele></ele><time>2022-5-30T20:13:44Z</time></trkpt>
<trkpt lat="43.4723781" lon="6.8276978"><ele></ele><time>2022-5-30T20:13:47Z</time></trkpt>
<trkpt lat="43.4723803" lon="6.8277359"><ele></ele><time>2022-5-30T20:13:50Z</time></trkpt>
<trkpt lat="43.4723827" lon="6.8277752"><ele></ele><time>2022-5-30T20:13:53Z</time></trkpt>
<trkpt lat="43.4723870" lon="6.8278158"><ele></ele><time>2022-5-30T20:13:56Z</time></trkpt>
<trkpt lat="43.4723975" lon="6.8278551"><ele></ele><time>2022-5-30T20:13:59Z</time></trkpt>
<trkpt lat="43.4724088" lon="6.8278953"><ele></ele><time>2022-5-30T20:14:2Z</time></trkpt>
<trkpt lat="43.4724203" lon="6.8279329"><ele></ele><time>2022-5-30T20:14:5Z</time></trkpt>
<trkpt lat="43.4724332" lon="6.8279715"><ele></ele><time>2022-5-30T20:14:8Z</time></trkpt>
<trkpt lat="43.4724467" lon="6.8280166"><ele></ele><time>2022-5-30T20:14:11Z</time></trkpt>
<trkpt lat="43.4724611" lon="6.8280644"><ele></ele><time>2022-5-30T20:14:14Z</time></trkpt>
<trkpt lat="43.4724781" lon="6.8281141"><ele></ele><time>2022-5-30T20:14:17Z</time></trkpt>
<trkpt lat="43.4724922" lon="6.8281613"><ele></ele><time>2022-5-30T20:14:20Z</time></trkpt>
<trkpt lat="43.4725020" lon="6.8282050"><ele></ele><time>2022-5-30T20:14:23Z</time></trkpt>
<trkpt lat="43.4725202" lon="6.8282467"><ele></ele><time>2022-5-30T20:14:26Z</time></trkpt>
<trkpt lat="43.4725355" lon="6.8282904"><ele></ele><time>2022-5-30T20:14:29Z</time></trkpt>
<trkpt lat="43.4725524" lon="6.8283348"><ele></ele><time>2022-5-30T20:14:32Z</time></trkpt>
<trkpt lat="43.4725688" lon="6.8283814"><ele></ele><time>2022-5-30T20:14:35Z</time></trkpt>
<trkpt lat="43.4725844" lon="6.8284253"><ele></ele><time>2022-5-30T20:14:38Z</time></trkpt>
<trkpt lat="43.4726007" lon="6.8284712"><ele></ele><time>2022-5-30T20:14:41Z</time></trkpt>
<trkpt lat="43.4726202" lon="6.8285157"><ele></ele><time>2022-5-30T20:14:44Z</time></trkpt>
<trkpt lat="43.4726418" lon="6.8285595"><ele></ele><time>2022-5-30T20:14:47Z</time></trkpt>
<trkpt lat="43.4726641" lon="6.8286031"><ele></ele><time>2022-5-30T20:14:50Z</time></trkpt>
<trkpt lat="43.4726865" lon="6.8286479"><ele></ele><time>2022-5-30T20:14:53Z</time></trkpt>
<trkpt lat="43.4727107" lon="6.8286930"><ele></ele><time>2022-5-30T20:14:56Z</time></trkpt>
<trkpt lat="43.4727363" lon="6.8287356"><ele></ele><time>2022-5-30T20:14:59Z</time></trkpt>
<trkpt lat="43.4727656" lon="6.8287787"><ele></ele><time>2022-5-30T20:15:2Z</time></trkpt>
<trkpt lat="43.4727998" lon="6.8288144"><ele></ele><time>2022-5-30T20:15:5Z</time></trkpt>
<trkpt lat="43.4728383" lon="6.8288520"><ele></ele><time>2022-5-30T20:15:8Z</time></trkpt>
<trkpt lat="43.4728780" lon="6.8288838"><ele></ele><time>2022-5-30T20:15:11Z</time></trkpt>
<trkpt lat="43.4729208" lon="6.8289069"><ele></ele><time>2022-5-30T20:15:14Z</time></trkpt>
<trkpt lat="43.4729604" lon="6.8289345"><ele></ele><time>2022-5-30T20:15:17Z</time></trkpt>
<trkpt lat="43.4730026" lon="6.8289596"><ele></ele><time>2022-5-30T20:15:20Z</time></trkpt>
<trkpt lat="43.4730444" lon="6.8289865"><ele></ele><time>2022-5-30T20:15:23Z</time></trkpt>
<trkpt lat="43.4730873" lon="6.8290122"><ele></ele><time>2022-5-30T20:15:26Z</time></trkpt>
<trkpt lat="43.4731275" lon="6.8290418"><ele></ele><time>2022-5-30T20:15:29Z</time></trkpt>
<trkpt lat="43.4731650" lon="6.8290721"><ele></ele><time>2022-5-30T20:15:32Z</time></trkpt>
<trkpt lat="43.4732031" lon="6.8291051"><ele></ele><time>2022-5-30T20:15:35Z</time></trkpt>
<trkpt lat="43.4732386" lon="6.8291462"><ele></ele><time>2022-5-30T20:15:38Z</time></trkpt>
<trkpt lat="43.4732651" lon="6.8291963"><ele></ele><time>2022-5-30T20:15:41Z</time></trkpt>
<trkpt lat="43.4732868" lon="6.8292437"><ele></ele><time>2022-5-30T20:15:44Z</time></trkpt>
<trkpt lat="43.4733069" lon="6.8292922"><ele></ele><time>2022-5-30T20:15:47Z</time></trkpt>
<trkpt lat="43.4733229" lon="6.8293384"><ele></ele><time>2022-5-30T20:15:50Z</time></trkpt>
<trkpt lat="43.4733349" lon="6.8293810"><ele></ele><time>2022-5-30T20:15:53Z</time></trkpt>
<trkpt lat="43.4733462" lon="6.8294273"><ele></ele><time>2022-5-30T20:15:56Z</time></trkpt>
<trkpt lat="43.4733596" lon="6.8294714"><ele></ele><time>2022-5-30T20:15:59Z</time></trkpt>
<trkpt lat="43.4733709" lon="6.8295123"><ele></ele><time>2022-5-30T20:16:2Z</time></trkpt>
<trkpt lat="43.4733831" lon="6.8295545"><ele></ele><time>2022-5-30T20:16:5Z</time></trkpt>
<trkpt lat="43.4733899" lon="6.8295961"><ele></ele><time>2022-5-30T20:16:8Z</time></trkpt>
<trkpt lat="43.4733935" lon="6.8296377"><ele></ele><time>2022-5-30T20:16:11Z</time></trkpt>
<trkpt lat="43.4733978" lon="6.8296851"><ele></ele><time>2022-5-30T20:16:14Z</time></trkpt>
<trkpt lat="43.4734018" lon="6.8297347"><ele></ele><time>2022-5-30T20:16:17Z</time></trkpt>
<trkpt lat="43.4734139" lon="6.8297850"><ele></ele><time>2022-5-30T20:16:20Z</time></trkpt>
<trkpt lat="43.4734309" lon="6.8298348"><ele></ele><time>2022-5-30T20:16:23Z</time></trkpt>
<trkpt lat="43.4734431" lon="6.8298820"><ele></ele><time>2022-5-30T20:16:26Z</time></trkpt>
<trkpt lat="43.4734567" lon="6.8299243"><ele></ele><time>2022-5-30T20:16:29Z</time></trkpt>
<trkpt lat="43.4734732" lon="6.8299621"><ele></ele><time>2022-5-30T20:16:32Z</time></trkpt>
<trkpt lat="43.4734929" lon="6.8300010"><ele></ele><time>2022-5-30T20:16:35Z</time></trkpt>
<trkpt lat="43.4735150" lon="6.8300377"><ele></ele><time>2022-5-30T20:16:38Z</time></trkpt>
<trkpt lat="43.4735426" lon="6.8300726"><ele></ele><time>2022-5-30T20:16:41Z</time></trkpt>
<trkpt lat="43.4735711" lon="6.8301088"><ele></ele><time>2022-5-30T20:16:44Z</time></trkpt>
<trkpt lat="43.4735983" lon="6.8301422"><ele></ele><time>2022-5-30T20:16:47Z</time></trkpt>
<trkpt lat="43.4736311" lon="6.8301672"><ele></ele><time>2022-5-30T20:16:50Z</time></trkpt>
<trkpt lat="43.4736620" lon="6.8301769"><ele></ele><time>2022-5-30T20:16:53Z</time></trkpt>
<trkpt lat="43.4736959" lon="6.8301824"><ele></ele><time>2022-5-30T20:16:56Z</time></trkpt>
<trkpt lat="43.4737266" lon="6.8301894"><ele></ele><time>2022-5-30T20:16:59Z</time></trkpt>
<trkpt lat="43.4737595" lon="6.8301894"><ele></ele><time>2022-5-30T20:17:2Z</time></trkpt>
<trkpt lat="43.4737984" lon="6.8301805"><ele></ele><time>2022-5-30T20:17:5Z</time></trkpt>
<trkpt lat="43.4738388" lon="6.8301652"><ele></ele><time>2022-5-30T20:17:8Z</time></trkpt>
<trkpt lat="43.4738801" lon="6.8301550"><ele></ele><time>2022-5-30T20:17:11Z</time></trkpt>
<trkpt lat="43.4739165" lon="6.8301335"><ele></ele><time>2022-5-30T20:17:14Z</time></trkpt>
<trkpt lat="43.4739534" lon="6.8301056"><ele></ele><time>2022-5-30T20:17:17Z</time></trkpt>
<trkpt lat="43.4739866" lon="6.8300806"><ele></ele><time>2022-5-30T20:17:20Z</time></trkpt>
<trkpt lat="43.4740211" lon="6.8300484"><ele></ele><time>2022-5-30T20:17:23Z</time></trkpt>
<trkpt lat="43.4740525" lon="6.8300091"><ele></ele><time>2022-5-30T20:17:26Z</time></trkpt>
<trkpt lat="43.4740831" lon="6.8299664"><ele></ele><time>2022-5-30T20:17:29Z</time></trkpt>
<trkpt lat="43.4741173" lon="6.8299158"><ele></ele><time>2022-5-30T20:17:32Z</time></trkpt>
<trkpt lat="43.4741496" lon="6.8298682"><ele></ele><time>2022-5-30T20:17:35Z</time></trkpt>
<trkpt lat="43.4741795" lon="6.8298189"><ele></ele><time>2022-5-30T20:17:38Z</time></trkpt>
<trkpt lat="43.4742104" lon="6.8297705"><ele></ele><time>2022-5-30T20:17:41Z</time></trkpt>
<trkpt lat="43.4742457" lon="6.8297311"><ele></ele><time>2022-5-30T20:17:44Z</time></trkpt>
<trkpt lat="43.4742952" lon="6.8297170"><ele></ele><time>2022-5-30T20:17:47Z</time></trkpt>
<trkpt lat="43.4743484" lon="6.8297208"><ele></ele><time>2022-5-30T20:17:50Z</time></trkpt>
<trkpt lat="43.4744009" lon="6.8297404"><ele></ele><time>2022-5-30T20:17:53Z</time></trkpt>
<trkpt lat="43.4744542" lon="6.8297738"><ele></ele><time>2022-5-30T20:17:56Z</time></trkpt>
<trkpt lat="43.4744971" lon="6.8298141"><ele></ele><time>2022-5-30T20:17:59Z</time></trkpt>
<trkpt lat="43.4745348" lon="6.8298595"><ele></ele><time>2022-5-30T20:18:2Z</time></trkpt>
<trkpt lat="43.4745688" lon="6.8299060"><ele></ele><time>2022-5-30T20:18:5Z</time></trkpt>
<trkpt lat="43.4745987" lon="6.8299503"><ele></ele><time>2022-5-30T20:18:8Z</time></trkpt>
<trkpt lat="43.4746233" lon="6.8299844"><ele></ele><time>2022-5-30T20:18:11Z</time></trkpt>
<trkpt lat="43.4746520" lon="6.8300206"><ele></ele><time>2022-5-30T20:18:14Z</time></trkpt>
<trkpt lat="43.4746801" lon="6.8300638"><ele></ele><time>2022-5-30T20:18:17Z</time></trkpt>
<trkpt lat="43.4747047" lon="6.8301021"><ele></ele><time>2022-5-30T20:18:20Z</time></trkpt>
<trkpt lat="43.4747280" lon="6.8301366"><ele></ele><time>2022-5-30T20:18:23Z</time></trkpt>
<trkpt lat="43.4747525" lon="6.8301754"><ele></ele><time>2022-5-30T20:18:26Z</time></trkpt>
<trkpt lat="43.4747737" lon="6.8302076"><ele></ele><time>2022-5-30T20:18:29Z</time></trkpt>
<trkpt lat="43.4747977" lon="6.8302352"><ele></ele><time>2022-5-30T20:18:32Z</time></trkpt>
<trkpt lat="43.4748269" lon="6.8302678"><ele></ele><time>2022-5-30T20:18:35Z</time></trkpt>
<trkpt lat="43.4748551" lon="6.8303042"><ele></ele><time>2022-5-30T20:18:38Z</time></trkpt>
<trkpt lat="43.4748769" lon="6.8303452"><ele></ele><time>2022-5-30T20:18:41Z</time></trkpt>
<trkpt lat="43.4748981" lon="6.8303841"><ele></ele><time>2022-5-30T20:18:44Z</time></trkpt>
<trkpt lat="43.4749169" lon="6.8304227"><ele></ele><time>2022-5-30T20:18:47Z</time></trkpt>
<trkpt lat="43.4749395" lon="6.8304687"><ele></ele><time>2022-5-30T20:18:50Z</time></trkpt>
<trkpt lat="43.4749549" lon="6.8305173"><ele></ele><time>2022-5-30T20:18:53Z</time></trkpt>
<trkpt lat="43.4749601" lon="6.8305642"><ele></ele><time>2022-5-30T20:18:56Z</time></trkpt>
<trkpt lat="43.4749628" lon="6.8306136"><ele></ele><time>2022-5-30T20:18:59Z</time></trkpt>
<trkpt lat="43.4749590" lon="6.8306507"><ele></ele><time>2022-5-30T20:19:2Z</time></trkpt>
<trkpt lat="43.4749599" lon="6.8306879"><ele></ele><time>2022-5-30T20:19:5Z</time></trkpt>
<trkpt lat="43.4749630" lon="6.8307302"><ele></ele><time>2022-5-30T20:19:8Z</time></trkpt>
<trkpt lat="43.4749637" lon="6.8307771"><ele></ele><time>2022-5-30T20:19:11Z</time></trkpt>
<trkpt lat="43.4749636" lon="6.8308245"><ele></ele><time>2022-5-30T20:19:14Z</time></trkpt>
<trkpt lat="43.4749622" lon="6.8308697"><ele></ele><time>2022-5-30T20:19:17Z</time></trkpt>
<trkpt lat="43.4749620" lon="6.8309160"><ele></ele><time>2022-5-30T20:19:20Z</time></trkpt>
<trkpt lat="43.4749625" lon="6.8309632"><ele></ele><time>2022-5-30T20:19:23Z</time></trkpt>
<trkpt lat="43.4749658" lon="6.8310154"><ele></ele><time>2022-5-30T20:19:26Z</time></trkpt>
<trkpt lat="43.4749721" lon="6.8310669"><ele></ele><time>2022-5-30T20:19:29Z</time></trkpt>
<trkpt lat="43.4749774" lon="6.8311199"><ele></ele><time>2022-5-30T20:19:32Z</time></trkpt>
<trkpt lat="43.4749823" lon="6.8311718"><ele></ele><time>2022-5-30T20:19:35Z</time></trkpt>
<trkpt lat="43.4749881" lon="6.8312269"><ele></ele><time>2022-5-30T20:19:38Z</time></trkpt>
<trkpt lat="43.4749905" lon="6.8312843"><ele></ele><time>2022-5-30T20:19:41Z</time></trkpt>
<trkpt lat="43.4749962" lon="6.8313422"><ele></ele><time>2022-5-30T20:19:44Z</time></trkpt>
<trkpt lat="43.4750038" lon="6.8313987"><ele></ele><time>2022-5-30T20:19:47Z</time></trkpt>
<trkpt lat="43.4750010" lon="6.8314538"><ele></ele><time>2022-5-30T20:19:50Z</time></trkpt>
<trkpt lat="43.4750014" lon="6.8315079"><ele></ele><time>2022-5-30T20:19:53Z</time></trkpt>
<trkpt lat="43.4749994" lon="6.8315641"><ele></ele><time>2022-5-30T20:19:56Z</time></trkpt>
<trkpt lat="43.4749955" lon="6.8316242"><ele></ele><time>2022-5-30T20:19:59Z</time></trkpt>
<trkpt lat="43.4749884" lon="6.8316891"><ele></ele><time>2022-5-30T20:20:2Z</time></trkpt>
<trkpt lat="43.4749816" lon="6.8317518"><ele></ele><time>2022-5-30T20:20:5Z</time></trkpt>
<trkpt lat="43.4749733" lon="6.8318173"><ele></ele><time>2022-5-30T20:20:8Z</time></trkpt>
<trkpt lat="43.4749608" lon="6.8318783"><ele></ele><time>2022-5-30T20:20:11Z</time></trkpt>
<trkpt lat="43.4749484" lon="6.8319424"><ele></ele><time>2022-5-30T20:20:14Z</time></trkpt>
<trkpt lat="43.4749408" lon="6.8320088"><ele></ele><time>2022-5-30T20:20:17Z</time></trkpt>
<trkpt lat="43.4749311" lon="6.8320775"><ele></ele><time>2022-5-30T20:20:20Z</time></trkpt>
<trkpt lat="43.4749216" lon="6.8321463"><ele></ele><time>2022-5-30T20:20:23Z</time></trkpt>
<trkpt lat="43.4749127" lon="6.8322200"><ele></ele><time>2022-5-30T20:20:26Z</time></trkpt>
<trkpt lat="43.4749019" lon="6.8323171"><ele></ele><time>2022-5-30T20:20:29Z</time></trkpt>
<trkpt lat="43.4748994" lon="6.8324014"><ele></ele><time>2022-5-30T20:20:32Z</time></trkpt>
<trkpt lat="43.4749062" lon="6.8324970"><ele></ele><time>2022-5-30T20:20:35Z</time></trkpt>
<trkpt lat="43.4749197" lon="6.8326021"><ele></ele><time>2022-5-30T20:20:38Z</time></trkpt>
<trkpt lat="43.4749315" lon="6.8327143"><ele></ele><time>2022-5-30T20:20:41Z</time></trkpt>
<trkpt lat="43.4749318" lon="6.8328262"><ele></ele><time>2022-5-30T20:20:44Z</time></trkpt>
<trkpt lat="43.4749220" lon="6.8329389"><ele></ele><time>2022-5-30T20:20:47Z</time></trkpt>
<trkpt lat="43.4748994" lon="6.8330431"><ele></ele><time>2022-5-30T20:20:50Z</time></trkpt>
<trkpt lat="43.4748645" lon="6.8331384"><ele></ele><time>2022-5-30T20:20:53Z</time></trkpt>
<trkpt lat="43.4748268" lon="6.8332321"><ele></ele><time>2022-5-30T20:20:56Z</time></trkpt>
<trkpt lat="43.4748013" lon="6.8333296"><ele></ele><time>2022-5-30T20:20:59Z</time></trkpt>
<trkpt lat="43.4747807" lon="6.8334229"><ele></ele><time>2022-5-30T20:21:2Z</time></trkpt>
<trkpt lat="43.4747689" lon="6.8335099"><ele></ele><time>2022-5-30T20:21:5Z</time></trkpt>
<trkpt lat="43.4747558" lon="6.8335905"><ele></ele><time>2022-5-30T20:21:8Z</time></trkpt>
<trkpt lat="43.4747662" lon="6.8336669"><ele></ele><time>2022-5-30T20:21:11Z</time></trkpt>
<trkpt lat="43.4747950" lon="6.8337370"><ele></ele><time>2022-5-30T20:21:14Z</time></trkpt>
<trkpt lat="43.4748443" lon="6.8337942"><ele></ele><time>2022-5-30T20:21:17Z</time></trkpt>
<trkpt lat="43.4749009" lon="6.8338450"><ele></ele><time>2022-5-30T20:21:20Z</time></trkpt>
<trkpt lat="43.4749589" lon="6.8338841"><ele></ele><time>2022-5-30T20:21:23Z</time></trkpt>
<trkpt lat="43.4750243" lon="6.8339061"><ele></ele><time>2022-5-30T20:21:26Z</time></trkpt>
<trkpt lat="43.4750931" lon="6.8339325"><ele></ele><time>2022-5-30T20:21:29Z</time></trkpt>
<trkpt lat="43.4751535" lon="6.8339769"><ele></ele><time>2022-5-30T20:21:32Z</time></trkpt>
<trkpt lat="43.4752006" lon="6.8340311"><ele></ele><time>2022-5-30T20:21:35Z</time></trkpt>
<trkpt lat="43.4752366" lon="6.8340990"><ele></ele><time>2022-5-30T20:21:38Z</time></trkpt>
<trkpt lat="43.4752653" lon="6.8341878"><ele></ele><time>2022-5-30T20:21:41Z</time></trkpt>
<trkpt lat="43.4752734" lon="6.8342801"><ele></ele><time>2022-5-30T20:21:44Z</time></trkpt>
<trkpt lat="43.4752620" lon="6.8343576"><ele></ele><time>2022-5-30T20:21:47Z</time></trkpt>
<trkpt lat="43.4752378" lon="6.8344350"><ele></ele><time>2022-5-30T20:21:50Z</time></trkpt>
<trkpt lat="43.4752091" lon="6.8345096"><ele></ele><time>2022-5-30T20:21:53Z</time></trkpt>
<trkpt lat="43.4751741" lon="6.8345765"><ele></ele><time>2022-5-30T20:21:56Z</time></trkpt>
<trkpt lat="43.4751281" lon="6.8346376"><ele></ele><time>2022-5-30T20:21:59Z</time></trkpt>
<trkpt lat="43.4750790" lon="6.8346964"><ele></ele><time>2022-5-30T20:22:2Z</time></trkpt>
<trkpt lat="43.4750279" lon="6.8347552"><ele></ele><time>2022-5-30T20:22:5Z</time></trkpt>
<trkpt lat="43.4749770" lon="6.8348149"><ele></ele><time>2022-5-30T20:22:8Z</time></trkpt>
<trkpt lat="43.4749257" lon="6.8348727"><ele></ele><time>2022-5-30T20:22:11Z</time></trkpt>
<trkpt lat="43.4748776" lon="6.8349279"><ele></ele><time>2022-5-30T20:22:14Z</time></trkpt>
<trkpt lat="43.4748249" lon="6.8349749"><ele></ele><time>2022-5-30T20:22:17Z</time></trkpt>
<trkpt lat="43.4747737" lon="6.8350260"><ele></ele><time>2022-5-30T20:22:20Z</time></trkpt>
<trkpt lat="43.4747205" lon="6.8350708"><ele></ele><time>2022-5-30T20:22:23Z</time></trkpt>
<trkpt lat="43.4746578" lon="6.8351001"><ele></ele><time>2022-5-30T20:22:26Z</time></trkpt>
<trkpt lat="43.4745950" lon="6.8351084"><ele></ele><time>2022-5-30T20:22:29Z</time></trkpt>
<trkpt lat="43.4745346" lon="6.8350958"><ele></ele><time>2022-5-30T20:22:32Z</time></trkpt>
<trkpt lat="43.4744779" lon="6.8350741"><ele></ele><time>2022-5-30T20:22:35Z</time></trkpt>
<trkpt lat="43.4744262" lon="6.8350539"><ele></ele><time>2022-5-30T20:22:38Z</time></trkpt>
<trkpt lat="43.4743728" lon="6.8350373"><ele></ele><time>2022-5-30T20:22:41Z</time></trkpt>
<trkpt lat="43.4743189" lon="6.8350306"><ele></ele><time>2022-5-30T20:22:44Z</time></trkpt>
<trkpt lat="43.4742596" lon="6.8350291"><ele></ele><time>2022-5-30T20:22:47Z</time></trkpt>
<trkpt lat="43.4742024" lon="6.8350426"><ele></ele><time>2022-5-30T20:22:50Z</time></trkpt>
<trkpt lat="43.4741462" lon="6.8350655"><ele></ele><time>2022-5-30T20:22:53Z</time></trkpt>
<trkpt lat="43.4740906" lon="6.8350912"><ele></ele><time>2022-5-30T20:22:56Z</time></trkpt>
<trkpt lat="43.4740405" lon="6.8351224"><ele></ele><time>2022-5-30T20:22:59Z</time></trkpt>
<trkpt lat="43.4739907" lon="6.8351553"><ele></ele><time>2022-5-30T20:23:2Z</time></trkpt>
<trkpt lat="43.4739403" lon="6.8351894"><ele></ele><time>2022-5-30T20:23:5Z</time></trkpt>
<trkpt lat="43.4738905" lon="6.8352339"><ele></ele><time>2022-5-30T20:23:8Z</time></trkpt>
<trkpt lat="43.4738440" lon="6.8352829"><ele></ele><time>2022-5-30T20:23:11Z</time></trkpt>
<trkpt lat="43.4737986" lon="6.8353372"><ele></ele><time>2022-5-30T20:23:14Z</time></trkpt>
<trkpt lat="43.4737533" lon="6.8353970"><ele></ele><time>2022-5-30T20:23:17Z</time></trkpt>
<trkpt lat="43.4737127" lon="6.8354626"><ele></ele><time>2022-5-30T20:23:20Z</time></trkpt>
<trkpt lat="43.4736763" lon="6.8355361"><ele></ele><time>2022-5-30T20:23:23Z</time></trkpt>
<trkpt lat="43.4736376" lon="6.8356079"><ele></ele><time>2022-5-30T20:23:26Z</time></trkpt>
<trkpt lat="43.4735978" lon="6.8356821"><ele></ele><time>2022-5-30T20:23:29Z</time></trkpt>
<trkpt lat="43.4735573" lon="6.8357580"><ele></ele><time>2022-5-30T20:23:32Z</time></trkpt>
<trkpt lat="43.4735179" lon="6.8358349"><ele></ele><time>2022-5-30T20:23:35Z</time></trkpt>
<trkpt lat="43.4734781" lon="6.8359084"><ele></ele><time>2022-5-30T20:23:38Z</time></trkpt>
<trkpt lat="43.4734364" lon="6.8359798"><ele></ele><time>2022-5-30T20:23:41Z</time></trkpt>
<trkpt lat="43.4733957" lon="6.8360485"><ele></ele><time>2022-5-30T20:23:44Z</time></trkpt>
<trkpt lat="43.4733527" lon="6.8361136"><ele></ele><time>2022-5-30T20:23:47Z</time></trkpt>
<trkpt lat="43.4733151" lon="6.8361826"><ele></ele><time>2022-5-30T20:23:50Z</time></trkpt>
<trkpt lat="43.4732756" lon="6.8362500"><ele></ele><time>2022-5-30T20:23:53Z</time></trkpt>
<trkpt lat="43.4732404" lon="6.8363219"><ele></ele><time>2022-5-30T20:23:56Z</time></trkpt>
<trkpt lat="43.4732245" lon="6.8364067"><ele></ele><time>2022-5-30T20:23:59Z</time></trkpt>
<trkpt lat="43.4732061" lon="6.8364877"><ele></ele><time>2022-5-30T20:24:2Z</time></trkpt>
<trkpt lat="43.4731903" lon="6.8365665"><ele></ele><time>2022-5-30T20:24:5Z</time></trkpt>
<trkpt lat="43.4731909" lon="6.8366512"><ele></ele><time>2022-5-30T20:24:8Z</time></trkpt>
<trkpt lat="43.4731910" lon="6.8367384"><ele></ele><time>2022-5-30T20:24:11Z</time></trkpt>
<trkpt lat="43.4731880" lon="6.8368292"><ele></ele><time>2022-5-30T20:24:14Z</time></trkpt>
<trkpt lat="43.4731870" lon="6.8369193"><ele></ele><time>2022-5-30T20:24:17Z</time></trkpt>
<trkpt lat="43.4731839" lon="6.8370097"><ele></ele><time>2022-5-30T20:24:20Z</time></trkpt>
<trkpt lat="43.4731806" lon="6.8371002"><ele></ele><time>2022-5-30T20:24:23Z</time></trkpt>
<trkpt lat="43.4731781" lon="6.8371878"><ele></ele><time>2022-5-30T20:24:26Z</time></trkpt>
<trkpt lat="43.4731740" lon="6.8372746"><ele></ele><time>2022-5-30T20:24:29Z</time></trkpt>
<trkpt lat="43.4731612" lon="6.8373609"><ele></ele><time>2022-5-30T20:24:32Z</time></trkpt>
<trkpt lat="43.4731338" lon="6.8374400"><ele></ele><time>2022-5-30T20:24:35Z</time></trkpt>
<trkpt lat="43.4730952" lon="6.8375072"><ele></ele><time>2022-5-30T20:24:38Z</time></trkpt>
<trkpt lat="43.4730475" lon="6.8375626"><ele></ele><time>2022-5-30T20:24:41Z</time></trkpt>
<trkpt lat="43.4729945" lon="6.8376092"><ele></ele><time>2022-5-30T20:24:44Z</time></trkpt>
<trkpt lat="43.4729372" lon="6.8376457"><ele></ele><time>2022-5-30T20:24:47Z</time></trkpt>
<trkpt lat="43.4728751" lon="6.8376749"><ele></ele><time>2022-5-30T20:24:50Z</time></trkpt>
<trkpt lat="43.4728116" lon="6.8376984"><ele></ele><time>2022-5-30T20:24:53Z</time></trkpt>
<trkpt lat="43.4727467" lon="6.8377148"><ele></ele><time>2022-5-30T20:24:56Z</time></trkpt>
<trkpt lat="43.4726813" lon="6.8377212"><ele></ele><time>2022-5-30T20:24:59Z</time></trkpt>
<trkpt lat="43.4726156" lon="6.8377152"><ele></ele><time>2022-5-30T20:25:2Z</time></trkpt>
<trkpt lat="43.4725520" lon="6.8377186"><ele></ele><time>2022-5-30T20:25:5Z</time></trkpt>
<trkpt lat="43.4724926" lon="6.8377373"><ele></ele><time>2022-5-30T20:25:8Z</time></trkpt>
<trkpt lat="43.4724484" lon="6.8377897"><ele></ele><time>2022-5-30T20:25:11Z</time></trkpt>
<trkpt lat="43.4724229" lon="6.8378673"><ele></ele><time>2022-5-30T20:25:14Z</time></trkpt>
<trkpt lat="43.4724021" lon="6.8379613"><ele></ele><time>2022-5-30T20:25:17Z</time></trkpt>
<trkpt lat="43.4724053" lon="6.8380568"><ele></ele><time>2022-5-30T20:25:20Z</time></trkpt>
<trkpt lat="43.4724199" lon="6.8381513"><ele></ele><time>2022-5-30T20:25:23Z</time></trkpt>
<trkpt lat="43.4724496" lon="6.8382362"><ele></ele><time>2022-5-30T20:25:26Z</time></trkpt>
<trkpt lat="43.4724945" lon="6.8383026"><ele></ele><time>2022-5-30T20:25:29Z</time></trkpt>
<trkpt lat="43.4725590" lon="6.8383406"><ele></ele><time>2022-5-30T20:25:32Z</time></trkpt>
<trkpt lat="43.4726264" lon="6.8383757"><ele></ele><time>2022-5-30T20:25:35Z</time></trkpt>
<trkpt lat="43.4726827" lon="6.8384270"><ele></ele><time>2022-5-30T20:25:38Z</time></trkpt>
<trkpt lat="43.4727177" lon="6.8385034"><ele></ele><time>2022-5-30T20:25:41Z</time></trkpt>
<trkpt lat="43.4727392" lon="6.8385907"><ele></ele><time>2022-5-30T20:25:44Z</time></trkpt>
<trkpt lat="43.4727412" lon="6.8386766"><ele></ele><time>2022-5-30T20:25:47Z</time></trkpt>
<trkpt lat="43.4727290" lon="6.8387547"><ele></ele><time>2022-5-30T20:25:50Z</time></trkpt>
<trkpt lat="43.4726990" lon="6.8388275"><ele></ele><time>2022-5-30T20:25:53Z</time></trkpt>
<trkpt lat="43.4726529" lon="6.8388738"><ele></ele><time>2022-5-30T20:25:56Z</time></trkpt>
<trkpt lat="43.4725973" lon="6.8388956"><ele></ele><time>2022-5-30T20:25:59Z</time></trkpt>
<trkpt lat="43.4725410" lon="6.8389031"><ele></ele><time>2022-5-30T20:26:2Z</time></trkpt>
<trkpt lat="43.4724841" lon="6.8389128"><ele></ele><time>2022-5-30T20:26:5Z</time></trkpt>
<trkpt lat="43.4724349" lon="6.8389297"><ele></ele><time>2022-5-30T20:26:8Z</time></trkpt>
<trkpt lat="43.4723858" lon="6.8389538"><ele></ele><time>2022-5-30T20:26:11Z</time></trkpt>
<trkpt lat="43.4723392" lon="6.8389772"><ele></ele><time>2022-5-30T20:26:14Z</time></trkpt>
<trkpt lat="43.4722955" lon="6.8390049"><ele></ele><time>2022-5-30T20:26:17Z</time></trkpt>
<trkpt lat="43.4722546" lon="6.8390426"><ele></ele><time>2022-5-30T20:26:20Z</time></trkpt>
<trkpt lat="43.4722182" lon="6.8390862"><ele></ele><time>2022-5-30T20:26:23Z</time></trkpt>
<trkpt lat="43.4721861" lon="6.8391317"><ele></ele><time>2022-5-30T20:26:26Z</time></trkpt>
<trkpt lat="43.4721563" lon="6.8391722"><ele></ele><time>2022-5-30T20:26:29Z</time></trkpt>
<trkpt lat="43.4721330" lon="6.8392096"><ele></ele><time>2022-5-30T20:26:32Z</time></trkpt>
<trkpt lat="43.4721094" lon="6.8392454"><ele></ele><time>2022-5-30T20:26:35Z</time></trkpt>
<trkpt lat="43.4720857" lon="6.8392798"><ele></ele><time>2022-5-30T20:26:38Z</time></trkpt>
<trkpt lat="43.4720616" lon="6.8393131"><ele></ele><time>2022-5-30T20:26:41Z</time></trkpt>
<trkpt lat="43.4720372" lon="6.8393430"><ele></ele><time>2022-5-30T20:26:44Z</time></trkpt>
<trkpt lat="43.4720101" lon="6.8393743"><ele></ele><time>2022-5-30T20:26:47Z</time></trkpt>
<trkpt lat="43.4719803" lon="6.8394054"><ele></ele><time>2022-5-30T20:26:50Z</time></trkpt>
<trkpt lat="43.4719543" lon="6.8394318"><ele></ele><time>2022-5-30T20:26:53Z</time></trkpt>
<trkpt lat="43.4719299" lon="6.8394594"><ele></ele><time>2022-5-30T20:26:56Z</time></trkpt>
<trkpt lat="43.4719020" lon="6.8394842"><ele></ele><time>2022-5-30T20:26:59Z</time></trkpt>
<trkpt lat="43.4718737" lon="6.8395064"><ele></ele><time>2022-5-30T20:27:2Z</time></trkpt>
<trkpt lat="43.4718470" lon="6.8395320"><ele></ele><time>2022-5-30T20:27:5Z</time></trkpt>
<trkpt lat="43.4718188" lon="6.8395607"><ele></ele><time>2022-5-30T20:27:8Z</time></trkpt>
<trkpt lat="43.4717919" lon="6.8395914"><ele></ele><time>2022-5-30T20:27:11Z</time></trkpt>
<trkpt lat="43.4717639" lon="6.8396218"><ele></ele><time>2022-5-30T20:27:14Z</time></trkpt>
<trkpt lat="43.4717350" lon="6.8396507"><ele></ele><time>2022-5-30T20:27:17Z</time></trkpt>
<trkpt lat="43.4717090" lon="6.8396765"><ele></ele><time>2022-5-30T20:27:20Z</time></trkpt>
<trkpt lat="43.4716793" lon="6.8396956"><ele></ele><time>2022-5-30T20:27:23Z</time></trkpt>
<trkpt lat="43.4716441" lon="6.8397147"><ele></ele><time>2022-5-30T20:27:26Z</time></trkpt>
<trkpt lat="43.4716088" lon="6.8397323"><ele></ele><time>2022-5-30T20:27:29Z</time></trkpt>
<trkpt lat="43.4715743" lon="6.8397445"><ele></ele><time>2022-5-30T20:27:32Z</time></trkpt>
<trkpt lat="43.4715409" lon="6.8397547"><ele></ele><time>2022-5-30T20:27:35Z</time></trkpt>
<trkpt lat="43.4715087" lon="6.8397597"><ele></ele><time>2022-5-30T20:27:38Z</time></trkpt>
<trkpt lat="43.4714745" lon="6.8397657"><ele></ele><time>2022-5-30T20:27:41Z</time></trkpt>
<trkpt lat="43.4714396" lon="6.8397741"><ele></ele><time>2022-5-30T20:27:44Z</time></trkpt>
<trkpt lat="43.4714053" lon="6.8397850"><ele></ele><time>2022-5-30T20:27:47Z</time></trkpt>
<trkpt lat="43.4713715" lon="6.8398004"><ele></ele><time>2022-5-30T20:27:50Z</time></trkpt>
<trkpt lat="43.4713407" lon="6.8398171"><ele></ele><time>2022-5-30T20:27:53Z</time></trkpt>
<trkpt lat="43.4713088" lon="6.8398352"><ele></ele><time>2022-5-30T20:27:56Z</time></trkpt>
<trkpt lat="43.4712725" lon="6.8398557"><ele></ele><time>2022-5-30T20:27:59Z</time></trkpt>
<trkpt lat="43.4712453" lon="6.8398840"><ele></ele><time>2022-5-30T20:28:2Z</time></trkpt>
<trkpt lat="43.4712204" lon="6.8399120"><ele></ele><time>2022-5-30T20:28:5Z</time></trkpt>
<trkpt lat="43.4711928" lon="6.8399434"><ele></ele><time>2022-5-30T20:28:8Z</time></trkpt>
<trkpt lat="43.4711621" lon="6.8399732"><ele></ele><time>2022-5-30T20:28:11Z</time></trkpt>
<trkpt lat="43.4711288" lon="6.8399972"><ele></ele><time>2022-5-30T20:28:14Z</time></trkpt>
<trkpt lat="43.4710950" lon="6.8400212"><ele></ele><time>2022-5-30T20:28:17Z</time></trkpt>
<trkpt lat="43.4710644" lon="6.8400454"><ele></ele><time>2022-5-30T20:28:20Z</time></trkpt>
<trkpt lat="43.4710388" lon="6.8400769"><ele></ele><time>2022-5-30T20:28:23Z</time></trkpt>
<trkpt lat="43.4710089" lon="6.8401001"><ele></ele><time>2022-5-30T20:28:26Z</time></trkpt>
<trkpt lat="43.4709798" lon="6.8401185"><ele></ele><time>2022-5-30T20:28:29Z</time></trkpt>
<trkpt lat="43.4709474" lon="6.8401353"><ele></ele><time>2022-5-30T20:28:32Z</time></trkpt>
<trkpt lat="43.4709139" lon="6.8401528"><ele></ele><time>2022-5-30T20:28:35Z</time></trkpt>
<trkpt lat="43.4708846" lon="6.8401739"><ele></ele><time>2022-5-30T20:28:38Z</time></trkpt>
<trkpt lat="43.4708515" lon="6.8401950"><ele></ele><time>2022-5-30T20:28:41Z</time></trkpt>
<trkpt lat="43.4708153" lon="6.8402191"><ele></ele><time>2022-5-30T20:28:44Z</time></trkpt>
<trkpt lat="43.4707821" lon="6.8402454"><ele></ele><time>2022-5-30T20:28:47Z</time></trkpt>
<trkpt lat="43.4707499" lon="6.8402703"><ele></ele><time>2022-5-30T20:28:50Z</time></trkpt>
<trkpt lat="43.4707157" lon="6.8402979"><ele></ele><time>2022-5-30T20:28:53Z</time></trkpt>
<trkpt lat="43.4706820" lon="6.8403207"><ele></ele><time>2022-5-30T20:28:56Z</time></trkpt>
<trkpt lat="43.4706505" lon="6.8403423"><ele></ele><time>2022-5-30T20:28:59Z</time></trkpt>
<trkpt lat="43.4706210" lon="6.8403640"><ele></ele><time>2022-5-30T20:29:2Z</time></trkpt>
<trkpt lat="43.4705921" lon="6.8403848"><ele></ele><time>2022-5-30T20:29:5Z</time></trkpt>
<trkpt lat="43.4705566" lon="6.8404081"><ele></ele><time>2022-5-30T20:29:8Z</time></trkpt>
<trkpt lat="43.4705251" lon="6.8404268"><ele></ele><time>2022-5-30T20:29:11Z</time></trkpt>
<trkpt lat="43.4704913" lon="6.8404508"><ele></ele><time>2022-5-30T20:29:14Z</time></trkpt>
<trkpt lat="43.4704598" lon="6.8404761"><ele></ele><time>2022-5-30T20:29:17Z</time></trkpt>
<trkpt lat="43.4704296" lon="6.8404940"><ele></ele><time>2022-5-30T20:29:20Z</time></trkpt>
<trkpt lat="43.4703950" lon="6.8405138"><ele></ele><time>2022-5-30T20:29:23Z</time></trkpt>
<trkpt lat="43.4703588" lon="6.8405258"><ele></ele><time>2022-5-30T20:29:26Z</time></trkpt>
<trkpt lat="43.4703216" lon="6.8405368"><ele></ele><time>2022-5-30T20:29:29Z</time></trkpt>
<trkpt lat="43.4702796" lon="6.8405398"><ele></ele><time>2022-5-30T20:29:32Z</time></trkpt>
<trkpt lat="43.4702380" lon="6.8405419"><ele></ele><time>2022-5-30T20:29:35Z</time></trkpt>
<trkpt lat="43.4702004" lon="6.8405408"><ele></ele><time>2022-5-30T20:29:38Z</time></trkpt>
<trkpt lat="43.4701661" lon="6.8405375"><ele></ele><time>2022-5-30T20:29:41Z</time></trkpt>
<trkpt lat="43.4701372" lon="6.8405226"><ele></ele><time>2022-5-30T20:29:44Z</time></trkpt>
<trkpt lat="43.4701034" lon="6.8404997"><ele></ele><time>2022-5-30T20:29:47Z</time></trkpt>
<trkpt lat="43.4700686" lon="6.8404811"><ele></ele><time>2022-5-30T20:29:50Z</time></trkpt>
<trkpt lat="43.4700382" lon="6.8404585"><ele></ele><time>2022-5-30T20:29:53Z</time></trkpt>
<trkpt lat="43.4700038" lon="6.8404341"><ele></ele><time>2022-5-30T20:29:56Z</time></trkpt>
<trkpt lat="43.4699684" lon="6.8404099"><ele></ele><time>2022-5-30T20:29:59Z</time></trkpt>
<trkpt lat="43.4699403" lon="6.8403890"><ele></ele><time>2022-5-30T20:30:2Z</time></trkpt>
<trkpt lat="43.4699138" lon="6.8403633"><ele></ele><time>2022-5-30T20:30:5Z</time></trkpt>
<trkpt lat="43.4698858" lon="6.8403392"><ele></ele><time>2022-5-30T20:30:8Z</time></trkpt>
<trkpt lat="43.4698554" lon="6.8403190"><ele></ele><time>2022-5-30T20:30:11Z</time></trkpt>
<trkpt lat="43.4698258" lon="6.8403119"><ele></ele><time>2022-5-30T20:30:14Z</time></trkpt>
<trkpt lat="43.4697944" lon="6.8403067"><ele></ele><time>2022-5-30T20:30:17Z</time></trkpt>
<trkpt lat="43.4697651" lon="6.8403084"><ele></ele><time>2022-5-30T20:30:20Z</time></trkpt>
<trkpt lat="43.4697388" lon="6.8403154"><ele></ele><time>2022-5-30T20:30:23Z</time></trkpt>
<trkpt lat="43.4697074" lon="6.8403224"><ele></ele><time>2022-5-30T20:30:26Z</time></trkpt>
<trkpt lat="43.4696730" lon="6.8403316"><ele></ele><time>2022-5-30T20:30:29Z</time></trkpt>
<trkpt lat="43.4696439" lon="6.8403544"><ele></ele><time>2022-5-30T20:30:32Z</time></trkpt>
<trkpt lat="43.4696155" lon="6.8403767"><ele></ele><time>2022-5-30T20:30:35Z</time></trkpt>
<trkpt lat="43.4695874" lon="6.8404106"><ele></ele><time>2022-5-30T20:30:38Z</time></trkpt>
<trkpt lat="43.4695626" lon="6.8404522"><ele></ele><time>2022-5-30T20:30:41Z</time></trkpt>
<trkpt lat="43.4695408" lon="6.8404920"><ele></ele><time>2022-5-30T20:30:44Z</time></trkpt>
<trkpt lat="43.4695167" lon="6.8405204"><ele></ele><time>2022-5-30T20:30:47Z</time></trkpt>
<trkpt lat="43.4694937" lon="6.8405574"><ele></ele><time>2022-5-30T20:30:50Z</time></trkpt>
<trkpt lat="43.4694707" lon="6.8405965"><ele></ele><time>2022-5-30T20:30:53Z</time></trkpt>
<trkpt lat="43.4694538" lon="6.8406358"><ele></ele><time>2022-5-30T20:30:56Z</time></trkpt>
<trkpt lat="43.4694409" lon="6.8406720"><ele></ele><time>2022-5-30T20:30:59Z</time></trkpt>
<trkpt lat="43.4694299" lon="6.8407085"><ele></ele><time>2022-5-30T20:31:2Z</time></trkpt>
<trkpt lat="43.4694240" lon="6.8407454"><ele></ele><time>2022-5-30T20:31:5Z</time></trkpt>
<trkpt lat="43.4694210" lon="6.8407842"><ele></ele><time>2022-5-30T20:31:8Z</time></trkpt>
<trkpt lat="43.4694181" lon="6.8408247"><ele></ele><time>2022-5-30T20:31:11Z</time></trkpt>
<trkpt lat="43.4694155" lon="6.8408620"><ele></ele><time>2022-5-30T20:31:14Z</time></trkpt>
<trkpt lat="43.4694212" lon="6.8408948"><ele></ele><time>2022-5-30T20:31:17Z</time></trkpt>
<trkpt lat="43.4694362" lon="6.8409214"><ele></ele><time>2022-5-30T20:31:20Z</time></trkpt>
<trkpt lat="43.4694495" lon="6.8409451"><ele></ele><time>2022-5-30T20:31:23Z</time></trkpt>
<trkpt lat="43.4694651" lon="6.8409739"><ele></ele><time>2022-5-30T20:31:26Z</time></trkpt>
<trkpt lat="43.4694823" lon="6.8410066"><ele></ele><time>2022-5-30T20:31:29Z</time></trkpt>
<trkpt lat="43.4694898" lon="6.8410387"><ele></ele><time>2022-5-30T20:31:32Z</time></trkpt>
<trkpt lat="43.4695001" lon="6.8410745"><ele></ele><time>2022-5-30T20:31:35Z</time></trkpt>
<trkpt lat="43.4695102" lon="6.8411059"><ele></ele><time>2022-5-30T20:31:38Z</time></trkpt>
<trkpt lat="43.4695200" lon="6.8411424"><ele></ele><time>2022-5-30T20:31:41Z</time></trkpt>
<trkpt lat="43.4695297" lon="6.8411758"><ele></ele><time>2022-5-30T20:31:44Z</time></trkpt>
<trkpt lat="43.4695413" lon="6.8412080"><ele></ele><time>2022-5-30T20:31:47Z</time></trkpt>
<trkpt lat="43.4695553" lon="6.8412384"><ele></ele><time>2022-5-30T20:31:50Z</time></trkpt>
<trkpt lat="43.4695689" lon="6.8412714"><ele></ele><time>2022-5-30T20:31:53Z</time></trkpt>
<trkpt lat="43.4695842" lon="6.8413003"><ele></ele><time>2022-5-30T20:31:56Z</time></trkpt>
<trkpt lat="43.4696013" lon="6.8413246"><ele></ele><time>2022-5-30T20:31:59Z</time></trkpt>
<trkpt lat="43.4696173" lon="6.8413463"><ele></ele><time>2022-5-30T20:32:2Z</time></trkpt>
<trkpt lat="43.4696306" lon="6.8413626"><ele></ele><time>2022-5-30T20:32:5Z</time></trkpt>
<trkpt lat="43.4696426" lon="6.8413765"><ele></ele><time>2022-5-30T20:32:8Z</time></trkpt>
<trkpt lat="43.4696626" lon="6.8413947"><ele></ele><time>2022-5-30T20:32:11Z</time></trkpt>
<trkpt lat="43.4696741" lon="6.8414305"><ele></ele><time>2022-5-30T20:32:14Z</time></trkpt>
<trkpt lat="43.4696891" lon="6.8414634"><ele></ele><time>2022-5-30T20:32:17Z</time></trkpt>
<trkpt lat="43.4697052" lon="6.8414955"><ele></ele><time>2022-5-30T20:32:20Z</time></trkpt>
<trkpt lat="43.4697173" lon="6.8415285"><ele></ele><time>2022-5-30T20:32:23Z</time></trkpt>
<trkpt lat="43.4697289" lon="6.8415620"><ele></ele><time>2022-5-30T20:32:26Z</time></trkpt>
<trkpt lat="43.4697434" lon="6.8415971"><ele></ele><time>2022-5-30T20:32:29Z</time></trkpt>
<trkpt lat="43.4697566" lon="6.8416350"><ele></ele><time>2022-5-30T20:32:32Z</time></trkpt>
<trkpt lat="43.4697683" lon="6.8416690"><ele></ele><time>2022-5-30T20:32:35Z</time></trkpt>
<trkpt lat="43.4697791" lon="6.8417026"><ele></ele><time>2022-5-30T20:32:38Z</time></trkpt>
<trkpt lat="43.4697894" lon="6.8417365"><ele></ele><time>2022-5-30T20:32:41Z</time></trkpt>
<trkpt lat="43.4698017" lon="6.8417647"><ele></ele><time>2022-5-30T20:32:44Z</time></trkpt>
<trkpt lat="43.4698135" lon="6.8417951"><ele></ele><time>2022-5-30T20:32:47Z</time></trkpt>
<trkpt lat="43.4698223" lon="6.8418321"><ele></ele><time>2022-5-30T20:32:50Z</time></trkpt>
<trkpt lat="43.4698304" lon="6.8418655"><ele></ele><time>2022-5-30T20:32:53Z</time></trkpt>
<trkpt lat="43.4698398" lon="6.8418975"><ele></ele><time>2022-5-30T20:32:56Z</time></trkpt>
<trkpt lat="43.4698492" lon="6.8419334"><ele></ele><time>2022-5-30T20:32:59Z</time></trkpt>
<trkpt lat="43.4698591" lon="6.8419641"><ele></ele><time>2022-5-30T20:33:2Z</time></trkpt>
<trkpt lat="43.4698735" lon="6.8419930"><ele></ele><time>2022-5-30T20:33:5Z</time></trkpt>
<trkpt lat="43.4698857" lon="6.8420305"><ele></ele><time>2022-5-30T20:33:8Z</time></trkpt>
<trkpt lat="43.4698988" lon="6.8420725"><ele></ele><time>2022-5-30T20:33:11Z</time></trkpt>
<trkpt lat="43.4699073" lon="6.8421140"><ele></ele><time>2022-5-30T20:33:14Z</time></trkpt>
<trkpt lat="43.4699132" lon="6.8421480"><ele></ele><time>2022-5-30T20:33:17Z</time></trkpt>
<trkpt lat="43.4699193" lon="6.8421807"><ele></ele><time>2022-5-30T20:33:20Z</time></trkpt>
<trkpt lat="43.4699217" lon="6.8422188"><ele></ele><time>2022-5-30T20:33:23Z</time></trkpt>
<trkpt lat="43.4699282" lon="6.8422643"><ele></ele><time>2022-5-30T20:33:26Z</time></trkpt>
<trkpt lat="43.4699320" lon="6.8423042"><ele></ele><time>2022-5-30T20:33:29Z</time></trkpt>
<trkpt lat="43.4699313" lon="6.8423436"><ele></ele><time>2022-5-30T20:33:32Z</time></trkpt>
<trkpt lat="43.4699298" lon="6.8423812"><ele></ele><time>2022-5-30T20:33:35Z</time></trkpt>
<trkpt lat="43.4699251" lon="6.8424153"><ele></ele><time>2022-5-30T20:33:38Z</time></trkpt>
<trkpt lat="43.4699253" lon="6.8424424"><ele></ele><time>2022-5-30T20:33:41Z</time></trkpt>
<trkpt lat="43.4699224" lon="6.8424732"><ele></ele><time>2022-5-30T20:33:44Z</time></trkpt>
<trkpt lat="43.4699187" lon="6.8425093"><ele></ele><time>2022-5-30T20:33:47Z</time></trkpt>
<trkpt lat="43.4699141" lon="6.8425387"><ele></ele><time>2022-5-30T20:33:50Z</time></trkpt>
<trkpt lat="43.4699074" lon="6.8425747"><ele></ele><time>2022-5-30T20:33:53Z</time></trkpt>
<trkpt lat="43.4699044" lon="6.8426084"><ele></ele><time>2022-5-30T20:33:56Z</time></trkpt>
<trkpt lat="43.4698988" lon="6.8426468"><ele></ele><time>2022-5-30T20:33:59Z</time></trkpt>
<trkpt lat="43.4698983" lon="6.8426865"><ele></ele><time>2022-5-30T20:34:2Z</time></trkpt>
<trkpt lat="43.4698936" lon="6.8427295"><ele></ele><time>2022-5-30T20:34:5Z</time></trkpt>
<trkpt lat="43.4698867" lon="6.8427669"><ele></ele><time>2022-5-30T20:34:8Z</time></trkpt>
<trkpt lat="43.4698735" lon="6.8427971"><ele></ele><time>2022-5-30T20:34:11Z</time></trkpt>
<trkpt lat="43.4698611" lon="6.8428268"><ele></ele><time>2022-5-30T20:34:14Z</time></trkpt>
<trkpt lat="43.4698478" lon="6.8428609"><ele></ele><time>2022-5-30T20:34:17Z</time></trkpt>
<trkpt lat="43.4698368" lon="6.8428956"><ele></ele><time>2022-5-30T20:34:20Z</time></trkpt>
<trkpt lat="43.4698325" lon="6.8429364"><ele></ele><time>2022-5-30T20:34:23Z</time></trkpt>
<trkpt lat="43.4698152" lon="6.8429691"><ele></ele><time>2022-5-30T20:34:26Z</time></trkpt>
<trkpt lat="43.4698032" lon="6.8430065"><ele></ele><time>2022-5-30T20:34:29Z</time></trkpt>
<trkpt lat="43.4697940" lon="6.8430459"><ele></ele><time>2022-5-30T20:34:32Z</time></trkpt>
<trkpt lat="43.4697821" lon="6.8430785"><ele></ele><time>2022-5-30T20:34:35Z</time></trkpt>
<trkpt lat="43.4697668" lon="6.8431117"><ele></ele><time>2022-5-30T20:34:38Z</time></trkpt>
<trkpt lat="43.4697526" lon="6.8431329"><ele></ele><time>2022-5-30T20:34:41Z</time></trkpt>
<trkpt lat="43.4697304" lon="6.8431511"><ele></ele><time>2022-5-30T20:34:44Z</time></trkpt>
<trkpt lat="43.4697088" lon="6.8431738"><ele></ele><time>2022-5-30T20:34:47Z</time></trkpt>
<trkpt lat="43.4696877" lon="6.8432085"><ele></ele><time>2022-5-30T20:34:50Z</time></trkpt>
<trkpt lat="43.4696606" lon="6.8432457"><ele></ele><time>2022-5-30T20:34:53Z</time></trkpt>
<trkpt lat="43.4696401" lon="6.8432688"><ele></ele><time>2022-5-30T20:34:56Z</time></trkpt>
<trkpt lat="43.4696315" lon="6.8432831"><ele></ele><time>2022-5-30T20:34:59Z</time></trkpt>
<trkpt lat="43.4696119" lon="6.8433011"><ele></ele><time>2022-5-30T20:35:2Z</time></trkpt>
<trkpt lat="43.4695840" lon="6.8433171"><ele></ele><time>2022-5-30T20:35:5Z</time></trkpt>
<trkpt lat="43.4695559" lon="6.8433420"><ele></ele><time>2022-5-30T20:35:8Z</time></trkpt>
<trkpt lat="43.4695332" lon="6.8433700"><ele></ele><time>2022-5-30T20:35:11Z</time></trkpt>
<trkpt lat="43.4695107" lon="6.8433877"><ele></ele><time>2022-5-30T20:35:14Z</time></trkpt>
<trkpt lat="43.4694846" lon="6.8434103"><ele></ele><time>2022-5-30T20:35:17Z</time></trkpt>
<trkpt lat="43.4694601" lon="6.8434404"><ele></ele><time>2022-5-30T20:35:20Z</time></trkpt>
<trkpt lat="43.4694367" lon="6.8434691"><ele></ele><time>2022-5-30T20:35:23Z</time></trkpt>
<trkpt lat="43.4694130" lon="6.8435043"><ele></ele><time>2022-5-30T20:35:26Z</time></trkpt>
<trkpt lat="43.4693837" lon="6.8435408"><ele></ele><time>2022-5-30T20:35:29Z</time></trkpt>
<trkpt lat="43.4693662" lon="6.8435677"><ele></ele><time>2022-5-30T20:35:32Z</time></trkpt>
<trkpt lat="43.4693527" lon="6.8435976"><ele></ele><time>2022-5-30T20:35:35Z</time></trkpt>
<trkpt lat="43.4693495" lon="6.8436343"><ele></ele><time>2022-5-30T20:35:38Z</time></trkpt>
<trkpt lat="43.4693421" lon="6.8436750"><ele></ele><time>2022-5-30T20:35:41Z</time></trkpt>
<trkpt lat="43.4693526" lon="6.8437151"><ele></ele><time>2022-5-30T20:35:44Z</time></trkpt>
<trkpt lat="43.4693735" lon="6.8437519"><ele></ele><time>2022-5-30T20:35:47Z</time></trkpt>
<trkpt lat="43.4693939" lon="6.8437889"><ele></ele><time>2022-5-30T20:35:50Z</time></trkpt>
<trkpt lat="43.4694196" lon="6.8438186"><ele></ele><time>2022-5-30T20:35:53Z</time></trkpt>
<trkpt lat="43.4694461" lon="6.8438508"><ele></ele><time>2022-5-30T20:35:56Z</time></trkpt>
<trkpt lat="43.4694762" lon="6.8438771"><ele></ele><time>2022-5-30T20:35:59Z</time></trkpt>
<trkpt lat="43.4695126" lon="6.8438930"><ele></ele><time>2022-5-30T20:36:2Z</time></trkpt>
<trkpt lat="43.4695515" lon="6.8439009"><ele></ele><time>2022-5-30T20:36:5Z</time></trkpt>
<trkpt lat="43.4695932" lon="6.8439077"><ele></ele><time>2022-5-30T20:36:8Z</time></trkpt>
<trkpt lat="43.4696459" lon="6.8439068"><ele></ele><time>2022-5-30T20:36:11Z</time></trkpt>
<trkpt lat="43.4697007" lon="6.8439102"><ele></ele><time>2022-5-30T20:36:14Z</time></trkpt>
<trkpt lat="43.4697607" lon="6.8439122"><ele></ele><time>2022-5-30T20:36:17Z</time></trkpt>
<trkpt lat="43.4698213" lon="6.8439230"><ele></ele><time>2022-5-30T20:36:20Z</time></trkpt>
<trkpt lat="43.4698750" lon="6.8439395"><ele></ele><time>2022-5-30T20:36:23Z</time></trkpt>
<trkpt lat="43.4699094" lon="6.8439933"><ele></ele><time>2022-5-30T20:36:26Z</time></trkpt>
<trkpt lat="43.4699304" lon="6.8440673"><ele></ele><time>2022-5-30T20:36:29Z</time></trkpt>
<trkpt lat="43.4699412" lon="6.8441461"><ele></ele><time>2022-5-30T20:36:32Z</time></trkpt>
<trkpt lat="43.4699635" lon="6.8442186"><ele></ele><time>2022-5-30T20:36:35Z</time></trkpt>
<trkpt lat="43.4699857" lon="6.8442936"><ele></ele><time>2022-5-30T20:36:38Z</time></trkpt>
<trkpt lat="43.4700104" lon="6.8443687"><ele></ele><time>2022-5-30T20:36:41Z</time></trkpt>
<trkpt lat="43.4700523" lon="6.8444486"><ele></ele><time>2022-5-30T20:36:44Z</time></trkpt>
<trkpt lat="43.4700916" lon="6.8445220"><ele></ele><time>2022-5-30T20:36:47Z</time></trkpt>
<trkpt lat="43.4701286" lon="6.8445986"><ele></ele><time>2022-5-30T20:36:50Z</time></trkpt>
<trkpt lat="43.4701624" lon="6.8446733"><ele></ele><time>2022-5-30T20:36:53Z</time></trkpt>
<trkpt lat="43.4701939" lon="6.8447457"><ele></ele><time>2022-5-30T20:36:56Z</time></trkpt>
<trkpt lat="43.4702275" lon="6.8448177"><ele></ele><time>2022-5-30T20:36:59Z</time></trkpt>
<trkpt lat="43.4702648" lon="6.8448916"><ele></ele><time>2022-5-30T20:37:2Z</time></trkpt>
<trkpt lat="43.4703011" lon="6.8449633"><ele></ele><time>2022-5-30T20:37:5Z</time></trkpt>
<trkpt lat="43.4703416" lon="6.8450345"><ele></ele><time>2022-5-30T20:37:8Z</time></trkpt>
<trkpt lat="43.4703965" lon="6.8451008"><ele></ele><time>2022-5-30T20:37:11Z</time></trkpt>
<trkpt lat="43.4704464" lon="6.8451738"><ele></ele><time>2022-5-30T20:37:14Z</time></trkpt>
<trkpt lat="43.4704930" lon="6.8452481"><ele></ele><time>2022-5-30T20:37:17Z</time></trkpt>
<trkpt lat="43.4705301" lon="6.8453306"><ele></ele><time>2022-5-30T20:37:20Z</time></trkpt>
<trkpt lat="43.4705525" lon="6.8454213"><ele></ele><time>2022-5-30T20:37:23Z</time></trkpt>
<trkpt lat="43.4705761" lon="6.8455102"><ele></ele><time>2022-5-30T20:37:26Z</time></trkpt>
<trkpt lat="43.4706014" lon="6.8455945"><ele></ele><time>2022-5-30T20:37:29Z</time></trkpt>
<trkpt lat="43.4706251" lon="6.8456794"><ele></ele><time>2022-5-30T20:37:32Z</time></trkpt>
<trkpt lat="43.4706434" lon="6.8457689"><ele></ele><time>2022-5-30T20:37:35Z</time></trkpt>
<trkpt lat="43.4706633" lon="6.8458549"><ele></ele><time>2022-5-30T20:37:38Z</time></trkpt>
<trkpt lat="43.4706854" lon="6.8459335"><ele></ele><time>2022-5-30T20:37:41Z</time></trkpt>
<trkpt lat="43.4707052" lon="6.8460105"><ele></ele><time>2022-5-30T20:37:44Z</time></trkpt>
<trkpt lat="43.4707297" lon="6.8460911"><ele></ele><time>2022-5-30T20:37:47Z</time></trkpt>
<trkpt lat="43.4707426" lon="6.8461796"><ele></ele><time>2022-5-30T20:37:50Z</time></trkpt>
<trkpt lat="43.4707203" lon="6.8462638"><ele></ele><time>2022-5-30T20:37:53Z</time></trkpt>
<trkpt lat="43.4706736" lon="6.8463257"><ele></ele><time>2022-5-30T20:37:56Z</time></trkpt>
<trkpt lat="43.4706150" lon="6.8463442"><ele></ele><time>2022-5-30T20:37:59Z</time></trkpt>
<trkpt lat="43.4705631" lon="6.8463387"><ele></ele><time>2022-5-30T20:38:2Z</time></trkpt>
<trkpt lat="43.4705146" lon="6.8463297"><ele></ele><time>2022-5-30T20:38:5Z</time></trkpt>
<trkpt lat="43.4704617" lon="6.8463255"><ele></ele><time>2022-5-30T20:38:8Z</time></trkpt>
<trkpt lat="43.4703947" lon="6.8463290"><ele></ele><time>2022-5-30T20:38:11Z</time></trkpt>
<trkpt lat="43.4703278" lon="6.8463363"><ele></ele><time>2022-5-30T20:38:14Z</time></trkpt>
<trkpt lat="43.4702614" lon="6.8463584"><ele></ele><time>2022-5-30T20:38:17Z</time></trkpt>
<trkpt lat="43.4701971" lon="6.8464027"><ele></ele><time>2022-5-30T20:38:20Z</time></trkpt>
<trkpt lat="43.4701331" lon="6.8464427"><ele></ele><time>2022-5-30T20:38:23Z</time></trkpt>
<trkpt lat="43.4700681" lon="6.8464760"><ele></ele><time>2022-5-30T20:38:26Z</time></trkpt>
<trkpt lat="43.4700027" lon="6.8465131"><ele></ele><time>2022-5-30T20:38:29Z</time></trkpt>
<trkpt lat="43.4699394" lon="6.8465542"><ele></ele><time>2022-5-30T20:38:32Z</time></trkpt>
<trkpt lat="43.4698761" lon="6.8465918"><ele></ele><time>2022-5-30T20:38:35Z</time></trkpt>
<trkpt lat="43.4698125" lon="6.8466329"><ele></ele><time>2022-5-30T20:38:38Z</time></trkpt>
<trkpt lat="43.4697470" lon="6.8466782"><ele></ele><time>2022-5-30T20:38:41Z</time></trkpt>
<trkpt lat="43.4696823" lon="6.8467300"><ele></ele><time>2022-5-30T20:38:44Z</time></trkpt>
<trkpt lat="43.4696212" lon="6.8467891"><ele></ele><time>2022-5-30T20:38:47Z</time></trkpt>
<trkpt lat="43.4695615" lon="6.8468515"><ele></ele><time>2022-5-30T20:38:50Z</time></trkpt>
<trkpt lat="43.4695062" lon="6.8469197"><ele></ele><time>2022-5-30T20:38:53Z</time></trkpt>
<trkpt lat="43.4694510" lon="6.8469882"><ele></ele><time>2022-5-30T20:38:56Z</time></trkpt>
<trkpt lat="43.4693996" lon="6.8470648"><ele></ele><time>2022-5-30T20:38:59Z</time></trkpt>
<trkpt lat="43.4693492" lon="6.8471444"><ele></ele><time>2022-5-30T20:39:2Z</time></trkpt>
<trkpt lat="43.4692951" lon="6.8472203"><ele></ele><time>2022-5-30T20:39:5Z</time></trkpt>
<trkpt lat="43.4692449" lon="6.8473026"><ele></ele><time>2022-5-30T20:39:8Z</time></trkpt>
<trkpt lat="43.4691946" lon="6.8473830"><ele></ele><time>2022-5-30T20:39:11Z</time></trkpt>
<trkpt lat="43.4691475" lon="6.8474669"><ele></ele><time>2022-5-30T20:39:14Z</time></trkpt>
<trkpt lat="43.4690958" lon="6.8475473"><ele></ele><time>2022-5-30T20:39:17Z</time></trkpt>
<trkpt lat="43.4690325" lon="6.8476059"><ele></ele><time>2022-5-30T20:39:20Z</time></trkpt>
<trkpt lat="43.4689713" lon="6.8476649"><ele></ele><time>2022-5-30T20:39:23Z</time></trkpt>
<trkpt lat="43.4689089" lon="6.8477182"><ele></ele><time>2022-5-30T20:39:26Z</time></trkpt>
<trkpt lat="43.4688458" lon="6.8477717"><ele></ele><time>2022-5-30T20:39:29Z</time></trkpt>
<trkpt lat="43.4687827" lon="6.8478256"><ele></ele><time>2022-5-30T20:39:32Z</time></trkpt>
<trkpt lat="43.4687156" lon="6.8478622"><ele></ele><time>2022-5-30T20:39:35Z</time></trkpt>
<trkpt lat="43.4686418" lon="6.8478701"><ele></ele><time>2022-5-30T20:39:38Z</time></trkpt>
<trkpt lat="43.4685728" lon="6.8478553"><ele></ele><time>2022-5-30T20:39:41Z</time></trkpt>
<trkpt lat="43.4685077" lon="6.8478261"><ele></ele><time>2022-5-30T20:39:44Z</time></trkpt>
<trkpt lat="43.4684401" lon="6.8478048"><ele></ele><time>2022-5-30T20:39:47Z</time></trkpt>
<trkpt lat="43.4683704" lon="6.8477954"><ele></ele><time>2022-5-30T20:39:50Z</time></trkpt>
<trkpt lat="43.4683011" lon="6.8477865"><ele></ele><time>2022-5-30T20:39:53Z</time></trkpt>
<trkpt lat="43.4682318" lon="6.8477821"><ele></ele><time>2022-5-30T20:39:56Z</time></trkpt>
<trkpt lat="43.4681627" lon="6.8477749"><ele></ele><time>2022-5-30T20:39:59Z</time></trkpt>
<trkpt lat="43.4680937" lon="6.8477688"><ele></ele><time>2022-5-30T20:40:2Z</time></trkpt>
<trkpt lat="43.4680250" lon="6.8477634"><ele></ele><time>2022-5-30T20:40:5Z</time></trkpt>
<trkpt lat="43.4679579" lon="6.8477553"><ele></ele><time>2022-5-30T20:40:8Z</time></trkpt>
<trkpt lat="43.4678908" lon="6.8477546"><ele></ele><time>2022-5-30T20:40:11Z</time></trkpt>
<trkpt lat="43.4678214" lon="6.8477604"><ele></ele><time>2022-5-30T20:40:14Z</time></trkpt>
<trkpt lat="43.4677502" lon="6.8477767"><ele></ele><time>2022-5-30T20:40:17Z</time></trkpt>
<trkpt lat="43.4676815" lon="6.8477862"><ele></ele><time>2022-5-30T20:40:20Z</time></trkpt>
<trkpt lat="43.4676195" lon="6.8477867"><ele></ele><time>2022-5-30T20:40:23Z</time></trkpt>
<trkpt lat="43.4675570" lon="6.8477829"><ele></ele><time>2022-5-30T20:40:26Z</time></trkpt>
<trkpt lat="43.4674946" lon="6.8477687"><ele></ele><time>2022-5-30T20:40:29Z</time></trkpt>
<trkpt lat="43.4674309" lon="6.8477391"><ele></ele><time>2022-5-30T20:40:32Z</time></trkpt>
<trkpt lat="43.4673668" lon="6.8477025"><ele></ele><time>2022-5-30T20:40:35Z</time></trkpt>
<trkpt lat="43.4672982" lon="6.8476687"><ele></ele><time>2022-5-30T20:40:38Z</time></trkpt>
<trkpt lat="43.4672244" lon="6.8476411"><ele></ele><time>2022-5-30T20:40:41Z</time></trkpt>
<trkpt lat="43.4671530" lon="6.8476344"><ele></ele><time>2022-5-30T20:40:44Z</time></trkpt>
<trkpt lat="43.4670868" lon="6.8476512"><ele></ele><time>2022-5-30T20:40:47Z</time></trkpt>
<trkpt lat="43.4670202" lon="6.8476828"><ele></ele><time>2022-5-30T20:40:50Z</time></trkpt>
<trkpt lat="43.4669570" lon="6.8477205"><ele></ele><time>2022-5-30T20:40:53Z</time></trkpt>
<trkpt lat="43.4668967" lon="6.8477673"><ele></ele><time>2022-5-30T20:40:56Z</time></trkpt>
<trkpt lat="43.4668396" lon="6.8478241"><ele></ele><time>2022-5-30T20:40:59Z</time></trkpt>
<trkpt lat="43.4667878" lon="6.8478900"><ele></ele><time>2022-5-30T20:41:2Z</time></trkpt>
<trkpt lat="43.4667411" lon="6.8479622"><ele></ele><time>2022-5-30T20:41:5Z</time></trkpt>
<trkpt lat="43.4667076" lon="6.8480444"><ele></ele><time>2022-5-30T20:41:8Z</time></trkpt>
<trkpt lat="43.4666951" lon="6.8481368"><ele></ele><time>2022-5-30T20:41:11Z</time></trkpt>
<trkpt lat="43.4666976" lon="6.8482333"><ele></ele><time>2022-5-30T20:41:14Z</time></trkpt>
<trkpt lat="43.4667258" lon="6.8483174"><ele></ele><time>2022-5-30T20:41:17Z</time></trkpt>
<trkpt lat="43.4667694" lon="6.8483930"><ele></ele><time>2022-5-30T20:41:20Z</time></trkpt>
<trkpt lat="43.4668261" lon="6.8484558"><ele></ele><time>2022-5-30T20:41:23Z</time></trkpt>
<trkpt lat="43.4668786" lon="6.8485255"><ele></ele><time>2022-5-30T20:41:26Z</time></trkpt>
<trkpt lat="43.4669291" lon="6.8485941"><ele></ele><time>2022-5-30T20:41:29Z</time></trkpt>
<trkpt lat="43.4669784" lon="6.8486667"><ele></ele><time>2022-5-30T20:41:32Z</time></trkpt>
<trkpt lat="43.4670277" lon="6.8487434"><ele></ele><time>2022-5-30T20:41:35Z</time></trkpt>
<trkpt lat="43.4670808" lon="6.8488164"><ele></ele><time>2022-5-30T20:41:38Z</time></trkpt>
<trkpt lat="43.4671349" lon="6.8488876"><ele></ele><time>2022-5-30T20:41:41Z</time></trkpt>
<trkpt lat="43.4671898" lon="6.8489576"><ele></ele><time>2022-5-30T20:41:44Z</time></trkpt>
<trkpt lat="43.4672465" lon="6.8490224"><ele></ele><time>2022-5-30T20:41:47Z</time></trkpt>
<trkpt lat="43.4673044" lon="6.8490844"><ele></ele><time>2022-5-30T20:41:50Z</time></trkpt>
<trkpt lat="43.4673653" lon="6.8491385"><ele></ele><time>2022-5-30T20:41:53Z</time></trkpt>
<trkpt lat="43.4674317" lon="6.8491748"><ele></ele><time>2022-5-30T20:41:56Z</time></trkpt>
<trkpt lat="43.4674953" lon="6.8492109"><ele></ele><time>2022-5-30T20:41:59Z</time></trkpt>
<trkpt lat="43.4675554" lon="6.8492524"><ele></ele><time>2022-5-30T20:42:2Z</time></trkpt>
<trkpt lat="43.4676080" lon="6.8493050"><ele></ele><time>2022-5-30T20:42:5Z</time></trkpt>
<trkpt lat="43.4676432" lon="6.8493773"><ele></ele><time>2022-5-30T20:42:8Z</time></trkpt>
<trkpt lat="43.4676589" lon="6.8494628"><ele></ele><time>2022-5-30T20:42:11Z</time></trkpt>
<trkpt lat="43.4676609" lon="6.8495494"><ele></ele><time>2022-5-30T20:42:14Z</time></trkpt>
<trkpt lat="43.4676398" lon="6.8496312"><ele></ele><time>2022-5-30T20:42:17Z</time></trkpt>
<trkpt lat="43.4676198" lon="6.8497125"><ele></ele><time>2022-5-30T20:42:20Z</time></trkpt>
<trkpt lat="43.4676183" lon="6.8497962"><ele></ele><time>2022-5-30T20:42:23Z</time></trkpt>
<trkpt lat="43.4676258" lon="6.8498810"><ele></ele><time>2022-5-30T20:42:26Z</time></trkpt>
<trkpt lat="43.4676426" lon="6.8499658"><ele></ele><time>2022-5-30T20:42:29Z</time></trkpt>
<trkpt lat="43.4676634" lon="6.8500521"><ele></ele><time>2022-5-30T20:42:32Z</time></trkpt>
<trkpt lat="43.4676952" lon="6.8501314"><ele></ele><time>2022-5-30T20:42:35Z</time></trkpt>
<trkpt lat="43.4677294" lon="6.8502083"><ele></ele><time>2022-5-30T20:42:38Z</time></trkpt>
<trkpt lat="43.4677607" lon="6.8502833"><ele></ele><time>2022-5-30T20:42:41Z</time></trkpt>
<trkpt lat="43.4677878" lon="6.8503625"><ele></ele><time>2022-5-30T20:42:44Z</time></trkpt>
<trkpt lat="43.4677812" lon="6.8504528"><ele></ele><time>2022-5-30T20:42:47Z</time></trkpt>
<trkpt lat="43.4677568" lon="6.8505290"><ele></ele><time>2022-5-30T20:42:50Z</time></trkpt>
<trkpt lat="43.4677299" lon="6.8505984"><ele></ele><time>2022-5-30T20:42:53Z</time></trkpt>
<trkpt lat="43.4676910" lon="6.8506694"><ele></ele><time>2022-5-30T20:42:56Z</time></trkpt>
<trkpt lat="43.4676556" lon="6.8507582"><ele></ele><time>2022-5-30T20:42:59Z</time></trkpt>
<trkpt lat="43.4676158" lon="6.8508447"><ele></ele><time>2022-5-30T20:43:2Z</time></trkpt>
<trkpt lat="43.4675779" lon="6.8509297"><ele></ele><time>2022-5-30T20:43:5Z</time></trkpt>
<trkpt lat="43.4675424" lon="6.8510205"><ele></ele><time>2022-5-30T20:43:8Z</time></trkpt>
<trkpt lat="43.4675047" lon="6.8511144"><ele></ele><time>2022-5-30T20:43:11Z</time></trkpt>
<trkpt lat="43.4674617" lon="6.8512076"><ele></ele><time>2022-5-30T20:43:14Z</time></trkpt>
<trkpt lat="43.4674174" lon="6.8512987"><ele></ele><time>2022-5-30T20:43:17Z</time></trkpt>
<trkpt lat="43.4673870" lon="6.8513914"><ele></ele><time>2022-5-30T20:43:20Z</time></trkpt>
<trkpt lat="43.4673680" lon="6.8514816"><ele></ele><time>2022-5-30T20:43:23Z</time></trkpt>
<trkpt lat="43.4673735" lon="6.8515748"><ele></ele><time>2022-5-30T20:43:26Z</time></trkpt>
<trkpt lat="43.4673762" lon="6.8516776"><ele></ele><time>2022-5-30T20:43:29Z</time></trkpt>
<trkpt lat="43.4673826" lon="6.8517871"><ele></ele><time>2022-5-30T20:43:32Z</time></trkpt>
<trkpt lat="43.4673908" lon="6.8518997"><ele></ele><time>2022-5-30T20:43:35Z</time></trkpt>
<trkpt lat="43.4674071" lon="6.8520115"><ele></ele><time>2022-5-30T20:43:38Z</time></trkpt>
<trkpt lat="43.4674326" lon="6.8521213"><ele></ele><time>2022-5-30T20:43:41Z</time></trkpt>
<trkpt lat="43.4674537" lon="6.8522338"><ele></ele><time>2022-5-30T20:43:44Z</time></trkpt>
<trkpt lat="43.4674802" lon="6.8523391"><ele></ele><time>2022-5-30T20:43:47Z</time></trkpt>
<trkpt lat="43.4675021" lon="6.8524467"><ele></ele><time>2022-5-30T20:43:50Z</time></trkpt>
<trkpt lat="43.4675269" lon="6.8525533"><ele></ele><time>2022-5-30T20:43:53Z</time></trkpt>
<trkpt lat="43.4675388" lon="6.8526637"><ele></ele><time>2022-5-30T20:43:56Z</time></trkpt>
<trkpt lat="43.4675409" lon="6.8527740"><ele></ele><time>2022-5-30T20:43:59Z</time></trkpt>
<trkpt lat="43.4675434" lon="6.8528848"><ele></ele><time>2022-5-30T20:44:2Z</time></trkpt>
<trkpt lat="43.4675523" lon="6.8530056"><ele></ele><time>2022-5-30T20:44:5Z</time></trkpt>
<trkpt lat="43.4675618" lon="6.8531215"><ele></ele><time>2022-5-30T20:44:8Z</time></trkpt>
<trkpt lat="43.4675726" lon="6.8532339"><ele></ele><time>2022-5-30T20:44:11Z</time></trkpt>
<trkpt lat="43.4675859" lon="6.8533410"><ele></ele><time>2022-5-30T20:44:14Z</time></trkpt>
<trkpt lat="43.4676082" lon="6.8534417"><ele></ele><time>2022-5-30T20:44:17Z</time></trkpt>
<trkpt lat="43.4676317" lon="6.8535437"><ele></ele><time>2022-5-30T20:44:20Z</time></trkpt>
<trkpt lat="43.4676458" lon="6.8536503"><ele></ele><time>2022-5-30T20:44:23Z</time></trkpt>
<trkpt lat="43.4676585" lon="6.8537585"><ele></ele><time>2022-5-30T20:44:26Z</time></trkpt>
<trkpt lat="43.4676540" lon="6.8538707"><ele></ele><time>2022-5-30T20:44:29Z</time></trkpt>
<trkpt lat="43.4676528" lon="6.8539781"><ele></ele><time>2022-5-30T20:44:32Z</time></trkpt>
<trkpt lat="43.4676537" lon="6.8540794"><ele></ele><time>2022-5-30T20:44:35Z</time></trkpt>
<trkpt lat="43.4676543" lon="6.8541818"><ele></ele><time>2022-5-30T20:44:38Z</time></trkpt>
<trkpt lat="43.4676602" lon="6.8542889"><ele></ele><time>2022-5-30T20:44:41Z</time></trkpt>
<trkpt lat="43.4676655" lon="6.8543951"><ele></ele><time>2022-5-30T20:44:44Z</time></trkpt>
<trkpt lat="43.4676836" lon="6.8544945"><ele></ele><time>2022-5-30T20:44:47Z</time></trkpt>
<trkpt lat="43.4677097" lon="6.8545914"><ele></ele><time>2022-5-30T20:44:50Z</time></trkpt>
<trkpt lat="43.4677388" lon="6.8546855"><ele></ele><time>2022-5-30T20:44:53Z</time></trkpt>
<trkpt lat="43.4677754" lon="6.8547763"><ele></ele><time>2022-5-30T20:44:56Z</time></trkpt>
<trkpt lat="43.4678212" lon="6.8548635"><ele></ele><time>2022-5-30T20:44:59Z</time></trkpt>
<trkpt lat="43.4678588" lon="6.8549579"><ele></ele><time>2022-5-30T20:45:2Z</time></trkpt>
<trkpt lat="43.4678998" lon="6.8550457"><ele></ele><time>2022-5-30T20:45:5Z</time></trkpt>
<trkpt lat="43.4679477" lon="6.8551244"><ele></ele><time>2022-5-30T20:45:8Z</time></trkpt>
<trkpt lat="43.4680057" lon="6.8551910"><ele></ele><time>2022-5-30T20:45:11Z</time></trkpt>
<trkpt lat="43.4680703" lon="6.8552452"><ele></ele><time>2022-5-30T20:45:14Z</time></trkpt>
<trkpt lat="43.4681345" lon="6.8553012"><ele></ele><time>2022-5-30T20:45:17Z</time></trkpt>
<trkpt lat="43.4682001" lon="6.8553561"><ele></ele><time>2022-5-30T20:45:20Z</time></trkpt>
<trkpt lat="43.4682714" lon="6.8553952"><ele></ele><time>2022-5-30T20:45:23Z</time></trkpt>
<trkpt lat="43.4683464" lon="6.8554176"><ele></ele><time>2022-5-30T20:45:26Z</time></trkpt>
<trkpt lat="43.4684230" lon="6.8554316"><ele></ele><time>2022-5-30T20:45:29Z</time></trkpt>
<trkpt lat="43.4684927" lon="6.8554507"><ele></ele><time>2022-5-30T20:45:32Z</time></trkpt>
<trkpt lat="43.4685606" lon="6.8554642"><ele></ele><time>2022-5-30T20:45:35Z</time></trkpt>
<trkpt lat="43.4686326" lon="6.8554796"><ele></ele><time>2022-5-30T20:45:38Z</time></trkpt>
<trkpt lat="43.4687012" lon="6.8554997"><ele></ele><time>2022-5-30T20:45:41Z</time></trkpt>
<trkpt lat="43.4687682" lon="6.8555172"><ele></ele><time>2022-5-30T20:45:44Z</time></trkpt>
<trkpt lat="43.4688355" lon="6.8555313"><ele></ele><time>2022-5-30T20:45:47Z</time></trkpt>
<trkpt lat="43.4689032" lon="6.8555467"><ele></ele><time>2022-5-30T20:45:50Z</time></trkpt>
<trkpt lat="43.4689726" lon="6.8555613"><ele></ele><time>2022-5-30T20:45:53Z</time></trkpt>
<trkpt lat="43.4690442" lon="6.8555860"><ele></ele><time>2022-5-30T20:45:56Z</time></trkpt>
<trkpt lat="43.4691117" lon="6.8556242"><ele></ele><time>2022-5-30T20:45:59Z</time></trkpt>
<trkpt lat="43.4691702" lon="6.8556759"><ele></ele><time>2022-5-30T20:46:2Z</time></trkpt>
<trkpt lat="43.4692330" lon="6.8557319"><ele></ele><time>2022-5-30T20:46:5Z</time></trkpt>
<trkpt lat="43.4692962" lon="6.8557726"><ele></ele><time>2022-5-30T20:46:8Z</time></trkpt>
<trkpt lat="43.4693617" lon="6.8557927"><ele></ele><time>2022-5-30T20:46:11Z</time></trkpt>
<trkpt lat="43.4694344" lon="6.8558051"><ele></ele><time>2022-5-30T20:46:14Z</time></trkpt>
<trkpt lat="43.4695050" lon="6.8558167"><ele></ele><time>2022-5-30T20:46:17Z</time></trkpt>
<trkpt lat="43.4695765" lon="6.8558193"><ele></ele><time>2022-5-30T20:46:20Z</time></trkpt>
<trkpt lat="43.4696428" lon="6.8558388"><ele></ele><time>2022-5-30T20:46:23Z</time></trkpt>
<trkpt lat="43.4697024" lon="6.8558275"><ele></ele><time>2022-5-30T20:46:26Z</time></trkpt>
<trkpt lat="43.4697612" lon="6.8558349"><ele></ele><time>2022-5-30T20:46:29Z</time></trkpt>
<trkpt lat="43.4698201" lon="6.8558518"><ele></ele><time>2022-5-30T20:46:32Z</time></trkpt>
<trkpt lat="43.4698812" lon="6.8558835"><ele></ele><time>2022-5-30T20:46:35Z</time></trkpt>
<trkpt lat="43.4699419" lon="6.8559191"><ele></ele><time>2022-5-30T20:46:38Z</time></trkpt>
<trkpt lat="43.4699963" lon="6.8559532"><ele></ele><time>2022-5-30T20:46:41Z</time></trkpt>
<trkpt lat="43.4700516" lon="6.8559829"><ele></ele><time>2022-5-30T20:46:44Z</time></trkpt>
<trkpt lat="43.4701148" lon="6.8560198"><ele></ele><time>2022-5-30T20:46:47Z</time></trkpt>
<trkpt lat="43.4701805" lon="6.8560561"><ele></ele><time>2022-5-30T20:46:50Z</time></trkpt>
<trkpt lat="43.4702418" lon="6.8560818"><ele></ele><time>2022-5-30T20:46:53Z</time></trkpt>
<trkpt lat="43.4702923" lon="6.8561012"><ele></ele><time>2022-5-30T20:46:56Z</time></trkpt>
<trkpt lat="43.4703253" lon="6.8561324"><ele></ele><time>2022-5-30T20:46:59Z</time></trkpt>
<trkpt lat="43.4703504" lon="6.8561727"><ele></ele><time>2022-5-30T20:47:2Z</time></trkpt>
<trkpt lat="43.4703611" lon="6.8562188"><ele></ele><time>2022-5-30T20:47:5Z</time></trkpt>
<trkpt lat="43.4703458" lon="6.8562612"><ele></ele><time>2022-5-30T20:47:8Z</time></trkpt>
<trkpt lat="43.4703238" lon="6.8562818"><ele></ele><time>2022-5-30T20:47:11Z</time></trkpt>
<trkpt lat="43.4702866" lon="6.8562892"><ele></ele><time>2022-5-30T20:47:14Z</time></trkpt>
<trkpt lat="43.4702540" lon="6.8563184"><ele></ele><time>2022-5-30T20:47:17Z</time></trkpt>
<trkpt lat="43.4702181" lon="6.8563583"><ele></ele><time>2022-5-30T20:47:20Z</time></trkpt>
<trkpt lat="43.4701759" lon="6.8563870"><ele></ele><time>2022-5-30T20:47:23Z</time></trkpt>
<trkpt lat="43.4701291" lon="6.8563916"><ele></ele><time>2022-5-30T20:47:26Z</time></trkpt>
<trkpt lat="43.4700810" lon="6.8563705"><ele></ele><time>2022-5-30T20:47:29Z</time></trkpt>
<trkpt lat="43.4700331" lon="6.8563520"><ele></ele><time>2022-5-30T20:47:32Z</time></trkpt>
<trkpt lat="43.4699899" lon="6.8563493"><ele></ele><time>2022-5-30T20:47:35Z</time></trkpt>
<trkpt lat="43.4699442" lon="6.8563416"><ele></ele><time>2022-5-30T20:47:38Z</time></trkpt>
<trkpt lat="43.4699054" lon="6.8563287"><ele></ele><time>2022-5-30T20:47:41Z</time></trkpt>
<trkpt lat="43.4698686" lon="6.8563187"><ele></ele><time>2022-5-30T20:47:44Z</time></trkpt>
<trkpt lat="43.4698306" lon="6.8563059"><ele></ele><time>2022-5-30T20:47:47Z</time></trkpt>
<trkpt lat="43.4697926" lon="6.8562969"><ele></ele><time>2022-5-30T20:47:50Z</time></trkpt>
<trkpt lat="43.4697524" lon="6.8562917"><ele></ele><time>2022-5-30T20:47:53Z</time></trkpt>
<trkpt lat="43.4697188" lon="6.8562930"><ele></ele><time>2022-5-30T20:47:56Z</time></trkpt>
<trkpt lat="43.4696862" lon="6.8562969"><ele></ele><time>2022-5-30T20:47:59Z</time></trkpt>
<trkpt lat="43.4696501" lon="6.8562964"><ele></ele><time>2022-5-30T20:48:2Z</time></trkpt>
<trkpt lat="43.4696080" lon="6.8562902"><ele></ele><time>2022-5-30T20:48:5Z</time></trkpt>
<trkpt lat="43.4695813" lon="6.8562953"><ele></ele><time>2022-5-30T20:48:8Z</time></trkpt>
<trkpt lat="43.4695529" lon="6.8563028"><ele></ele><time>2022-5-30T20:48:11Z</time></trkpt>
<trkpt lat="43.4695230" lon="6.8563079"><ele></ele><time>2022-5-30T20:48:14Z</time></trkpt>
<trkpt lat="43.4694986" lon="6.8563101"><ele></ele><time>2022-5-30T20:48:17Z</time></trkpt>
<trkpt lat="43.4694709" lon="6.8563111"><ele></ele><time>2022-5-30T20:48:20Z</time></trkpt>
<trkpt lat="43.4694487" lon="6.8563167"><ele></ele><time>2022-5-30T20:48:23Z</time></trkpt>
<trkpt lat="43.4694256" lon="6.8563272"><ele></ele><time>2022-5-30T20:48:26Z</time></trkpt>
<trkpt lat="43.4694002" lon="6.8563319"><ele></ele><time>2022-5-30T20:48:29Z</time></trkpt>
<trkpt lat="43.4693777" lon="6.8563415"><ele></ele><time>2022-5-30T20:48:32Z</time></trkpt>
<trkpt lat="43.4693513" lon="6.8563357"><ele></ele><time>2022-5-30T20:48:35Z</time></trkpt>
<trkpt lat="43.4693232" lon="6.8563347"><ele></ele><time>2022-5-30T20:48:38Z</time></trkpt>
<trkpt lat="43.4692928" lon="6.8563371"><ele></ele><time>2022-5-30T20:48:41Z</time></trkpt>
<trkpt lat="43.4692595" lon="6.8563365"><ele></ele><time>2022-5-30T20:48:44Z</time></trkpt>
<trkpt lat="43.4692308" lon="6.8563434"><ele></ele><time>2022-5-30T20:48:47Z</time></trkpt>
<trkpt lat="43.4692005" lon="6.8563546"><ele></ele><time>2022-5-30T20:48:50Z</time></trkpt>
<trkpt lat="43.4691715" lon="6.8563609"><ele></ele><time>2022-5-30T20:48:53Z</time></trkpt>
<trkpt lat="43.4691444" lon="6.8563687"><ele></ele><time>2022-5-30T20:48:56Z</time></trkpt>
<trkpt lat="43.4691162" lon="6.8563842"><ele></ele><time>2022-5-30T20:48:59Z</time></trkpt>
<trkpt lat="43.4690897" lon="6.8563999"><ele></ele><time>2022-5-30T20:49:2Z</time></trkpt>
<trkpt lat="43.4690603" lon="6.8564144"><ele></ele><time>2022-5-30T20:49:5Z</time></trkpt>
<trkpt lat="43.4690267" lon="6.8564283"><ele></ele><time>2022-5-30T20:49:8Z</time></trkpt>
<trkpt lat="43.4689901" lon="6.8564324"><ele></ele><time>2022-5-30T20:49:11Z</time></trkpt>
<trkpt lat="43.4689594" lon="6.8564355"><ele></ele><time>2022-5-30T20:49:14Z</time></trkpt>
<trkpt lat="43.4689335" lon="6.8564424"><ele></ele><time>2022-5-30T20:49:17Z</time></trkpt>
<trkpt lat="43.4689062" lon="6.8564482"><ele></ele><time>2022-5-30T20:49:20Z</time></trkpt>
<trkpt lat="43.4688768" lon="6.8564398"><ele></ele><time>2022-5-30T20:49:23Z</time></trkpt>
<trkpt lat="43.4688467" lon="6.8564252"><ele></ele><time>2022-5-30T20:49:26Z</time></trkpt>
<trkpt lat="43.4688194" lon="6.8564164"><ele></ele><time>2022-5-30T20:49:29Z</time></trkpt>
<trkpt lat="43.4687959" lon="6.8564182"><ele></ele><time>2022-5-30T20:49:32Z</time></trkpt>
<trkpt lat="43.4687751" lon="6.8564260"><ele></ele><time>2022-5-30T20:49:35Z</time></trkpt>
<trkpt lat="43.4687528" lon="6.8564254"><ele></ele><time>2022-5-30T20:49:38Z</time></trkpt>
<trkpt lat="43.4687271" lon="6.8564190"><ele></ele><time>2022-5-30T20:49:41Z</time></trkpt>
<trkpt lat="43.4687003" lon="6.8564192"><ele></ele><time>2022-5-30T20:49:44Z</time></trkpt>
<trkpt lat="43.4686687" lon="6.8564236"><ele></ele><time>2022-5-30T20:49:47Z</time></trkpt>
<trkpt lat="43.4686397" lon="6.8564276"><ele></ele><time>2022-5-30T20:49:50Z</time></trkpt>
<trkpt lat="43.4686108" lon="6.8564293"><ele></ele><time>2022-5-30T20:49:53Z</time></trkpt>
<trkpt lat="43.4685849" lon="6.8564325"><ele></ele><time>2022-5-30T20:49:56Z</time></trkpt>
<trkpt lat="43.4685589" lon="6.8564262"><ele></ele><time>2022-5-30T20:49:59Z</time></trkpt>
<trkpt lat="43.4685311" lon="6.8564201"><ele></ele><time>2022-5-30T20:50:2Z</time></trkpt>
<trkpt lat="43.4684982" lon="6.8564125"><ele></ele><time>2022-5-30T20:50:5Z</time></trkpt>
<trkpt lat="43.4684674" lon="6.8564114"><ele></ele><time>2022-5-30T20:50:8Z</time></trkpt>
<trkpt lat="43.4684402" lon="6.8564109"><ele></ele><time>2022-5-30T20:50:11Z</time></trkpt>
<trkpt lat="43.4684152" lon="6.8564118"><ele></ele><time>2022-5-30T20:50:14Z</time></trkpt>
<trkpt lat="43.4683827" lon="6.8564104"><ele></ele><time>2022-5-30T20:50:17Z</time></trkpt>
<trkpt lat="43.4683531" lon="6.8564075"><ele></ele><time>2022-5-30T20:50:20Z</time></trkpt>
<trkpt lat="43.4683222" lon="6.8564086"><ele></ele><time>2022-5-30T20:50:23Z</time></trkpt>
<trkpt lat="43.4682952" lon="6.8564141"><ele></ele><time>2022-5-30T20:50:26Z</time></trkpt>
<trkpt lat="43.4682659" lon="6.8564165"><ele></ele><time>2022-5-30T20:50:29Z</time></trkpt>
<trkpt lat="43.4682369" lon="6.8564151"><ele></ele><time>2022-5-30T20:50:32Z</time></trkpt>
<trkpt lat="43.4682126" lon="6.8564144"><ele></ele><time>2022-5-30T20:50:35Z</time></trkpt>
<trkpt lat="43.4681872" lon="6.8564144"><ele></ele><time>2022-5-30T20:50:38Z</time></trkpt>
<trkpt lat="43.4681631" lon="6.8564166"><ele></ele><time>2022-5-30T20:50:41Z</time></trkpt>
<trkpt lat="43.4681412" lon="6.8564200"><ele></ele><time>2022-5-30T20:50:44Z</time></trkpt>
<trkpt lat="43.4681185" lon="6.8564216"><ele></ele><time>2022-5-30T20:50:47Z</time></trkpt>
<trkpt lat="43.4680912" lon="6.8564260"><ele></ele><time>2022-5-30T20:50:50Z</time></trkpt>
<trkpt lat="43.4680673" lon="6.8564305"><ele></ele><time>2022-5-30T20:50:53Z</time></trkpt>
<trkpt lat="43.4680434" lon="6.8564368"><ele></ele><time>2022-5-30T20:50:56Z</time></trkpt>
<trkpt lat="43.4680232" lon="6.8564418"><ele></ele><time>2022-5-30T20:50:59Z</time></trkpt>
<trkpt lat="43.4680026" lon="6.8564484"><ele></ele><time>2022-5-30T20:51:2Z</time></trkpt>
<trkpt lat="43.4679801" lon="6.8564562"><ele></ele><time>2022-5-30T20:51:5Z</time></trkpt>
<trkpt lat="43.4679566" lon="6.8564633"><ele></ele><time>2022-5-30T20:51:8Z</time></trkpt>
<trkpt lat="43.4679325" lon="6.8564708"><ele></ele><time>2022-5-30T20:51:11Z</time></trkpt>
<trkpt lat="43.4679041" lon="6.8564794"><ele></ele><time>2022-5-30T20:51:14Z</time></trkpt>
<trkpt lat="43.4678776" lon="6.8564873"><ele></ele><time>2022-5-30T20:51:17Z</time></trkpt>
<trkpt lat="43.4678507" lon="6.8564962"><ele></ele><time>2022-5-30T20:51:20Z</time></trkpt>
<trkpt lat="43.4678213" lon="6.8565049"><ele></ele><time>2022-5-30T20:51:23Z</time></trkpt>
<trkpt lat="43.4677946" lon="6.8565135"><ele></ele><time>2022-5-30T20:51:26Z</time></trkpt>
<trkpt lat="43.4677709" lon="6.8565237"><ele></ele><time>2022-5-30T20:51:29Z</time></trkpt>
<trkpt lat="43.4677476" lon="6.8565286"><ele></ele><time>2022-5-30T20:51:32Z</time></trkpt>
<trkpt lat="43.4677252" lon="6.8565368"><ele></ele><time>2022-5-30T20:51:35Z</time></trkpt>
<trkpt lat="43.4677037" lon="6.8565547"><ele></ele><time>2022-5-30T20:51:38Z</time></trkpt>
<trkpt lat="43.4676874" lon="6.8565685"><ele></ele><time>2022-5-30T20:51:41Z</time></trkpt>
<trkpt lat="43.4676688" lon="6.8565767"><ele></ele><time>2022-5-30T20:51:44Z</time></trkpt>
<trkpt lat="43.4676493" lon="6.8565839"><ele></ele><time>2022-5-30T20:51:47Z</time></trkpt>
<trkpt lat="43.4676295" lon="6.8565960"><ele></ele><time>2022-5-30T20:51:50Z</time></trkpt>
<trkpt lat="43.4676136" lon="6.8566107"><ele></ele><time>2022-5-30T20:51:53Z</time></trkpt>
<trkpt lat="43.4675949" lon="6.8566257"><ele></ele><time>2022-5-30T20:51:56Z</time></trkpt>
<trkpt lat="43.4675758" lon="6.8566417"><ele></ele><time>2022-5-30T20:51:59Z</time></trkpt>
<trkpt lat="43.4675564" lon="6.8566582"><ele></ele><time>2022-5-30T20:52:2Z</time></trkpt>
<trkpt lat="43.4675363" lon="6.8566740"><ele></ele><time>2022-5-30T20:52:5Z</time></trkpt>
<trkpt lat="43.4675133" lon="6.8567031"><ele></ele><time>2022-5-30T20:52:8Z</time></trkpt>
<trkpt lat="43.4674928" lon="6.8567309"><ele></ele><time>2022-5-30T20:52:11Z</time></trkpt>
<trkpt lat="43.4674746" lon="6.8567578"><ele></ele><time>2022-5-30T20:52:14Z</time></trkpt>
<trkpt lat="43.4674616" lon="6.8567820"><ele></ele><time>2022-5-30T20:52:17Z</time></trkpt>
<trkpt lat="43.4674492" lon="6.8568071"><ele></ele><time>2022-5-30T20:52:20Z</time></trkpt>
<trkpt lat="43.4674365" lon="6.8568351"><ele></ele><time>2022-5-30T20:52:23Z</time></trkpt>
<trkpt lat="43.4674247" lon="6.8568628"><ele></ele><time>2022-5-30T20:52:26Z</time></trkpt>
<trkpt lat="43.4674103" lon="6.8568865"><ele></ele><time>2022-5-30T20:52:29Z</time></trkpt>
<trkpt lat="43.4673989" lon="6.8569079"><ele></ele><time>2022-5-30T20:52:32Z</time></trkpt>
<trkpt lat="43.4673873" lon="6.8569309"><ele></ele><time>2022-5-30T20:52:35Z</time></trkpt>
<trkpt lat="43.4673751" lon="6.8569554"><ele></ele><time>2022-5-30T20:52:38Z</time></trkpt>
<trkpt lat="43.4673630" lon="6.8569816"><ele></ele><time>2022-5-30T20:52:41Z</time></trkpt>
<trkpt lat="43.4673543" lon="6.8570089"><ele></ele><time>2022-5-30T20:52:44Z</time></trkpt>
<trkpt lat="43.4673419" lon="6.8570379"><ele></ele><time>2022-5-30T20:52:47Z</time></trkpt>
<trkpt lat="43.4673320" lon="6.8570684"><ele></ele><time>2022-5-30T20:52:50Z</time></trkpt>
<trkpt lat="43.4673235" lon="6.8570986"><ele></ele><time>2022-5-30T20:52:53Z</time></trkpt>
<trkpt lat="43.4673140" lon="6.8571345"><ele></ele><time>2022-5-30T20:52:56Z</time></trkpt>
<trkpt lat="43.4673092" lon="6.8571626"><ele></ele><time>2022-5-30T20:52:59Z</time></trkpt>
<trkpt lat="43.4672999" lon="6.8571877"><ele></ele><time>2022-5-30T20:53:2Z</time></trkpt>
<trkpt lat="43.4672899" lon="6.8572122"><ele></ele><time>2022-5-30T20:53:5Z</time></trkpt>
<trkpt lat="43.4672792" lon="6.8572403"><ele></ele><time>2022-5-30T20:53:8Z</time></trkpt>
<trkpt lat="43.4672649" lon="6.8572699"><ele></ele><time>2022-5-30T20:53:11Z</time></trkpt>
<trkpt lat="43.4672531" lon="6.8572976"><ele></ele><time>2022-5-30T20:53:14Z</time></trkpt>
<trkpt lat="43.4672406" lon="6.8573261"><ele></ele><time>2022-5-30T20:53:17Z</time></trkpt>
<trkpt lat="43.4672277" lon="6.8573537"><ele></ele><time>2022-5-30T20:53:20Z</time></trkpt>
<trkpt lat="43.4672148" lon="6.8573859"><ele></ele><time>2022-5-30T20:53:23Z</time></trkpt>
<trkpt lat="43.4672006" lon="6.8574144"><ele></ele><time>2022-5-30T20:53:26Z</time></trkpt>
<trkpt lat="43.4671857" lon="6.8574479"><ele></ele><time>2022-5-30T20:53:29Z</time></trkpt>
<trkpt lat="43.4671723" lon="6.8574826"><ele></ele><time>2022-5-30T20:53:32Z</time></trkpt>
<trkpt lat="43.4671585" lon="6.8575140"><ele></ele><time>2022-5-30T20:53:35Z</time></trkpt>
<trkpt lat="43.4671446" lon="6.8575414"><ele></ele><time>2022-5-30T20:53:38Z</time></trkpt>
<trkpt lat="43.4671298" lon="6.8575715"><ele></ele><time>2022-5-30T20:53:41Z</time></trkpt>
<trkpt lat="43.4671179" lon="6.8576064"><ele></ele><time>2022-5-30T20:53:44Z</time></trkpt>
<trkpt lat="43.4671025" lon="6.8576435"><ele></ele><time>2022-5-30T20:53:47Z</time></trkpt>
<trkpt lat="43.4670874" lon="6.8576783"><ele></ele><time>2022-5-30T20:53:50Z</time></trkpt>
<trkpt lat="43.4670783" lon="6.8577126"><ele></ele><time>2022-5-30T20:53:53Z</time></trkpt>
<trkpt lat="43.4670688" lon="6.8577468"><ele></ele><time>2022-5-30T20:53:56Z</time></trkpt>
<trkpt lat="43.4670572" lon="6.8577770"><ele></ele><time>2022-5-30T20:53:59Z</time></trkpt>
<trkpt lat="43.4670494" lon="6.8578118"><ele></ele><time>2022-5-30T20:54:2Z</time></trkpt>
<trkpt lat="43.4670431" lon="6.8578453"><ele></ele><time>2022-5-30T20:54:5Z</time></trkpt>
<trkpt lat="43.4670299" lon="6.8578753"><ele></ele><time>2022-5-30T20:54:8Z</time></trkpt>
<trkpt lat="43.4670150" lon="6.8579037"><ele></ele><time>2022-5-30T20:54:11Z</time></trkpt>
<trkpt lat="43.4670011" lon="6.8579320"><ele></ele><time>2022-5-30T20:54:14Z</time></trkpt>
<trkpt lat="43.4669884" lon="6.8579601"><ele></ele><time>2022-5-30T20:54:17Z</time></trkpt>
<trkpt lat="43.4669748" lon="6.8579913"><ele></ele><time>2022-5-30T20:54:20Z</time></trkpt>
<trkpt lat="43.4669641" lon="6.8580235"><ele></ele><time>2022-5-30T20:54:23Z</time></trkpt>
<trkpt lat="43.4669539" lon="6.8580541"><ele></ele><time>2022-5-30T20:54:26Z</time></trkpt>
<trkpt lat="43.4669439" lon="6.8580842"><ele></ele><time>2022-5-30T20:54:29Z</time></trkpt>
<trkpt lat="43.4669334" lon="6.8581170"><ele></ele><time>2022-5-30T20:54:32Z</time></trkpt>
<trkpt lat="43.4669236" lon="6.8581493"><ele></ele><time>2022-5-30T20:54:35Z</time></trkpt>
<trkpt lat="43.4669150" lon="6.8581815"><ele></ele><time>2022-5-30T20:54:38Z</time></trkpt>
<trkpt lat="43.4669056" lon="6.8582092"><ele></ele><time>2022-5-30T20:54:41Z</time></trkpt>
<trkpt lat="43.4669018" lon="6.8582377"><ele></ele><time>2022-5-30T20:54:44Z</time></trkpt>
<trkpt lat="43.4668969" lon="6.8582672"><ele></ele><time>2022-5-30T20:54:47Z</time></trkpt>
<trkpt lat="43.4668887" lon="6.8582976"><ele></ele><time>2022-5-30T20:54:50Z</time></trkpt>
<trkpt lat="43.4668885" lon="6.8583283"><ele></ele><time>2022-5-30T20:54:53Z</time></trkpt>
<trkpt lat="43.4668905" lon="6.8583635"><ele></ele><time>2022-5-30T20:54:56Z</time></trkpt>
<trkpt lat="43.4668913" lon="6.8583944"><ele></ele><time>2022-5-30T20:54:59Z</time></trkpt>
<trkpt lat="43.4669001" lon="6.8584284"><ele></ele><time>2022-5-30T20:55:2Z</time></trkpt>
<trkpt lat="43.4669034" lon="6.8584614"><ele></ele><time>2022-5-30T20:55:5Z</time></trkpt>
<trkpt lat="43.4669086" lon="6.8584957"><ele></ele><time>2022-5-30T20:55:8Z</time></trkpt>
<trkpt lat="43.4669183" lon="6.8585344"><ele></ele><time>2022-5-30T20:55:11Z</time></trkpt>
<trkpt lat="43.4669274" lon="6.8585723"><ele></ele><time>2022-5-30T20:55:14Z</time></trkpt>
<trkpt lat="43.4669312" lon="6.8586067"><ele></ele><time>2022-5-30T20:55:17Z</time></trkpt>
<trkpt lat="43.4669294" lon="6.8586347"><ele></ele><time>2022-5-30T20:55:20Z</time></trkpt>
<trkpt lat="43.4669207" lon="6.8586581"><ele></ele><time>2022-5-30T20:55:23Z</time></trkpt>
<trkpt lat="43.4669058" lon="6.8586701"><ele></ele><time>2022-5-30T20:55:26Z</time></trkpt>
<trkpt lat="43.4668871" lon="6.8586774"><ele></ele><time>2022-5-30T20:55:29Z</time></trkpt>
<trkpt lat="43.4668635" lon="6.8586807"><ele></ele><time>2022-5-30T20:55:32Z</time></trkpt>
<trkpt lat="43.4668428" lon="6.8586796"><ele></ele><time>2022-5-30T20:55:35Z</time></trkpt>
<trkpt lat="43.4668235" lon="6.8586719"><ele></ele><time>2022-5-30T20:55:38Z</time></trkpt>
<trkpt lat="43.4668018" lon="6.8586668"><ele></ele><time>2022-5-30T20:55:41Z</time></trkpt>
<trkpt lat="43.4667792" lon="6.8586578"><ele></ele><time>2022-5-30T20:55:44Z</time></trkpt>
<trkpt lat="43.4667557" lon="6.8586499"><ele></ele><time>2022-5-30T20:55:47Z</time></trkpt>
<trkpt lat="43.4667353" lon="6.8586422"><ele></ele><time>2022-5-30T20:55:50Z</time></trkpt>
<trkpt lat="43.4667152" lon="6.8586312"><ele></ele><time>2022-5-30T20:55:53Z</time></trkpt>
<trkpt lat="43.4666950" lon="6.8586174"><ele></ele><time>2022-5-30T20:55:56Z</time></trkpt>
<trkpt lat="43.4666726" lon="6.8586065"><ele></ele><time>2022-5-30T20:55:59Z</time></trkpt>
<trkpt lat="43.4666497" lon="6.8585987"><ele></ele><time>2022-5-30T20:56:2Z</time></trkpt>
<trkpt lat="43.4666305" lon="6.8585930"><ele></ele><time>2022-5-30T20:56:5Z</time></trkpt>
<trkpt lat="43.4666107" lon="6.8585896"><ele></ele><time>2022-5-30T20:56:8Z</time></trkpt>
<trkpt lat="43.4665876" lon="6.8585810"><ele></ele><time>2022-5-30T20:56:11Z</time></trkpt>
<trkpt lat="43.4665667" lon="6.8585716"><ele></ele><time>2022-5-30T20:56:14Z</time></trkpt>
<trkpt lat="43.4665482" lon="6.8585597"><ele></ele><time>2022-5-30T20:56:17Z</time></trkpt>
<trkpt lat="43.4665313" lon="6.8585448"><ele></ele><time>2022-5-30T20:56:20Z</time></trkpt>
<trkpt lat="43.4665161" lon="6.8585267"><ele></ele><time>2022-5-30T20:56:23Z</time></trkpt>
<trkpt lat="43.4665021" lon="6.8585079"><ele></ele><time>2022-5-30T20:56:26Z</time></trkpt>
<trkpt lat="43.4664905" lon="6.8584880"><ele></ele><time>2022-5-30T20:56:29Z</time></trkpt>
<trkpt lat="43.4664849" lon="6.8584576"><ele></ele><time>2022-5-30T20:56:32Z</time></trkpt>
<trkpt lat="43.4664832" lon="6.8584301"><ele></ele><time>2022-5-30T20:56:35Z</time></trkpt>
<trkpt lat="43.4664835" lon="6.8583987"><ele></ele><time>2022-5-30T20:56:38Z</time></trkpt>
<trkpt lat="43.4664898" lon="6.8583691"><ele></ele><time>2022-5-30T20:56:41Z</time></trkpt>
<trkpt lat="43.4664966" lon="6.8583397"><ele></ele><time>2022-5-30T20:56:44Z</time></trkpt>
<trkpt lat="43.4665042" lon="6.8583058"><ele></ele><time>2022-5-30T20:56:47Z</time></trkpt>
<trkpt lat="43.4665095" lon="6.8582780"><ele></ele><time>2022-5-30T20:56:50Z</time></trkpt>
<trkpt lat="43.4665205" lon="6.8582487"><ele></ele><time>2022-5-30T20:56:53Z</time></trkpt>
<trkpt lat="43.4665299" lon="6.8582223"><ele></ele><time>2022-5-30T20:56:56Z</time></trkpt>
<trkpt lat="43.4665372" lon="6.8581927"><ele></ele><time>2022-5-30T20:56:59Z</time></trkpt>
<trkpt lat="43.4665420" lon="6.8581623"><ele></ele><time>2022-5-30T20:57:2Z</time></trkpt>
<trkpt lat="43.4665480" lon="6.8581319"><ele></ele><time>2022-5-30T20:57:5Z</time></trkpt>
<trkpt lat="43.4665518" lon="6.8581028"><ele></ele><time>2022-5-30T20:57:8Z</time></trkpt>
<trkpt lat="43.4665517" lon="6.8580744"><ele></ele><time>2022-5-30T20:57:11Z</time></trkpt>
<trkpt lat="43.4665504" lon="6.8580442"><ele></ele><time>2022-5-30T20:57:14Z</time></trkpt>
<trkpt lat="43.4665521" lon="6.8580141"><ele></ele><time>2022-5-30T20:57:17Z</time></trkpt>
<trkpt lat="43.4665547" lon="6.8579855"><ele></ele><time>2022-5-30T20:57:20Z</time></trkpt>
<trkpt lat="43.4665467" lon="6.8579588"><ele></ele><time>2022-5-30T20:57:23Z</time></trkpt>
<trkpt lat="43.4665381" lon="6.8579301"><ele></ele><time>2022-5-30T20:57:26Z</time></trkpt>
<trkpt lat="43.4665309" lon="6.8579010"><ele></ele><time>2022-5-30T20:57:29Z</time></trkpt>
<trkpt lat="43.4665254" lon="6.8578705"><ele></ele><time>2022-5-30T20:57:32Z</time></trkpt>
<trkpt lat="43.4665207" lon="6.8578419"><ele></ele><time>2022-5-30T20:57:35Z</time></trkpt>
<trkpt lat="43.4665145" lon="6.8578145"><ele></ele><time>2022-5-30T20:57:38Z</time></trkpt>
<trkpt lat="43.4665050" lon="6.8577912"><ele></ele><time>2022-5-30T20:57:41Z</time></trkpt>
<trkpt lat="43.4664899" lon="6.8577694"><ele></ele><time>2022-5-30T20:57:44Z</time></trkpt>
<trkpt lat="43.4664746" lon="6.8577518"><ele></ele><time>2022-5-30T20:57:47Z</time></trkpt>
<trkpt lat="43.4664583" lon="6.8577341"><ele></ele><time>2022-5-30T20:57:50Z</time></trkpt>
<trkpt lat="43.4664395" lon="6.8577232"><ele></ele><time>2022-5-30T20:57:53Z</time></trkpt>
<trkpt lat="43.4664173" lon="6.8577117"><ele></ele><time>2022-5-30T20:57:56Z</time></trkpt>
<trkpt lat="43.4663958" lon="6.8577005"><ele></ele><time>2022-5-30T20:57:59Z</time></trkpt>
<trkpt lat="43.4663762" lon="6.8576892"><ele></ele><time>2022-5-30T20:58:2Z</time></trkpt>
<trkpt lat="43.4663535" lon="6.8576774"><ele></ele><time>2022-5-30T20:58:5Z</time></trkpt>
<trkpt lat="43.4663281" lon="6.8576687"><ele></ele><time>2022-5-30T20:58:8Z</time></trkpt>
<trkpt lat="43.4663021" lon="6.8576621"><ele></ele><time>2022-5-30T20:58:11Z</time></trkpt>
<trkpt lat="43.4662788" lon="6.8576528"><ele></ele><time>2022-5-30T20:58:14Z</time></trkpt>
<trkpt lat="43.4662574" lon="6.8576443"><ele></ele><time>2022-5-30T20:58:17Z</time></trkpt>
<trkpt lat="43.4662392" lon="6.8576367"><ele></ele><time>2022-5-30T20:58:20Z</time></trkpt>
<trkpt lat="43.4662190" lon="6.8576266"><ele></ele><time>2022-5-30T20:58:23Z</time></trkpt>
<trkpt lat="43.4662025" lon="6.8576126"><ele></ele><time>2022-5-30T20:58:26Z</time></trkpt>
<trkpt lat="43.4661861" lon="6.8576028"><ele></ele><time>2022-5-30T20:58:29Z</time></trkpt>
<trkpt lat="43.4661693" lon="6.8576024"><ele></ele><time>2022-5-30T20:58:32Z</time></trkpt>
<trkpt lat="43.4661503" lon="6.8575994"><ele></ele><time>2022-5-30T20:58:35Z</time></trkpt>
<trkpt lat="43.4661323" lon="6.8575835"><ele></ele><time>2022-5-30T20:58:38Z</time></trkpt>
<trkpt lat="43.4661156" lon="6.8575662"><ele></ele><time>2022-5-30T20:58:41Z</time></trkpt>
<trkpt lat="43.4660992" lon="6.8575488"><ele></ele><time>2022-5-30T20:58:44Z</time></trkpt>
<trkpt lat="43.4660833" lon="6.8575318"><ele></ele><time>2022-5-30T20:58:47Z</time></trkpt>
<trkpt lat="43.4660673" lon="6.8575177"><ele></ele><time>2022-5-30T20:58:50Z</time></trkpt>
<trkpt lat="43.4660489" lon="6.8575040"><ele></ele><time>2022-5-30T20:58:53Z</time></trkpt>
<trkpt lat="43.4660332" lon="6.8574970"><ele></ele><time>2022-5-30T20:58:56Z</time></trkpt>
<trkpt lat="43.4660156" lon="6.8574889"><ele></ele><time>2022-5-30T20:58:59Z</time></trkpt>
<trkpt lat="43.4659971" lon="6.8574799"><ele></ele><time>2022-5-30T20:59:2Z</time></trkpt>
<trkpt lat="43.4659762" lon="6.8574698"><ele></ele><time>2022-5-30T20:59:5Z</time></trkpt>
<trkpt lat="43.4659574" lon="6.8574597"><ele></ele><time>2022-5-30T20:59:8Z</time></trkpt>
<trkpt lat="43.4659389" lon="6.8574497"><ele></ele><time>2022-5-30T20:59:11Z</time></trkpt>
<trkpt lat="43.4659226" lon="6.8574420"><ele></ele><time>2022-5-30T20:59:14Z</time></trkpt>
<trkpt lat="43.4659043" lon="6.8574344"><ele></ele><time>2022-5-30T20:59:17Z</time></trkpt>
<trkpt lat="43.4658859" lon="6.8574235"><ele></ele><time>2022-5-30T20:59:20Z</time></trkpt>
<trkpt lat="43.4658633" lon="6.8574101"><ele></ele><time>2022-5-30T20:59:23Z</time></trkpt>
<trkpt lat="43.4658390" lon="6.8574037"><ele></ele><time>2022-5-30T20:59:26Z</time></trkpt>
<trkpt lat="43.4658190" lon="6.8573965"><ele></ele><time>2022-5-30T20:59:29Z</time></trkpt>
<trkpt lat="43.4658012" lon="6.8573884"><ele></ele><time>2022-5-30T20:59:32Z</time></trkpt>
<trkpt lat="43.4657848" lon="6.8573774"><ele></ele><time>2022-5-30T20:59:35Z</time></trkpt>
<trkpt lat="43.4657638" lon="6.8573659"><ele></ele><time>2022-5-30T20:59:38Z</time></trkpt>
<trkpt lat="43.4657446" lon="6.8573498"><ele></ele><time>2022-5-30T20:59:41Z</time></trkpt>
<trkpt lat="43.4657258" lon="6.8573386"><ele></ele><time>2022-5-30T20:59:44Z</time></trkpt>
<trkpt lat="43.4657060" lon="6.8573302"><ele></ele><time>2022-5-30T20:59:47Z</time></trkpt>
<trkpt lat="43.4656859" lon="6.8573210"><ele></ele><time>2022-5-30T20:59:50Z</time></trkpt>
<trkpt lat="43.4656659" lon="6.8573102"><ele></ele><time>2022-5-30T20:59:53Z</time></trkpt>
<trkpt lat="43.4656465" lon="6.8573021"><ele></ele><time>2022-5-30T20:59:56Z</time></trkpt>
<trkpt lat="43.4656288" lon="6.8572940"><ele></ele><time>2022-5-30T20:59:59Z</time></trkpt>
<trkpt lat="43.4656084" lon="6.8572844"><ele></ele><time>2022-5-30T21:0:2Z</time></trkpt>
<trkpt lat="43.4655877" lon="6.8572749"><ele></ele><time>2022-5-30T21:0:5Z</time></trkpt>
<trkpt lat="43.4655691" lon="6.8572669"><ele></ele><time>2022-5-30T21:0:8Z</time></trkpt>
<trkpt lat="43.4655520" lon="6.8572600"><ele></ele><time>2022-5-30T21:0:11Z</time></trkpt>
<trkpt lat="43.4655319" lon="6.8572517"><ele></ele><time>2022-5-30T21:0:14Z</time></trkpt>
<trkpt lat="43.4655129" lon="6.8572413"><ele></ele><time>2022-5-30T21:0:17Z</time></trkpt>
<trkpt lat="43.4654935" lon="6.8572319"><ele></ele><time>2022-5-30T21:0:20Z</time></trkpt>
<trkpt lat="43.4654717" lon="6.8572259"><ele></ele><time>2022-5-30T21:0:23Z</time></trkpt>
<trkpt lat="43.4654518" lon="6.8572211"><ele></ele><time>2022-5-30T21:0:26Z</time></trkpt>
<trkpt lat="43.4654344" lon="6.8572141"><ele></ele><time>2022-5-30T21:0:29Z</time></trkpt>
<trkpt lat="43.4654143" lon="6.8572053"><ele></ele><time>2022-5-30T21:0:32Z</time></trkpt>
<trkpt lat="43.4653961" lon="6.8571973"><ele></ele><time>2022-5-30T21:0:35Z</time></trkpt>
<trkpt lat="43.4653788" lon="6.8571879"><ele></ele><time>2022-5-30T21:0:38Z</time></trkpt>
<trkpt lat="43.4653682" lon="6.8571696"><ele></ele><time>2022-5-30T21:0:41Z</time></trkpt>
<trkpt lat="43.4653573" lon="6.8571450"><ele></ele><time>2022-5-30T21:0:44Z</time></trkpt>
<trkpt lat="43.4653440" lon="6.8571134"><ele></ele><time>2022-5-30T21:0:47Z</time></trkpt>
<trkpt lat="43.4653332" lon="6.8570813"><ele></ele><time>2022-5-30T21:0:50Z</time></trkpt>
<trkpt lat="43.4653251" lon="6.8570479"><ele></ele><time>2022-5-30T21:0:53Z</time></trkpt>
<trkpt lat="43.4653233" lon="6.8570163"><ele></ele><time>2022-5-30T21:0:56Z</time></trkpt>
<trkpt lat="43.4653218" lon="6.8569858"><ele></ele><time>2022-5-30T21:0:59Z</time></trkpt>
<trkpt lat="43.4653223" lon="6.8569545"><ele></ele><time>2022-5-30T21:1:2Z</time></trkpt>
<trkpt lat="43.4653250" lon="6.8569224"><ele></ele><time>2022-5-30T21:1:5Z</time></trkpt>
<trkpt lat="43.4653283" lon="6.8568884"><ele></ele><time>2022-5-30T21:1:8Z</time></trkpt>
<trkpt lat="43.4653346" lon="6.8568582"><ele></ele><time>2022-5-30T21:1:11Z</time></trkpt>
<trkpt lat="43.4653405" lon="6.8568272"><ele></ele><time>2022-5-30T21:1:14Z</time></trkpt>
<trkpt lat="43.4653462" lon="6.8567972"><ele></ele><time>2022-5-30T21:1:17Z</time></trkpt>
<trkpt lat="43.4653524" lon="6.8567659"><ele></ele><time>2022-5-30T21:1:20Z</time></trkpt>
<trkpt lat="43.4653571" lon="6.8567320"><ele></ele><time>2022-5-30T21:1:23Z</time></trkpt>
<trkpt lat="43.4653611" lon="6.8566982"><ele></ele><time>2022-5-30T21:1:26Z</time></trkpt>
<trkpt lat="43.4653676" lon="6.8566652"><ele></ele><time>2022-5-30T21:1:29Z</time></trkpt>
<trkpt lat="43.4653756" lon="6.8566338"><ele></ele><time>2022-5-30T21:1:32Z</time></trkpt>
<trkpt lat="43.4653814" lon="6.8566014"><ele></ele><time>2022-5-30T21:1:35Z</time></trkpt>
<trkpt lat="43.4653798" lon="6.8565719"><ele></ele><time>2022-5-30T21:1:38Z</time></trkpt>
<trkpt lat="43.4653836" lon="6.8565457"><ele></ele><time>2022-5-30T21:1:41Z</time></trkpt>
<trkpt lat="43.4653896" lon="6.8565148"><ele></ele><time>2022-5-30T21:1:44Z</time></trkpt>
<trkpt lat="43.4653940" lon="6.8564851"><ele></ele><time>2022-5-30T21:1:47Z</time></trkpt>
<trkpt lat="43.4653983" lon="6.8564566"><ele></ele><time>2022-5-30T21:1:50Z</time></trkpt>
<trkpt lat="43.4654024" lon="6.8564296"><ele></ele><time>2022-5-30T21:1:53Z</time></trkpt>
<trkpt lat="43.4654074" lon="6.8564029"><ele></ele><time>2022-5-30T21:1:56Z</time></trkpt>
<trkpt lat="43.4654119" lon="6.8563766"><ele></ele><time>2022-5-30T21:1:59Z</time></trkpt>
<trkpt lat="43.4654148" lon="6.8563526"><ele></ele><time>2022-5-30T21:2:2Z</time></trkpt>
<trkpt lat="43.4654175" lon="6.8563291"><ele></ele><time>2022-5-30T21:2:5Z</time></trkpt>
<trkpt lat="43.4654203" lon="6.8562979"><ele></ele><time>2022-5-30T21:2:8Z</time></trkpt>
<trkpt lat="43.4654181" lon="6.8562641"><ele></ele><time>2022-5-30T21:2:11Z</time></trkpt>
<trkpt lat="43.4654145" lon="6.8562329"><ele></ele><time>2022-5-30T21:2:14Z</time></trkpt>
<trkpt lat="43.4654089" lon="6.8562034"><ele></ele><time>2022-5-30T21:2:17Z</time></trkpt>
<trkpt lat="43.4654034" lon="6.8561767"><ele></ele><time>2022-5-30T21:2:20Z</time></trkpt>
<trkpt lat="43.4653992" lon="6.8561515"><ele></ele><time>2022-5-30T21:2:23Z</time></trkpt>
<trkpt lat="43.4653892" lon="6.8561323"><ele></ele><time>2022-5-30T21:2:26Z</time></trkpt>
<trkpt lat="43.4653765" lon="6.8561103"><ele></ele><time>2022-5-30T21:2:29Z</time></trkpt>
<trkpt lat="43.4653597" lon="6.8560958"><ele></ele><time>2022-5-30T21:2:32Z</time></trkpt>
<trkpt lat="43.4653379" lon="6.8560921"><ele></ele><time>2022-5-30T21:2:35Z</time></trkpt>
<trkpt lat="43.4653180" lon="6.8560887"><ele></ele><time>2022-5-30T21:2:38Z</time></trkpt>
<trkpt lat="43.4652986" lon="6.8560852"><ele></ele><time>2022-5-30T21:2:41Z</time></trkpt>
<trkpt lat="43.4652799" lon="6.8560835"><ele></ele><time>2022-5-30T21:2:44Z</time></trkpt>
<trkpt lat="43.4652649" lon="6.8560835"><ele></ele><time>2022-5-30T21:2:47Z</time></trkpt>
<trkpt lat="43.4652537" lon="6.8560940"><ele></ele><time>2022-5-30T21:2:50Z</time></trkpt>
<trkpt lat="43.4652378" lon="6.8561179"><ele></ele><time>2022-5-30T21:2:53Z</time></trkpt>
<trkpt lat="43.4652256" lon="6.8561467"><ele></ele><time>2022-5-30T21:2:56Z</time></trkpt>
<trkpt lat="43.4652124" lon="6.8561728"><ele></ele><time>2022-5-30T21:2:59Z</time></trkpt>
<trkpt lat="43.4652022" lon="6.8561953"><ele></ele><time>2022-5-30T21:3:2Z</time></trkpt>
<trkpt lat="43.4651909" lon="6.8562230"><ele></ele><time>2022-5-30T21:3:5Z</time></trkpt>
<trkpt lat="43.4651835" lon="6.8562502"><ele></ele><time>2022-5-30T21:3:8Z</time></trkpt>
<trkpt lat="43.4651770" lon="6.8562758"><ele></ele><time>2022-5-30T21:3:11Z</time></trkpt>
<trkpt lat="43.4651717" lon="6.8563028"><ele></ele><time>2022-5-30T21:3:14Z</time></trkpt>
<trkpt lat="43.4651672" lon="6.8563286"><ele></ele><time>2022-5-30T21:3:17Z</time></trkpt>
<trkpt lat="43.4651616" lon="6.8563580"><ele></ele><time>2022-5-30T21:3:20Z</time></trkpt>
<trkpt lat="43.4651573" lon="6.8563831"><ele></ele><time>2022-5-30T21:3:23Z</time></trkpt>
<trkpt lat="43.4651481" lon="6.8564005"><ele></ele><time>2022-5-30T21:3:26Z</time></trkpt>
<trkpt lat="43.4651319" lon="6.8564016"><ele></ele><time>2022-5-30T21:3:29Z</time></trkpt>
<trkpt lat="43.4651175" lon="6.8563875"><ele></ele><time>2022-5-30T21:3:32Z</time></trkpt>
<trkpt lat="43.4651055" lon="6.8563751"><ele></ele><time>2022-5-30T21:3:35Z</time></trkpt>
<trkpt lat="43.4650956" lon="6.8563688"><ele></ele><time>2022-5-30T21:3:38Z</time></trkpt>
<trkpt lat="43.4650925" lon="6.8563661"><ele></ele><time>2022-5-30T21:3:41Z</time></trkpt>
<trkpt lat="43.4650899" lon="6.8563641"><ele></ele><time>2022-5-30T21:3:44Z</time></trkpt>
<trkpt lat="43.4650882" lon="6.8563635"><ele></ele><time>2022-5-30T21:3:47Z</time></trkpt>
<trkpt lat="43.4650865" lon="6.8563639"><ele></ele><time>2022-5-30T21:3:50Z</time></trkpt>
<trkpt lat="43.4650859" lon="6.8563635"><ele></ele><time>2022-5-30T21:3:53Z</time></trkpt>
<trkpt lat="43.4650859" lon="6.8563635"><ele></ele><time>2022-5-30T21:3:56Z</time></trkpt>
<trkpt lat="43.4650855" lon="6.8563637"><ele></ele><time>2022-5-30T21:3:59Z</time></trkpt>
<trkpt lat="43.4650854" lon="6.8563638"><ele></ele><time>2022-5-30T21:4:2Z</time></trkpt>
<trkpt lat="43.4650851" lon="6.8563638"><ele></ele><time>2022-5-30T21:4:5Z</time></trkpt>
<trkpt lat="43.4650850" lon="6.8563638"><ele></ele><time>2022-5-30T21:4:8Z</time></trkpt>
<trkpt lat="43.4650848" lon="6.8563638"><ele></ele><time>2022-5-30T21:4:11Z</time></trkpt>
<trkpt lat="43.4650846" lon="6.8563637"><ele></ele><time>2022-5-30T21:4:14Z</time></trkpt>
<trkpt lat="43.4650845" lon="6.8563637"><ele></ele><time>2022-5-30T21:4:17Z</time></trkpt>
<trkpt lat="43.4650841" lon="6.8563638"><ele></ele><time>2022-5-30T21:4:20Z</time></trkpt>
<trkpt lat="43.4650837" lon="6.8563637"><ele></ele><time>2022-5-30T21:4:23Z</time></trkpt>
<trkpt lat="43.4650828" lon="6.8563643"><ele></ele><time>2022-5-30T21:4:26Z</time></trkpt>
<trkpt lat="43.4650821" lon="6.8563646"><ele></ele><time>2022-5-30T21:4:29Z</time></trkpt>
<trkpt lat="43.4650821" lon="6.8563650"><ele></ele><time>2022-5-30T21:4:32Z</time></trkpt>
<trkpt lat="43.4650734" lon="6.8563674"><ele></ele><time>2022-5-30T21:4:35Z</time></trkpt>
<trkpt lat="43.4650572" lon="6.8563732"><ele></ele><time>2022-5-30T21:4:38Z</time></trkpt>
<trkpt lat="43.4650440" lon="6.8563774"><ele></ele><time>2022-5-30T21:4:41Z</time></trkpt>
<trkpt lat="43.4650335" lon="6.8563778"><ele></ele><time>2022-5-30T21:4:44Z</time></trkpt>
<trkpt lat="43.4650238" lon="6.8563747"><ele></ele><time>2022-5-30T21:4:47Z</time></trkpt>
<trkpt lat="43.4650212" lon="6.8563765"><ele></ele><time>2022-5-30T21:4:50Z</time></trkpt>
<trkpt lat="43.4650156" lon="6.8563788"><ele></ele><time>2022-5-30T21:4:53Z</time></trkpt>
<trkpt lat="43.4650139" lon="6.8563780"><ele></ele><time>2022-5-30T21:4:56Z</time></trkpt>
<trkpt lat="43.4650148" lon="6.8563767"><ele></ele><time>2022-5-30T21:4:59Z</time></trkpt>
<trkpt lat="43.4650161" lon="6.8563759"><ele></ele><time>2022-5-30T21:5:2Z</time></trkpt>
<trkpt lat="43.4650157" lon="6.8563760"><ele></ele><time>2022-5-30T21:5:5Z</time></trkpt>
<trkpt lat="43.4650157" lon="6.8563760"><ele></ele><time>2022-5-30T21:5:8Z</time></trkpt>
<trkpt lat="43.4650152" lon="6.8563761"><ele></ele><time>2022-5-30T21:5:11Z</time></trkpt>
<trkpt lat="43.4650154" lon="6.8563761"><ele></ele><time>2022-5-30T21:5:14Z</time></trkpt>
<trkpt lat="43.4650157" lon="6.8563761"><ele></ele><time>2022-5-30T21:5:17Z</time></trkpt>
<trkpt lat="43.4650162" lon="6.8563761"><ele></ele><time>2022-5-30T21:5:20Z</time></trkpt>
<trkpt lat="43.4650168" lon="6.8563759"><ele></ele><time>2022-5-30T21:5:23Z</time></trkpt>
<trkpt lat="43.4650217" lon="6.8563770"><ele></ele><time>2022-5-30T21:5:26Z</time></trkpt>
<trkpt lat="43.4650260" lon="6.8563761"><ele></ele><time>2022-5-30T21:5:29Z</time></trkpt>
<trkpt lat="43.4650292" lon="6.8563753"><ele></ele><time>2022-5-30T21:5:32Z</time></trkpt>
<trkpt lat="43.4650325" lon="6.8563740"><ele></ele><time>2022-5-30T21:5:35Z</time></trkpt>
<trkpt lat="43.4650356" lon="6.8563723"><ele></ele><time>2022-5-30T21:5:38Z</time></trkpt>
<trkpt lat="43.4650381" lon="6.8563716"><ele></ele><time>2022-5-30T21:5:41Z</time></trkpt>
<trkpt lat="43.4650407" lon="6.8563697"><ele></ele><time>2022-5-30T21:5:44Z</time></trkpt>
<trkpt lat="43.4650432" lon="6.8563676"><ele></ele><time>2022-5-30T21:5:47Z</time></trkpt>
<trkpt lat="43.4650479" lon="6.8563639"><ele></ele><time>2022-5-30T21:5:50Z</time></trkpt>
<trkpt lat="43.4650526" lon="6.8563609"><ele></ele><time>2022-5-30T21:5:53Z</time></trkpt>
<trkpt lat="43.4650565" lon="6.8563585"><ele></ele><time>2022-5-30T21:5:56Z</time></trkpt>
<trkpt lat="43.4650611" lon="6.8563549"><ele></ele><time>2022-5-30T21:5:59Z</time></trkpt>
<trkpt lat="43.4650653" lon="6.8563523"><ele></ele><time>2022-5-30T21:6:2Z</time></trkpt>
<trkpt lat="43.4650679" lon="6.8563513"><ele></ele><time>2022-5-30T21:6:5Z</time></trkpt>
<trkpt lat="43.4650698" lon="6.8563506"><ele></ele><time>2022-5-30T21:6:8Z</time></trkpt>
<trkpt lat="43.4650731" lon="6.8563495"><ele></ele><time>2022-5-30T21:6:11Z</time></trkpt>
<trkpt lat="43.4650766" lon="6.8563485"><ele></ele><time>2022-5-30T21:6:14Z</time></trkpt>
<trkpt lat="43.4650804" lon="6.8563477"><ele></ele><time>2022-5-30T21:6:17Z</time></trkpt>
<trkpt lat="43.4650838" lon="6.8563471"><ele></ele><time>2022-5-30T21:6:20Z</time></trkpt>
<trkpt lat="43.4650867" lon="6.8563466"><ele></ele><time>2022-5-30T21:6:23Z</time></trkpt>
<trkpt lat="43.4650892" lon="6.8563463"><ele></ele><time>2022-5-30T21:6:26Z</time></trkpt>
<trkpt lat="43.4650907" lon="6.8563461"><ele></ele><time>2022-5-30T21:6:29Z</time></trkpt>
<trkpt lat="43.4650921" lon="6.8563459"><ele></ele><time>2022-5-30T21:6:32Z</time></trkpt>
<trkpt lat="43.4650935" lon="6.8563456"><ele></ele><time>2022-5-30T21:6:35Z</time></trkpt>
<trkpt lat="43.4650944" lon="6.8563454"><ele></ele><time>2022-5-30T21:6:38Z</time></trkpt>
<trkpt lat="43.4650951" lon="6.8563453"><ele></ele><time>2022-5-30T21:6:41Z</time></trkpt>
<trkpt lat="43.4650966" lon="6.8563450"><ele></ele><time>2022-5-30T21:6:44Z</time></trkpt>
<trkpt lat="43.4650977" lon="6.8563448"><ele></ele><time>2022-5-30T21:6:47Z</time></trkpt>
<trkpt lat="43.4650975" lon="6.8563451"><ele></ele><time>2022-5-30T21:6:50Z</time></trkpt>
<trkpt lat="43.4650977" lon="6.8563450"><ele></ele><time>2022-5-30T21:6:53Z</time></trkpt>
<trkpt lat="43.4650977" lon="6.8563451"><ele></ele><time>2022-5-30T21:6:56Z</time></trkpt>
<trkpt lat="43.4650977" lon="6.8563451"><ele></ele><time>2022-5-30T21:6:59Z</time></trkpt>
<trkpt lat="43.4650979" lon="6.8563451"><ele></ele><time>2022-5-30T21:7:2Z</time></trkpt>
<trkpt lat="43.4650980" lon="6.8563451"><ele></ele><time>2022-5-30T21:7:5Z</time></trkpt>
<trkpt lat="43.4650980" lon="6.8563452"><ele></ele><time>2022-5-30T21:7:8Z</time></trkpt>
<trkpt lat="43.4650979" lon="6.8563453"><ele></ele><time>2022-5-30T21:7:11Z</time></trkpt>
<trkpt lat="43.4650977" lon="6.8563454"><ele></ele><time>2022-5-30T21:7:14Z</time></trkpt>
<trkpt lat="43.4650972" lon="6.8563456"><ele></ele><time>2022-5-30T21:7:17Z</time></trkpt>
<trkpt lat="43.4650971" lon="6.8563457"><ele></ele><time>2022-5-30T21:7:20Z</time></trkpt>
<trkpt lat="43.4650969" lon="6.8563458"><ele></ele><time>2022-5-30T21:7:23Z</time></trkpt>
<trkpt lat="43.4650963" lon="6.8563460"><ele></ele><time>2022-5-30T21:7:26Z</time></trkpt>
<trkpt lat="43.4650958" lon="6.8563463"><ele></ele><time>2022-5-30T21:7:29Z</time></trkpt>
<trkpt lat="43.4650953" lon="6.8563465"><ele></ele><time>2022-5-30T21:7:32Z</time></trkpt>
<trkpt lat="43.4650951" lon="6.8563466"><ele></ele><time>2022-5-30T21:7:35Z</time></trkpt>
<trkpt lat="43.4650946" lon="6.8563468"><ele></ele><time>2022-5-30T21:7:38Z</time></trkpt>
<trkpt lat="43.4650939" lon="6.8563471"><ele></ele><time>2022-5-30T21:7:41Z</time></trkpt>
<trkpt lat="43.4650933" lon="6.8563473"><ele></ele><time>2022-5-30T21:7:44Z</time></trkpt>
<trkpt lat="43.4650926" lon="6.8563476"><ele></ele><time>2022-5-30T21:7:47Z</time></trkpt>
<trkpt lat="43.4650923" lon="6.8563478"><ele></ele><time>2022-5-30T21:7:50Z</time></trkpt>
<trkpt lat="43.4650915" lon="6.8563481"><ele></ele><time>2022-5-30T21:7:53Z</time></trkpt>
<trkpt lat="43.4650908" lon="6.8563484"><ele></ele><time>2022-5-30T21:7:56Z</time></trkpt>
<trkpt lat="43.4650898" lon="6.8563489"><ele></ele><time>2022-5-30T21:7:59Z</time></trkpt>
<trkpt lat="43.4650890" lon="6.8563490"><ele></ele><time>2022-5-30T21:8:2Z</time></trkpt>
<trkpt lat="43.4650883" lon="6.8563492"><ele></ele><time>2022-5-30T21:8:5Z</time></trkpt>
<trkpt lat="43.4650870" lon="6.8563495"><ele></ele><time>2022-5-30T21:8:8Z</time></trkpt>
<trkpt lat="43.4650865" lon="6.8563496"><ele></ele><time>2022-5-30T21:8:11Z</time></trkpt>
<trkpt lat="43.4650858" lon="6.8563499"><ele></ele><time>2022-5-30T21:8:14Z</time></trkpt>
<trkpt lat="43.4650853" lon="6.8563499"><ele></ele><time>2022-5-30T21:8:17Z</time></trkpt>
<trkpt lat="43.4650843" lon="6.8563501"><ele></ele><time>2022-5-30T21:8:20Z</time></trkpt>
<trkpt lat="43.4650833" lon="6.8563502"><ele></ele><time>2022-5-30T21:8:23Z</time></trkpt>
<trkpt lat="43.4650824" lon="6.8563503"><ele></ele><time>2022-5-30T21:8:26Z</time></trkpt>
<trkpt lat="43.4650818" lon="6.8563504"><ele></ele><time>2022-5-30T21:8:29Z</time></trkpt>
<trkpt lat="43.4650807" lon="6.8563505"><ele></ele><time>2022-5-30T21:8:32Z</time></trkpt>
<trkpt lat="43.4650797" lon="6.8563507"><ele></ele><time>2022-5-30T21:8:35Z</time></trkpt>
<trkpt lat="43.4650788" lon="6.8563508"><ele></ele><time>2022-5-30T21:8:38Z</time></trkpt>
<trkpt lat="43.4650783" lon="6.8563509"><ele></ele><time>2022-5-30T21:8:41Z</time></trkpt>
<trkpt lat="43.4650775" lon="6.8563511"><ele></ele><time>2022-5-30T21:8:44Z</time></trkpt>
<trkpt lat="43.4650762" lon="6.8563514"><ele></ele><time>2022-5-30T21:8:47Z</time></trkpt>
<trkpt lat="43.4650750" lon="6.8563515"><ele></ele><time>2022-5-30T21:8:50Z</time></trkpt>
<trkpt lat="43.4650741" lon="6.8563515"><ele></ele><time>2022-5-30T21:8:53Z</time></trkpt>
<trkpt lat="43.4650739" lon="6.8563515"><ele></ele><time>2022-5-30T21:8:56Z</time></trkpt>
<trkpt lat="43.4650733" lon="6.8563516"><ele></ele><time>2022-5-30T21:8:59Z</time></trkpt>
<trkpt lat="43.4650730" lon="6.8563515"><ele></ele><time>2022-5-30T21:9:2Z</time></trkpt>
<trkpt lat="43.4650726" lon="6.8563514"><ele></ele><time>2022-5-30T21:9:5Z</time></trkpt>
<trkpt lat="43.4650720" lon="6.8563514"><ele></ele><time>2022-5-30T21:9:8Z</time></trkpt>
<trkpt lat="43.4650711" lon="6.8563516"><ele></ele><time>2022-5-30T21:9:11Z</time></trkpt>
<trkpt lat="43.4650697" lon="6.8563519"><ele></ele><time>2022-5-30T21:9:14Z</time></trkpt>
<trkpt lat="43.4650678" lon="6.8563524"><ele></ele><time>2022-5-30T21:9:17Z</time></trkpt>
<trkpt lat="43.4650665" lon="6.8563528"><ele></ele><time>2022-5-30T21:9:20Z</time></trkpt>
<trkpt lat="43.4650656" lon="6.8563531"><ele></ele><time>2022-5-30T21:9:23Z</time></trkpt>
<trkpt lat="43.4650639" lon="6.8563538"><ele></ele><time>2022-5-30T21:9:26Z</time></trkpt>
<trkpt lat="43.4650623" lon="6.8563545"><ele></ele><time>2022-5-30T21:9:29Z</time></trkpt>
<trkpt lat="43.4650609" lon="6.8563551"><ele></ele><time>2022-5-30T21:9:32Z</time></trkpt>
<trkpt lat="43.4650607" lon="6.8563552"><ele></ele><time>2022-5-30T21:9:35Z</time></trkpt>
<trkpt lat="43.4650604" lon="6.8563553"><ele></ele><time>2022-5-30T21:9:38Z</time></trkpt>
<trkpt lat="43.4650599" lon="6.8563555"><ele></ele><time>2022-5-30T21:9:41Z</time></trkpt>
<trkpt lat="43.4650590" lon="6.8563560"><ele></ele><time>2022-5-30T21:9:44Z</time></trkpt>
<trkpt lat="43.4650582" lon="6.8563565"><ele></ele><time>2022-5-30T21:9:47Z</time></trkpt>
<trkpt lat="43.4650578" lon="6.8563567"><ele></ele><time>2022-5-30T21:9:50Z</time></trkpt>
<trkpt lat="43.4650575" lon="6.8563569"><ele></ele><time>2022-5-30T21:9:53Z</time></trkpt>
<trkpt lat="43.4650572" lon="6.8563570"><ele></ele><time>2022-5-30T21:9:56Z</time></trkpt>
<trkpt lat="43.4650570" lon="6.8563571"><ele></ele><time>2022-5-30T21:9:59Z</time></trkpt>
<trkpt lat="43.4650567" lon="6.8563573"><ele></ele><time>2022-5-30T21:10:2Z</time></trkpt>
<trkpt lat="43.4650564" lon="6.8563574"><ele></ele><time>2022-5-30T21:10:5Z</time></trkpt>
<trkpt lat="43.4650562" lon="6.8563575"><ele></ele><time>2022-5-30T21:10:8Z</time></trkpt>
<trkpt lat="43.4650561" lon="6.8563575"><ele></ele><time>2022-5-30T21:10:11Z</time></trkpt>
<trkpt lat="43.4650561" lon="6.8563575"><ele></ele><time>2022-5-30T21:10:14Z</time></trkpt>
<trkpt lat="43.4650558" lon="6.8563577"><ele></ele><time>2022-5-30T21:10:17Z</time></trkpt>
<trkpt lat="43.4650558" lon="6.8563577"><ele></ele><time>2022-5-30T21:10:20Z</time></trkpt>
<trkpt lat="43.4650556" lon="6.8563578"><ele></ele><time>2022-5-30T21:10:23Z</time></trkpt>
<trkpt lat="43.4650556" lon="6.8563578"><ele></ele><time>2022-5-30T21:10:26Z</time></trkpt>
<trkpt lat="43.4650556" lon="6.8563578"><ele></ele><time>2022-5-30T21:10:29Z</time></trkpt>
<trkpt lat="43.4650555" lon="6.8563579"><ele></ele><time>2022-5-30T21:10:32Z</time></trkpt>
<trkpt lat="43.4650555" lon="6.8563579"><ele></ele><time>2022-5-30T21:10:35Z</time></trkpt>
<trkpt lat="43.4650555" lon="6.8563579"><ele></ele><time>2022-5-30T21:10:38Z</time></trkpt>
<trkpt lat="43.4650554" lon="6.8563580"><ele></ele><time>2022-5-30T21:10:41Z</time></trkpt>
<trkpt lat="43.4650553" lon="6.8563580"><ele></ele><time>2022-5-30T21:10:44Z</time></trkpt>
<trkpt lat="43.4650550" lon="6.8563582"><ele></ele><time>2022-5-30T21:10:47Z</time></trkpt>
<trkpt lat="43.4650550" lon="6.8563582"><ele></ele><time>2022-5-30T21:10:50Z</time></trkpt>
<trkpt lat="43.4650549" lon="6.8563582"><ele></ele><time>2022-5-30T21:10:53Z</time></trkpt>
<trkpt lat="43.4650549" lon="6.8563582"><ele></ele><time>2022-5-30T21:10:56Z</time></trkpt>
<trkpt lat="43.4650552" lon="6.8563580"><ele></ele><time>2022-5-30T21:10:59Z</time></trkpt>
<trkpt lat="43.4650554" lon="6.8563579"><ele></ele><time>2022-5-30T21:11:2Z</time></trkpt>
<trkpt lat="43.4650555" lon="6.8563577"><ele></ele><time>2022-5-30T21:11:5Z</time></trkpt>
<trkpt lat="43.4650556" lon="6.8563576"><ele></ele><time>2022-5-30T21:11:8Z</time></trkpt>
<trkpt lat="43.4650556" lon="6.8563576"><ele></ele><time>2022-5-30T21:11:11Z</time></trkpt>
<trkpt lat="43.4650557" lon="6.8563575"><ele></ele><time>2022-5-30T21:11:14Z</time></trkpt>
<trkpt lat="43.4650557" lon="6.8563573"><ele></ele><time>2022-5-30T21:11:17Z</time></trkpt>
<trkpt lat="43.4650559" lon="6.8563572"><ele></ele><time>2022-5-30T21:11:20Z</time></trkpt>
<trkpt lat="43.4650558" lon="6.8563571"><ele></ele><time>2022-5-30T21:11:23Z</time></trkpt>
<trkpt lat="43.4650553" lon="6.8563572"><ele></ele><time>2022-5-30T21:11:26Z</time></trkpt>
<trkpt lat="43.4650550" lon="6.8563573"><ele></ele><time>2022-5-30T21:11:29Z</time></trkpt>
<trkpt lat="43.4650547" lon="6.8563573"><ele></ele><time>2022-5-30T21:11:32Z</time></trkpt>
<trkpt lat="43.4650548" lon="6.8563572"><ele></ele><time>2022-5-30T21:11:35Z</time></trkpt>
<trkpt lat="43.4650545" lon="6.8563573"><ele></ele><time>2022-5-30T21:11:38Z</time></trkpt>
<trkpt lat="43.4650544" lon="6.8563573"><ele></ele><time>2022-5-30T21:11:41Z</time></trkpt>
<trkpt lat="43.4650543" lon="6.8563573"><ele></ele><time>2022-5-30T21:11:44Z</time></trkpt>
<trkpt lat="43.4650540" lon="6.8563572"><ele></ele><time>2022-5-30T21:11:47Z</time></trkpt>
<trkpt lat="43.4650536" lon="6.8563575"><ele></ele><time>2022-5-30T21:11:50Z</time></trkpt>
<trkpt lat="43.4650534" lon="6.8563576"><ele></ele><time>2022-5-30T21:11:53Z</time></trkpt>
<trkpt lat="43.4650533" lon="6.8563573"><ele></ele><time>2022-5-30T21:11:56Z</time></trkpt>
<trkpt lat="43.4650533" lon="6.8563568"><ele></ele><time>2022-5-30T21:11:59Z</time></trkpt>
<trkpt lat="43.4650532" lon="6.8563566"><ele></ele><time>2022-5-30T21:12:2Z</time></trkpt>
<trkpt lat="43.4650532" lon="6.8563563"><ele></ele><time>2022-5-30T21:12:5Z</time></trkpt>
<trkpt lat="43.4650534" lon="6.8563555"><ele></ele><time>2022-5-30T21:12:8Z</time></trkpt>
<trkpt lat="43.4650533" lon="6.8563551"><ele></ele><time>2022-5-30T21:12:11Z</time></trkpt>
<trkpt lat="43.4650534" lon="6.8563547"><ele></ele><time>2022-5-30T21:12:14Z</time></trkpt>
<trkpt lat="43.4650537" lon="6.8563538"><ele></ele><time>2022-5-30T21:12:17Z</time></trkpt>
<trkpt lat="43.4650538" lon="6.8563533"><ele></ele><time>2022-5-30T21:12:20Z</time></trkpt>
<trkpt lat="43.4650539" lon="6.8563530"><ele></ele><time>2022-5-30T21:12:23Z</time></trkpt>
<trkpt lat="43.4650542" lon="6.8563526"><ele></ele><time>2022-5-30T21:12:26Z</time></trkpt>
<trkpt lat="43.4650546" lon="6.8563522"><ele></ele><time>2022-5-30T21:12:29Z</time></trkpt>
<trkpt lat="43.4650549" lon="6.8563519"><ele></ele><time>2022-5-30T21:12:32Z</time></trkpt>
<trkpt lat="43.4650551" lon="6.8563518"><ele></ele><time>2022-5-30T21:12:35Z</time></trkpt>
<trkpt lat="43.4650552" lon="6.8563518"><ele></ele><time>2022-5-30T21:12:38Z</time></trkpt>
<trkpt lat="43.4650552" lon="6.8563518"><ele></ele><time>2022-5-30T21:12:41Z</time></trkpt>
<trkpt lat="43.4650556" lon="6.8563515"><ele></ele><time>2022-5-30T21:12:44Z</time></trkpt>
<trkpt lat="43.4650560" lon="6.8563513"><ele></ele><time>2022-5-30T21:12:47Z</time></trkpt>
<trkpt lat="43.4650563" lon="6.8563511"><ele></ele><time>2022-5-30T21:12:50Z</time></trkpt>
<trkpt lat="43.4650564" lon="6.8563510"><ele></ele><time>2022-5-30T21:12:53Z</time></trkpt>
<trkpt lat="43.4650565" lon="6.8563510"><ele></ele><time>2022-5-30T21:12:56Z</time></trkpt>
<trkpt lat="43.4650567" lon="6.8563508"><ele></ele><time>2022-5-30T21:12:59Z</time></trkpt>
<trkpt lat="43.4650569" lon="6.8563507"><ele></ele><time>2022-5-30T21:13:2Z</time></trkpt>
<trkpt lat="43.4650569" lon="6.8563506"><ele></ele><time>2022-5-30T21:13:5Z</time></trkpt>
<trkpt lat="43.4650571" lon="6.8563504"><ele></ele><time>2022-5-30T21:13:8Z</time></trkpt>
<trkpt lat="43.4650574" lon="6.8563502"><ele></ele><time>2022-5-30T21:13:11Z</time></trkpt>
<trkpt lat="43.4650576" lon="6.8563500"><ele></ele><time>2022-5-30T21:13:14Z</time></trkpt>
<trkpt lat="43.4650578" lon="6.8563499"><ele></ele><time>2022-5-30T21:13:17Z</time></trkpt>
<trkpt lat="43.4650579" lon="6.8563499"><ele></ele><time>2022-5-30T21:13:20Z</time></trkpt>
<trkpt lat="43.4650581" lon="6.8563497"><ele></ele><time>2022-5-30T21:13:23Z</time></trkpt>
<trkpt lat="43.4650583" lon="6.8563496"><ele></ele><time>2022-5-30T21:13:26Z</time></trkpt>
<trkpt lat="43.4650584" lon="6.8563495"><ele></ele><time>2022-5-30T21:13:29Z</time></trkpt>
<trkpt lat="43.4650587" lon="6.8563493"><ele></ele><time>2022-5-30T21:13:32Z</time></trkpt>
<trkpt lat="43.4650589" lon="6.8563491"><ele></ele><time>2022-5-30T21:13:35Z</time></trkpt>
<trkpt lat="43.4650590" lon="6.8563490"><ele></ele><time>2022-5-30T21:13:38Z</time></trkpt>
<trkpt lat="43.4650595" lon="6.8563488"><ele></ele><time>2022-5-30T21:13:41Z</time></trkpt>
<trkpt lat="43.4650596" lon="6.8563488"><ele></ele><time>2022-5-30T21:13:44Z</time></trkpt>
<trkpt lat="43.4650599" lon="6.8563486"><ele></ele><time>2022-5-30T21:13:47Z</time></trkpt>
<trkpt lat="43.4650600" lon="6.8563485"><ele></ele><time>2022-5-30T21:13:50Z</time></trkpt>
<trkpt lat="43.4650603" lon="6.8563483"><ele></ele><time>2022-5-30T21:13:53Z</time></trkpt>
<trkpt lat="43.4650607" lon="6.8563481"><ele></ele><time>2022-5-30T21:13:56Z</time></trkpt>
<trkpt lat="43.4650612" lon="6.8563479"><ele></ele><time>2022-5-30T21:13:59Z</time></trkpt>
<trkpt lat="43.4650612" lon="6.8563480"><ele></ele><time>2022-5-30T21:14:2Z</time></trkpt>
<trkpt lat="43.4650613" lon="6.8563478"><ele></ele><time>2022-5-30T21:14:5Z</time></trkpt>
<trkpt lat="43.4650616" lon="6.8563476"><ele></ele><time>2022-5-30T21:14:8Z</time></trkpt>
<trkpt lat="43.4650618" lon="6.8563476"><ele></ele><time>2022-5-30T21:14:11Z</time></trkpt>
<trkpt lat="43.4650624" lon="6.8563474"><ele></ele><time>2022-5-30T21:14:14Z</time></trkpt>
<trkpt lat="43.4650628" lon="6.8563472"><ele></ele><time>2022-5-30T21:14:17Z</time></trkpt>
<trkpt lat="43.4650630" lon="6.8563473"><ele></ele><time>2022-5-30T21:14:20Z</time></trkpt>
<trkpt lat="43.4650632" lon="6.8563475"><ele></ele><time>2022-5-30T21:14:23Z</time></trkpt>
<trkpt lat="43.4650632" lon="6.8563479"><ele></ele><time>2022-5-30T21:14:26Z</time></trkpt>
<trkpt lat="43.4650648" lon="6.8563490"><ele></ele><time>2022-5-30T21:14:29Z</time></trkpt>
<trkpt lat="43.4650651" lon="6.8563496"><ele></ele><time>2022-5-30T21:14:32Z</time></trkpt>
<trkpt lat="43.4650660" lon="6.8563510"><ele></ele><time>2022-5-30T21:14:35Z</time></trkpt>
<trkpt lat="43.4650668" lon="6.8563515"><ele></ele><time>2022-5-30T21:14:38Z</time></trkpt>
<trkpt lat="43.4650673" lon="6.8563524"><ele></ele><time>2022-5-30T21:14:41Z</time></trkpt>
<trkpt lat="43.4650679" lon="6.8563530"><ele></ele><time>2022-5-30T21:14:44Z</time></trkpt>
<trkpt lat="43.4650698" lon="6.8563530"><ele></ele><time>2022-5-30T21:14:47Z</time></trkpt>
<trkpt lat="43.4650706" lon="6.8563528"><ele></ele><time>2022-5-30T21:14:50Z</time></trkpt>
<trkpt lat="43.4650718" lon="6.8563523"><ele></ele><time>2022-5-30T21:14:53Z</time></trkpt>
<trkpt lat="43.4650721" lon="6.8563521"><ele></ele><time>2022-5-30T21:14:56Z</time></trkpt>
<trkpt lat="43.4650722" lon="6.8563520"><ele></ele><time>2022-5-30T21:14:59Z</time></trkpt>
<trkpt lat="43.4650723" lon="6.8563520"><ele></ele><time>2022-5-30T21:15:2Z</time></trkpt>
<trkpt lat="43.4650725" lon="6.8563520"><ele></ele><time>2022-5-30T21:15:5Z</time></trkpt>
<trkpt lat="43.4650726" lon="6.8563519"><ele></ele><time>2022-5-30T21:15:8Z</time></trkpt>
<trkpt lat="43.4650726" lon="6.8563521"><ele></ele><time>2022-5-30T21:15:11Z</time></trkpt>
<trkpt lat="43.4650726" lon="6.8563521"><ele></ele><time>2022-5-30T21:15:14Z</time></trkpt>
<trkpt lat="43.4650725" lon="6.8563522"><ele></ele><time>2022-5-30T21:15:17Z</time></trkpt>
<trkpt lat="43.4650724" lon="6.8563522"><ele></ele><time>2022-5-30T21:15:20Z</time></trkpt>
<trkpt lat="43.4650725" lon="6.8563521"><ele></ele><time>2022-5-30T21:15:23Z</time></trkpt>
<trkpt lat="43.4650716" lon="6.8563531"><ele></ele><time>2022-5-30T21:15:26Z</time></trkpt>
<trkpt lat="43.4650715" lon="6.8563528"><ele></ele><time>2022-5-30T21:15:29Z</time></trkpt>
<trkpt lat="43.4650697" lon="6.8563535"><ele></ele><time>2022-5-30T21:15:32Z</time></trkpt>
<trkpt lat="43.4650688" lon="6.8563531"><ele></ele><time>2022-5-30T21:15:35Z</time></trkpt>
<trkpt lat="43.4650675" lon="6.8563534"><ele></ele><time>2022-5-30T21:15:38Z</time></trkpt>
<trkpt lat="43.4650667" lon="6.8563530"><ele></ele><time>2022-5-30T21:15:41Z</time></trkpt>
<trkpt lat="43.4650657" lon="6.8563518"><ele></ele><time>2022-5-30T21:15:44Z</time></trkpt>
<trkpt lat="43.4650651" lon="6.8563515"><ele></ele><time>2022-5-30T21:15:47Z</time></trkpt>
<trkpt lat="43.4650649" lon="6.8563514"><ele></ele><time>2022-5-30T21:15:50Z</time></trkpt>
<trkpt lat="43.4650641" lon="6.8563506"><ele></ele><time>2022-5-30T21:15:53Z</time></trkpt>
<trkpt lat="43.4650627" lon="6.8563454"><ele></ele><time>2022-5-30T21:15:56Z</time></trkpt>
<trkpt lat="43.4650621" lon="6.8563455"><ele></ele><time>2022-5-30T21:15:59Z</time></trkpt>
<trkpt lat="43.4650631" lon="6.8563436"><ele></ele><time>2022-5-30T21:16:2Z</time></trkpt>
<trkpt lat="43.4650652" lon="6.8563413"><ele></ele><time>2022-5-30T21:16:5Z</time></trkpt>
<trkpt lat="43.4650673" lon="6.8563409"><ele></ele><time>2022-5-30T21:16:8Z</time></trkpt>
<trkpt lat="43.4650672" lon="6.8563409"><ele></ele><time>2022-5-30T21:16:11Z</time></trkpt>
<trkpt lat="43.4650670" lon="6.8563408"><ele></ele><time>2022-5-30T21:16:14Z</time></trkpt>
<trkpt lat="43.4650669" lon="6.8563408"><ele></ele><time>2022-5-30T21:16:17Z</time></trkpt>
<trkpt lat="43.4650669" lon="6.8563408"><ele></ele><time>2022-5-30T21:16:20Z</time></trkpt>
<trkpt lat="43.4650668" lon="6.8563408"><ele></ele><time>2022-5-30T21:16:23Z</time></trkpt>
<trkpt lat="43.4650667" lon="6.8563408"><ele></ele><time>2022-5-30T21:16:26Z</time></trkpt>
<trkpt lat="43.4650666" lon="6.8563407"><ele></ele><time>2022-5-30T21:16:29Z</time></trkpt>
<trkpt lat="43.4650667" lon="6.8563407"><ele></ele><time>2022-5-30T21:16:32Z</time></trkpt>
<trkpt lat="43.4650667" lon="6.8563407"><ele></ele><time>2022-5-30T21:16:35Z</time></trkpt>
<trkpt lat="43.4650666" lon="6.8563407"><ele></ele><time>2022-5-30T21:16:38Z</time></trkpt>
<trkpt lat="43.4650667" lon="6.8563406"><ele></ele><time>2022-5-30T21:16:41Z</time></trkpt>
<trkpt lat="43.4650666" lon="6.8563406"><ele></ele><time>2022-5-30T21:16:44Z</time></trkpt>
<trkpt lat="43.4650667" lon="6.8563406"><ele></ele><time>2022-5-30T21:16:47Z</time></trkpt>
<trkpt lat="43.4650667" lon="6.8563406"><ele></ele><time>2022-5-30T21:16:50Z</time></trkpt>
<trkpt lat="43.4650666" lon="6.8563406"><ele></ele><time>2022-5-30T21:16:53Z</time></trkpt>
<trkpt lat="43.4650667" lon="6.8563406"><ele></ele><time>2022-5-30T21:16:56Z</time></trkpt>
<trkpt lat="43.4650666" lon="6.8563406"><ele></ele><time>2022-5-30T21:16:59Z</time></trkpt>
<trkpt lat="43.4650666" lon="6.8563406"><ele></ele><time>2022-5-30T21:17:2Z</time></trkpt>
<trkpt lat="43.4650665" lon="6.8563406"><ele></ele><time>2022-5-30T21:17:5Z</time></trkpt>
<trkpt lat="43.4650664" lon="6.8563406"><ele></ele><time>2022-5-30T21:17:8Z</time></trkpt>
<trkpt lat="43.4650665" lon="6.8563405"><ele></ele><time>2022-5-30T21:17:11Z</time></trkpt>
<trkpt lat="43.4650665" lon="6.8563405"><ele></ele><time>2022-5-30T21:17:14Z</time></trkpt>
<trkpt lat="43.4650665" lon="6.8563404"><ele></ele><time>2022-5-30T21:17:17Z</time></trkpt>
<trkpt lat="43.4650663" lon="6.8563404"><ele></ele><time>2022-5-30T21:17:20Z</time></trkpt>
<trkpt lat="43.4650661" lon="6.8563403"><ele></ele><time>2022-5-30T21:17:23Z</time></trkpt>
<trkpt lat="43.4650657" lon="6.8563404"><ele></ele><time>2022-5-30T21:17:26Z</time></trkpt>
<trkpt lat="43.4650651" lon="6.8563405"><ele></ele><time>2022-5-30T21:17:29Z</time></trkpt>
<trkpt lat="43.4650647" lon="6.8563406"><ele></ele><time>2022-5-30T21:17:32Z</time></trkpt>
<trkpt lat="43.4650645" lon="6.8563408"><ele></ele><time>2022-5-30T21:17:35Z</time></trkpt>
<trkpt lat="43.4650645" lon="6.8563411"><ele></ele><time>2022-5-30T21:17:38Z</time></trkpt>
<trkpt lat="43.4650647" lon="6.8563412"><ele></ele><time>2022-5-30T21:17:41Z</time></trkpt>
<trkpt lat="43.4650645" lon="6.8563413"><ele></ele><time>2022-5-30T21:17:44Z</time></trkpt>
<trkpt lat="43.4650645" lon="6.8563413"><ele></ele><time>2022-5-30T21:17:47Z</time></trkpt>
<trkpt lat="43.4650642" lon="6.8563415"><ele></ele><time>2022-5-30T21:17:50Z</time></trkpt>
<trkpt lat="43.4650646" lon="6.8563413"><ele></ele><time>2022-5-30T21:17:53Z</time></trkpt>
<trkpt lat="43.4650647" lon="6.8563413"><ele></ele><time>2022-5-30T21:17:56Z</time></trkpt>
<trkpt lat="43.4650646" lon="6.8563414"><ele></ele><time>2022-5-30T21:17:59Z</time></trkpt>
<trkpt lat="43.4650645" lon="6.8563415"><ele></ele><time>2022-5-30T21:18:2Z</time></trkpt>
<trkpt lat="43.4650645" lon="6.8563416"><ele></ele><time>2022-5-30T21:18:5Z</time></trkpt>
<trkpt lat="43.4650644" lon="6.8563417"><ele></ele><time>2022-5-30T21:18:8Z</time></trkpt>
<trkpt lat="43.4650644" lon="6.8563417"><ele></ele><time>2022-5-30T21:18:11Z</time></trkpt>
<trkpt lat="43.4650644" lon="6.8563417"><ele></ele><time>2022-5-30T21:18:14Z</time></trkpt>
<trkpt lat="43.4650643" lon="6.8563417"><ele></ele><time>2022-5-30T21:18:17Z</time></trkpt>
<trkpt lat="43.4650642" lon="6.8563418"><ele></ele><time>2022-5-30T21:18:20Z</time></trkpt>
<trkpt lat="43.4650642" lon="6.8563418"><ele></ele><time>2022-5-30T21:18:23Z</time></trkpt>
<trkpt lat="43.4650641" lon="6.8563418"><ele></ele><time>2022-5-30T21:18:26Z</time></trkpt>
<trkpt lat="43.4650641" lon="6.8563418"><ele></ele><time>2022-5-30T21:18:29Z</time></trkpt>
<trkpt lat="43.4650640" lon="6.8563419"><ele></ele><time>2022-5-30T21:18:32Z</time></trkpt>
<trkpt lat="43.4650642" lon="6.8563418"><ele></ele><time>2022-5-30T21:18:35Z</time></trkpt>
<trkpt lat="43.4650642" lon="6.8563418"><ele></ele><time>2022-5-30T21:18:38Z</time></trkpt>
<trkpt lat="43.4650643" lon="6.8563418"><ele></ele><time>2022-5-30T21:18:41Z</time></trkpt>
<trkpt lat="43.4650644" lon="6.8563418"><ele></ele><time>2022-5-30T21:18:44Z</time></trkpt>
<trkpt lat="43.4650644" lon="6.8563418"><ele></ele><time>2022-5-30T21:18:47Z</time></trkpt>
<trkpt lat="43.4650643" lon="6.8563418"><ele></ele><time>2022-5-30T21:18:50Z</time></trkpt>
<trkpt lat="43.4650644" lon="6.8563419"><ele></ele><time>2022-5-30T21:18:53Z</time></trkpt>
<trkpt lat="43.4650644" lon="6.8563419"><ele></ele><time>2022-5-30T21:18:56Z</time></trkpt>
<trkpt lat="43.4650645" lon="6.8563419"><ele></ele><time>2022-5-30T21:18:59Z</time></trkpt>
<trkpt lat="43.4650645" lon="6.8563419"><ele></ele><time>2022-5-30T21:19:2Z</time></trkpt>
<trkpt lat="43.4650645" lon="6.8563419"><ele></ele><time>2022-5-30T21:19:5Z</time></trkpt>
<trkpt lat="43.4650645" lon="6.8563418"><ele></ele><time>2022-5-30T21:19:8Z</time></trkpt>
<trkpt lat="43.4650643" lon="6.8563420"><ele></ele><time>2022-5-30T21:19:11Z</time></trkpt>
<trkpt lat="43.4650642" lon="6.8563421"><ele></ele><time>2022-5-30T21:19:14Z</time></trkpt>
<trkpt lat="43.4650641" lon="6.8563422"><ele></ele><time>2022-5-30T21:19:17Z</time></trkpt>
<trkpt lat="43.4650642" lon="6.8563422"><ele></ele><time>2022-5-30T21:19:20Z</time></trkpt>
<trkpt lat="43.4650641" lon="6.8563422"><ele></ele><time>2022-5-30T21:19:23Z</time></trkpt>
<trkpt lat="43.4650644" lon="6.8563421"><ele></ele><time>2022-5-30T21:19:26Z</time></trkpt>
<trkpt lat="43.4650644" lon="6.8563421"><ele></ele><time>2022-5-30T21:19:29Z</time></trkpt>
<trkpt lat="43.4650644" lon="6.8563422"><ele></ele><time>2022-5-30T21:19:32Z</time></trkpt>
<trkpt lat="43.4650645" lon="6.8563422"><ele></ele><time>2022-5-30T21:19:35Z</time></trkpt>
<trkpt lat="43.4650645" lon="6.8563423"><ele></ele><time>2022-5-30T21:19:38Z</time></trkpt>
<trkpt lat="43.4650644" lon="6.8563423"><ele></ele><time>2022-5-30T21:19:41Z</time></trkpt>
<trkpt lat="43.4650644" lon="6.8563423"><ele></ele><time>2022-5-30T21:19:44Z</time></trkpt>
<trkpt lat="43.4650644" lon="6.8563423"><ele></ele><time>2022-5-30T21:19:47Z</time></trkpt>
<trkpt lat="43.4650644" lon="6.8563422"><ele></ele><time>2022-5-30T21:19:50Z</time></trkpt>
<trkpt lat="43.4650645" lon="6.8563422"><ele></ele><time>2022-5-30T21:19:53Z</time></trkpt>
<trkpt lat="43.4650647" lon="6.8563422"><ele></ele><time>2022-5-30T21:19:56Z</time></trkpt>
<trkpt lat="43.4650646" lon="6.8563422"><ele></ele><time>2022-5-30T21:19:59Z</time></trkpt>
<trkpt lat="43.4650647" lon="6.8563422"><ele></ele><time>2022-5-30T21:20:2Z</time></trkpt>
<trkpt lat="43.4650646" lon="6.8563423"><ele></ele><time>2022-5-30T21:20:5Z</time></trkpt>
<trkpt lat="43.4650646" lon="6.8563424"><ele></ele><time>2022-5-30T21:20:8Z</time></trkpt>
<trkpt lat="43.4650646" lon="6.8563424"><ele></ele><time>2022-5-30T21:20:11Z</time></trkpt>
<trkpt lat="43.4650644" lon="6.8563425"><ele></ele><time>2022-5-30T21:20:14Z</time></trkpt>
<trkpt lat="43.4650646" lon="6.8563425"><ele></ele><time>2022-5-30T21:20:17Z</time></trkpt>
<trkpt lat="43.4650645" lon="6.8563425"><ele></ele><time>2022-5-30T21:20:20Z</time></trkpt>
<trkpt lat="43.4650645" lon="6.8563426"><ele></ele><time>2022-5-30T21:20:23Z</time></trkpt>
<trkpt lat="43.4650645" lon="6.8563426"><ele></ele><time>2022-5-30T21:20:26Z</time></trkpt>
<trkpt lat="43.4650645" lon="6.8563427"><ele></ele><time>2022-5-30T21:20:29Z</time></trkpt>
<trkpt lat="43.4650645" lon="6.8563428"><ele></ele><time>2022-5-30T21:20:32Z</time></trkpt>
<trkpt lat="43.4650645" lon="6.8563428"><ele></ele><time>2022-5-30T21:20:35Z</time></trkpt>
<trkpt lat="43.4650645" lon="6.8563428"><ele></ele><time>2022-5-30T21:20:38Z</time></trkpt>
<trkpt lat="43.4650644" lon="6.8563428"><ele></ele><time>2022-5-30T21:20:41Z</time></trkpt>
<trkpt lat="43.4650644" lon="6.8563429"><ele></ele><time>2022-5-30T21:20:44Z</time></trkpt>
<trkpt lat="43.4650645" lon="6.8563428"><ele></ele><time>2022-5-30T21:20:47Z</time></trkpt>
<trkpt lat="43.4650645" lon="6.8563429"><ele></ele><time>2022-5-30T21:20:50Z</time></trkpt>
<trkpt lat="43.4650645" lon="6.8563430"><ele></ele><time>2022-5-30T21:20:53Z</time></trkpt>
<trkpt lat="43.4650645" lon="6.8563431"><ele></ele><time>2022-5-30T21:20:56Z</time></trkpt>
<trkpt lat="43.4650645" lon="6.8563431"><ele></ele><time>2022-5-30T21:20:59Z</time></trkpt>
<trkpt lat="43.4650646" lon="6.8563432"><ele></ele><time>2022-5-30T21:21:2Z</time></trkpt>
<trkpt lat="43.4650645" lon="6.8563433"><ele></ele><time>2022-5-30T21:21:5Z</time></trkpt>
<trkpt lat="43.4650646" lon="6.8563433"><ele></ele><time>2022-5-30T21:21:8Z</time></trkpt>
<trkpt lat="43.4650647" lon="6.8563434"><ele></ele><time>2022-5-30T21:21:11Z</time></trkpt>
<trkpt lat="43.4650647" lon="6.8563435"><ele></ele><time>2022-5-30T21:21:14Z</time></trkpt>
<trkpt lat="43.4650647" lon="6.8563435"><ele></ele><time>2022-5-30T21:21:17Z</time></trkpt>
<trkpt lat="43.4650646" lon="6.8563436"><ele></ele><time>2022-5-30T21:21:20Z</time></trkpt>
<trkpt lat="43.4650645" lon="6.8563437"><ele></ele><time>2022-5-30T21:21:23Z</time></trkpt>
<trkpt lat="43.4650645" lon="6.8563438"><ele></ele><time>2022-5-30T21:21:26Z</time></trkpt>
<trkpt lat="43.4650645" lon="6.8563439"><ele></ele><time>2022-5-30T21:21:29Z</time></trkpt>
<trkpt lat="43.4650645" lon="6.8563440"><ele></ele><time>2022-5-30T21:21:32Z</time></trkpt>
<trkpt lat="43.4650645" lon="6.8563440"><ele></ele><time>2022-5-30T21:21:35Z</time></trkpt>
<trkpt lat="43.4650643" lon="6.8563442"><ele></ele><time>2022-5-30T21:21:38Z</time></trkpt>
<trkpt lat="43.4650643" lon="6.8563443"><ele></ele><time>2022-5-30T21:21:41Z</time></trkpt>
<trkpt lat="43.4650645" lon="6.8563443"><ele></ele><time>2022-5-30T21:21:44Z</time></trkpt>
<trkpt lat="43.4650645" lon="6.8563443"><ele></ele><time>2022-5-30T21:21:47Z</time></trkpt>
<trkpt lat="43.4650645" lon="6.8563444"><ele></ele><time>2022-5-30T21:21:50Z</time></trkpt>
<trkpt lat="43.4650645" lon="6.8563445"><ele></ele><time>2022-5-30T21:21:53Z</time></trkpt>
<trkpt lat="43.4650644" lon="6.8563445"><ele></ele><time>2022-5-30T21:21:56Z</time></trkpt>
<trkpt lat="43.4650643" lon="6.8563449"><ele></ele><time>2022-5-30T21:21:59Z</time></trkpt>
<trkpt lat="43.4650642" lon="6.8563450"><ele></ele><time>2022-5-30T21:22:2Z</time></trkpt>
<trkpt lat="43.4650641" lon="6.8563452"><ele></ele><time>2022-5-30T21:22:5Z</time></trkpt>
<trkpt lat="43.4650637" lon="6.8563454"><ele></ele><time>2022-5-30T21:22:8Z</time></trkpt>
<trkpt lat="43.4650637" lon="6.8563460"><ele></ele><time>2022-5-30T21:22:11Z</time></trkpt>
<trkpt lat="43.4650637" lon="6.8563463"><ele></ele><time>2022-5-30T21:22:14Z</time></trkpt>
<trkpt lat="43.4650635" lon="6.8563465"><ele></ele><time>2022-5-30T21:22:17Z</time></trkpt>
<trkpt lat="43.4650630" lon="6.8563470"><ele></ele><time>2022-5-30T21:22:20Z</time></trkpt>
<trkpt lat="43.4650628" lon="6.8563472"><ele></ele><time>2022-5-30T21:22:23Z</time></trkpt>
<trkpt lat="43.4650622" lon="6.8563479"><ele></ele><time>2022-5-30T21:22:26Z</time></trkpt>
<trkpt lat="43.4650619" lon="6.8563487"><ele></ele><time>2022-5-30T21:22:29Z</time></trkpt>
<trkpt lat="43.4650615" lon="6.8563497"><ele></ele><time>2022-5-30T21:22:32Z</time></trkpt>
<trkpt lat="43.4650619" lon="6.8563508"><ele></ele><time>2022-5-30T21:22:35Z</time></trkpt>
<trkpt lat="43.4650616" lon="6.8563511"><ele></ele><time>2022-5-30T21:22:38Z</time></trkpt>
<trkpt lat="43.4650616" lon="6.8563515"><ele></ele><time>2022-5-30T21:22:41Z</time></trkpt>
<trkpt lat="43.4650613" lon="6.8563518"><ele></ele><time>2022-5-30T21:22:44Z</time></trkpt>
<trkpt lat="43.4650613" lon="6.8563520"><ele></ele><time>2022-5-30T21:22:47Z</time></trkpt>
<trkpt lat="43.4650613" lon="6.8563523"><ele></ele><time>2022-5-30T21:22:50Z</time></trkpt>
<trkpt lat="43.4650612" lon="6.8563526"><ele></ele><time>2022-5-30T21:22:53Z</time></trkpt>
<trkpt lat="43.4650613" lon="6.8563527"><ele></ele><time>2022-5-30T21:22:56Z</time></trkpt>
<trkpt lat="43.4650613" lon="6.8563529"><ele></ele><time>2022-5-30T21:22:59Z</time></trkpt>
<trkpt lat="43.4650616" lon="6.8563532"><ele></ele><time>2022-5-30T21:23:2Z</time></trkpt>
<trkpt lat="43.4650611" lon="6.8563534"><ele></ele><time>2022-5-30T21:23:5Z</time></trkpt>
<trkpt lat="43.4650610" lon="6.8563536"><ele></ele><time>2022-5-30T21:23:8Z</time></trkpt>
<trkpt lat="43.4650613" lon="6.8563537"><ele></ele><time>2022-5-30T21:23:11Z</time></trkpt>
<trkpt lat="43.4650615" lon="6.8563538"><ele></ele><time>2022-5-30T21:23:14Z</time></trkpt>
<trkpt lat="43.4650616" lon="6.8563539"><ele></ele><time>2022-5-30T21:23:17Z</time></trkpt>
<trkpt lat="43.4650616" lon="6.8563540"><ele></ele><time>2022-5-30T21:23:20Z</time></trkpt>
<trkpt lat="43.4650621" lon="6.8563547"><ele></ele><time>2022-5-30T21:23:23Z</time></trkpt>
<trkpt lat="43.4650552" lon="6.8563590"><ele></ele><time>2022-5-30T21:23:26Z</time></trkpt>
<trkpt lat="43.4650460" lon="6.8563650"><ele></ele><time>2022-5-30T21:23:29Z</time></trkpt>
<trkpt lat="43.4650399" lon="6.8563689"><ele></ele><time>2022-5-30T21:23:32Z</time></trkpt>
<trkpt lat="43.4650385" lon="6.8563699"><ele></ele><time>2022-5-30T21:23:35Z</time></trkpt>
<trkpt lat="43.4650388" lon="6.8563695"><ele></ele><time>2022-5-30T21:23:38Z</time></trkpt>
<trkpt lat="43.4650387" lon="6.8563696"><ele></ele><time>2022-5-30T21:23:41Z</time></trkpt>
<trkpt lat="43.4650380" lon="6.8563706"><ele></ele><time>2022-5-30T21:23:44Z</time></trkpt>
<trkpt lat="43.4650373" lon="6.8563715"><ele></ele><time>2022-5-30T21:23:47Z</time></trkpt>
<trkpt lat="43.4650369" lon="6.8563721"><ele></ele><time>2022-5-30T21:23:50Z</time></trkpt>
<trkpt lat="43.4650362" lon="6.8563727"><ele></ele><time>2022-5-30T21:23:53Z</time></trkpt>
<trkpt lat="43.4650361" lon="6.8563727"><ele></ele><time>2022-5-30T21:23:56Z</time></trkpt>
<trkpt lat="43.4650360" lon="6.8563728"><ele></ele><time>2022-5-30T21:23:59Z</time></trkpt>
<trkpt lat="43.4650360" lon="6.8563729"><ele></ele><time>2022-5-30T21:24:2Z</time></trkpt>
<trkpt lat="43.4650362" lon="6.8563730"><ele></ele><time>2022-5-30T21:24:5Z</time></trkpt>
<trkpt lat="43.4650358" lon="6.8563732"><ele></ele><time>2022-5-30T21:24:8Z</time></trkpt>
<trkpt lat="43.4650357" lon="6.8563733"><ele></ele><time>2022-5-30T21:24:11Z</time></trkpt>
<trkpt lat="43.4650356" lon="6.8563735"><ele></ele><time>2022-5-30T21:24:14Z</time></trkpt>
<trkpt lat="43.4650357" lon="6.8563735"><ele></ele><time>2022-5-30T21:24:17Z</time></trkpt>
<trkpt lat="43.4650356" lon="6.8563740"><ele></ele><time>2022-5-30T21:24:20Z</time></trkpt>
<trkpt lat="43.4650359" lon="6.8563738"><ele></ele><time>2022-5-30T21:24:23Z</time></trkpt>
<trkpt lat="43.4650358" lon="6.8563742"><ele></ele><time>2022-5-30T21:24:26Z</time></trkpt>
<trkpt lat="43.4650359" lon="6.8563743"><ele></ele><time>2022-5-30T21:24:29Z</time></trkpt>
<trkpt lat="43.4650362" lon="6.8563742"><ele></ele><time>2022-5-30T21:24:32Z</time></trkpt>
<trkpt lat="43.4650364" lon="6.8563742"><ele></ele><time>2022-5-30T21:24:35Z</time></trkpt>
<trkpt lat="43.4650364" lon="6.8563741"><ele></ele><time>2022-5-30T21:24:38Z</time></trkpt>
<trkpt lat="43.4650363" lon="6.8563740"><ele></ele><time>2022-5-30T21:24:41Z</time></trkpt>
<trkpt lat="43.4650364" lon="6.8563738"><ele></ele><time>2022-5-30T21:24:44Z</time></trkpt>
<trkpt lat="43.4650364" lon="6.8563737"><ele></ele><time>2022-5-30T21:24:47Z</time></trkpt>
<trkpt lat="43.4650366" lon="6.8563737"><ele></ele><time>2022-5-30T21:24:50Z</time></trkpt>
<trkpt lat="43.4650368" lon="6.8563737"><ele></ele><time>2022-5-30T21:24:53Z</time></trkpt>
<trkpt lat="43.4650367" lon="6.8563739"><ele></ele><time>2022-5-30T21:24:56Z</time></trkpt>
<trkpt lat="43.4650368" lon="6.8563739"><ele></ele><time>2022-5-30T21:24:59Z</time></trkpt>
<trkpt lat="43.4650369" lon="6.8563740"><ele></ele><time>2022-5-30T21:25:2Z</time></trkpt>
<trkpt lat="43.4650376" lon="6.8563732"><ele></ele><time>2022-5-30T21:25:5Z</time></trkpt>
<trkpt lat="43.4650406" lon="6.8563680"><ele></ele><time>2022-5-30T21:25:8Z</time></trkpt>
<trkpt lat="43.4650422" lon="6.8563551"><ele></ele><time>2022-5-30T21:25:11Z</time></trkpt>
<trkpt lat="43.4650395" lon="6.8563347"><ele></ele><time>2022-5-30T21:25:14Z</time></trkpt>
<trkpt lat="43.4650273" lon="6.8563149"><ele></ele><time>2022-5-30T21:25:17Z</time></trkpt>
<trkpt lat="43.4650156" lon="6.8563076"><ele></ele><time>2022-5-30T21:25:20Z</time></trkpt>
<trkpt lat="43.4649971" lon="6.8562982"><ele></ele><time>2022-5-30T21:25:23Z</time></trkpt>
<trkpt lat="43.4649814" lon="6.8562799"><ele></ele><time>2022-5-30T21:25:26Z</time></trkpt>
<trkpt lat="43.4649585" lon="6.8562430"><ele></ele><time>2022-5-30T21:25:29Z</time></trkpt>
<trkpt lat="43.4649269" lon="6.8562056"><ele></ele><time>2022-5-30T21:25:32Z</time></trkpt>
<trkpt lat="43.4648925" lon="6.8561600"><ele></ele><time>2022-5-30T21:25:35Z</time></trkpt>
<trkpt lat="43.4648586" lon="6.8561069"><ele></ele><time>2022-5-30T21:25:38Z</time></trkpt>
<trkpt lat="43.4648223" lon="6.8560597"><ele></ele><time>2022-5-30T21:25:41Z</time></trkpt>
<trkpt lat="43.4647758" lon="6.8560078"><ele></ele><time>2022-5-30T21:25:44Z</time></trkpt>
<trkpt lat="43.4647416" lon="6.8559562"><ele></ele><time>2022-5-30T21:25:47Z</time></trkpt>
<trkpt lat="43.4647105" lon="6.8558959"><ele></ele><time>2022-5-30T21:25:50Z</time></trkpt>
<trkpt lat="43.4646898" lon="6.8558226"><ele></ele><time>2022-5-30T21:25:53Z</time></trkpt>
<trkpt lat="43.4646799" lon="6.8557457"><ele></ele><time>2022-5-30T21:25:56Z</time></trkpt>
<trkpt lat="43.4646726" lon="6.8556831"><ele></ele><time>2022-5-30T21:25:59Z</time></trkpt>
<trkpt lat="43.4646672" lon="6.8556395"><ele></ele><time>2022-5-30T21:26:2Z</time></trkpt>
<trkpt lat="43.4646648" lon="6.8555964"><ele></ele><time>2022-5-30T21:26:5Z</time></trkpt>
<trkpt lat="43.4646601" lon="6.8555489"><ele></ele><time>2022-5-30T21:26:8Z</time></trkpt>
<trkpt lat="43.4646559" lon="6.8554939"><ele></ele><time>2022-5-30T21:26:11Z</time></trkpt>
<trkpt lat="43.4646523" lon="6.8554427"><ele></ele><time>2022-5-30T21:26:14Z</time></trkpt>
<trkpt lat="43.4646509" lon="6.8553941"><ele></ele><time>2022-5-30T21:26:17Z</time></trkpt>
<trkpt lat="43.4646497" lon="6.8553378"><ele></ele><time>2022-5-30T21:26:20Z</time></trkpt>
<trkpt lat="43.4646513" lon="6.8552835"><ele></ele><time>2022-5-30T21:26:23Z</time></trkpt>
<trkpt lat="43.4646599" lon="6.8552243"><ele></ele><time>2022-5-30T21:26:26Z</time></trkpt>
<trkpt lat="43.4646665" lon="6.8551706"><ele></ele><time>2022-5-30T21:26:29Z</time></trkpt>
<trkpt lat="43.4646676" lon="6.8551256"><ele></ele><time>2022-5-30T21:26:32Z</time></trkpt>
<trkpt lat="43.4646510" lon="6.8550881"><ele></ele><time>2022-5-30T21:26:35Z</time></trkpt>
<trkpt lat="43.4646135" lon="6.8550568"><ele></ele><time>2022-5-30T21:26:38Z</time></trkpt>
<trkpt lat="43.4645684" lon="6.8550324"><ele></ele><time>2022-5-30T21:26:41Z</time></trkpt>
<trkpt lat="43.4645242" lon="6.8550106"><ele></ele><time>2022-5-30T21:26:44Z</time></trkpt>
<trkpt lat="43.4644912" lon="6.8549933"><ele></ele><time>2022-5-30T21:26:47Z</time></trkpt>
<trkpt lat="43.4644680" lon="6.8549789"><ele></ele><time>2022-5-30T21:26:50Z</time></trkpt>
<trkpt lat="43.4644431" lon="6.8549506"><ele></ele><time>2022-5-30T21:26:53Z</time></trkpt>
<trkpt lat="43.4644218" lon="6.8549112"><ele></ele><time>2022-5-30T21:26:56Z</time></trkpt>
<trkpt lat="43.4643992" lon="6.8548691"><ele></ele><time>2022-5-30T21:26:59Z</time></trkpt>
<trkpt lat="43.4643739" lon="6.8548089"><ele></ele><time>2022-5-30T21:27:2Z</time></trkpt>
<trkpt lat="43.4643611" lon="6.8547457"><ele></ele><time>2022-5-30T21:27:5Z</time></trkpt>
<trkpt lat="43.4643454" lon="6.8546832"><ele></ele><time>2022-5-30T21:27:8Z</time></trkpt>
<trkpt lat="43.4643142" lon="6.8546429"><ele></ele><time>2022-5-30T21:27:11Z</time></trkpt>
<trkpt lat="43.4642800" lon="6.8546071"><ele></ele><time>2022-5-30T21:27:14Z</time></trkpt>
<trkpt lat="43.4642373" lon="6.8546048"><ele></ele><time>2022-5-30T21:27:17Z</time></trkpt>
<trkpt lat="43.4642046" lon="6.8546200"><ele></ele><time>2022-5-30T21:27:20Z</time></trkpt>
<trkpt lat="43.4641835" lon="6.8546236"><ele></ele><time>2022-5-30T21:27:23Z</time></trkpt>
<trkpt lat="43.4641716" lon="6.8546193"><ele></ele><time>2022-5-30T21:27:26Z</time></trkpt>
<trkpt lat="43.4641553" lon="6.8546377"><ele></ele><time>2022-5-30T21:27:29Z</time></trkpt>
<trkpt lat="43.4641327" lon="6.8546813"><ele></ele><time>2022-5-30T21:27:32Z</time></trkpt>
<trkpt lat="43.4641069" lon="6.8547156"><ele></ele><time>2022-5-30T21:27:35Z</time></trkpt>
<trkpt lat="43.4640764" lon="6.8547354"><ele></ele><time>2022-5-30T21:27:38Z</time></trkpt>
<trkpt lat="43.4640429" lon="6.8547456"><ele></ele><time>2022-5-30T21:27:41Z</time></trkpt>
<trkpt lat="43.4640053" lon="6.8547701"><ele></ele><time>2022-5-30T21:27:44Z</time></trkpt>
<trkpt lat="43.4639709" lon="6.8548292"><ele></ele><time>2022-5-30T21:27:47Z</time></trkpt>
<trkpt lat="43.4639340" lon="6.8548740"><ele></ele><time>2022-5-30T21:27:50Z</time></trkpt>
<trkpt lat="43.4638916" lon="6.8548958"><ele></ele><time>2022-5-30T21:27:53Z</time></trkpt>
<trkpt lat="43.4638456" lon="6.8548989"><ele></ele><time>2022-5-30T21:27:56Z</time></trkpt>
<trkpt lat="43.4638035" lon="6.8549391"><ele></ele><time>2022-5-30T21:27:59Z</time></trkpt>
<trkpt lat="43.4637667" lon="6.8549942"><ele></ele><time>2022-5-30T21:28:2Z</time></trkpt>
<trkpt lat="43.4637170" lon="6.8550441"><ele></ele><time>2022-5-30T21:28:5Z</time></trkpt>
<trkpt lat="43.4636619" lon="6.8550921"><ele></ele><time>2022-5-30T21:28:8Z</time></trkpt>
<trkpt lat="43.4636027" lon="6.8551268"><ele></ele><time>2022-5-30T21:28:11Z</time></trkpt>
<trkpt lat="43.4635516" lon="6.8551725"><ele></ele><time>2022-5-30T21:28:14Z</time></trkpt>
<trkpt lat="43.4635217" lon="6.8552133"><ele></ele><time>2022-5-30T21:28:17Z</time></trkpt>
<trkpt lat="43.4635109" lon="6.8552510"><ele></ele><time>2022-5-30T21:28:20Z</time></trkpt>
<trkpt lat="43.4635141" lon="6.8552953"><ele></ele><time>2022-5-30T21:28:23Z</time></trkpt>
<trkpt lat="43.4635194" lon="6.8553176"><ele></ele><time>2022-5-30T21:28:26Z</time></trkpt>
<trkpt lat="43.4635302" lon="6.8553322"><ele></ele><time>2022-5-30T21:28:29Z</time></trkpt>
<trkpt lat="43.4635366" lon="6.8553442"><ele></ele><time>2022-5-30T21:28:32Z</time></trkpt>
<trkpt lat="43.4635411" lon="6.8553568"><ele></ele><time>2022-5-30T21:28:35Z</time></trkpt>
<trkpt lat="43.4635413" lon="6.8553809"><ele></ele><time>2022-5-30T21:28:38Z</time></trkpt>
<trkpt lat="43.4635352" lon="6.8554226"><ele></ele><time>2022-5-30T21:28:41Z</time></trkpt>
<trkpt lat="43.4635265" lon="6.8554712"><ele></ele><time>2022-5-30T21:28:44Z</time></trkpt>
<trkpt lat="43.4635032" lon="6.8555146"><ele></ele><time>2022-5-30T21:28:47Z</time></trkpt>
<trkpt lat="43.4634732" lon="6.8555556"><ele></ele><time>2022-5-30T21:28:50Z</time></trkpt>
<trkpt lat="43.4634422" lon="6.8555947"><ele></ele><time>2022-5-30T21:28:53Z</time></trkpt>
<trkpt lat="43.4634112" lon="6.8556335"><ele></ele><time>2022-5-30T21:28:56Z</time></trkpt>
<trkpt lat="43.4633923" lon="6.8556639"><ele></ele><time>2022-5-30T21:28:59Z</time></trkpt>
<trkpt lat="43.4633773" lon="6.8556895"><ele></ele><time>2022-5-30T21:29:2Z</time></trkpt>
<trkpt lat="43.4633592" lon="6.8557147"><ele></ele><time>2022-5-30T21:29:5Z</time></trkpt>
<trkpt lat="43.4633417" lon="6.8557385"><ele></ele><time>2022-5-30T21:29:8Z</time></trkpt>
<trkpt lat="43.4633291" lon="6.8557606"><ele></ele><time>2022-5-30T21:29:11Z</time></trkpt>
<trkpt lat="43.4633143" lon="6.8557779"><ele></ele><time>2022-5-30T21:29:14Z</time></trkpt>
<trkpt lat="43.4633008" lon="6.8557966"><ele></ele><time>2022-5-30T21:29:17Z</time></trkpt>
<trkpt lat="43.4632950" lon="6.8558054"><ele></ele><time>2022-5-30T21:29:20Z</time></trkpt>
<trkpt lat="43.4632966" lon="6.8558051"><ele></ele><time>2022-5-30T21:29:23Z</time></trkpt>
<trkpt lat="43.4632951" lon="6.8558096"><ele></ele><time>2022-5-30T21:29:26Z</time></trkpt>
<trkpt lat="43.4632946" lon="6.8558108"><ele></ele><time>2022-5-30T21:29:29Z</time></trkpt>
<trkpt lat="43.4632959" lon="6.8558121"><ele></ele><time>2022-5-30T21:29:32Z</time></trkpt>
<trkpt lat="43.4632954" lon="6.8558175"><ele></ele><time>2022-5-30T21:29:35Z</time></trkpt>
<trkpt lat="43.4632916" lon="6.8558241"><ele></ele><time>2022-5-30T21:29:38Z</time></trkpt>
<trkpt lat="43.4632916" lon="6.8558260"><ele></ele><time>2022-5-30T21:29:41Z</time></trkpt>
<trkpt lat="43.4632899" lon="6.8558323"><ele></ele><time>2022-5-30T21:29:44Z</time></trkpt>
<trkpt lat="43.4632885" lon="6.8558282"><ele></ele><time>2022-5-30T21:29:47Z</time></trkpt>
<trkpt lat="43.4632908" lon="6.8558227"><ele></ele><time>2022-5-30T21:29:50Z</time></trkpt>
<trkpt lat="43.4632930" lon="6.8558165"><ele></ele><time>2022-5-30T21:29:53Z</time></trkpt>
<trkpt lat="43.4632964" lon="6.8558093"><ele></ele><time>2022-5-30T21:29:56Z</time></trkpt>
<trkpt lat="43.4633026" lon="6.8557997"><ele></ele><time>2022-5-30T21:29:59Z</time></trkpt>
<trkpt lat="43.4633058" lon="6.8557969"><ele></ele><time>2022-5-30T21:30:2Z</time></trkpt>
<trkpt lat="43.4633089" lon="6.8557923"><ele></ele><time>2022-5-30T21:30:5Z</time></trkpt>
<trkpt lat="43.4633163" lon="6.8557881"><ele></ele><time>2022-5-30T21:30:8Z</time></trkpt>
<trkpt lat="43.4633160" lon="6.8557898"><ele></ele><time>2022-5-30T21:30:11Z</time></trkpt>
<trkpt lat="43.4633181" lon="6.8557862"><ele></ele><time>2022-5-30T21:30:14Z</time></trkpt>
<trkpt lat="43.4633229" lon="6.8557828"><ele></ele><time>2022-5-30T21:30:17Z</time></trkpt>
<trkpt lat="43.4633240" lon="6.8557792"><ele></ele><time>2022-5-30T21:30:20Z</time></trkpt>
<trkpt lat="43.4633274" lon="6.8557730"><ele></ele><time>2022-5-30T21:30:23Z</time></trkpt>
<trkpt lat="43.4633325" lon="6.8557610"><ele></ele><time>2022-5-30T21:30:26Z</time></trkpt>
<trkpt lat="43.4633345" lon="6.8557469"><ele></ele><time>2022-5-30T21:30:29Z</time></trkpt>
<trkpt lat="43.4633397" lon="6.8557309"><ele></ele><time>2022-5-30T21:30:32Z</time></trkpt>
<trkpt lat="43.4633457" lon="6.8557183"><ele></ele><time>2022-5-30T21:30:35Z</time></trkpt>
<trkpt lat="43.4633509" lon="6.8557125"><ele></ele><time>2022-5-30T21:30:38Z</time></trkpt>
<trkpt lat="43.4633549" lon="6.8557054"><ele></ele><time>2022-5-30T21:30:41Z</time></trkpt>
<trkpt lat="43.4633597" lon="6.8556949"><ele></ele><time>2022-5-30T21:30:44Z</time></trkpt>
<trkpt lat="43.4633638" lon="6.8556860"><ele></ele><time>2022-5-30T21:30:47Z</time></trkpt>
<trkpt lat="43.4633677" lon="6.8556804"><ele></ele><time>2022-5-30T21:30:50Z</time></trkpt>
<trkpt lat="43.4633718" lon="6.8556729"><ele></ele><time>2022-5-30T21:30:53Z</time></trkpt>
<trkpt lat="43.4633782" lon="6.8556619"><ele></ele><time>2022-5-30T21:30:56Z</time></trkpt>
<trkpt lat="43.4633808" lon="6.8556572"><ele></ele><time>2022-5-30T21:30:59Z</time></trkpt>
<trkpt lat="43.4633806" lon="6.8556582"><ele></ele><time>2022-5-30T21:31:2Z</time></trkpt>
<trkpt lat="43.4633806" lon="6.8556581"><ele></ele><time>2022-5-30T21:31:5Z</time></trkpt>
<trkpt lat="43.4633806" lon="6.8556584"><ele></ele><time>2022-5-30T21:31:8Z</time></trkpt>
<trkpt lat="43.4633807" lon="6.8556524"><ele></ele><time>2022-5-30T21:31:11Z</time></trkpt>
<trkpt lat="43.4633894" lon="6.8556438"><ele></ele><time>2022-5-30T21:31:14Z</time></trkpt>
<trkpt lat="43.4633995" lon="6.8556338"><ele></ele><time>2022-5-30T21:31:17Z</time></trkpt>
<trkpt lat="43.4634036" lon="6.8556258"><ele></ele><time>2022-5-30T21:31:20Z</time></trkpt>
<trkpt lat="43.4634070" lon="6.8556169"><ele></ele><time>2022-5-30T21:31:23Z</time></trkpt>
<trkpt lat="43.4634146" lon="6.8556028"><ele></ele><time>2022-5-30T21:31:26Z</time></trkpt>
<trkpt lat="43.4634295" lon="6.8555777"><ele></ele><time>2022-5-30T21:31:29Z</time></trkpt>
<trkpt lat="43.4634445" lon="6.8555534"><ele></ele><time>2022-5-30T21:31:32Z</time></trkpt>
<trkpt lat="43.4634573" lon="6.8555234"><ele></ele><time>2022-5-30T21:31:35Z</time></trkpt>
<trkpt lat="43.4634692" lon="6.8554954"><ele></ele><time>2022-5-30T21:31:38Z</time></trkpt>
<trkpt lat="43.4634876" lon="6.8554618"><ele></ele><time>2022-5-30T21:31:41Z</time></trkpt>
<trkpt lat="43.4634946" lon="6.8554305"><ele></ele><time>2022-5-30T21:31:44Z</time></trkpt>
<trkpt lat="43.4634990" lon="6.8553903"><ele></ele><time>2022-5-30T21:31:47Z</time></trkpt>
<trkpt lat="43.4635006" lon="6.8553640"><ele></ele><time>2022-5-30T21:31:50Z</time></trkpt>
<trkpt lat="43.4635069" lon="6.8553531"><ele></ele><time>2022-5-30T21:31:53Z</time></trkpt>
<trkpt lat="43.4635203" lon="6.8553523"><ele></ele><time>2022-5-30T21:31:56Z</time></trkpt>
<trkpt lat="43.4635406" lon="6.8553627"><ele></ele><time>2022-5-30T21:31:59Z</time></trkpt>
<trkpt lat="43.4635593" lon="6.8553769"><ele></ele><time>2022-5-30T21:32:2Z</time></trkpt>
<trkpt lat="43.4635795" lon="6.8553876"><ele></ele><time>2022-5-30T21:32:5Z</time></trkpt>
<trkpt lat="43.4636080" lon="6.8554042"><ele></ele><time>2022-5-30T21:32:8Z</time></trkpt>
<trkpt lat="43.4636390" lon="6.8554352"><ele></ele><time>2022-5-30T21:32:11Z</time></trkpt>
<trkpt lat="43.4636547" lon="6.8554738"><ele></ele><time>2022-5-30T21:32:14Z</time></trkpt>
<trkpt lat="43.4636601" lon="6.8555098"><ele></ele><time>2022-5-30T21:32:17Z</time></trkpt>
<trkpt lat="43.4636460" lon="6.8555401"><ele></ele><time>2022-5-30T21:32:20Z</time></trkpt>
<trkpt lat="43.4636266" lon="6.8555720"><ele></ele><time>2022-5-30T21:32:23Z</time></trkpt>
<trkpt lat="43.4636028" lon="6.8556028"><ele></ele><time>2022-5-30T21:32:26Z</time></trkpt>
<trkpt lat="43.4635798" lon="6.8556329"><ele></ele><time>2022-5-30T21:32:29Z</time></trkpt>
<trkpt lat="43.4635581" lon="6.8556683"><ele></ele><time>2022-5-30T21:32:32Z</time></trkpt>
<trkpt lat="43.4635408" lon="6.8557063"><ele></ele><time>2022-5-30T21:32:35Z</time></trkpt>
<trkpt lat="43.4635282" lon="6.8557539"><ele></ele><time>2022-5-30T21:32:38Z</time></trkpt>
<trkpt lat="43.4635175" lon="6.8558064"><ele></ele><time>2022-5-30T21:32:41Z</time></trkpt>
<trkpt lat="43.4635046" lon="6.8558582"><ele></ele><time>2022-5-30T21:32:44Z</time></trkpt>
<trkpt lat="43.4634915" lon="6.8558985"><ele></ele><time>2022-5-30T21:32:47Z</time></trkpt>
<trkpt lat="43.4634804" lon="6.8559383"><ele></ele><time>2022-5-30T21:32:50Z</time></trkpt>
<trkpt lat="43.4634729" lon="6.8559814"><ele></ele><time>2022-5-30T21:32:53Z</time></trkpt>
<trkpt lat="43.4634645" lon="6.8560226"><ele></ele><time>2022-5-30T21:32:56Z</time></trkpt>
<trkpt lat="43.4634622" lon="6.8560641"><ele></ele><time>2022-5-30T21:32:59Z</time></trkpt>
<trkpt lat="43.4634568" lon="6.8561095"><ele></ele><time>2022-5-30T21:33:2Z</time></trkpt>
<trkpt lat="43.4634498" lon="6.8561588"><ele></ele><time>2022-5-30T21:33:5Z</time></trkpt>
<trkpt lat="43.4634470" lon="6.8562112"><ele></ele><time>2022-5-30T21:33:8Z</time></trkpt>
<trkpt lat="43.4634454" lon="6.8562656"><ele></ele><time>2022-5-30T21:33:11Z</time></trkpt>
<trkpt lat="43.4634484" lon="6.8563145"><ele></ele><time>2022-5-30T21:33:14Z</time></trkpt>
<trkpt lat="43.4634587" lon="6.8563616"><ele></ele><time>2022-5-30T21:33:17Z</time></trkpt>
<trkpt lat="43.4634676" lon="6.8564162"><ele></ele><time>2022-5-30T21:33:20Z</time></trkpt>
<trkpt lat="43.4634788" lon="6.8564695"><ele></ele><time>2022-5-30T21:33:23Z</time></trkpt>
<trkpt lat="43.4634930" lon="6.8565472"><ele></ele><time>2022-5-30T21:33:26Z</time></trkpt>
<trkpt lat="43.4635107" lon="6.8566103"><ele></ele><time>2022-5-30T21:33:29Z</time></trkpt>
<trkpt lat="43.4635275" lon="6.8566759"><ele></ele><time>2022-5-30T21:33:32Z</time></trkpt>
<trkpt lat="43.4635330" lon="6.8567354"><ele></ele><time>2022-5-30T21:33:35Z</time></trkpt>
<trkpt lat="43.4635159" lon="6.8567704"><ele></ele><time>2022-5-30T21:33:38Z</time></trkpt>
<trkpt lat="43.4634973" lon="6.8568105"><ele></ele><time>2022-5-30T21:33:41Z</time></trkpt>
<trkpt lat="43.4634890" lon="6.8568523"><ele></ele><time>2022-5-30T21:33:44Z</time></trkpt>
<trkpt lat="43.4634758" lon="6.8568970"><ele></ele><time>2022-5-30T21:33:47Z</time></trkpt>
<trkpt lat="43.4634630" lon="6.8569415"><ele></ele><time>2022-5-30T21:33:50Z</time></trkpt>
<trkpt lat="43.4634527" lon="6.8569989"><ele></ele><time>2022-5-30T21:33:53Z</time></trkpt>
<trkpt lat="43.4634433" lon="6.8570563"><ele></ele><time>2022-5-30T21:33:56Z</time></trkpt>
<trkpt lat="43.4634370" lon="6.8571099"><ele></ele><time>2022-5-30T21:33:59Z</time></trkpt>
<trkpt lat="43.4634367" lon="6.8571640"><ele></ele><time>2022-5-30T21:34:2Z</time></trkpt>
<trkpt lat="43.4634423" lon="6.8572210"><ele></ele><time>2022-5-30T21:34:5Z</time></trkpt>
<trkpt lat="43.4634586" lon="6.8572681"><ele></ele><time>2022-5-30T21:34:8Z</time></trkpt>
<trkpt lat="43.4634802" lon="6.8573071"><ele></ele><time>2022-5-30T21:34:11Z</time></trkpt>
<trkpt lat="43.4635078" lon="6.8573369"><ele></ele><time>2022-5-30T21:34:14Z</time></trkpt>
<trkpt lat="43.4635363" lon="6.8573677"><ele></ele><time>2022-5-30T21:34:17Z</time></trkpt>
<trkpt lat="43.4635661" lon="6.8573965"><ele></ele><time>2022-5-30T21:34:20Z</time></trkpt>
<trkpt lat="43.4635982" lon="6.8574223"><ele></ele><time>2022-5-30T21:34:23Z</time></trkpt>
<trkpt lat="43.4636295" lon="6.8574451"><ele></ele><time>2022-5-30T21:34:26Z</time></trkpt>
<trkpt lat="43.4636635" lon="6.8574655"><ele></ele><time>2022-5-30T21:34:29Z</time></trkpt>
<trkpt lat="43.4636961" lon="6.8574859"><ele></ele><time>2022-5-30T21:34:32Z</time></trkpt>
<trkpt lat="43.4637292" lon="6.8575080"><ele></ele><time>2022-5-30T21:34:35Z</time></trkpt>
<trkpt lat="43.4637626" lon="6.8575348"><ele></ele><time>2022-5-30T21:34:38Z</time></trkpt>
<trkpt lat="43.4637986" lon="6.8575612"><ele></ele><time>2022-5-30T21:34:41Z</time></trkpt>
<trkpt lat="43.4638295" lon="6.8575844"><ele></ele><time>2022-5-30T21:34:44Z</time></trkpt>
<trkpt lat="43.4638703" lon="6.8576036"><ele></ele><time>2022-5-30T21:34:47Z</time></trkpt>
<trkpt lat="43.4638984" lon="6.8576286"><ele></ele><time>2022-5-30T21:34:50Z</time></trkpt>
<trkpt lat="43.4639167" lon="6.8576743"><ele></ele><time>2022-5-30T21:34:53Z</time></trkpt>
<trkpt lat="43.4639295" lon="6.8577270"><ele></ele><time>2022-5-30T21:34:56Z</time></trkpt>
<trkpt lat="43.4639415" lon="6.8577821"><ele></ele><time>2022-5-30T21:34:59Z</time></trkpt>
<trkpt lat="43.4639396" lon="6.8578187"><ele></ele><time>2022-5-30T21:35:2Z</time></trkpt>
<trkpt lat="43.4639223" lon="6.8578337"><ele></ele><time>2022-5-30T21:35:5Z</time></trkpt>
<trkpt lat="43.4638996" lon="6.8578410"><ele></ele><time>2022-5-30T21:35:8Z</time></trkpt>
<trkpt lat="43.4638702" lon="6.8578577"><ele></ele><time>2022-5-30T21:35:11Z</time></trkpt>
<trkpt lat="43.4638430" lon="6.8578760"><ele></ele><time>2022-5-30T21:35:14Z</time></trkpt>
<trkpt lat="43.4638123" lon="6.8578918"><ele></ele><time>2022-5-30T21:35:17Z</time></trkpt>
<trkpt lat="43.4637760" lon="6.8579049"><ele></ele><time>2022-5-30T21:35:20Z</time></trkpt>
<trkpt lat="43.4637361" lon="6.8579251"><ele></ele><time>2022-5-30T21:35:23Z</time></trkpt>
<trkpt lat="43.4637012" lon="6.8579546"><ele></ele><time>2022-5-30T21:35:26Z</time></trkpt>
<trkpt lat="43.4636678" lon="6.8579830"><ele></ele><time>2022-5-30T21:35:29Z</time></trkpt>
<trkpt lat="43.4636385" lon="6.8580119"><ele></ele><time>2022-5-30T21:35:32Z</time></trkpt>
<trkpt lat="43.4636062" lon="6.8580409"><ele></ele><time>2022-5-30T21:35:35Z</time></trkpt>
<trkpt lat="43.4635785" lon="6.8580772"><ele></ele><time>2022-5-30T21:35:38Z</time></trkpt>
<trkpt lat="43.4635495" lon="6.8581122"><ele></ele><time>2022-5-30T21:35:41Z</time></trkpt>
<trkpt lat="43.4635201" lon="6.8581470"><ele></ele><time>2022-5-30T21:35:44Z</time></trkpt>
<trkpt lat="43.4634922" lon="6.8581866"><ele></ele><time>2022-5-30T21:35:47Z</time></trkpt>
<trkpt lat="43.4634676" lon="6.8582307"><ele></ele><time>2022-5-30T21:35:50Z</time></trkpt>
<trkpt lat="43.4634457" lon="6.8582795"><ele></ele><time>2022-5-30T21:35:53Z</time></trkpt>
<trkpt lat="43.4634243" lon="6.8583258"><ele></ele><time>2022-5-30T21:35:56Z</time></trkpt>
<trkpt lat="43.4634041" lon="6.8583683"><ele></ele><time>2022-5-30T21:35:59Z</time></trkpt>
<trkpt lat="43.4633829" lon="6.8584137"><ele></ele><time>2022-5-30T21:36:2Z</time></trkpt>
<trkpt lat="43.4633619" lon="6.8584590"><ele></ele><time>2022-5-30T21:36:5Z</time></trkpt>
<trkpt lat="43.4633425" lon="6.8585091"><ele></ele><time>2022-5-30T21:36:8Z</time></trkpt>
<trkpt lat="43.4633242" lon="6.8585572"><ele></ele><time>2022-5-30T21:36:11Z</time></trkpt>
<trkpt lat="43.4633072" lon="6.8586049"><ele></ele><time>2022-5-30T21:36:14Z</time></trkpt>
<trkpt lat="43.4632877" lon="6.8586571"><ele></ele><time>2022-5-30T21:36:17Z</time></trkpt>
<trkpt lat="43.4632708" lon="6.8587055"><ele></ele><time>2022-5-30T21:36:20Z</time></trkpt>
<trkpt lat="43.4632578" lon="6.8587454"><ele></ele><time>2022-5-30T21:36:23Z</time></trkpt>
<trkpt lat="43.4632470" lon="6.8587953"><ele></ele><time>2022-5-30T21:36:26Z</time></trkpt>
<trkpt lat="43.4632391" lon="6.8588473"><ele></ele><time>2022-5-30T21:36:29Z</time></trkpt>
<trkpt lat="43.4632335" lon="6.8588937"><ele></ele><time>2022-5-30T21:36:32Z</time></trkpt>
<trkpt lat="43.4632265" lon="6.8589399"><ele></ele><time>2022-5-30T21:36:35Z</time></trkpt>
<trkpt lat="43.4632257" lon="6.8589895"><ele></ele><time>2022-5-30T21:36:38Z</time></trkpt>
<trkpt lat="43.4632238" lon="6.8590433"><ele></ele><time>2022-5-30T21:36:41Z</time></trkpt>
<trkpt lat="43.4632107" lon="6.8590972"><ele></ele><time>2022-5-30T21:36:44Z</time></trkpt>
<trkpt lat="43.4631913" lon="6.8591538"><ele></ele><time>2022-5-30T21:36:47Z</time></trkpt>
<trkpt lat="43.4631663" lon="6.8592037"><ele></ele><time>2022-5-30T21:36:50Z</time></trkpt>
<trkpt lat="43.4631432" lon="6.8592375"><ele></ele><time>2022-5-30T21:36:53Z</time></trkpt>
<trkpt lat="43.4631182" lon="6.8592600"><ele></ele><time>2022-5-30T21:36:56Z</time></trkpt>
<trkpt lat="43.4630908" lon="6.8592801"><ele></ele><time>2022-5-30T21:36:59Z</time></trkpt>
<trkpt lat="43.4630596" lon="6.8593061"><ele></ele><time>2022-5-30T21:37:2Z</time></trkpt>
<trkpt lat="43.4630290" lon="6.8593299"><ele></ele><time>2022-5-30T21:37:5Z</time></trkpt>
<trkpt lat="43.4629970" lon="6.8593536"><ele></ele><time>2022-5-30T21:37:8Z</time></trkpt>
<trkpt lat="43.4629671" lon="6.8593775"><ele></ele><time>2022-5-30T21:37:11Z</time></trkpt>
<trkpt lat="43.4629358" lon="6.8594012"><ele></ele><time>2022-5-30T21:37:14Z</time></trkpt>
<trkpt lat="43.4629081" lon="6.8594255"><ele></ele><time>2022-5-30T21:37:17Z</time></trkpt>
<trkpt lat="43.4628808" lon="6.8594501"><ele></ele><time>2022-5-30T21:37:20Z</time></trkpt>
<trkpt lat="43.4628557" lon="6.8594735"><ele></ele><time>2022-5-30T21:37:23Z</time></trkpt>
<trkpt lat="43.4628315" lon="6.8594935"><ele></ele><time>2022-5-30T21:37:26Z</time></trkpt>
<trkpt lat="43.4628112" lon="6.8595116"><ele></ele><time>2022-5-30T21:37:29Z</time></trkpt>
<trkpt lat="43.4627885" lon="6.8595310"><ele></ele><time>2022-5-30T21:37:32Z</time></trkpt>
<trkpt lat="43.4627660" lon="6.8595499"><ele></ele><time>2022-5-30T21:37:35Z</time></trkpt>
<trkpt lat="43.4627449" lon="6.8595671"><ele></ele><time>2022-5-30T21:37:38Z</time></trkpt>
<trkpt lat="43.4627226" lon="6.8595862"><ele></ele><time>2022-5-30T21:37:41Z</time></trkpt>
<trkpt lat="43.4626987" lon="6.8596047"><ele></ele><time>2022-5-30T21:37:44Z</time></trkpt>
<trkpt lat="43.4626707" lon="6.8596262"><ele></ele><time>2022-5-30T21:37:47Z</time></trkpt>
<trkpt lat="43.4626416" lon="6.8596485"><ele></ele><time>2022-5-30T21:37:50Z</time></trkpt>
<trkpt lat="43.4626114" lon="6.8596670"><ele></ele><time>2022-5-30T21:37:53Z</time></trkpt>
<trkpt lat="43.4625709" lon="6.8596933"><ele></ele><time>2022-5-30T21:37:56Z</time></trkpt>
<trkpt lat="43.4625380" lon="6.8597160"><ele></ele><time>2022-5-30T21:37:59Z</time></trkpt>
<trkpt lat="43.4625118" lon="6.8597477"><ele></ele><time>2022-5-30T21:38:2Z</time></trkpt>
<trkpt lat="43.4624859" lon="6.8597831"><ele></ele><time>2022-5-30T21:38:5Z</time></trkpt>
<trkpt lat="43.4624626" lon="6.8598146"><ele></ele><time>2022-5-30T21:38:8Z</time></trkpt>
<trkpt lat="43.4624380" lon="6.8598369"><ele></ele><time>2022-5-30T21:38:11Z</time></trkpt>
<trkpt lat="43.4624168" lon="6.8598555"><ele></ele><time>2022-5-30T21:38:14Z</time></trkpt>
<trkpt lat="43.4623970" lon="6.8598793"><ele></ele><time>2022-5-30T21:38:17Z</time></trkpt>
<trkpt lat="43.4623721" lon="6.8599076"><ele></ele><time>2022-5-30T21:38:20Z</time></trkpt>
<trkpt lat="43.4623476" lon="6.8599339"><ele></ele><time>2022-5-30T21:38:23Z</time></trkpt>
<trkpt lat="43.4623312" lon="6.8599528"><ele></ele><time>2022-5-30T21:38:26Z</time></trkpt>
<trkpt lat="43.4623100" lon="6.8599785"><ele></ele><time>2022-5-30T21:38:29Z</time></trkpt>
<trkpt lat="43.4622900" lon="6.8600024"><ele></ele><time>2022-5-30T21:38:32Z</time></trkpt>
<trkpt lat="43.4622790" lon="6.8600194"><ele></ele><time>2022-5-30T21:38:35Z</time></trkpt>
<trkpt lat="43.4622683" lon="6.8600397"><ele></ele><time>2022-5-30T21:38:38Z</time></trkpt>
<trkpt lat="43.4622539" lon="6.8600563"><ele></ele><time>2022-5-30T21:38:41Z</time></trkpt>
<trkpt lat="43.4622350" lon="6.8600619"><ele></ele><time>2022-5-30T21:38:44Z</time></trkpt>
<trkpt lat="43.4622111" lon="6.8600622"><ele></ele><time>2022-5-30T21:38:47Z</time></trkpt>
<trkpt lat="43.4621839" lon="6.8600641"><ele></ele><time>2022-5-30T21:38:50Z</time></trkpt>
<trkpt lat="43.4621546" lon="6.8600745"><ele></ele><time>2022-5-30T21:38:53Z</time></trkpt>
<trkpt lat="43.4621182" lon="6.8600800"><ele></ele><time>2022-5-30T21:38:56Z</time></trkpt>
<trkpt lat="43.4620742" lon="6.8600817"><ele></ele><time>2022-5-30T21:38:59Z</time></trkpt>
<trkpt lat="43.4620258" lon="6.8600860"><ele></ele><time>2022-5-30T21:39:2Z</time></trkpt>
<trkpt lat="43.4619770" lon="6.8601018"><ele></ele><time>2022-5-30T21:39:5Z</time></trkpt>
<trkpt lat="43.4619232" lon="6.8601140"><ele></ele><time>2022-5-30T21:39:8Z</time></trkpt>
<trkpt lat="43.4618486" lon="6.8601179"><ele></ele><time>2022-5-30T21:39:11Z</time></trkpt>
<trkpt lat="43.4617723" lon="6.8601081"><ele></ele><time>2022-5-30T21:39:14Z</time></trkpt>
<trkpt lat="43.4616881" lon="6.8600984"><ele></ele><time>2022-5-30T21:39:17Z</time></trkpt>
<trkpt lat="43.4616088" lon="6.8600878"><ele></ele><time>2022-5-30T21:39:20Z</time></trkpt>
<trkpt lat="43.4615278" lon="6.8600829"><ele></ele><time>2022-5-30T21:39:23Z</time></trkpt>
<trkpt lat="43.4614398" lon="6.8600947"><ele></ele><time>2022-5-30T21:39:26Z</time></trkpt>
<trkpt lat="43.4613539" lon="6.8601193"><ele></ele><time>2022-5-30T21:39:29Z</time></trkpt>
<trkpt lat="43.4612696" lon="6.8601485"><ele></ele><time>2022-5-30T21:39:32Z</time></trkpt>
<trkpt lat="43.4611870" lon="6.8601864"><ele></ele><time>2022-5-30T21:39:35Z</time></trkpt>
<trkpt lat="43.4610994" lon="6.8602122"><ele></ele><time>2022-5-30T21:39:38Z</time></trkpt>
<trkpt lat="43.4610094" lon="6.8602271"><ele></ele><time>2022-5-30T21:39:41Z</time></trkpt>
<trkpt lat="43.4609265" lon="6.8602412"><ele></ele><time>2022-5-30T21:39:44Z</time></trkpt>
<trkpt lat="43.4608591" lon="6.8602718"><ele></ele><time>2022-5-30T21:39:47Z</time></trkpt>
<trkpt lat="43.4607984" lon="6.8603011"><ele></ele><time>2022-5-30T21:39:50Z</time></trkpt>
<trkpt lat="43.4607398" lon="6.8603428"><ele></ele><time>2022-5-30T21:39:53Z</time></trkpt>
<trkpt lat="43.4606755" lon="6.8603913"><ele></ele><time>2022-5-30T21:39:56Z</time></trkpt>
<trkpt lat="43.4606016" lon="6.8604354"><ele></ele><time>2022-5-30T21:39:59Z</time></trkpt>
<trkpt lat="43.4605178" lon="6.8604759"><ele></ele><time>2022-5-30T21:40:2Z</time></trkpt>
<trkpt lat="43.4604267" lon="6.8605152"><ele></ele><time>2022-5-30T21:40:5Z</time></trkpt>
<trkpt lat="43.4603320" lon="6.8605623"><ele></ele><time>2022-5-30T21:40:8Z</time></trkpt>
<trkpt lat="43.4602369" lon="6.8606042"><ele></ele><time>2022-5-30T21:40:11Z</time></trkpt>
<trkpt lat="43.4601480" lon="6.8606473"><ele></ele><time>2022-5-30T21:40:14Z</time></trkpt>
<trkpt lat="43.4600651" lon="6.8607113"><ele></ele><time>2022-5-30T21:40:17Z</time></trkpt>
<trkpt lat="43.4599795" lon="6.8607840"><ele></ele><time>2022-5-30T21:40:20Z</time></trkpt>
<trkpt lat="43.4598975" lon="6.8608674"><ele></ele><time>2022-5-30T21:40:23Z</time></trkpt>
<trkpt lat="43.4598269" lon="6.8609568"><ele></ele><time>2022-5-30T21:40:26Z</time></trkpt>
<trkpt lat="43.4597584" lon="6.8610413"><ele></ele><time>2022-5-30T21:40:29Z</time></trkpt>
<trkpt lat="43.4596883" lon="6.8611208"><ele></ele><time>2022-5-30T21:40:32Z</time></trkpt>
<trkpt lat="43.4596072" lon="6.8611735"><ele></ele><time>2022-5-30T21:40:35Z</time></trkpt>
<trkpt lat="43.4595296" lon="6.8612258"><ele></ele><time>2022-5-30T21:40:38Z</time></trkpt>
<trkpt lat="43.4594602" lon="6.8612792"><ele></ele><time>2022-5-30T21:40:41Z</time></trkpt>
<trkpt lat="43.4594049" lon="6.8613387"><ele></ele><time>2022-5-30T21:40:44Z</time></trkpt>
<trkpt lat="43.4593591" lon="6.8614086"><ele></ele><time>2022-5-30T21:40:47Z</time></trkpt>
<trkpt lat="43.4593098" lon="6.8614631"><ele></ele><time>2022-5-30T21:40:50Z</time></trkpt>
<trkpt lat="43.4592591" lon="6.8615136"><ele></ele><time>2022-5-30T21:40:53Z</time></trkpt>
<trkpt lat="43.4592087" lon="6.8615644"><ele></ele><time>2022-5-30T21:40:56Z</time></trkpt>
<trkpt lat="43.4591661" lon="6.8616243"><ele></ele><time>2022-5-30T21:40:59Z</time></trkpt>
<trkpt lat="43.4591318" lon="6.8616882"><ele></ele><time>2022-5-30T21:41:2Z</time></trkpt>
<trkpt lat="43.4591094" lon="6.8617529"><ele></ele><time>2022-5-30T21:41:5Z</time></trkpt>
<trkpt lat="43.4590999" lon="6.8618182"><ele></ele><time>2022-5-30T21:41:8Z</time></trkpt>
<trkpt lat="43.4590865" lon="6.8618821"><ele></ele><time>2022-5-30T21:41:11Z</time></trkpt>
<trkpt lat="43.4590712" lon="6.8619521"><ele></ele><time>2022-5-30T21:41:14Z</time></trkpt>
<trkpt lat="43.4590512" lon="6.8620070"><ele></ele><time>2022-5-30T21:41:17Z</time></trkpt>
<trkpt lat="43.4590343" lon="6.8620618"><ele></ele><time>2022-5-30T21:41:20Z</time></trkpt>
<trkpt lat="43.4590136" lon="6.8621221"><ele></ele><time>2022-5-30T21:41:23Z</time></trkpt>
<trkpt lat="43.4589910" lon="6.8621882"><ele></ele><time>2022-5-30T21:41:26Z</time></trkpt>
<trkpt lat="43.4589626" lon="6.8622520"><ele></ele><time>2022-5-30T21:41:29Z</time></trkpt>
<trkpt lat="43.4589365" lon="6.8623175"><ele></ele><time>2022-5-30T21:41:32Z</time></trkpt>
<trkpt lat="43.4589120" lon="6.8623787"><ele></ele><time>2022-5-30T21:41:35Z</time></trkpt>
<trkpt lat="43.4588971" lon="6.8624412"><ele></ele><time>2022-5-30T21:41:38Z</time></trkpt>
<trkpt lat="43.4588851" lon="6.8625074"><ele></ele><time>2022-5-30T21:41:41Z</time></trkpt>
<trkpt lat="43.4588753" lon="6.8625833"><ele></ele><time>2022-5-30T21:41:44Z</time></trkpt>
<trkpt lat="43.4588620" lon="6.8626531"><ele></ele><time>2022-5-30T21:41:47Z</time></trkpt>
<trkpt lat="43.4588420" lon="6.8627007"><ele></ele><time>2022-5-30T21:41:50Z</time></trkpt>
<trkpt lat="43.4588200" lon="6.8627455"><ele></ele><time>2022-5-30T21:41:53Z</time></trkpt>
<trkpt lat="43.4587974" lon="6.8627880"><ele></ele><time>2022-5-30T21:41:56Z</time></trkpt>
<trkpt lat="43.4587725" lon="6.8628344"><ele></ele><time>2022-5-30T21:41:59Z</time></trkpt>
<trkpt lat="43.4587494" lon="6.8628804"><ele></ele><time>2022-5-30T21:42:2Z</time></trkpt>
<trkpt lat="43.4587211" lon="6.8629368"><ele></ele><time>2022-5-30T21:42:5Z</time></trkpt>
<trkpt lat="43.4586981" lon="6.8629961"><ele></ele><time>2022-5-30T21:42:8Z</time></trkpt>
<trkpt lat="43.4586710" lon="6.8630599"><ele></ele><time>2022-5-30T21:42:11Z</time></trkpt>
<trkpt lat="43.4586469" lon="6.8631166"><ele></ele><time>2022-5-30T21:42:14Z</time></trkpt>
<trkpt lat="43.4586260" lon="6.8631687"><ele></ele><time>2022-5-30T21:42:17Z</time></trkpt>
<trkpt lat="43.4586044" lon="6.8632187"><ele></ele><time>2022-5-30T21:42:20Z</time></trkpt>
<trkpt lat="43.4586044" lon="6.8632187"><ele></ele><time>2022-5-30T21:42:23Z</time></trkpt>
<trkpt lat="43.4586044" lon="6.8632187"><ele></ele><time>2022-5-30T21:42:26Z</time></trkpt>
<trkpt lat="43.4586044" lon="6.8632187"><ele></ele><time>2022-5-30T21:42:29Z</time></trkpt>
<trkpt lat="43.4586044" lon="6.8632187"><ele></ele><time>2022-5-30T21:42:32Z</time></trkpt>
<trkpt lat="43.4586044" lon="6.8632187"><ele></ele><time>2022-5-30T21:42:35Z</time></trkpt>
<trkpt lat="43.4586044" lon="6.8632187"><ele></ele><time>2022-5-30T21:42:38Z</time></trkpt>
<trkpt lat="43.4586044" lon="6.8632187"><ele></ele><time>2022-5-30T21:42:41Z</time></trkpt>
<trkpt lat="43.4586044" lon="6.8632187"><ele></ele><time>2022-5-30T21:42:44Z</time></trkpt>
<trkpt lat="43.4586044" lon="6.8632187"><ele></ele><time>2022-5-30T21:42:47Z</time></trkpt>
<trkpt lat="43.4586044" lon="6.8632187"><ele></ele><time>2022-5-30T21:42:50Z</time></trkpt>
<trkpt lat="43.4586044" lon="6.8632187"><ele></ele><time>2022-5-30T21:42:53Z</time></trkpt>
<trkpt lat="43.4586044" lon="6.8632187"><ele></ele><time>2022-5-30T21:42:56Z</time></trkpt>
<trkpt lat="43.4586044" lon="6.8632187"><ele></ele><time>2022-5-30T21:42:59Z</time></trkpt>
<trkpt lat="43.4586044" lon="6.8632187"><ele></ele><time>2022-5-30T21:43:2Z</time></trkpt>
<trkpt lat="43.4586044" lon="6.8632187"><ele></ele><time>2022-5-30T21:43:5Z</time></trkpt>
<trkpt lat="43.4585893" lon="6.8632560"><ele></ele><time>2022-5-30T21:43:8Z</time></trkpt>
<trkpt lat="43.4585717" lon="6.8632667"><ele></ele><time>2022-5-30T21:43:11Z</time></trkpt>
<trkpt lat="43.4585434" lon="6.8632890"><ele></ele><time>2022-5-30T21:43:14Z</time></trkpt>
<trkpt lat="43.4585173" lon="6.8633181"><ele></ele><time>2022-5-30T21:43:17Z</time></trkpt>
<trkpt lat="43.4584934" lon="6.8633587"><ele></ele><time>2022-5-30T21:43:20Z</time></trkpt>
<trkpt lat="43.4584744" lon="6.8633993"><ele></ele><time>2022-5-30T21:43:23Z</time></trkpt>
<trkpt lat="43.4584540" lon="6.8634363"><ele></ele><time>2022-5-30T21:43:26Z</time></trkpt>
<trkpt lat="43.4584274" lon="6.8634786"><ele></ele><time>2022-5-30T21:43:29Z</time></trkpt>
<trkpt lat="43.4583944" lon="6.8635183"><ele></ele><time>2022-5-30T21:43:32Z</time></trkpt>
<trkpt lat="43.4583600" lon="6.8635653"><ele></ele><time>2022-5-30T21:43:35Z</time></trkpt>
<trkpt lat="43.4583246" lon="6.8636126"><ele></ele><time>2022-5-30T21:43:38Z</time></trkpt>
<trkpt lat="43.4582934" lon="6.8636471"><ele></ele><time>2022-5-30T21:43:41Z</time></trkpt>
<trkpt lat="43.4582645" lon="6.8636911"><ele></ele><time>2022-5-30T21:43:44Z</time></trkpt>
<trkpt lat="43.4582363" lon="6.8637499"><ele></ele><time>2022-5-30T21:43:47Z</time></trkpt>
<trkpt lat="43.4581999" lon="6.8638030"><ele></ele><time>2022-5-30T21:43:50Z</time></trkpt>
<trkpt lat="43.4581519" lon="6.8638153"><ele></ele><time>2022-5-30T21:43:53Z</time></trkpt>
<trkpt lat="43.4581031" lon="6.8638160"><ele></ele><time>2022-5-30T21:43:56Z</time></trkpt>
<trkpt lat="43.4580644" lon="6.8638476"><ele></ele><time>2022-5-30T21:43:59Z</time></trkpt>
<trkpt lat="43.4580396" lon="6.8638998"><ele></ele><time>2022-5-30T21:44:2Z</time></trkpt>
<trkpt lat="43.4580210" lon="6.8639534"><ele></ele><time>2022-5-30T21:44:5Z</time></trkpt>
<trkpt lat="43.4580112" lon="6.8640038"><ele></ele><time>2022-5-30T21:44:8Z</time></trkpt>
<trkpt lat="43.4579945" lon="6.8640672"><ele></ele><time>2022-5-30T21:44:11Z</time></trkpt>
<trkpt lat="43.4579723" lon="6.8641196"><ele></ele><time>2022-5-30T21:44:14Z</time></trkpt>
<trkpt lat="43.4579346" lon="6.8641845"><ele></ele><time>2022-5-30T21:44:17Z</time></trkpt>
<trkpt lat="43.4578888" lon="6.8642264"><ele></ele><time>2022-5-30T21:44:20Z</time></trkpt>
<trkpt lat="43.4578478" lon="6.8642741"><ele></ele><time>2022-5-30T21:44:23Z</time></trkpt>
<trkpt lat="43.4578256" lon="6.8643438"><ele></ele><time>2022-5-30T21:44:26Z</time></trkpt>
<trkpt lat="43.4578099" lon="6.8644251"><ele></ele><time>2022-5-30T21:44:29Z</time></trkpt>
<trkpt lat="43.4577894" lon="6.8644944"><ele></ele><time>2022-5-30T21:44:32Z</time></trkpt>
<trkpt lat="43.4577478" lon="6.8645554"><ele></ele><time>2022-5-30T21:44:35Z</time></trkpt>
<trkpt lat="43.4577009" lon="6.8645919"><ele></ele><time>2022-5-30T21:44:38Z</time></trkpt>
<trkpt lat="43.4576500" lon="6.8646286"><ele></ele><time>2022-5-30T21:44:41Z</time></trkpt>
<trkpt lat="43.4576123" lon="6.8646702"><ele></ele><time>2022-5-30T21:44:44Z</time></trkpt>
<trkpt lat="43.4575952" lon="6.8647239"><ele></ele><time>2022-5-30T21:44:47Z</time></trkpt>
<trkpt lat="43.4575836" lon="6.8647639"><ele></ele><time>2022-5-30T21:44:50Z</time></trkpt>
<trkpt lat="43.4575730" lon="6.8647957"><ele></ele><time>2022-5-30T21:44:53Z</time></trkpt>
<trkpt lat="43.4575592" lon="6.8648359"><ele></ele><time>2022-5-30T21:44:56Z</time></trkpt>
<trkpt lat="43.4575496" lon="6.8648727"><ele></ele><time>2022-5-30T21:44:59Z</time></trkpt>
<trkpt lat="43.4575341" lon="6.8649071"><ele></ele><time>2022-5-30T21:45:2Z</time></trkpt>
<trkpt lat="43.4575080" lon="6.8649248"><ele></ele><time>2022-5-30T21:45:5Z</time></trkpt>
<trkpt lat="43.4574857" lon="6.8649117"><ele></ele><time>2022-5-30T21:45:8Z</time></trkpt>
<trkpt lat="43.4574659" lon="6.8648934"><ele></ele><time>2022-5-30T21:45:11Z</time></trkpt>
<trkpt lat="43.4574515" lon="6.8648632"><ele></ele><time>2022-5-30T21:45:14Z</time></trkpt>
<trkpt lat="43.4574290" lon="6.8648328"><ele></ele><time>2022-5-30T21:45:17Z</time></trkpt>
<trkpt lat="43.4574009" lon="6.8647988"><ele></ele><time>2022-5-30T21:45:20Z</time></trkpt>
<trkpt lat="43.4573716" lon="6.8647636"><ele></ele><time>2022-5-30T21:45:23Z</time></trkpt>
<trkpt lat="43.4573400" lon="6.8647303"><ele></ele><time>2022-5-30T21:45:26Z</time></trkpt>
<trkpt lat="43.4573033" lon="6.8646912"><ele></ele><time>2022-5-30T21:45:29Z</time></trkpt>
<trkpt lat="43.4572736" lon="6.8646511"><ele></ele><time>2022-5-30T21:45:32Z</time></trkpt>
<trkpt lat="43.4572450" lon="6.8646101"><ele></ele><time>2022-5-30T21:45:35Z</time></trkpt>
<trkpt lat="43.4572155" lon="6.8645700"><ele></ele><time>2022-5-30T21:45:38Z</time></trkpt>
<trkpt lat="43.4571759" lon="6.8645144"><ele></ele><time>2022-5-30T21:45:41Z</time></trkpt>
<trkpt lat="43.4571462" lon="6.8644693"><ele></ele><time>2022-5-30T21:45:44Z</time></trkpt>
<trkpt lat="43.4571159" lon="6.8644289"><ele></ele><time>2022-5-30T21:45:47Z</time></trkpt>
<trkpt lat="43.4570817" lon="6.8643832"><ele></ele><time>2022-5-30T21:45:50Z</time></trkpt>
<trkpt lat="43.4570472" lon="6.8643330"><ele></ele><time>2022-5-30T21:45:53Z</time></trkpt>
<trkpt lat="43.4570205" lon="6.8642859"><ele></ele><time>2022-5-30T21:45:56Z</time></trkpt>
<trkpt lat="43.4569926" lon="6.8642419"><ele></ele><time>2022-5-30T21:45:59Z</time></trkpt>
<trkpt lat="43.4569656" lon="6.8641922"><ele></ele><time>2022-5-30T21:46:2Z</time></trkpt>
<trkpt lat="43.4569390" lon="6.8641413"><ele></ele><time>2022-5-30T21:46:5Z</time></trkpt>
<trkpt lat="43.4569071" lon="6.8641026"><ele></ele><time>2022-5-30T21:46:8Z</time></trkpt>
<trkpt lat="43.4568736" lon="6.8640630"><ele></ele><time>2022-5-30T21:46:11Z</time></trkpt>
<trkpt lat="43.4568453" lon="6.8640048"><ele></ele><time>2022-5-30T21:46:14Z</time></trkpt>
<trkpt lat="43.4568337" lon="6.8639542"><ele></ele><time>2022-5-30T21:46:17Z</time></trkpt>
<trkpt lat="43.4568180" lon="6.8639013"><ele></ele><time>2022-5-30T21:46:20Z</time></trkpt>
<trkpt lat="43.4567884" lon="6.8638555"><ele></ele><time>2022-5-30T21:46:23Z</time></trkpt>
<trkpt lat="43.4567654" lon="6.8638036"><ele></ele><time>2022-5-30T21:46:26Z</time></trkpt>
<trkpt lat="43.4567516" lon="6.8637495"><ele></ele><time>2022-5-30T21:46:29Z</time></trkpt>
<trkpt lat="43.4567288" lon="6.8637032"><ele></ele><time>2022-5-30T21:46:32Z</time></trkpt>
<trkpt lat="43.4566912" lon="6.8636636"><ele></ele><time>2022-5-30T21:46:35Z</time></trkpt>
<trkpt lat="43.4566527" lon="6.8636272"><ele></ele><time>2022-5-30T21:46:38Z</time></trkpt>
<trkpt lat="43.4566203" lon="6.8635963"><ele></ele><time>2022-5-30T21:46:41Z</time></trkpt>
<trkpt lat="43.4565916" lon="6.8635803"><ele></ele><time>2022-5-30T21:46:44Z</time></trkpt>
<trkpt lat="43.4565644" lon="6.8635768"><ele></ele><time>2022-5-30T21:46:47Z</time></trkpt>
<trkpt lat="43.4565308" lon="6.8635707"><ele></ele><time>2022-5-30T21:46:50Z</time></trkpt>
<trkpt lat="43.4565015" lon="6.8635593"><ele></ele><time>2022-5-30T21:46:53Z</time></trkpt>
<trkpt lat="43.4564692" lon="6.8635594"><ele></ele><time>2022-5-30T21:46:56Z</time></trkpt>
<trkpt lat="43.4564391" lon="6.8635745"><ele></ele><time>2022-5-30T21:46:59Z</time></trkpt>
<trkpt lat="43.4564140" lon="6.8635696"><ele></ele><time>2022-5-30T21:47:2Z</time></trkpt>
<trkpt lat="43.4563940" lon="6.8635677"><ele></ele><time>2022-5-30T21:47:5Z</time></trkpt>
<trkpt lat="43.4563736" lon="6.8635722"><ele></ele><time>2022-5-30T21:47:8Z</time></trkpt>
<trkpt lat="43.4563509" lon="6.8635772"><ele></ele><time>2022-5-30T21:47:11Z</time></trkpt>
<trkpt lat="43.4563291" lon="6.8635793"><ele></ele><time>2022-5-30T21:47:14Z</time></trkpt>
<trkpt lat="43.4563024" lon="6.8635793"><ele></ele><time>2022-5-30T21:47:17Z</time></trkpt>
<trkpt lat="43.4562790" lon="6.8635792"><ele></ele><time>2022-5-30T21:47:20Z</time></trkpt>
<trkpt lat="43.4562536" lon="6.8635878"><ele></ele><time>2022-5-30T21:47:23Z</time></trkpt>
<trkpt lat="43.4562295" lon="6.8635988"><ele></ele><time>2022-5-30T21:47:26Z</time></trkpt>
<trkpt lat="43.4562083" lon="6.8636073"><ele></ele><time>2022-5-30T21:47:29Z</time></trkpt>
<trkpt lat="43.4561949" lon="6.8636176"><ele></ele><time>2022-5-30T21:47:32Z</time></trkpt>
<trkpt lat="43.4561882" lon="6.8636090"><ele></ele><time>2022-5-30T21:47:35Z</time></trkpt>
<trkpt lat="43.4561877" lon="6.8635995"><ele></ele><time>2022-5-30T21:47:38Z</time></trkpt>
<trkpt lat="43.4561863" lon="6.8635927"><ele></ele><time>2022-5-30T21:47:41Z</time></trkpt>
<trkpt lat="43.4561854" lon="6.8635930"><ele></ele><time>2022-5-30T21:47:44Z</time></trkpt>
<trkpt lat="43.4561851" lon="6.8635931"><ele></ele><time>2022-5-30T21:47:47Z</time></trkpt>
<trkpt lat="43.4561849" lon="6.8635932"><ele></ele><time>2022-5-30T21:47:50Z</time></trkpt>
<trkpt lat="43.4561841" lon="6.8635936"><ele></ele><time>2022-5-30T21:47:53Z</time></trkpt>
<trkpt lat="43.4561827" lon="6.8635955"><ele></ele><time>2022-5-30T21:47:56Z</time></trkpt>
<trkpt lat="43.4561826" lon="6.8635961"><ele></ele><time>2022-5-30T21:47:59Z</time></trkpt>
<trkpt lat="43.4561825" lon="6.8635964"><ele></ele><time>2022-5-30T21:48:2Z</time></trkpt>
<trkpt lat="43.4561824" lon="6.8635965"><ele></ele><time>2022-5-30T21:48:5Z</time></trkpt>
<trkpt lat="43.4561825" lon="6.8635967"><ele></ele><time>2022-5-30T21:48:8Z</time></trkpt>
<trkpt lat="43.4561832" lon="6.8635974"><ele></ele><time>2022-5-30T21:48:11Z</time></trkpt>
<trkpt lat="43.4561788" lon="6.8636009"><ele></ele><time>2022-5-30T21:48:14Z</time></trkpt>
<trkpt lat="43.4561624" lon="6.8636244"><ele></ele><time>2022-5-30T21:48:17Z</time></trkpt>
<trkpt lat="43.4561439" lon="6.8636420"><ele></ele><time>2022-5-30T21:48:20Z</time></trkpt>
<trkpt lat="43.4561322" lon="6.8636653"><ele></ele><time>2022-5-30T21:48:23Z</time></trkpt>
<trkpt lat="43.4561194" lon="6.8636891"><ele></ele><time>2022-5-30T21:48:26Z</time></trkpt>
<trkpt lat="43.4561098" lon="6.8637061"><ele></ele><time>2022-5-30T21:48:29Z</time></trkpt>
<trkpt lat="43.4561012" lon="6.8637163"><ele></ele><time>2022-5-30T21:48:32Z</time></trkpt>
<trkpt lat="43.4560996" lon="6.8637198"><ele></ele><time>2022-5-30T21:48:35Z</time></trkpt>
<trkpt lat="43.4560945" lon="6.8637238"><ele></ele><time>2022-5-30T21:48:38Z</time></trkpt>
<trkpt lat="43.4560894" lon="6.8637268"><ele></ele><time>2022-5-30T21:48:41Z</time></trkpt>
<trkpt lat="43.4560909" lon="6.8637278"><ele></ele><time>2022-5-30T21:48:44Z</time></trkpt>
<trkpt lat="43.4560931" lon="6.8637270"><ele></ele><time>2022-5-30T21:48:47Z</time></trkpt>
<trkpt lat="43.4560954" lon="6.8637271"><ele></ele><time>2022-5-30T21:48:50Z</time></trkpt>
<trkpt lat="43.4560930" lon="6.8637328"><ele></ele><time>2022-5-30T21:48:53Z</time></trkpt>
<trkpt lat="43.4560906" lon="6.8637363"><ele></ele><time>2022-5-30T21:48:56Z</time></trkpt>
<trkpt lat="43.4560919" lon="6.8637358"><ele></ele><time>2022-5-30T21:48:59Z</time></trkpt>
<trkpt lat="43.4560924" lon="6.8637362"><ele></ele><time>2022-5-30T21:49:2Z</time></trkpt>
<trkpt lat="43.4560917" lon="6.8637447"><ele></ele><time>2022-5-30T21:49:5Z</time></trkpt>
<trkpt lat="43.4560861" lon="6.8637477"><ele></ele><time>2022-5-30T21:49:8Z</time></trkpt>
<trkpt lat="43.4560823" lon="6.8637527"><ele></ele><time>2022-5-30T21:49:11Z</time></trkpt>
<trkpt lat="43.4560789" lon="6.8637578"><ele></ele><time>2022-5-30T21:49:14Z</time></trkpt>
<trkpt lat="43.4560737" lon="6.8637640"><ele></ele><time>2022-5-30T21:49:17Z</time></trkpt>
<trkpt lat="43.4560713" lon="6.8637673"><ele></ele><time>2022-5-30T21:49:20Z</time></trkpt>
<trkpt lat="43.4560705" lon="6.8637691"><ele></ele><time>2022-5-30T21:49:23Z</time></trkpt>
<trkpt lat="43.4560709" lon="6.8637690"><ele></ele><time>2022-5-30T21:49:26Z</time></trkpt>
<trkpt lat="43.4560722" lon="6.8637691"><ele></ele><time>2022-5-30T21:49:29Z</time></trkpt>
<trkpt lat="43.4560646" lon="6.8637766"><ele></ele><time>2022-5-30T21:49:32Z</time></trkpt>
<trkpt lat="43.4560461" lon="6.8637897"><ele></ele><time>2022-5-30T21:49:35Z</time></trkpt>
<trkpt lat="43.4560318" lon="6.8638061"><ele></ele><time>2022-5-30T21:49:38Z</time></trkpt>
<trkpt lat="43.4560150" lon="6.8638296"><ele></ele><time>2022-5-30T21:49:41Z</time></trkpt>
<trkpt lat="43.4560039" lon="6.8638429"><ele></ele><time>2022-5-30T21:49:44Z</time></trkpt>
<trkpt lat="43.4559847" lon="6.8638450"><ele></ele><time>2022-5-30T21:49:47Z</time></trkpt>
<trkpt lat="43.4559636" lon="6.8638510"><ele></ele><time>2022-5-30T21:49:50Z</time></trkpt>
<trkpt lat="43.4559418" lon="6.8638441"><ele></ele><time>2022-5-30T21:49:53Z</time></trkpt>
<trkpt lat="43.4559199" lon="6.8638276"><ele></ele><time>2022-5-30T21:49:56Z</time></trkpt>
<trkpt lat="43.4559089" lon="6.8638136"><ele></ele><time>2022-5-30T21:49:59Z</time></trkpt>
<trkpt lat="43.4558866" lon="6.8638209"><ele></ele><time>2022-5-30T21:50:2Z</time></trkpt>
<trkpt lat="43.4558585" lon="6.8638228"><ele></ele><time>2022-5-30T21:50:5Z</time></trkpt>
<trkpt lat="43.4558318" lon="6.8638018"><ele></ele><time>2022-5-30T21:50:8Z</time></trkpt>
<trkpt lat="43.4558034" lon="6.8637764"><ele></ele><time>2022-5-30T21:50:11Z</time></trkpt>
<trkpt lat="43.4557766" lon="6.8637616"><ele></ele><time>2022-5-30T21:50:14Z</time></trkpt>
<trkpt lat="43.4557554" lon="6.8637491"><ele></ele><time>2022-5-30T21:50:17Z</time></trkpt>
<trkpt lat="43.4557385" lon="6.8637437"><ele></ele><time>2022-5-30T21:50:20Z</time></trkpt>
<trkpt lat="43.4557194" lon="6.8637397"><ele></ele><time>2022-5-30T21:50:23Z</time></trkpt>
<trkpt lat="43.4557036" lon="6.8637428"><ele></ele><time>2022-5-30T21:50:26Z</time></trkpt>
<trkpt lat="43.4556938" lon="6.8637466"><ele></ele><time>2022-5-30T21:50:29Z</time></trkpt>
<trkpt lat="43.4556939" lon="6.8637481"><ele></ele><time>2022-5-30T21:50:32Z</time></trkpt>
<trkpt lat="43.4556860" lon="6.8637497"><ele></ele><time>2022-5-30T21:50:35Z</time></trkpt>
<trkpt lat="43.4556863" lon="6.8637495"><ele></ele><time>2022-5-30T21:50:38Z</time></trkpt>
<trkpt lat="43.4556866" lon="6.8637495"><ele></ele><time>2022-5-30T21:50:41Z</time></trkpt>
<trkpt lat="43.4556863" lon="6.8637498"><ele></ele><time>2022-5-30T21:50:44Z</time></trkpt>
<trkpt lat="43.4556858" lon="6.8637496"><ele></ele><time>2022-5-30T21:50:47Z</time></trkpt>
<trkpt lat="43.4556851" lon="6.8637492"><ele></ele><time>2022-5-30T21:50:50Z</time></trkpt>
<trkpt lat="43.4556846" lon="6.8637493"><ele></ele><time>2022-5-30T21:50:53Z</time></trkpt>
<trkpt lat="43.4556850" lon="6.8637479"><ele></ele><time>2022-5-30T21:50:56Z</time></trkpt>
<trkpt lat="43.4556840" lon="6.8637489"><ele></ele><time>2022-5-30T21:50:59Z</time></trkpt>
<trkpt lat="43.4556860" lon="6.8637609"><ele></ele><time>2022-5-30T21:51:2Z</time></trkpt>
<trkpt lat="43.4556927" lon="6.8637761"><ele></ele><time>2022-5-30T21:51:5Z</time></trkpt>
<trkpt lat="43.4556973" lon="6.8637797"><ele></ele><time>2022-5-30T21:51:8Z</time></trkpt>
<trkpt lat="43.4557013" lon="6.8637943"><ele></ele><time>2022-5-30T21:51:11Z</time></trkpt>
<trkpt lat="43.4557080" lon="6.8638231"><ele></ele><time>2022-5-30T21:51:14Z</time></trkpt>
<trkpt lat="43.4557190" lon="6.8638543"><ele></ele><time>2022-5-30T21:51:17Z</time></trkpt>
<trkpt lat="43.4557300" lon="6.8638825"><ele></ele><time>2022-5-30T21:51:20Z</time></trkpt>
<trkpt lat="43.4557344" lon="6.8639179"><ele></ele><time>2022-5-30T21:51:23Z</time></trkpt>
<trkpt lat="43.4557366" lon="6.8639500"><ele></ele><time>2022-5-30T21:51:26Z</time></trkpt>
<trkpt lat="43.4557356" lon="6.8639837"><ele></ele><time>2022-5-30T21:51:29Z</time></trkpt>
<trkpt lat="43.4557388" lon="6.8640232"><ele></ele><time>2022-5-30T21:51:32Z</time></trkpt>
<trkpt lat="43.4557414" lon="6.8640645"><ele></ele><time>2022-5-30T21:51:35Z</time></trkpt>
<trkpt lat="43.4557432" lon="6.8641073"><ele></ele><time>2022-5-30T21:51:38Z</time></trkpt>
<trkpt lat="43.4557504" lon="6.8641595"><ele></ele><time>2022-5-30T21:51:41Z</time></trkpt>
<trkpt lat="43.4557600" lon="6.8642087"><ele></ele><time>2022-5-30T21:51:44Z</time></trkpt>
<trkpt lat="43.4557772" lon="6.8642460"><ele></ele><time>2022-5-30T21:51:47Z</time></trkpt>
<trkpt lat="43.4557933" lon="6.8642863"><ele></ele><time>2022-5-30T21:51:50Z</time></trkpt>
<trkpt lat="43.4558102" lon="6.8643269"><ele></ele><time>2022-5-30T21:51:53Z</time></trkpt>
<trkpt lat="43.4558305" lon="6.8643657"><ele></ele><time>2022-5-30T21:51:56Z</time></trkpt>
<trkpt lat="43.4558534" lon="6.8644032"><ele></ele><time>2022-5-30T21:51:59Z</time></trkpt>
<trkpt lat="43.4558701" lon="6.8644291"><ele></ele><time>2022-5-30T21:52:2Z</time></trkpt>
<trkpt lat="43.4558914" lon="6.8644633"><ele></ele><time>2022-5-30T21:52:5Z</time></trkpt>
<trkpt lat="43.4559093" lon="6.8644987"><ele></ele><time>2022-5-30T21:52:8Z</time></trkpt>
<trkpt lat="43.4559299" lon="6.8645302"><ele></ele><time>2022-5-30T21:52:11Z</time></trkpt>
<trkpt lat="43.4559578" lon="6.8645819"><ele></ele><time>2022-5-30T21:52:14Z</time></trkpt>
<trkpt lat="43.4559805" lon="6.8646190"><ele></ele><time>2022-5-30T21:52:17Z</time></trkpt>
<trkpt lat="43.4560007" lon="6.8646599"><ele></ele><time>2022-5-30T21:52:20Z</time></trkpt>
<trkpt lat="43.4560237" lon="6.8646995"><ele></ele><time>2022-5-30T21:52:23Z</time></trkpt>
<trkpt lat="43.4560451" lon="6.8647381"><ele></ele><time>2022-5-30T21:52:26Z</time></trkpt>
<trkpt lat="43.4560676" lon="6.8647788"><ele></ele><time>2022-5-30T21:52:29Z</time></trkpt>
<trkpt lat="43.4560883" lon="6.8648196"><ele></ele><time>2022-5-30T21:52:32Z</time></trkpt>
<trkpt lat="43.4561124" lon="6.8648560"><ele></ele><time>2022-5-30T21:52:35Z</time></trkpt>
<trkpt lat="43.4561428" lon="6.8649007"><ele></ele><time>2022-5-30T21:52:38Z</time></trkpt>
<trkpt lat="43.4561696" lon="6.8649377"><ele></ele><time>2022-5-30T21:52:41Z</time></trkpt>
<trkpt lat="43.4561946" lon="6.8649707"><ele></ele><time>2022-5-30T21:52:44Z</time></trkpt>
<trkpt lat="43.4562176" lon="6.8650044"><ele></ele><time>2022-5-30T21:52:47Z</time></trkpt>
<trkpt lat="43.4562524" lon="6.8650323"><ele></ele><time>2022-5-30T21:52:50Z</time></trkpt>
<trkpt lat="43.4562841" lon="6.8650661"><ele></ele><time>2022-5-30T21:52:53Z</time></trkpt>
<trkpt lat="43.4563134" lon="6.8650978"><ele></ele><time>2022-5-30T21:52:56Z</time></trkpt>
<trkpt lat="43.4563430" lon="6.8651314"><ele></ele><time>2022-5-30T21:52:59Z</time></trkpt>
<trkpt lat="43.4563726" lon="6.8651692"><ele></ele><time>2022-5-30T21:53:2Z</time></trkpt>
<trkpt lat="43.4564022" lon="6.8652109"><ele></ele><time>2022-5-30T21:53:5Z</time></trkpt>
<trkpt lat="43.4564328" lon="6.8652529"><ele></ele><time>2022-5-30T21:53:8Z</time></trkpt>
<trkpt lat="43.4564620" lon="6.8652942"><ele></ele><time>2022-5-30T21:53:11Z</time></trkpt>
<trkpt lat="43.4564909" lon="6.8653311"><ele></ele><time>2022-5-30T21:53:14Z</time></trkpt>
<trkpt lat="43.4565165" lon="6.8653716"><ele></ele><time>2022-5-30T21:53:17Z</time></trkpt>
<trkpt lat="43.4565425" lon="6.8654149"><ele></ele><time>2022-5-30T21:53:20Z</time></trkpt>
<trkpt lat="43.4565670" lon="6.8654582"><ele></ele><time>2022-5-30T21:53:23Z</time></trkpt>
<trkpt lat="43.4565904" lon="6.8654960"><ele></ele><time>2022-5-30T21:53:26Z</time></trkpt>
<trkpt lat="43.4566145" lon="6.8655384"><ele></ele><time>2022-5-30T21:53:29Z</time></trkpt>
<trkpt lat="43.4566388" lon="6.8655744"><ele></ele><time>2022-5-30T21:53:32Z</time></trkpt>
<trkpt lat="43.4566541" lon="6.8656131"><ele></ele><time>2022-5-30T21:53:35Z</time></trkpt>
<trkpt lat="43.4566734" lon="6.8656504"><ele></ele><time>2022-5-30T21:53:38Z</time></trkpt>
<trkpt lat="43.4566875" lon="6.8656875"><ele></ele><time>2022-5-30T21:53:41Z</time></trkpt>
<trkpt lat="43.4567016" lon="6.8657248"><ele></ele><time>2022-5-30T21:53:44Z</time></trkpt>
<trkpt lat="43.4567171" lon="6.8657589"><ele></ele><time>2022-5-30T21:53:47Z</time></trkpt>
<trkpt lat="43.4567297" lon="6.8657919"><ele></ele><time>2022-5-30T21:53:50Z</time></trkpt>
<trkpt lat="43.4567364" lon="6.8658198"><ele></ele><time>2022-5-30T21:53:53Z</time></trkpt>
<trkpt lat="43.4567441" lon="6.8658433"><ele></ele><time>2022-5-30T21:53:56Z</time></trkpt>
<trkpt lat="43.4567578" lon="6.8658589"><ele></ele><time>2022-5-30T21:53:59Z</time></trkpt>
<trkpt lat="43.4567651" lon="6.8658732"><ele></ele><time>2022-5-30T21:54:2Z</time></trkpt>
<trkpt lat="43.4567739" lon="6.8658939"><ele></ele><time>2022-5-30T21:54:5Z</time></trkpt>
<trkpt lat="43.4567852" lon="6.8659234"><ele></ele><time>2022-5-30T21:54:8Z</time></trkpt>
<trkpt lat="43.4567939" lon="6.8659528"><ele></ele><time>2022-5-30T21:54:11Z</time></trkpt>
<trkpt lat="43.4568048" lon="6.8659761"><ele></ele><time>2022-5-30T21:54:14Z</time></trkpt>
<trkpt lat="43.4568142" lon="6.8660081"><ele></ele><time>2022-5-30T21:54:17Z</time></trkpt>
<trkpt lat="43.4568226" lon="6.8660354"><ele></ele><time>2022-5-30T21:54:20Z</time></trkpt>
<trkpt lat="43.4568331" lon="6.8660690"><ele></ele><time>2022-5-30T21:54:23Z</time></trkpt>
<trkpt lat="43.4568409" lon="6.8660953"><ele></ele><time>2022-5-30T21:54:26Z</time></trkpt>
<trkpt lat="43.4568511" lon="6.8661293"><ele></ele><time>2022-5-30T21:54:29Z</time></trkpt>
<trkpt lat="43.4568625" lon="6.8661627"><ele></ele><time>2022-5-30T21:54:32Z</time></trkpt>
<trkpt lat="43.4568720" lon="6.8661918"><ele></ele><time>2022-5-30T21:54:35Z</time></trkpt>
<trkpt lat="43.4568823" lon="6.8662229"><ele></ele><time>2022-5-30T21:54:38Z</time></trkpt>
<trkpt lat="43.4568903" lon="6.8662550"><ele></ele><time>2022-5-30T21:54:41Z</time></trkpt>
<trkpt lat="43.4568943" lon="6.8662858"><ele></ele><time>2022-5-30T21:54:44Z</time></trkpt>
<trkpt lat="43.4568947" lon="6.8663245"><ele></ele><time>2022-5-30T21:54:47Z</time></trkpt>
<trkpt lat="43.4568981" lon="6.8663608"><ele></ele><time>2022-5-30T21:54:50Z</time></trkpt>
<trkpt lat="43.4569108" lon="6.8663905"><ele></ele><time>2022-5-30T21:54:53Z</time></trkpt>
<trkpt lat="43.4569294" lon="6.8664178"><ele></ele><time>2022-5-30T21:54:56Z</time></trkpt>
<trkpt lat="43.4569456" lon="6.8664452"><ele></ele><time>2022-5-30T21:54:59Z</time></trkpt>
<trkpt lat="43.4569635" lon="6.8664808"><ele></ele><time>2022-5-30T21:55:2Z</time></trkpt>
<trkpt lat="43.4569767" lon="6.8665228"><ele></ele><time>2022-5-30T21:55:5Z</time></trkpt>
<trkpt lat="43.4569771" lon="6.8665567"><ele></ele><time>2022-5-30T21:55:8Z</time></trkpt>
<trkpt lat="43.4569715" lon="6.8665934"><ele></ele><time>2022-5-30T21:55:11Z</time></trkpt>
<trkpt lat="43.4569654" lon="6.8666360"><ele></ele><time>2022-5-30T21:55:14Z</time></trkpt>
<trkpt lat="43.4569598" lon="6.8666772"><ele></ele><time>2022-5-30T21:55:17Z</time></trkpt>
<trkpt lat="43.4569492" lon="6.8667304"><ele></ele><time>2022-5-30T21:55:20Z</time></trkpt>
<trkpt lat="43.4569433" lon="6.8667734"><ele></ele><time>2022-5-30T21:55:23Z</time></trkpt>
<trkpt lat="43.4569435" lon="6.8668200"><ele></ele><time>2022-5-30T21:55:26Z</time></trkpt>
<trkpt lat="43.4569503" lon="6.8668724"><ele></ele><time>2022-5-30T21:55:29Z</time></trkpt>
<trkpt lat="43.4569552" lon="6.8669144"><ele></ele><time>2022-5-30T21:55:32Z</time></trkpt>
<trkpt lat="43.4569614" lon="6.8669551"><ele></ele><time>2022-5-30T21:55:35Z</time></trkpt>
<trkpt lat="43.4569724" lon="6.8669976"><ele></ele><time>2022-5-30T21:55:38Z</time></trkpt>
<trkpt lat="43.4569811" lon="6.8670278"><ele></ele><time>2022-5-30T21:55:41Z</time></trkpt>
<trkpt lat="43.4569911" lon="6.8670585"><ele></ele><time>2022-5-30T21:55:44Z</time></trkpt>
<trkpt lat="43.4569999" lon="6.8670990"><ele></ele><time>2022-5-30T21:55:47Z</time></trkpt>
<trkpt lat="43.4570057" lon="6.8671474"><ele></ele><time>2022-5-30T21:55:50Z</time></trkpt>
<trkpt lat="43.4570101" lon="6.8671956"><ele></ele><time>2022-5-30T21:55:53Z</time></trkpt>
<trkpt lat="43.4570124" lon="6.8672381"><ele></ele><time>2022-5-30T21:55:56Z</time></trkpt>
<trkpt lat="43.4570133" lon="6.8672732"><ele></ele><time>2022-5-30T21:55:59Z</time></trkpt>
<trkpt lat="43.4570140" lon="6.8673107"><ele></ele><time>2022-5-30T21:56:2Z</time></trkpt>
<trkpt lat="43.4570141" lon="6.8673491"><ele></ele><time>2022-5-30T21:56:5Z</time></trkpt>
<trkpt lat="43.4570120" lon="6.8673925"><ele></ele><time>2022-5-30T21:56:8Z</time></trkpt>
<trkpt lat="43.4570091" lon="6.8674354"><ele></ele><time>2022-5-30T21:56:11Z</time></trkpt>
<trkpt lat="43.4570060" lon="6.8674782"><ele></ele><time>2022-5-30T21:56:14Z</time></trkpt>
<trkpt lat="43.4569956" lon="6.8675210"><ele></ele><time>2022-5-30T21:56:17Z</time></trkpt>
<trkpt lat="43.4569878" lon="6.8675699"><ele></ele><time>2022-5-30T21:56:20Z</time></trkpt>
<trkpt lat="43.4569794" lon="6.8676104"><ele></ele><time>2022-5-30T21:56:23Z</time></trkpt>
<trkpt lat="43.4569702" lon="6.8676520"><ele></ele><time>2022-5-30T21:56:26Z</time></trkpt>
<trkpt lat="43.4569558" lon="6.8676891"><ele></ele><time>2022-5-30T21:56:29Z</time></trkpt>
<trkpt lat="43.4569402" lon="6.8677285"><ele></ele><time>2022-5-30T21:56:32Z</time></trkpt>
<trkpt lat="43.4569335" lon="6.8677726"><ele></ele><time>2022-5-30T21:56:35Z</time></trkpt>
<trkpt lat="43.4569218" lon="6.8678148"><ele></ele><time>2022-5-30T21:56:38Z</time></trkpt>
<trkpt lat="43.4569168" lon="6.8678545"><ele></ele><time>2022-5-30T21:56:41Z</time></trkpt>
<trkpt lat="43.4569106" lon="6.8679151"><ele></ele><time>2022-5-30T21:56:44Z</time></trkpt>
<trkpt lat="43.4569045" lon="6.8679622"><ele></ele><time>2022-5-30T21:56:47Z</time></trkpt>
<trkpt lat="43.4569032" lon="6.8680134"><ele></ele><time>2022-5-30T21:56:50Z</time></trkpt>
<trkpt lat="43.4569008" lon="6.8680656"><ele></ele><time>2022-5-30T21:56:53Z</time></trkpt>
<trkpt lat="43.4568961" lon="6.8681187"><ele></ele><time>2022-5-30T21:56:56Z</time></trkpt>
<trkpt lat="43.4568894" lon="6.8681645"><ele></ele><time>2022-5-30T21:56:59Z</time></trkpt>
<trkpt lat="43.4568840" lon="6.8682120"><ele></ele><time>2022-5-30T21:57:2Z</time></trkpt>
<trkpt lat="43.4568780" lon="6.8682609"><ele></ele><time>2022-5-30T21:57:5Z</time></trkpt>
<trkpt lat="43.4568593" lon="6.8683028"><ele></ele><time>2022-5-30T21:57:8Z</time></trkpt>
<trkpt lat="43.4568407" lon="6.8683506"><ele></ele><time>2022-5-30T21:57:11Z</time></trkpt>
<trkpt lat="43.4568238" lon="6.8683966"><ele></ele><time>2022-5-30T21:57:14Z</time></trkpt>
<trkpt lat="43.4568048" lon="6.8684469"><ele></ele><time>2022-5-30T21:57:17Z</time></trkpt>
<trkpt lat="43.4567859" lon="6.8684849"><ele></ele><time>2022-5-30T21:57:20Z</time></trkpt>
<trkpt lat="43.4567607" lon="6.8685348"><ele></ele><time>2022-5-30T21:57:23Z</time></trkpt>
<trkpt lat="43.4567400" lon="6.8685717"><ele></ele><time>2022-5-30T21:57:26Z</time></trkpt>
<trkpt lat="43.4567121" lon="6.8686089"><ele></ele><time>2022-5-30T21:57:29Z</time></trkpt>
<trkpt lat="43.4566783" lon="6.8686396"><ele></ele><time>2022-5-30T21:57:32Z</time></trkpt>
<trkpt lat="43.4566461" lon="6.8686847"><ele></ele><time>2022-5-30T21:57:35Z</time></trkpt>
<trkpt lat="43.4566198" lon="6.8687346"><ele></ele><time>2022-5-30T21:57:38Z</time></trkpt>
<trkpt lat="43.4565956" lon="6.8687826"><ele></ele><time>2022-5-30T21:57:41Z</time></trkpt>
<trkpt lat="43.4565764" lon="6.8688365"><ele></ele><time>2022-5-30T21:57:44Z</time></trkpt>
<trkpt lat="43.4565643" lon="6.8688910"><ele></ele><time>2022-5-30T21:57:47Z</time></trkpt>
<trkpt lat="43.4565626" lon="6.8689493"><ele></ele><time>2022-5-30T21:57:50Z</time></trkpt>
<trkpt lat="43.4565612" lon="6.8690077"><ele></ele><time>2022-5-30T21:57:53Z</time></trkpt>
<trkpt lat="43.4565591" lon="6.8690616"><ele></ele><time>2022-5-30T21:57:56Z</time></trkpt>
<trkpt lat="43.4565594" lon="6.8691102"><ele></ele><time>2022-5-30T21:57:59Z</time></trkpt>
<trkpt lat="43.4565641" lon="6.8691565"><ele></ele><time>2022-5-30T21:58:2Z</time></trkpt>
<trkpt lat="43.4565738" lon="6.8691938"><ele></ele><time>2022-5-30T21:58:5Z</time></trkpt>
<trkpt lat="43.4565841" lon="6.8692339"><ele></ele><time>2022-5-30T21:58:8Z</time></trkpt>
<trkpt lat="43.4565923" lon="6.8692755"><ele></ele><time>2022-5-30T21:58:11Z</time></trkpt>
<trkpt lat="43.4566026" lon="6.8693133"><ele></ele><time>2022-5-30T21:58:14Z</time></trkpt>
<trkpt lat="43.4566121" lon="6.8693503"><ele></ele><time>2022-5-30T21:58:17Z</time></trkpt>
<trkpt lat="43.4566034" lon="6.8693902"><ele></ele><time>2022-5-30T21:58:20Z</time></trkpt>
<trkpt lat="43.4565901" lon="6.8694341"><ele></ele><time>2022-5-30T21:58:23Z</time></trkpt>
<trkpt lat="43.4565885" lon="6.8694812"><ele></ele><time>2022-5-30T21:58:26Z</time></trkpt>
<trkpt lat="43.4565943" lon="6.8695336"><ele></ele><time>2022-5-30T21:58:29Z</time></trkpt>
<trkpt lat="43.4565980" lon="6.8695861"><ele></ele><time>2022-5-30T21:58:32Z</time></trkpt>
<trkpt lat="43.4566012" lon="6.8696390"><ele></ele><time>2022-5-30T21:58:35Z</time></trkpt>
<trkpt lat="43.4565962" lon="6.8696891"><ele></ele><time>2022-5-30T21:58:38Z</time></trkpt>
<trkpt lat="43.4565901" lon="6.8697377"><ele></ele><time>2022-5-30T21:58:41Z</time></trkpt>
<trkpt lat="43.4565836" lon="6.8697827"><ele></ele><time>2022-5-30T21:58:44Z</time></trkpt>
<trkpt lat="43.4565761" lon="6.8698282"><ele></ele><time>2022-5-30T21:58:47Z</time></trkpt>
<trkpt lat="43.4565692" lon="6.8698719"><ele></ele><time>2022-5-30T21:58:50Z</time></trkpt>
<trkpt lat="43.4565620" lon="6.8699186"><ele></ele><time>2022-5-30T21:58:53Z</time></trkpt>
<trkpt lat="43.4565580" lon="6.8699664"><ele></ele><time>2022-5-30T21:58:56Z</time></trkpt>
<trkpt lat="43.4565539" lon="6.8700148"><ele></ele><time>2022-5-30T21:58:59Z</time></trkpt>
<trkpt lat="43.4565489" lon="6.8700626"><ele></ele><time>2022-5-30T21:59:2Z</time></trkpt>
<trkpt lat="43.4565442" lon="6.8701097"><ele></ele><time>2022-5-30T21:59:5Z</time></trkpt>
<trkpt lat="43.4565437" lon="6.8701540"><ele></ele><time>2022-5-30T21:59:8Z</time></trkpt>
<trkpt lat="43.4565448" lon="6.8701948"><ele></ele><time>2022-5-30T21:59:11Z</time></trkpt>
<trkpt lat="43.4565417" lon="6.8702357"><ele></ele><time>2022-5-30T21:59:14Z</time></trkpt>
<trkpt lat="43.4565461" lon="6.8702700"><ele></ele><time>2022-5-30T21:59:17Z</time></trkpt>
<trkpt lat="43.4565393" lon="6.8703080"><ele></ele><time>2022-5-30T21:59:20Z</time></trkpt>
<trkpt lat="43.4565399" lon="6.8703400"><ele></ele><time>2022-5-30T21:59:23Z</time></trkpt>
<trkpt lat="43.4565417" lon="6.8703769"><ele></ele><time>2022-5-30T21:59:26Z</time></trkpt>
<trkpt lat="43.4565439" lon="6.8704117"><ele></ele><time>2022-5-30T21:59:29Z</time></trkpt>
<trkpt lat="43.4565478" lon="6.8704487"><ele></ele><time>2022-5-30T21:59:32Z</time></trkpt>
<trkpt lat="43.4565482" lon="6.8704822"><ele></ele><time>2022-5-30T21:59:35Z</time></trkpt>
<trkpt lat="43.4565456" lon="6.8705136"><ele></ele><time>2022-5-30T21:59:38Z</time></trkpt>
<trkpt lat="43.4565394" lon="6.8705467"><ele></ele><time>2022-5-30T21:59:41Z</time></trkpt>
<trkpt lat="43.4565394" lon="6.8705813"><ele></ele><time>2022-5-30T21:59:44Z</time></trkpt>
<trkpt lat="43.4565399" lon="6.8706163"><ele></ele><time>2022-5-30T21:59:47Z</time></trkpt>
<trkpt lat="43.4565417" lon="6.8706556"><ele></ele><time>2022-5-30T21:59:50Z</time></trkpt>
<trkpt lat="43.4565473" lon="6.8706944"><ele></ele><time>2022-5-30T21:59:53Z</time></trkpt>
<trkpt lat="43.4565529" lon="6.8707352"><ele></ele><time>2022-5-30T21:59:56Z</time></trkpt>
<trkpt lat="43.4565576" lon="6.8707840"><ele></ele><time>2022-5-30T21:59:59Z</time></trkpt>
<trkpt lat="43.4565616" lon="6.8708336"><ele></ele><time>2022-5-30T22:0:2Z</time></trkpt>
<trkpt lat="43.4565646" lon="6.8708809"><ele></ele><time>2022-5-30T22:0:5Z</time></trkpt>
<trkpt lat="43.4565682" lon="6.8709278"><ele></ele><time>2022-5-30T22:0:8Z</time></trkpt>
<trkpt lat="43.4565737" lon="6.8709780"><ele></ele><time>2022-5-30T22:0:11Z</time></trkpt>
<trkpt lat="43.4565779" lon="6.8710296"><ele></ele><time>2022-5-30T22:0:14Z</time></trkpt>
<trkpt lat="43.4565808" lon="6.8710800"><ele></ele><time>2022-5-30T22:0:17Z</time></trkpt>
<trkpt lat="43.4565860" lon="6.8711296"><ele></ele><time>2022-5-30T22:0:20Z</time></trkpt>
<trkpt lat="43.4565880" lon="6.8711723"><ele></ele><time>2022-5-30T22:0:23Z</time></trkpt>
<trkpt lat="43.4565898" lon="6.8712161"><ele></ele><time>2022-5-30T22:0:26Z</time></trkpt>
<trkpt lat="43.4566024" lon="6.8712594"><ele></ele><time>2022-5-30T22:0:29Z</time></trkpt>
<trkpt lat="43.4566129" lon="6.8713013"><ele></ele><time>2022-5-30T22:0:32Z</time></trkpt>
<trkpt lat="43.4566231" lon="6.8713388"><ele></ele><time>2022-5-30T22:0:35Z</time></trkpt>
<trkpt lat="43.4566388" lon="6.8713803"><ele></ele><time>2022-5-30T22:0:38Z</time></trkpt>
<trkpt lat="43.4566447" lon="6.8714230"><ele></ele><time>2022-5-30T22:0:41Z</time></trkpt>
<trkpt lat="43.4566483" lon="6.8714654"><ele></ele><time>2022-5-30T22:0:44Z</time></trkpt>
<trkpt lat="43.4566550" lon="6.8715057"><ele></ele><time>2022-5-30T22:0:47Z</time></trkpt>
<trkpt lat="43.4566640" lon="6.8715468"><ele></ele><time>2022-5-30T22:0:50Z</time></trkpt>
<trkpt lat="43.4566754" lon="6.8715853"><ele></ele><time>2022-5-30T22:0:53Z</time></trkpt>
<trkpt lat="43.4566787" lon="6.8716289"><ele></ele><time>2022-5-30T22:0:56Z</time></trkpt>
<trkpt lat="43.4566798" lon="6.8716675"><ele></ele><time>2022-5-30T22:0:59Z</time></trkpt>
<trkpt lat="43.4566835" lon="6.8717096"><ele></ele><time>2022-5-30T22:1:2Z</time></trkpt>
<trkpt lat="43.4566880" lon="6.8717486"><ele></ele><time>2022-5-30T22:1:5Z</time></trkpt>
<trkpt lat="43.4566870" lon="6.8717980"><ele></ele><time>2022-5-30T22:1:8Z</time></trkpt>
<trkpt lat="43.4566929" lon="6.8718483"><ele></ele><time>2022-5-30T22:1:11Z</time></trkpt>
<trkpt lat="43.4567068" lon="6.8718981"><ele></ele><time>2022-5-30T22:1:14Z</time></trkpt>
<trkpt lat="43.4567165" lon="6.8719409"><ele></ele><time>2022-5-30T22:1:17Z</time></trkpt>
<trkpt lat="43.4567170" lon="6.8719860"><ele></ele><time>2022-5-30T22:1:20Z</time></trkpt>
<trkpt lat="43.4567122" lon="6.8720340"><ele></ele><time>2022-5-30T22:1:23Z</time></trkpt>
<trkpt lat="43.4567198" lon="6.8720891"><ele></ele><time>2022-5-30T22:1:26Z</time></trkpt>
<trkpt lat="43.4567339" lon="6.8721469"><ele></ele><time>2022-5-30T22:1:29Z</time></trkpt>
<trkpt lat="43.4567387" lon="6.8722029"><ele></ele><time>2022-5-30T22:1:32Z</time></trkpt>
<trkpt lat="43.4567498" lon="6.8722683"><ele></ele><time>2022-5-30T22:1:35Z</time></trkpt>
<trkpt lat="43.4567582" lon="6.8723295"><ele></ele><time>2022-5-30T22:1:38Z</time></trkpt>
<trkpt lat="43.4567660" lon="6.8723929"><ele></ele><time>2022-5-30T22:1:41Z</time></trkpt>
<trkpt lat="43.4567731" lon="6.8724559"><ele></ele><time>2022-5-30T22:1:44Z</time></trkpt>
<trkpt lat="43.4567806" lon="6.8725207"><ele></ele><time>2022-5-30T22:1:47Z</time></trkpt>
<trkpt lat="43.4567834" lon="6.8725765"><ele></ele><time>2022-5-30T22:1:50Z</time></trkpt>
<trkpt lat="43.4567962" lon="6.8726277"><ele></ele><time>2022-5-30T22:1:53Z</time></trkpt>
<trkpt lat="43.4568009" lon="6.8726772"><ele></ele><time>2022-5-30T22:1:56Z</time></trkpt>
<trkpt lat="43.4568003" lon="6.8727306"><ele></ele><time>2022-5-30T22:1:59Z</time></trkpt>
<trkpt lat="43.4568057" lon="6.8727847"><ele></ele><time>2022-5-30T22:2:2Z</time></trkpt>
<trkpt lat="43.4568168" lon="6.8728373"><ele></ele><time>2022-5-30T22:2:5Z</time></trkpt>
<trkpt lat="43.4568280" lon="6.8728905"><ele></ele><time>2022-5-30T22:2:8Z</time></trkpt>
<trkpt lat="43.4568319" lon="6.8729467"><ele></ele><time>2022-5-30T22:2:11Z</time></trkpt>
<trkpt lat="43.4568377" lon="6.8730005"><ele></ele><time>2022-5-30T22:2:14Z</time></trkpt>
<trkpt lat="43.4568454" lon="6.8730524"><ele></ele><time>2022-5-30T22:2:17Z</time></trkpt>
<trkpt lat="43.4568541" lon="6.8731089"><ele></ele><time>2022-5-30T22:2:20Z</time></trkpt>
<trkpt lat="43.4568654" lon="6.8731617"><ele></ele><time>2022-5-30T22:2:23Z</time></trkpt>
<trkpt lat="43.4568746" lon="6.8732064"><ele></ele><time>2022-5-30T22:2:26Z</time></trkpt>
<trkpt lat="43.4568841" lon="6.8732475"><ele></ele><time>2022-5-30T22:2:29Z</time></trkpt>
<trkpt lat="43.4568921" lon="6.8732838"><ele></ele><time>2022-5-30T22:2:32Z</time></trkpt>
<trkpt lat="43.4568947" lon="6.8733082"><ele></ele><time>2022-5-30T22:2:35Z</time></trkpt>
<trkpt lat="43.4568910" lon="6.8733241"><ele></ele><time>2022-5-30T22:2:38Z</time></trkpt>
<trkpt lat="43.4568861" lon="6.8733302"><ele></ele><time>2022-5-30T22:2:41Z</time></trkpt>
<trkpt lat="43.4568832" lon="6.8733377"><ele></ele><time>2022-5-30T22:2:44Z</time></trkpt>
<trkpt lat="43.4568831" lon="6.8733385"><ele></ele><time>2022-5-30T22:2:47Z</time></trkpt>
<trkpt lat="43.4568819" lon="6.8733372"><ele></ele><time>2022-5-30T22:2:50Z</time></trkpt>
<trkpt lat="43.4568818" lon="6.8733297"><ele></ele><time>2022-5-30T22:2:53Z</time></trkpt>
<trkpt lat="43.4568783" lon="6.8733201"><ele></ele><time>2022-5-30T22:2:56Z</time></trkpt>
<trkpt lat="43.4568795" lon="6.8733102"><ele></ele><time>2022-5-30T22:2:59Z</time></trkpt>
<trkpt lat="43.4568799" lon="6.8733007"><ele></ele><time>2022-5-30T22:3:2Z</time></trkpt>
<trkpt lat="43.4568804" lon="6.8733024"><ele></ele><time>2022-5-30T22:3:5Z</time></trkpt>
<trkpt lat="43.4568806" lon="6.8733021"><ele></ele><time>2022-5-30T22:3:8Z</time></trkpt>
<trkpt lat="43.4568807" lon="6.8733020"><ele></ele><time>2022-5-30T22:3:11Z</time></trkpt>
<trkpt lat="43.4568806" lon="6.8733017"><ele></ele><time>2022-5-30T22:3:14Z</time></trkpt>
<trkpt lat="43.4568807" lon="6.8733016"><ele></ele><time>2022-5-30T22:3:17Z</time></trkpt>
<trkpt lat="43.4568807" lon="6.8733013"><ele></ele><time>2022-5-30T22:3:20Z</time></trkpt>
<trkpt lat="43.4568807" lon="6.8733012"><ele></ele><time>2022-5-30T22:3:23Z</time></trkpt>
<trkpt lat="43.4568807" lon="6.8733009"><ele></ele><time>2022-5-30T22:3:26Z</time></trkpt>
<trkpt lat="43.4568808" lon="6.8733010"><ele></ele><time>2022-5-30T22:3:29Z</time></trkpt>
<trkpt lat="43.4568808" lon="6.8733004"><ele></ele><time>2022-5-30T22:3:32Z</time></trkpt>
<trkpt lat="43.4568808" lon="6.8732994"><ele></ele><time>2022-5-30T22:3:35Z</time></trkpt>
<trkpt lat="43.4568808" lon="6.8732988"><ele></ele><time>2022-5-30T22:3:38Z</time></trkpt>
<trkpt lat="43.4568808" lon="6.8732980"><ele></ele><time>2022-5-30T22:3:41Z</time></trkpt>
<trkpt lat="43.4568807" lon="6.8732968"><ele></ele><time>2022-5-30T22:3:44Z</time></trkpt>
<trkpt lat="43.4568808" lon="6.8732963"><ele></ele><time>2022-5-30T22:3:47Z</time></trkpt>
<trkpt lat="43.4568809" lon="6.8732957"><ele></ele><time>2022-5-30T22:3:50Z</time></trkpt>
<trkpt lat="43.4568814" lon="6.8732958"><ele></ele><time>2022-5-30T22:3:53Z</time></trkpt>
<trkpt lat="43.4568814" lon="6.8732957"><ele></ele><time>2022-5-30T22:3:56Z</time></trkpt>
<trkpt lat="43.4568814" lon="6.8732953"><ele></ele><time>2022-5-30T22:3:59Z</time></trkpt>
<trkpt lat="43.4568813" lon="6.8732947"><ele></ele><time>2022-5-30T22:4:2Z</time></trkpt>
<trkpt lat="43.4568813" lon="6.8732945"><ele></ele><time>2022-5-30T22:4:5Z</time></trkpt>
<trkpt lat="43.4568813" lon="6.8732949"><ele></ele><time>2022-5-30T22:4:8Z</time></trkpt>
<trkpt lat="43.4568813" lon="6.8732946"><ele></ele><time>2022-5-30T22:4:11Z</time></trkpt>
<trkpt lat="43.4568810" lon="6.8732943"><ele></ele><time>2022-5-30T22:4:14Z</time></trkpt>
<trkpt lat="43.4568806" lon="6.8732942"><ele></ele><time>2022-5-30T22:4:17Z</time></trkpt>
<trkpt lat="43.4568804" lon="6.8732939"><ele></ele><time>2022-5-30T22:4:20Z</time></trkpt>
<trkpt lat="43.4568802" lon="6.8732937"><ele></ele><time>2022-5-30T22:4:23Z</time></trkpt>
<trkpt lat="43.4568800" lon="6.8732905"><ele></ele><time>2022-5-30T22:4:26Z</time></trkpt>
<trkpt lat="43.4568814" lon="6.8732815"><ele></ele><time>2022-5-30T22:4:29Z</time></trkpt>
<trkpt lat="43.4568879" lon="6.8732701"><ele></ele><time>2022-5-30T22:4:32Z</time></trkpt>
<trkpt lat="43.4568959" lon="6.8732667"><ele></ele><time>2022-5-30T22:4:35Z</time></trkpt>
<trkpt lat="43.4569006" lon="6.8732692"><ele></ele><time>2022-5-30T22:4:38Z</time></trkpt>
<trkpt lat="43.4569039" lon="6.8732874"><ele></ele><time>2022-5-30T22:4:41Z</time></trkpt>
<trkpt lat="43.4569073" lon="6.8733108"><ele></ele><time>2022-5-30T22:4:44Z</time></trkpt>
<trkpt lat="43.4569110" lon="6.8733318"><ele></ele><time>2022-5-30T22:4:47Z</time></trkpt>
<trkpt lat="43.4569161" lon="6.8733575"><ele></ele><time>2022-5-30T22:4:50Z</time></trkpt>
<trkpt lat="43.4569222" lon="6.8733867"><ele></ele><time>2022-5-30T22:4:53Z</time></trkpt>
<trkpt lat="43.4569342" lon="6.8734131"><ele></ele><time>2022-5-30T22:4:56Z</time></trkpt>
<trkpt lat="43.4569541" lon="6.8734394"><ele></ele><time>2022-5-30T22:4:59Z</time></trkpt>
<trkpt lat="43.4569729" lon="6.8734592"><ele></ele><time>2022-5-30T22:5:2Z</time></trkpt>
<trkpt lat="43.4569863" lon="6.8734697"><ele></ele><time>2022-5-30T22:5:5Z</time></trkpt>
<trkpt lat="43.4569937" lon="6.8734708"><ele></ele><time>2022-5-30T22:5:8Z</time></trkpt>
<trkpt lat="43.4569931" lon="6.8734647"><ele></ele><time>2022-5-30T22:5:11Z</time></trkpt>
<trkpt lat="43.4569937" lon="6.8734648"><ele></ele><time>2022-5-30T22:5:14Z</time></trkpt>
<trkpt lat="43.4569888" lon="6.8734595"><ele></ele><time>2022-5-30T22:5:17Z</time></trkpt>
<trkpt lat="43.4569890" lon="6.8734594"><ele></ele><time>2022-5-30T22:5:20Z</time></trkpt>
<trkpt lat="43.4569892" lon="6.8734593"><ele></ele><time>2022-5-30T22:5:23Z</time></trkpt>
<trkpt lat="43.4569896" lon="6.8734594"><ele></ele><time>2022-5-30T22:5:26Z</time></trkpt>
<trkpt lat="43.4569898" lon="6.8734594"><ele></ele><time>2022-5-30T22:5:29Z</time></trkpt>
<trkpt lat="43.4569900" lon="6.8734593"><ele></ele><time>2022-5-30T22:5:32Z</time></trkpt>
<trkpt lat="43.4569901" lon="6.8734592"><ele></ele><time>2022-5-30T22:5:35Z</time></trkpt>
<trkpt lat="43.4569903" lon="6.8734590"><ele></ele><time>2022-5-30T22:5:38Z</time></trkpt>
<trkpt lat="43.4569904" lon="6.8734587"><ele></ele><time>2022-5-30T22:5:41Z</time></trkpt>
<trkpt lat="43.4569905" lon="6.8734586"><ele></ele><time>2022-5-30T22:5:44Z</time></trkpt>
<trkpt lat="43.4569905" lon="6.8734579"><ele></ele><time>2022-5-30T22:5:47Z</time></trkpt>
<trkpt lat="43.4569905" lon="6.8734576"><ele></ele><time>2022-5-30T22:5:50Z</time></trkpt>
<trkpt lat="43.4569907" lon="6.8734570"><ele></ele><time>2022-5-30T22:5:53Z</time></trkpt>
<trkpt lat="43.4569914" lon="6.8734557"><ele></ele><time>2022-5-30T22:5:56Z</time></trkpt>
<trkpt lat="43.4569921" lon="6.8734556"><ele></ele><time>2022-5-30T22:5:59Z</time></trkpt>
<trkpt lat="43.4569930" lon="6.8734556"><ele></ele><time>2022-5-30T22:6:2Z</time></trkpt>
<trkpt lat="43.4569937" lon="6.8734558"><ele></ele><time>2022-5-30T22:6:5Z</time></trkpt>
<trkpt lat="43.4569945" lon="6.8734556"><ele></ele><time>2022-5-30T22:6:8Z</time></trkpt>
<trkpt lat="43.4569947" lon="6.8734556"><ele></ele><time>2022-5-30T22:6:11Z</time></trkpt>
<trkpt lat="43.4569951" lon="6.8734554"><ele></ele><time>2022-5-30T22:6:14Z</time></trkpt>
<trkpt lat="43.4570021" lon="6.8734489"><ele></ele><time>2022-5-30T22:6:17Z</time></trkpt>
<trkpt lat="43.4570122" lon="6.8734480"><ele></ele><time>2022-5-30T22:6:20Z</time></trkpt>
<trkpt lat="43.4570266" lon="6.8734498"><ele></ele><time>2022-5-30T22:6:23Z</time></trkpt>
<trkpt lat="43.4570479" lon="6.8734356"><ele></ele><time>2022-5-30T22:6:26Z</time></trkpt>
<trkpt lat="43.4570637" lon="6.8734299"><ele></ele><time>2022-5-30T22:6:29Z</time></trkpt>
<trkpt lat="43.4570815" lon="6.8734407"><ele></ele><time>2022-5-30T22:6:32Z</time></trkpt>
<trkpt lat="43.4570975" lon="6.8734468"><ele></ele><time>2022-5-30T22:6:35Z</time></trkpt>
<trkpt lat="43.4571083" lon="6.8734484"><ele></ele><time>2022-5-30T22:6:38Z</time></trkpt>
<trkpt lat="43.4571215" lon="6.8734548"><ele></ele><time>2022-5-30T22:6:41Z</time></trkpt>
<trkpt lat="43.4571330" lon="6.8734634"><ele></ele><time>2022-5-30T22:6:44Z</time></trkpt>
<trkpt lat="43.4571339" lon="6.8734664"><ele></ele><time>2022-5-30T22:6:47Z</time></trkpt>
<trkpt lat="43.4571404" lon="6.8734736"><ele></ele><time>2022-5-30T22:6:50Z</time></trkpt>
<trkpt lat="43.4571426" lon="6.8734749"><ele></ele><time>2022-5-30T22:6:53Z</time></trkpt>
<trkpt lat="43.4571427" lon="6.8734750"><ele></ele><time>2022-5-30T22:6:56Z</time></trkpt>
<trkpt lat="43.4571429" lon="6.8734750"><ele></ele><time>2022-5-30T22:6:59Z</time></trkpt>
<trkpt lat="43.4571430" lon="6.8734748"><ele></ele><time>2022-5-30T22:7:2Z</time></trkpt>
<trkpt lat="43.4571427" lon="6.8734745"><ele></ele><time>2022-5-30T22:7:5Z</time></trkpt>
<trkpt lat="43.4571427" lon="6.8734741"><ele></ele><time>2022-5-30T22:7:8Z</time></trkpt>
<trkpt lat="43.4571432" lon="6.8734739"><ele></ele><time>2022-5-30T22:7:11Z</time></trkpt>
<trkpt lat="43.4571416" lon="6.8734733"><ele></ele><time>2022-5-30T22:7:14Z</time></trkpt>
<trkpt lat="43.4571486" lon="6.8734732"><ele></ele><time>2022-5-30T22:7:17Z</time></trkpt>
<trkpt lat="43.4571656" lon="6.8734794"><ele></ele><time>2022-5-30T22:7:20Z</time></trkpt>
<trkpt lat="43.4571929" lon="6.8734834"><ele></ele><time>2022-5-30T22:7:23Z</time></trkpt>
<trkpt lat="43.4572249" lon="6.8734868"><ele></ele><time>2022-5-30T22:7:26Z</time></trkpt>
<trkpt lat="43.4572667" lon="6.8734953"><ele></ele><time>2022-5-30T22:7:29Z</time></trkpt>
<trkpt lat="43.4573134" lon="6.8735102"><ele></ele><time>2022-5-30T22:7:32Z</time></trkpt>
<trkpt lat="43.4573564" lon="6.8735273"><ele></ele><time>2022-5-30T22:7:35Z</time></trkpt>
<trkpt lat="43.4573948" lon="6.8735539"><ele></ele><time>2022-5-30T22:7:38Z</time></trkpt>
<trkpt lat="43.4574303" lon="6.8735889"><ele></ele><time>2022-5-30T22:7:41Z</time></trkpt>
<trkpt lat="43.4574668" lon="6.8736391"><ele></ele><time>2022-5-30T22:7:44Z</time></trkpt>
<trkpt lat="43.4574909" lon="6.8737039"><ele></ele><time>2022-5-30T22:7:47Z</time></trkpt>
<trkpt lat="43.4575080" lon="6.8737644"><ele></ele><time>2022-5-30T22:7:50Z</time></trkpt>
<trkpt lat="43.4575254" lon="6.8738295"><ele></ele><time>2022-5-30T22:7:53Z</time></trkpt>
<trkpt lat="43.4575449" lon="6.8738974"><ele></ele><time>2022-5-30T22:7:56Z</time></trkpt>
<trkpt lat="43.4575641" lon="6.8739657"><ele></ele><time>2022-5-30T22:7:59Z</time></trkpt>
<trkpt lat="43.4575839" lon="6.8740383"><ele></ele><time>2022-5-30T22:8:2Z</time></trkpt>
<trkpt lat="43.4576039" lon="6.8741114"><ele></ele><time>2022-5-30T22:8:5Z</time></trkpt>
<trkpt lat="43.4576252" lon="6.8741859"><ele></ele><time>2022-5-30T22:8:8Z</time></trkpt>
<trkpt lat="43.4576492" lon="6.8742620"><ele></ele><time>2022-5-30T22:8:11Z</time></trkpt>
<trkpt lat="43.4576779" lon="6.8743468"><ele></ele><time>2022-5-30T22:8:14Z</time></trkpt>
<trkpt lat="43.4577033" lon="6.8744256"><ele></ele><time>2022-5-30T22:8:17Z</time></trkpt>
<trkpt lat="43.4577324" lon="6.8745049"><ele></ele><time>2022-5-30T22:8:20Z</time></trkpt>
<trkpt lat="43.4577568" lon="6.8745871"><ele></ele><time>2022-5-30T22:8:23Z</time></trkpt>
<trkpt lat="43.4577756" lon="6.8746694"><ele></ele><time>2022-5-30T22:8:26Z</time></trkpt>
<trkpt lat="43.4577966" lon="6.8747469"><ele></ele><time>2022-5-30T22:8:29Z</time></trkpt>
<trkpt lat="43.4578164" lon="6.8748211"><ele></ele><time>2022-5-30T22:8:32Z</time></trkpt>
<trkpt lat="43.4578349" lon="6.8748933"><ele></ele><time>2022-5-30T22:8:35Z</time></trkpt>
<trkpt lat="43.4578493" lon="6.8749744"><ele></ele><time>2022-5-30T22:8:38Z</time></trkpt>
<trkpt lat="43.4578697" lon="6.8750482"><ele></ele><time>2022-5-30T22:8:41Z</time></trkpt>
<trkpt lat="43.4578930" lon="6.8751200"><ele></ele><time>2022-5-30T22:8:44Z</time></trkpt>
<trkpt lat="43.4579210" lon="6.8751930"><ele></ele><time>2022-5-30T22:8:47Z</time></trkpt>
<trkpt lat="43.4579538" lon="6.8752637"><ele></ele><time>2022-5-30T22:8:50Z</time></trkpt>
<trkpt lat="43.4579857" lon="6.8753334"><ele></ele><time>2022-5-30T22:8:53Z</time></trkpt>
<trkpt lat="43.4580201" lon="6.8754014"><ele></ele><time>2022-5-30T22:8:56Z</time></trkpt>
<trkpt lat="43.4580598" lon="6.8754708"><ele></ele><time>2022-5-30T22:8:59Z</time></trkpt>
<trkpt lat="43.4581001" lon="6.8755405"><ele></ele><time>2022-5-30T22:9:2Z</time></trkpt>
<trkpt lat="43.4581385" lon="6.8756045"><ele></ele><time>2022-5-30T22:9:5Z</time></trkpt>
<trkpt lat="43.4581776" lon="6.8756598"><ele></ele><time>2022-5-30T22:9:8Z</time></trkpt>
<trkpt lat="43.4582221" lon="6.8756960"><ele></ele><time>2022-5-30T22:9:11Z</time></trkpt>
<trkpt lat="43.4582738" lon="6.8757166"><ele></ele><time>2022-5-30T22:9:14Z</time></trkpt>
<trkpt lat="43.4583305" lon="6.8757379"><ele></ele><time>2022-5-30T22:9:17Z</time></trkpt>
<trkpt lat="43.4583923" lon="6.8757558"><ele></ele><time>2022-5-30T22:9:20Z</time></trkpt>
<trkpt lat="43.4584500" lon="6.8757735"><ele></ele><time>2022-5-30T22:9:23Z</time></trkpt>
<trkpt lat="43.4585134" lon="6.8757857"><ele></ele><time>2022-5-30T22:9:26Z</time></trkpt>
<trkpt lat="43.4585701" lon="6.8758008"><ele></ele><time>2022-5-30T22:9:29Z</time></trkpt>
<trkpt lat="43.4586188" lon="6.8758141"><ele></ele><time>2022-5-30T22:9:32Z</time></trkpt>
<trkpt lat="43.4586694" lon="6.8758322"><ele></ele><time>2022-5-30T22:9:35Z</time></trkpt>
<trkpt lat="43.4587211" lon="6.8758484"><ele></ele><time>2022-5-30T22:9:38Z</time></trkpt>
<trkpt lat="43.4587750" lon="6.8758620"><ele></ele><time>2022-5-30T22:9:41Z</time></trkpt>
<trkpt lat="43.4588340" lon="6.8758712"><ele></ele><time>2022-5-30T22:9:44Z</time></trkpt>
<trkpt lat="43.4588963" lon="6.8758768"><ele></ele><time>2022-5-30T22:9:47Z</time></trkpt>
<trkpt lat="43.4589498" lon="6.8758895"><ele></ele><time>2022-5-30T22:9:50Z</time></trkpt>
<trkpt lat="43.4590026" lon="6.8759215"><ele></ele><time>2022-5-30T22:9:53Z</time></trkpt>
<trkpt lat="43.4590435" lon="6.8759600"><ele></ele><time>2022-5-30T22:9:56Z</time></trkpt>
<trkpt lat="43.4590671" lon="6.8759941"><ele></ele><time>2022-5-30T22:9:59Z</time></trkpt>
<trkpt lat="43.4590867" lon="6.8760309"><ele></ele><time>2022-5-30T22:10:2Z</time></trkpt>
<trkpt lat="43.4591069" lon="6.8760741"><ele></ele><time>2022-5-30T22:10:5Z</time></trkpt>
<trkpt lat="43.4591248" lon="6.8761167"><ele></ele><time>2022-5-30T22:10:8Z</time></trkpt>
<trkpt lat="43.4591433" lon="6.8761635"><ele></ele><time>2022-5-30T22:10:11Z</time></trkpt>
<trkpt lat="43.4591709" lon="6.8762135"><ele></ele><time>2022-5-30T22:10:14Z</time></trkpt>
<trkpt lat="43.4591985" lon="6.8762683"><ele></ele><time>2022-5-30T22:10:17Z</time></trkpt>
<trkpt lat="43.4592256" lon="6.8763283"><ele></ele><time>2022-5-30T22:10:20Z</time></trkpt>
<trkpt lat="43.4592528" lon="6.8763971"><ele></ele><time>2022-5-30T22:10:23Z</time></trkpt>
<trkpt lat="43.4592791" lon="6.8764647"><ele></ele><time>2022-5-30T22:10:26Z</time></trkpt>
<trkpt lat="43.4593060" lon="6.8765303"><ele></ele><time>2022-5-30T22:10:29Z</time></trkpt>
<trkpt lat="43.4593296" lon="6.8765886"><ele></ele><time>2022-5-30T22:10:32Z</time></trkpt>
<trkpt lat="43.4593503" lon="6.8766463"><ele></ele><time>2022-5-30T22:10:35Z</time></trkpt>
<trkpt lat="43.4593727" lon="6.8767037"><ele></ele><time>2022-5-30T22:10:38Z</time></trkpt>
<trkpt lat="43.4594065" lon="6.8767602"><ele></ele><time>2022-5-30T22:10:41Z</time></trkpt>
<trkpt lat="43.4594442" lon="6.8768082"><ele></ele><time>2022-5-30T22:10:44Z</time></trkpt>
<trkpt lat="43.4594717" lon="6.8768542"><ele></ele><time>2022-5-30T22:10:47Z</time></trkpt>
<trkpt lat="43.4595018" lon="6.8768906"><ele></ele><time>2022-5-30T22:10:50Z</time></trkpt>
<trkpt lat="43.4595271" lon="6.8769150"><ele></ele><time>2022-5-30T22:10:53Z</time></trkpt>
<trkpt lat="43.4595423" lon="6.8769336"><ele></ele><time>2022-5-30T22:10:56Z</time></trkpt>
<trkpt lat="43.4595422" lon="6.8769381"><ele></ele><time>2022-5-30T22:10:59Z</time></trkpt>
<trkpt lat="43.4595428" lon="6.8769365"><ele></ele><time>2022-5-30T22:11:2Z</time></trkpt>
<trkpt lat="43.4595448" lon="6.8769344"><ele></ele><time>2022-5-30T22:11:5Z</time></trkpt>
<trkpt lat="43.4595456" lon="6.8769340"><ele></ele><time>2022-5-30T22:11:8Z</time></trkpt>
<trkpt lat="43.4595459" lon="6.8769340"><ele></ele><time>2022-5-30T22:11:11Z</time></trkpt>
<trkpt lat="43.4595462" lon="6.8769341"><ele></ele><time>2022-5-30T22:11:14Z</time></trkpt>
<trkpt lat="43.4595464" lon="6.8769343"><ele></ele><time>2022-5-30T22:11:17Z</time></trkpt>
<trkpt lat="43.4595467" lon="6.8769344"><ele></ele><time>2022-5-30T22:11:20Z</time></trkpt>
<trkpt lat="43.4595469" lon="6.8769344"><ele></ele><time>2022-5-30T22:11:23Z</time></trkpt>
<trkpt lat="43.4595471" lon="6.8769343"><ele></ele><time>2022-5-30T22:11:26Z</time></trkpt>
<trkpt lat="43.4595473" lon="6.8769343"><ele></ele><time>2022-5-30T22:11:29Z</time></trkpt>
<trkpt lat="43.4595470" lon="6.8769341"><ele></ele><time>2022-5-30T22:11:32Z</time></trkpt>
<trkpt lat="43.4595471" lon="6.8769341"><ele></ele><time>2022-5-30T22:11:35Z</time></trkpt>
<trkpt lat="43.4595468" lon="6.8769341"><ele></ele><time>2022-5-30T22:11:38Z</time></trkpt>
<trkpt lat="43.4595468" lon="6.8769339"><ele></ele><time>2022-5-30T22:11:41Z</time></trkpt>
<trkpt lat="43.4595470" lon="6.8769338"><ele></ele><time>2022-5-30T22:11:44Z</time></trkpt>
<trkpt lat="43.4595470" lon="6.8769336"><ele></ele><time>2022-5-30T22:11:47Z</time></trkpt>
<trkpt lat="43.4595471" lon="6.8769336"><ele></ele><time>2022-5-30T22:11:50Z</time></trkpt>
<trkpt lat="43.4595472" lon="6.8769336"><ele></ele><time>2022-5-30T22:11:53Z</time></trkpt>
<trkpt lat="43.4595473" lon="6.8769336"><ele></ele><time>2022-5-30T22:11:56Z</time></trkpt>
<trkpt lat="43.4595475" lon="6.8769334"><ele></ele><time>2022-5-30T22:11:59Z</time></trkpt>
<trkpt lat="43.4595475" lon="6.8769331"><ele></ele><time>2022-5-30T22:12:2Z</time></trkpt>
<trkpt lat="43.4595474" lon="6.8769330"><ele></ele><time>2022-5-30T22:12:5Z</time></trkpt>
<trkpt lat="43.4595471" lon="6.8769327"><ele></ele><time>2022-5-30T22:12:8Z</time></trkpt>
<trkpt lat="43.4595470" lon="6.8769327"><ele></ele><time>2022-5-30T22:12:11Z</time></trkpt>
<trkpt lat="43.4595467" lon="6.8769326"><ele></ele><time>2022-5-30T22:12:14Z</time></trkpt>
<trkpt lat="43.4595462" lon="6.8769323"><ele></ele><time>2022-5-30T22:12:17Z</time></trkpt>
<trkpt lat="43.4595460" lon="6.8769322"><ele></ele><time>2022-5-30T22:12:20Z</time></trkpt>
<trkpt lat="43.4595457" lon="6.8769322"><ele></ele><time>2022-5-30T22:12:23Z</time></trkpt>
<trkpt lat="43.4595456" lon="6.8769321"><ele></ele><time>2022-5-30T22:12:26Z</time></trkpt>
<trkpt lat="43.4595451" lon="6.8769321"><ele></ele><time>2022-5-30T22:12:29Z</time></trkpt>
<trkpt lat="43.4595447" lon="6.8769323"><ele></ele><time>2022-5-30T22:12:32Z</time></trkpt>
<trkpt lat="43.4595443" lon="6.8769323"><ele></ele><time>2022-5-30T22:12:35Z</time></trkpt>
<trkpt lat="43.4595440" lon="6.8769324"><ele></ele><time>2022-5-30T22:12:38Z</time></trkpt>
<trkpt lat="43.4595438" lon="6.8769325"><ele></ele><time>2022-5-30T22:12:41Z</time></trkpt>
<trkpt lat="43.4595436" lon="6.8769325"><ele></ele><time>2022-5-30T22:12:44Z</time></trkpt>
<trkpt lat="43.4595435" lon="6.8769326"><ele></ele><time>2022-5-30T22:12:47Z</time></trkpt>
<trkpt lat="43.4595434" lon="6.8769326"><ele></ele><time>2022-5-30T22:12:50Z</time></trkpt>
<trkpt lat="43.4595434" lon="6.8769326"><ele></ele><time>2022-5-30T22:12:53Z</time></trkpt>
<trkpt lat="43.4595434" lon="6.8769326"><ele></ele><time>2022-5-30T22:12:56Z</time></trkpt>
<trkpt lat="43.4595434" lon="6.8769327"><ele></ele><time>2022-5-30T22:12:59Z</time></trkpt>
<trkpt lat="43.4595434" lon="6.8769327"><ele></ele><time>2022-5-30T22:13:2Z</time></trkpt>
<trkpt lat="43.4595433" lon="6.8769325"><ele></ele><time>2022-5-30T22:13:5Z</time></trkpt>
<trkpt lat="43.4595433" lon="6.8769325"><ele></ele><time>2022-5-30T22:13:8Z</time></trkpt>
<trkpt lat="43.4595431" lon="6.8769323"><ele></ele><time>2022-5-30T22:13:11Z</time></trkpt>
<trkpt lat="43.4595429" lon="6.8769319"><ele></ele><time>2022-5-30T22:13:14Z</time></trkpt>
<trkpt lat="43.4595428" lon="6.8769319"><ele></ele><time>2022-5-30T22:13:17Z</time></trkpt>
<trkpt lat="43.4595427" lon="6.8769318"><ele></ele><time>2022-5-30T22:13:20Z</time></trkpt>
<trkpt lat="43.4595418" lon="6.8769309"><ele></ele><time>2022-5-30T22:13:23Z</time></trkpt>
<trkpt lat="43.4595409" lon="6.8769307"><ele></ele><time>2022-5-30T22:13:26Z</time></trkpt>
<trkpt lat="43.4595484" lon="6.8769333"><ele></ele><time>2022-5-30T22:13:29Z</time></trkpt>
<trkpt lat="43.4595556" lon="6.8769406"><ele></ele><time>2022-5-30T22:13:32Z</time></trkpt>
<trkpt lat="43.4595673" lon="6.8769491"><ele></ele><time>2022-5-30T22:13:35Z</time></trkpt>
<trkpt lat="43.4595856" lon="6.8769567"><ele></ele><time>2022-5-30T22:13:38Z</time></trkpt>
<trkpt lat="43.4596087" lon="6.8769716"><ele></ele><time>2022-5-30T22:13:41Z</time></trkpt>
<trkpt lat="43.4596321" lon="6.8770005"><ele></ele><time>2022-5-30T22:13:44Z</time></trkpt>
<trkpt lat="43.4596498" lon="6.8770426"><ele></ele><time>2022-5-30T22:13:47Z</time></trkpt>
<trkpt lat="43.4596694" lon="6.8770863"><ele></ele><time>2022-5-30T22:13:50Z</time></trkpt>
<trkpt lat="43.4596938" lon="6.8771299"><ele></ele><time>2022-5-30T22:13:53Z</time></trkpt>
<trkpt lat="43.4597194" lon="6.8771765"><ele></ele><time>2022-5-30T22:13:56Z</time></trkpt>
<trkpt lat="43.4597471" lon="6.8772260"><ele></ele><time>2022-5-30T22:13:59Z</time></trkpt>
<trkpt lat="43.4597784" lon="6.8772743"><ele></ele><time>2022-5-30T22:14:2Z</time></trkpt>
<trkpt lat="43.4598110" lon="6.8773272"><ele></ele><time>2022-5-30T22:14:5Z</time></trkpt>
<trkpt lat="43.4598420" lon="6.8773841"><ele></ele><time>2022-5-30T22:14:8Z</time></trkpt>
<trkpt lat="43.4598750" lon="6.8774396"><ele></ele><time>2022-5-30T22:14:11Z</time></trkpt>
<trkpt lat="43.4599111" lon="6.8774931"><ele></ele><time>2022-5-30T22:14:14Z</time></trkpt>
<trkpt lat="43.4599445" lon="6.8775496"><ele></ele><time>2022-5-30T22:14:17Z</time></trkpt>
<trkpt lat="43.4599743" lon="6.8776061"><ele></ele><time>2022-5-30T22:14:20Z</time></trkpt>
<trkpt lat="43.4600048" lon="6.8776632"><ele></ele><time>2022-5-30T22:14:23Z</time></trkpt>
<trkpt lat="43.4600361" lon="6.8777256"><ele></ele><time>2022-5-30T22:14:26Z</time></trkpt>
<trkpt lat="43.4600599" lon="6.8777921"><ele></ele><time>2022-5-30T22:14:29Z</time></trkpt>
<trkpt lat="43.4600875" lon="6.8778500"><ele></ele><time>2022-5-30T22:14:32Z</time></trkpt>
<trkpt lat="43.4601257" lon="6.8779104"><ele></ele><time>2022-5-30T22:14:35Z</time></trkpt>
<trkpt lat="43.4601661" lon="6.8779768"><ele></ele><time>2022-5-30T22:14:38Z</time></trkpt>
<trkpt lat="43.4602078" lon="6.8780344"><ele></ele><time>2022-5-30T22:14:41Z</time></trkpt>
<trkpt lat="43.4602307" lon="6.8780907"><ele></ele><time>2022-5-30T22:14:44Z</time></trkpt>
<trkpt lat="43.4602567" lon="6.8781531"><ele></ele><time>2022-5-30T22:14:47Z</time></trkpt>
<trkpt lat="43.4602971" lon="6.8782083"><ele></ele><time>2022-5-30T22:14:50Z</time></trkpt>
<trkpt lat="43.4603276" lon="6.8782608"><ele></ele><time>2022-5-30T22:14:53Z</time></trkpt>
<trkpt lat="43.4603538" lon="6.8783203"><ele></ele><time>2022-5-30T22:14:56Z</time></trkpt>
<trkpt lat="43.4603805" lon="6.8783875"><ele></ele><time>2022-5-30T22:14:59Z</time></trkpt>
<trkpt lat="43.4603950" lon="6.8784598"><ele></ele><time>2022-5-30T22:15:2Z</time></trkpt>
<trkpt lat="43.4604102" lon="6.8785387"><ele></ele><time>2022-5-30T22:15:5Z</time></trkpt>
<trkpt lat="43.4604207" lon="6.8786151"><ele></ele><time>2022-5-30T22:15:8Z</time></trkpt>
<trkpt lat="43.4604282" lon="6.8786876"><ele></ele><time>2022-5-30T22:15:11Z</time></trkpt>
<trkpt lat="43.4604358" lon="6.8787580"><ele></ele><time>2022-5-30T22:15:14Z</time></trkpt>
<trkpt lat="43.4604498" lon="6.8788267"><ele></ele><time>2022-5-30T22:15:17Z</time></trkpt>
<trkpt lat="43.4604824" lon="6.8788843"><ele></ele><time>2022-5-30T22:15:20Z</time></trkpt>
<trkpt lat="43.4605160" lon="6.8789268"><ele></ele><time>2022-5-30T22:15:23Z</time></trkpt>
<trkpt lat="43.4605558" lon="6.8789547"><ele></ele><time>2022-5-30T22:15:26Z</time></trkpt>
<trkpt lat="43.4606009" lon="6.8789686"><ele></ele><time>2022-5-30T22:15:29Z</time></trkpt>
<trkpt lat="43.4606485" lon="6.8789757"><ele></ele><time>2022-5-30T22:15:32Z</time></trkpt>
<trkpt lat="43.4606956" lon="6.8789835"><ele></ele><time>2022-5-30T22:15:35Z</time></trkpt>
<trkpt lat="43.4607427" lon="6.8789849"><ele></ele><time>2022-5-30T22:15:38Z</time></trkpt>
<trkpt lat="43.4607862" lon="6.8789771"><ele></ele><time>2022-5-30T22:15:41Z</time></trkpt>
<trkpt lat="43.4608282" lon="6.8789606"><ele></ele><time>2022-5-30T22:15:44Z</time></trkpt>
<trkpt lat="43.4608670" lon="6.8789363"><ele></ele><time>2022-5-30T22:15:47Z</time></trkpt>
<trkpt lat="43.4609036" lon="6.8789130"><ele></ele><time>2022-5-30T22:15:50Z</time></trkpt>
<trkpt lat="43.4609412" lon="6.8788874"><ele></ele><time>2022-5-30T22:15:53Z</time></trkpt>
<trkpt lat="43.4609829" lon="6.8788619"><ele></ele><time>2022-5-30T22:15:56Z</time></trkpt>
<trkpt lat="43.4610298" lon="6.8788321"><ele></ele><time>2022-5-30T22:15:59Z</time></trkpt>
<trkpt lat="43.4610743" lon="6.8788030"><ele></ele><time>2022-5-30T22:16:2Z</time></trkpt>
<trkpt lat="43.4611099" lon="6.8787726"><ele></ele><time>2022-5-30T22:16:5Z</time></trkpt>
<trkpt lat="43.4611332" lon="6.8787402"><ele></ele><time>2022-5-30T22:16:8Z</time></trkpt>
<trkpt lat="43.4611509" lon="6.8787110"><ele></ele><time>2022-5-30T22:16:11Z</time></trkpt>
<trkpt lat="43.4611705" lon="6.8786858"><ele></ele><time>2022-5-30T22:16:14Z</time></trkpt>
<trkpt lat="43.4611849" lon="6.8786538"><ele></ele><time>2022-5-30T22:16:17Z</time></trkpt>
<trkpt lat="43.4611941" lon="6.8786193"><ele></ele><time>2022-5-30T22:16:20Z</time></trkpt>
<trkpt lat="43.4612064" lon="6.8785828"><ele></ele><time>2022-5-30T22:16:23Z</time></trkpt>
<trkpt lat="43.4612184" lon="6.8785458"><ele></ele><time>2022-5-30T22:16:26Z</time></trkpt>
<trkpt lat="43.4612242" lon="6.8785074"><ele></ele><time>2022-5-30T22:16:29Z</time></trkpt>
<trkpt lat="43.4612326" lon="6.8784766"><ele></ele><time>2022-5-30T22:16:32Z</time></trkpt>
<trkpt lat="43.4612439" lon="6.8784531"><ele></ele><time>2022-5-30T22:16:35Z</time></trkpt>
<trkpt lat="43.4612523" lon="6.8784239"><ele></ele><time>2022-5-30T22:16:38Z</time></trkpt>
<trkpt lat="43.4612611" lon="6.8783941"><ele></ele><time>2022-5-30T22:16:41Z</time></trkpt>
<trkpt lat="43.4612694" lon="6.8783719"><ele></ele><time>2022-5-30T22:16:44Z</time></trkpt>
<trkpt lat="43.4612821" lon="6.8783534"><ele></ele><time>2022-5-30T22:16:47Z</time></trkpt>
<trkpt lat="43.4612976" lon="6.8783318"><ele></ele><time>2022-5-30T22:16:50Z</time></trkpt>
<trkpt lat="43.4613103" lon="6.8783137"><ele></ele><time>2022-5-30T22:16:53Z</time></trkpt>
<trkpt lat="43.4613243" lon="6.8782961"><ele></ele><time>2022-5-30T22:16:56Z</time></trkpt>
<trkpt lat="43.4613436" lon="6.8782816"><ele></ele><time>2022-5-30T22:16:59Z</time></trkpt>
<trkpt lat="43.4613598" lon="6.8782725"><ele></ele><time>2022-5-30T22:17:2Z</time></trkpt>
<trkpt lat="43.4613763" lon="6.8782625"><ele></ele><time>2022-5-30T22:17:5Z</time></trkpt>
<trkpt lat="43.4613929" lon="6.8782512"><ele></ele><time>2022-5-30T22:17:8Z</time></trkpt>
<trkpt lat="43.4614130" lon="6.8782404"><ele></ele><time>2022-5-30T22:17:11Z</time></trkpt>
<trkpt lat="43.4614358" lon="6.8782296"><ele></ele><time>2022-5-30T22:17:14Z</time></trkpt>
<trkpt lat="43.4614551" lon="6.8782339"><ele></ele><time>2022-5-30T22:17:17Z</time></trkpt>
<trkpt lat="43.4614787" lon="6.8782297"><ele></ele><time>2022-5-30T22:17:20Z</time></trkpt>
<trkpt lat="43.4615011" lon="6.8782244"><ele></ele><time>2022-5-30T22:17:23Z</time></trkpt>
<trkpt lat="43.4615251" lon="6.8782375"><ele></ele><time>2022-5-30T22:17:26Z</time></trkpt>
<trkpt lat="43.4615404" lon="6.8782640"><ele></ele><time>2022-5-30T22:17:29Z</time></trkpt>
<trkpt lat="43.4615483" lon="6.8782904"><ele></ele><time>2022-5-30T22:17:32Z</time></trkpt>
<trkpt lat="43.4615474" lon="6.8783105"><ele></ele><time>2022-5-30T22:17:35Z</time></trkpt>
<trkpt lat="43.4615379" lon="6.8783305"><ele></ele><time>2022-5-30T22:17:38Z</time></trkpt>
<trkpt lat="43.4615175" lon="6.8783420"><ele></ele><time>2022-5-30T22:17:41Z</time></trkpt>
<trkpt lat="43.4614985" lon="6.8783613"><ele></ele><time>2022-5-30T22:17:44Z</time></trkpt>
<trkpt lat="43.4614843" lon="6.8783807"><ele></ele><time>2022-5-30T22:17:47Z</time></trkpt>
<trkpt lat="43.4614725" lon="6.8784023"><ele></ele><time>2022-5-30T22:17:50Z</time></trkpt>
<trkpt lat="43.4614625" lon="6.8784271"><ele></ele><time>2022-5-30T22:17:53Z</time></trkpt>
<trkpt lat="43.4614512" lon="6.8784491"><ele></ele><time>2022-5-30T22:17:56Z</time></trkpt>
<trkpt lat="43.4614381" lon="6.8784707"><ele></ele><time>2022-5-30T22:17:59Z</time></trkpt>
<trkpt lat="43.4614217" lon="6.8784900"><ele></ele><time>2022-5-30T22:18:2Z</time></trkpt>
<trkpt lat="43.4614046" lon="6.8785100"><ele></ele><time>2022-5-30T22:18:5Z</time></trkpt>
<trkpt lat="43.4613894" lon="6.8785340"><ele></ele><time>2022-5-30T22:18:8Z</time></trkpt>
<trkpt lat="43.4613759" lon="6.8785611"><ele></ele><time>2022-5-30T22:18:11Z</time></trkpt>
<trkpt lat="43.4613693" lon="6.8785918"><ele></ele><time>2022-5-30T22:18:14Z</time></trkpt>
<trkpt lat="43.4613633" lon="6.8786209"><ele></ele><time>2022-5-30T22:18:17Z</time></trkpt>
<trkpt lat="43.4613551" lon="6.8786499"><ele></ele><time>2022-5-30T22:18:20Z</time></trkpt>
<trkpt lat="43.4613488" lon="6.8786824"><ele></ele><time>2022-5-30T22:18:23Z</time></trkpt>
<trkpt lat="43.4613362" lon="6.8787117"><ele></ele><time>2022-5-30T22:18:26Z</time></trkpt>
<trkpt lat="43.4613284" lon="6.8787407"><ele></ele><time>2022-5-30T22:18:29Z</time></trkpt>
<trkpt lat="43.4613242" lon="6.8787736"><ele></ele><time>2022-5-30T22:18:32Z</time></trkpt>
<trkpt lat="43.4613212" lon="6.8787944"><ele></ele><time>2022-5-30T22:18:35Z</time></trkpt>
<trkpt lat="43.4613149" lon="6.8788141"><ele></ele><time>2022-5-30T22:18:38Z</time></trkpt>
<trkpt lat="43.4613077" lon="6.8788412"><ele></ele><time>2022-5-30T22:18:41Z</time></trkpt>
<trkpt lat="43.4613015" lon="6.8788746"><ele></ele><time>2022-5-30T22:18:44Z</time></trkpt>
<trkpt lat="43.4613006" lon="6.8789022"><ele></ele><time>2022-5-30T22:18:47Z</time></trkpt>
<trkpt lat="43.4612928" lon="6.8789232"><ele></ele><time>2022-5-30T22:18:50Z</time></trkpt>
<trkpt lat="43.4612835" lon="6.8789439"><ele></ele><time>2022-5-30T22:18:53Z</time></trkpt>
<trkpt lat="43.4612742" lon="6.8789714"><ele></ele><time>2022-5-30T22:18:56Z</time></trkpt>
<trkpt lat="43.4612668" lon="6.8789956"><ele></ele><time>2022-5-30T22:18:59Z</time></trkpt>
<trkpt lat="43.4612587" lon="6.8790295"><ele></ele><time>2022-5-30T22:19:2Z</time></trkpt>
<trkpt lat="43.4612526" lon="6.8790653"><ele></ele><time>2022-5-30T22:19:5Z</time></trkpt>
<trkpt lat="43.4612452" lon="6.8790925"><ele></ele><time>2022-5-30T22:19:8Z</time></trkpt>
<trkpt lat="43.4612407" lon="6.8791200"><ele></ele><time>2022-5-30T22:19:11Z</time></trkpt>
<trkpt lat="43.4612349" lon="6.8791431"><ele></ele><time>2022-5-30T22:19:14Z</time></trkpt>
<trkpt lat="43.4612254" lon="6.8791641"><ele></ele><time>2022-5-30T22:19:17Z</time></trkpt>
<trkpt lat="43.4612190" lon="6.8791866"><ele></ele><time>2022-5-30T22:19:20Z</time></trkpt>
<trkpt lat="43.4612112" lon="6.8792147"><ele></ele><time>2022-5-30T22:19:23Z</time></trkpt>
<trkpt lat="43.4611987" lon="6.8792489"><ele></ele><time>2022-5-30T22:19:26Z</time></trkpt>
<trkpt lat="43.4611776" lon="6.8792779"><ele></ele><time>2022-5-30T22:19:29Z</time></trkpt>
<trkpt lat="43.4611577" lon="6.8793016"><ele></ele><time>2022-5-30T22:19:32Z</time></trkpt>
<trkpt lat="43.4611439" lon="6.8793242"><ele></ele><time>2022-5-30T22:19:35Z</time></trkpt>
<trkpt lat="43.4611381" lon="6.8793532"><ele></ele><time>2022-5-30T22:19:38Z</time></trkpt>
<trkpt lat="43.4611298" lon="6.8793820"><ele></ele><time>2022-5-30T22:19:41Z</time></trkpt>
<trkpt lat="43.4611198" lon="6.8794123"><ele></ele><time>2022-5-30T22:19:44Z</time></trkpt>
<trkpt lat="43.4611008" lon="6.8794223"><ele></ele><time>2022-5-30T22:19:47Z</time></trkpt>
<trkpt lat="43.4610635" lon="6.8794375"><ele></ele><time>2022-5-30T22:19:50Z</time></trkpt>
<trkpt lat="43.4610297" lon="6.8794557"><ele></ele><time>2022-5-30T22:19:53Z</time></trkpt>
<trkpt lat="43.4609968" lon="6.8794751"><ele></ele><time>2022-5-30T22:19:56Z</time></trkpt>
<trkpt lat="43.4609678" lon="6.8794945"><ele></ele><time>2022-5-30T22:19:59Z</time></trkpt>
<trkpt lat="43.4609454" lon="6.8795139"><ele></ele><time>2022-5-30T22:20:2Z</time></trkpt>
<trkpt lat="43.4609220" lon="6.8795341"><ele></ele><time>2022-5-30T22:20:5Z</time></trkpt>
<trkpt lat="43.4609008" lon="6.8795486"><ele></ele><time>2022-5-30T22:20:8Z</time></trkpt>
<trkpt lat="43.4608763" lon="6.8795607"><ele></ele><time>2022-5-30T22:20:11Z</time></trkpt>
<trkpt lat="43.4608518" lon="6.8795814"><ele></ele><time>2022-5-30T22:20:14Z</time></trkpt>
<trkpt lat="43.4608318" lon="6.8796016"><ele></ele><time>2022-5-30T22:20:17Z</time></trkpt>
<trkpt lat="43.4605961" lon="6.8797896"><ele></ele><time>2022-5-30T22:20:20Z</time></trkpt>
<trkpt lat="43.4605801" lon="6.8797941"><ele></ele><time>2022-5-30T22:20:23Z</time></trkpt>
<trkpt lat="43.4605610" lon="6.8798145"><ele></ele><time>2022-5-30T22:20:26Z</time></trkpt>
<trkpt lat="43.4605411" lon="6.8798330"><ele></ele><time>2022-5-30T22:20:29Z</time></trkpt>
<trkpt lat="43.4605240" lon="6.8798493"><ele></ele><time>2022-5-30T22:20:32Z</time></trkpt>
<trkpt lat="43.4605059" lon="6.8798600"><ele></ele><time>2022-5-30T22:20:35Z</time></trkpt>
<trkpt lat="43.4604893" lon="6.8798658"><ele></ele><time>2022-5-30T22:20:38Z</time></trkpt>
<trkpt lat="43.4604716" lon="6.8798854"><ele></ele><time>2022-5-30T22:20:41Z</time></trkpt>
<trkpt lat="43.4604507" lon="6.8798940"><ele></ele><time>2022-5-30T22:20:44Z</time></trkpt>
<trkpt lat="43.4604313" lon="6.8798945"><ele></ele><time>2022-5-30T22:20:47Z</time></trkpt>
<trkpt lat="43.4604114" lon="6.8798851"><ele></ele><time>2022-5-30T22:20:50Z</time></trkpt>
<trkpt lat="43.4603870" lon="6.8798904"><ele></ele><time>2022-5-30T22:20:53Z</time></trkpt>
<trkpt lat="43.4603645" lon="6.8798915"><ele></ele><time>2022-5-30T22:20:56Z</time></trkpt>
<trkpt lat="43.4603345" lon="6.8798877"><ele></ele><time>2022-5-30T22:20:59Z</time></trkpt>
<trkpt lat="43.4603019" lon="6.8798872"><ele></ele><time>2022-5-30T22:21:2Z</time></trkpt>
<trkpt lat="43.4602786" lon="6.8798852"><ele></ele><time>2022-5-30T22:21:5Z</time></trkpt>
<trkpt lat="43.4602540" lon="6.8798887"><ele></ele><time>2022-5-30T22:21:8Z</time></trkpt>
<trkpt lat="43.4602251" lon="6.8798830"><ele></ele><time>2022-5-30T22:21:11Z</time></trkpt>
<trkpt lat="43.4601945" lon="6.8798753"><ele></ele><time>2022-5-30T22:21:14Z</time></trkpt>
<trkpt lat="43.4601678" lon="6.8798689"><ele></ele><time>2022-5-30T22:21:17Z</time></trkpt>
<trkpt lat="43.4601468" lon="6.8798631"><ele></ele><time>2022-5-30T22:21:20Z</time></trkpt>
<trkpt lat="43.4601224" lon="6.8798683"><ele></ele><time>2022-5-30T22:21:23Z</time></trkpt>
<trkpt lat="43.4600986" lon="6.8798770"><ele></ele><time>2022-5-30T22:21:26Z</time></trkpt>
<trkpt lat="43.4600796" lon="6.8798772"><ele></ele><time>2022-5-30T22:21:29Z</time></trkpt>
<trkpt lat="43.4600595" lon="6.8798684"><ele></ele><time>2022-5-30T22:21:32Z</time></trkpt>
<trkpt lat="43.4600396" lon="6.8798668"><ele></ele><time>2022-5-30T22:21:35Z</time></trkpt>
<trkpt lat="43.4600190" lon="6.8798679"><ele></ele><time>2022-5-30T22:21:38Z</time></trkpt>
<trkpt lat="43.4600006" lon="6.8798738"><ele></ele><time>2022-5-30T22:21:41Z</time></trkpt>
<trkpt lat="43.4599821" lon="6.8798813"><ele></ele><time>2022-5-30T22:21:44Z</time></trkpt>
<trkpt lat="43.4599649" lon="6.8798861"><ele></ele><time>2022-5-30T22:21:47Z</time></trkpt>
<trkpt lat="43.4599569" lon="6.8798884"><ele></ele><time>2022-5-30T22:21:50Z</time></trkpt>
<trkpt lat="43.4599556" lon="6.8798865"><ele></ele><time>2022-5-30T22:21:53Z</time></trkpt>
<trkpt lat="43.4599669" lon="6.8798771"><ele></ele><time>2022-5-30T22:21:56Z</time></trkpt>
<trkpt lat="43.4599704" lon="6.8798744"><ele></ele><time>2022-5-30T22:21:59Z</time></trkpt>
<trkpt lat="43.4599712" lon="6.8798742"><ele></ele><time>2022-5-30T22:22:2Z</time></trkpt>
<trkpt lat="43.4599724" lon="6.8798743"><ele></ele><time>2022-5-30T22:22:5Z</time></trkpt>
<trkpt lat="43.4599732" lon="6.8798736"><ele></ele><time>2022-5-30T22:22:8Z</time></trkpt>
<trkpt lat="43.4599733" lon="6.8798732"><ele></ele><time>2022-5-30T22:22:11Z</time></trkpt>
<trkpt lat="43.4599733" lon="6.8798729"><ele></ele><time>2022-5-30T22:22:14Z</time></trkpt>
<trkpt lat="43.4599736" lon="6.8798724"><ele></ele><time>2022-5-30T22:22:17Z</time></trkpt>
<trkpt lat="43.4599737" lon="6.8798718"><ele></ele><time>2022-5-30T22:22:20Z</time></trkpt>
<trkpt lat="43.4599732" lon="6.8798709"><ele></ele><time>2022-5-30T22:22:23Z</time></trkpt>
<trkpt lat="43.4599732" lon="6.8798700"><ele></ele><time>2022-5-30T22:22:26Z</time></trkpt>
<trkpt lat="43.4599714" lon="6.8798696"><ele></ele><time>2022-5-30T22:22:29Z</time></trkpt>
<trkpt lat="43.4599713" lon="6.8798691"><ele></ele><time>2022-5-30T22:22:32Z</time></trkpt>
<trkpt lat="43.4599719" lon="6.8798688"><ele></ele><time>2022-5-30T22:22:35Z</time></trkpt>
<trkpt lat="43.4599720" lon="6.8798694"><ele></ele><time>2022-5-30T22:22:38Z</time></trkpt>
<trkpt lat="43.4599724" lon="6.8798696"><ele></ele><time>2022-5-30T22:22:41Z</time></trkpt>
<trkpt lat="43.4599733" lon="6.8798703"><ele></ele><time>2022-5-30T22:22:44Z</time></trkpt>
<trkpt lat="43.4599745" lon="6.8798700"><ele></ele><time>2022-5-30T22:22:47Z</time></trkpt>
<trkpt lat="43.4599745" lon="6.8798698"><ele></ele><time>2022-5-30T22:22:50Z</time></trkpt>
<trkpt lat="43.4599742" lon="6.8798696"><ele></ele><time>2022-5-30T22:22:53Z</time></trkpt>
<trkpt lat="43.4599742" lon="6.8798693"><ele></ele><time>2022-5-30T22:22:56Z</time></trkpt>
<trkpt lat="43.4599742" lon="6.8798688"><ele></ele><time>2022-5-30T22:22:59Z</time></trkpt>
<trkpt lat="43.4599742" lon="6.8798682"><ele></ele><time>2022-5-30T22:23:2Z</time></trkpt>
<trkpt lat="43.4599745" lon="6.8798670"><ele></ele><time>2022-5-30T22:23:5Z</time></trkpt>
<trkpt lat="43.4599744" lon="6.8798662"><ele></ele><time>2022-5-30T22:23:8Z</time></trkpt>
<trkpt lat="43.4599743" lon="6.8798650"><ele></ele><time>2022-5-30T22:23:11Z</time></trkpt>
<trkpt lat="43.4599691" lon="6.8798676"><ele></ele><time>2022-5-30T22:23:14Z</time></trkpt>
<trkpt lat="43.4599596" lon="6.8798818"><ele></ele><time>2022-5-30T22:23:17Z</time></trkpt>
<trkpt lat="43.4599500" lon="6.8799100"><ele></ele><time>2022-5-30T22:23:20Z</time></trkpt>
<trkpt lat="43.4599472" lon="6.8799303"><ele></ele><time>2022-5-30T22:23:23Z</time></trkpt>
<trkpt lat="43.4599448" lon="6.8799462"><ele></ele><time>2022-5-30T22:23:26Z</time></trkpt>
<trkpt lat="43.4599442" lon="6.8799671"><ele></ele><time>2022-5-30T22:23:29Z</time></trkpt>
<trkpt lat="43.4599379" lon="6.8799911"><ele></ele><time>2022-5-30T22:23:32Z</time></trkpt>
<trkpt lat="43.4599355" lon="6.8800212"><ele></ele><time>2022-5-30T22:23:35Z</time></trkpt>
<trkpt lat="43.4599334" lon="6.8800528"><ele></ele><time>2022-5-30T22:23:38Z</time></trkpt>
<trkpt lat="43.4599302" lon="6.8800881"><ele></ele><time>2022-5-30T22:23:41Z</time></trkpt>
<trkpt lat="43.4599322" lon="6.8801210"><ele></ele><time>2022-5-30T22:23:44Z</time></trkpt>
<trkpt lat="43.4599371" lon="6.8801496"><ele></ele><time>2022-5-30T22:23:47Z</time></trkpt>
<trkpt lat="43.4599410" lon="6.8801800"><ele></ele><time>2022-5-30T22:23:50Z</time></trkpt>
<trkpt lat="43.4599393" lon="6.8802107"><ele></ele><time>2022-5-30T22:23:53Z</time></trkpt>
<trkpt lat="43.4599366" lon="6.8802437"><ele></ele><time>2022-5-30T22:23:56Z</time></trkpt>
<trkpt lat="43.4599353" lon="6.8802673"><ele></ele><time>2022-5-30T22:23:59Z</time></trkpt>
<trkpt lat="43.4599368" lon="6.8802953"><ele></ele><time>2022-5-30T22:24:2Z</time></trkpt>
<trkpt lat="43.4599364" lon="6.8803232"><ele></ele><time>2022-5-30T22:24:5Z</time></trkpt>
<trkpt lat="43.4599320" lon="6.8803521"><ele></ele><time>2022-5-30T22:24:8Z</time></trkpt>
<trkpt lat="43.4599301" lon="6.8803817"><ele></ele><time>2022-5-30T22:24:11Z</time></trkpt>
<trkpt lat="43.4599359" lon="6.8804026"><ele></ele><time>2022-5-30T22:24:14Z</time></trkpt>
<trkpt lat="43.4599429" lon="6.8804257"><ele></ele><time>2022-5-30T22:24:17Z</time></trkpt>
<trkpt lat="43.4599534" lon="6.8804546"><ele></ele><time>2022-5-30T22:24:20Z</time></trkpt>
<trkpt lat="43.4599546" lon="6.8804818"><ele></ele><time>2022-5-30T22:24:23Z</time></trkpt>
<trkpt lat="43.4599527" lon="6.8805097"><ele></ele><time>2022-5-30T22:24:26Z</time></trkpt>
<trkpt lat="43.4599473" lon="6.8805323"><ele></ele><time>2022-5-30T22:24:29Z</time></trkpt>
<trkpt lat="43.4599457" lon="6.8805593"><ele></ele><time>2022-5-30T22:24:32Z</time></trkpt>
<trkpt lat="43.4599475" lon="6.8805885"><ele></ele><time>2022-5-30T22:24:35Z</time></trkpt>
<trkpt lat="43.4599469" lon="6.8806091"><ele></ele><time>2022-5-30T22:24:38Z</time></trkpt>
<trkpt lat="43.4599402" lon="6.8806293"><ele></ele><time>2022-5-30T22:24:41Z</time></trkpt>
<trkpt lat="43.4599326" lon="6.8806530"><ele></ele><time>2022-5-30T22:24:44Z</time></trkpt>
<trkpt lat="43.4599282" lon="6.8806778"><ele></ele><time>2022-5-30T22:24:47Z</time></trkpt>
<trkpt lat="43.4599260" lon="6.8807110"><ele></ele><time>2022-5-30T22:24:50Z</time></trkpt>
<trkpt lat="43.4599211" lon="6.8807426"><ele></ele><time>2022-5-30T22:24:53Z</time></trkpt>
<trkpt lat="43.4599186" lon="6.8807815"><ele></ele><time>2022-5-30T22:24:56Z</time></trkpt>
<trkpt lat="43.4599216" lon="6.8808112"><ele></ele><time>2022-5-30T22:24:59Z</time></trkpt>
<trkpt lat="43.4599243" lon="6.8808466"><ele></ele><time>2022-5-30T22:25:2Z</time></trkpt>
<trkpt lat="43.4599257" lon="6.8808894"><ele></ele><time>2022-5-30T22:25:5Z</time></trkpt>
<trkpt lat="43.4599263" lon="6.8809246"><ele></ele><time>2022-5-30T22:25:8Z</time></trkpt>
<trkpt lat="43.4599290" lon="6.8809562"><ele></ele><time>2022-5-30T22:25:11Z</time></trkpt>
<trkpt lat="43.4599318" lon="6.8809889"><ele></ele><time>2022-5-30T22:25:14Z</time></trkpt>
<trkpt lat="43.4599352" lon="6.8810259"><ele></ele><time>2022-5-30T22:25:17Z</time></trkpt>
<trkpt lat="43.4599437" lon="6.8810565"><ele></ele><time>2022-5-30T22:25:20Z</time></trkpt>
<trkpt lat="43.4599469" lon="6.8810882"><ele></ele><time>2022-5-30T22:25:23Z</time></trkpt>
<trkpt lat="43.4599462" lon="6.8811185"><ele></ele><time>2022-5-30T22:25:26Z</time></trkpt>
<trkpt lat="43.4599481" lon="6.8811433"><ele></ele><time>2022-5-30T22:25:29Z</time></trkpt>
<trkpt lat="43.4599514" lon="6.8811656"><ele></ele><time>2022-5-30T22:25:32Z</time></trkpt>
<trkpt lat="43.4599553" lon="6.8811939"><ele></ele><time>2022-5-30T22:25:35Z</time></trkpt>
<trkpt lat="43.4599514" lon="6.8812236"><ele></ele><time>2022-5-30T22:25:38Z</time></trkpt>
<trkpt lat="43.4599522" lon="6.8812590"><ele></ele><time>2022-5-30T22:25:41Z</time></trkpt>
<trkpt lat="43.4599518" lon="6.8812940"><ele></ele><time>2022-5-30T22:25:44Z</time></trkpt>
<trkpt lat="43.4599518" lon="6.8813222"><ele></ele><time>2022-5-30T22:25:47Z</time></trkpt>
<trkpt lat="43.4599463" lon="6.8813443"><ele></ele><time>2022-5-30T22:25:50Z</time></trkpt>
<trkpt lat="43.4599464" lon="6.8813736"><ele></ele><time>2022-5-30T22:25:53Z</time></trkpt>
<trkpt lat="43.4599429" lon="6.8814039"><ele></ele><time>2022-5-30T22:25:56Z</time></trkpt>
<trkpt lat="43.4599398" lon="6.8814333"><ele></ele><time>2022-5-30T22:25:59Z</time></trkpt>
<trkpt lat="43.4599414" lon="6.8814682"><ele></ele><time>2022-5-30T22:26:2Z</time></trkpt>
<trkpt lat="43.4599424" lon="6.8814926"><ele></ele><time>2022-5-30T22:26:5Z</time></trkpt>
<trkpt lat="43.4599418" lon="6.8815189"><ele></ele><time>2022-5-30T22:26:8Z</time></trkpt>
<trkpt lat="43.4599386" lon="6.8815460"><ele></ele><time>2022-5-30T22:26:11Z</time></trkpt>
<trkpt lat="43.4599365" lon="6.8815757"><ele></ele><time>2022-5-30T22:26:14Z</time></trkpt>
<trkpt lat="43.4599330" lon="6.8815984"><ele></ele><time>2022-5-30T22:26:17Z</time></trkpt>
<trkpt lat="43.4599313" lon="6.8816210"><ele></ele><time>2022-5-30T22:26:20Z</time></trkpt>
<trkpt lat="43.4599360" lon="6.8816547"><ele></ele><time>2022-5-30T22:26:23Z</time></trkpt>
<trkpt lat="43.4599374" lon="6.8816853"><ele></ele><time>2022-5-30T22:26:26Z</time></trkpt>
<trkpt lat="43.4599382" lon="6.8817226"><ele></ele><time>2022-5-30T22:26:29Z</time></trkpt>
<trkpt lat="43.4599363" lon="6.8817565"><ele></ele><time>2022-5-30T22:26:32Z</time></trkpt>
<trkpt lat="43.4599312" lon="6.8817905"><ele></ele><time>2022-5-30T22:26:35Z</time></trkpt>
<trkpt lat="43.4599225" lon="6.8818215"><ele></ele><time>2022-5-30T22:26:38Z</time></trkpt>
<trkpt lat="43.4599182" lon="6.8818498"><ele></ele><time>2022-5-30T22:26:41Z</time></trkpt>
<trkpt lat="43.4599134" lon="6.8818791"><ele></ele><time>2022-5-30T22:26:44Z</time></trkpt>
<trkpt lat="43.4599213" lon="6.8819136"><ele></ele><time>2022-5-30T22:26:47Z</time></trkpt>
<trkpt lat="43.4599215" lon="6.8819510"><ele></ele><time>2022-5-30T22:26:50Z</time></trkpt>
<trkpt lat="43.4599243" lon="6.8819827"><ele></ele><time>2022-5-30T22:26:53Z</time></trkpt>
<trkpt lat="43.4599291" lon="6.8820161"><ele></ele><time>2022-5-30T22:26:56Z</time></trkpt>
<trkpt lat="43.4599329" lon="6.8820505"><ele></ele><time>2022-5-30T22:26:59Z</time></trkpt>
<trkpt lat="43.4599391" lon="6.8820848"><ele></ele><time>2022-5-30T22:27:2Z</time></trkpt>
<trkpt lat="43.4599400" lon="6.8821181"><ele></ele><time>2022-5-30T22:27:5Z</time></trkpt>
<trkpt lat="43.4599395" lon="6.8821466"><ele></ele><time>2022-5-30T22:27:8Z</time></trkpt>
<trkpt lat="43.4599399" lon="6.8821778"><ele></ele><time>2022-5-30T22:27:11Z</time></trkpt>
<trkpt lat="43.4599403" lon="6.8822079"><ele></ele><time>2022-5-30T22:27:14Z</time></trkpt>
<trkpt lat="43.4599388" lon="6.8822381"><ele></ele><time>2022-5-30T22:27:17Z</time></trkpt>
<trkpt lat="43.4599412" lon="6.8822693"><ele></ele><time>2022-5-30T22:27:20Z</time></trkpt>
<trkpt lat="43.4599439" lon="6.8823032"><ele></ele><time>2022-5-30T22:27:23Z</time></trkpt>
<trkpt lat="43.4599480" lon="6.8823361"><ele></ele><time>2022-5-30T22:27:26Z</time></trkpt>
<trkpt lat="43.4599469" lon="6.8823663"><ele></ele><time>2022-5-30T22:27:29Z</time></trkpt>
<trkpt lat="43.4599412" lon="6.8823990"><ele></ele><time>2022-5-30T22:27:32Z</time></trkpt>
<trkpt lat="43.4599384" lon="6.8824262"><ele></ele><time>2022-5-30T22:27:35Z</time></trkpt>
<trkpt lat="43.4599355" lon="6.8824532"><ele></ele><time>2022-5-30T22:27:38Z</time></trkpt>
<trkpt lat="43.4599380" lon="6.8824769"><ele></ele><time>2022-5-30T22:27:41Z</time></trkpt>
<trkpt lat="43.4599461" lon="6.8825008"><ele></ele><time>2022-5-30T22:27:44Z</time></trkpt>
<trkpt lat="43.4599505" lon="6.8825267"><ele></ele><time>2022-5-30T22:27:47Z</time></trkpt>
<trkpt lat="43.4599525" lon="6.8825568"><ele></ele><time>2022-5-30T22:27:50Z</time></trkpt>
<trkpt lat="43.4599555" lon="6.8825827"><ele></ele><time>2022-5-30T22:27:53Z</time></trkpt>
<trkpt lat="43.4599610" lon="6.8826109"><ele></ele><time>2022-5-30T22:27:56Z</time></trkpt>
<trkpt lat="43.4599638" lon="6.8826425"><ele></ele><time>2022-5-30T22:27:59Z</time></trkpt>
<trkpt lat="43.4599587" lon="6.8826697"><ele></ele><time>2022-5-30T22:28:2Z</time></trkpt>
<trkpt lat="43.4599555" lon="6.8827011"><ele></ele><time>2022-5-30T22:28:5Z</time></trkpt>
<trkpt lat="43.4599543" lon="6.8827381"><ele></ele><time>2022-5-30T22:28:8Z</time></trkpt>
<trkpt lat="43.4599525" lon="6.8827710"><ele></ele><time>2022-5-30T22:28:11Z</time></trkpt>
<trkpt lat="43.4599460" lon="6.8827931"><ele></ele><time>2022-5-30T22:28:14Z</time></trkpt>
<trkpt lat="43.4599352" lon="6.8828146"><ele></ele><time>2022-5-30T22:28:17Z</time></trkpt>
<trkpt lat="43.4599262" lon="6.8828356"><ele></ele><time>2022-5-30T22:28:20Z</time></trkpt>
<trkpt lat="43.4599233" lon="6.8828632"><ele></ele><time>2022-5-30T22:28:23Z</time></trkpt>
<trkpt lat="43.4599236" lon="6.8828933"><ele></ele><time>2022-5-30T22:28:26Z</time></trkpt>
<trkpt lat="43.4599204" lon="6.8829320"><ele></ele><time>2022-5-30T22:28:29Z</time></trkpt>
<trkpt lat="43.4599198" lon="6.8829697"><ele></ele><time>2022-5-30T22:28:32Z</time></trkpt>
<trkpt lat="43.4599189" lon="6.8829977"><ele></ele><time>2022-5-30T22:28:35Z</time></trkpt>
<trkpt lat="43.4599099" lon="6.8830225"><ele></ele><time>2022-5-30T22:28:38Z</time></trkpt>
<trkpt lat="43.4598997" lon="6.8830546"><ele></ele><time>2022-5-30T22:28:41Z</time></trkpt>
<trkpt lat="43.4598947" lon="6.8830912"><ele></ele><time>2022-5-30T22:28:44Z</time></trkpt>
<trkpt lat="43.4598924" lon="6.8831288"><ele></ele><time>2022-5-30T22:28:47Z</time></trkpt>
<trkpt lat="43.4598855" lon="6.8831580"><ele></ele><time>2022-5-30T22:28:50Z</time></trkpt>
<trkpt lat="43.4598759" lon="6.8831886"><ele></ele><time>2022-5-30T22:28:53Z</time></trkpt>
<trkpt lat="43.4598712" lon="6.8832236"><ele></ele><time>2022-5-30T22:28:56Z</time></trkpt>
<trkpt lat="43.4598675" lon="6.8832555"><ele></ele><time>2022-5-30T22:28:59Z</time></trkpt>
<trkpt lat="43.4598613" lon="6.8832861"><ele></ele><time>2022-5-30T22:29:2Z</time></trkpt>
<trkpt lat="43.4598556" lon="6.8833130"><ele></ele><time>2022-5-30T22:29:5Z</time></trkpt>
<trkpt lat="43.4598481" lon="6.8833350"><ele></ele><time>2022-5-30T22:29:8Z</time></trkpt>
<trkpt lat="43.4598418" lon="6.8833574"><ele></ele><time>2022-5-30T22:29:11Z</time></trkpt>
<trkpt lat="43.4598356" lon="6.8833805"><ele></ele><time>2022-5-30T22:29:14Z</time></trkpt>
<trkpt lat="43.4598325" lon="6.8834020"><ele></ele><time>2022-5-30T22:29:17Z</time></trkpt>
<trkpt lat="43.4598304" lon="6.8834273"><ele></ele><time>2022-5-30T22:29:20Z</time></trkpt>
<trkpt lat="43.4598269" lon="6.8834554"><ele></ele><time>2022-5-30T22:29:23Z</time></trkpt>
<trkpt lat="43.4598232" lon="6.8834863"><ele></ele><time>2022-5-30T22:29:26Z</time></trkpt>
<trkpt lat="43.4598191" lon="6.8835176"><ele></ele><time>2022-5-30T22:29:29Z</time></trkpt>
<trkpt lat="43.4598235" lon="6.8835428"><ele></ele><time>2022-5-30T22:29:32Z</time></trkpt>
<trkpt lat="43.4598364" lon="6.8835696"><ele></ele><time>2022-5-30T22:29:35Z</time></trkpt>
<trkpt lat="43.4598516" lon="6.8835897"><ele></ele><time>2022-5-30T22:29:38Z</time></trkpt>
<trkpt lat="43.4598643" lon="6.8836107"><ele></ele><time>2022-5-30T22:29:41Z</time></trkpt>
<trkpt lat="43.4598841" lon="6.8836305"><ele></ele><time>2022-5-30T22:29:44Z</time></trkpt>
<trkpt lat="43.4599089" lon="6.8836532"><ele></ele><time>2022-5-30T22:29:47Z</time></trkpt>
<trkpt lat="43.4599307" lon="6.8836757"><ele></ele><time>2022-5-30T22:29:50Z</time></trkpt>
<trkpt lat="43.4599486" lon="6.8836953"><ele></ele><time>2022-5-30T22:29:53Z</time></trkpt>
<trkpt lat="43.4599677" lon="6.8837141"><ele></ele><time>2022-5-30T22:29:56Z</time></trkpt>
<trkpt lat="43.4599935" lon="6.8837335"><ele></ele><time>2022-5-30T22:29:59Z</time></trkpt>
<trkpt lat="43.4600268" lon="6.8837468"><ele></ele><time>2022-5-30T22:30:2Z</time></trkpt>
<trkpt lat="43.4600579" lon="6.8837674"><ele></ele><time>2022-5-30T22:30:5Z</time></trkpt>
<trkpt lat="43.4600892" lon="6.8837897"><ele></ele><time>2022-5-30T22:30:8Z</time></trkpt>
<trkpt lat="43.4601264" lon="6.8837941"><ele></ele><time>2022-5-30T22:30:11Z</time></trkpt>
<trkpt lat="43.4601618" lon="6.8837952"><ele></ele><time>2022-5-30T22:30:14Z</time></trkpt>
<trkpt lat="43.4601960" lon="6.8838056"><ele></ele><time>2022-5-30T22:30:17Z</time></trkpt>
<trkpt lat="43.4602370" lon="6.8838122"><ele></ele><time>2022-5-30T22:30:20Z</time></trkpt>
<trkpt lat="43.4602698" lon="6.8838061"><ele></ele><time>2022-5-30T22:30:23Z</time></trkpt>
<trkpt lat="43.4603028" lon="6.8837976"><ele></ele><time>2022-5-30T22:30:26Z</time></trkpt>
<trkpt lat="43.4603508" lon="6.8837974"><ele></ele><time>2022-5-30T22:30:29Z</time></trkpt>
<trkpt lat="43.4604043" lon="6.8838112"><ele></ele><time>2022-5-30T22:30:32Z</time></trkpt>
<trkpt lat="43.4604464" lon="6.8838196"><ele></ele><time>2022-5-30T22:30:35Z</time></trkpt>
<trkpt lat="43.4604789" lon="6.8838322"><ele></ele><time>2022-5-30T22:30:38Z</time></trkpt>
<trkpt lat="43.4604993" lon="6.8838599"><ele></ele><time>2022-5-30T22:30:41Z</time></trkpt>
<trkpt lat="43.4605143" lon="6.8839085"><ele></ele><time>2022-5-30T22:30:44Z</time></trkpt>
<trkpt lat="43.4605265" lon="6.8839649"><ele></ele><time>2022-5-30T22:30:47Z</time></trkpt>
<trkpt lat="43.4605480" lon="6.8840140"><ele></ele><time>2022-5-30T22:30:50Z</time></trkpt>
<trkpt lat="43.4605715" lon="6.8840608"><ele></ele><time>2022-5-30T22:30:53Z</time></trkpt>
<trkpt lat="43.4605908" lon="6.8841043"><ele></ele><time>2022-5-30T22:30:56Z</time></trkpt>
<trkpt lat="43.4606146" lon="6.8841543"><ele></ele><time>2022-5-30T22:30:59Z</time></trkpt>
<trkpt lat="43.4606421" lon="6.8841974"><ele></ele><time>2022-5-30T22:31:2Z</time></trkpt>
<trkpt lat="43.4606725" lon="6.8842406"><ele></ele><time>2022-5-30T22:31:5Z</time></trkpt>
<trkpt lat="43.4607032" lon="6.8842834"><ele></ele><time>2022-5-30T22:31:8Z</time></trkpt>
<trkpt lat="43.4607320" lon="6.8843259"><ele></ele><time>2022-5-30T22:31:11Z</time></trkpt>
<trkpt lat="43.4607616" lon="6.8843627"><ele></ele><time>2022-5-30T22:31:14Z</time></trkpt>
<trkpt lat="43.4607985" lon="6.8843843"><ele></ele><time>2022-5-30T22:31:17Z</time></trkpt>
<trkpt lat="43.4608299" lon="6.8844089"><ele></ele><time>2022-5-30T22:31:20Z</time></trkpt>
<trkpt lat="43.4608632" lon="6.8844258"><ele></ele><time>2022-5-30T22:31:23Z</time></trkpt>
<trkpt lat="43.4609051" lon="6.8844284"><ele></ele><time>2022-5-30T22:31:26Z</time></trkpt>
<trkpt lat="43.4609419" lon="6.8844044"><ele></ele><time>2022-5-30T22:31:29Z</time></trkpt>
<trkpt lat="43.4609759" lon="6.8843963"><ele></ele><time>2022-5-30T22:31:32Z</time></trkpt>
<trkpt lat="43.4610026" lon="6.8844181"><ele></ele><time>2022-5-30T22:31:35Z</time></trkpt>
<trkpt lat="43.4610263" lon="6.8844600"><ele></ele><time>2022-5-30T22:31:38Z</time></trkpt>
<trkpt lat="43.4610502" lon="6.8844937"><ele></ele><time>2022-5-30T22:31:41Z</time></trkpt>
<trkpt lat="43.4610886" lon="6.8845127"><ele></ele><time>2022-5-30T22:31:44Z</time></trkpt>
<trkpt lat="43.4611329" lon="6.8845416"><ele></ele><time>2022-5-30T22:31:47Z</time></trkpt>
<trkpt lat="43.4611755" lon="6.8845803"><ele></ele><time>2022-5-30T22:31:50Z</time></trkpt>
<trkpt lat="43.4612122" lon="6.8846308"><ele></ele><time>2022-5-30T22:31:53Z</time></trkpt>
<trkpt lat="43.4612336" lon="6.8846742"><ele></ele><time>2022-5-30T22:31:56Z</time></trkpt>
<trkpt lat="43.4612624" lon="6.8847182"><ele></ele><time>2022-5-30T22:31:59Z</time></trkpt>
<trkpt lat="43.4612988" lon="6.8847634"><ele></ele><time>2022-5-30T22:32:2Z</time></trkpt>
<trkpt lat="43.4613318" lon="6.8848117"><ele></ele><time>2022-5-30T22:32:5Z</time></trkpt>
<trkpt lat="43.4613637" lon="6.8848503"><ele></ele><time>2022-5-30T22:32:8Z</time></trkpt>
<trkpt lat="43.4613977" lon="6.8848924"><ele></ele><time>2022-5-30T22:32:11Z</time></trkpt>
<trkpt lat="43.4614367" lon="6.8849367"><ele></ele><time>2022-5-30T22:32:14Z</time></trkpt>
<trkpt lat="43.4614753" lon="6.8849662"><ele></ele><time>2022-5-30T22:32:17Z</time></trkpt>
<trkpt lat="43.4615087" lon="6.8850025"><ele></ele><time>2022-5-30T22:32:20Z</time></trkpt>
<trkpt lat="43.4615311" lon="6.8850464"><ele></ele><time>2022-5-30T22:32:23Z</time></trkpt>
<trkpt lat="43.4615652" lon="6.8850738"><ele></ele><time>2022-5-30T22:32:26Z</time></trkpt>
<trkpt lat="43.4616066" lon="6.8851009"><ele></ele><time>2022-5-30T22:32:29Z</time></trkpt>
<trkpt lat="43.4616448" lon="6.8851248"><ele></ele><time>2022-5-30T22:32:32Z</time></trkpt>
<trkpt lat="43.4616801" lon="6.8851465"><ele></ele><time>2022-5-30T22:32:35Z</time></trkpt>
<trkpt lat="43.4617159" lon="6.8851737"><ele></ele><time>2022-5-30T22:32:38Z</time></trkpt>
<trkpt lat="43.4617602" lon="6.8851973"><ele></ele><time>2022-5-30T22:32:41Z</time></trkpt>
<trkpt lat="43.4617955" lon="6.8852279"><ele></ele><time>2022-5-30T22:32:44Z</time></trkpt>
<trkpt lat="43.4618151" lon="6.8852506"><ele></ele><time>2022-5-30T22:32:47Z</time></trkpt>
<trkpt lat="43.4618271" lon="6.8852681"><ele></ele><time>2022-5-30T22:32:50Z</time></trkpt>
<trkpt lat="43.4618375" lon="6.8852819"><ele></ele><time>2022-5-30T22:32:53Z</time></trkpt>
<trkpt lat="43.4618501" lon="6.8853003"><ele></ele><time>2022-5-30T22:32:56Z</time></trkpt>
<trkpt lat="43.4618620" lon="6.8853153"><ele></ele><time>2022-5-30T22:32:59Z</time></trkpt>
<trkpt lat="43.4618752" lon="6.8853329"><ele></ele><time>2022-5-30T22:33:2Z</time></trkpt>
<trkpt lat="43.4618930" lon="6.8853556"><ele></ele><time>2022-5-30T22:33:5Z</time></trkpt>
<trkpt lat="43.4618977" lon="6.8853697"><ele></ele><time>2022-5-30T22:33:8Z</time></trkpt>
<trkpt lat="43.4618914" lon="6.8853770"><ele></ele><time>2022-5-30T22:33:11Z</time></trkpt>
<trkpt lat="43.4618895" lon="6.8853928"><ele></ele><time>2022-5-30T22:33:14Z</time></trkpt>
<trkpt lat="43.4618793" lon="6.8854138"><ele></ele><time>2022-5-30T22:33:17Z</time></trkpt>
<trkpt lat="43.4618760" lon="6.8854229"><ele></ele><time>2022-5-30T22:33:20Z</time></trkpt>
<trkpt lat="43.4618744" lon="6.8854296"><ele></ele><time>2022-5-30T22:33:23Z</time></trkpt>
<trkpt lat="43.4618743" lon="6.8854322"><ele></ele><time>2022-5-30T22:33:26Z</time></trkpt>
<trkpt lat="43.4618749" lon="6.8854319"><ele></ele><time>2022-5-30T22:33:29Z</time></trkpt>
<trkpt lat="43.4618736" lon="6.8854356"><ele></ele><time>2022-5-30T22:33:32Z</time></trkpt>
<trkpt lat="43.4618699" lon="6.8854405"><ele></ele><time>2022-5-30T22:33:35Z</time></trkpt>
<trkpt lat="43.4618677" lon="6.8854426"><ele></ele><time>2022-5-30T22:33:38Z</time></trkpt>
<trkpt lat="43.4618667" lon="6.8854425"><ele></ele><time>2022-5-30T22:33:41Z</time></trkpt>
<trkpt lat="43.4618627" lon="6.8854465"><ele></ele><time>2022-5-30T22:33:44Z</time></trkpt>
<trkpt lat="43.4618595" lon="6.8854471"><ele></ele><time>2022-5-30T22:33:47Z</time></trkpt>
<trkpt lat="43.4618586" lon="6.8854463"><ele></ele><time>2022-5-30T22:33:50Z</time></trkpt>
<trkpt lat="43.4618592" lon="6.8854437"><ele></ele><time>2022-5-30T22:33:53Z</time></trkpt>
<trkpt lat="43.4618611" lon="6.8854394"><ele></ele><time>2022-5-30T22:33:56Z</time></trkpt>
<trkpt lat="43.4618599" lon="6.8854343"><ele></ele><time>2022-5-30T22:33:59Z</time></trkpt>
<trkpt lat="43.4618625" lon="6.8854273"><ele></ele><time>2022-5-30T22:34:2Z</time></trkpt>
<trkpt lat="43.4618622" lon="6.8854270"><ele></ele><time>2022-5-30T22:34:5Z</time></trkpt>
<trkpt lat="43.4618612" lon="6.8854278"><ele></ele><time>2022-5-30T22:34:8Z</time></trkpt>
<trkpt lat="43.4618573" lon="6.8854254"><ele></ele><time>2022-5-30T22:34:11Z</time></trkpt>
<trkpt lat="43.4618459" lon="6.8854192"><ele></ele><time>2022-5-30T22:34:14Z</time></trkpt>
<trkpt lat="43.4618256" lon="6.8854095"><ele></ele><time>2022-5-30T22:34:17Z</time></trkpt>
<trkpt lat="43.4618040" lon="6.8854064"><ele></ele><time>2022-5-30T22:34:20Z</time></trkpt>
<trkpt lat="43.4617725" lon="6.8854084"><ele></ele><time>2022-5-30T22:34:23Z</time></trkpt>
<trkpt lat="43.4617430" lon="6.8854121"><ele></ele><time>2022-5-30T22:34:26Z</time></trkpt>
<trkpt lat="43.4617141" lon="6.8854126"><ele></ele><time>2022-5-30T22:34:29Z</time></trkpt>
<trkpt lat="43.4616865" lon="6.8854114"><ele></ele><time>2022-5-30T22:34:32Z</time></trkpt>
<trkpt lat="43.4616574" lon="6.8854112"><ele></ele><time>2022-5-30T22:34:35Z</time></trkpt>
<trkpt lat="43.4616318" lon="6.8854119"><ele></ele><time>2022-5-30T22:34:38Z</time></trkpt>
<trkpt lat="43.4616112" lon="6.8854105"><ele></ele><time>2022-5-30T22:34:41Z</time></trkpt>
<trkpt lat="43.4615911" lon="6.8854011"><ele></ele><time>2022-5-30T22:34:44Z</time></trkpt>
<trkpt lat="43.4615622" lon="6.8853922"><ele></ele><time>2022-5-30T22:34:47Z</time></trkpt>
<trkpt lat="43.4615372" lon="6.8853941"><ele></ele><time>2022-5-30T22:34:50Z</time></trkpt>
<trkpt lat="43.4614971" lon="6.8853973"><ele></ele><time>2022-5-30T22:34:53Z</time></trkpt>
<trkpt lat="43.4614579" lon="6.8853948"><ele></ele><time>2022-5-30T22:34:56Z</time></trkpt>
<trkpt lat="43.4614239" lon="6.8853968"><ele></ele><time>2022-5-30T22:34:59Z</time></trkpt>
<trkpt lat="43.4613983" lon="6.8853962"><ele></ele><time>2022-5-30T22:35:2Z</time></trkpt>
<trkpt lat="43.4613790" lon="6.8853822"><ele></ele><time>2022-5-30T22:35:5Z</time></trkpt>
<trkpt lat="43.4613616" lon="6.8853661"><ele></ele><time>2022-5-30T22:35:8Z</time></trkpt>
<trkpt lat="43.4613440" lon="6.8853566"><ele></ele><time>2022-5-30T22:35:11Z</time></trkpt>
<trkpt lat="43.4613281" lon="6.8853469"><ele></ele><time>2022-5-30T22:35:14Z</time></trkpt>
<trkpt lat="43.4612998" lon="6.8853352"><ele></ele><time>2022-5-30T22:35:17Z</time></trkpt>
<trkpt lat="43.4612759" lon="6.8853186"><ele></ele><time>2022-5-30T22:35:20Z</time></trkpt>
<trkpt lat="43.4612521" lon="6.8853037"><ele></ele><time>2022-5-30T22:35:23Z</time></trkpt>
<trkpt lat="43.4612278" lon="6.8852903"><ele></ele><time>2022-5-30T22:35:26Z</time></trkpt>
<trkpt lat="43.4611946" lon="6.8852887"><ele></ele><time>2022-5-30T22:35:29Z</time></trkpt>
<trkpt lat="43.4611684" lon="6.8852821"><ele></ele><time>2022-5-30T22:35:32Z</time></trkpt>
<trkpt lat="43.4611503" lon="6.8852743"><ele></ele><time>2022-5-30T22:35:35Z</time></trkpt>
<trkpt lat="43.4611245" lon="6.8852614"><ele></ele><time>2022-5-30T22:35:38Z</time></trkpt>
<trkpt lat="43.4611035" lon="6.8852478"><ele></ele><time>2022-5-30T22:35:41Z</time></trkpt>
<trkpt lat="43.4610842" lon="6.8852335"><ele></ele><time>2022-5-30T22:35:44Z</time></trkpt>
<trkpt lat="43.4610634" lon="6.8852189"><ele></ele><time>2022-5-30T22:35:47Z</time></trkpt>
<trkpt lat="43.4610431" lon="6.8852082"><ele></ele><time>2022-5-30T22:35:50Z</time></trkpt>
<trkpt lat="43.4610255" lon="6.8851999"><ele></ele><time>2022-5-30T22:35:53Z</time></trkpt>
<trkpt lat="43.4610096" lon="6.8851922"><ele></ele><time>2022-5-30T22:35:56Z</time></trkpt>
<trkpt lat="43.4609932" lon="6.8851852"><ele></ele><time>2022-5-30T22:35:59Z</time></trkpt>
<trkpt lat="43.4609727" lon="6.8851806"><ele></ele><time>2022-5-30T22:36:2Z</time></trkpt>
<trkpt lat="43.4609554" lon="6.8851771"><ele></ele><time>2022-5-30T22:36:5Z</time></trkpt>
<trkpt lat="43.4609309" lon="6.8851732"><ele></ele><time>2022-5-30T22:36:8Z</time></trkpt>
<trkpt lat="43.4609130" lon="6.8851621"><ele></ele><time>2022-5-30T22:36:11Z</time></trkpt>
<trkpt lat="43.4608897" lon="6.8851581"><ele></ele><time>2022-5-30T22:36:14Z</time></trkpt>
<trkpt lat="43.4608671" lon="6.8851573"><ele></ele><time>2022-5-30T22:36:17Z</time></trkpt>
<trkpt lat="43.4608351" lon="6.8851545"><ele></ele><time>2022-5-30T22:36:20Z</time></trkpt>
<trkpt lat="43.4608132" lon="6.8851516"><ele></ele><time>2022-5-30T22:36:23Z</time></trkpt>
<trkpt lat="43.4607883" lon="6.8851497"><ele></ele><time>2022-5-30T22:36:26Z</time></trkpt>
<trkpt lat="43.4607594" lon="6.8851482"><ele></ele><time>2022-5-30T22:36:29Z</time></trkpt>
<trkpt lat="43.4607355" lon="6.8851419"><ele></ele><time>2022-5-30T22:36:32Z</time></trkpt>
<trkpt lat="43.4607087" lon="6.8851330"><ele></ele><time>2022-5-30T22:36:35Z</time></trkpt>
<trkpt lat="43.4606811" lon="6.8851219"><ele></ele><time>2022-5-30T22:36:38Z</time></trkpt>
<trkpt lat="43.4606584" lon="6.8851122"><ele></ele><time>2022-5-30T22:36:41Z</time></trkpt>
<trkpt lat="43.4606352" lon="6.8851066"><ele></ele><time>2022-5-30T22:36:44Z</time></trkpt>
<trkpt lat="43.4606104" lon="6.8850955"><ele></ele><time>2022-5-30T22:36:47Z</time></trkpt>
<trkpt lat="43.4605915" lon="6.8850853"><ele></ele><time>2022-5-30T22:36:50Z</time></trkpt>
<trkpt lat="43.4605733" lon="6.8850746"><ele></ele><time>2022-5-30T22:36:53Z</time></trkpt>
<trkpt lat="43.4605463" lon="6.8850680"><ele></ele><time>2022-5-30T22:36:56Z</time></trkpt>
<trkpt lat="43.4605227" lon="6.8850628"><ele></ele><time>2022-5-30T22:36:59Z</time></trkpt>
<trkpt lat="43.4605019" lon="6.8850569"><ele></ele><time>2022-5-30T22:37:2Z</time></trkpt>
<trkpt lat="43.4604788" lon="6.8850521"><ele></ele><time>2022-5-30T22:37:5Z</time></trkpt>
<trkpt lat="43.4604557" lon="6.8850446"><ele></ele><time>2022-5-30T22:37:8Z</time></trkpt>
<trkpt lat="43.4604317" lon="6.8850343"><ele></ele><time>2022-5-30T22:37:11Z</time></trkpt>
<trkpt lat="43.4604046" lon="6.8850280"><ele></ele><time>2022-5-30T22:37:14Z</time></trkpt>
<trkpt lat="43.4603744" lon="6.8850212"><ele></ele><time>2022-5-30T22:37:17Z</time></trkpt>
<trkpt lat="43.4603473" lon="6.8850117"><ele></ele><time>2022-5-30T22:37:20Z</time></trkpt>
<trkpt lat="43.4603198" lon="6.8850004"><ele></ele><time>2022-5-30T22:37:23Z</time></trkpt>
<trkpt lat="43.4602954" lon="6.8849863"><ele></ele><time>2022-5-30T22:37:26Z</time></trkpt>
<trkpt lat="43.4602704" lon="6.8849669"><ele></ele><time>2022-5-30T22:37:29Z</time></trkpt>
<trkpt lat="43.4602465" lon="6.8849488"><ele></ele><time>2022-5-30T22:37:32Z</time></trkpt>
<trkpt lat="43.4602231" lon="6.8849244"><ele></ele><time>2022-5-30T22:37:35Z</time></trkpt>
<trkpt lat="43.4601976" lon="6.8849088"><ele></ele><time>2022-5-30T22:37:38Z</time></trkpt>
<trkpt lat="43.4601762" lon="6.8848871"><ele></ele><time>2022-5-30T22:37:41Z</time></trkpt>
<trkpt lat="43.4601538" lon="6.8848665"><ele></ele><time>2022-5-30T22:37:44Z</time></trkpt>
<trkpt lat="43.4601329" lon="6.8848465"><ele></ele><time>2022-5-30T22:37:47Z</time></trkpt>
<trkpt lat="43.4601137" lon="6.8848288"><ele></ele><time>2022-5-30T22:37:50Z</time></trkpt>
<trkpt lat="43.4600930" lon="6.8848088"><ele></ele><time>2022-5-30T22:37:53Z</time></trkpt>
<trkpt lat="43.4600715" lon="6.8847906"><ele></ele><time>2022-5-30T22:37:56Z</time></trkpt>
<trkpt lat="43.4600591" lon="6.8847783"><ele></ele><time>2022-5-30T22:37:59Z</time></trkpt>
<trkpt lat="43.4600516" lon="6.8847720"><ele></ele><time>2022-5-30T22:38:2Z</time></trkpt>
<trkpt lat="43.4600494" lon="6.8847712"><ele></ele><time>2022-5-30T22:38:5Z</time></trkpt>
<trkpt lat="43.4600479" lon="6.8847694"><ele></ele><time>2022-5-30T22:38:8Z</time></trkpt>
<trkpt lat="43.4600486" lon="6.8847698"><ele></ele><time>2022-5-30T22:38:11Z</time></trkpt>
<trkpt lat="43.4600479" lon="6.8847686"><ele></ele><time>2022-5-30T22:38:14Z</time></trkpt>
<trkpt lat="43.4600484" lon="6.8847684"><ele></ele><time>2022-5-30T22:38:17Z</time></trkpt>
<trkpt lat="43.4600485" lon="6.8847676"><ele></ele><time>2022-5-30T22:38:20Z</time></trkpt>
<trkpt lat="43.4600517" lon="6.8847693"><ele></ele><time>2022-5-30T22:38:23Z</time></trkpt>
<trkpt lat="43.4600526" lon="6.8847700"><ele></ele><time>2022-5-30T22:38:26Z</time></trkpt>
<trkpt lat="43.4600526" lon="6.8847693"><ele></ele><time>2022-5-30T22:38:29Z</time></trkpt>
<trkpt lat="43.4600526" lon="6.8847691"><ele></ele><time>2022-5-30T22:38:32Z</time></trkpt>
<trkpt lat="43.4600528" lon="6.8847692"><ele></ele><time>2022-5-30T22:38:35Z</time></trkpt>
<trkpt lat="43.4600529" lon="6.8847692"><ele></ele><time>2022-5-30T22:38:38Z</time></trkpt>
<trkpt lat="43.4600531" lon="6.8847692"><ele></ele><time>2022-5-30T22:38:41Z</time></trkpt>
<trkpt lat="43.4600532" lon="6.8847691"><ele></ele><time>2022-5-30T22:38:44Z</time></trkpt>
<trkpt lat="43.4600535" lon="6.8847692"><ele></ele><time>2022-5-30T22:38:47Z</time></trkpt>
<trkpt lat="43.4600537" lon="6.8847693"><ele></ele><time>2022-5-30T22:38:50Z</time></trkpt>
<trkpt lat="43.4600537" lon="6.8847693"><ele></ele><time>2022-5-30T22:38:53Z</time></trkpt>
<trkpt lat="43.4600538" lon="6.8847693"><ele></ele><time>2022-5-30T22:38:56Z</time></trkpt>
<trkpt lat="43.4600539" lon="6.8847694"><ele></ele><time>2022-5-30T22:38:59Z</time></trkpt>
<trkpt lat="43.4600540" lon="6.8847694"><ele></ele><time>2022-5-30T22:39:2Z</time></trkpt>
<trkpt lat="43.4600541" lon="6.8847694"><ele></ele><time>2022-5-30T22:39:5Z</time></trkpt>
<trkpt lat="43.4600542" lon="6.8847695"><ele></ele><time>2022-5-30T22:39:8Z</time></trkpt>
<trkpt lat="43.4600543" lon="6.8847695"><ele></ele><time>2022-5-30T22:39:11Z</time></trkpt>
<trkpt lat="43.4600543" lon="6.8847695"><ele></ele><time>2022-5-30T22:39:14Z</time></trkpt>
<trkpt lat="43.4600544" lon="6.8847695"><ele></ele><time>2022-5-30T22:39:17Z</time></trkpt>
<trkpt lat="43.4600545" lon="6.8847696"><ele></ele><time>2022-5-30T22:39:20Z</time></trkpt>
<trkpt lat="43.4600546" lon="6.8847697"><ele></ele><time>2022-5-30T22:39:23Z</time></trkpt>
<trkpt lat="43.4600547" lon="6.8847697"><ele></ele><time>2022-5-30T22:39:26Z</time></trkpt>
<trkpt lat="43.4600547" lon="6.8847698"><ele></ele><time>2022-5-30T22:39:29Z</time></trkpt>
<trkpt lat="43.4600548" lon="6.8847698"><ele></ele><time>2022-5-30T22:39:32Z</time></trkpt>
<trkpt lat="43.4600549" lon="6.8847699"><ele></ele><time>2022-5-30T22:39:35Z</time></trkpt>
<trkpt lat="43.4600548" lon="6.8847698"><ele></ele><time>2022-5-30T22:39:38Z</time></trkpt>
<trkpt lat="43.4600549" lon="6.8847698"><ele></ele><time>2022-5-30T22:39:41Z</time></trkpt>
<trkpt lat="43.4600550" lon="6.8847698"><ele></ele><time>2022-5-30T22:39:44Z</time></trkpt>
<trkpt lat="43.4600551" lon="6.8847698"><ele></ele><time>2022-5-30T22:39:47Z</time></trkpt>
<trkpt lat="43.4600552" lon="6.8847700"><ele></ele><time>2022-5-30T22:39:50Z</time></trkpt>
<trkpt lat="43.4600552" lon="6.8847700"><ele></ele><time>2022-5-30T22:39:53Z</time></trkpt>
<trkpt lat="43.4600553" lon="6.8847700"><ele></ele><time>2022-5-30T22:39:56Z</time></trkpt>
<trkpt lat="43.4600553" lon="6.8847697"><ele></ele><time>2022-5-30T22:39:59Z</time></trkpt>
<trkpt lat="43.4600553" lon="6.8847696"><ele></ele><time>2022-5-30T22:40:2Z</time></trkpt>
<trkpt lat="43.4600554" lon="6.8847696"><ele></ele><time>2022-5-30T22:40:5Z</time></trkpt>
<trkpt lat="43.4600555" lon="6.8847696"><ele></ele><time>2022-5-30T22:40:8Z</time></trkpt>
<trkpt lat="43.4600556" lon="6.8847696"><ele></ele><time>2022-5-30T22:40:11Z</time></trkpt>
<trkpt lat="43.4600557" lon="6.8847696"><ele></ele><time>2022-5-30T22:40:14Z</time></trkpt>
<trkpt lat="43.4600558" lon="6.8847696"><ele></ele><time>2022-5-30T22:40:17Z</time></trkpt>
<trkpt lat="43.4600562" lon="6.8847696"><ele></ele><time>2022-5-30T22:40:20Z</time></trkpt>
<trkpt lat="43.4600566" lon="6.8847696"><ele></ele><time>2022-5-30T22:40:23Z</time></trkpt>
<trkpt lat="43.4600568" lon="6.8847693"><ele></ele><time>2022-5-30T22:40:26Z</time></trkpt>
<trkpt lat="43.4600567" lon="6.8847686"><ele></ele><time>2022-5-30T22:40:29Z</time></trkpt>
<trkpt lat="43.4600565" lon="6.8847680"><ele></ele><time>2022-5-30T22:40:32Z</time></trkpt>
<trkpt lat="43.4600565" lon="6.8847677"><ele></ele><time>2022-5-30T22:40:35Z</time></trkpt>
<trkpt lat="43.4600564" lon="6.8847675"><ele></ele><time>2022-5-30T22:40:38Z</time></trkpt>
<trkpt lat="43.4600563" lon="6.8847672"><ele></ele><time>2022-5-30T22:40:41Z</time></trkpt>
<trkpt lat="43.4600559" lon="6.8847673"><ele></ele><time>2022-5-30T22:40:44Z</time></trkpt>
<trkpt lat="43.4600565" lon="6.8847675"><ele></ele><time>2022-5-30T22:40:47Z</time></trkpt>
<trkpt lat="43.4600564" lon="6.8847676"><ele></ele><time>2022-5-30T22:40:50Z</time></trkpt>
<trkpt lat="43.4600564" lon="6.8847676"><ele></ele><time>2022-5-30T22:40:53Z</time></trkpt>
<trkpt lat="43.4600563" lon="6.8847676"><ele></ele><time>2022-5-30T22:40:56Z</time></trkpt>
<trkpt lat="43.4600562" lon="6.8847676"><ele></ele><time>2022-5-30T22:40:59Z</time></trkpt>
<trkpt lat="43.4600562" lon="6.8847676"><ele></ele><time>2022-5-30T22:41:2Z</time></trkpt>
<trkpt lat="43.4600562" lon="6.8847675"><ele></ele><time>2022-5-30T22:41:5Z</time></trkpt>
<trkpt lat="43.4600562" lon="6.8847675"><ele></ele><time>2022-5-30T22:41:8Z</time></trkpt>
<trkpt lat="43.4600562" lon="6.8847675"><ele></ele><time>2022-5-30T22:41:11Z</time></trkpt>
<trkpt lat="43.4600562" lon="6.8847676"><ele></ele><time>2022-5-30T22:41:14Z</time></trkpt>
<trkpt lat="43.4600560" lon="6.8847675"><ele></ele><time>2022-5-30T22:41:17Z</time></trkpt>
<trkpt lat="43.4600560" lon="6.8847675"><ele></ele><time>2022-5-30T22:41:20Z</time></trkpt>
<trkpt lat="43.4600560" lon="6.8847676"><ele></ele><time>2022-5-30T22:41:23Z</time></trkpt>
<trkpt lat="43.4600561" lon="6.8847677"><ele></ele><time>2022-5-30T22:41:26Z</time></trkpt>
<trkpt lat="43.4600560" lon="6.8847677"><ele></ele><time>2022-5-30T22:41:29Z</time></trkpt>
<trkpt lat="43.4600559" lon="6.8847677"><ele></ele><time>2022-5-30T22:41:32Z</time></trkpt>
<trkpt lat="43.4600558" lon="6.8847677"><ele></ele><time>2022-5-30T22:41:35Z</time></trkpt>
<trkpt lat="43.4600559" lon="6.8847677"><ele></ele><time>2022-5-30T22:41:38Z</time></trkpt>
<trkpt lat="43.4600559" lon="6.8847677"><ele></ele><time>2022-5-30T22:41:41Z</time></trkpt>
<trkpt lat="43.4600559" lon="6.8847678"><ele></ele><time>2022-5-30T22:41:44Z</time></trkpt>
<trkpt lat="43.4600559" lon="6.8847678"><ele></ele><time>2022-5-30T22:41:47Z</time></trkpt>
<trkpt lat="43.4600558" lon="6.8847678"><ele></ele><time>2022-5-30T22:41:50Z</time></trkpt>
<trkpt lat="43.4600560" lon="6.8847679"><ele></ele><time>2022-5-30T22:41:53Z</time></trkpt>
<trkpt lat="43.4600554" lon="6.8847676"><ele></ele><time>2022-5-30T22:41:56Z</time></trkpt>
<trkpt lat="43.4600554" lon="6.8847675"><ele></ele><time>2022-5-30T22:41:59Z</time></trkpt>
<trkpt lat="43.4600555" lon="6.8847673"><ele></ele><time>2022-5-30T22:42:2Z</time></trkpt>
<trkpt lat="43.4600556" lon="6.8847672"><ele></ele><time>2022-5-30T22:42:5Z</time></trkpt>
<trkpt lat="43.4600560" lon="6.8847672"><ele></ele><time>2022-5-30T22:42:8Z</time></trkpt>
<trkpt lat="43.4600557" lon="6.8847670"><ele></ele><time>2022-5-30T22:42:11Z</time></trkpt>
<trkpt lat="43.4600557" lon="6.8847669"><ele></ele><time>2022-5-30T22:42:14Z</time></trkpt>
<trkpt lat="43.4600558" lon="6.8847669"><ele></ele><time>2022-5-30T22:42:17Z</time></trkpt>
<trkpt lat="43.4600560" lon="6.8847671"><ele></ele><time>2022-5-30T22:42:20Z</time></trkpt>
<trkpt lat="43.4600557" lon="6.8847668"><ele></ele><time>2022-5-30T22:42:23Z</time></trkpt>
<trkpt lat="43.4600556" lon="6.8847667"><ele></ele><time>2022-5-30T22:42:26Z</time></trkpt>
<trkpt lat="43.4600557" lon="6.8847667"><ele></ele><time>2022-5-30T22:42:29Z</time></trkpt>
<trkpt lat="43.4600557" lon="6.8847667"><ele></ele><time>2022-5-30T22:42:32Z</time></trkpt>
<trkpt lat="43.4600556" lon="6.8847667"><ele></ele><time>2022-5-30T22:42:35Z</time></trkpt>
<trkpt lat="43.4600557" lon="6.8847669"><ele></ele><time>2022-5-30T22:42:38Z</time></trkpt>
<trkpt lat="43.4600556" lon="6.8847670"><ele></ele><time>2022-5-30T22:42:41Z</time></trkpt>
<trkpt lat="43.4600555" lon="6.8847670"><ele></ele><time>2022-5-30T22:42:44Z</time></trkpt>
<trkpt lat="43.4600555" lon="6.8847671"><ele></ele><time>2022-5-30T22:42:47Z</time></trkpt>
<trkpt lat="43.4600554" lon="6.8847670"><ele></ele><time>2022-5-30T22:42:50Z</time></trkpt>
<trkpt lat="43.4600555" lon="6.8847671"><ele></ele><time>2022-5-30T22:42:53Z</time></trkpt>
<trkpt lat="43.4600555" lon="6.8847671"><ele></ele><time>2022-5-30T22:42:56Z</time></trkpt>
<trkpt lat="43.4600556" lon="6.8847673"><ele></ele><time>2022-5-30T22:42:59Z</time></trkpt>
<trkpt lat="43.4600557" lon="6.8847674"><ele></ele><time>2022-5-30T22:43:2Z</time></trkpt>
<trkpt lat="43.4600557" lon="6.8847674"><ele></ele><time>2022-5-30T22:43:5Z</time></trkpt>
<trkpt lat="43.4600557" lon="6.8847674"><ele></ele><time>2022-5-30T22:43:8Z</time></trkpt>
<trkpt lat="43.4600556" lon="6.8847674"><ele></ele><time>2022-5-30T22:43:11Z</time></trkpt>
<trkpt lat="43.4600557" lon="6.8847676"><ele></ele><time>2022-5-30T22:43:14Z</time></trkpt>
<trkpt lat="43.4600556" lon="6.8847677"><ele></ele><time>2022-5-30T22:43:17Z</time></trkpt>
<trkpt lat="43.4600554" lon="6.8847677"><ele></ele><time>2022-5-30T22:43:20Z</time></trkpt>
<trkpt lat="43.4600552" lon="6.8847678"><ele></ele><time>2022-5-30T22:43:23Z</time></trkpt>
<trkpt lat="43.4600551" lon="6.8847679"><ele></ele><time>2022-5-30T22:43:26Z</time></trkpt>
<trkpt lat="43.4600554" lon="6.8847683"><ele></ele><time>2022-5-30T22:43:29Z</time></trkpt>
<trkpt lat="43.4600552" lon="6.8847683"><ele></ele><time>2022-5-30T22:43:32Z</time></trkpt>
<trkpt lat="43.4600550" lon="6.8847684"><ele></ele><time>2022-5-30T22:43:35Z</time></trkpt>
<trkpt lat="43.4600548" lon="6.8847684"><ele></ele><time>2022-5-30T22:43:38Z</time></trkpt>
<trkpt lat="43.4600547" lon="6.8847685"><ele></ele><time>2022-5-30T22:43:41Z</time></trkpt>
<trkpt lat="43.4600544" lon="6.8847684"><ele></ele><time>2022-5-30T22:43:44Z</time></trkpt>
<trkpt lat="43.4600543" lon="6.8847685"><ele></ele><time>2022-5-30T22:43:47Z</time></trkpt>
<trkpt lat="43.4600540" lon="6.8847684"><ele></ele><time>2022-5-30T22:43:50Z</time></trkpt>
<trkpt lat="43.4600538" lon="6.8847685"><ele></ele><time>2022-5-30T22:43:53Z</time></trkpt>
<trkpt lat="43.4600536" lon="6.8847684"><ele></ele><time>2022-5-30T22:43:56Z</time></trkpt>
<trkpt lat="43.4600535" lon="6.8847684"><ele></ele><time>2022-5-30T22:43:59Z</time></trkpt>
<trkpt lat="43.4600533" lon="6.8847684"><ele></ele><time>2022-5-30T22:44:2Z</time></trkpt>
<trkpt lat="43.4600530" lon="6.8847683"><ele></ele><time>2022-5-30T22:44:5Z</time></trkpt>
<trkpt lat="43.4600527" lon="6.8847682"><ele></ele><time>2022-5-30T22:44:8Z</time></trkpt>
<trkpt lat="43.4600521" lon="6.8847679"><ele></ele><time>2022-5-30T22:44:11Z</time></trkpt>
<trkpt lat="43.4600518" lon="6.8847678"><ele></ele><time>2022-5-30T22:44:14Z</time></trkpt>
<trkpt lat="43.4600516" lon="6.8847675"><ele></ele><time>2022-5-30T22:44:17Z</time></trkpt>
<trkpt lat="43.4600518" lon="6.8847675"><ele></ele><time>2022-5-30T22:44:20Z</time></trkpt>
<trkpt lat="43.4600527" lon="6.8847669"><ele></ele><time>2022-5-30T22:44:23Z</time></trkpt>
<trkpt lat="43.4600581" lon="6.8847607"><ele></ele><time>2022-5-30T22:44:26Z</time></trkpt>
<trkpt lat="43.4600623" lon="6.8847527"><ele></ele><time>2022-5-30T22:44:29Z</time></trkpt>
<trkpt lat="43.4600563" lon="6.8847615"><ele></ele><time>2022-5-30T22:44:32Z</time></trkpt>
<trkpt lat="43.4600521" lon="6.8847679"><ele></ele><time>2022-5-30T22:44:35Z</time></trkpt>
<trkpt lat="43.4600481" lon="6.8847704"><ele></ele><time>2022-5-30T22:44:38Z</time></trkpt>
<trkpt lat="43.4600456" lon="6.8847706"><ele></ele><time>2022-5-30T22:44:41Z</time></trkpt>
<trkpt lat="43.4600451" lon="6.8847699"><ele></ele><time>2022-5-30T22:44:44Z</time></trkpt>
<trkpt lat="43.4600450" lon="6.8847701"><ele></ele><time>2022-5-30T22:44:47Z</time></trkpt>
<trkpt lat="43.4600453" lon="6.8847698"><ele></ele><time>2022-5-30T22:44:50Z</time></trkpt>
<trkpt lat="43.4600453" lon="6.8847698"><ele></ele><time>2022-5-30T22:44:53Z</time></trkpt>
<trkpt lat="43.4600451" lon="6.8847700"><ele></ele><time>2022-5-30T22:44:56Z</time></trkpt>
<trkpt lat="43.4600448" lon="6.8847704"><ele></ele><time>2022-5-30T22:44:59Z</time></trkpt>
<trkpt lat="43.4600446" lon="6.8847707"><ele></ele><time>2022-5-30T22:45:2Z</time></trkpt>
<trkpt lat="43.4600446" lon="6.8847713"><ele></ele><time>2022-5-30T22:45:5Z</time></trkpt>
<trkpt lat="43.4600447" lon="6.8847719"><ele></ele><time>2022-5-30T22:45:8Z</time></trkpt>
<trkpt lat="43.4600451" lon="6.8847722"><ele></ele><time>2022-5-30T22:45:11Z</time></trkpt>
<trkpt lat="43.4600453" lon="6.8847721"><ele></ele><time>2022-5-30T22:45:14Z</time></trkpt>
<trkpt lat="43.4600452" lon="6.8847718"><ele></ele><time>2022-5-30T22:45:17Z</time></trkpt>
<trkpt lat="43.4600443" lon="6.8847721"><ele></ele><time>2022-5-30T22:45:20Z</time></trkpt>
<trkpt lat="43.4600440" lon="6.8847723"><ele></ele><time>2022-5-30T22:45:23Z</time></trkpt>
<trkpt lat="43.4600439" lon="6.8847724"><ele></ele><time>2022-5-30T22:45:26Z</time></trkpt>
<trkpt lat="43.4600434" lon="6.8847728"><ele></ele><time>2022-5-30T22:45:29Z</time></trkpt>
<trkpt lat="43.4600432" lon="6.8847729"><ele></ele><time>2022-5-30T22:45:32Z</time></trkpt>
<trkpt lat="43.4600423" lon="6.8847733"><ele></ele><time>2022-5-30T22:45:35Z</time></trkpt>
<trkpt lat="43.4600411" lon="6.8847751"><ele></ele><time>2022-5-30T22:45:38Z</time></trkpt>
<trkpt lat="43.4600362" lon="6.8847778"><ele></ele><time>2022-5-30T22:45:41Z</time></trkpt>
<trkpt lat="43.4600318" lon="6.8847827"><ele></ele><time>2022-5-30T22:45:44Z</time></trkpt>
<trkpt lat="43.4600239" lon="6.8847897"><ele></ele><time>2022-5-30T22:45:47Z</time></trkpt>
<trkpt lat="43.4600219" lon="6.8847910"><ele></ele><time>2022-5-30T22:45:50Z</time></trkpt>
<trkpt lat="43.4600209" lon="6.8847918"><ele></ele><time>2022-5-30T22:45:53Z</time></trkpt>
<trkpt lat="43.4600110" lon="6.8847973"><ele></ele><time>2022-5-30T22:45:56Z</time></trkpt>
<trkpt lat="43.4599980" lon="6.8848005"><ele></ele><time>2022-5-30T22:45:59Z</time></trkpt>
<trkpt lat="43.4599893" lon="6.8848076"><ele></ele><time>2022-5-30T22:46:2Z</time></trkpt>
<trkpt lat="43.4599836" lon="6.8848220"><ele></ele><time>2022-5-30T22:46:5Z</time></trkpt>
<trkpt lat="43.4599748" lon="6.8848437"><ele></ele><time>2022-5-30T22:46:8Z</time></trkpt>
<trkpt lat="43.4599594" lon="6.8848639"><ele></ele><time>2022-5-30T22:46:11Z</time></trkpt>
<trkpt lat="43.4599421" lon="6.8848856"><ele></ele><time>2022-5-30T22:46:14Z</time></trkpt>
<trkpt lat="43.4599241" lon="6.8849062"><ele></ele><time>2022-5-30T22:46:17Z</time></trkpt>
<trkpt lat="43.4599081" lon="6.8849271"><ele></ele><time>2022-5-30T22:46:20Z</time></trkpt>
<trkpt lat="43.4598932" lon="6.8849473"><ele></ele><time>2022-5-30T22:46:23Z</time></trkpt>
<trkpt lat="43.4598775" lon="6.8849653"><ele></ele><time>2022-5-30T22:46:26Z</time></trkpt>
<trkpt lat="43.4598620" lon="6.8849807"><ele></ele><time>2022-5-30T22:46:29Z</time></trkpt>
<trkpt lat="43.4598466" lon="6.8849964"><ele></ele><time>2022-5-30T22:46:32Z</time></trkpt>
<trkpt lat="43.4598354" lon="6.8850220"><ele></ele><time>2022-5-30T22:46:35Z</time></trkpt>
<trkpt lat="43.4598301" lon="6.8850539"><ele></ele><time>2022-5-30T22:46:38Z</time></trkpt>
<trkpt lat="43.4598256" lon="6.8850851"><ele></ele><time>2022-5-30T22:46:41Z</time></trkpt>
<trkpt lat="43.4598212" lon="6.8851197"><ele></ele><time>2022-5-30T22:46:44Z</time></trkpt>
<trkpt lat="43.4598220" lon="6.8851558"><ele></ele><time>2022-5-30T22:46:47Z</time></trkpt>
<trkpt lat="43.4598258" lon="6.8851886"><ele></ele><time>2022-5-30T22:46:50Z</time></trkpt>
<trkpt lat="43.4598298" lon="6.8852248"><ele></ele><time>2022-5-30T22:46:53Z</time></trkpt>
<trkpt lat="43.4598364" lon="6.8852544"><ele></ele><time>2022-5-30T22:46:56Z</time></trkpt>
<trkpt lat="43.4598431" lon="6.8852806"><ele></ele><time>2022-5-30T22:46:59Z</time></trkpt>
<trkpt lat="43.4598501" lon="6.8853096"><ele></ele><time>2022-5-30T22:47:2Z</time></trkpt>
<trkpt lat="43.4598555" lon="6.8853422"><ele></ele><time>2022-5-30T22:47:5Z</time></trkpt>
<trkpt lat="43.4598592" lon="6.8853730"><ele></ele><time>2022-5-30T22:47:8Z</time></trkpt>
<trkpt lat="43.4598647" lon="6.8854024"><ele></ele><time>2022-5-30T22:47:11Z</time></trkpt>
<trkpt lat="43.4598667" lon="6.8854275"><ele></ele><time>2022-5-30T22:47:14Z</time></trkpt>
<trkpt lat="43.4598706" lon="6.8854583"><ele></ele><time>2022-5-30T22:47:17Z</time></trkpt>
<trkpt lat="43.4598745" lon="6.8854889"><ele></ele><time>2022-5-30T22:47:20Z</time></trkpt>
<trkpt lat="43.4598794" lon="6.8855190"><ele></ele><time>2022-5-30T22:47:23Z</time></trkpt>
<trkpt lat="43.4598845" lon="6.8855489"><ele></ele><time>2022-5-30T22:47:26Z</time></trkpt>
<trkpt lat="43.4598901" lon="6.8855790"><ele></ele><time>2022-5-30T22:47:29Z</time></trkpt>
<trkpt lat="43.4598926" lon="6.8856074"><ele></ele><time>2022-5-30T22:47:32Z</time></trkpt>
<trkpt lat="43.4598988" lon="6.8856408"><ele></ele><time>2022-5-30T22:47:35Z</time></trkpt>
<trkpt lat="43.4599075" lon="6.8856803"><ele></ele><time>2022-5-30T22:47:38Z</time></trkpt>
<trkpt lat="43.4599165" lon="6.8857197"><ele></ele><time>2022-5-30T22:47:41Z</time></trkpt>
<trkpt lat="43.4599133" lon="6.8857458"><ele></ele><time>2022-5-30T22:47:44Z</time></trkpt>
<trkpt lat="43.4599159" lon="6.8857832"><ele></ele><time>2022-5-30T22:47:47Z</time></trkpt>
<trkpt lat="43.4599214" lon="6.8858224"><ele></ele><time>2022-5-30T22:47:50Z</time></trkpt>
<trkpt lat="43.4599272" lon="6.8858602"><ele></ele><time>2022-5-30T22:47:53Z</time></trkpt>
<trkpt lat="43.4599316" lon="6.8859026"><ele></ele><time>2022-5-30T22:47:56Z</time></trkpt>
<trkpt lat="43.4599285" lon="6.8859503"><ele></ele><time>2022-5-30T22:47:59Z</time></trkpt>
<trkpt lat="43.4599217" lon="6.8860006"><ele></ele><time>2022-5-30T22:48:2Z</time></trkpt>
<trkpt lat="43.4599212" lon="6.8860580"><ele></ele><time>2022-5-30T22:48:5Z</time></trkpt>
<trkpt lat="43.4599245" lon="6.8861078"><ele></ele><time>2022-5-30T22:48:8Z</time></trkpt>
<trkpt lat="43.4599290" lon="6.8861582"><ele></ele><time>2022-5-30T22:48:11Z</time></trkpt>
<trkpt lat="43.4599489" lon="6.8862124"><ele></ele><time>2022-5-30T22:48:14Z</time></trkpt>
<trkpt lat="43.4599702" lon="6.8862630"><ele></ele><time>2022-5-30T22:48:17Z</time></trkpt>
<trkpt lat="43.4599854" lon="6.8863100"><ele></ele><time>2022-5-30T22:48:20Z</time></trkpt>
<trkpt lat="43.4600011" lon="6.8863599"><ele></ele><time>2022-5-30T22:48:23Z</time></trkpt>
<trkpt lat="43.4600150" lon="6.8864047"><ele></ele><time>2022-5-30T22:48:26Z</time></trkpt>
<trkpt lat="43.4600312" lon="6.8864688"><ele></ele><time>2022-5-30T22:48:29Z</time></trkpt>
<trkpt lat="43.4600379" lon="6.8865334"><ele></ele><time>2022-5-30T22:48:32Z</time></trkpt>
<trkpt lat="43.4600487" lon="6.8865988"><ele></ele><time>2022-5-30T22:48:35Z</time></trkpt>
<trkpt lat="43.4600660" lon="6.8866560"><ele></ele><time>2022-5-30T22:48:38Z</time></trkpt>
<trkpt lat="43.4600890" lon="6.8867066"><ele></ele><time>2022-5-30T22:48:41Z</time></trkpt>
<trkpt lat="43.4600972" lon="6.8867564"><ele></ele><time>2022-5-30T22:48:44Z</time></trkpt>
<trkpt lat="43.4600975" lon="6.8868141"><ele></ele><time>2022-5-30T22:48:47Z</time></trkpt>
<trkpt lat="43.4600991" lon="6.8868662"><ele></ele><time>2022-5-30T22:48:50Z</time></trkpt>
<trkpt lat="43.4601022" lon="6.8869163"><ele></ele><time>2022-5-30T22:48:53Z</time></trkpt>
<trkpt lat="43.4601128" lon="6.8869627"><ele></ele><time>2022-5-30T22:48:56Z</time></trkpt>
<trkpt lat="43.4601084" lon="6.8870046"><ele></ele><time>2022-5-30T22:48:59Z</time></trkpt>
<trkpt lat="43.4601064" lon="6.8870444"><ele></ele><time>2022-5-30T22:49:2Z</time></trkpt>
<trkpt lat="43.4601105" lon="6.8870783"><ele></ele><time>2022-5-30T22:49:5Z</time></trkpt>
<trkpt lat="43.4601161" lon="6.8871266"><ele></ele><time>2022-5-30T22:49:8Z</time></trkpt>
<trkpt lat="43.4601152" lon="6.8871762"><ele></ele><time>2022-5-30T22:49:11Z</time></trkpt>
<trkpt lat="43.4601207" lon="6.8872322"><ele></ele><time>2022-5-30T22:49:14Z</time></trkpt>
<trkpt lat="43.4601294" lon="6.8872846"><ele></ele><time>2022-5-30T22:49:17Z</time></trkpt>
<trkpt lat="43.4601419" lon="6.8873360"><ele></ele><time>2022-5-30T22:49:20Z</time></trkpt>
<trkpt lat="43.4601514" lon="6.8873846"><ele></ele><time>2022-5-30T22:49:23Z</time></trkpt>
<trkpt lat="43.4601453" lon="6.8874317"><ele></ele><time>2022-5-30T22:49:26Z</time></trkpt>
<trkpt lat="43.4601350" lon="6.8874812"><ele></ele><time>2022-5-30T22:49:29Z</time></trkpt>
<trkpt lat="43.4601290" lon="6.8875327"><ele></ele><time>2022-5-30T22:49:32Z</time></trkpt>
<trkpt lat="43.4601263" lon="6.8875805"><ele></ele><time>2022-5-30T22:49:35Z</time></trkpt>
<trkpt lat="43.4601410" lon="6.8876298"><ele></ele><time>2022-5-30T22:49:38Z</time></trkpt>
<trkpt lat="43.4601488" lon="6.8876857"><ele></ele><time>2022-5-30T22:49:41Z</time></trkpt>
<trkpt lat="43.4601485" lon="6.8877446"><ele></ele><time>2022-5-30T22:49:44Z</time></trkpt>
<trkpt lat="43.4601458" lon="6.8878017"><ele></ele><time>2022-5-30T22:49:47Z</time></trkpt>
<trkpt lat="43.4601439" lon="6.8878537"><ele></ele><time>2022-5-30T22:49:50Z</time></trkpt>
<trkpt lat="43.4601431" lon="6.8879044"><ele></ele><time>2022-5-30T22:49:53Z</time></trkpt>
<trkpt lat="43.4601536" lon="6.8879544"><ele></ele><time>2022-5-30T22:49:56Z</time></trkpt>
<trkpt lat="43.4601709" lon="6.8880060"><ele></ele><time>2022-5-30T22:49:59Z</time></trkpt>
<trkpt lat="43.4601892" lon="6.8880557"><ele></ele><time>2022-5-30T22:50:2Z</time></trkpt>
<trkpt lat="43.4606871" lon="6.8891506"><ele></ele><time>2022-5-30T22:50:5Z</time></trkpt>
<trkpt lat="43.4607003" lon="6.8891945"><ele></ele><time>2022-5-30T22:50:8Z</time></trkpt>
<trkpt lat="43.4607129" lon="6.8892406"><ele></ele><time>2022-5-30T22:50:11Z</time></trkpt>
<trkpt lat="43.4607249" lon="6.8892886"><ele></ele><time>2022-5-30T22:50:14Z</time></trkpt>
<trkpt lat="43.4607244" lon="6.8893385"><ele></ele><time>2022-5-30T22:50:17Z</time></trkpt>
<trkpt lat="43.4607218" lon="6.8893892"><ele></ele><time>2022-5-30T22:50:20Z</time></trkpt>
<trkpt lat="43.4607248" lon="6.8894362"><ele></ele><time>2022-5-30T22:50:23Z</time></trkpt>
<trkpt lat="43.4607316" lon="6.8894832"><ele></ele><time>2022-5-30T22:50:26Z</time></trkpt>
<trkpt lat="43.4607379" lon="6.8895284"><ele></ele><time>2022-5-30T22:50:29Z</time></trkpt>
<trkpt lat="43.4607394" lon="6.8895709"><ele></ele><time>2022-5-30T22:50:32Z</time></trkpt>
<trkpt lat="43.4607423" lon="6.8896112"><ele></ele><time>2022-5-30T22:50:35Z</time></trkpt>
<trkpt lat="43.4607501" lon="6.8896520"><ele></ele><time>2022-5-30T22:50:38Z</time></trkpt>
<trkpt lat="43.4607563" lon="6.8896937"><ele></ele><time>2022-5-30T22:50:41Z</time></trkpt>
<trkpt lat="43.4607664" lon="6.8897366"><ele></ele><time>2022-5-30T22:50:44Z</time></trkpt>
<trkpt lat="43.4607747" lon="6.8897783"><ele></ele><time>2022-5-30T22:50:47Z</time></trkpt>
<trkpt lat="43.4607823" lon="6.8898191"><ele></ele><time>2022-5-30T22:50:50Z</time></trkpt>
<trkpt lat="43.4607921" lon="6.8898604"><ele></ele><time>2022-5-30T22:50:53Z</time></trkpt>
<trkpt lat="43.4608034" lon="6.8899046"><ele></ele><time>2022-5-30T22:50:56Z</time></trkpt>
<trkpt lat="43.4608161" lon="6.8899482"><ele></ele><time>2022-5-30T22:50:59Z</time></trkpt>
<trkpt lat="43.4608299" lon="6.8899907"><ele></ele><time>2022-5-30T22:51:2Z</time></trkpt>
<trkpt lat="43.4608422" lon="6.8900316"><ele></ele><time>2022-5-30T22:51:5Z</time></trkpt>
<trkpt lat="43.4608554" lon="6.8900709"><ele></ele><time>2022-5-30T22:51:8Z</time></trkpt>
<trkpt lat="43.4608723" lon="6.8901065"><ele></ele><time>2022-5-30T22:51:11Z</time></trkpt>
<trkpt lat="43.4608881" lon="6.8901416"><ele></ele><time>2022-5-30T22:51:14Z</time></trkpt>
<trkpt lat="43.4609022" lon="6.8901782"><ele></ele><time>2022-5-30T22:51:17Z</time></trkpt>
<trkpt lat="43.4609130" lon="6.8902157"><ele></ele><time>2022-5-30T22:51:20Z</time></trkpt>
<trkpt lat="43.4609247" lon="6.8902534"><ele></ele><time>2022-5-30T22:51:23Z</time></trkpt>
<trkpt lat="43.4609356" lon="6.8902893"><ele></ele><time>2022-5-30T22:51:26Z</time></trkpt>
<trkpt lat="43.4609496" lon="6.8903270"><ele></ele><time>2022-5-30T22:51:29Z</time></trkpt>
<trkpt lat="43.4609676" lon="6.8903587"><ele></ele><time>2022-5-30T22:51:32Z</time></trkpt>
<trkpt lat="43.4609901" lon="6.8903829"><ele></ele><time>2022-5-30T22:51:35Z</time></trkpt>
<trkpt lat="43.4610122" lon="6.8904067"><ele></ele><time>2022-5-30T22:51:38Z</time></trkpt>
<trkpt lat="43.4610340" lon="6.8904335"><ele></ele><time>2022-5-30T22:51:41Z</time></trkpt>
<trkpt lat="43.4610582" lon="6.8904576"><ele></ele><time>2022-5-30T22:51:44Z</time></trkpt>
<trkpt lat="43.4610805" lon="6.8904762"><ele></ele><time>2022-5-30T22:51:47Z</time></trkpt>
<trkpt lat="43.4611034" lon="6.8904915"><ele></ele><time>2022-5-30T22:51:50Z</time></trkpt>
<trkpt lat="43.4611215" lon="6.8905050"><ele></ele><time>2022-5-30T22:51:53Z</time></trkpt>
<trkpt lat="43.4611404" lon="6.8905215"><ele></ele><time>2022-5-30T22:51:56Z</time></trkpt>
<trkpt lat="43.4611565" lon="6.8905472"><ele></ele><time>2022-5-30T22:51:59Z</time></trkpt>
<trkpt lat="43.4611674" lon="6.8905854"><ele></ele><time>2022-5-30T22:52:2Z</time></trkpt>
<trkpt lat="43.4611691" lon="6.8906252"><ele></ele><time>2022-5-30T22:52:5Z</time></trkpt>
<trkpt lat="43.4611600" lon="6.8906587"><ele></ele><time>2022-5-30T22:52:8Z</time></trkpt>
<trkpt lat="43.4611415" lon="6.8906873"><ele></ele><time>2022-5-30T22:52:11Z</time></trkpt>
<trkpt lat="43.4611231" lon="6.8907077"><ele></ele><time>2022-5-30T22:52:14Z</time></trkpt>
<trkpt lat="43.4610978" lon="6.8907347"><ele></ele><time>2022-5-30T22:52:17Z</time></trkpt>
<trkpt lat="43.4610759" lon="6.8907617"><ele></ele><time>2022-5-30T22:52:20Z</time></trkpt>
<trkpt lat="43.4610582" lon="6.8907941"><ele></ele><time>2022-5-30T22:52:23Z</time></trkpt>
<trkpt lat="43.4610403" lon="6.8908299"><ele></ele><time>2022-5-30T22:52:26Z</time></trkpt>
<trkpt lat="43.4610280" lon="6.8908695"><ele></ele><time>2022-5-30T22:52:29Z</time></trkpt>
<trkpt lat="43.4610213" lon="6.8909110"><ele></ele><time>2022-5-30T22:52:32Z</time></trkpt>
<trkpt lat="43.4610110" lon="6.8909521"><ele></ele><time>2022-5-30T22:52:35Z</time></trkpt>
<trkpt lat="43.4610002" lon="6.8910036"><ele></ele><time>2022-5-30T22:52:38Z</time></trkpt>
<trkpt lat="43.4609910" lon="6.8910577"><ele></ele><time>2022-5-30T22:52:41Z</time></trkpt>
<trkpt lat="43.4609819" lon="6.8911029"><ele></ele><time>2022-5-30T22:52:44Z</time></trkpt>
<trkpt lat="43.4609714" lon="6.8911495"><ele></ele><time>2022-5-30T22:52:47Z</time></trkpt>
<trkpt lat="43.4609612" lon="6.8912026"><ele></ele><time>2022-5-30T22:52:50Z</time></trkpt>
<trkpt lat="43.4609493" lon="6.8912600"><ele></ele><time>2022-5-30T22:52:53Z</time></trkpt>
<trkpt lat="43.4609383" lon="6.8913133"><ele></ele><time>2022-5-30T22:52:56Z</time></trkpt>
<trkpt lat="43.4609276" lon="6.8913647"><ele></ele><time>2022-5-30T22:52:59Z</time></trkpt>
<trkpt lat="43.4609178" lon="6.8914158"><ele></ele><time>2022-5-30T22:53:2Z</time></trkpt>
<trkpt lat="43.4609074" lon="6.8914652"><ele></ele><time>2022-5-30T22:53:5Z</time></trkpt>
<trkpt lat="43.4608958" lon="6.8915167"><ele></ele><time>2022-5-30T22:53:8Z</time></trkpt>
<trkpt lat="43.4608896" lon="6.8915690"><ele></ele><time>2022-5-30T22:53:11Z</time></trkpt>
<trkpt lat="43.4608863" lon="6.8916147"><ele></ele><time>2022-5-30T22:53:14Z</time></trkpt>
<trkpt lat="43.4608815" lon="6.8916622"><ele></ele><time>2022-5-30T22:53:17Z</time></trkpt>
<trkpt lat="43.4608741" lon="6.8917102"><ele></ele><time>2022-5-30T22:53:20Z</time></trkpt>
<trkpt lat="43.4608676" lon="6.8917611"><ele></ele><time>2022-5-30T22:53:23Z</time></trkpt>
<trkpt lat="43.4608628" lon="6.8918062"><ele></ele><time>2022-5-30T22:53:26Z</time></trkpt>
<trkpt lat="43.4608627" lon="6.8918477"><ele></ele><time>2022-5-30T22:53:29Z</time></trkpt>
<trkpt lat="43.4608695" lon="6.8918920"><ele></ele><time>2022-5-30T22:53:32Z</time></trkpt>
<trkpt lat="43.4608786" lon="6.8919406"><ele></ele><time>2022-5-30T22:53:35Z</time></trkpt>
<trkpt lat="43.4608858" lon="6.8919915"><ele></ele><time>2022-5-30T22:53:38Z</time></trkpt>
<trkpt lat="43.4608907" lon="6.8920429"><ele></ele><time>2022-5-30T22:53:41Z</time></trkpt>
<trkpt lat="43.4608917" lon="6.8920937"><ele></ele><time>2022-5-30T22:53:44Z</time></trkpt>
<trkpt lat="43.4608896" lon="6.8921365"><ele></ele><time>2022-5-30T22:53:47Z</time></trkpt>
<trkpt lat="43.4608763" lon="6.8921756"><ele></ele><time>2022-5-30T22:53:50Z</time></trkpt>
<trkpt lat="43.4608698" lon="6.8922180"><ele></ele><time>2022-5-30T22:53:53Z</time></trkpt>
<trkpt lat="43.4608582" lon="6.8922628"><ele></ele><time>2022-5-30T22:53:56Z</time></trkpt>
<trkpt lat="43.4608473" lon="6.8923018"><ele></ele><time>2022-5-30T22:53:59Z</time></trkpt>
<trkpt lat="43.4608379" lon="6.8923409"><ele></ele><time>2022-5-30T22:54:2Z</time></trkpt>
<trkpt lat="43.4608331" lon="6.8923789"><ele></ele><time>2022-5-30T22:54:5Z</time></trkpt>
<trkpt lat="43.4608245" lon="6.8924048"><ele></ele><time>2022-5-30T22:54:8Z</time></trkpt>
<trkpt lat="43.4608226" lon="6.8924176"><ele></ele><time>2022-5-30T22:54:11Z</time></trkpt>
<trkpt lat="43.4608235" lon="6.8924144"><ele></ele><time>2022-5-30T22:54:14Z</time></trkpt>
<trkpt lat="43.4608229" lon="6.8924196"><ele></ele><time>2022-5-30T22:54:17Z</time></trkpt>
<trkpt lat="43.4608188" lon="6.8924248"><ele></ele><time>2022-5-30T22:54:20Z</time></trkpt>
<trkpt lat="43.4608155" lon="6.8924296"><ele></ele><time>2022-5-30T22:54:23Z</time></trkpt>
<trkpt lat="43.4608085" lon="6.8924363"><ele></ele><time>2022-5-30T22:54:26Z</time></trkpt>
<trkpt lat="43.4608058" lon="6.8924381"><ele></ele><time>2022-5-30T22:54:29Z</time></trkpt>
<trkpt lat="43.4608055" lon="6.8924383"><ele></ele><time>2022-5-30T22:54:32Z</time></trkpt>
<trkpt lat="43.4608058" lon="6.8924386"><ele></ele><time>2022-5-30T22:54:35Z</time></trkpt>
<trkpt lat="43.4608067" lon="6.8924377"><ele></ele><time>2022-5-30T22:54:38Z</time></trkpt>
<trkpt lat="43.4608085" lon="6.8924346"><ele></ele><time>2022-5-30T22:54:41Z</time></trkpt>
<trkpt lat="43.4608082" lon="6.8924345"><ele></ele><time>2022-5-30T22:54:44Z</time></trkpt>
<trkpt lat="43.4608077" lon="6.8924350"><ele></ele><time>2022-5-30T22:54:47Z</time></trkpt>
<trkpt lat="43.4608074" lon="6.8924346"><ele></ele><time>2022-5-30T22:54:50Z</time></trkpt>
<trkpt lat="43.4608062" lon="6.8924346"><ele></ele><time>2022-5-30T22:54:53Z</time></trkpt>
<trkpt lat="43.4608047" lon="6.8924344"><ele></ele><time>2022-5-30T22:54:56Z</time></trkpt>
<trkpt lat="43.4608047" lon="6.8924340"><ele></ele><time>2022-5-30T22:54:59Z</time></trkpt>
<trkpt lat="43.4608045" lon="6.8924338"><ele></ele><time>2022-5-30T22:55:2Z</time></trkpt>
<trkpt lat="43.4608048" lon="6.8924332"><ele></ele><time>2022-5-30T22:55:5Z</time></trkpt>
<trkpt lat="43.4608043" lon="6.8924336"><ele></ele><time>2022-5-30T22:55:8Z</time></trkpt>
<trkpt lat="43.4608033" lon="6.8924351"><ele></ele><time>2022-5-30T22:55:11Z</time></trkpt>
<trkpt lat="43.4608025" lon="6.8924370"><ele></ele><time>2022-5-30T22:55:14Z</time></trkpt>
<trkpt lat="43.4608014" lon="6.8924400"><ele></ele><time>2022-5-30T22:55:17Z</time></trkpt>
<trkpt lat="43.4608001" lon="6.8924416"><ele></ele><time>2022-5-30T22:55:20Z</time></trkpt>
<trkpt lat="43.4608002" lon="6.8924418"><ele></ele><time>2022-5-30T22:55:23Z</time></trkpt>
<trkpt lat="43.4607994" lon="6.8924429"><ele></ele><time>2022-5-30T22:55:26Z</time></trkpt>
<trkpt lat="43.4607992" lon="6.8924430"><ele></ele><time>2022-5-30T22:55:29Z</time></trkpt>
<trkpt lat="43.4607984" lon="6.8924444"><ele></ele><time>2022-5-30T22:55:32Z</time></trkpt>
<trkpt lat="43.4607983" lon="6.8924458"><ele></ele><time>2022-5-30T22:55:35Z</time></trkpt>
<trkpt lat="43.4607968" lon="6.8924470"><ele></ele><time>2022-5-30T22:55:38Z</time></trkpt>
<trkpt lat="43.4607966" lon="6.8924468"><ele></ele><time>2022-5-30T22:55:41Z</time></trkpt>
<trkpt lat="43.4607963" lon="6.8924468"><ele></ele><time>2022-5-30T22:55:44Z</time></trkpt>
<trkpt lat="43.4607960" lon="6.8924457"><ele></ele><time>2022-5-30T22:55:47Z</time></trkpt>
<trkpt lat="43.4607973" lon="6.8924432"><ele></ele><time>2022-5-30T22:55:50Z</time></trkpt>
<trkpt lat="43.4607998" lon="6.8924382"><ele></ele><time>2022-5-30T22:55:53Z</time></trkpt>
<trkpt lat="43.4608003" lon="6.8924351"><ele></ele><time>2022-5-30T22:55:56Z</time></trkpt>
<trkpt lat="43.4608014" lon="6.8924317"><ele></ele><time>2022-5-30T22:55:59Z</time></trkpt>
<trkpt lat="43.4608024" lon="6.8924286"><ele></ele><time>2022-5-30T22:56:2Z</time></trkpt>
<trkpt lat="43.4608020" lon="6.8924282"><ele></ele><time>2022-5-30T22:56:5Z</time></trkpt>
<trkpt lat="43.4608021" lon="6.8924281"><ele></ele><time>2022-5-30T22:56:8Z</time></trkpt>
<trkpt lat="43.4608017" lon="6.8924283"><ele></ele><time>2022-5-30T22:56:11Z</time></trkpt>
<trkpt lat="43.4608024" lon="6.8924274"><ele></ele><time>2022-5-30T22:56:14Z</time></trkpt>
<trkpt lat="43.4608028" lon="6.8924269"><ele></ele><time>2022-5-30T22:56:17Z</time></trkpt>
<trkpt lat="43.4608034" lon="6.8924262"><ele></ele><time>2022-5-30T22:56:20Z</time></trkpt>
<trkpt lat="43.4608043" lon="6.8924250"><ele></ele><time>2022-5-30T22:56:23Z</time></trkpt>
<trkpt lat="43.4608047" lon="6.8924244"><ele></ele><time>2022-5-30T22:56:26Z</time></trkpt>
<trkpt lat="43.4608056" lon="6.8924224"><ele></ele><time>2022-5-30T22:56:29Z</time></trkpt>
<trkpt lat="43.4608061" lon="6.8924219"><ele></ele><time>2022-5-30T22:56:32Z</time></trkpt>
<trkpt lat="43.4608067" lon="6.8924213"><ele></ele><time>2022-5-30T22:56:35Z</time></trkpt>
<trkpt lat="43.4608075" lon="6.8924205"><ele></ele><time>2022-5-30T22:56:38Z</time></trkpt>
<trkpt lat="43.4608077" lon="6.8924205"><ele></ele><time>2022-5-30T22:56:41Z</time></trkpt>
<trkpt lat="43.4608076" lon="6.8924208"><ele></ele><time>2022-5-30T22:56:44Z</time></trkpt>
<trkpt lat="43.4608079" lon="6.8924204"><ele></ele><time>2022-5-30T22:56:47Z</time></trkpt>
<trkpt lat="43.4608085" lon="6.8924198"><ele></ele><time>2022-5-30T22:56:50Z</time></trkpt>
<trkpt lat="43.4608099" lon="6.8924193"><ele></ele><time>2022-5-30T22:56:53Z</time></trkpt>
<trkpt lat="43.4608112" lon="6.8924183"><ele></ele><time>2022-5-30T22:56:56Z</time></trkpt>
<trkpt lat="43.4608118" lon="6.8924174"><ele></ele><time>2022-5-30T22:56:59Z</time></trkpt>
<trkpt lat="43.4608124" lon="6.8924168"><ele></ele><time>2022-5-30T22:57:2Z</time></trkpt>
<trkpt lat="43.4608134" lon="6.8924155"><ele></ele><time>2022-5-30T22:57:5Z</time></trkpt>
<trkpt lat="43.4608136" lon="6.8924153"><ele></ele><time>2022-5-30T22:57:8Z</time></trkpt>
<trkpt lat="43.4608137" lon="6.8924153"><ele></ele><time>2022-5-30T22:57:11Z</time></trkpt>
<trkpt lat="43.4608138" lon="6.8924153"><ele></ele><time>2022-5-30T22:57:14Z</time></trkpt>
<trkpt lat="43.4608139" lon="6.8924154"><ele></ele><time>2022-5-30T22:57:17Z</time></trkpt>
<trkpt lat="43.4608140" lon="6.8924157"><ele></ele><time>2022-5-30T22:57:20Z</time></trkpt>
<trkpt lat="43.4608141" lon="6.8924159"><ele></ele><time>2022-5-30T22:57:23Z</time></trkpt>
<trkpt lat="43.4608142" lon="6.8924162"><ele></ele><time>2022-5-30T22:57:26Z</time></trkpt>
<trkpt lat="43.4608145" lon="6.8924167"><ele></ele><time>2022-5-30T22:57:29Z</time></trkpt>
<trkpt lat="43.4608147" lon="6.8924171"><ele></ele><time>2022-5-30T22:57:32Z</time></trkpt>
<trkpt lat="43.4608148" lon="6.8924175"><ele></ele><time>2022-5-30T22:57:35Z</time></trkpt>
<trkpt lat="43.4608151" lon="6.8924185"><ele></ele><time>2022-5-30T22:57:38Z</time></trkpt>
<trkpt lat="43.4608153" lon="6.8924187"><ele></ele><time>2022-5-30T22:57:41Z</time></trkpt>
<trkpt lat="43.4608155" lon="6.8924188"><ele></ele><time>2022-5-30T22:57:44Z</time></trkpt>
<trkpt lat="43.4608158" lon="6.8924189"><ele></ele><time>2022-5-30T22:57:47Z</time></trkpt>
<trkpt lat="43.4608158" lon="6.8924189"><ele></ele><time>2022-5-30T22:57:50Z</time></trkpt>
<trkpt lat="43.4608159" lon="6.8924189"><ele></ele><time>2022-5-30T22:57:53Z</time></trkpt>
<trkpt lat="43.4608160" lon="6.8924189"><ele></ele><time>2022-5-30T22:57:56Z</time></trkpt>
<trkpt lat="43.4608161" lon="6.8924189"><ele></ele><time>2022-5-30T22:57:59Z</time></trkpt>
<trkpt lat="43.4608161" lon="6.8924189"><ele></ele><time>2022-5-30T22:58:2Z</time></trkpt>
<trkpt lat="43.4608165" lon="6.8924188"><ele></ele><time>2022-5-30T22:58:5Z</time></trkpt>
<trkpt lat="43.4608168" lon="6.8924188"><ele></ele><time>2022-5-30T22:58:8Z</time></trkpt>
<trkpt lat="43.4608170" lon="6.8924186"><ele></ele><time>2022-5-30T22:58:11Z</time></trkpt>
<trkpt lat="43.4608173" lon="6.8924189"><ele></ele><time>2022-5-30T22:58:14Z</time></trkpt>
<trkpt lat="43.4608181" lon="6.8924183"><ele></ele><time>2022-5-30T22:58:17Z</time></trkpt>
<trkpt lat="43.4608185" lon="6.8924178"><ele></ele><time>2022-5-30T22:58:20Z</time></trkpt>
<trkpt lat="43.4608194" lon="6.8924191"><ele></ele><time>2022-5-30T22:58:23Z</time></trkpt>
<trkpt lat="43.4608196" lon="6.8924191"><ele></ele><time>2022-5-30T22:58:26Z</time></trkpt>
<trkpt lat="43.4608193" lon="6.8924201"><ele></ele><time>2022-5-30T22:58:29Z</time></trkpt>
<trkpt lat="43.4608197" lon="6.8924203"><ele></ele><time>2022-5-30T22:58:32Z</time></trkpt>
<trkpt lat="43.4608198" lon="6.8924206"><ele></ele><time>2022-5-30T22:58:35Z</time></trkpt>
<trkpt lat="43.4608200" lon="6.8924207"><ele></ele><time>2022-5-30T22:58:38Z</time></trkpt>
<trkpt lat="43.4608202" lon="6.8924208"><ele></ele><time>2022-5-30T22:58:41Z</time></trkpt>
<trkpt lat="43.4608204" lon="6.8924209"><ele></ele><time>2022-5-30T22:58:44Z</time></trkpt>
<trkpt lat="43.4608207" lon="6.8924209"><ele></ele><time>2022-5-30T22:58:47Z</time></trkpt>
<trkpt lat="43.4608208" lon="6.8924210"><ele></ele><time>2022-5-30T22:58:50Z</time></trkpt>
<trkpt lat="43.4608212" lon="6.8924210"><ele></ele><time>2022-5-30T22:58:53Z</time></trkpt>
<trkpt lat="43.4608216" lon="6.8924208"><ele></ele><time>2022-5-30T22:58:56Z</time></trkpt>
<trkpt lat="43.4608217" lon="6.8924210"><ele></ele><time>2022-5-30T22:58:59Z</time></trkpt>
<trkpt lat="43.4608213" lon="6.8924224"><ele></ele><time>2022-5-30T22:59:2Z</time></trkpt>
<trkpt lat="43.4608210" lon="6.8924235"><ele></ele><time>2022-5-30T22:59:5Z</time></trkpt>
<trkpt lat="43.4608209" lon="6.8924237"><ele></ele><time>2022-5-30T22:59:8Z</time></trkpt>
<trkpt lat="43.4608209" lon="6.8924241"><ele></ele><time>2022-5-30T22:59:11Z</time></trkpt>
<trkpt lat="43.4608210" lon="6.8924243"><ele></ele><time>2022-5-30T22:59:14Z</time></trkpt>
<trkpt lat="43.4608211" lon="6.8924247"><ele></ele><time>2022-5-30T22:59:17Z</time></trkpt>
<trkpt lat="43.4608214" lon="6.8924248"><ele></ele><time>2022-5-30T22:59:20Z</time></trkpt>
<trkpt lat="43.4608219" lon="6.8924248"><ele></ele><time>2022-5-30T22:59:23Z</time></trkpt>
<trkpt lat="43.4608219" lon="6.8924250"><ele></ele><time>2022-5-30T22:59:26Z</time></trkpt>
<trkpt lat="43.4608219" lon="6.8924252"><ele></ele><time>2022-5-30T22:59:29Z</time></trkpt>
<trkpt lat="43.4608216" lon="6.8924259"><ele></ele><time>2022-5-30T22:59:32Z</time></trkpt>
<trkpt lat="43.4608219" lon="6.8924263"><ele></ele><time>2022-5-30T22:59:35Z</time></trkpt>
<trkpt lat="43.4608222" lon="6.8924262"><ele></ele><time>2022-5-30T22:59:38Z</time></trkpt>
<trkpt lat="43.4608223" lon="6.8924263"><ele></ele><time>2022-5-30T22:59:41Z</time></trkpt>
<trkpt lat="43.4608227" lon="6.8924262"><ele></ele><time>2022-5-30T22:59:44Z</time></trkpt>
<trkpt lat="43.4608228" lon="6.8924262"><ele></ele><time>2022-5-30T22:59:47Z</time></trkpt>
<trkpt lat="43.4608226" lon="6.8924263"><ele></ele><time>2022-5-30T22:59:50Z</time></trkpt>
<trkpt lat="43.4608227" lon="6.8924263"><ele></ele><time>2022-5-30T22:59:53Z</time></trkpt>
<trkpt lat="43.4608231" lon="6.8924261"><ele></ele><time>2022-5-30T22:59:56Z</time></trkpt>
<trkpt lat="43.4608232" lon="6.8924262"><ele></ele><time>2022-5-30T22:59:59Z</time></trkpt>
<trkpt lat="43.4608231" lon="6.8924263"><ele></ele><time>2022-5-30T23:0:2Z</time></trkpt>
<trkpt lat="43.4608232" lon="6.8924264"><ele></ele><time>2022-5-30T23:0:5Z</time></trkpt>
<trkpt lat="43.4608233" lon="6.8924260"><ele></ele><time>2022-5-30T23:0:8Z</time></trkpt>
<trkpt lat="43.4608235" lon="6.8924257"><ele></ele><time>2022-5-30T23:0:11Z</time></trkpt>
<trkpt lat="43.4608239" lon="6.8924252"><ele></ele><time>2022-5-30T23:0:14Z</time></trkpt>
<trkpt lat="43.4608241" lon="6.8924249"><ele></ele><time>2022-5-30T23:0:17Z</time></trkpt>
<trkpt lat="43.4608243" lon="6.8924253"><ele></ele><time>2022-5-30T23:0:20Z</time></trkpt>
<trkpt lat="43.4608244" lon="6.8924268"><ele></ele><time>2022-5-30T23:0:23Z</time></trkpt>
<trkpt lat="43.4608244" lon="6.8924269"><ele></ele><time>2022-5-30T23:0:26Z</time></trkpt>
<trkpt lat="43.4608239" lon="6.8924281"><ele></ele><time>2022-5-30T23:0:29Z</time></trkpt>
<trkpt lat="43.4608238" lon="6.8924277"><ele></ele><time>2022-5-30T23:0:32Z</time></trkpt>
<trkpt lat="43.4608253" lon="6.8924290"><ele></ele><time>2022-5-30T23:0:35Z</time></trkpt>
<trkpt lat="43.4608306" lon="6.8924460"><ele></ele><time>2022-5-30T23:0:38Z</time></trkpt>
<trkpt lat="43.4608387" lon="6.8924592"><ele></ele><time>2022-5-30T23:0:41Z</time></trkpt>
<trkpt lat="43.4608472" lon="6.8924812"><ele></ele><time>2022-5-30T23:0:44Z</time></trkpt>
<trkpt lat="43.4608617" lon="6.8925022"><ele></ele><time>2022-5-30T23:0:47Z</time></trkpt>
<trkpt lat="43.4608806" lon="6.8925206"><ele></ele><time>2022-5-30T23:0:50Z</time></trkpt>
<trkpt lat="43.4609035" lon="6.8925416"><ele></ele><time>2022-5-30T23:0:53Z</time></trkpt>
<trkpt lat="43.4609253" lon="6.8925664"><ele></ele><time>2022-5-30T23:0:56Z</time></trkpt>
<trkpt lat="43.4609459" lon="6.8925930"><ele></ele><time>2022-5-30T23:0:59Z</time></trkpt>
<trkpt lat="43.4609662" lon="6.8926148"><ele></ele><time>2022-5-30T23:1:2Z</time></trkpt>
<trkpt lat="43.4609892" lon="6.8926337"><ele></ele><time>2022-5-30T23:1:5Z</time></trkpt>
<trkpt lat="43.4610148" lon="6.8926520"><ele></ele><time>2022-5-30T23:1:8Z</time></trkpt>
<trkpt lat="43.4610397" lon="6.8926692"><ele></ele><time>2022-5-30T23:1:11Z</time></trkpt>
<trkpt lat="43.4610606" lon="6.8926806"><ele></ele><time>2022-5-30T23:1:14Z</time></trkpt>
<trkpt lat="43.4610811" lon="6.8926918"><ele></ele><time>2022-5-30T23:1:17Z</time></trkpt>
<trkpt lat="43.4611020" lon="6.8927015"><ele></ele><time>2022-5-30T23:1:20Z</time></trkpt>
<trkpt lat="43.4611190" lon="6.8927096"><ele></ele><time>2022-5-30T23:1:23Z</time></trkpt>
<trkpt lat="43.4611328" lon="6.8927241"><ele></ele><time>2022-5-30T23:1:26Z</time></trkpt>
<trkpt lat="43.4611391" lon="6.8927502"><ele></ele><time>2022-5-30T23:1:29Z</time></trkpt>
<trkpt lat="43.4611337" lon="6.8927716"><ele></ele><time>2022-5-30T23:1:32Z</time></trkpt>
<trkpt lat="43.4611274" lon="6.8927909"><ele></ele><time>2022-5-30T23:1:35Z</time></trkpt>
<trkpt lat="43.4611084" lon="6.8928027"><ele></ele><time>2022-5-30T23:1:38Z</time></trkpt>
<trkpt lat="43.4610754" lon="6.8928046"><ele></ele><time>2022-5-30T23:1:41Z</time></trkpt>
<trkpt lat="43.4610383" lon="6.8928139"><ele></ele><time>2022-5-30T23:1:44Z</time></trkpt>
<trkpt lat="43.4610011" lon="6.8928269"><ele></ele><time>2022-5-30T23:1:47Z</time></trkpt>
<trkpt lat="43.4609620" lon="6.8928381"><ele></ele><time>2022-5-30T23:1:50Z</time></trkpt>
<trkpt lat="43.4609226" lon="6.8928468"><ele></ele><time>2022-5-30T23:1:53Z</time></trkpt>
<trkpt lat="43.4608844" lon="6.8928557"><ele></ele><time>2022-5-30T23:1:56Z</time></trkpt>
<trkpt lat="43.4608491" lon="6.8928621"><ele></ele><time>2022-5-30T23:1:59Z</time></trkpt>
<trkpt lat="43.4608188" lon="6.8928648"><ele></ele><time>2022-5-30T23:2:2Z</time></trkpt>
<trkpt lat="43.4607920" lon="6.8928713"><ele></ele><time>2022-5-30T23:2:5Z</time></trkpt>
<trkpt lat="43.4607619" lon="6.8928914"><ele></ele><time>2022-5-30T23:2:8Z</time></trkpt>
<trkpt lat="43.4607323" lon="6.8929182"><ele></ele><time>2022-5-30T23:2:11Z</time></trkpt>
<trkpt lat="43.4607058" lon="6.8929583"><ele></ele><time>2022-5-30T23:2:14Z</time></trkpt>
<trkpt lat="43.4606846" lon="6.8930062"><ele></ele><time>2022-5-30T23:2:17Z</time></trkpt>
<trkpt lat="43.4606684" lon="6.8930524"><ele></ele><time>2022-5-30T23:2:20Z</time></trkpt>
<trkpt lat="43.4606483" lon="6.8930931"><ele></ele><time>2022-5-30T23:2:23Z</time></trkpt>
<trkpt lat="43.4606275" lon="6.8931400"><ele></ele><time>2022-5-30T23:2:26Z</time></trkpt>
<trkpt lat="43.4606085" lon="6.8931889"><ele></ele><time>2022-5-30T23:2:29Z</time></trkpt>
<trkpt lat="43.4605939" lon="6.8932382"><ele></ele><time>2022-5-30T23:2:32Z</time></trkpt>
<trkpt lat="43.4605828" lon="6.8932931"><ele></ele><time>2022-5-30T23:2:35Z</time></trkpt>
<trkpt lat="43.4605739" lon="6.8933438"><ele></ele><time>2022-5-30T23:2:38Z</time></trkpt>
<trkpt lat="43.4605600" lon="6.8933902"><ele></ele><time>2022-5-30T23:2:41Z</time></trkpt>
<trkpt lat="43.4605443" lon="6.8934351"><ele></ele><time>2022-5-30T23:2:44Z</time></trkpt>
<trkpt lat="43.4605320" lon="6.8934849"><ele></ele><time>2022-5-30T23:2:47Z</time></trkpt>
<trkpt lat="43.4605210" lon="6.8935421"><ele></ele><time>2022-5-30T23:2:50Z</time></trkpt>
<trkpt lat="43.4605129" lon="6.8935917"><ele></ele><time>2022-5-30T23:2:53Z</time></trkpt>
<trkpt lat="43.4605056" lon="6.8936487"><ele></ele><time>2022-5-30T23:2:56Z</time></trkpt>
<trkpt lat="43.4605000" lon="6.8937069"><ele></ele><time>2022-5-30T23:2:59Z</time></trkpt>
<trkpt lat="43.4605052" lon="6.8937623"><ele></ele><time>2022-5-30T23:3:2Z</time></trkpt>
<trkpt lat="43.4605218" lon="6.8938049"><ele></ele><time>2022-5-30T23:3:5Z</time></trkpt>
<trkpt lat="43.4605503" lon="6.8938326"><ele></ele><time>2022-5-30T23:3:8Z</time></trkpt>
<trkpt lat="43.4605850" lon="6.8938587"><ele></ele><time>2022-5-30T23:3:11Z</time></trkpt>
<trkpt lat="43.4606233" lon="6.8938924"><ele></ele><time>2022-5-30T23:3:14Z</time></trkpt>
<trkpt lat="43.4606539" lon="6.8939365"><ele></ele><time>2022-5-30T23:3:17Z</time></trkpt>
<trkpt lat="43.4606685" lon="6.8939913"><ele></ele><time>2022-5-30T23:3:20Z</time></trkpt>
<trkpt lat="43.4606668" lon="6.8940430"><ele></ele><time>2022-5-30T23:3:23Z</time></trkpt>
<trkpt lat="43.4606417" lon="6.8940747"><ele></ele><time>2022-5-30T23:3:26Z</time></trkpt>
<trkpt lat="43.4606129" lon="6.8940875"><ele></ele><time>2022-5-30T23:3:29Z</time></trkpt>
<trkpt lat="43.4605834" lon="6.8941051"><ele></ele><time>2022-5-30T23:3:32Z</time></trkpt>
<trkpt lat="43.4605647" lon="6.8941430"><ele></ele><time>2022-5-30T23:3:35Z</time></trkpt>
<trkpt lat="43.4605552" lon="6.8941932"><ele></ele><time>2022-5-30T23:3:38Z</time></trkpt>
<trkpt lat="43.4605563" lon="6.8942487"><ele></ele><time>2022-5-30T23:3:41Z</time></trkpt>
<trkpt lat="43.4605564" lon="6.8943024"><ele></ele><time>2022-5-30T23:3:44Z</time></trkpt>
<trkpt lat="43.4605598" lon="6.8943589"><ele></ele><time>2022-5-30T23:3:47Z</time></trkpt>
<trkpt lat="43.4605650" lon="6.8944105"><ele></ele><time>2022-5-30T23:3:50Z</time></trkpt>
<trkpt lat="43.4605673" lon="6.8944641"><ele></ele><time>2022-5-30T23:3:53Z</time></trkpt>
<trkpt lat="43.4605706" lon="6.8945177"><ele></ele><time>2022-5-30T23:3:56Z</time></trkpt>
<trkpt lat="43.4605757" lon="6.8945725"><ele></ele><time>2022-5-30T23:3:59Z</time></trkpt>
<trkpt lat="43.4605990" lon="6.8946201"><ele></ele><time>2022-5-30T23:4:2Z</time></trkpt>
<trkpt lat="43.4606142" lon="6.8946773"><ele></ele><time>2022-5-30T23:4:5Z</time></trkpt>
<trkpt lat="43.4606196" lon="6.8947310"><ele></ele><time>2022-5-30T23:4:8Z</time></trkpt>
<trkpt lat="43.4606265" lon="6.8947829"><ele></ele><time>2022-5-30T23:4:11Z</time></trkpt>
<trkpt lat="43.4606411" lon="6.8948323"><ele></ele><time>2022-5-30T23:4:14Z</time></trkpt>
<trkpt lat="43.4606521" lon="6.8948886"><ele></ele><time>2022-5-30T23:4:17Z</time></trkpt>
<trkpt lat="43.4606549" lon="6.8949429"><ele></ele><time>2022-5-30T23:4:20Z</time></trkpt>
<trkpt lat="43.4606590" lon="6.8949904"><ele></ele><time>2022-5-30T23:4:23Z</time></trkpt>
<trkpt lat="43.4606671" lon="6.8950462"><ele></ele><time>2022-5-30T23:4:26Z</time></trkpt>
<trkpt lat="43.4606781" lon="6.8951108"><ele></ele><time>2022-5-30T23:4:29Z</time></trkpt>
<trkpt lat="43.4606837" lon="6.8951683"><ele></ele><time>2022-5-30T23:4:32Z</time></trkpt>
<trkpt lat="43.4606939" lon="6.8952259"><ele></ele><time>2022-5-30T23:4:35Z</time></trkpt>
<trkpt lat="43.4607025" lon="6.8952795"><ele></ele><time>2022-5-30T23:4:38Z</time></trkpt>
<trkpt lat="43.4607088" lon="6.8953325"><ele></ele><time>2022-5-30T23:4:41Z</time></trkpt>
<trkpt lat="43.4607080" lon="6.8953861"><ele></ele><time>2022-5-30T23:4:44Z</time></trkpt>
<trkpt lat="43.4607034" lon="6.8954421"><ele></ele><time>2022-5-30T23:4:47Z</time></trkpt>
<trkpt lat="43.4607101" lon="6.8955073"><ele></ele><time>2022-5-30T23:4:50Z</time></trkpt>
<trkpt lat="43.4607124" lon="6.8955725"><ele></ele><time>2022-5-30T23:4:53Z</time></trkpt>
<trkpt lat="43.4607297" lon="6.8956303"><ele></ele><time>2022-5-30T23:4:56Z</time></trkpt>
<trkpt lat="43.4607432" lon="6.8956834"><ele></ele><time>2022-5-30T23:4:59Z</time></trkpt>
<trkpt lat="43.4607584" lon="6.8957393"><ele></ele><time>2022-5-30T23:5:2Z</time></trkpt>
<trkpt lat="43.4607748" lon="6.8957926"><ele></ele><time>2022-5-30T23:5:5Z</time></trkpt>
<trkpt lat="43.4607888" lon="6.8958416"><ele></ele><time>2022-5-30T23:5:8Z</time></trkpt>
<trkpt lat="43.4608038" lon="6.8958868"><ele></ele><time>2022-5-30T23:5:11Z</time></trkpt>
<trkpt lat="43.4608261" lon="6.8959342"><ele></ele><time>2022-5-30T23:5:14Z</time></trkpt>
<trkpt lat="43.4608366" lon="6.8959810"><ele></ele><time>2022-5-30T23:5:17Z</time></trkpt>
<trkpt lat="43.4608439" lon="6.8960244"><ele></ele><time>2022-5-30T23:5:20Z</time></trkpt>
<trkpt lat="43.4608467" lon="6.8960591"><ele></ele><time>2022-5-30T23:5:23Z</time></trkpt>
<trkpt lat="43.4608513" lon="6.8960841"><ele></ele><time>2022-5-30T23:5:26Z</time></trkpt>
<trkpt lat="43.4608573" lon="6.8961159"><ele></ele><time>2022-5-30T23:5:29Z</time></trkpt>
<trkpt lat="43.4608620" lon="6.8961469"><ele></ele><time>2022-5-30T23:5:32Z</time></trkpt>
<trkpt lat="43.4608568" lon="6.8961682"><ele></ele><time>2022-5-30T23:5:35Z</time></trkpt>
<trkpt lat="43.4608500" lon="6.8961966"><ele></ele><time>2022-5-30T23:5:38Z</time></trkpt>
<trkpt lat="43.4608518" lon="6.8962253"><ele></ele><time>2022-5-30T23:5:41Z</time></trkpt>
<trkpt lat="43.4608579" lon="6.8962668"><ele></ele><time>2022-5-30T23:5:44Z</time></trkpt>
<trkpt lat="43.4608627" lon="6.8963057"><ele></ele><time>2022-5-30T23:5:47Z</time></trkpt>
<trkpt lat="43.4608617" lon="6.8963455"><ele></ele><time>2022-5-30T23:5:50Z</time></trkpt>
<trkpt lat="43.4608651" lon="6.8963852"><ele></ele><time>2022-5-30T23:5:53Z</time></trkpt>
<trkpt lat="43.4608724" lon="6.8964139"><ele></ele><time>2022-5-30T23:5:56Z</time></trkpt>
<trkpt lat="43.4608799" lon="6.8964441"><ele></ele><time>2022-5-30T23:5:59Z</time></trkpt>
<trkpt lat="43.4608840" lon="6.8964757"><ele></ele><time>2022-5-30T23:6:2Z</time></trkpt>
<trkpt lat="43.4608883" lon="6.8965023"><ele></ele><time>2022-5-30T23:6:5Z</time></trkpt>
<trkpt lat="43.4608954" lon="6.8965291"><ele></ele><time>2022-5-30T23:6:8Z</time></trkpt>
<trkpt lat="43.4608998" lon="6.8965612"><ele></ele><time>2022-5-30T23:6:11Z</time></trkpt>
<trkpt lat="43.4609011" lon="6.8965924"><ele></ele><time>2022-5-30T23:6:14Z</time></trkpt>
<trkpt lat="43.4609063" lon="6.8966228"><ele></ele><time>2022-5-30T23:6:17Z</time></trkpt>
<trkpt lat="43.4609125" lon="6.8966468"><ele></ele><time>2022-5-30T23:6:20Z</time></trkpt>
<trkpt lat="43.4609131" lon="6.8966706"><ele></ele><time>2022-5-30T23:6:23Z</time></trkpt>
<trkpt lat="43.4609178" lon="6.8966963"><ele></ele><time>2022-5-30T23:6:26Z</time></trkpt>
<trkpt lat="43.4609282" lon="6.8967272"><ele></ele><time>2022-5-30T23:6:29Z</time></trkpt>
<trkpt lat="43.4609381" lon="6.8967573"><ele></ele><time>2022-5-30T23:6:32Z</time></trkpt>
<trkpt lat="43.4609474" lon="6.8967832"><ele></ele><time>2022-5-30T23:6:35Z</time></trkpt>
<trkpt lat="43.4609574" lon="6.8968081"><ele></ele><time>2022-5-30T23:6:38Z</time></trkpt>
<trkpt lat="43.4609707" lon="6.8968244"><ele></ele><time>2022-5-30T23:6:41Z</time></trkpt>
<trkpt lat="43.4609819" lon="6.8968532"><ele></ele><time>2022-5-30T23:6:44Z</time></trkpt>
<trkpt lat="43.4609931" lon="6.8968786"><ele></ele><time>2022-5-30T23:6:47Z</time></trkpt>
<trkpt lat="43.4610029" lon="6.8968998"><ele></ele><time>2022-5-30T23:6:50Z</time></trkpt>
<trkpt lat="43.4610140" lon="6.8969234"><ele></ele><time>2022-5-30T23:6:53Z</time></trkpt>
<trkpt lat="43.4610241" lon="6.8969461"><ele></ele><time>2022-5-30T23:6:56Z</time></trkpt>
<trkpt lat="43.4610343" lon="6.8969688"><ele></ele><time>2022-5-30T23:6:59Z</time></trkpt>
<trkpt lat="43.4610401" lon="6.8969942"><ele></ele><time>2022-5-30T23:7:2Z</time></trkpt>
<trkpt lat="43.4610515" lon="6.8970204"><ele></ele><time>2022-5-30T23:7:5Z</time></trkpt>
<trkpt lat="43.4610628" lon="6.8970445"><ele></ele><time>2022-5-30T23:7:8Z</time></trkpt>
<trkpt lat="43.4610689" lon="6.8970624"><ele></ele><time>2022-5-30T23:7:11Z</time></trkpt>
<trkpt lat="43.4610746" lon="6.8970815"><ele></ele><time>2022-5-30T23:7:14Z</time></trkpt>
<trkpt lat="43.4610785" lon="6.8971042"><ele></ele><time>2022-5-30T23:7:17Z</time></trkpt>
<trkpt lat="43.4610930" lon="6.8971273"><ele></ele><time>2022-5-30T23:7:20Z</time></trkpt>
<trkpt lat="43.4611131" lon="6.8971526"><ele></ele><time>2022-5-30T23:7:23Z</time></trkpt>
<trkpt lat="43.4611292" lon="6.8971831"><ele></ele><time>2022-5-30T23:7:26Z</time></trkpt>
<trkpt lat="43.4611464" lon="6.8972092"><ele></ele><time>2022-5-30T23:7:29Z</time></trkpt>
<trkpt lat="43.4611659" lon="6.8972346"><ele></ele><time>2022-5-30T23:7:32Z</time></trkpt>
<trkpt lat="43.4611875" lon="6.8972597"><ele></ele><time>2022-5-30T23:7:35Z</time></trkpt>
<trkpt lat="43.4612093" lon="6.8972820"><ele></ele><time>2022-5-30T23:7:38Z</time></trkpt>
<trkpt lat="43.4612296" lon="6.8973051"><ele></ele><time>2022-5-30T23:7:41Z</time></trkpt>
<trkpt lat="43.4612436" lon="6.8973176"><ele></ele><time>2022-5-30T23:7:44Z</time></trkpt>
<trkpt lat="43.4612664" lon="6.8973339"><ele></ele><time>2022-5-30T23:7:47Z</time></trkpt>
<trkpt lat="43.4612849" lon="6.8973505"><ele></ele><time>2022-5-30T23:7:50Z</time></trkpt>
<trkpt lat="43.4613088" lon="6.8973678"><ele></ele><time>2022-5-30T23:7:53Z</time></trkpt>
<trkpt lat="43.4613148" lon="6.8973903"><ele></ele><time>2022-5-30T23:7:56Z</time></trkpt>
<trkpt lat="43.4613188" lon="6.8974064"><ele></ele><time>2022-5-30T23:7:59Z</time></trkpt>
<trkpt lat="43.4613209" lon="6.8973922"><ele></ele><time>2022-5-30T23:8:2Z</time></trkpt>
<trkpt lat="43.4613239" lon="6.8973906"><ele></ele><time>2022-5-30T23:8:5Z</time></trkpt>
<trkpt lat="43.4613234" lon="6.8973882"><ele></ele><time>2022-5-30T23:8:8Z</time></trkpt>
<trkpt lat="43.4613285" lon="6.8973832"><ele></ele><time>2022-5-30T23:8:11Z</time></trkpt>
<trkpt lat="43.4613421" lon="6.8973667"><ele></ele><time>2022-5-30T23:8:14Z</time></trkpt>
<trkpt lat="43.4613529" lon="6.8973710"><ele></ele><time>2022-5-30T23:8:17Z</time></trkpt>
<trkpt lat="43.4613700" lon="6.8973869"><ele></ele><time>2022-5-30T23:8:20Z</time></trkpt>
<trkpt lat="43.4613816" lon="6.8973992"><ele></ele><time>2022-5-30T23:8:23Z</time></trkpt>
<trkpt lat="43.4613741" lon="6.8973802"><ele></ele><time>2022-5-30T23:8:26Z</time></trkpt>
<trkpt lat="43.4613775" lon="6.8973662"><ele></ele><time>2022-5-30T23:8:29Z</time></trkpt>
<trkpt lat="43.4613918" lon="6.8973978"><ele></ele><time>2022-5-30T23:8:32Z</time></trkpt>
<trkpt lat="43.4613943" lon="6.8974279"><ele></ele><time>2022-5-30T23:8:35Z</time></trkpt>
<trkpt lat="43.4614152" lon="6.8974299"><ele></ele><time>2022-5-30T23:8:38Z</time></trkpt>
<trkpt lat="43.4614225" lon="6.8974429"><ele></ele><time>2022-5-30T23:8:41Z</time></trkpt>
<trkpt lat="43.4614301" lon="6.8974519"><ele></ele><time>2022-5-30T23:8:44Z</time></trkpt>
<trkpt lat="43.4614405" lon="6.8974566"><ele></ele><time>2022-5-30T23:8:47Z</time></trkpt>
<trkpt lat="43.4614406" lon="6.8974561"><ele></ele><time>2022-5-30T23:8:50Z</time></trkpt>
<trkpt lat="43.4614391" lon="6.8974700"><ele></ele><time>2022-5-30T23:8:53Z</time></trkpt>
<trkpt lat="43.4614336" lon="6.8974735"><ele></ele><time>2022-5-30T23:8:56Z</time></trkpt>
<trkpt lat="43.4614267" lon="6.8974753"><ele></ele><time>2022-5-30T23:8:59Z</time></trkpt>
<trkpt lat="43.4614281" lon="6.8974747"><ele></ele><time>2022-5-30T23:9:2Z</time></trkpt>
<trkpt lat="43.4614260" lon="6.8974754"><ele></ele><time>2022-5-30T23:9:5Z</time></trkpt>
<trkpt lat="43.4614251" lon="6.8974755"><ele></ele><time>2022-5-30T23:9:8Z</time></trkpt>
<trkpt lat="43.4614246" lon="6.8974751"><ele></ele><time>2022-5-30T23:9:11Z</time></trkpt>
<trkpt lat="43.4614235" lon="6.8974739"><ele></ele><time>2022-5-30T23:9:14Z</time></trkpt>
<trkpt lat="43.4614222" lon="6.8974728"><ele></ele><time>2022-5-30T23:9:17Z</time></trkpt>
<trkpt lat="43.4614178" lon="6.8974545"><ele></ele><time>2022-5-30T23:9:20Z</time></trkpt>
<trkpt lat="43.4614192" lon="6.8974558"><ele></ele><time>2022-5-30T23:9:23Z</time></trkpt>
<trkpt lat="43.4614074" lon="6.8974524"><ele></ele><time>2022-5-30T23:9:26Z</time></trkpt>
<trkpt lat="43.4614106" lon="6.8974695"><ele></ele><time>2022-5-30T23:9:29Z</time></trkpt>
<trkpt lat="43.4614108" lon="6.8975142"><ele></ele><time>2022-5-30T23:9:32Z</time></trkpt>
<trkpt lat="43.4614292" lon="6.8975430"><ele></ele><time>2022-5-30T23:9:35Z</time></trkpt>
<trkpt lat="43.4614418" lon="6.8975761"><ele></ele><time>2022-5-30T23:9:38Z</time></trkpt>
<trkpt lat="43.4614535" lon="6.8975975"><ele></ele><time>2022-5-30T23:9:41Z</time></trkpt>
<trkpt lat="43.4614534" lon="6.8976235"><ele></ele><time>2022-5-30T23:9:44Z</time></trkpt>
<trkpt lat="43.4614563" lon="6.8976525"><ele></ele><time>2022-5-30T23:9:47Z</time></trkpt>
<trkpt lat="43.4614676" lon="6.8976715"><ele></ele><time>2022-5-30T23:9:50Z</time></trkpt>
<trkpt lat="43.4614867" lon="6.8976945"><ele></ele><time>2022-5-30T23:9:53Z</time></trkpt>
<trkpt lat="43.4614879" lon="6.8977217"><ele></ele><time>2022-5-30T23:9:56Z</time></trkpt>
<trkpt lat="43.4615008" lon="6.8977653"><ele></ele><time>2022-5-30T23:9:59Z</time></trkpt>
<trkpt lat="43.4615040" lon="6.8977887"><ele></ele><time>2022-5-30T23:10:2Z</time></trkpt>
<trkpt lat="43.4615152" lon="6.8978130"><ele></ele><time>2022-5-30T23:10:5Z</time></trkpt>
<trkpt lat="43.4615268" lon="6.8978425"><ele></ele><time>2022-5-30T23:10:8Z</time></trkpt>
<trkpt lat="43.4615303" lon="6.8978766"><ele></ele><time>2022-5-30T23:10:11Z</time></trkpt>
<trkpt lat="43.4615241" lon="6.8979059"><ele></ele><time>2022-5-30T23:10:14Z</time></trkpt>
<trkpt lat="43.4615264" lon="6.8979388"><ele></ele><time>2022-5-30T23:10:17Z</time></trkpt>
<trkpt lat="43.4615326" lon="6.8979688"><ele></ele><time>2022-5-30T23:10:20Z</time></trkpt>
<trkpt lat="43.4615378" lon="6.8979924"><ele></ele><time>2022-5-30T23:10:23Z</time></trkpt>
<trkpt lat="43.4615293" lon="6.8980290"><ele></ele><time>2022-5-30T23:10:26Z</time></trkpt>
<trkpt lat="43.4615211" lon="6.8980658"><ele></ele><time>2022-5-30T23:10:29Z</time></trkpt>
<trkpt lat="43.4615206" lon="6.8981072"><ele></ele><time>2022-5-30T23:10:32Z</time></trkpt>
<trkpt lat="43.4615210" lon="6.8981414"><ele></ele><time>2022-5-30T23:10:35Z</time></trkpt>
<trkpt lat="43.4615190" lon="6.8981764"><ele></ele><time>2022-5-30T23:10:38Z</time></trkpt>
<trkpt lat="43.4615101" lon="6.8982103"><ele></ele><time>2022-5-30T23:10:41Z</time></trkpt>
<trkpt lat="43.4615018" lon="6.8982421"><ele></ele><time>2022-5-30T23:10:44Z</time></trkpt>
<trkpt lat="43.4615004" lon="6.8982735"><ele></ele><time>2022-5-30T23:10:47Z</time></trkpt>
<trkpt lat="43.4614943" lon="6.8983060"><ele></ele><time>2022-5-30T23:10:50Z</time></trkpt>
<trkpt lat="43.4614907" lon="6.8983391"><ele></ele><time>2022-5-30T23:10:53Z</time></trkpt>
<trkpt lat="43.4614928" lon="6.8983719"><ele></ele><time>2022-5-30T23:10:56Z</time></trkpt>
<trkpt lat="43.4614957" lon="6.8984065"><ele></ele><time>2022-5-30T23:10:59Z</time></trkpt>
<trkpt lat="43.4614994" lon="6.8984402"><ele></ele><time>2022-5-30T23:11:2Z</time></trkpt>
<trkpt lat="43.4615020" lon="6.8984722"><ele></ele><time>2022-5-30T23:11:5Z</time></trkpt>
<trkpt lat="43.4615054" lon="6.8985017"><ele></ele><time>2022-5-30T23:11:8Z</time></trkpt>
<trkpt lat="43.4615100" lon="6.8985325"><ele></ele><time>2022-5-30T23:11:11Z</time></trkpt>
<trkpt lat="43.4615182" lon="6.8985596"><ele></ele><time>2022-5-30T23:11:14Z</time></trkpt>
<trkpt lat="43.4615270" lon="6.8985879"><ele></ele><time>2022-5-30T23:11:17Z</time></trkpt>
<trkpt lat="43.4615393" lon="6.8986167"><ele></ele><time>2022-5-30T23:11:20Z</time></trkpt>
<trkpt lat="43.4615512" lon="6.8986477"><ele></ele><time>2022-5-30T23:11:23Z</time></trkpt>
<trkpt lat="43.4615630" lon="6.8986732"><ele></ele><time>2022-5-30T23:11:26Z</time></trkpt>
<trkpt lat="43.4615700" lon="6.8986917"><ele></ele><time>2022-5-30T23:11:29Z</time></trkpt>
<trkpt lat="43.4615737" lon="6.8986987"><ele></ele><time>2022-5-30T23:11:32Z</time></trkpt>
<trkpt lat="43.4615760" lon="6.8986961"><ele></ele><time>2022-5-30T23:11:35Z</time></trkpt>
<trkpt lat="43.4615746" lon="6.8986991"><ele></ele><time>2022-5-30T23:11:38Z</time></trkpt>
<trkpt lat="43.4615772" lon="6.8986973"><ele></ele><time>2022-5-30T23:11:41Z</time></trkpt>
<trkpt lat="43.4615758" lon="6.8986993"><ele></ele><time>2022-5-30T23:11:44Z</time></trkpt>
<trkpt lat="43.4615759" lon="6.8986992"><ele></ele><time>2022-5-30T23:11:47Z</time></trkpt>
<trkpt lat="43.4615760" lon="6.8986988"><ele></ele><time>2022-5-30T23:11:50Z</time></trkpt>
<trkpt lat="43.4615760" lon="6.8986983"><ele></ele><time>2022-5-30T23:11:53Z</time></trkpt>
<trkpt lat="43.4615759" lon="6.8986981"><ele></ele><time>2022-5-30T23:11:56Z</time></trkpt>
<trkpt lat="43.4615758" lon="6.8986982"><ele></ele><time>2022-5-30T23:11:59Z</time></trkpt>
<trkpt lat="43.4615758" lon="6.8986982"><ele></ele><time>2022-5-30T23:12:2Z</time></trkpt>
<trkpt lat="43.4615758" lon="6.8986986"><ele></ele><time>2022-5-30T23:12:5Z</time></trkpt>
<trkpt lat="43.4615757" lon="6.8986986"><ele></ele><time>2022-5-30T23:12:8Z</time></trkpt>
<trkpt lat="43.4615755" lon="6.8986987"><ele></ele><time>2022-5-30T23:12:11Z</time></trkpt>
<trkpt lat="43.4615755" lon="6.8986988"><ele></ele><time>2022-5-30T23:12:14Z</time></trkpt>
<trkpt lat="43.4615755" lon="6.8986990"><ele></ele><time>2022-5-30T23:12:17Z</time></trkpt>
<trkpt lat="43.4615762" lon="6.8987006"><ele></ele><time>2022-5-30T23:12:20Z</time></trkpt>
<trkpt lat="43.4615781" lon="6.8987037"><ele></ele><time>2022-5-30T23:12:23Z</time></trkpt>
<trkpt lat="43.4615871" lon="6.8987117"><ele></ele><time>2022-5-30T23:12:26Z</time></trkpt>
<trkpt lat="43.4616039" lon="6.8987176"><ele></ele><time>2022-5-30T23:12:29Z</time></trkpt>
<trkpt lat="43.4616170" lon="6.8987296"><ele></ele><time>2022-5-30T23:12:32Z</time></trkpt>
<trkpt lat="43.4616292" lon="6.8987519"><ele></ele><time>2022-5-30T23:12:35Z</time></trkpt>
<trkpt lat="43.4616444" lon="6.8987717"><ele></ele><time>2022-5-30T23:12:38Z</time></trkpt>
<trkpt lat="43.4616575" lon="6.8987837"><ele></ele><time>2022-5-30T23:12:41Z</time></trkpt>
<trkpt lat="43.4616770" lon="6.8988031"><ele></ele><time>2022-5-30T23:12:44Z</time></trkpt>
<trkpt lat="43.4616832" lon="6.8988257"><ele></ele><time>2022-5-30T23:12:47Z</time></trkpt>
<trkpt lat="43.4617064" lon="6.8988362"><ele></ele><time>2022-5-30T23:12:50Z</time></trkpt>
<trkpt lat="43.4617308" lon="6.8988397"><ele></ele><time>2022-5-30T23:12:53Z</time></trkpt>
<trkpt lat="43.4617641" lon="6.8988398"><ele></ele><time>2022-5-30T23:12:56Z</time></trkpt>
<trkpt lat="43.4617977" lon="6.8988609"><ele></ele><time>2022-5-30T23:12:59Z</time></trkpt>
<trkpt lat="43.4618204" lon="6.8988857"><ele></ele><time>2022-5-30T23:13:2Z</time></trkpt>
<trkpt lat="43.4618314" lon="6.8989185"><ele></ele><time>2022-5-30T23:13:5Z</time></trkpt>
<trkpt lat="43.4618379" lon="6.8989592"><ele></ele><time>2022-5-30T23:13:8Z</time></trkpt>
<trkpt lat="43.4618355" lon="6.8989980"><ele></ele><time>2022-5-30T23:13:11Z</time></trkpt>
<trkpt lat="43.4618366" lon="6.8990380"><ele></ele><time>2022-5-30T23:13:14Z</time></trkpt>
<trkpt lat="43.4618393" lon="6.8990814"><ele></ele><time>2022-5-30T23:13:17Z</time></trkpt>
<trkpt lat="43.4618442" lon="6.8991224"><ele></ele><time>2022-5-30T23:13:20Z</time></trkpt>
<trkpt lat="43.4618548" lon="6.8991620"><ele></ele><time>2022-5-30T23:13:23Z</time></trkpt>
<trkpt lat="43.4618649" lon="6.8992015"><ele></ele><time>2022-5-30T23:13:26Z</time></trkpt>
<trkpt lat="43.4618722" lon="6.8992435"><ele></ele><time>2022-5-30T23:13:29Z</time></trkpt>
<trkpt lat="43.4618817" lon="6.8992790"><ele></ele><time>2022-5-30T23:13:32Z</time></trkpt>
<trkpt lat="43.4618909" lon="6.8993149"><ele></ele><time>2022-5-30T23:13:35Z</time></trkpt>
<trkpt lat="43.4618988" lon="6.8993436"><ele></ele><time>2022-5-30T23:13:38Z</time></trkpt>
<trkpt lat="43.4619055" lon="6.8993569"><ele></ele><time>2022-5-30T23:13:41Z</time></trkpt>
<trkpt lat="43.4619104" lon="6.8993667"><ele></ele><time>2022-5-30T23:13:44Z</time></trkpt>
<trkpt lat="43.4619162" lon="6.8993916"><ele></ele><time>2022-5-30T23:13:47Z</time></trkpt>
<trkpt lat="43.4619238" lon="6.8994234"><ele></ele><time>2022-5-30T23:13:50Z</time></trkpt>
<trkpt lat="43.4619318" lon="6.8994590"><ele></ele><time>2022-5-30T23:13:53Z</time></trkpt>
<trkpt lat="43.4619412" lon="6.8994917"><ele></ele><time>2022-5-30T23:13:56Z</time></trkpt>
<trkpt lat="43.4619457" lon="6.8995224"><ele></ele><time>2022-5-30T23:13:59Z</time></trkpt>
<trkpt lat="43.4619558" lon="6.8995518"><ele></ele><time>2022-5-30T23:14:2Z</time></trkpt>
<trkpt lat="43.4619701" lon="6.8995874"><ele></ele><time>2022-5-30T23:14:5Z</time></trkpt>
<trkpt lat="43.4619795" lon="6.8996264"><ele></ele><time>2022-5-30T23:14:8Z</time></trkpt>
<trkpt lat="43.4619818" lon="6.8996694"><ele></ele><time>2022-5-30T23:14:11Z</time></trkpt>
<trkpt lat="43.4619889" lon="6.8997155"><ele></ele><time>2022-5-30T23:14:14Z</time></trkpt>
<trkpt lat="43.4620004" lon="6.8997615"><ele></ele><time>2022-5-30T23:14:17Z</time></trkpt>
<trkpt lat="43.4620121" lon="6.8998053"><ele></ele><time>2022-5-30T23:14:20Z</time></trkpt>
<trkpt lat="43.4620206" lon="6.8998539"><ele></ele><time>2022-5-30T23:14:23Z</time></trkpt>
<trkpt lat="43.4620264" lon="6.8999028"><ele></ele><time>2022-5-30T23:14:26Z</time></trkpt>
<trkpt lat="43.4620347" lon="6.8999499"><ele></ele><time>2022-5-30T23:14:29Z</time></trkpt>
<trkpt lat="43.4620416" lon="6.8999899"><ele></ele><time>2022-5-30T23:14:32Z</time></trkpt>
<trkpt lat="43.4620535" lon="6.9000408"><ele></ele><time>2022-5-30T23:14:35Z</time></trkpt>
<trkpt lat="43.4620621" lon="6.9000971"><ele></ele><time>2022-5-30T23:14:38Z</time></trkpt>
<trkpt lat="43.4620676" lon="6.9001469"><ele></ele><time>2022-5-30T23:14:41Z</time></trkpt>
<trkpt lat="43.4620705" lon="6.9001927"><ele></ele><time>2022-5-30T23:14:44Z</time></trkpt>
<trkpt lat="43.4620739" lon="6.9002371"><ele></ele><time>2022-5-30T23:14:47Z</time></trkpt>
<trkpt lat="43.4620777" lon="6.9002851"><ele></ele><time>2022-5-30T23:14:50Z</time></trkpt>
<trkpt lat="43.4620736" lon="6.9003309"><ele></ele><time>2022-5-30T23:14:53Z</time></trkpt>
<trkpt lat="43.4620768" lon="6.9003776"><ele></ele><time>2022-5-30T23:14:56Z</time></trkpt>
<trkpt lat="43.4620831" lon="6.9004231"><ele></ele><time>2022-5-30T23:14:59Z</time></trkpt>
<trkpt lat="43.4620852" lon="6.9004680"><ele></ele><time>2022-5-30T23:15:2Z</time></trkpt>
<trkpt lat="43.4620860" lon="6.9005180"><ele></ele><time>2022-5-30T23:15:5Z</time></trkpt>
<trkpt lat="43.4620833" lon="6.9005636"><ele></ele><time>2022-5-30T23:15:8Z</time></trkpt>
<trkpt lat="43.4620817" lon="6.9006105"><ele></ele><time>2022-5-30T23:15:11Z</time></trkpt>
<trkpt lat="43.4620811" lon="6.9006589"><ele></ele><time>2022-5-30T23:15:14Z</time></trkpt>
<trkpt lat="43.4620798" lon="6.9007053"><ele></ele><time>2022-5-30T23:15:17Z</time></trkpt>
<trkpt lat="43.4620848" lon="6.9007480"><ele></ele><time>2022-5-30T23:15:20Z</time></trkpt>
<trkpt lat="43.4620898" lon="6.9007933"><ele></ele><time>2022-5-30T23:15:23Z</time></trkpt>
<trkpt lat="43.4620943" lon="6.9008385"><ele></ele><time>2022-5-30T23:15:26Z</time></trkpt>
<trkpt lat="43.4620967" lon="6.9008828"><ele></ele><time>2022-5-30T23:15:29Z</time></trkpt>
<trkpt lat="43.4620975" lon="6.9009292"><ele></ele><time>2022-5-30T23:15:32Z</time></trkpt>
<trkpt lat="43.4621086" lon="6.9009699"><ele></ele><time>2022-5-30T23:15:35Z</time></trkpt>
<trkpt lat="43.4621230" lon="6.9010133"><ele></ele><time>2022-5-30T23:15:38Z</time></trkpt>
<trkpt lat="43.4621265" lon="6.9010520"><ele></ele><time>2022-5-30T23:15:41Z</time></trkpt>
<trkpt lat="43.4621311" lon="6.9010944"><ele></ele><time>2022-5-30T23:15:44Z</time></trkpt>
<trkpt lat="43.4621468" lon="6.9011353"><ele></ele><time>2022-5-30T23:15:47Z</time></trkpt>
<trkpt lat="43.4621621" lon="6.9011794"><ele></ele><time>2022-5-30T23:15:50Z</time></trkpt>
<trkpt lat="43.4621748" lon="6.9012187"><ele></ele><time>2022-5-30T23:15:53Z</time></trkpt>
<trkpt lat="43.4621869" lon="6.9012622"><ele></ele><time>2022-5-30T23:15:56Z</time></trkpt>
<trkpt lat="43.4622010" lon="6.9013044"><ele></ele><time>2022-5-30T23:15:59Z</time></trkpt>
<trkpt lat="43.4622162" lon="6.9013438"><ele></ele><time>2022-5-30T23:16:2Z</time></trkpt>
<trkpt lat="43.4622299" lon="6.9013852"><ele></ele><time>2022-5-30T23:16:5Z</time></trkpt>
<trkpt lat="43.4622430" lon="6.9014303"><ele></ele><time>2022-5-30T23:16:8Z</time></trkpt>
<trkpt lat="43.4622513" lon="6.9014737"><ele></ele><time>2022-5-30T23:16:11Z</time></trkpt>
<trkpt lat="43.4622563" lon="6.9015168"><ele></ele><time>2022-5-30T23:16:14Z</time></trkpt>
<trkpt lat="43.4622711" lon="6.9015576"><ele></ele><time>2022-5-30T23:16:17Z</time></trkpt>
<trkpt lat="43.4622864" lon="6.9015996"><ele></ele><time>2022-5-30T23:16:20Z</time></trkpt>
<trkpt lat="43.4622978" lon="6.9016473"><ele></ele><time>2022-5-30T23:16:23Z</time></trkpt>
<trkpt lat="43.4623085" lon="6.9016925"><ele></ele><time>2022-5-30T23:16:26Z</time></trkpt>
<trkpt lat="43.4623035" lon="6.9017357"><ele></ele><time>2022-5-30T23:16:29Z</time></trkpt>
<trkpt lat="43.4623018" lon="6.9017750"><ele></ele><time>2022-5-30T23:16:32Z</time></trkpt>
<trkpt lat="43.4623027" lon="6.9018167"><ele></ele><time>2022-5-30T23:16:35Z</time></trkpt>
<trkpt lat="43.4623011" lon="6.9018599"><ele></ele><time>2022-5-30T23:16:38Z</time></trkpt>
<trkpt lat="43.4622997" lon="6.9018984"><ele></ele><time>2022-5-30T23:16:41Z</time></trkpt>
<trkpt lat="43.4622973" lon="6.9019351"><ele></ele><time>2022-5-30T23:16:44Z</time></trkpt>
<trkpt lat="43.4622945" lon="6.9019745"><ele></ele><time>2022-5-30T23:16:47Z</time></trkpt>
<trkpt lat="43.4622952" lon="6.9020198"><ele></ele><time>2022-5-30T23:16:50Z</time></trkpt>
<trkpt lat="43.4623075" lon="6.9020621"><ele></ele><time>2022-5-30T23:16:53Z</time></trkpt>
<trkpt lat="43.4623101" lon="6.9021063"><ele></ele><time>2022-5-30T23:16:56Z</time></trkpt>
<trkpt lat="43.4623160" lon="6.9021519"><ele></ele><time>2022-5-30T23:16:59Z</time></trkpt>
<trkpt lat="43.4623177" lon="6.9021953"><ele></ele><time>2022-5-30T23:17:2Z</time></trkpt>
<trkpt lat="43.4623310" lon="6.9022380"><ele></ele><time>2022-5-30T23:17:5Z</time></trkpt>
<trkpt lat="43.4623435" lon="6.9022832"><ele></ele><time>2022-5-30T23:17:8Z</time></trkpt>
<trkpt lat="43.4623526" lon="6.9023242"><ele></ele><time>2022-5-30T23:17:11Z</time></trkpt>
<trkpt lat="43.4623553" lon="6.9023604"><ele></ele><time>2022-5-30T23:17:14Z</time></trkpt>
<trkpt lat="43.4623603" lon="6.9024035"><ele></ele><time>2022-5-30T23:17:17Z</time></trkpt>
<trkpt lat="43.4623694" lon="6.9024368"><ele></ele><time>2022-5-30T23:17:20Z</time></trkpt>
<trkpt lat="43.4623810" lon="6.9024735"><ele></ele><time>2022-5-30T23:17:23Z</time></trkpt>
<trkpt lat="43.4623943" lon="6.9025113"><ele></ele><time>2022-5-30T23:17:26Z</time></trkpt>
<trkpt lat="43.4624068" lon="6.9025467"><ele></ele><time>2022-5-30T23:17:29Z</time></trkpt>
<trkpt lat="43.4624185" lon="6.9025830"><ele></ele><time>2022-5-30T23:17:32Z</time></trkpt>
<trkpt lat="43.4624347" lon="6.9026118"><ele></ele><time>2022-5-30T23:17:35Z</time></trkpt>
<trkpt lat="43.4624545" lon="6.9026377"><ele></ele><time>2022-5-30T23:17:38Z</time></trkpt>
<trkpt lat="43.4624682" lon="6.9026680"><ele></ele><time>2022-5-30T23:17:41Z</time></trkpt>
<trkpt lat="43.4624829" lon="6.9027011"><ele></ele><time>2022-5-30T23:17:44Z</time></trkpt>
<trkpt lat="43.4624916" lon="6.9027381"><ele></ele><time>2022-5-30T23:17:47Z</time></trkpt>
<trkpt lat="43.4625007" lon="6.9027793"><ele></ele><time>2022-5-30T23:17:50Z</time></trkpt>
<trkpt lat="43.4625079" lon="6.9028236"><ele></ele><time>2022-5-30T23:17:53Z</time></trkpt>
<trkpt lat="43.4625205" lon="6.9028660"><ele></ele><time>2022-5-30T23:17:56Z</time></trkpt>
<trkpt lat="43.4625386" lon="6.9029105"><ele></ele><time>2022-5-30T23:17:59Z</time></trkpt>
<trkpt lat="43.4625538" lon="6.9029372"><ele></ele><time>2022-5-30T23:18:2Z</time></trkpt>
<trkpt lat="43.4625641" lon="6.9029589"><ele></ele><time>2022-5-30T23:18:5Z</time></trkpt>
<trkpt lat="43.4625719" lon="6.9029686"><ele></ele><time>2022-5-30T23:18:8Z</time></trkpt>
<trkpt lat="43.4625879" lon="6.9029719"><ele></ele><time>2022-5-30T23:18:11Z</time></trkpt>
<trkpt lat="43.4626006" lon="6.9029717"><ele></ele><time>2022-5-30T23:18:14Z</time></trkpt>
<trkpt lat="43.4626011" lon="6.9029703"><ele></ele><time>2022-5-30T23:18:17Z</time></trkpt>
<trkpt lat="43.4626001" lon="6.9029703"><ele></ele><time>2022-5-30T23:18:20Z</time></trkpt>
<trkpt lat="43.4626002" lon="6.9029697"><ele></ele><time>2022-5-30T23:18:23Z</time></trkpt>
<trkpt lat="43.4626009" lon="6.9029689"><ele></ele><time>2022-5-30T23:18:26Z</time></trkpt>
<trkpt lat="43.4626011" lon="6.9029687"><ele></ele><time>2022-5-30T23:18:29Z</time></trkpt>
<trkpt lat="43.4626008" lon="6.9029671"><ele></ele><time>2022-5-30T23:18:32Z</time></trkpt>
<trkpt lat="43.4626014" lon="6.9029675"><ele></ele><time>2022-5-30T23:18:35Z</time></trkpt>
<trkpt lat="43.4625999" lon="6.9029666"><ele></ele><time>2022-5-30T23:18:38Z</time></trkpt>
<trkpt lat="43.4625988" lon="6.9029657"><ele></ele><time>2022-5-30T23:18:41Z</time></trkpt>
<trkpt lat="43.4625980" lon="6.9029651"><ele></ele><time>2022-5-30T23:18:44Z</time></trkpt>
<trkpt lat="43.4625973" lon="6.9029645"><ele></ele><time>2022-5-30T23:18:47Z</time></trkpt>
<trkpt lat="43.4625967" lon="6.9029641"><ele></ele><time>2022-5-30T23:18:50Z</time></trkpt>
<trkpt lat="43.4625958" lon="6.9029636"><ele></ele><time>2022-5-30T23:18:53Z</time></trkpt>
<trkpt lat="43.4625949" lon="6.9029630"><ele></ele><time>2022-5-30T23:18:56Z</time></trkpt>
<trkpt lat="43.4625942" lon="6.9029628"><ele></ele><time>2022-5-30T23:18:59Z</time></trkpt>
<trkpt lat="43.4625940" lon="6.9029629"><ele></ele><time>2022-5-30T23:19:2Z</time></trkpt>
<trkpt lat="43.4625935" lon="6.9029628"><ele></ele><time>2022-5-30T23:19:5Z</time></trkpt>
<trkpt lat="43.4625930" lon="6.9029625"><ele></ele><time>2022-5-30T23:19:8Z</time></trkpt>
<trkpt lat="43.4625928" lon="6.9029625"><ele></ele><time>2022-5-30T23:19:11Z</time></trkpt>
<trkpt lat="43.4625926" lon="6.9029624"><ele></ele><time>2022-5-30T23:19:14Z</time></trkpt>
<trkpt lat="43.4625923" lon="6.9029622"><ele></ele><time>2022-5-30T23:19:17Z</time></trkpt>
<trkpt lat="43.4625921" lon="6.9029620"><ele></ele><time>2022-5-30T23:19:20Z</time></trkpt>
<trkpt lat="43.4625918" lon="6.9029618"><ele></ele><time>2022-5-30T23:19:23Z</time></trkpt>
<trkpt lat="43.4625915" lon="6.9029618"><ele></ele><time>2022-5-30T23:19:26Z</time></trkpt>
<trkpt lat="43.4625906" lon="6.9029618"><ele></ele><time>2022-5-30T23:19:29Z</time></trkpt>
<trkpt lat="43.4625902" lon="6.9029617"><ele></ele><time>2022-5-30T23:19:32Z</time></trkpt>
<trkpt lat="43.4625900" lon="6.9029615"><ele></ele><time>2022-5-30T23:19:35Z</time></trkpt>
<trkpt lat="43.4625897" lon="6.9029613"><ele></ele><time>2022-5-30T23:19:38Z</time></trkpt>
<trkpt lat="43.4625896" lon="6.9029614"><ele></ele><time>2022-5-30T23:19:41Z</time></trkpt>
<trkpt lat="43.4625895" lon="6.9029614"><ele></ele><time>2022-5-30T23:19:44Z</time></trkpt>
<trkpt lat="43.4625890" lon="6.9029613"><ele></ele><time>2022-5-30T23:19:47Z</time></trkpt>
<trkpt lat="43.4625888" lon="6.9029612"><ele></ele><time>2022-5-30T23:19:50Z</time></trkpt>
<trkpt lat="43.4625888" lon="6.9029612"><ele></ele><time>2022-5-30T23:19:53Z</time></trkpt>
<trkpt lat="43.4625890" lon="6.9029612"><ele></ele><time>2022-5-30T23:19:56Z</time></trkpt>
<trkpt lat="43.4625892" lon="6.9029612"><ele></ele><time>2022-5-30T23:19:59Z</time></trkpt>
<trkpt lat="43.4625891" lon="6.9029610"><ele></ele><time>2022-5-30T23:20:2Z</time></trkpt>
<trkpt lat="43.4625893" lon="6.9029611"><ele></ele><time>2022-5-30T23:20:5Z</time></trkpt>
<trkpt lat="43.4625895" lon="6.9029611"><ele></ele><time>2022-5-30T23:20:8Z</time></trkpt>
<trkpt lat="43.4625900" lon="6.9029616"><ele></ele><time>2022-5-30T23:20:11Z</time></trkpt>
<trkpt lat="43.4625899" lon="6.9029616"><ele></ele><time>2022-5-30T23:20:14Z</time></trkpt>
<trkpt lat="43.4625898" lon="6.9029613"><ele></ele><time>2022-5-30T23:20:17Z</time></trkpt>
<trkpt lat="43.4625896" lon="6.9029608"><ele></ele><time>2022-5-30T23:20:20Z</time></trkpt>
<trkpt lat="43.4625894" lon="6.9029604"><ele></ele><time>2022-5-30T23:20:23Z</time></trkpt>
<trkpt lat="43.4625891" lon="6.9029602"><ele></ele><time>2022-5-30T23:20:26Z</time></trkpt>
<trkpt lat="43.4625889" lon="6.9029600"><ele></ele><time>2022-5-30T23:20:29Z</time></trkpt>
<trkpt lat="43.4625885" lon="6.9029598"><ele></ele><time>2022-5-30T23:20:32Z</time></trkpt>
<trkpt lat="43.4625882" lon="6.9029597"><ele></ele><time>2022-5-30T23:20:35Z</time></trkpt>
<trkpt lat="43.4625882" lon="6.9029601"><ele></ele><time>2022-5-30T23:20:38Z</time></trkpt>
<trkpt lat="43.4625882" lon="6.9029605"><ele></ele><time>2022-5-30T23:20:41Z</time></trkpt>
<trkpt lat="43.4625880" lon="6.9029608"><ele></ele><time>2022-5-30T23:20:44Z</time></trkpt>
<trkpt lat="43.4625875" lon="6.9029615"><ele></ele><time>2022-5-30T23:20:47Z</time></trkpt>
<trkpt lat="43.4625871" lon="6.9029620"><ele></ele><time>2022-5-30T23:20:50Z</time></trkpt>
<trkpt lat="43.4625859" lon="6.9029629"><ele></ele><time>2022-5-30T23:20:53Z</time></trkpt>
<trkpt lat="43.4625855" lon="6.9029632"><ele></ele><time>2022-5-30T23:20:56Z</time></trkpt>
<trkpt lat="43.4625850" lon="6.9029636"><ele></ele><time>2022-5-30T23:20:59Z</time></trkpt>
<trkpt lat="43.4625846" lon="6.9029638"><ele></ele><time>2022-5-30T23:21:2Z</time></trkpt>
<trkpt lat="43.4625842" lon="6.9029642"><ele></ele><time>2022-5-30T23:21:5Z</time></trkpt>
<trkpt lat="43.4625830" lon="6.9029647"><ele></ele><time>2022-5-30T23:21:8Z</time></trkpt>
<trkpt lat="43.4625828" lon="6.9029648"><ele></ele><time>2022-5-30T23:21:11Z</time></trkpt>
<trkpt lat="43.4625823" lon="6.9029650"><ele></ele><time>2022-5-30T23:21:14Z</time></trkpt>
<trkpt lat="43.4625820" lon="6.9029652"><ele></ele><time>2022-5-30T23:21:17Z</time></trkpt>
<trkpt lat="43.4625817" lon="6.9029653"><ele></ele><time>2022-5-30T23:21:20Z</time></trkpt>
<trkpt lat="43.4625813" lon="6.9029655"><ele></ele><time>2022-5-30T23:21:23Z</time></trkpt>
<trkpt lat="43.4625813" lon="6.9029656"><ele></ele><time>2022-5-30T23:21:26Z</time></trkpt>
<trkpt lat="43.4625811" lon="6.9029659"><ele></ele><time>2022-5-30T23:21:29Z</time></trkpt>
<trkpt lat="43.4625809" lon="6.9029660"><ele></ele><time>2022-5-30T23:21:32Z</time></trkpt>
<trkpt lat="43.4625807" lon="6.9029662"><ele></ele><time>2022-5-30T23:21:35Z</time></trkpt>
<trkpt lat="43.4625805" lon="6.9029664"><ele></ele><time>2022-5-30T23:21:38Z</time></trkpt>
<trkpt lat="43.4625803" lon="6.9029666"><ele></ele><time>2022-5-30T23:21:41Z</time></trkpt>
<trkpt lat="43.4625801" lon="6.9029667"><ele></ele><time>2022-5-30T23:21:44Z</time></trkpt>
<trkpt lat="43.4625800" lon="6.9029670"><ele></ele><time>2022-5-30T23:21:47Z</time></trkpt>
<trkpt lat="43.4625789" lon="6.9029660"><ele></ele><time>2022-5-30T23:21:50Z</time></trkpt>
<trkpt lat="43.4625814" lon="6.9029763"><ele></ele><time>2022-5-30T23:21:53Z</time></trkpt>
<trkpt lat="43.4625864" lon="6.9029957"><ele></ele><time>2022-5-30T23:21:56Z</time></trkpt>
<trkpt lat="43.4625907" lon="6.9030241"><ele></ele><time>2022-5-30T23:21:59Z</time></trkpt>
<trkpt lat="43.4625965" lon="6.9030659"><ele></ele><time>2022-5-30T23:22:2Z</time></trkpt>
<trkpt lat="43.4625961" lon="6.9031167"><ele></ele><time>2022-5-30T23:22:5Z</time></trkpt>
<trkpt lat="43.4625943" lon="6.9031611"><ele></ele><time>2022-5-30T23:22:8Z</time></trkpt>
<trkpt lat="43.4625912" lon="6.9032032"><ele></ele><time>2022-5-30T23:22:11Z</time></trkpt>
<trkpt lat="43.4625896" lon="6.9032452"><ele></ele><time>2022-5-30T23:22:14Z</time></trkpt>
<trkpt lat="43.4625874" lon="6.9032874"><ele></ele><time>2022-5-30T23:22:17Z</time></trkpt>
<trkpt lat="43.4625881" lon="6.9033318"><ele></ele><time>2022-5-30T23:22:20Z</time></trkpt>
<trkpt lat="43.4625905" lon="6.9033761"><ele></ele><time>2022-5-30T23:22:23Z</time></trkpt>
<trkpt lat="43.4625982" lon="6.9034170"><ele></ele><time>2022-5-30T23:22:26Z</time></trkpt>
<trkpt lat="43.4626051" lon="6.9034627"><ele></ele><time>2022-5-30T23:22:29Z</time></trkpt>
<trkpt lat="43.4626108" lon="6.9035098"><ele></ele><time>2022-5-30T23:22:32Z</time></trkpt>
<trkpt lat="43.4626134" lon="6.9035568"><ele></ele><time>2022-5-30T23:22:35Z</time></trkpt>
<trkpt lat="43.4626179" lon="6.9035983"><ele></ele><time>2022-5-30T23:22:38Z</time></trkpt>
<trkpt lat="43.4626245" lon="6.9036397"><ele></ele><time>2022-5-30T23:22:41Z</time></trkpt>
<trkpt lat="43.4626319" lon="6.9036808"><ele></ele><time>2022-5-30T23:22:44Z</time></trkpt>
<trkpt lat="43.4626441" lon="6.9037170"><ele></ele><time>2022-5-30T23:22:47Z</time></trkpt>
<trkpt lat="43.4626567" lon="6.9037553"><ele></ele><time>2022-5-30T23:22:50Z</time></trkpt>
<trkpt lat="43.4626755" lon="6.9037841"><ele></ele><time>2022-5-30T23:22:53Z</time></trkpt>
<trkpt lat="43.4626949" lon="6.9038136"><ele></ele><time>2022-5-30T23:22:56Z</time></trkpt>
<trkpt lat="43.4627079" lon="6.9038362"><ele></ele><time>2022-5-30T23:22:59Z</time></trkpt>
<trkpt lat="43.4627103" lon="6.9038426"><ele></ele><time>2022-5-30T23:23:2Z</time></trkpt>
<trkpt lat="43.4627108" lon="6.9038407"><ele></ele><time>2022-5-30T23:23:5Z</time></trkpt>
<trkpt lat="43.4627109" lon="6.9038366"><ele></ele><time>2022-5-30T23:23:8Z</time></trkpt>
<trkpt lat="43.4627160" lon="6.9038463"><ele></ele><time>2022-5-30T23:23:11Z</time></trkpt>
<trkpt lat="43.4627102" lon="6.9038381"><ele></ele><time>2022-5-30T23:23:14Z</time></trkpt>
<trkpt lat="43.4627100" lon="6.9038373"><ele></ele><time>2022-5-30T23:23:17Z</time></trkpt>
<trkpt lat="43.4627100" lon="6.9038372"><ele></ele><time>2022-5-30T23:23:20Z</time></trkpt>
<trkpt lat="43.4627099" lon="6.9038377"><ele></ele><time>2022-5-30T23:23:23Z</time></trkpt>
<trkpt lat="43.4627098" lon="6.9038388"><ele></ele><time>2022-5-30T23:23:26Z</time></trkpt>
<trkpt lat="43.4627098" lon="6.9038393"><ele></ele><time>2022-5-30T23:23:29Z</time></trkpt>
<trkpt lat="43.4627099" lon="6.9038397"><ele></ele><time>2022-5-30T23:23:32Z</time></trkpt>
<trkpt lat="43.4627099" lon="6.9038402"><ele></ele><time>2022-5-30T23:23:35Z</time></trkpt>
<trkpt lat="43.4627100" lon="6.9038414"><ele></ele><time>2022-5-30T23:23:38Z</time></trkpt>
<trkpt lat="43.4627101" lon="6.9038420"><ele></ele><time>2022-5-30T23:23:41Z</time></trkpt>
<trkpt lat="43.4627103" lon="6.9038426"><ele></ele><time>2022-5-30T23:23:44Z</time></trkpt>
<trkpt lat="43.4627105" lon="6.9038440"><ele></ele><time>2022-5-30T23:23:47Z</time></trkpt>
<trkpt lat="43.4627109" lon="6.9038479"><ele></ele><time>2022-5-30T23:23:50Z</time></trkpt>
<trkpt lat="43.4627160" lon="6.9038682"><ele></ele><time>2022-5-30T23:23:53Z</time></trkpt>
<trkpt lat="43.4627187" lon="6.9039045"><ele></ele><time>2022-5-30T23:23:56Z</time></trkpt>
<trkpt lat="43.4627194" lon="6.9039494"><ele></ele><time>2022-5-30T23:23:59Z</time></trkpt>
<trkpt lat="43.4627224" lon="6.9039981"><ele></ele><time>2022-5-30T23:24:2Z</time></trkpt>
<trkpt lat="43.4627280" lon="6.9040402"><ele></ele><time>2022-5-30T23:24:5Z</time></trkpt>
<trkpt lat="43.4627431" lon="6.9040782"><ele></ele><time>2022-5-30T23:24:8Z</time></trkpt>
<trkpt lat="43.4627631" lon="6.9041124"><ele></ele><time>2022-5-30T23:24:11Z</time></trkpt>
<trkpt lat="43.4627843" lon="6.9041419"><ele></ele><time>2022-5-30T23:24:14Z</time></trkpt>
<trkpt lat="43.4628075" lon="6.9041738"><ele></ele><time>2022-5-30T23:24:17Z</time></trkpt>
<trkpt lat="43.4628261" lon="6.9041930"><ele></ele><time>2022-5-30T23:24:20Z</time></trkpt>
<trkpt lat="43.4628527" lon="6.9042049"><ele></ele><time>2022-5-30T23:24:23Z</time></trkpt>
<trkpt lat="43.4628769" lon="6.9042118"><ele></ele><time>2022-5-30T23:24:26Z</time></trkpt>
<trkpt lat="43.4629017" lon="6.9042261"><ele></ele><time>2022-5-30T23:24:29Z</time></trkpt>
<trkpt lat="43.4629218" lon="6.9042486"><ele></ele><time>2022-5-30T23:24:32Z</time></trkpt>
<trkpt lat="43.4629393" lon="6.9042793"><ele></ele><time>2022-5-30T23:24:35Z</time></trkpt>
<trkpt lat="43.4629545" lon="6.9043217"><ele></ele><time>2022-5-30T23:24:38Z</time></trkpt>
<trkpt lat="43.4629657" lon="6.9043702"><ele></ele><time>2022-5-30T23:24:41Z</time></trkpt>
<trkpt lat="43.4629782" lon="6.9044196"><ele></ele><time>2022-5-30T23:24:44Z</time></trkpt>
<trkpt lat="43.4629953" lon="6.9044636"><ele></ele><time>2022-5-30T23:24:47Z</time></trkpt>
<trkpt lat="43.4630152" lon="6.9045058"><ele></ele><time>2022-5-30T23:24:50Z</time></trkpt>
<trkpt lat="43.4630343" lon="6.9045386"><ele></ele><time>2022-5-30T23:24:53Z</time></trkpt>
<trkpt lat="43.4630565" lon="6.9045720"><ele></ele><time>2022-5-30T23:24:56Z</time></trkpt>
<trkpt lat="43.4630807" lon="6.9045994"><ele></ele><time>2022-5-30T23:24:59Z</time></trkpt>
<trkpt lat="43.4631064" lon="6.9046238"><ele></ele><time>2022-5-30T23:25:2Z</time></trkpt>
<trkpt lat="43.4631336" lon="6.9046439"><ele></ele><time>2022-5-30T23:25:5Z</time></trkpt>
<trkpt lat="43.4631650" lon="6.9046720"><ele></ele><time>2022-5-30T23:25:8Z</time></trkpt>
<trkpt lat="43.4631966" lon="6.9047007"><ele></ele><time>2022-5-30T23:25:11Z</time></trkpt>
<trkpt lat="43.4632240" lon="6.9047287"><ele></ele><time>2022-5-30T23:25:14Z</time></trkpt>
<trkpt lat="43.4632499" lon="6.9047530"><ele></ele><time>2022-5-30T23:25:17Z</time></trkpt>
<trkpt lat="43.4632852" lon="6.9047824"><ele></ele><time>2022-5-30T23:25:20Z</time></trkpt>
<trkpt lat="43.4633062" lon="6.9048081"><ele></ele><time>2022-5-30T23:25:23Z</time></trkpt>
<trkpt lat="43.4633232" lon="6.9048233"><ele></ele><time>2022-5-30T23:25:26Z</time></trkpt>
<trkpt lat="43.4633443" lon="6.9048543"><ele></ele><time>2022-5-30T23:25:29Z</time></trkpt>
<trkpt lat="43.4633725" lon="6.9048726"><ele></ele><time>2022-5-30T23:25:32Z</time></trkpt>
<trkpt lat="43.4634010" lon="6.9048930"><ele></ele><time>2022-5-30T23:25:35Z</time></trkpt>
<trkpt lat="43.4634094" lon="6.9049340"><ele></ele><time>2022-5-30T23:25:38Z</time></trkpt>
<trkpt lat="43.4634212" lon="6.9049892"><ele></ele><time>2022-5-30T23:25:41Z</time></trkpt>
<trkpt lat="43.4634404" lon="6.9050300"><ele></ele><time>2022-5-30T23:25:44Z</time></trkpt>
<trkpt lat="43.4634519" lon="6.9050708"><ele></ele><time>2022-5-30T23:25:47Z</time></trkpt>
<trkpt lat="43.4634642" lon="6.9051080"><ele></ele><time>2022-5-30T23:25:50Z</time></trkpt>
<trkpt lat="43.4634721" lon="6.9051498"><ele></ele><time>2022-5-30T23:25:53Z</time></trkpt>
<trkpt lat="43.4634797" lon="6.9051907"><ele></ele><time>2022-5-30T23:25:56Z</time></trkpt>
<trkpt lat="43.4634934" lon="6.9052219"><ele></ele><time>2022-5-30T23:25:59Z</time></trkpt>
<trkpt lat="43.4634995" lon="6.9052540"><ele></ele><time>2022-5-30T23:26:2Z</time></trkpt>
<trkpt lat="43.4635052" lon="6.9052920"><ele></ele><time>2022-5-30T23:26:5Z</time></trkpt>
<trkpt lat="43.4635141" lon="6.9053290"><ele></ele><time>2022-5-30T23:26:8Z</time></trkpt>
<trkpt lat="43.4635225" lon="6.9053641"><ele></ele><time>2022-5-30T23:26:11Z</time></trkpt>
<trkpt lat="43.4635398" lon="6.9053915"><ele></ele><time>2022-5-30T23:26:14Z</time></trkpt>
<trkpt lat="43.4635551" lon="6.9054280"><ele></ele><time>2022-5-30T23:26:17Z</time></trkpt>
<trkpt lat="43.4635651" lon="6.9054680"><ele></ele><time>2022-5-30T23:26:20Z</time></trkpt>
<trkpt lat="43.4635741" lon="6.9055054"><ele></ele><time>2022-5-30T23:26:23Z</time></trkpt>
<trkpt lat="43.4635851" lon="6.9055358"><ele></ele><time>2022-5-30T23:26:26Z</time></trkpt>
<trkpt lat="43.4635943" lon="6.9055637"><ele></ele><time>2022-5-30T23:26:29Z</time></trkpt>
<trkpt lat="43.4636042" lon="6.9055895"><ele></ele><time>2022-5-30T23:26:32Z</time></trkpt>
<trkpt lat="43.4636128" lon="6.9056141"><ele></ele><time>2022-5-30T23:26:35Z</time></trkpt>
<trkpt lat="43.4636215" lon="6.9056369"><ele></ele><time>2022-5-30T23:26:38Z</time></trkpt>
<trkpt lat="43.4636282" lon="6.9056549"><ele></ele><time>2022-5-30T23:26:41Z</time></trkpt>
<trkpt lat="43.4636338" lon="6.9056668"><ele></ele><time>2022-5-30T23:26:44Z</time></trkpt>
<trkpt lat="43.4636430" lon="6.9056914"><ele></ele><time>2022-5-30T23:26:47Z</time></trkpt>
<trkpt lat="43.4636461" lon="6.9057217"><ele></ele><time>2022-5-30T23:26:50Z</time></trkpt>
<trkpt lat="43.4636506" lon="6.9057348"><ele></ele><time>2022-5-30T23:26:53Z</time></trkpt>
<trkpt lat="43.4636522" lon="6.9057360"><ele></ele><time>2022-5-30T23:26:56Z</time></trkpt>
<trkpt lat="43.4636549" lon="6.9057397"><ele></ele><time>2022-5-30T23:26:59Z</time></trkpt>
<trkpt lat="43.4636589" lon="6.9057510"><ele></ele><time>2022-5-30T23:27:2Z</time></trkpt>
<trkpt lat="43.4636593" lon="6.9057522"><ele></ele><time>2022-5-30T23:27:5Z</time></trkpt>
<trkpt lat="43.4636600" lon="6.9057575"><ele></ele><time>2022-5-30T23:27:8Z</time></trkpt>
<trkpt lat="43.4636617" lon="6.9057585"><ele></ele><time>2022-5-30T23:27:11Z</time></trkpt>
<trkpt lat="43.4636667" lon="6.9057688"><ele></ele><time>2022-5-30T23:27:14Z</time></trkpt>
<trkpt lat="43.4636719" lon="6.9057796"><ele></ele><time>2022-5-30T23:27:17Z</time></trkpt>
<trkpt lat="43.4636838" lon="6.9057832"><ele></ele><time>2022-5-30T23:27:20Z</time></trkpt>
<trkpt lat="43.4636998" lon="6.9057881"><ele></ele><time>2022-5-30T23:27:23Z</time></trkpt>
<trkpt lat="43.4637210" lon="6.9057960"><ele></ele><time>2022-5-30T23:27:26Z</time></trkpt>
<trkpt lat="43.4637414" lon="6.9058142"><ele></ele><time>2022-5-30T23:27:29Z</time></trkpt>
<trkpt lat="43.4637592" lon="6.9058240"><ele></ele><time>2022-5-30T23:27:32Z</time></trkpt>
<trkpt lat="43.4637750" lon="6.9058264"><ele></ele><time>2022-5-30T23:27:35Z</time></trkpt>
<trkpt lat="43.4637915" lon="6.9058374"><ele></ele><time>2022-5-30T23:27:38Z</time></trkpt>
<trkpt lat="43.4638020" lon="6.9058564"><ele></ele><time>2022-5-30T23:27:41Z</time></trkpt>
<trkpt lat="43.4638141" lon="6.9058864"><ele></ele><time>2022-5-30T23:27:44Z</time></trkpt>
<trkpt lat="43.4638161" lon="6.9059179"><ele></ele><time>2022-5-30T23:27:47Z</time></trkpt>
<trkpt lat="43.4638078" lon="6.9059453"><ele></ele><time>2022-5-30T23:27:50Z</time></trkpt>
<trkpt lat="43.4637999" lon="6.9059708"><ele></ele><time>2022-5-30T23:27:53Z</time></trkpt>
<trkpt lat="43.4637853" lon="6.9059955"><ele></ele><time>2022-5-30T23:27:56Z</time></trkpt>
<trkpt lat="43.4637643" lon="6.9060124"><ele></ele><time>2022-5-30T23:27:59Z</time></trkpt>
<trkpt lat="43.4637452" lon="6.9060189"><ele></ele><time>2022-5-30T23:28:2Z</time></trkpt>
<trkpt lat="43.4637293" lon="6.9060300"><ele></ele><time>2022-5-30T23:28:5Z</time></trkpt>
<trkpt lat="43.4637197" lon="6.9060576"><ele></ele><time>2022-5-30T23:28:8Z</time></trkpt>
<trkpt lat="43.4637155" lon="6.9060912"><ele></ele><time>2022-5-30T23:28:11Z</time></trkpt>
<trkpt lat="43.4637163" lon="6.9061303"><ele></ele><time>2022-5-30T23:28:14Z</time></trkpt>
<trkpt lat="43.4637166" lon="6.9061636"><ele></ele><time>2022-5-30T23:28:17Z</time></trkpt>
<trkpt lat="43.4637253" lon="6.9061969"><ele></ele><time>2022-5-30T23:28:20Z</time></trkpt>
<trkpt lat="43.4637296" lon="6.9062283"><ele></ele><time>2022-5-30T23:28:23Z</time></trkpt>
<trkpt lat="43.4637294" lon="6.9062528"><ele></ele><time>2022-5-30T23:28:26Z</time></trkpt>
<trkpt lat="43.4637274" lon="6.9062795"><ele></ele><time>2022-5-30T23:28:29Z</time></trkpt>
<trkpt lat="43.4637211" lon="6.9063043"><ele></ele><time>2022-5-30T23:28:32Z</time></trkpt>
<trkpt lat="43.4637193" lon="6.9063361"><ele></ele><time>2022-5-30T23:28:35Z</time></trkpt>
<trkpt lat="43.4637158" lon="6.9063698"><ele></ele><time>2022-5-30T23:28:38Z</time></trkpt>
<trkpt lat="43.4637104" lon="6.9063986"><ele></ele><time>2022-5-30T23:28:41Z</time></trkpt>
<trkpt lat="43.4637052" lon="6.9064231"><ele></ele><time>2022-5-30T23:28:44Z</time></trkpt>
<trkpt lat="43.4636984" lon="6.9064458"><ele></ele><time>2022-5-30T23:28:47Z</time></trkpt>
<trkpt lat="43.4636938" lon="6.9064796"><ele></ele><time>2022-5-30T23:28:50Z</time></trkpt>
<trkpt lat="43.4636921" lon="6.9065142"><ele></ele><time>2022-5-30T23:28:53Z</time></trkpt>
<trkpt lat="43.4636985" lon="6.9065514"><ele></ele><time>2022-5-30T23:28:56Z</time></trkpt>
<trkpt lat="43.4637099" lon="6.9065858"><ele></ele><time>2022-5-30T23:28:59Z</time></trkpt>
<trkpt lat="43.4637181" lon="6.9066165"><ele></ele><time>2022-5-30T23:29:2Z</time></trkpt>
<trkpt lat="43.4637175" lon="6.9066478"><ele></ele><time>2022-5-30T23:29:5Z</time></trkpt>
<trkpt lat="43.4637185" lon="6.9066756"><ele></ele><time>2022-5-30T23:29:8Z</time></trkpt>
<trkpt lat="43.4637207" lon="6.9067108"><ele></ele><time>2022-5-30T23:29:11Z</time></trkpt>
<trkpt lat="43.4637220" lon="6.9067412"><ele></ele><time>2022-5-30T23:29:14Z</time></trkpt>
<trkpt lat="43.4637232" lon="6.9067689"><ele></ele><time>2022-5-30T23:29:17Z</time></trkpt>
<trkpt lat="43.4637235" lon="6.9067804"><ele></ele><time>2022-5-30T23:29:20Z</time></trkpt>
<trkpt lat="43.4637233" lon="6.9067878"><ele></ele><time>2022-5-30T23:29:23Z</time></trkpt>
<trkpt lat="43.4637200" lon="6.9067895"><ele></ele><time>2022-5-30T23:29:26Z</time></trkpt>
<trkpt lat="43.4637186" lon="6.9067889"><ele></ele><time>2022-5-30T23:29:29Z</time></trkpt>
<trkpt lat="43.4637185" lon="6.9067881"><ele></ele><time>2022-5-30T23:29:32Z</time></trkpt>
<trkpt lat="43.4637183" lon="6.9067889"><ele></ele><time>2022-5-30T23:29:35Z</time></trkpt>
<trkpt lat="43.4637182" lon="6.9067889"><ele></ele><time>2022-5-30T23:29:38Z</time></trkpt>
<trkpt lat="43.4637182" lon="6.9067885"><ele></ele><time>2022-5-30T23:29:41Z</time></trkpt>
<trkpt lat="43.4637185" lon="6.9067881"><ele></ele><time>2022-5-30T23:29:44Z</time></trkpt>
<trkpt lat="43.4637186" lon="6.9067879"><ele></ele><time>2022-5-30T23:29:47Z</time></trkpt>
<trkpt lat="43.4637181" lon="6.9067941"><ele></ele><time>2022-5-30T23:29:50Z</time></trkpt>
<trkpt lat="43.4637188" lon="6.9068013"><ele></ele><time>2022-5-30T23:29:53Z</time></trkpt>
<trkpt lat="43.4637197" lon="6.9068159"><ele></ele><time>2022-5-30T23:29:56Z</time></trkpt>
<trkpt lat="43.4637145" lon="6.9068313"><ele></ele><time>2022-5-30T23:29:59Z</time></trkpt>
<trkpt lat="43.4637114" lon="6.9068399"><ele></ele><time>2022-5-30T23:30:2Z</time></trkpt>
<trkpt lat="43.4636939" lon="6.9068568"><ele></ele><time>2022-5-30T23:30:5Z</time></trkpt>
<trkpt lat="43.4636842" lon="6.9068836"><ele></ele><time>2022-5-30T23:30:8Z</time></trkpt>
<trkpt lat="43.4636890" lon="6.9069121"><ele></ele><time>2022-5-30T23:30:11Z</time></trkpt>
<trkpt lat="43.4637043" lon="6.9069211"><ele></ele><time>2022-5-30T23:30:14Z</time></trkpt>
<trkpt lat="43.4637079" lon="6.9069234"><ele></ele><time>2022-5-30T23:30:17Z</time></trkpt>
<trkpt lat="43.4637077" lon="6.9069244"><ele></ele><time>2022-5-30T23:30:20Z</time></trkpt>
<trkpt lat="43.4637076" lon="6.9069235"><ele></ele><time>2022-5-30T23:30:23Z</time></trkpt>
<trkpt lat="43.4637062" lon="6.9069230"><ele></ele><time>2022-5-30T23:30:26Z</time></trkpt>
<trkpt lat="43.4637061" lon="6.9069238"><ele></ele><time>2022-5-30T23:30:29Z</time></trkpt>
<trkpt lat="43.4637099" lon="6.9069341"><ele></ele><time>2022-5-30T23:30:32Z</time></trkpt>
<trkpt lat="43.4637103" lon="6.9069586"><ele></ele><time>2022-5-30T23:30:35Z</time></trkpt>
<trkpt lat="43.4637095" lon="6.9069902"><ele></ele><time>2022-5-30T23:30:38Z</time></trkpt>
<trkpt lat="43.4637110" lon="6.9070167"><ele></ele><time>2022-5-30T23:30:41Z</time></trkpt>
<trkpt lat="43.4637170" lon="6.9070442"><ele></ele><time>2022-5-30T23:30:44Z</time></trkpt>
<trkpt lat="43.4637216" lon="6.9070680"><ele></ele><time>2022-5-30T23:30:47Z</time></trkpt>
<trkpt lat="43.4637192" lon="6.9070895"><ele></ele><time>2022-5-30T23:30:50Z</time></trkpt>
<trkpt lat="43.4637182" lon="6.9071065"><ele></ele><time>2022-5-30T23:30:53Z</time></trkpt>
<trkpt lat="43.4637200" lon="6.9071263"><ele></ele><time>2022-5-30T23:30:56Z</time></trkpt>
<trkpt lat="43.4637290" lon="6.9071445"><ele></ele><time>2022-5-30T23:30:59Z</time></trkpt>
<trkpt lat="43.4637299" lon="6.9071636"><ele></ele><time>2022-5-30T23:31:2Z</time></trkpt>
<trkpt lat="43.4637245" lon="6.9071913"><ele></ele><time>2022-5-30T23:31:5Z</time></trkpt>
<trkpt lat="43.4637158" lon="6.9072231"><ele></ele><time>2022-5-30T23:31:8Z</time></trkpt>
<trkpt lat="43.4637138" lon="6.9072519"><ele></ele><time>2022-5-30T23:31:11Z</time></trkpt>
<trkpt lat="43.4637195" lon="6.9072794"><ele></ele><time>2022-5-30T23:31:14Z</time></trkpt>
<trkpt lat="43.4637247" lon="6.9073058"><ele></ele><time>2022-5-30T23:31:17Z</time></trkpt>
<trkpt lat="43.4637330" lon="6.9073311"><ele></ele><time>2022-5-30T23:31:20Z</time></trkpt>
<trkpt lat="43.4637363" lon="6.9073558"><ele></ele><time>2022-5-30T23:31:23Z</time></trkpt>
<trkpt lat="43.4637400" lon="6.9073821"><ele></ele><time>2022-5-30T23:31:26Z</time></trkpt>
<trkpt lat="43.4637473" lon="6.9074067"><ele></ele><time>2022-5-30T23:31:29Z</time></trkpt>
<trkpt lat="43.4637568" lon="6.9074360"><ele></ele><time>2022-5-30T23:31:32Z</time></trkpt>
<trkpt lat="43.4637765" lon="6.9074625"><ele></ele><time>2022-5-30T23:31:35Z</time></trkpt>
<trkpt lat="43.4637982" lon="6.9074780"><ele></ele><time>2022-5-30T23:31:38Z</time></trkpt>
<trkpt lat="43.4638208" lon="6.9075001"><ele></ele><time>2022-5-30T23:31:41Z</time></trkpt>
<trkpt lat="43.4638225" lon="6.9075319"><ele></ele><time>2022-5-30T23:31:44Z</time></trkpt>
<trkpt lat="43.4638222" lon="6.9075508"><ele></ele><time>2022-5-30T23:31:47Z</time></trkpt>
<trkpt lat="43.4638271" lon="6.9075708"><ele></ele><time>2022-5-30T23:31:50Z</time></trkpt>
<trkpt lat="43.4638363" lon="6.9075993"><ele></ele><time>2022-5-30T23:31:53Z</time></trkpt>
<trkpt lat="43.4638405" lon="6.9076216"><ele></ele><time>2022-5-30T23:31:56Z</time></trkpt>
<trkpt lat="43.4638381" lon="6.9076356"><ele></ele><time>2022-5-30T23:31:59Z</time></trkpt>
<trkpt lat="43.4638327" lon="6.9076534"><ele></ele><time>2022-5-30T23:32:2Z</time></trkpt>
<trkpt lat="43.4638341" lon="6.9076786"><ele></ele><time>2022-5-30T23:32:5Z</time></trkpt>
<trkpt lat="43.4638392" lon="6.9077135"><ele></ele><time>2022-5-30T23:32:8Z</time></trkpt>
<trkpt lat="43.4638420" lon="6.9077468"><ele></ele><time>2022-5-30T23:32:11Z</time></trkpt>
<trkpt lat="43.4638426" lon="6.9077756"><ele></ele><time>2022-5-30T23:32:14Z</time></trkpt>
<trkpt lat="43.4638419" lon="6.9077987"><ele></ele><time>2022-5-30T23:32:17Z</time></trkpt>
<trkpt lat="43.4638420" lon="6.9078256"><ele></ele><time>2022-5-30T23:32:20Z</time></trkpt>
<trkpt lat="43.4638458" lon="6.9078454"><ele></ele><time>2022-5-30T23:32:23Z</time></trkpt>
<trkpt lat="43.4638469" lon="6.9078679"><ele></ele><time>2022-5-30T23:32:26Z</time></trkpt>
<trkpt lat="43.4638432" lon="6.9078886"><ele></ele><time>2022-5-30T23:32:29Z</time></trkpt>
<trkpt lat="43.4638303" lon="6.9079101"><ele></ele><time>2022-5-30T23:32:32Z</time></trkpt>
<trkpt lat="43.4638144" lon="6.9079318"><ele></ele><time>2022-5-30T23:32:35Z</time></trkpt>
<trkpt lat="43.4638104" lon="6.9079539"><ele></ele><time>2022-5-30T23:32:38Z</time></trkpt>
<trkpt lat="43.4638071" lon="6.9079741"><ele></ele><time>2022-5-30T23:32:41Z</time></trkpt>
<trkpt lat="43.4638081" lon="6.9079989"><ele></ele><time>2022-5-30T23:32:44Z</time></trkpt>
<trkpt lat="43.4638188" lon="6.9080307"><ele></ele><time>2022-5-30T23:32:47Z</time></trkpt>
<trkpt lat="43.4638282" lon="6.9080549"><ele></ele><time>2022-5-30T23:32:50Z</time></trkpt>
<trkpt lat="43.4638347" lon="6.9080724"><ele></ele><time>2022-5-30T23:32:53Z</time></trkpt>
<trkpt lat="43.4638430" lon="6.9080976"><ele></ele><time>2022-5-30T23:32:56Z</time></trkpt>
<trkpt lat="43.4638536" lon="6.9081241"><ele></ele><time>2022-5-30T23:32:59Z</time></trkpt>
<trkpt lat="43.4638608" lon="6.9081459"><ele></ele><time>2022-5-30T23:33:2Z</time></trkpt>
<trkpt lat="43.4638685" lon="6.9081695"><ele></ele><time>2022-5-30T23:33:5Z</time></trkpt>
<trkpt lat="43.4638753" lon="6.9081948"><ele></ele><time>2022-5-30T23:33:8Z</time></trkpt>
<trkpt lat="43.4638753" lon="6.9082235"><ele></ele><time>2022-5-30T23:33:11Z</time></trkpt>
<trkpt lat="43.4638763" lon="6.9082500"><ele></ele><time>2022-5-30T23:33:14Z</time></trkpt>
<trkpt lat="43.4638710" lon="6.9082736"><ele></ele><time>2022-5-30T23:33:17Z</time></trkpt>
<trkpt lat="43.4638721" lon="6.9082965"><ele></ele><time>2022-5-30T23:33:20Z</time></trkpt>
<trkpt lat="43.4638713" lon="6.9083195"><ele></ele><time>2022-5-30T23:33:23Z</time></trkpt>
<trkpt lat="43.4638721" lon="6.9083460"><ele></ele><time>2022-5-30T23:33:26Z</time></trkpt>
<trkpt lat="43.4638723" lon="6.9083765"><ele></ele><time>2022-5-30T23:33:29Z</time></trkpt>
<trkpt lat="43.4638686" lon="6.9084020"><ele></ele><time>2022-5-30T23:33:32Z</time></trkpt>
<trkpt lat="43.4638637" lon="6.9084287"><ele></ele><time>2022-5-30T23:33:35Z</time></trkpt>
<trkpt lat="43.4638634" lon="6.9084530"><ele></ele><time>2022-5-30T23:33:38Z</time></trkpt>
<trkpt lat="43.4638678" lon="6.9084753"><ele></ele><time>2022-5-30T23:33:41Z</time></trkpt>
<trkpt lat="43.4638712" lon="6.9085044"><ele></ele><time>2022-5-30T23:33:44Z</time></trkpt>
<trkpt lat="43.4638750" lon="6.9085232"><ele></ele><time>2022-5-30T23:33:47Z</time></trkpt>
<trkpt lat="43.4638795" lon="6.9085439"><ele></ele><time>2022-5-30T23:33:50Z</time></trkpt>
<trkpt lat="43.4638859" lon="6.9085787"><ele></ele><time>2022-5-30T23:33:53Z</time></trkpt>
<trkpt lat="43.4638950" lon="6.9086099"><ele></ele><time>2022-5-30T23:33:56Z</time></trkpt>
<trkpt lat="43.4638946" lon="6.9086362"><ele></ele><time>2022-5-30T23:33:59Z</time></trkpt>
<trkpt lat="43.4638963" lon="6.9086594"><ele></ele><time>2022-5-30T23:34:2Z</time></trkpt>
<trkpt lat="43.4639041" lon="6.9086757"><ele></ele><time>2022-5-30T23:34:5Z</time></trkpt>
<trkpt lat="43.4639082" lon="6.9087007"><ele></ele><time>2022-5-30T23:34:8Z</time></trkpt>
<trkpt lat="43.4639190" lon="6.9087256"><ele></ele><time>2022-5-30T23:34:11Z</time></trkpt>
<trkpt lat="43.4639324" lon="6.9087632"><ele></ele><time>2022-5-30T23:34:14Z</time></trkpt>
<trkpt lat="43.4639354" lon="6.9087879"><ele></ele><time>2022-5-30T23:34:17Z</time></trkpt>
<trkpt lat="43.4639438" lon="6.9088071"><ele></ele><time>2022-5-30T23:34:20Z</time></trkpt>
<trkpt lat="43.4639477" lon="6.9088386"><ele></ele><time>2022-5-30T23:34:23Z</time></trkpt>
<trkpt lat="43.4639509" lon="6.9088647"><ele></ele><time>2022-5-30T23:34:26Z</time></trkpt>
<trkpt lat="43.4639467" lon="6.9088912"><ele></ele><time>2022-5-30T23:34:29Z</time></trkpt>
<trkpt lat="43.4639478" lon="6.9089127"><ele></ele><time>2022-5-30T23:34:32Z</time></trkpt>
<trkpt lat="43.4639509" lon="6.9089313"><ele></ele><time>2022-5-30T23:34:35Z</time></trkpt>
<trkpt lat="43.4639532" lon="6.9089480"><ele></ele><time>2022-5-30T23:34:38Z</time></trkpt>
<trkpt lat="43.4639636" lon="6.9089555"><ele></ele><time>2022-5-30T23:34:41Z</time></trkpt>
<trkpt lat="43.4639707" lon="6.9089550"><ele></ele><time>2022-5-30T23:34:44Z</time></trkpt>
<trkpt lat="43.4639703" lon="6.9089579"><ele></ele><time>2022-5-30T23:34:47Z</time></trkpt>
<trkpt lat="43.4639704" lon="6.9089625"><ele></ele><time>2022-5-30T23:34:50Z</time></trkpt>
<trkpt lat="43.4639690" lon="6.9089646"><ele></ele><time>2022-5-30T23:34:53Z</time></trkpt>
<trkpt lat="43.4639690" lon="6.9089648"><ele></ele><time>2022-5-30T23:34:56Z</time></trkpt>
<trkpt lat="43.4639694" lon="6.9089655"><ele></ele><time>2022-5-30T23:34:59Z</time></trkpt>
<trkpt lat="43.4639693" lon="6.9089662"><ele></ele><time>2022-5-30T23:35:2Z</time></trkpt>
<trkpt lat="43.4639734" lon="6.9089603"><ele></ele><time>2022-5-30T23:35:5Z</time></trkpt>
<trkpt lat="43.4639723" lon="6.9089576"><ele></ele><time>2022-5-30T23:35:8Z</time></trkpt>
<trkpt lat="43.4639720" lon="6.9089561"><ele></ele><time>2022-5-30T23:35:11Z</time></trkpt>
<trkpt lat="43.4639721" lon="6.9089557"><ele></ele><time>2022-5-30T23:35:14Z</time></trkpt>
<trkpt lat="43.4639720" lon="6.9089556"><ele></ele><time>2022-5-30T23:35:17Z</time></trkpt>
<trkpt lat="43.4639720" lon="6.9089555"><ele></ele><time>2022-5-30T23:35:20Z</time></trkpt>
<trkpt lat="43.4639720" lon="6.9089555"><ele></ele><time>2022-5-30T23:35:23Z</time></trkpt>
<trkpt lat="43.4639723" lon="6.9089556"><ele></ele><time>2022-5-30T23:35:26Z</time></trkpt>
<trkpt lat="43.4639726" lon="6.9089564"><ele></ele><time>2022-5-30T23:35:29Z</time></trkpt>
<trkpt lat="43.4639751" lon="6.9089637"><ele></ele><time>2022-5-30T23:35:32Z</time></trkpt>
<trkpt lat="43.4639774" lon="6.9089674"><ele></ele><time>2022-5-30T23:35:35Z</time></trkpt>
<trkpt lat="43.4639804" lon="6.9089736"><ele></ele><time>2022-5-30T23:35:38Z</time></trkpt>
<trkpt lat="43.4639839" lon="6.9089804"><ele></ele><time>2022-5-30T23:35:41Z</time></trkpt>
<trkpt lat="43.4639849" lon="6.9089845"><ele></ele><time>2022-5-30T23:35:44Z</time></trkpt>
<trkpt lat="43.4639861" lon="6.9089881"><ele></ele><time>2022-5-30T23:35:47Z</time></trkpt>
<trkpt lat="43.4639886" lon="6.9090045"><ele></ele><time>2022-5-30T23:35:50Z</time></trkpt>
<trkpt lat="43.4639885" lon="6.9090140"><ele></ele><time>2022-5-30T23:35:53Z</time></trkpt>
<trkpt lat="43.4639916" lon="6.9090226"><ele></ele><time>2022-5-30T23:35:56Z</time></trkpt>
<trkpt lat="43.4639946" lon="6.9090262"><ele></ele><time>2022-5-30T23:35:59Z</time></trkpt>
<trkpt lat="43.4639947" lon="6.9090263"><ele></ele><time>2022-5-30T23:36:2Z</time></trkpt>
<trkpt lat="43.4639977" lon="6.9090307"><ele></ele><time>2022-5-30T23:36:5Z</time></trkpt>
<trkpt lat="43.4639953" lon="6.9090253"><ele></ele><time>2022-5-30T23:36:8Z</time></trkpt>
<trkpt lat="43.4639949" lon="6.9090237"><ele></ele><time>2022-5-30T23:36:11Z</time></trkpt>
<trkpt lat="43.4639947" lon="6.9090238"><ele></ele><time>2022-5-30T23:36:14Z</time></trkpt>
<trkpt lat="43.4639946" lon="6.9090241"><ele></ele><time>2022-5-30T23:36:17Z</time></trkpt>
<trkpt lat="43.4639942" lon="6.9090241"><ele></ele><time>2022-5-30T23:36:20Z</time></trkpt>
<trkpt lat="43.4639939" lon="6.9090241"><ele></ele><time>2022-5-30T23:36:23Z</time></trkpt>
<trkpt lat="43.4639929" lon="6.9090238"><ele></ele><time>2022-5-30T23:36:26Z</time></trkpt>
<trkpt lat="43.4639940" lon="6.9090257"><ele></ele><time>2022-5-30T23:36:29Z</time></trkpt>
<trkpt lat="43.4639942" lon="6.9090277"><ele></ele><time>2022-5-30T23:36:32Z</time></trkpt>
<trkpt lat="43.4639907" lon="6.9090226"><ele></ele><time>2022-5-30T23:36:35Z</time></trkpt>
<trkpt lat="43.4639924" lon="6.9090180"><ele></ele><time>2022-5-30T23:36:38Z</time></trkpt>
<trkpt lat="43.4639928" lon="6.9090207"><ele></ele><time>2022-5-30T23:36:41Z</time></trkpt>
<trkpt lat="43.4639931" lon="6.9090438"><ele></ele><time>2022-5-30T23:36:44Z</time></trkpt>
<trkpt lat="43.4639908" lon="6.9090586"><ele></ele><time>2022-5-30T23:36:47Z</time></trkpt>
<trkpt lat="43.4639904" lon="6.9090729"><ele></ele><time>2022-5-30T23:36:50Z</time></trkpt>
<trkpt lat="43.4639863" lon="6.9090850"><ele></ele><time>2022-5-30T23:36:53Z</time></trkpt>
<trkpt lat="43.4639805" lon="6.9091024"><ele></ele><time>2022-5-30T23:36:56Z</time></trkpt>
<trkpt lat="43.4639735" lon="6.9091207"><ele></ele><time>2022-5-30T23:36:59Z</time></trkpt>
<trkpt lat="43.4639606" lon="6.9091373"><ele></ele><time>2022-5-30T23:37:2Z</time></trkpt>
<trkpt lat="43.4639518" lon="6.9091397"><ele></ele><time>2022-5-30T23:37:5Z</time></trkpt>
<trkpt lat="43.4639473" lon="6.9091154"><ele></ele><time>2022-5-30T23:37:8Z</time></trkpt>
<trkpt lat="43.4639541" lon="6.9091172"><ele></ele><time>2022-5-30T23:37:11Z</time></trkpt>
<trkpt lat="43.4639546" lon="6.9091137"><ele></ele><time>2022-5-30T23:37:14Z</time></trkpt>
<trkpt lat="43.4639556" lon="6.9091164"><ele></ele><time>2022-5-30T23:37:17Z</time></trkpt>
<trkpt lat="43.4639552" lon="6.9091166"><ele></ele><time>2022-5-30T23:37:20Z</time></trkpt>
<trkpt lat="43.4639548" lon="6.9091168"><ele></ele><time>2022-5-30T23:37:23Z</time></trkpt>
<trkpt lat="43.4639544" lon="6.9091174"><ele></ele><time>2022-5-30T23:37:26Z</time></trkpt>
<trkpt lat="43.4639530" lon="6.9091176"><ele></ele><time>2022-5-30T23:37:29Z</time></trkpt>
<trkpt lat="43.4639459" lon="6.9091216"><ele></ele><time>2022-5-30T23:37:32Z</time></trkpt>
<trkpt lat="43.4639349" lon="6.9091278"><ele></ele><time>2022-5-30T23:37:35Z</time></trkpt>
<trkpt lat="43.4639248" lon="6.9091326"><ele></ele><time>2022-5-30T23:37:38Z</time></trkpt>
<trkpt lat="43.4639048" lon="6.9091448"><ele></ele><time>2022-5-30T23:37:41Z</time></trkpt>
<trkpt lat="43.4639022" lon="6.9091474"><ele></ele><time>2022-5-30T23:37:44Z</time></trkpt>
<trkpt lat="43.4639022" lon="6.9091475"><ele></ele><time>2022-5-30T23:37:47Z</time></trkpt>
<trkpt lat="43.4639018" lon="6.9091479"><ele></ele><time>2022-5-30T23:37:50Z</time></trkpt>
<trkpt lat="43.4639017" lon="6.9091484"><ele></ele><time>2022-5-30T23:37:53Z</time></trkpt>
<trkpt lat="43.4639012" lon="6.9091490"><ele></ele><time>2022-5-30T23:37:56Z</time></trkpt>
<trkpt lat="43.4639008" lon="6.9091495"><ele></ele><time>2022-5-30T23:37:59Z</time></trkpt>
<trkpt lat="43.4639003" lon="6.9091497"><ele></ele><time>2022-5-30T23:38:2Z</time></trkpt>
<trkpt lat="43.4638999" lon="6.9091500"><ele></ele><time>2022-5-30T23:38:5Z</time></trkpt>
<trkpt lat="43.4638989" lon="6.9091504"><ele></ele><time>2022-5-30T23:38:8Z</time></trkpt>
<trkpt lat="43.4638985" lon="6.9091505"><ele></ele><time>2022-5-30T23:38:11Z</time></trkpt>
<trkpt lat="43.4638981" lon="6.9091505"><ele></ele><time>2022-5-30T23:38:14Z</time></trkpt>
<trkpt lat="43.4638978" lon="6.9091506"><ele></ele><time>2022-5-30T23:38:17Z</time></trkpt>
<trkpt lat="43.4638972" lon="6.9091508"><ele></ele><time>2022-5-30T23:38:20Z</time></trkpt>
<trkpt lat="43.4638969" lon="6.9091510"><ele></ele><time>2022-5-30T23:38:23Z</time></trkpt>
<trkpt lat="43.4638967" lon="6.9091510"><ele></ele><time>2022-5-30T23:38:26Z</time></trkpt>
<trkpt lat="43.4638963" lon="6.9091513"><ele></ele><time>2022-5-30T23:38:29Z</time></trkpt>
<trkpt lat="43.4638957" lon="6.9091515"><ele></ele><time>2022-5-30T23:38:32Z</time></trkpt>
<trkpt lat="43.4638956" lon="6.9091515"><ele></ele><time>2022-5-30T23:38:35Z</time></trkpt>
<trkpt lat="43.4638953" lon="6.9091515"><ele></ele><time>2022-5-30T23:38:38Z</time></trkpt>
<trkpt lat="43.4638952" lon="6.9091514"><ele></ele><time>2022-5-30T23:38:41Z</time></trkpt>
<trkpt lat="43.4638954" lon="6.9091512"><ele></ele><time>2022-5-30T23:38:44Z</time></trkpt>
<trkpt lat="43.4638958" lon="6.9091509"><ele></ele><time>2022-5-30T23:38:47Z</time></trkpt>
<trkpt lat="43.4638950" lon="6.9091520"><ele></ele><time>2022-5-30T23:38:50Z</time></trkpt>
<trkpt lat="43.4638969" lon="6.9091519"><ele></ele><time>2022-5-30T23:38:53Z</time></trkpt>
<trkpt lat="43.4639018" lon="6.9091496"><ele></ele><time>2022-5-30T23:38:56Z</time></trkpt>
<trkpt lat="43.4638994" lon="6.9091568"><ele></ele><time>2022-5-30T23:38:59Z</time></trkpt>
<trkpt lat="43.4638912" lon="6.9091660"><ele></ele><time>2022-5-30T23:39:2Z</time></trkpt>
<trkpt lat="43.4638825" lon="6.9091809"><ele></ele><time>2022-5-30T23:39:5Z</time></trkpt>
<trkpt lat="43.4638813" lon="6.9091879"><ele></ele><time>2022-5-30T23:39:8Z</time></trkpt>
<trkpt lat="43.4638822" lon="6.9092007"><ele></ele><time>2022-5-30T23:39:11Z</time></trkpt>
<trkpt lat="43.4638847" lon="6.9092170"><ele></ele><time>2022-5-30T23:39:14Z</time></trkpt>
<trkpt lat="43.4638897" lon="6.9092267"><ele></ele><time>2022-5-30T23:39:17Z</time></trkpt>
<trkpt lat="43.4638973" lon="6.9092336"><ele></ele><time>2022-5-30T23:39:20Z</time></trkpt>
<trkpt lat="43.4639095" lon="6.9092463"><ele></ele><time>2022-5-30T23:39:23Z</time></trkpt>
<trkpt lat="43.4639163" lon="6.9092517"><ele></ele><time>2022-5-30T23:39:26Z</time></trkpt>
<trkpt lat="43.4639250" lon="6.9092591"><ele></ele><time>2022-5-30T23:39:29Z</time></trkpt>
<trkpt lat="43.4639332" lon="6.9092680"><ele></ele><time>2022-5-30T23:39:32Z</time></trkpt>
<trkpt lat="43.4639428" lon="6.9092766"><ele></ele><time>2022-5-30T23:39:35Z</time></trkpt>
<trkpt lat="43.4639552" lon="6.9092858"><ele></ele><time>2022-5-30T23:39:38Z</time></trkpt>
<trkpt lat="43.4639670" lon="6.9092923"><ele></ele><time>2022-5-30T23:39:41Z</time></trkpt>
<trkpt lat="43.4639803" lon="6.9093016"><ele></ele><time>2022-5-30T23:39:44Z</time></trkpt>
<trkpt lat="43.4639906" lon="6.9093105"><ele></ele><time>2022-5-30T23:39:47Z</time></trkpt>
<trkpt lat="43.4640009" lon="6.9093226"><ele></ele><time>2022-5-30T23:39:50Z</time></trkpt>
<trkpt lat="43.4640165" lon="6.9093377"><ele></ele><time>2022-5-30T23:39:53Z</time></trkpt>
<trkpt lat="43.4640318" lon="6.9093469"><ele></ele><time>2022-5-30T23:39:56Z</time></trkpt>
<trkpt lat="43.4640466" lon="6.9093511"><ele></ele><time>2022-5-30T23:39:59Z</time></trkpt>
<trkpt lat="43.4640611" lon="6.9093565"><ele></ele><time>2022-5-30T23:40:2Z</time></trkpt>
<trkpt lat="43.4640730" lon="6.9093616"><ele></ele><time>2022-5-30T23:40:5Z</time></trkpt>
<trkpt lat="43.4640852" lon="6.9093659"><ele></ele><time>2022-5-30T23:40:8Z</time></trkpt>
<trkpt lat="43.4641039" lon="6.9093678"><ele></ele><time>2022-5-30T23:40:11Z</time></trkpt>
<trkpt lat="43.4641185" lon="6.9093676"><ele></ele><time>2022-5-30T23:40:14Z</time></trkpt>
<trkpt lat="43.4641346" lon="6.9093630"><ele></ele><time>2022-5-30T23:40:17Z</time></trkpt>
<trkpt lat="43.4641473" lon="6.9093573"><ele></ele><time>2022-5-30T23:40:20Z</time></trkpt>
<trkpt lat="43.4641609" lon="6.9093542"><ele></ele><time>2022-5-30T23:40:23Z</time></trkpt>
<trkpt lat="43.4641794" lon="6.9093442"><ele></ele><time>2022-5-30T23:40:26Z</time></trkpt>
<trkpt lat="43.4641991" lon="6.9093314"><ele></ele><time>2022-5-30T23:40:29Z</time></trkpt>
<trkpt lat="43.4642083" lon="6.9093283"><ele></ele><time>2022-5-30T23:40:32Z</time></trkpt>
<trkpt lat="43.4642273" lon="6.9093182"><ele></ele><time>2022-5-30T23:40:35Z</time></trkpt>
<trkpt lat="43.4642394" lon="6.9093111"><ele></ele><time>2022-5-30T23:40:38Z</time></trkpt>
<trkpt lat="43.4642497" lon="6.9093033"><ele></ele><time>2022-5-30T23:40:41Z</time></trkpt>
<trkpt lat="43.4642552" lon="6.9092908"><ele></ele><time>2022-5-30T23:40:44Z</time></trkpt>
<trkpt lat="43.4642602" lon="6.9092668"><ele></ele><time>2022-5-30T23:40:47Z</time></trkpt>
<trkpt lat="43.4642612" lon="6.9092463"><ele></ele><time>2022-5-30T23:40:50Z</time></trkpt>
<trkpt lat="43.4642717" lon="6.9092256"><ele></ele><time>2022-5-30T23:40:53Z</time></trkpt>
<trkpt lat="43.4642794" lon="6.9092123"><ele></ele><time>2022-5-30T23:40:56Z</time></trkpt>
<trkpt lat="43.4642871" lon="6.9091964"><ele></ele><time>2022-5-30T23:40:59Z</time></trkpt>
<trkpt lat="43.4642874" lon="6.9091800"><ele></ele><time>2022-5-30T23:41:2Z</time></trkpt>
<trkpt lat="43.4642848" lon="6.9091636"><ele></ele><time>2022-5-30T23:41:5Z</time></trkpt>
<trkpt lat="43.4642842" lon="6.9091619"><ele></ele><time>2022-5-30T23:41:8Z</time></trkpt>
<trkpt lat="43.4642830" lon="6.9091640"><ele></ele><time>2022-5-30T23:41:11Z</time></trkpt>
<trkpt lat="43.4642834" lon="6.9091697"><ele></ele><time>2022-5-30T23:41:14Z</time></trkpt>
<trkpt lat="43.4642830" lon="6.9091681"><ele></ele><time>2022-5-30T23:41:17Z</time></trkpt>
<trkpt lat="43.4642829" lon="6.9091677"><ele></ele><time>2022-5-30T23:41:20Z</time></trkpt>
<trkpt lat="43.4642830" lon="6.9091678"><ele></ele><time>2022-5-30T23:41:23Z</time></trkpt>
<trkpt lat="43.4642830" lon="6.9091678"><ele></ele><time>2022-5-30T23:41:26Z</time></trkpt>
<trkpt lat="43.4642831" lon="6.9091676"><ele></ele><time>2022-5-30T23:41:29Z</time></trkpt>
<trkpt lat="43.4642832" lon="6.9091671"><ele></ele><time>2022-5-30T23:41:32Z</time></trkpt>
<trkpt lat="43.4642845" lon="6.9091667"><ele></ele><time>2022-5-30T23:41:35Z</time></trkpt>
<trkpt lat="43.4642794" lon="6.9091495"><ele></ele><time>2022-5-30T23:41:38Z</time></trkpt>
<trkpt lat="43.4642797" lon="6.9091226"><ele></ele><time>2022-5-30T23:41:41Z</time></trkpt>
<trkpt lat="43.4642886" lon="6.9091034"><ele></ele><time>2022-5-30T23:41:44Z</time></trkpt>
<trkpt lat="43.4642984" lon="6.9090765"><ele></ele><time>2022-5-30T23:41:47Z</time></trkpt>
<trkpt lat="43.4643069" lon="6.9090465"><ele></ele><time>2022-5-30T23:41:50Z</time></trkpt>
<trkpt lat="43.4643141" lon="6.9090110"><ele></ele><time>2022-5-30T23:41:53Z</time></trkpt>
<trkpt lat="43.4643228" lon="6.9089824"><ele></ele><time>2022-5-30T23:41:56Z</time></trkpt>
<trkpt lat="43.4643299" lon="6.9089565"><ele></ele><time>2022-5-30T23:41:59Z</time></trkpt>
<trkpt lat="43.4643384" lon="6.9089327"><ele></ele><time>2022-5-30T23:42:2Z</time></trkpt>
<trkpt lat="43.4643431" lon="6.9089118"><ele></ele><time>2022-5-30T23:42:5Z</time></trkpt>
<trkpt lat="43.4643492" lon="6.9088960"><ele></ele><time>2022-5-30T23:42:8Z</time></trkpt>
<trkpt lat="43.4643543" lon="6.9088789"><ele></ele><time>2022-5-30T23:42:11Z</time></trkpt>
<trkpt lat="43.4643590" lon="6.9088561"><ele></ele><time>2022-5-30T23:42:14Z</time></trkpt>
<trkpt lat="43.4643649" lon="6.9088294"><ele></ele><time>2022-5-30T23:42:17Z</time></trkpt>
<trkpt lat="43.4643676" lon="6.9088105"><ele></ele><time>2022-5-30T23:42:20Z</time></trkpt>
<trkpt lat="43.4643717" lon="6.9087881"><ele></ele><time>2022-5-30T23:42:23Z</time></trkpt>
<trkpt lat="43.4643716" lon="6.9087745"><ele></ele><time>2022-5-30T23:42:26Z</time></trkpt>
<trkpt lat="43.4643707" lon="6.9087547"><ele></ele><time>2022-5-30T23:42:29Z</time></trkpt>
<trkpt lat="43.4643713" lon="6.9087262"><ele></ele><time>2022-5-30T23:42:32Z</time></trkpt>
<trkpt lat="43.4643725" lon="6.9087010"><ele></ele><time>2022-5-30T23:42:35Z</time></trkpt>
<trkpt lat="43.4643720" lon="6.9086811"><ele></ele><time>2022-5-30T23:42:38Z</time></trkpt>
<trkpt lat="43.4643722" lon="6.9086657"><ele></ele><time>2022-5-30T23:42:41Z</time></trkpt>
<trkpt lat="43.4643733" lon="6.9086478"><ele></ele><time>2022-5-30T23:42:44Z</time></trkpt>
<trkpt lat="43.4643751" lon="6.9086305"><ele></ele><time>2022-5-30T23:42:47Z</time></trkpt>
<trkpt lat="43.4643754" lon="6.9086096"><ele></ele><time>2022-5-30T23:42:50Z</time></trkpt>
<trkpt lat="43.4643755" lon="6.9085964"><ele></ele><time>2022-5-30T23:42:53Z</time></trkpt>
<trkpt lat="43.4643762" lon="6.9085769"><ele></ele><time>2022-5-30T23:42:56Z</time></trkpt>
<trkpt lat="43.4643780" lon="6.9085570"><ele></ele><time>2022-5-30T23:42:59Z</time></trkpt>
<trkpt lat="43.4643781" lon="6.9085442"><ele></ele><time>2022-5-30T23:43:2Z</time></trkpt>
<trkpt lat="43.4643825" lon="6.9085167"><ele></ele><time>2022-5-30T23:43:5Z</time></trkpt>
<trkpt lat="43.4643846" lon="6.9084935"><ele></ele><time>2022-5-30T23:43:8Z</time></trkpt>
<trkpt lat="43.4643864" lon="6.9084667"><ele></ele><time>2022-5-30T23:43:11Z</time></trkpt>
<trkpt lat="43.4643898" lon="6.9084338"><ele></ele><time>2022-5-30T23:43:14Z</time></trkpt>
<trkpt lat="43.4643937" lon="6.9084107"><ele></ele><time>2022-5-30T23:43:17Z</time></trkpt>
<trkpt lat="43.4644000" lon="6.9083835"><ele></ele><time>2022-5-30T23:43:20Z</time></trkpt>
<trkpt lat="43.4644057" lon="6.9083602"><ele></ele><time>2022-5-30T23:43:23Z</time></trkpt>
<trkpt lat="43.4644091" lon="6.9083417"><ele></ele><time>2022-5-30T23:43:26Z</time></trkpt>
<trkpt lat="43.4644146" lon="6.9083219"><ele></ele><time>2022-5-30T23:43:29Z</time></trkpt>
<trkpt lat="43.4644200" lon="6.9083056"><ele></ele><time>2022-5-30T23:43:32Z</time></trkpt>
<trkpt lat="43.4644263" lon="6.9082794"><ele></ele><time>2022-5-30T23:43:35Z</time></trkpt>
<trkpt lat="43.4644288" lon="6.9082545"><ele></ele><time>2022-5-30T23:43:38Z</time></trkpt>
<trkpt lat="43.4644306" lon="6.9082278"><ele></ele><time>2022-5-30T23:43:41Z</time></trkpt>
<trkpt lat="43.4644304" lon="6.9082126"><ele></ele><time>2022-5-30T23:43:44Z</time></trkpt>
<trkpt lat="43.4644289" lon="6.9081960"><ele></ele><time>2022-5-30T23:43:47Z</time></trkpt>
<trkpt lat="43.4644299" lon="6.9081819"><ele></ele><time>2022-5-30T23:43:50Z</time></trkpt>
<trkpt lat="43.4644309" lon="6.9081619"><ele></ele><time>2022-5-30T23:43:53Z</time></trkpt>
<trkpt lat="43.4644300" lon="6.9081324"><ele></ele><time>2022-5-30T23:43:56Z</time></trkpt>
<trkpt lat="43.4644311" lon="6.9081100"><ele></ele><time>2022-5-30T23:43:59Z</time></trkpt>
<trkpt lat="43.4644340" lon="6.9080995"><ele></ele><time>2022-5-30T23:44:2Z</time></trkpt>
<trkpt lat="43.4644412" lon="6.9080766"><ele></ele><time>2022-5-30T23:44:5Z</time></trkpt>
<trkpt lat="43.4644459" lon="6.9080566"><ele></ele><time>2022-5-30T23:44:8Z</time></trkpt>
<trkpt lat="43.4644498" lon="6.9080392"><ele></ele><time>2022-5-30T23:44:11Z</time></trkpt>
<trkpt lat="43.4644509" lon="6.9080237"><ele></ele><time>2022-5-30T23:44:14Z</time></trkpt>
<trkpt lat="43.4644541" lon="6.9080020"><ele></ele><time>2022-5-30T23:44:17Z</time></trkpt>
<trkpt lat="43.4644565" lon="6.9079749"><ele></ele><time>2022-5-30T23:44:20Z</time></trkpt>
<trkpt lat="43.4644608" lon="6.9079572"><ele></ele><time>2022-5-30T23:44:23Z</time></trkpt>
<trkpt lat="43.4644662" lon="6.9079310"><ele></ele><time>2022-5-30T23:44:26Z</time></trkpt>
<trkpt lat="43.4644694" lon="6.9079041"><ele></ele><time>2022-5-30T23:44:29Z</time></trkpt>
<trkpt lat="43.4644716" lon="6.9078704"><ele></ele><time>2022-5-30T23:44:32Z</time></trkpt>
<trkpt lat="43.4644680" lon="6.9078522"><ele></ele><time>2022-5-30T23:44:35Z</time></trkpt>
<trkpt lat="43.4644671" lon="6.9078446"><ele></ele><time>2022-5-30T23:44:38Z</time></trkpt>
<trkpt lat="43.4644680" lon="6.9078379"><ele></ele><time>2022-5-30T23:44:41Z</time></trkpt>
<trkpt lat="43.4644732" lon="6.9078322"><ele></ele><time>2022-5-30T23:44:44Z</time></trkpt>
<trkpt lat="43.4644798" lon="6.9078121"><ele></ele><time>2022-5-30T23:44:47Z</time></trkpt>
<trkpt lat="43.4644847" lon="6.9078042"><ele></ele><time>2022-5-30T23:44:50Z</time></trkpt>
<trkpt lat="43.4644844" lon="6.9077763"><ele></ele><time>2022-5-30T23:44:53Z</time></trkpt>
<trkpt lat="43.4644861" lon="6.9077530"><ele></ele><time>2022-5-30T23:44:56Z</time></trkpt>
<trkpt lat="43.4644865" lon="6.9077267"><ele></ele><time>2022-5-30T23:44:59Z</time></trkpt>
<trkpt lat="43.4644841" lon="6.9077125"><ele></ele><time>2022-5-30T23:45:2Z</time></trkpt>
<trkpt lat="43.4644863" lon="6.9076942"><ele></ele><time>2022-5-30T23:45:5Z</time></trkpt>
<trkpt lat="43.4644891" lon="6.9076772"><ele></ele><time>2022-5-30T23:45:8Z</time></trkpt>
<trkpt lat="43.4644947" lon="6.9076595"><ele></ele><time>2022-5-30T23:45:11Z</time></trkpt>
<trkpt lat="43.4645013" lon="6.9076442"><ele></ele><time>2022-5-30T23:45:14Z</time></trkpt>
<trkpt lat="43.4645051" lon="6.9076239"><ele></ele><time>2022-5-30T23:45:17Z</time></trkpt>
<trkpt lat="43.4645084" lon="6.9075987"><ele></ele><time>2022-5-30T23:45:20Z</time></trkpt>
<trkpt lat="43.4645185" lon="6.9075778"><ele></ele><time>2022-5-30T23:45:23Z</time></trkpt>
<trkpt lat="43.4645264" lon="6.9075660"><ele></ele><time>2022-5-30T23:45:26Z</time></trkpt>
<trkpt lat="43.4645272" lon="6.9075553"><ele></ele><time>2022-5-30T23:45:29Z</time></trkpt>
<trkpt lat="43.4645227" lon="6.9075371"><ele></ele><time>2022-5-30T23:45:32Z</time></trkpt>
<trkpt lat="43.4645253" lon="6.9075201"><ele></ele><time>2022-5-30T23:45:35Z</time></trkpt>
<trkpt lat="43.4645361" lon="6.9074945"><ele></ele><time>2022-5-30T23:45:38Z</time></trkpt>
<trkpt lat="43.4645433" lon="6.9074753"><ele></ele><time>2022-5-30T23:45:41Z</time></trkpt>
<trkpt lat="43.4645564" lon="6.9074444"><ele></ele><time>2022-5-30T23:45:44Z</time></trkpt>
<trkpt lat="43.4645707" lon="6.9074291"><ele></ele><time>2022-5-30T23:45:47Z</time></trkpt>
<trkpt lat="43.4645740" lon="6.9074196"><ele></ele><time>2022-5-30T23:45:50Z</time></trkpt>
<trkpt lat="43.4645673" lon="6.9074064"><ele></ele><time>2022-5-30T23:45:53Z</time></trkpt>
<trkpt lat="43.4645555" lon="6.9073716"><ele></ele><time>2022-5-30T23:45:56Z</time></trkpt>
<trkpt lat="43.4645572" lon="6.9073467"><ele></ele><time>2022-5-30T23:45:59Z</time></trkpt>
<trkpt lat="43.4645664" lon="6.9073157"><ele></ele><time>2022-5-30T23:46:2Z</time></trkpt>
<trkpt lat="43.4645774" lon="6.9072958"><ele></ele><time>2022-5-30T23:46:5Z</time></trkpt>
<trkpt lat="43.4645839" lon="6.9072886"><ele></ele><time>2022-5-30T23:46:8Z</time></trkpt>
<trkpt lat="43.4645866" lon="6.9072873"><ele></ele><time>2022-5-30T23:46:11Z</time></trkpt>
<trkpt lat="43.4645886" lon="6.9072719"><ele></ele><time>2022-5-30T23:46:14Z</time></trkpt>
<trkpt lat="43.4645874" lon="6.9072677"><ele></ele><time>2022-5-30T23:46:17Z</time></trkpt>
<trkpt lat="43.4645909" lon="6.9072605"><ele></ele><time>2022-5-30T23:46:20Z</time></trkpt>
<trkpt lat="43.4645896" lon="6.9072562"><ele></ele><time>2022-5-30T23:46:23Z</time></trkpt>
<trkpt lat="43.4645866" lon="6.9072622"><ele></ele><time>2022-5-30T23:46:26Z</time></trkpt>
<trkpt lat="43.4645845" lon="6.9072610"><ele></ele><time>2022-5-30T23:46:29Z</time></trkpt>
<trkpt lat="43.4645936" lon="6.9072587"><ele></ele><time>2022-5-30T23:46:32Z</time></trkpt>
<trkpt lat="43.4645944" lon="6.9072560"><ele></ele><time>2022-5-30T23:46:35Z</time></trkpt>
<trkpt lat="43.4645939" lon="6.9072557"><ele></ele><time>2022-5-30T23:46:38Z</time></trkpt>
<trkpt lat="43.4645939" lon="6.9072554"><ele></ele><time>2022-5-30T23:46:41Z</time></trkpt>
<trkpt lat="43.4645943" lon="6.9072550"><ele></ele><time>2022-5-30T23:46:44Z</time></trkpt>
<trkpt lat="43.4645947" lon="6.9072546"><ele></ele><time>2022-5-30T23:46:47Z</time></trkpt>
<trkpt lat="43.4645949" lon="6.9072545"><ele></ele><time>2022-5-30T23:46:50Z</time></trkpt>
<trkpt lat="43.4645952" lon="6.9072546"><ele></ele><time>2022-5-30T23:46:53Z</time></trkpt>
<trkpt lat="43.4645950" lon="6.9072548"><ele></ele><time>2022-5-30T23:46:56Z</time></trkpt>
<trkpt lat="43.4645953" lon="6.9072548"><ele></ele><time>2022-5-30T23:46:59Z</time></trkpt>
<trkpt lat="43.4645954" lon="6.9072549"><ele></ele><time>2022-5-30T23:47:2Z</time></trkpt>
<trkpt lat="43.4645956" lon="6.9072549"><ele></ele><time>2022-5-30T23:47:5Z</time></trkpt>
<trkpt lat="43.4645958" lon="6.9072550"><ele></ele><time>2022-5-30T23:47:8Z</time></trkpt>
<trkpt lat="43.4645966" lon="6.9072549"><ele></ele><time>2022-5-30T23:47:11Z</time></trkpt>
<trkpt lat="43.4645974" lon="6.9072555"><ele></ele><time>2022-5-30T23:47:14Z</time></trkpt>
<trkpt lat="43.4645989" lon="6.9072558"><ele></ele><time>2022-5-30T23:47:17Z</time></trkpt>
<trkpt lat="43.4645991" lon="6.9072560"><ele></ele><time>2022-5-30T23:47:20Z</time></trkpt>
<trkpt lat="43.4645990" lon="6.9072563"><ele></ele><time>2022-5-30T23:47:23Z</time></trkpt>
<trkpt lat="43.4645992" lon="6.9072564"><ele></ele><time>2022-5-30T23:47:26Z</time></trkpt>
<trkpt lat="43.4645989" lon="6.9072566"><ele></ele><time>2022-5-30T23:47:29Z</time></trkpt>
<trkpt lat="43.4645992" lon="6.9072572"><ele></ele><time>2022-5-30T23:47:32Z</time></trkpt>
<trkpt lat="43.4645997" lon="6.9072581"><ele></ele><time>2022-5-30T23:47:35Z</time></trkpt>
<trkpt lat="43.4646046" lon="6.9072564"><ele></ele><time>2022-5-30T23:47:38Z</time></trkpt>
<trkpt lat="43.4646107" lon="6.9072532"><ele></ele><time>2022-5-30T23:47:41Z</time></trkpt>
<trkpt lat="43.4646131" lon="6.9072447"><ele></ele><time>2022-5-30T23:47:44Z</time></trkpt>
<trkpt lat="43.4646145" lon="6.9072413"><ele></ele><time>2022-5-30T23:47:47Z</time></trkpt>
<trkpt lat="43.4646163" lon="6.9072280"><ele></ele><time>2022-5-30T23:47:50Z</time></trkpt>
<trkpt lat="43.4646221" lon="6.9072118"><ele></ele><time>2022-5-30T23:47:53Z</time></trkpt>
<trkpt lat="43.4646227" lon="6.9071925"><ele></ele><time>2022-5-30T23:47:56Z</time></trkpt>
<trkpt lat="43.4646245" lon="6.9071766"><ele></ele><time>2022-5-30T23:47:59Z</time></trkpt>
<trkpt lat="43.4646337" lon="6.9071559"><ele></ele><time>2022-5-30T23:48:2Z</time></trkpt>
<trkpt lat="43.4646431" lon="6.9071243"><ele></ele><time>2022-5-30T23:48:5Z</time></trkpt>
<trkpt lat="43.4646497" lon="6.9070959"><ele></ele><time>2022-5-30T23:48:8Z</time></trkpt>
<trkpt lat="43.4646603" lon="6.9070731"><ele></ele><time>2022-5-30T23:48:11Z</time></trkpt>
<trkpt lat="43.4646772" lon="6.9070588"><ele></ele><time>2022-5-30T23:48:14Z</time></trkpt>
<trkpt lat="43.4646893" lon="6.9070409"><ele></ele><time>2022-5-30T23:48:17Z</time></trkpt>
<trkpt lat="43.4646990" lon="6.9070176"><ele></ele><time>2022-5-30T23:48:20Z</time></trkpt>
<trkpt lat="43.4647019" lon="6.9070052"><ele></ele><time>2022-5-30T23:48:23Z</time></trkpt>
<trkpt lat="43.4647049" lon="6.9069968"><ele></ele><time>2022-5-30T23:48:26Z</time></trkpt>
<trkpt lat="43.4646961" lon="6.9070049"><ele></ele><time>2022-5-30T23:48:29Z</time></trkpt>
<trkpt lat="43.4646955" lon="6.9070051"><ele></ele><time>2022-5-30T23:48:32Z</time></trkpt>
<trkpt lat="43.4646951" lon="6.9070049"><ele></ele><time>2022-5-30T23:48:35Z</time></trkpt>
<trkpt lat="43.4646949" lon="6.9070048"><ele></ele><time>2022-5-30T23:48:38Z</time></trkpt>
<trkpt lat="43.4646947" lon="6.9070048"><ele></ele><time>2022-5-30T23:48:41Z</time></trkpt>
<trkpt lat="43.4646945" lon="6.9070048"><ele></ele><time>2022-5-30T23:48:44Z</time></trkpt>
<trkpt lat="43.4646944" lon="6.9070046"><ele></ele><time>2022-5-30T23:48:47Z</time></trkpt>
<trkpt lat="43.4646926" lon="6.9070053"><ele></ele><time>2022-5-30T23:48:50Z</time></trkpt>
<trkpt lat="43.4646917" lon="6.9070049"><ele></ele><time>2022-5-30T23:48:53Z</time></trkpt>
<trkpt lat="43.4646903" lon="6.9070062"><ele></ele><time>2022-5-30T23:48:56Z</time></trkpt>
<trkpt lat="43.4646901" lon="6.9070061"><ele></ele><time>2022-5-30T23:48:59Z</time></trkpt>
<trkpt lat="43.4646894" lon="6.9070062"><ele></ele><time>2022-5-30T23:49:2Z</time></trkpt>
<trkpt lat="43.4646888" lon="6.9070066"><ele></ele><time>2022-5-30T23:49:5Z</time></trkpt>
<trkpt lat="43.4646882" lon="6.9070069"><ele></ele><time>2022-5-30T23:49:8Z</time></trkpt>
<trkpt lat="43.4646879" lon="6.9070073"><ele></ele><time>2022-5-30T23:49:11Z</time></trkpt>
<trkpt lat="43.4646874" lon="6.9070078"><ele></ele><time>2022-5-30T23:49:14Z</time></trkpt>
<trkpt lat="43.4646877" lon="6.9070091"><ele></ele><time>2022-5-30T23:49:17Z</time></trkpt>
<trkpt lat="43.4646916" lon="6.9069978"><ele></ele><time>2022-5-30T23:49:20Z</time></trkpt>
<trkpt lat="43.4646934" lon="6.9069901"><ele></ele><time>2022-5-30T23:49:23Z</time></trkpt>
<trkpt lat="43.4646942" lon="6.9069883"><ele></ele><time>2022-5-30T23:49:26Z</time></trkpt>
<trkpt lat="43.4646937" lon="6.9069894"><ele></ele><time>2022-5-30T23:49:29Z</time></trkpt>
<trkpt lat="43.4646929" lon="6.9069897"><ele></ele><time>2022-5-30T23:49:32Z</time></trkpt>
<trkpt lat="43.4646921" lon="6.9069902"><ele></ele><time>2022-5-30T23:49:35Z</time></trkpt>
<trkpt lat="43.4646915" lon="6.9069913"><ele></ele><time>2022-5-30T23:49:38Z</time></trkpt>
<trkpt lat="43.4646911" lon="6.9069919"><ele></ele><time>2022-5-30T23:49:41Z</time></trkpt>
<trkpt lat="43.4646910" lon="6.9069919"><ele></ele><time>2022-5-30T23:49:44Z</time></trkpt>
<trkpt lat="43.4646910" lon="6.9069916"><ele></ele><time>2022-5-30T23:49:47Z</time></trkpt>
<trkpt lat="43.4646908" lon="6.9069917"><ele></ele><time>2022-5-30T23:49:50Z</time></trkpt>
<trkpt lat="43.4646906" lon="6.9069918"><ele></ele><time>2022-5-30T23:49:53Z</time></trkpt>
<trkpt lat="43.4646900" lon="6.9069931"><ele></ele><time>2022-5-30T23:49:56Z</time></trkpt>
<trkpt lat="43.4646898" lon="6.9069931"><ele></ele><time>2022-5-30T23:49:59Z</time></trkpt>
<trkpt lat="43.4646896" lon="6.9069934"><ele></ele><time>2022-5-30T23:50:2Z</time></trkpt>
<trkpt lat="43.4646883" lon="6.9069953"><ele></ele><time>2022-5-30T23:50:5Z</time></trkpt>
<trkpt lat="43.4646869" lon="6.9069961"><ele></ele><time>2022-5-30T23:50:8Z</time></trkpt>
<trkpt lat="43.4646856" lon="6.9069984"><ele></ele><time>2022-5-30T23:50:11Z</time></trkpt>
<trkpt lat="43.4646892" lon="6.9069911"><ele></ele><time>2022-5-30T23:50:14Z</time></trkpt>
<trkpt lat="43.4646959" lon="6.9069722"><ele></ele><time>2022-5-30T23:50:17Z</time></trkpt>
<trkpt lat="43.4647042" lon="6.9069514"><ele></ele><time>2022-5-30T23:50:20Z</time></trkpt>
<trkpt lat="43.4647181" lon="6.9069380"><ele></ele><time>2022-5-30T23:50:23Z</time></trkpt>
<trkpt lat="43.4647408" lon="6.9069153"><ele></ele><time>2022-5-30T23:50:26Z</time></trkpt>
<trkpt lat="43.4647583" lon="6.9068970"><ele></ele><time>2022-5-30T23:50:29Z</time></trkpt>
<trkpt lat="43.4647819" lon="6.9068721"><ele></ele><time>2022-5-30T23:50:32Z</time></trkpt>
<trkpt lat="43.4647982" lon="6.9068607"><ele></ele><time>2022-5-30T23:50:35Z</time></trkpt>
<trkpt lat="43.4648206" lon="6.9068463"><ele></ele><time>2022-5-30T23:50:38Z</time></trkpt>
<trkpt lat="43.4648391" lon="6.9068479"><ele></ele><time>2022-5-30T23:50:41Z</time></trkpt>
<trkpt lat="43.4648662" lon="6.9068388"><ele></ele><time>2022-5-30T23:50:44Z</time></trkpt>
<trkpt lat="43.4648950" lon="6.9068245"><ele></ele><time>2022-5-30T23:50:47Z</time></trkpt>
<trkpt lat="43.4649055" lon="6.9068229"><ele></ele><time>2022-5-30T23:50:50Z</time></trkpt>
<trkpt lat="43.4649296" lon="6.9068135"><ele></ele><time>2022-5-30T23:50:53Z</time></trkpt>
<trkpt lat="43.4649415" lon="6.9068075"><ele></ele><time>2022-5-30T23:50:56Z</time></trkpt>
<trkpt lat="43.4649594" lon="6.9068013"><ele></ele><time>2022-5-30T23:50:59Z</time></trkpt>
<trkpt lat="43.4649804" lon="6.9067992"><ele></ele><time>2022-5-30T23:51:2Z</time></trkpt>
<trkpt lat="43.4650030" lon="6.9067970"><ele></ele><time>2022-5-30T23:51:5Z</time></trkpt>
<trkpt lat="43.4650263" lon="6.9067872"><ele></ele><time>2022-5-30T23:51:8Z</time></trkpt>
<trkpt lat="43.4650501" lon="6.9067695"><ele></ele><time>2022-5-30T23:51:11Z</time></trkpt>
<trkpt lat="43.4650714" lon="6.9067506"><ele></ele><time>2022-5-30T23:51:14Z</time></trkpt>
<trkpt lat="43.4650901" lon="6.9067456"><ele></ele><time>2022-5-30T23:51:17Z</time></trkpt>
<trkpt lat="43.4651087" lon="6.9067427"><ele></ele><time>2022-5-30T23:51:20Z</time></trkpt>
<trkpt lat="43.4651270" lon="6.9067417"><ele></ele><time>2022-5-30T23:51:23Z</time></trkpt>
<trkpt lat="43.4651451" lon="6.9067449"><ele></ele><time>2022-5-30T23:51:26Z</time></trkpt>
<trkpt lat="43.4651644" lon="6.9067387"><ele></ele><time>2022-5-30T23:51:29Z</time></trkpt>
<trkpt lat="43.4651847" lon="6.9067336"><ele></ele><time>2022-5-30T23:51:32Z</time></trkpt>
<trkpt lat="43.4652035" lon="6.9067320"><ele></ele><time>2022-5-30T23:51:35Z</time></trkpt>
<trkpt lat="43.4652216" lon="6.9067273"><ele></ele><time>2022-5-30T23:51:38Z</time></trkpt>
<trkpt lat="43.4652391" lon="6.9067244"><ele></ele><time>2022-5-30T23:51:41Z</time></trkpt>
<trkpt lat="43.4652599" lon="6.9067236"><ele></ele><time>2022-5-30T23:51:44Z</time></trkpt>
<trkpt lat="43.4652769" lon="6.9067272"><ele></ele><time>2022-5-30T23:51:47Z</time></trkpt>
<trkpt lat="43.4652905" lon="6.9067260"><ele></ele><time>2022-5-30T23:51:50Z</time></trkpt>
<trkpt lat="43.4653038" lon="6.9067257"><ele></ele><time>2022-5-30T23:51:53Z</time></trkpt>
<trkpt lat="43.4653165" lon="6.9067271"><ele></ele><time>2022-5-30T23:51:56Z</time></trkpt>
<trkpt lat="43.4653343" lon="6.9067292"><ele></ele><time>2022-5-30T23:51:59Z</time></trkpt>
<trkpt lat="43.4653477" lon="6.9067276"><ele></ele><time>2022-5-30T23:52:2Z</time></trkpt>
<trkpt lat="43.4653652" lon="6.9067240"><ele></ele><time>2022-5-30T23:52:5Z</time></trkpt>
<trkpt lat="43.4653849" lon="6.9067201"><ele></ele><time>2022-5-30T23:52:8Z</time></trkpt>
<trkpt lat="43.4654023" lon="6.9067249"><ele></ele><time>2022-5-30T23:52:11Z</time></trkpt>
<trkpt lat="43.4654163" lon="6.9067322"><ele></ele><time>2022-5-30T23:52:14Z</time></trkpt>
<trkpt lat="43.4654240" lon="6.9067428"><ele></ele><time>2022-5-30T23:52:17Z</time></trkpt>
<trkpt lat="43.4654325" lon="6.9067441"><ele></ele><time>2022-5-30T23:52:20Z</time></trkpt>
<trkpt lat="43.4654493" lon="6.9067396"><ele></ele><time>2022-5-30T23:52:23Z</time></trkpt>
<trkpt lat="43.4654616" lon="6.9067403"><ele></ele><time>2022-5-30T23:52:26Z</time></trkpt>
<trkpt lat="43.4654701" lon="6.9067414"><ele></ele><time>2022-5-30T23:52:29Z</time></trkpt>
<trkpt lat="43.4654839" lon="6.9067400"><ele></ele><time>2022-5-30T23:52:32Z</time></trkpt>
<trkpt lat="43.4655023" lon="6.9067425"><ele></ele><time>2022-5-30T23:52:35Z</time></trkpt>
<trkpt lat="43.4655181" lon="6.9067467"><ele></ele><time>2022-5-30T23:52:38Z</time></trkpt>
<trkpt lat="43.4655354" lon="6.9067462"><ele></ele><time>2022-5-30T23:52:41Z</time></trkpt>
<trkpt lat="43.4655559" lon="6.9067416"><ele></ele><time>2022-5-30T23:52:44Z</time></trkpt>
<trkpt lat="43.4655730" lon="6.9067418"><ele></ele><time>2022-5-30T23:52:47Z</time></trkpt>
<trkpt lat="43.4655890" lon="6.9067407"><ele></ele><time>2022-5-30T23:52:50Z</time></trkpt>
<trkpt lat="43.4656051" lon="6.9067377"><ele></ele><time>2022-5-30T23:52:53Z</time></trkpt>
<trkpt lat="43.4656221" lon="6.9067381"><ele></ele><time>2022-5-30T23:52:56Z</time></trkpt>
<trkpt lat="43.4656361" lon="6.9067411"><ele></ele><time>2022-5-30T23:52:59Z</time></trkpt>
<trkpt lat="43.4656522" lon="6.9067461"><ele></ele><time>2022-5-30T23:53:2Z</time></trkpt>
<trkpt lat="43.4656677" lon="6.9067456"><ele></ele><time>2022-5-30T23:53:5Z</time></trkpt>
<trkpt lat="43.4656865" lon="6.9067430"><ele></ele><time>2022-5-30T23:53:8Z</time></trkpt>
<trkpt lat="43.4657055" lon="6.9067407"><ele></ele><time>2022-5-30T23:53:11Z</time></trkpt>
<trkpt lat="43.4657223" lon="6.9067391"><ele></ele><time>2022-5-30T23:53:14Z</time></trkpt>
<trkpt lat="43.4657461" lon="6.9067378"><ele></ele><time>2022-5-30T23:53:17Z</time></trkpt>
<trkpt lat="43.4657664" lon="6.9067403"><ele></ele><time>2022-5-30T23:53:20Z</time></trkpt>
<trkpt lat="43.4657787" lon="6.9067437"><ele></ele><time>2022-5-30T23:53:23Z</time></trkpt>
<trkpt lat="43.4657953" lon="6.9067508"><ele></ele><time>2022-5-30T23:53:26Z</time></trkpt>
<trkpt lat="43.4658108" lon="6.9067547"><ele></ele><time>2022-5-30T23:53:29Z</time></trkpt>
<trkpt lat="43.4658241" lon="6.9067526"><ele></ele><time>2022-5-30T23:53:32Z</time></trkpt>
<trkpt lat="43.4658412" lon="6.9067497"><ele></ele><time>2022-5-30T23:53:35Z</time></trkpt>
<trkpt lat="43.4658532" lon="6.9067485"><ele></ele><time>2022-5-30T23:53:38Z</time></trkpt>
<trkpt lat="43.4658662" lon="6.9067476"><ele></ele><time>2022-5-30T23:53:41Z</time></trkpt>
<trkpt lat="43.4658793" lon="6.9067517"><ele></ele><time>2022-5-30T23:53:44Z</time></trkpt>
<trkpt lat="43.4658949" lon="6.9067561"><ele></ele><time>2022-5-30T23:53:47Z</time></trkpt>
<trkpt lat="43.4659153" lon="6.9067621"><ele></ele><time>2022-5-30T23:53:50Z</time></trkpt>
<trkpt lat="43.4659361" lon="6.9067673"><ele></ele><time>2022-5-30T23:53:53Z</time></trkpt>
<trkpt lat="43.4659539" lon="6.9067700"><ele></ele><time>2022-5-30T23:53:56Z</time></trkpt>
<trkpt lat="43.4659758" lon="6.9067680"><ele></ele><time>2022-5-30T23:53:59Z</time></trkpt>
<trkpt lat="43.4660001" lon="6.9067673"><ele></ele><time>2022-5-30T23:54:2Z</time></trkpt>
<trkpt lat="43.4660192" lon="6.9067684"><ele></ele><time>2022-5-30T23:54:5Z</time></trkpt>
<trkpt lat="43.4660348" lon="6.9067736"><ele></ele><time>2022-5-30T23:54:8Z</time></trkpt>
<trkpt lat="43.4660427" lon="6.9067785"><ele></ele><time>2022-5-30T23:54:11Z</time></trkpt>
<trkpt lat="43.4660556" lon="6.9067853"><ele></ele><time>2022-5-30T23:54:14Z</time></trkpt>
<trkpt lat="43.4660699" lon="6.9067906"><ele></ele><time>2022-5-30T23:54:17Z</time></trkpt>
<trkpt lat="43.4660818" lon="6.9067937"><ele></ele><time>2022-5-30T23:54:20Z</time></trkpt>
<trkpt lat="43.4660978" lon="6.9068092"><ele></ele><time>2022-5-30T23:54:23Z</time></trkpt>
<trkpt lat="43.4661154" lon="6.9068264"><ele></ele><time>2022-5-30T23:54:26Z</time></trkpt>
<trkpt lat="43.4661372" lon="6.9068317"><ele></ele><time>2022-5-30T23:54:29Z</time></trkpt>
<trkpt lat="43.4661582" lon="6.9068350"><ele></ele><time>2022-5-30T23:54:32Z</time></trkpt>
<trkpt lat="43.4661780" lon="6.9068499"><ele></ele><time>2022-5-30T23:54:35Z</time></trkpt>
<trkpt lat="43.4661999" lon="6.9068690"><ele></ele><time>2022-5-30T23:54:38Z</time></trkpt>
<trkpt lat="43.4662149" lon="6.9068837"><ele></ele><time>2022-5-30T23:54:41Z</time></trkpt>
<trkpt lat="43.4662328" lon="6.9068956"><ele></ele><time>2022-5-30T23:54:44Z</time></trkpt>
<trkpt lat="43.4662521" lon="6.9069056"><ele></ele><time>2022-5-30T23:54:47Z</time></trkpt>
<trkpt lat="43.4662683" lon="6.9069101"><ele></ele><time>2022-5-30T23:54:50Z</time></trkpt>
<trkpt lat="43.4662847" lon="6.9069131"><ele></ele><time>2022-5-30T23:54:53Z</time></trkpt>
<trkpt lat="43.4663015" lon="6.9069196"><ele></ele><time>2022-5-30T23:54:56Z</time></trkpt>
<trkpt lat="43.4663191" lon="6.9069302"><ele></ele><time>2022-5-30T23:54:59Z</time></trkpt>
<trkpt lat="43.4663373" lon="6.9069451"><ele></ele><time>2022-5-30T23:55:2Z</time></trkpt>
<trkpt lat="43.4663513" lon="6.9069565"><ele></ele><time>2022-5-30T23:55:5Z</time></trkpt>
<trkpt lat="43.4663664" lon="6.9069657"><ele></ele><time>2022-5-30T23:55:8Z</time></trkpt>
<trkpt lat="43.4663832" lon="6.9069751"><ele></ele><time>2022-5-30T23:55:11Z</time></trkpt>
<trkpt lat="43.4663983" lon="6.9069777"><ele></ele><time>2022-5-30T23:55:14Z</time></trkpt>
<trkpt lat="43.4664131" lon="6.9069791"><ele></ele><time>2022-5-30T23:55:17Z</time></trkpt>
<trkpt lat="43.4664367" lon="6.9069731"><ele></ele><time>2022-5-30T23:55:20Z</time></trkpt>
<trkpt lat="43.4664544" lon="6.9069726"><ele></ele><time>2022-5-30T23:55:23Z</time></trkpt>
<trkpt lat="43.4664676" lon="6.9069739"><ele></ele><time>2022-5-30T23:55:26Z</time></trkpt>
<trkpt lat="43.4664903" lon="6.9069736"><ele></ele><time>2022-5-30T23:55:29Z</time></trkpt>
<trkpt lat="43.4665137" lon="6.9069736"><ele></ele><time>2022-5-30T23:55:32Z</time></trkpt>
<trkpt lat="43.4665400" lon="6.9069810"><ele></ele><time>2022-5-30T23:55:35Z</time></trkpt>
<trkpt lat="43.4665615" lon="6.9069933"><ele></ele><time>2022-5-30T23:55:38Z</time></trkpt>
<trkpt lat="43.4665834" lon="6.9069942"><ele></ele><time>2022-5-30T23:55:41Z</time></trkpt>
<trkpt lat="43.4666045" lon="6.9069855"><ele></ele><time>2022-5-30T23:55:44Z</time></trkpt>
<trkpt lat="43.4666337" lon="6.9069797"><ele></ele><time>2022-5-30T23:55:47Z</time></trkpt>
<trkpt lat="43.4666536" lon="6.9069805"><ele></ele><time>2022-5-30T23:55:50Z</time></trkpt>
<trkpt lat="43.4666751" lon="6.9069901"><ele></ele><time>2022-5-30T23:55:53Z</time></trkpt>
<trkpt lat="43.4666971" lon="6.9070000"><ele></ele><time>2022-5-30T23:55:56Z</time></trkpt>
<trkpt lat="43.4667227" lon="6.9070003"><ele></ele><time>2022-5-30T23:55:59Z</time></trkpt>
<trkpt lat="43.4667490" lon="6.9069886"><ele></ele><time>2022-5-30T23:56:2Z</time></trkpt>
<trkpt lat="43.4667766" lon="6.9069763"><ele></ele><time>2022-5-30T23:56:5Z</time></trkpt>
<trkpt lat="43.4667963" lon="6.9069755"><ele></ele><time>2022-5-30T23:56:8Z</time></trkpt>
<trkpt lat="43.4668185" lon="6.9069759"><ele></ele><time>2022-5-30T23:56:11Z</time></trkpt>
<trkpt lat="43.4668383" lon="6.9069733"><ele></ele><time>2022-5-30T23:56:14Z</time></trkpt>
<trkpt lat="43.4668641" lon="6.9069681"><ele></ele><time>2022-5-30T23:56:17Z</time></trkpt>
<trkpt lat="43.4668899" lon="6.9069657"><ele></ele><time>2022-5-30T23:56:20Z</time></trkpt>
<trkpt lat="43.4669168" lon="6.9069694"><ele></ele><time>2022-5-30T23:56:23Z</time></trkpt>
<trkpt lat="43.4669489" lon="6.9069647"><ele></ele><time>2022-5-30T23:56:26Z</time></trkpt>
<trkpt lat="43.4669694" lon="6.9069720"><ele></ele><time>2022-5-30T23:56:29Z</time></trkpt>
<trkpt lat="43.4669960" lon="6.9069737"><ele></ele><time>2022-5-30T23:56:32Z</time></trkpt>
<trkpt lat="43.4670218" lon="6.9069732"><ele></ele><time>2022-5-30T23:56:35Z</time></trkpt>
<trkpt lat="43.4670410" lon="6.9069737"><ele></ele><time>2022-5-30T23:56:38Z</time></trkpt>
<trkpt lat="43.4670614" lon="6.9069753"><ele></ele><time>2022-5-30T23:56:41Z</time></trkpt>
<trkpt lat="43.4670858" lon="6.9069708"><ele></ele><time>2022-5-30T23:56:44Z</time></trkpt>
<trkpt lat="43.4671082" lon="6.9069662"><ele></ele><time>2022-5-30T23:56:47Z</time></trkpt>
<trkpt lat="43.4671268" lon="6.9069665"><ele></ele><time>2022-5-30T23:56:50Z</time></trkpt>
<trkpt lat="43.4671428" lon="6.9069467"><ele></ele><time>2022-5-30T23:56:53Z</time></trkpt>
<trkpt lat="43.4671614" lon="6.9069231"><ele></ele><time>2022-5-30T23:56:56Z</time></trkpt>
<trkpt lat="43.4671745" lon="6.9069003"><ele></ele><time>2022-5-30T23:56:59Z</time></trkpt>
<trkpt lat="43.4671900" lon="6.9068727"><ele></ele><time>2022-5-30T23:57:2Z</time></trkpt>
<trkpt lat="43.4671940" lon="6.9068471"><ele></ele><time>2022-5-30T23:57:5Z</time></trkpt>
<trkpt lat="43.4672009" lon="6.9068207"><ele></ele><time>2022-5-30T23:57:8Z</time></trkpt>
<trkpt lat="43.4672050" lon="6.9067909"><ele></ele><time>2022-5-30T23:57:11Z</time></trkpt>
<trkpt lat="43.4672119" lon="6.9067551"><ele></ele><time>2022-5-30T23:57:14Z</time></trkpt>
<trkpt lat="43.4672154" lon="6.9067232"><ele></ele><time>2022-5-30T23:57:17Z</time></trkpt>
<trkpt lat="43.4672204" lon="6.9066862"><ele></ele><time>2022-5-30T23:57:20Z</time></trkpt>
<trkpt lat="43.4672211" lon="6.9066497"><ele></ele><time>2022-5-30T23:57:23Z</time></trkpt>
<trkpt lat="43.4672193" lon="6.9066141"><ele></ele><time>2022-5-30T23:57:26Z</time></trkpt>
<trkpt lat="43.4672159" lon="6.9065752"><ele></ele><time>2022-5-30T23:57:29Z</time></trkpt>
<trkpt lat="43.4672113" lon="6.9065403"><ele></ele><time>2022-5-30T23:57:32Z</time></trkpt>
<trkpt lat="43.4672003" lon="6.9065068"><ele></ele><time>2022-5-30T23:57:35Z</time></trkpt>
<trkpt lat="43.4671786" lon="6.9064705"><ele></ele><time>2022-5-30T23:57:38Z</time></trkpt>
<trkpt lat="43.4671663" lon="6.9064437"><ele></ele><time>2022-5-30T23:57:41Z</time></trkpt>
<trkpt lat="43.4671574" lon="6.9064130"><ele></ele><time>2022-5-30T23:57:44Z</time></trkpt>
<trkpt lat="43.4671378" lon="6.9063819"><ele></ele><time>2022-5-30T23:57:47Z</time></trkpt>
<trkpt lat="43.4671235" lon="6.9063681"><ele></ele><time>2022-5-30T23:57:50Z</time></trkpt>
<trkpt lat="43.4671038" lon="6.9063490"><ele></ele><time>2022-5-30T23:57:53Z</time></trkpt>
<trkpt lat="43.4670899" lon="6.9063237"><ele></ele><time>2022-5-30T23:57:56Z</time></trkpt>
<trkpt lat="43.4670784" lon="6.9063019"><ele></ele><time>2022-5-30T23:57:59Z</time></trkpt>
<trkpt lat="43.4670700" lon="6.9062824"><ele></ele><time>2022-5-30T23:58:2Z</time></trkpt>
<trkpt lat="43.4670630" lon="6.9062463"><ele></ele><time>2022-5-30T23:58:5Z</time></trkpt>
<trkpt lat="43.4670519" lon="6.9062160"><ele></ele><time>2022-5-30T23:58:8Z</time></trkpt>
<trkpt lat="43.4670343" lon="6.9061895"><ele></ele><time>2022-5-30T23:58:11Z</time></trkpt>
<trkpt lat="43.4670165" lon="6.9061599"><ele></ele><time>2022-5-30T23:58:14Z</time></trkpt>
<trkpt lat="43.4670047" lon="6.9061337"><ele></ele><time>2022-5-30T23:58:17Z</time></trkpt>
<trkpt lat="43.4669904" lon="6.9061070"><ele></ele><time>2022-5-30T23:58:20Z</time></trkpt>
<trkpt lat="43.4669749" lon="6.9060786"><ele></ele><time>2022-5-30T23:58:23Z</time></trkpt>
<trkpt lat="43.4669642" lon="6.9060598"><ele></ele><time>2022-5-30T23:58:26Z</time></trkpt>
<trkpt lat="43.4669609" lon="6.9060359"><ele></ele><time>2022-5-30T23:58:29Z</time></trkpt>
<trkpt lat="43.4669474" lon="6.9060079"><ele></ele><time>2022-5-30T23:58:32Z</time></trkpt>
<trkpt lat="43.4669331" lon="6.9059793"><ele></ele><time>2022-5-30T23:58:35Z</time></trkpt>
<trkpt lat="43.4669241" lon="6.9059449"><ele></ele><time>2022-5-30T23:58:38Z</time></trkpt>
<trkpt lat="43.4669087" lon="6.9059104"><ele></ele><time>2022-5-30T23:58:41Z</time></trkpt>
<trkpt lat="43.4668954" lon="6.9058827"><ele></ele><time>2022-5-30T23:58:44Z</time></trkpt>
<trkpt lat="43.4668820" lon="6.9058603"><ele></ele><time>2022-5-30T23:58:47Z</time></trkpt>
<trkpt lat="43.4668692" lon="6.9058326"><ele></ele><time>2022-5-30T23:58:50Z</time></trkpt>
<trkpt lat="43.4668559" lon="6.9058060"><ele></ele><time>2022-5-30T23:58:53Z</time></trkpt>
<trkpt lat="43.4668427" lon="6.9057774"><ele></ele><time>2022-5-30T23:58:56Z</time></trkpt>
<trkpt lat="43.4668289" lon="6.9057450"><ele></ele><time>2022-5-30T23:58:59Z</time></trkpt>
<trkpt lat="43.4668191" lon="6.9057132"><ele></ele><time>2022-5-30T23:59:2Z</time></trkpt>
<trkpt lat="43.4668094" lon="6.9056864"><ele></ele><time>2022-5-30T23:59:5Z</time></trkpt>
<trkpt lat="43.4668003" lon="6.9056717"><ele></ele><time>2022-5-30T23:59:8Z</time></trkpt>
<trkpt lat="43.4667860" lon="6.9056473"><ele></ele><time>2022-5-30T23:59:11Z</time></trkpt>
<trkpt lat="43.4667757" lon="6.9056212"><ele></ele><time>2022-5-30T23:59:14Z</time></trkpt>
<trkpt lat="43.4667673" lon="6.9056009"><ele></ele><time>2022-5-30T23:59:17Z</time></trkpt>
<trkpt lat="43.4667608" lon="6.9055720"><ele></ele><time>2022-5-30T23:59:20Z</time></trkpt>
<trkpt lat="43.4667518" lon="6.9055466"><ele></ele><time>2022-5-30T23:59:23Z</time></trkpt>
<trkpt lat="43.4667396" lon="6.9055194"><ele></ele><time>2022-5-30T23:59:26Z</time></trkpt>
<trkpt lat="43.4667265" lon="6.9054943"><ele></ele><time>2022-5-30T23:59:29Z</time></trkpt>
<trkpt lat="43.4667140" lon="6.9054693"><ele></ele><time>2022-5-30T23:59:32Z</time></trkpt>
<trkpt lat="43.4667037" lon="6.9054416"><ele></ele><time>2022-5-30T23:59:35Z</time></trkpt>
<trkpt lat="43.4666952" lon="6.9054138"><ele></ele><time>2022-5-30T23:59:38Z</time></trkpt>
<trkpt lat="43.4666838" lon="6.9053885"><ele></ele><time>2022-5-30T23:59:41Z</time></trkpt>
<trkpt lat="43.4666747" lon="6.9053655"><ele></ele><time>2022-5-30T23:59:44Z</time></trkpt>
<trkpt lat="43.4666615" lon="6.9053405"><ele></ele><time>2022-5-30T23:59:47Z</time></trkpt>
<trkpt lat="43.4666443" lon="6.9053159"><ele></ele><time>2022-5-30T23:59:50Z</time></trkpt>
<trkpt lat="43.4666324" lon="6.9052883"><ele></ele><time>2022-5-30T23:59:53Z</time></trkpt>
<trkpt lat="43.4666283" lon="6.9052572"><ele></ele><time>2022-5-30T23:59:56Z</time></trkpt>
<trkpt lat="43.4666196" lon="6.9052273"><ele></ele><time>2022-5-30T23:59:59Z</time></trkpt>
<trkpt lat="43.4666058" lon="6.9051962"><ele></ele><time>2022-5-31T0:0:2Z</time></trkpt>
<trkpt lat="43.4665902" lon="6.9051698"><ele></ele><time>2022-5-31T0:0:5Z</time></trkpt>
<trkpt lat="43.4665760" lon="6.9051411"><ele></ele><time>2022-5-31T0:0:8Z</time></trkpt>
<trkpt lat="43.4665605" lon="6.9051141"><ele></ele><time>2022-5-31T0:0:11Z</time></trkpt>
<trkpt lat="43.4665479" lon="6.9050943"><ele></ele><time>2022-5-31T0:0:14Z</time></trkpt>
<trkpt lat="43.4665337" lon="6.9050740"><ele></ele><time>2022-5-31T0:0:17Z</time></trkpt>
<trkpt lat="43.4665173" lon="6.9050537"><ele></ele><time>2022-5-31T0:0:20Z</time></trkpt>
<trkpt lat="43.4665036" lon="6.9050304"><ele></ele><time>2022-5-31T0:0:23Z</time></trkpt>
<trkpt lat="43.4664860" lon="6.9050043"><ele></ele><time>2022-5-31T0:0:26Z</time></trkpt>
<trkpt lat="43.4664738" lon="6.9049824"><ele></ele><time>2022-5-31T0:0:29Z</time></trkpt>
<trkpt lat="43.4664637" lon="6.9049603"><ele></ele><time>2022-5-31T0:0:32Z</time></trkpt>
<trkpt lat="43.4664496" lon="6.9049341"><ele></ele><time>2022-5-31T0:0:35Z</time></trkpt>
<trkpt lat="43.4664373" lon="6.9049062"><ele></ele><time>2022-5-31T0:0:38Z</time></trkpt>
<trkpt lat="43.4664261" lon="6.9048825"><ele></ele><time>2022-5-31T0:0:41Z</time></trkpt>
<trkpt lat="43.4664092" lon="6.9048556"><ele></ele><time>2022-5-31T0:0:44Z</time></trkpt>
<trkpt lat="43.4663927" lon="6.9048327"><ele></ele><time>2022-5-31T0:0:47Z</time></trkpt>
<trkpt lat="43.4663773" lon="6.9048006"><ele></ele><time>2022-5-31T0:0:50Z</time></trkpt>
<trkpt lat="43.4663650" lon="6.9047704"><ele></ele><time>2022-5-31T0:0:53Z</time></trkpt>
<trkpt lat="43.4663544" lon="6.9047425"><ele></ele><time>2022-5-31T0:0:56Z</time></trkpt>
<trkpt lat="43.4663448" lon="6.9047169"><ele></ele><time>2022-5-31T0:0:59Z</time></trkpt>
<trkpt lat="43.4663371" lon="6.9046888"><ele></ele><time>2022-5-31T0:1:2Z</time></trkpt>
<trkpt lat="43.4663360" lon="6.9046519"><ele></ele><time>2022-5-31T0:1:5Z</time></trkpt>
<trkpt lat="43.4663338" lon="6.9046080"><ele></ele><time>2022-5-31T0:1:8Z</time></trkpt>
<trkpt lat="43.4663326" lon="6.9045714"><ele></ele><time>2022-5-31T0:1:11Z</time></trkpt>
<trkpt lat="43.4663296" lon="6.9045422"><ele></ele><time>2022-5-31T0:1:14Z</time></trkpt>
<trkpt lat="43.4663286" lon="6.9045098"><ele></ele><time>2022-5-31T0:1:17Z</time></trkpt>
<trkpt lat="43.4663269" lon="6.9044796"><ele></ele><time>2022-5-31T0:1:20Z</time></trkpt>
<trkpt lat="43.4663215" lon="6.9044487"><ele></ele><time>2022-5-31T0:1:23Z</time></trkpt>
<trkpt lat="43.4663184" lon="6.9044196"><ele></ele><time>2022-5-31T0:1:26Z</time></trkpt>
<trkpt lat="43.4663165" lon="6.9043865"><ele></ele><time>2022-5-31T0:1:29Z</time></trkpt>
<trkpt lat="43.4663148" lon="6.9043638"><ele></ele><time>2022-5-31T0:1:32Z</time></trkpt>
<trkpt lat="43.4663064" lon="6.9043329"><ele></ele><time>2022-5-31T0:1:35Z</time></trkpt>
<trkpt lat="43.4662966" lon="6.9043048"><ele></ele><time>2022-5-31T0:1:38Z</time></trkpt>
<trkpt lat="43.4662842" lon="6.9042614"><ele></ele><time>2022-5-31T0:1:41Z</time></trkpt>
<trkpt lat="43.4662767" lon="6.9042261"><ele></ele><time>2022-5-31T0:1:44Z</time></trkpt>
<trkpt lat="43.4662703" lon="6.9041804"><ele></ele><time>2022-5-31T0:1:47Z</time></trkpt>
<trkpt lat="43.4662714" lon="6.9041312"><ele></ele><time>2022-5-31T0:1:50Z</time></trkpt>
<trkpt lat="43.4662791" lon="6.9040945"><ele></ele><time>2022-5-31T0:1:53Z</time></trkpt>
<trkpt lat="43.4662904" lon="6.9040664"><ele></ele><time>2022-5-31T0:1:56Z</time></trkpt>
<trkpt lat="43.4663198" lon="6.9040476"><ele></ele><time>2022-5-31T0:1:59Z</time></trkpt>
<trkpt lat="43.4663506" lon="6.9040540"><ele></ele><time>2022-5-31T0:2:2Z</time></trkpt>
<trkpt lat="43.4663801" lon="6.9040494"><ele></ele><time>2022-5-31T0:2:5Z</time></trkpt>
<trkpt lat="43.4664140" lon="6.9040677"><ele></ele><time>2022-5-31T0:2:8Z</time></trkpt>
<trkpt lat="43.4664364" lon="6.9040895"><ele></ele><time>2022-5-31T0:2:11Z</time></trkpt>
<trkpt lat="43.4664484" lon="6.9041091"><ele></ele><time>2022-5-31T0:2:14Z</time></trkpt>
<trkpt lat="43.4664577" lon="6.9041307"><ele></ele><time>2022-5-31T0:2:17Z</time></trkpt>
<trkpt lat="43.4664704" lon="6.9041549"><ele></ele><time>2022-5-31T0:2:20Z</time></trkpt>
<trkpt lat="43.4664774" lon="6.9041793"><ele></ele><time>2022-5-31T0:2:23Z</time></trkpt>
<trkpt lat="43.4664847" lon="6.9042057"><ele></ele><time>2022-5-31T0:2:26Z</time></trkpt>
<trkpt lat="43.4664932" lon="6.9042221"><ele></ele><time>2022-5-31T0:2:29Z</time></trkpt>
<trkpt lat="43.4665002" lon="6.9042416"><ele></ele><time>2022-5-31T0:2:32Z</time></trkpt>
<trkpt lat="43.4665078" lon="6.9042644"><ele></ele><time>2022-5-31T0:2:35Z</time></trkpt>
<trkpt lat="43.4665195" lon="6.9043003"><ele></ele><time>2022-5-31T0:2:38Z</time></trkpt>
<trkpt lat="43.4665326" lon="6.9043253"><ele></ele><time>2022-5-31T0:2:41Z</time></trkpt>
<trkpt lat="43.4665416" lon="6.9043513"><ele></ele><time>2022-5-31T0:2:44Z</time></trkpt>
<trkpt lat="43.4665460" lon="6.9043861"><ele></ele><time>2022-5-31T0:2:47Z</time></trkpt>
<trkpt lat="43.4665594" lon="6.9044268"><ele></ele><time>2022-5-31T0:2:50Z</time></trkpt>
<trkpt lat="43.4665742" lon="6.9044614"><ele></ele><time>2022-5-31T0:2:53Z</time></trkpt>
<trkpt lat="43.4665840" lon="6.9044892"><ele></ele><time>2022-5-31T0:2:56Z</time></trkpt>
<trkpt lat="43.4665892" lon="6.9045188"><ele></ele><time>2022-5-31T0:2:59Z</time></trkpt>
<trkpt lat="43.4666009" lon="6.9045501"><ele></ele><time>2022-5-31T0:3:2Z</time></trkpt>
<trkpt lat="43.4666144" lon="6.9045848"><ele></ele><time>2022-5-31T0:3:5Z</time></trkpt>
<trkpt lat="43.4666353" lon="6.9046211"><ele></ele><time>2022-5-31T0:3:8Z</time></trkpt>
<trkpt lat="43.4666544" lon="6.9046582"><ele></ele><time>2022-5-31T0:3:11Z</time></trkpt>
<trkpt lat="43.4666764" lon="6.9046944"><ele></ele><time>2022-5-31T0:3:14Z</time></trkpt>
<trkpt lat="43.4666958" lon="6.9047239"><ele></ele><time>2022-5-31T0:3:17Z</time></trkpt>
<trkpt lat="43.4667174" lon="6.9047497"><ele></ele><time>2022-5-31T0:3:20Z</time></trkpt>
<trkpt lat="43.4667445" lon="6.9047821"><ele></ele><time>2022-5-31T0:3:23Z</time></trkpt>
<trkpt lat="43.4667691" lon="6.9048063"><ele></ele><time>2022-5-31T0:3:26Z</time></trkpt>
<trkpt lat="43.4667866" lon="6.9048298"><ele></ele><time>2022-5-31T0:3:29Z</time></trkpt>
<trkpt lat="43.4668077" lon="6.9048527"><ele></ele><time>2022-5-31T0:3:32Z</time></trkpt>
<trkpt lat="43.4668288" lon="6.9048743"><ele></ele><time>2022-5-31T0:3:35Z</time></trkpt>
<trkpt lat="43.4668503" lon="6.9048951"><ele></ele><time>2022-5-31T0:3:38Z</time></trkpt>
<trkpt lat="43.4668704" lon="6.9049151"><ele></ele><time>2022-5-31T0:3:41Z</time></trkpt>
<trkpt lat="43.4668834" lon="6.9049419"><ele></ele><time>2022-5-31T0:3:44Z</time></trkpt>
<trkpt lat="43.4668963" lon="6.9049657"><ele></ele><time>2022-5-31T0:3:47Z</time></trkpt>
<trkpt lat="43.4669127" lon="6.9049872"><ele></ele><time>2022-5-31T0:3:50Z</time></trkpt>
<trkpt lat="43.4669319" lon="6.9050137"><ele></ele><time>2022-5-31T0:3:53Z</time></trkpt>
<trkpt lat="43.4669510" lon="6.9050405"><ele></ele><time>2022-5-31T0:3:56Z</time></trkpt>
<trkpt lat="43.4669678" lon="6.9050623"><ele></ele><time>2022-5-31T0:3:59Z</time></trkpt>
<trkpt lat="43.4669886" lon="6.9050879"><ele></ele><time>2022-5-31T0:4:2Z</time></trkpt>
<trkpt lat="43.4670123" lon="6.9051206"><ele></ele><time>2022-5-31T0:4:5Z</time></trkpt>
<trkpt lat="43.4670339" lon="6.9051507"><ele></ele><time>2022-5-31T0:4:8Z</time></trkpt>
<trkpt lat="43.4670550" lon="6.9051836"><ele></ele><time>2022-5-31T0:4:11Z</time></trkpt>
<trkpt lat="43.4670778" lon="6.9052149"><ele></ele><time>2022-5-31T0:4:14Z</time></trkpt>
<trkpt lat="43.4670984" lon="6.9052412"><ele></ele><time>2022-5-31T0:4:17Z</time></trkpt>
<trkpt lat="43.4671204" lon="6.9052703"><ele></ele><time>2022-5-31T0:4:20Z</time></trkpt>
<trkpt lat="43.4671422" lon="6.9052949"><ele></ele><time>2022-5-31T0:4:23Z</time></trkpt>
<trkpt lat="43.4671650" lon="6.9053207"><ele></ele><time>2022-5-31T0:4:26Z</time></trkpt>
<trkpt lat="43.4671887" lon="6.9053464"><ele></ele><time>2022-5-31T0:4:29Z</time></trkpt>
<trkpt lat="43.4672097" lon="6.9053686"><ele></ele><time>2022-5-31T0:4:32Z</time></trkpt>
<trkpt lat="43.4672305" lon="6.9053975"><ele></ele><time>2022-5-31T0:4:35Z</time></trkpt>
<trkpt lat="43.4672492" lon="6.9054210"><ele></ele><time>2022-5-31T0:4:38Z</time></trkpt>
<trkpt lat="43.4672680" lon="6.9054439"><ele></ele><time>2022-5-31T0:4:41Z</time></trkpt>
<trkpt lat="43.4672896" lon="6.9054660"><ele></ele><time>2022-5-31T0:4:44Z</time></trkpt>
<trkpt lat="43.4673126" lon="6.9054838"><ele></ele><time>2022-5-31T0:4:47Z</time></trkpt>
<trkpt lat="43.4673348" lon="6.9055007"><ele></ele><time>2022-5-31T0:4:50Z</time></trkpt>
<trkpt lat="43.4673571" lon="6.9055196"><ele></ele><time>2022-5-31T0:4:53Z</time></trkpt>
<trkpt lat="43.4673900" lon="6.9055404"><ele></ele><time>2022-5-31T0:4:56Z</time></trkpt>
<trkpt lat="43.4674098" lon="6.9055528"><ele></ele><time>2022-5-31T0:4:59Z</time></trkpt>
<trkpt lat="43.4674256" lon="6.9055569"><ele></ele><time>2022-5-31T0:5:2Z</time></trkpt>
<trkpt lat="43.4674323" lon="6.9055541"><ele></ele><time>2022-5-31T0:5:5Z</time></trkpt>
<trkpt lat="43.4674356" lon="6.9055508"><ele></ele><time>2022-5-31T0:5:8Z</time></trkpt>
<trkpt lat="43.4674358" lon="6.9055620"><ele></ele><time>2022-5-31T0:5:11Z</time></trkpt>
<trkpt lat="43.4674306" lon="6.9055530"><ele></ele><time>2022-5-31T0:5:14Z</time></trkpt>
<trkpt lat="43.4674308" lon="6.9055526"><ele></ele><time>2022-5-31T0:5:17Z</time></trkpt>
<trkpt lat="43.4674304" lon="6.9055516"><ele></ele><time>2022-5-31T0:5:20Z</time></trkpt>
<trkpt lat="43.4674302" lon="6.9055510"><ele></ele><time>2022-5-31T0:5:23Z</time></trkpt>
<trkpt lat="43.4674300" lon="6.9055500"><ele></ele><time>2022-5-31T0:5:26Z</time></trkpt>
<trkpt lat="43.4674298" lon="6.9055492"><ele></ele><time>2022-5-31T0:5:29Z</time></trkpt>
<trkpt lat="43.4674297" lon="6.9055487"><ele></ele><time>2022-5-31T0:5:32Z</time></trkpt>
<trkpt lat="43.4674295" lon="6.9055480"><ele></ele><time>2022-5-31T0:5:35Z</time></trkpt>
<trkpt lat="43.4674308" lon="6.9055454"><ele></ele><time>2022-5-31T0:5:38Z</time></trkpt>
<trkpt lat="43.4674335" lon="6.9055450"><ele></ele><time>2022-5-31T0:5:41Z</time></trkpt>
<trkpt lat="43.4674360" lon="6.9055467"><ele></ele><time>2022-5-31T0:5:44Z</time></trkpt>
<trkpt lat="43.4674374" lon="6.9055465"><ele></ele><time>2022-5-31T0:5:47Z</time></trkpt>
<trkpt lat="43.4674374" lon="6.9055459"><ele></ele><time>2022-5-31T0:5:50Z</time></trkpt>
<trkpt lat="43.4674387" lon="6.9055465"><ele></ele><time>2022-5-31T0:5:53Z</time></trkpt>
<trkpt lat="43.4674429" lon="6.9055478"><ele></ele><time>2022-5-31T0:5:56Z</time></trkpt>
<trkpt lat="43.4674436" lon="6.9055483"><ele></ele><time>2022-5-31T0:5:59Z</time></trkpt>
<trkpt lat="43.4674485" lon="6.9055527"><ele></ele><time>2022-5-31T0:6:2Z</time></trkpt>
<trkpt lat="43.4674485" lon="6.9055524"><ele></ele><time>2022-5-31T0:6:5Z</time></trkpt>
<trkpt lat="43.4674501" lon="6.9055532"><ele></ele><time>2022-5-31T0:6:8Z</time></trkpt>
<trkpt lat="43.4674505" lon="6.9055535"><ele></ele><time>2022-5-31T0:6:11Z</time></trkpt>
<trkpt lat="43.4674508" lon="6.9055537"><ele></ele><time>2022-5-31T0:6:14Z</time></trkpt>
<trkpt lat="43.4674512" lon="6.9055539"><ele></ele><time>2022-5-31T0:6:17Z</time></trkpt>
<trkpt lat="43.4674522" lon="6.9055546"><ele></ele><time>2022-5-31T0:6:20Z</time></trkpt>
<trkpt lat="43.4674530" lon="6.9055553"><ele></ele><time>2022-5-31T0:6:23Z</time></trkpt>
<trkpt lat="43.4674537" lon="6.9055555"><ele></ele><time>2022-5-31T0:6:26Z</time></trkpt>
<trkpt lat="43.4674540" lon="6.9055552"><ele></ele><time>2022-5-31T0:6:29Z</time></trkpt>
<trkpt lat="43.4674551" lon="6.9055564"><ele></ele><time>2022-5-31T0:6:32Z</time></trkpt>
<trkpt lat="43.4674562" lon="6.9055572"><ele></ele><time>2022-5-31T0:6:35Z</time></trkpt>
<trkpt lat="43.4674576" lon="6.9055582"><ele></ele><time>2022-5-31T0:6:38Z</time></trkpt>
<trkpt lat="43.4674587" lon="6.9055595"><ele></ele><time>2022-5-31T0:6:41Z</time></trkpt>
<trkpt lat="43.4674594" lon="6.9055597"><ele></ele><time>2022-5-31T0:6:44Z</time></trkpt>
<trkpt lat="43.4674605" lon="6.9055609"><ele></ele><time>2022-5-31T0:6:47Z</time></trkpt>
<trkpt lat="43.4674614" lon="6.9055613"><ele></ele><time>2022-5-31T0:6:50Z</time></trkpt>
<trkpt lat="43.4674619" lon="6.9055618"><ele></ele><time>2022-5-31T0:6:53Z</time></trkpt>
<trkpt lat="43.4674628" lon="6.9055612"><ele></ele><time>2022-5-31T0:6:56Z</time></trkpt>
<trkpt lat="43.4674629" lon="6.9055604"><ele></ele><time>2022-5-31T0:6:59Z</time></trkpt>
<trkpt lat="43.4674648" lon="6.9055622"><ele></ele><time>2022-5-31T0:7:2Z</time></trkpt>
<trkpt lat="43.4674658" lon="6.9055631"><ele></ele><time>2022-5-31T0:7:5Z</time></trkpt>
<trkpt lat="43.4674664" lon="6.9055634"><ele></ele><time>2022-5-31T0:7:8Z</time></trkpt>
<trkpt lat="43.4674677" lon="6.9055636"><ele></ele><time>2022-5-31T0:7:11Z</time></trkpt>
<trkpt lat="43.4674700" lon="6.9055648"><ele></ele><time>2022-5-31T0:7:14Z</time></trkpt>
<trkpt lat="43.4674719" lon="6.9055648"><ele></ele><time>2022-5-31T0:7:17Z</time></trkpt>
<trkpt lat="43.4674730" lon="6.9055652"><ele></ele><time>2022-5-31T0:7:20Z</time></trkpt>
<trkpt lat="43.4674744" lon="6.9055663"><ele></ele><time>2022-5-31T0:7:23Z</time></trkpt>
<trkpt lat="43.4674758" lon="6.9055673"><ele></ele><time>2022-5-31T0:7:26Z</time></trkpt>
<trkpt lat="43.4674773" lon="6.9055681"><ele></ele><time>2022-5-31T0:7:29Z</time></trkpt>
<trkpt lat="43.4674813" lon="6.9055695"><ele></ele><time>2022-5-31T0:7:32Z</time></trkpt>
<trkpt lat="43.4674828" lon="6.9055705"><ele></ele><time>2022-5-31T0:7:35Z</time></trkpt>
<trkpt lat="43.4674843" lon="6.9055722"><ele></ele><time>2022-5-31T0:7:38Z</time></trkpt>
<trkpt lat="43.4674856" lon="6.9055725"><ele></ele><time>2022-5-31T0:7:41Z</time></trkpt>
<trkpt lat="43.4674861" lon="6.9055728"><ele></ele><time>2022-5-31T0:7:44Z</time></trkpt>
<trkpt lat="43.4674869" lon="6.9055731"><ele></ele><time>2022-5-31T0:7:47Z</time></trkpt>
<trkpt lat="43.4674876" lon="6.9055733"><ele></ele><time>2022-5-31T0:7:50Z</time></trkpt>
<trkpt lat="43.4674886" lon="6.9055741"><ele></ele><time>2022-5-31T0:7:53Z</time></trkpt>
<trkpt lat="43.4674899" lon="6.9055751"><ele></ele><time>2022-5-31T0:7:56Z</time></trkpt>
<trkpt lat="43.4674909" lon="6.9055756"><ele></ele><time>2022-5-31T0:7:59Z</time></trkpt>
<trkpt lat="43.4674947" lon="6.9055792"><ele></ele><time>2022-5-31T0:8:2Z</time></trkpt>
<trkpt lat="43.4674974" lon="6.9055815"><ele></ele><time>2022-5-31T0:8:5Z</time></trkpt>
<trkpt lat="43.4674997" lon="6.9055831"><ele></ele><time>2022-5-31T0:8:8Z</time></trkpt>
<trkpt lat="43.4675024" lon="6.9055856"><ele></ele><time>2022-5-31T0:8:11Z</time></trkpt>
<trkpt lat="43.4675047" lon="6.9055876"><ele></ele><time>2022-5-31T0:8:14Z</time></trkpt>
<trkpt lat="43.4675078" lon="6.9055902"><ele></ele><time>2022-5-31T0:8:17Z</time></trkpt>
<trkpt lat="43.4675104" lon="6.9055917"><ele></ele><time>2022-5-31T0:8:20Z</time></trkpt>
<trkpt lat="43.4675123" lon="6.9055925"><ele></ele><time>2022-5-31T0:8:23Z</time></trkpt>
<trkpt lat="43.4675156" lon="6.9055957"><ele></ele><time>2022-5-31T0:8:26Z</time></trkpt>
<trkpt lat="43.4675179" lon="6.9056015"><ele></ele><time>2022-5-31T0:8:29Z</time></trkpt>
<trkpt lat="43.4675203" lon="6.9056051"><ele></ele><time>2022-5-31T0:8:32Z</time></trkpt>
<trkpt lat="43.4675239" lon="6.9056101"><ele></ele><time>2022-5-31T0:8:35Z</time></trkpt>
<trkpt lat="43.4675267" lon="6.9056147"><ele></ele><time>2022-5-31T0:8:38Z</time></trkpt>
<trkpt lat="43.4675300" lon="6.9056189"><ele></ele><time>2022-5-31T0:8:41Z</time></trkpt>
<trkpt lat="43.4675325" lon="6.9056225"><ele></ele><time>2022-5-31T0:8:44Z</time></trkpt>
<trkpt lat="43.4675342" lon="6.9056259"><ele></ele><time>2022-5-31T0:8:47Z</time></trkpt>
<trkpt lat="43.4675387" lon="6.9056282"><ele></ele><time>2022-5-31T0:8:50Z</time></trkpt>
<trkpt lat="43.4675416" lon="6.9056302"><ele></ele><time>2022-5-31T0:8:53Z</time></trkpt>
<trkpt lat="43.4675418" lon="6.9056303"><ele></ele><time>2022-5-31T0:8:56Z</time></trkpt>
<trkpt lat="43.4675413" lon="6.9056285"><ele></ele><time>2022-5-31T0:8:59Z</time></trkpt>
<trkpt lat="43.4675405" lon="6.9056256"><ele></ele><time>2022-5-31T0:9:2Z</time></trkpt>
<trkpt lat="43.4675401" lon="6.9056233"><ele></ele><time>2022-5-31T0:9:5Z</time></trkpt>
<trkpt lat="43.4675391" lon="6.9056203"><ele></ele><time>2022-5-31T0:9:8Z</time></trkpt>
<trkpt lat="43.4675391" lon="6.9056181"><ele></ele><time>2022-5-31T0:9:11Z</time></trkpt>
<trkpt lat="43.4675398" lon="6.9056159"><ele></ele><time>2022-5-31T0:9:14Z</time></trkpt>
<trkpt lat="43.4675398" lon="6.9056141"><ele></ele><time>2022-5-31T0:9:17Z</time></trkpt>
<trkpt lat="43.4675365" lon="6.9056066"><ele></ele><time>2022-5-31T0:9:20Z</time></trkpt>
<trkpt lat="43.4675347" lon="6.9056032"><ele></ele><time>2022-5-31T0:9:23Z</time></trkpt>
<trkpt lat="43.4675358" lon="6.9056034"><ele></ele><time>2022-5-31T0:9:26Z</time></trkpt>
<trkpt lat="43.4675349" lon="6.9056047"><ele></ele><time>2022-5-31T0:9:29Z</time></trkpt>
<trkpt lat="43.4675364" lon="6.9056052"><ele></ele><time>2022-5-31T0:9:32Z</time></trkpt>
<trkpt lat="43.4675374" lon="6.9056053"><ele></ele><time>2022-5-31T0:9:35Z</time></trkpt>
<trkpt lat="43.4675377" lon="6.9056060"><ele></ele><time>2022-5-31T0:9:38Z</time></trkpt>
<trkpt lat="43.4675380" lon="6.9056063"><ele></ele><time>2022-5-31T0:9:41Z</time></trkpt>
<trkpt lat="43.4675384" lon="6.9056068"><ele></ele><time>2022-5-31T0:9:44Z</time></trkpt>
<trkpt lat="43.4675375" lon="6.9056051"><ele></ele><time>2022-5-31T0:9:47Z</time></trkpt>
<trkpt lat="43.4675380" lon="6.9056044"><ele></ele><time>2022-5-31T0:9:50Z</time></trkpt>
<trkpt lat="43.4675355" lon="6.9056027"><ele></ele><time>2022-5-31T0:9:53Z</time></trkpt>
<trkpt lat="43.4675329" lon="6.9056001"><ele></ele><time>2022-5-31T0:9:56Z</time></trkpt>
<trkpt lat="43.4675304" lon="6.9055980"><ele></ele><time>2022-5-31T0:9:59Z</time></trkpt>
<trkpt lat="43.4675290" lon="6.9055975"><ele></ele><time>2022-5-31T0:10:2Z</time></trkpt>
<trkpt lat="43.4675279" lon="6.9055963"><ele></ele><time>2022-5-31T0:10:5Z</time></trkpt>
<trkpt lat="43.4675270" lon="6.9055952"><ele></ele><time>2022-5-31T0:10:8Z</time></trkpt>
<trkpt lat="43.4675264" lon="6.9055954"><ele></ele><time>2022-5-31T0:10:11Z</time></trkpt>
<trkpt lat="43.4675260" lon="6.9055953"><ele></ele><time>2022-5-31T0:10:14Z</time></trkpt>
<trkpt lat="43.4675255" lon="6.9055952"><ele></ele><time>2022-5-31T0:10:17Z</time></trkpt>
<trkpt lat="43.4675252" lon="6.9055955"><ele></ele><time>2022-5-31T0:10:20Z</time></trkpt>
<trkpt lat="43.4675253" lon="6.9055961"><ele></ele><time>2022-5-31T0:10:23Z</time></trkpt>
<trkpt lat="43.4675257" lon="6.9055964"><ele></ele><time>2022-5-31T0:10:26Z</time></trkpt>
<trkpt lat="43.4675269" lon="6.9055977"><ele></ele><time>2022-5-31T0:10:29Z</time></trkpt>
<trkpt lat="43.4675262" lon="6.9055964"><ele></ele><time>2022-5-31T0:10:32Z</time></trkpt>
<trkpt lat="43.4675258" lon="6.9055955"><ele></ele><time>2022-5-31T0:10:35Z</time></trkpt>
<trkpt lat="43.4675256" lon="6.9055948"><ele></ele><time>2022-5-31T0:10:38Z</time></trkpt>
<trkpt lat="43.4675167" lon="6.9055912"><ele></ele><time>2022-5-31T0:10:41Z</time></trkpt>
<trkpt lat="43.4675158" lon="6.9055899"><ele></ele><time>2022-5-31T0:10:44Z</time></trkpt>
<trkpt lat="43.4675157" lon="6.9055894"><ele></ele><time>2022-5-31T0:10:47Z</time></trkpt>
<trkpt lat="43.4675074" lon="6.9055846"><ele></ele><time>2022-5-31T0:10:50Z</time></trkpt>
<trkpt lat="43.4675072" lon="6.9055938"><ele></ele><time>2022-5-31T0:10:53Z</time></trkpt>
<trkpt lat="43.4675112" lon="6.9056087"><ele></ele><time>2022-5-31T0:10:56Z</time></trkpt>
<trkpt lat="43.4675223" lon="6.9056278"><ele></ele><time>2022-5-31T0:10:59Z</time></trkpt>
<trkpt lat="43.4675365" lon="6.9056466"><ele></ele><time>2022-5-31T0:11:2Z</time></trkpt>
<trkpt lat="43.4675517" lon="6.9056663"><ele></ele><time>2022-5-31T0:11:5Z</time></trkpt>
<trkpt lat="43.4675639" lon="6.9056901"><ele></ele><time>2022-5-31T0:11:8Z</time></trkpt>
<trkpt lat="43.4675811" lon="6.9057133"><ele></ele><time>2022-5-31T0:11:11Z</time></trkpt>
<trkpt lat="43.4675969" lon="6.9057347"><ele></ele><time>2022-5-31T0:11:14Z</time></trkpt>
<trkpt lat="43.4676112" lon="6.9057541"><ele></ele><time>2022-5-31T0:11:17Z</time></trkpt>
<trkpt lat="43.4676256" lon="6.9057718"><ele></ele><time>2022-5-31T0:11:20Z</time></trkpt>
<trkpt lat="43.4676398" lon="6.9057880"><ele></ele><time>2022-5-31T0:11:23Z</time></trkpt>
<trkpt lat="43.4676539" lon="6.9058054"><ele></ele><time>2022-5-31T0:11:26Z</time></trkpt>
<trkpt lat="43.4676691" lon="6.9058211"><ele></ele><time>2022-5-31T0:11:29Z</time></trkpt>
<trkpt lat="43.4676887" lon="6.9058354"><ele></ele><time>2022-5-31T0:11:32Z</time></trkpt>
<trkpt lat="43.4677077" lon="6.9058475"><ele></ele><time>2022-5-31T0:11:35Z</time></trkpt>
<trkpt lat="43.4677237" lon="6.9058562"><ele></ele><time>2022-5-31T0:11:38Z</time></trkpt>
<trkpt lat="43.4677402" lon="6.9058670"><ele></ele><time>2022-5-31T0:11:41Z</time></trkpt>
<trkpt lat="43.4677562" lon="6.9058750"><ele></ele><time>2022-5-31T0:11:44Z</time></trkpt>
<trkpt lat="43.4677762" lon="6.9058902"><ele></ele><time>2022-5-31T0:11:47Z</time></trkpt>
<trkpt lat="43.4677950" lon="6.9059047"><ele></ele><time>2022-5-31T0:11:50Z</time></trkpt>
<trkpt lat="43.4678155" lon="6.9059198"><ele></ele><time>2022-5-31T0:11:53Z</time></trkpt>
<trkpt lat="43.4678311" lon="6.9059268"><ele></ele><time>2022-5-31T0:11:56Z</time></trkpt>
<trkpt lat="43.4678483" lon="6.9059402"><ele></ele><time>2022-5-31T0:11:59Z</time></trkpt>
<trkpt lat="43.4678671" lon="6.9059534"><ele></ele><time>2022-5-31T0:12:2Z</time></trkpt>
<trkpt lat="43.4678865" lon="6.9059663"><ele></ele><time>2022-5-31T0:12:5Z</time></trkpt>
<trkpt lat="43.4679041" lon="6.9059772"><ele></ele><time>2022-5-31T0:12:8Z</time></trkpt>
<trkpt lat="43.4679212" lon="6.9059870"><ele></ele><time>2022-5-31T0:12:11Z</time></trkpt>
<trkpt lat="43.4679392" lon="6.9059980"><ele></ele><time>2022-5-31T0:12:14Z</time></trkpt>
<trkpt lat="43.4679584" lon="6.9060085"><ele></ele><time>2022-5-31T0:12:17Z</time></trkpt>
<trkpt lat="43.4679780" lon="6.9060201"><ele></ele><time>2022-5-31T0:12:20Z</time></trkpt>
<trkpt lat="43.4679964" lon="6.9060305"><ele></ele><time>2022-5-31T0:12:23Z</time></trkpt>
<trkpt lat="43.4680117" lon="6.9060400"><ele></ele><time>2022-5-31T0:12:26Z</time></trkpt>
<trkpt lat="43.4680264" lon="6.9060494"><ele></ele><time>2022-5-31T0:12:29Z</time></trkpt>
<trkpt lat="43.4680431" lon="6.9060591"><ele></ele><time>2022-5-31T0:12:32Z</time></trkpt>
<trkpt lat="43.4680593" lon="6.9060692"><ele></ele><time>2022-5-31T0:12:35Z</time></trkpt>
<trkpt lat="43.4680761" lon="6.9060789"><ele></ele><time>2022-5-31T0:12:38Z</time></trkpt>
<trkpt lat="43.4680939" lon="6.9060882"><ele></ele><time>2022-5-31T0:12:41Z</time></trkpt>
<trkpt lat="43.4681134" lon="6.9061028"><ele></ele><time>2022-5-31T0:12:44Z</time></trkpt>
<trkpt lat="43.4681317" lon="6.9061143"><ele></ele><time>2022-5-31T0:12:47Z</time></trkpt>
<trkpt lat="43.4681514" lon="6.9061242"><ele></ele><time>2022-5-31T0:12:50Z</time></trkpt>
<trkpt lat="43.4681708" lon="6.9061345"><ele></ele><time>2022-5-31T0:12:53Z</time></trkpt>
<trkpt lat="43.4681903" lon="6.9061461"><ele></ele><time>2022-5-31T0:12:56Z</time></trkpt>
<trkpt lat="43.4682105" lon="6.9061570"><ele></ele><time>2022-5-31T0:12:59Z</time></trkpt>
<trkpt lat="43.4682483" lon="6.9061765"><ele></ele><time>2022-5-31T0:13:2Z</time></trkpt>
<trkpt lat="43.4682690" lon="6.9061919"><ele></ele><time>2022-5-31T0:13:5Z</time></trkpt>
<trkpt lat="43.4682847" lon="6.9062047"><ele></ele><time>2022-5-31T0:13:8Z</time></trkpt>
<trkpt lat="43.4682991" lon="6.9062167"><ele></ele><time>2022-5-31T0:13:11Z</time></trkpt>
<trkpt lat="43.4683134" lon="6.9062289"><ele></ele><time>2022-5-31T0:13:14Z</time></trkpt>
<trkpt lat="43.4683280" lon="6.9062415"><ele></ele><time>2022-5-31T0:13:17Z</time></trkpt>
<trkpt lat="43.4683455" lon="6.9062569"><ele></ele><time>2022-5-31T0:13:20Z</time></trkpt>
<trkpt lat="43.4683683" lon="6.9062745"><ele></ele><time>2022-5-31T0:13:23Z</time></trkpt>
<trkpt lat="43.4683900" lon="6.9062923"><ele></ele><time>2022-5-31T0:13:26Z</time></trkpt>
<trkpt lat="43.4684097" lon="6.9063100"><ele></ele><time>2022-5-31T0:13:29Z</time></trkpt>
<trkpt lat="43.4684308" lon="6.9063294"><ele></ele><time>2022-5-31T0:13:32Z</time></trkpt>
<trkpt lat="43.4684493" lon="6.9063543"><ele></ele><time>2022-5-31T0:13:35Z</time></trkpt>
<trkpt lat="43.4684662" lon="6.9063810"><ele></ele><time>2022-5-31T0:13:38Z</time></trkpt>
<trkpt lat="43.4684845" lon="6.9064090"><ele></ele><time>2022-5-31T0:13:41Z</time></trkpt>
<trkpt lat="43.4685072" lon="6.9064349"><ele></ele><time>2022-5-31T0:13:44Z</time></trkpt>
<trkpt lat="43.4685298" lon="6.9064603"><ele></ele><time>2022-5-31T0:13:47Z</time></trkpt>
<trkpt lat="43.4685426" lon="6.9064852"><ele></ele><time>2022-5-31T0:13:50Z</time></trkpt>
<trkpt lat="43.4685606" lon="6.9065090"><ele></ele><time>2022-5-31T0:13:53Z</time></trkpt>
<trkpt lat="43.4685819" lon="6.9065318"><ele></ele><time>2022-5-31T0:13:56Z</time></trkpt>
<trkpt lat="43.4686007" lon="6.9065558"><ele></ele><time>2022-5-31T0:13:59Z</time></trkpt>
<trkpt lat="43.4686186" lon="6.9065860"><ele></ele><time>2022-5-31T0:14:2Z</time></trkpt>
<trkpt lat="43.4686362" lon="6.9066177"><ele></ele><time>2022-5-31T0:14:5Z</time></trkpt>
<trkpt lat="43.4686565" lon="6.9066448"><ele></ele><time>2022-5-31T0:14:8Z</time></trkpt>
<trkpt lat="43.4686733" lon="6.9066729"><ele></ele><time>2022-5-31T0:14:11Z</time></trkpt>
<trkpt lat="43.4686904" lon="6.9067003"><ele></ele><time>2022-5-31T0:14:14Z</time></trkpt>
<trkpt lat="43.4687079" lon="6.9067309"><ele></ele><time>2022-5-31T0:14:17Z</time></trkpt>
<trkpt lat="43.4687238" lon="6.9067632"><ele></ele><time>2022-5-31T0:14:20Z</time></trkpt>
<trkpt lat="43.4687404" lon="6.9067930"><ele></ele><time>2022-5-31T0:14:23Z</time></trkpt>
<trkpt lat="43.4687570" lon="6.9068195"><ele></ele><time>2022-5-31T0:14:26Z</time></trkpt>
<trkpt lat="43.4687707" lon="6.9068493"><ele></ele><time>2022-5-31T0:14:29Z</time></trkpt>
<trkpt lat="43.4687871" lon="6.9068781"><ele></ele><time>2022-5-31T0:14:32Z</time></trkpt>
<trkpt lat="43.4688011" lon="6.9069066"><ele></ele><time>2022-5-31T0:14:35Z</time></trkpt>
<trkpt lat="43.4688139" lon="6.9069299"><ele></ele><time>2022-5-31T0:14:38Z</time></trkpt>
<trkpt lat="43.4688302" lon="6.9069597"><ele></ele><time>2022-5-31T0:14:41Z</time></trkpt>
<trkpt lat="43.4688513" lon="6.9069917"><ele></ele><time>2022-5-31T0:14:44Z</time></trkpt>
<trkpt lat="43.4688744" lon="6.9070249"><ele></ele><time>2022-5-31T0:14:47Z</time></trkpt>
<trkpt lat="43.4688964" lon="6.9070531"><ele></ele><time>2022-5-31T0:14:50Z</time></trkpt>
<trkpt lat="43.4689154" lon="6.9070839"><ele></ele><time>2022-5-31T0:14:53Z</time></trkpt>
<trkpt lat="43.4689329" lon="6.9071136"><ele></ele><time>2022-5-31T0:14:56Z</time></trkpt>
<trkpt lat="43.4689475" lon="6.9071483"><ele></ele><time>2022-5-31T0:14:59Z</time></trkpt>
<trkpt lat="43.4689611" lon="6.9071801"><ele></ele><time>2022-5-31T0:15:2Z</time></trkpt>
<trkpt lat="43.4689770" lon="6.9072099"><ele></ele><time>2022-5-31T0:15:5Z</time></trkpt>
<trkpt lat="43.4689984" lon="6.9072336"><ele></ele><time>2022-5-31T0:15:8Z</time></trkpt>
<trkpt lat="43.4690207" lon="6.9072534"><ele></ele><time>2022-5-31T0:15:11Z</time></trkpt>
<trkpt lat="43.4690314" lon="6.9072851"><ele></ele><time>2022-5-31T0:15:14Z</time></trkpt>
<trkpt lat="43.4690408" lon="6.9073119"><ele></ele><time>2022-5-31T0:15:17Z</time></trkpt>
<trkpt lat="43.4690543" lon="6.9073412"><ele></ele><time>2022-5-31T0:15:20Z</time></trkpt>
<trkpt lat="43.4690686" lon="6.9073734"><ele></ele><time>2022-5-31T0:15:23Z</time></trkpt>
<trkpt lat="43.4690869" lon="6.9074065"><ele></ele><time>2022-5-31T0:15:26Z</time></trkpt>
<trkpt lat="43.4691072" lon="6.9074342"><ele></ele><time>2022-5-31T0:15:29Z</time></trkpt>
<trkpt lat="43.4691277" lon="6.9074647"><ele></ele><time>2022-5-31T0:15:32Z</time></trkpt>
<trkpt lat="43.4691450" lon="6.9074905"><ele></ele><time>2022-5-31T0:15:35Z</time></trkpt>
<trkpt lat="43.4691596" lon="6.9075154"><ele></ele><time>2022-5-31T0:15:38Z</time></trkpt>
<trkpt lat="43.4691767" lon="6.9075411"><ele></ele><time>2022-5-31T0:15:41Z</time></trkpt>
<trkpt lat="43.4691945" lon="6.9075659"><ele></ele><time>2022-5-31T0:15:44Z</time></trkpt>
<trkpt lat="43.4692155" lon="6.9075868"><ele></ele><time>2022-5-31T0:15:47Z</time></trkpt>
<trkpt lat="43.4692349" lon="6.9076063"><ele></ele><time>2022-5-31T0:15:50Z</time></trkpt>
<trkpt lat="43.4692520" lon="6.9076332"><ele></ele><time>2022-5-31T0:15:53Z</time></trkpt>
<trkpt lat="43.4692672" lon="6.9076567"><ele></ele><time>2022-5-31T0:15:56Z</time></trkpt>
<trkpt lat="43.4692814" lon="6.9076751"><ele></ele><time>2022-5-31T0:15:59Z</time></trkpt>
<trkpt lat="43.4692954" lon="6.9076931"><ele></ele><time>2022-5-31T0:16:2Z</time></trkpt>
<trkpt lat="43.4693107" lon="6.9077077"><ele></ele><time>2022-5-31T0:16:5Z</time></trkpt>
<trkpt lat="43.4693272" lon="6.9077295"><ele></ele><time>2022-5-31T0:16:8Z</time></trkpt>
<trkpt lat="43.4693465" lon="6.9077572"><ele></ele><time>2022-5-31T0:16:11Z</time></trkpt>
<trkpt lat="43.4693645" lon="6.9077815"><ele></ele><time>2022-5-31T0:16:14Z</time></trkpt>
<trkpt lat="43.4693847" lon="6.9078137"><ele></ele><time>2022-5-31T0:16:17Z</time></trkpt>
<trkpt lat="43.4694105" lon="6.9078424"><ele></ele><time>2022-5-31T0:16:20Z</time></trkpt>
<trkpt lat="43.4694285" lon="6.9078704"><ele></ele><time>2022-5-31T0:16:23Z</time></trkpt>
<trkpt lat="43.4694352" lon="6.9078924"><ele></ele><time>2022-5-31T0:16:26Z</time></trkpt>
<trkpt lat="43.4694395" lon="6.9079105"><ele></ele><time>2022-5-31T0:16:29Z</time></trkpt>
<trkpt lat="43.4694514" lon="6.9079258"><ele></ele><time>2022-5-31T0:16:32Z</time></trkpt>
<trkpt lat="43.4694650" lon="6.9079394"><ele></ele><time>2022-5-31T0:16:35Z</time></trkpt>
<trkpt lat="43.4694787" lon="6.9079641"><ele></ele><time>2022-5-31T0:16:38Z</time></trkpt>
<trkpt lat="43.4694856" lon="6.9079881"><ele></ele><time>2022-5-31T0:16:41Z</time></trkpt>
<trkpt lat="43.4695005" lon="6.9080056"><ele></ele><time>2022-5-31T0:16:44Z</time></trkpt>
<trkpt lat="43.4695182" lon="6.9080290"><ele></ele><time>2022-5-31T0:16:47Z</time></trkpt>
<trkpt lat="43.4695311" lon="6.9080520"><ele></ele><time>2022-5-31T0:16:50Z</time></trkpt>
<trkpt lat="43.4695475" lon="6.9080673"><ele></ele><time>2022-5-31T0:16:53Z</time></trkpt>
<trkpt lat="43.4695645" lon="6.9080869"><ele></ele><time>2022-5-31T0:16:56Z</time></trkpt>
<trkpt lat="43.4695792" lon="6.9081050"><ele></ele><time>2022-5-31T0:16:59Z</time></trkpt>
<trkpt lat="43.4695884" lon="6.9081224"><ele></ele><time>2022-5-31T0:17:2Z</time></trkpt>
<trkpt lat="43.4696013" lon="6.9081439"><ele></ele><time>2022-5-31T0:17:5Z</time></trkpt>
<trkpt lat="43.4696188" lon="6.9081642"><ele></ele><time>2022-5-31T0:17:8Z</time></trkpt>
<trkpt lat="43.4696369" lon="6.9081849"><ele></ele><time>2022-5-31T0:17:11Z</time></trkpt>
<trkpt lat="43.4696571" lon="6.9082128"><ele></ele><time>2022-5-31T0:17:14Z</time></trkpt>
<trkpt lat="43.4696689" lon="6.9082380"><ele></ele><time>2022-5-31T0:17:17Z</time></trkpt>
<trkpt lat="43.4696846" lon="6.9082618"><ele></ele><time>2022-5-31T0:17:20Z</time></trkpt>
<trkpt lat="43.4697011" lon="6.9082838"><ele></ele><time>2022-5-31T0:17:23Z</time></trkpt>
<trkpt lat="43.4697130" lon="6.9083003"><ele></ele><time>2022-5-31T0:17:26Z</time></trkpt>
<trkpt lat="43.4697279" lon="6.9083225"><ele></ele><time>2022-5-31T0:17:29Z</time></trkpt>
<trkpt lat="43.4697472" lon="6.9083410"><ele></ele><time>2022-5-31T0:17:32Z</time></trkpt>
<trkpt lat="43.4697645" lon="6.9083623"><ele></ele><time>2022-5-31T0:17:35Z</time></trkpt>
<trkpt lat="43.4697790" lon="6.9083859"><ele></ele><time>2022-5-31T0:17:38Z</time></trkpt>
<trkpt lat="43.4697953" lon="6.9084120"><ele></ele><time>2022-5-31T0:17:41Z</time></trkpt>
<trkpt lat="43.4698113" lon="6.9084338"><ele></ele><time>2022-5-31T0:17:44Z</time></trkpt>
<trkpt lat="43.4698313" lon="6.9084615"><ele></ele><time>2022-5-31T0:17:47Z</time></trkpt>
<trkpt lat="43.4698478" lon="6.9084865"><ele></ele><time>2022-5-31T0:17:50Z</time></trkpt>
<trkpt lat="43.4698657" lon="6.9085120"><ele></ele><time>2022-5-31T0:17:53Z</time></trkpt>
<trkpt lat="43.4698838" lon="6.9085344"><ele></ele><time>2022-5-31T0:17:56Z</time></trkpt>
<trkpt lat="43.4699042" lon="6.9085614"><ele></ele><time>2022-5-31T0:17:59Z</time></trkpt>
<trkpt lat="43.4699260" lon="6.9085934"><ele></ele><time>2022-5-31T0:18:2Z</time></trkpt>
<trkpt lat="43.4699429" lon="6.9086252"><ele></ele><time>2022-5-31T0:18:5Z</time></trkpt>
<trkpt lat="43.4699649" lon="6.9086529"><ele></ele><time>2022-5-31T0:18:8Z</time></trkpt>
<trkpt lat="43.4699825" lon="6.9086748"><ele></ele><time>2022-5-31T0:18:11Z</time></trkpt>
<trkpt lat="43.4700007" lon="6.9086943"><ele></ele><time>2022-5-31T0:18:14Z</time></trkpt>
<trkpt lat="43.4700178" lon="6.9087135"><ele></ele><time>2022-5-31T0:18:17Z</time></trkpt>
<trkpt lat="43.4700250" lon="6.9087284"><ele></ele><time>2022-5-31T0:18:20Z</time></trkpt>
<trkpt lat="43.4700247" lon="6.9087559"><ele></ele><time>2022-5-31T0:18:23Z</time></trkpt>
<trkpt lat="43.4700254" lon="6.9087734"><ele></ele><time>2022-5-31T0:18:26Z</time></trkpt>
<trkpt lat="43.4700264" lon="6.9087967"><ele></ele><time>2022-5-31T0:18:29Z</time></trkpt>
<trkpt lat="43.4700258" lon="6.9087959"><ele></ele><time>2022-5-31T0:18:32Z</time></trkpt>
<trkpt lat="43.4700316" lon="6.9087899"><ele></ele><time>2022-5-31T0:18:35Z</time></trkpt>
<trkpt lat="43.4700361" lon="6.9087784"><ele></ele><time>2022-5-31T0:18:38Z</time></trkpt>
<trkpt lat="43.4700362" lon="6.9087779"><ele></ele><time>2022-5-31T0:18:41Z</time></trkpt>
<trkpt lat="43.4700392" lon="6.9087793"><ele></ele><time>2022-5-31T0:18:44Z</time></trkpt>
<trkpt lat="43.4700417" lon="6.9087837"><ele></ele><time>2022-5-31T0:18:47Z</time></trkpt>
<trkpt lat="43.4700430" lon="6.9087857"><ele></ele><time>2022-5-31T0:18:50Z</time></trkpt>
<trkpt lat="43.4700439" lon="6.9087837"><ele></ele><time>2022-5-31T0:18:53Z</time></trkpt>
<trkpt lat="43.4700443" lon="6.9087814"><ele></ele><time>2022-5-31T0:18:56Z</time></trkpt>
<trkpt lat="43.4700449" lon="6.9087799"><ele></ele><time>2022-5-31T0:18:59Z</time></trkpt>
<trkpt lat="43.4700449" lon="6.9087798"><ele></ele><time>2022-5-31T0:19:2Z</time></trkpt>
<trkpt lat="43.4700449" lon="6.9087788"><ele></ele><time>2022-5-31T0:19:5Z</time></trkpt>
<trkpt lat="43.4700452" lon="6.9087773"><ele></ele><time>2022-5-31T0:19:8Z</time></trkpt>
<trkpt lat="43.4700453" lon="6.9087761"><ele></ele><time>2022-5-31T0:19:11Z</time></trkpt>
<trkpt lat="43.4700455" lon="6.9087749"><ele></ele><time>2022-5-31T0:19:14Z</time></trkpt>
<trkpt lat="43.4700454" lon="6.9087740"><ele></ele><time>2022-5-31T0:19:17Z</time></trkpt>
<trkpt lat="43.4700455" lon="6.9087727"><ele></ele><time>2022-5-31T0:19:20Z</time></trkpt>
<trkpt lat="43.4700458" lon="6.9087711"><ele></ele><time>2022-5-31T0:19:23Z</time></trkpt>
<trkpt lat="43.4700459" lon="6.9087698"><ele></ele><time>2022-5-31T0:19:26Z</time></trkpt>
<trkpt lat="43.4700462" lon="6.9087684"><ele></ele><time>2022-5-31T0:19:29Z</time></trkpt>
<trkpt lat="43.4700463" lon="6.9087669"><ele></ele><time>2022-5-31T0:19:32Z</time></trkpt>
<trkpt lat="43.4700480" lon="6.9087656"><ele></ele><time>2022-5-31T0:19:35Z</time></trkpt>
<trkpt lat="43.4700527" lon="6.9087640"><ele></ele><time>2022-5-31T0:19:38Z</time></trkpt>
<trkpt lat="43.4700584" lon="6.9087583"><ele></ele><time>2022-5-31T0:19:41Z</time></trkpt>
<trkpt lat="43.4700595" lon="6.9087608"><ele></ele><time>2022-5-31T0:19:44Z</time></trkpt>
<trkpt lat="43.4700788" lon="6.9087447"><ele></ele><time>2022-5-31T0:19:47Z</time></trkpt>
<trkpt lat="43.4700845" lon="6.9087402"><ele></ele><time>2022-5-31T0:19:50Z</time></trkpt>
<trkpt lat="43.4701077" lon="6.9087408"><ele></ele><time>2022-5-31T0:19:53Z</time></trkpt>
<trkpt lat="43.4701239" lon="6.9087411"><ele></ele><time>2022-5-31T0:19:56Z</time></trkpt>
<trkpt lat="43.4701251" lon="6.9087406"><ele></ele><time>2022-5-31T0:19:59Z</time></trkpt>
<trkpt lat="43.4701250" lon="6.9087401"><ele></ele><time>2022-5-31T0:20:2Z</time></trkpt>
<trkpt lat="43.4701261" lon="6.9087399"><ele></ele><time>2022-5-31T0:20:5Z</time></trkpt>
<trkpt lat="43.4701267" lon="6.9087401"><ele></ele><time>2022-5-31T0:20:8Z</time></trkpt>
<trkpt lat="43.4701264" lon="6.9087404"><ele></ele><time>2022-5-31T0:20:11Z</time></trkpt>
<trkpt lat="43.4701263" lon="6.9087410"><ele></ele><time>2022-5-31T0:20:14Z</time></trkpt>
<trkpt lat="43.4701268" lon="6.9087416"><ele></ele><time>2022-5-31T0:20:17Z</time></trkpt>
<trkpt lat="43.4701274" lon="6.9087421"><ele></ele><time>2022-5-31T0:20:20Z</time></trkpt>
<trkpt lat="43.4701272" lon="6.9087421"><ele></ele><time>2022-5-31T0:20:23Z</time></trkpt>
<trkpt lat="43.4701272" lon="6.9087422"><ele></ele><time>2022-5-31T0:20:26Z</time></trkpt>
<trkpt lat="43.4701273" lon="6.9087420"><ele></ele><time>2022-5-31T0:20:29Z</time></trkpt>
<trkpt lat="43.4701271" lon="6.9087418"><ele></ele><time>2022-5-31T0:20:32Z</time></trkpt>
<trkpt lat="43.4701271" lon="6.9087414"><ele></ele><time>2022-5-31T0:20:35Z</time></trkpt>
<trkpt lat="43.4701272" lon="6.9087411"><ele></ele><time>2022-5-31T0:20:38Z</time></trkpt>
<trkpt lat="43.4701275" lon="6.9087409"><ele></ele><time>2022-5-31T0:20:41Z</time></trkpt>
<trkpt lat="43.4701275" lon="6.9087409"><ele></ele><time>2022-5-31T0:20:44Z</time></trkpt>
<trkpt lat="43.4701275" lon="6.9087409"><ele></ele><time>2022-5-31T0:20:47Z</time></trkpt>
<trkpt lat="43.4701274" lon="6.9087410"><ele></ele><time>2022-5-31T0:20:50Z</time></trkpt>
<trkpt lat="43.4701277" lon="6.9087409"><ele></ele><time>2022-5-31T0:20:53Z</time></trkpt>
<trkpt lat="43.4701277" lon="6.9087409"><ele></ele><time>2022-5-31T0:20:56Z</time></trkpt>
<trkpt lat="43.4701278" lon="6.9087409"><ele></ele><time>2022-5-31T0:20:59Z</time></trkpt>
<trkpt lat="43.4701279" lon="6.9087411"><ele></ele><time>2022-5-31T0:21:2Z</time></trkpt>
<trkpt lat="43.4701280" lon="6.9087425"><ele></ele><time>2022-5-31T0:21:5Z</time></trkpt>
<trkpt lat="43.4701285" lon="6.9087443"><ele></ele><time>2022-5-31T0:21:8Z</time></trkpt>
<trkpt lat="43.4701299" lon="6.9087474"><ele></ele><time>2022-5-31T0:21:11Z</time></trkpt>
<trkpt lat="43.4701298" lon="6.9087477"><ele></ele><time>2022-5-31T0:21:14Z</time></trkpt>
<trkpt lat="43.4701295" lon="6.9087491"><ele></ele><time>2022-5-31T0:21:17Z</time></trkpt>
<trkpt lat="43.4701299" lon="6.9087502"><ele></ele><time>2022-5-31T0:21:20Z</time></trkpt>
<trkpt lat="43.4701307" lon="6.9087515"><ele></ele><time>2022-5-31T0:21:23Z</time></trkpt>
<trkpt lat="43.4701304" lon="6.9087513"><ele></ele><time>2022-5-31T0:21:26Z</time></trkpt>
<trkpt lat="43.4701305" lon="6.9087508"><ele></ele><time>2022-5-31T0:21:29Z</time></trkpt>
<trkpt lat="43.4701307" lon="6.9087506"><ele></ele><time>2022-5-31T0:21:32Z</time></trkpt>
<trkpt lat="43.4701305" lon="6.9087507"><ele></ele><time>2022-5-31T0:21:35Z</time></trkpt>
<trkpt lat="43.4701306" lon="6.9087509"><ele></ele><time>2022-5-31T0:21:38Z</time></trkpt>
<trkpt lat="43.4701308" lon="6.9087509"><ele></ele><time>2022-5-31T0:21:41Z</time></trkpt>
<trkpt lat="43.4701313" lon="6.9087514"><ele></ele><time>2022-5-31T0:21:44Z</time></trkpt>
<trkpt lat="43.4701317" lon="6.9087519"><ele></ele><time>2022-5-31T0:21:47Z</time></trkpt>
<trkpt lat="43.4701335" lon="6.9087541"><ele></ele><time>2022-5-31T0:21:50Z</time></trkpt>
<trkpt lat="43.4701350" lon="6.9087554"><ele></ele><time>2022-5-31T0:21:53Z</time></trkpt>
<trkpt lat="43.4701354" lon="6.9087558"><ele></ele><time>2022-5-31T0:21:56Z</time></trkpt>
<trkpt lat="43.4701353" lon="6.9087565"><ele></ele><time>2022-5-31T0:21:59Z</time></trkpt>
<trkpt lat="43.4701355" lon="6.9087577"><ele></ele><time>2022-5-31T0:22:2Z</time></trkpt>
<trkpt lat="43.4701369" lon="6.9087583"><ele></ele><time>2022-5-31T0:22:5Z</time></trkpt>
<trkpt lat="43.4701378" lon="6.9087587"><ele></ele><time>2022-5-31T0:22:8Z</time></trkpt>
<trkpt lat="43.4701384" lon="6.9087589"><ele></ele><time>2022-5-31T0:22:11Z</time></trkpt>
<trkpt lat="43.4701390" lon="6.9087590"><ele></ele><time>2022-5-31T0:22:14Z</time></trkpt>
<trkpt lat="43.4701389" lon="6.9087593"><ele></ele><time>2022-5-31T0:22:17Z</time></trkpt>
<trkpt lat="43.4701390" lon="6.9087595"><ele></ele><time>2022-5-31T0:22:20Z</time></trkpt>
<trkpt lat="43.4701384" lon="6.9087601"><ele></ele><time>2022-5-31T0:22:23Z</time></trkpt>
<trkpt lat="43.4701376" lon="6.9087599"><ele></ele><time>2022-5-31T0:22:26Z</time></trkpt>
<trkpt lat="43.4701369" lon="6.9087601"><ele></ele><time>2022-5-31T0:22:29Z</time></trkpt>
<trkpt lat="43.4701372" lon="6.9087597"><ele></ele><time>2022-5-31T0:22:32Z</time></trkpt>
<trkpt lat="43.4701373" lon="6.9087597"><ele></ele><time>2022-5-31T0:22:35Z</time></trkpt>
<trkpt lat="43.4701377" lon="6.9087599"><ele></ele><time>2022-5-31T0:22:38Z</time></trkpt>
<trkpt lat="43.4701358" lon="6.9087599"><ele></ele><time>2022-5-31T0:22:41Z</time></trkpt>
<trkpt lat="43.4701354" lon="6.9087587"><ele></ele><time>2022-5-31T0:22:44Z</time></trkpt>
<trkpt lat="43.4701308" lon="6.9087537"><ele></ele><time>2022-5-31T0:22:47Z</time></trkpt>
<trkpt lat="43.4701293" lon="6.9087550"><ele></ele><time>2022-5-31T0:22:50Z</time></trkpt>
<trkpt lat="43.4701328" lon="6.9087409"><ele></ele><time>2022-5-31T0:22:53Z</time></trkpt>
<trkpt lat="43.4701341" lon="6.9087312"><ele></ele><time>2022-5-31T0:22:56Z</time></trkpt>
<trkpt lat="43.4701313" lon="6.9087353"><ele></ele><time>2022-5-31T0:22:59Z</time></trkpt>
<trkpt lat="43.4701296" lon="6.9087352"><ele></ele><time>2022-5-31T0:23:2Z</time></trkpt>
<trkpt lat="43.4701286" lon="6.9087349"><ele></ele><time>2022-5-31T0:23:5Z</time></trkpt>
<trkpt lat="43.4701285" lon="6.9087350"><ele></ele><time>2022-5-31T0:23:8Z</time></trkpt>
<trkpt lat="43.4701286" lon="6.9087353"><ele></ele><time>2022-5-31T0:23:11Z</time></trkpt>
<trkpt lat="43.4701283" lon="6.9087353"><ele></ele><time>2022-5-31T0:23:14Z</time></trkpt>
<trkpt lat="43.4701281" lon="6.9087353"><ele></ele><time>2022-5-31T0:23:17Z</time></trkpt>
<trkpt lat="43.4701283" lon="6.9087353"><ele></ele><time>2022-5-31T0:23:20Z</time></trkpt>
<trkpt lat="43.4701280" lon="6.9087350"><ele></ele><time>2022-5-31T0:23:23Z</time></trkpt>
<trkpt lat="43.4701269" lon="6.9087348"><ele></ele><time>2022-5-31T0:23:26Z</time></trkpt>
<trkpt lat="43.4701266" lon="6.9087346"><ele></ele><time>2022-5-31T0:23:29Z</time></trkpt>
<trkpt lat="43.4701251" lon="6.9087353"><ele></ele><time>2022-5-31T0:23:32Z</time></trkpt>
<trkpt lat="43.4701255" lon="6.9087352"><ele></ele><time>2022-5-31T0:23:35Z</time></trkpt>
<trkpt lat="43.4701258" lon="6.9087352"><ele></ele><time>2022-5-31T0:23:38Z</time></trkpt>
<trkpt lat="43.4701259" lon="6.9087353"><ele></ele><time>2022-5-31T0:23:41Z</time></trkpt>
<trkpt lat="43.4701261" lon="6.9087355"><ele></ele><time>2022-5-31T0:23:44Z</time></trkpt>
<trkpt lat="43.4701262" lon="6.9087358"><ele></ele><time>2022-5-31T0:23:47Z</time></trkpt>
<trkpt lat="43.4701261" lon="6.9087362"><ele></ele><time>2022-5-31T0:23:50Z</time></trkpt>
<trkpt lat="43.4701257" lon="6.9087365"><ele></ele><time>2022-5-31T0:23:53Z</time></trkpt>
<trkpt lat="43.4701252" lon="6.9087359"><ele></ele><time>2022-5-31T0:23:56Z</time></trkpt>
<trkpt lat="43.4701247" lon="6.9087352"><ele></ele><time>2022-5-31T0:23:59Z</time></trkpt>
<trkpt lat="43.4701246" lon="6.9087351"><ele></ele><time>2022-5-31T0:24:2Z</time></trkpt>
<trkpt lat="43.4701244" lon="6.9087349"><ele></ele><time>2022-5-31T0:24:5Z</time></trkpt>
<trkpt lat="43.4701242" lon="6.9087341"><ele></ele><time>2022-5-31T0:24:8Z</time></trkpt>
<trkpt lat="43.4701249" lon="6.9087338"><ele></ele><time>2022-5-31T0:24:11Z</time></trkpt>
<trkpt lat="43.4701248" lon="6.9087336"><ele></ele><time>2022-5-31T0:24:14Z</time></trkpt>
<trkpt lat="43.4701246" lon="6.9087339"><ele></ele><time>2022-5-31T0:24:17Z</time></trkpt>
<trkpt lat="43.4701246" lon="6.9087346"><ele></ele><time>2022-5-31T0:24:20Z</time></trkpt>
<trkpt lat="43.4701243" lon="6.9087355"><ele></ele><time>2022-5-31T0:24:23Z</time></trkpt>
<trkpt lat="43.4701240" lon="6.9087361"><ele></ele><time>2022-5-31T0:24:26Z</time></trkpt>
<trkpt lat="43.4701225" lon="6.9087378"><ele></ele><time>2022-5-31T0:24:29Z</time></trkpt>
<trkpt lat="43.4701221" lon="6.9087385"><ele></ele><time>2022-5-31T0:24:32Z</time></trkpt>
<trkpt lat="43.4701210" lon="6.9087400"><ele></ele><time>2022-5-31T0:24:35Z</time></trkpt>
<trkpt lat="43.4701203" lon="6.9087410"><ele></ele><time>2022-5-31T0:24:38Z</time></trkpt>
<trkpt lat="43.4701190" lon="6.9087422"><ele></ele><time>2022-5-31T0:24:41Z</time></trkpt>
<trkpt lat="43.4701167" lon="6.9087441"><ele></ele><time>2022-5-31T0:24:44Z</time></trkpt>
<trkpt lat="43.4701161" lon="6.9087450"><ele></ele><time>2022-5-31T0:24:47Z</time></trkpt>
<trkpt lat="43.4701145" lon="6.9087466"><ele></ele><time>2022-5-31T0:24:50Z</time></trkpt>
<trkpt lat="43.4701142" lon="6.9087475"><ele></ele><time>2022-5-31T0:24:53Z</time></trkpt>
<trkpt lat="43.4701138" lon="6.9087489"><ele></ele><time>2022-5-31T0:24:56Z</time></trkpt>
<trkpt lat="43.4701135" lon="6.9087492"><ele></ele><time>2022-5-31T0:24:59Z</time></trkpt>
<trkpt lat="43.4701137" lon="6.9087495"><ele></ele><time>2022-5-31T0:25:2Z</time></trkpt>
<trkpt lat="43.4701143" lon="6.9087500"><ele></ele><time>2022-5-31T0:25:5Z</time></trkpt>
<trkpt lat="43.4701147" lon="6.9087509"><ele></ele><time>2022-5-31T0:25:8Z</time></trkpt>
<trkpt lat="43.4701148" lon="6.9087513"><ele></ele><time>2022-5-31T0:25:11Z</time></trkpt>
<trkpt lat="43.4701142" lon="6.9087520"><ele></ele><time>2022-5-31T0:25:14Z</time></trkpt>
<trkpt lat="43.4701138" lon="6.9087519"><ele></ele><time>2022-5-31T0:25:17Z</time></trkpt>
<trkpt lat="43.4701138" lon="6.9087526"><ele></ele><time>2022-5-31T0:25:20Z</time></trkpt>
<trkpt lat="43.4701142" lon="6.9087535"><ele></ele><time>2022-5-31T0:25:23Z</time></trkpt>
<trkpt lat="43.4701143" lon="6.9087536"><ele></ele><time>2022-5-31T0:25:26Z</time></trkpt>
<trkpt lat="43.4701145" lon="6.9087542"><ele></ele><time>2022-5-31T0:25:29Z</time></trkpt>
<trkpt lat="43.4701142" lon="6.9087546"><ele></ele><time>2022-5-31T0:25:32Z</time></trkpt>
<trkpt lat="43.4701140" lon="6.9087552"><ele></ele><time>2022-5-31T0:25:35Z</time></trkpt>
<trkpt lat="43.4701140" lon="6.9087558"><ele></ele><time>2022-5-31T0:25:38Z</time></trkpt>
<trkpt lat="43.4701134" lon="6.9087564"><ele></ele><time>2022-5-31T0:25:41Z</time></trkpt>
<trkpt lat="43.4701133" lon="6.9087567"><ele></ele><time>2022-5-31T0:25:44Z</time></trkpt>
<trkpt lat="43.4701131" lon="6.9087569"><ele></ele><time>2022-5-31T0:25:47Z</time></trkpt>
<trkpt lat="43.4701131" lon="6.9087570"><ele></ele><time>2022-5-31T0:25:50Z</time></trkpt>
<trkpt lat="43.4701131" lon="6.9087572"><ele></ele><time>2022-5-31T0:25:53Z</time></trkpt>
<trkpt lat="43.4701129" lon="6.9087573"><ele></ele><time>2022-5-31T0:25:56Z</time></trkpt>
<trkpt lat="43.4701128" lon="6.9087575"><ele></ele><time>2022-5-31T0:25:59Z</time></trkpt>
<trkpt lat="43.4701126" lon="6.9087576"><ele></ele><time>2022-5-31T0:26:2Z</time></trkpt>
<trkpt lat="43.4701128" lon="6.9087579"><ele></ele><time>2022-5-31T0:26:5Z</time></trkpt>
<trkpt lat="43.4701127" lon="6.9087580"><ele></ele><time>2022-5-31T0:26:8Z</time></trkpt>
<trkpt lat="43.4701126" lon="6.9087583"><ele></ele><time>2022-5-31T0:26:11Z</time></trkpt>
<trkpt lat="43.4701125" lon="6.9087585"><ele></ele><time>2022-5-31T0:26:14Z</time></trkpt>
<trkpt lat="43.4701124" lon="6.9087586"><ele></ele><time>2022-5-31T0:26:17Z</time></trkpt>
<trkpt lat="43.4701122" lon="6.9087589"><ele></ele><time>2022-5-31T0:26:20Z</time></trkpt>
<trkpt lat="43.4701122" lon="6.9087595"><ele></ele><time>2022-5-31T0:26:23Z</time></trkpt>
<trkpt lat="43.4701126" lon="6.9087599"><ele></ele><time>2022-5-31T0:26:26Z</time></trkpt>
<trkpt lat="43.4701127" lon="6.9087599"><ele></ele><time>2022-5-31T0:26:29Z</time></trkpt>
<trkpt lat="43.4701129" lon="6.9087602"><ele></ele><time>2022-5-31T0:26:32Z</time></trkpt>
<trkpt lat="43.4701130" lon="6.9087605"><ele></ele><time>2022-5-31T0:26:35Z</time></trkpt>
<trkpt lat="43.4701131" lon="6.9087609"><ele></ele><time>2022-5-31T0:26:38Z</time></trkpt>
<trkpt lat="43.4701131" lon="6.9087614"><ele></ele><time>2022-5-31T0:26:41Z</time></trkpt>
<trkpt lat="43.4701131" lon="6.9087618"><ele></ele><time>2022-5-31T0:26:44Z</time></trkpt>
<trkpt lat="43.4701131" lon="6.9087625"><ele></ele><time>2022-5-31T0:26:47Z</time></trkpt>
<trkpt lat="43.4701131" lon="6.9087629"><ele></ele><time>2022-5-31T0:26:50Z</time></trkpt>
<trkpt lat="43.4701132" lon="6.9087633"><ele></ele><time>2022-5-31T0:26:53Z</time></trkpt>
<trkpt lat="43.4701132" lon="6.9087640"><ele></ele><time>2022-5-31T0:26:56Z</time></trkpt>
<trkpt lat="43.4701131" lon="6.9087649"><ele></ele><time>2022-5-31T0:26:59Z</time></trkpt>
<trkpt lat="43.4701128" lon="6.9087649"><ele></ele><time>2022-5-31T0:27:2Z</time></trkpt>
<trkpt lat="43.4701123" lon="6.9087654"><ele></ele><time>2022-5-31T0:27:5Z</time></trkpt>
<trkpt lat="43.4701124" lon="6.9087658"><ele></ele><time>2022-5-31T0:27:8Z</time></trkpt>
<trkpt lat="43.4701125" lon="6.9087661"><ele></ele><time>2022-5-31T0:27:11Z</time></trkpt>
<trkpt lat="43.4701122" lon="6.9087673"><ele></ele><time>2022-5-31T0:27:14Z</time></trkpt>
<trkpt lat="43.4701123" lon="6.9087681"><ele></ele><time>2022-5-31T0:27:17Z</time></trkpt>
<trkpt lat="43.4701127" lon="6.9087704"><ele></ele><time>2022-5-31T0:27:20Z</time></trkpt>
<trkpt lat="43.4701134" lon="6.9087698"><ele></ele><time>2022-5-31T0:27:23Z</time></trkpt>
<trkpt lat="43.4701128" lon="6.9087709"><ele></ele><time>2022-5-31T0:27:26Z</time></trkpt>
<trkpt lat="43.4701125" lon="6.9087736"><ele></ele><time>2022-5-31T0:27:29Z</time></trkpt>
<trkpt lat="43.4701099" lon="6.9087697"><ele></ele><time>2022-5-31T0:27:32Z</time></trkpt>
<trkpt lat="43.4701065" lon="6.9087666"><ele></ele><time>2022-5-31T0:27:35Z</time></trkpt>
<trkpt lat="43.4701055" lon="6.9087638"><ele></ele><time>2022-5-31T0:27:38Z</time></trkpt>
<trkpt lat="43.4701053" lon="6.9087634"><ele></ele><time>2022-5-31T0:27:41Z</time></trkpt>
<trkpt lat="43.4701008" lon="6.9087555"><ele></ele><time>2022-5-31T0:27:44Z</time></trkpt>
<trkpt lat="43.4700966" lon="6.9087383"><ele></ele><time>2022-5-31T0:27:47Z</time></trkpt>
<trkpt lat="43.4700928" lon="6.9087203"><ele></ele><time>2022-5-31T0:27:50Z</time></trkpt>
<trkpt lat="43.4700882" lon="6.9086959"><ele></ele><time>2022-5-31T0:27:53Z</time></trkpt>
<trkpt lat="43.4700940" lon="6.9086667"><ele></ele><time>2022-5-31T0:27:56Z</time></trkpt>
<trkpt lat="43.4701129" lon="6.9086421"><ele></ele><time>2022-5-31T0:27:59Z</time></trkpt>
<trkpt lat="43.4701349" lon="6.9086220"><ele></ele><time>2022-5-31T0:28:2Z</time></trkpt>
<trkpt lat="43.4701557" lon="6.9085963"><ele></ele><time>2022-5-31T0:28:5Z</time></trkpt>
<trkpt lat="43.4701756" lon="6.9085659"><ele></ele><time>2022-5-31T0:28:8Z</time></trkpt>
<trkpt lat="43.4701949" lon="6.9085425"><ele></ele><time>2022-5-31T0:28:11Z</time></trkpt>
<trkpt lat="43.4702144" lon="6.9085171"><ele></ele><time>2022-5-31T0:28:14Z</time></trkpt>
<trkpt lat="43.4702300" lon="6.9084918"><ele></ele><time>2022-5-31T0:28:17Z</time></trkpt>
<trkpt lat="43.4702434" lon="6.9084580"><ele></ele><time>2022-5-31T0:28:20Z</time></trkpt>
<trkpt lat="43.4702528" lon="6.9084297"><ele></ele><time>2022-5-31T0:28:23Z</time></trkpt>
<trkpt lat="43.4702686" lon="6.9084070"><ele></ele><time>2022-5-31T0:28:26Z</time></trkpt>
<trkpt lat="43.4702788" lon="6.9083837"><ele></ele><time>2022-5-31T0:28:29Z</time></trkpt>
<trkpt lat="43.4702972" lon="6.9083440"><ele></ele><time>2022-5-31T0:28:32Z</time></trkpt>
<trkpt lat="43.4703195" lon="6.9083108"><ele></ele><time>2022-5-31T0:28:35Z</time></trkpt>
<trkpt lat="43.4703432" lon="6.9082707"><ele></ele><time>2022-5-31T0:28:38Z</time></trkpt>
<trkpt lat="43.4703614" lon="6.9082435"><ele></ele><time>2022-5-31T0:28:41Z</time></trkpt>
<trkpt lat="43.4703795" lon="6.9082134"><ele></ele><time>2022-5-31T0:28:44Z</time></trkpt>
<trkpt lat="43.4703870" lon="6.9081649"><ele></ele><time>2022-5-31T0:28:47Z</time></trkpt>
<trkpt lat="43.4703870" lon="6.9081404"><ele></ele><time>2022-5-31T0:28:50Z</time></trkpt>
<trkpt lat="43.4703812" lon="6.9081474"><ele></ele><time>2022-5-31T0:28:53Z</time></trkpt>
<trkpt lat="43.4703970" lon="6.9081346"><ele></ele><time>2022-5-31T0:28:56Z</time></trkpt>
<trkpt lat="43.4704075" lon="6.9081197"><ele></ele><time>2022-5-31T0:28:59Z</time></trkpt>
<trkpt lat="43.4704068" lon="6.9081173"><ele></ele><time>2022-5-31T0:29:2Z</time></trkpt>
<trkpt lat="43.4704073" lon="6.9081163"><ele></ele><time>2022-5-31T0:29:5Z</time></trkpt>
<trkpt lat="43.4704071" lon="6.9081178"><ele></ele><time>2022-5-31T0:29:8Z</time></trkpt>
<trkpt lat="43.4704070" lon="6.9081209"><ele></ele><time>2022-5-31T0:29:11Z</time></trkpt>
<trkpt lat="43.4704067" lon="6.9081231"><ele></ele><time>2022-5-31T0:29:14Z</time></trkpt>
<trkpt lat="43.4704069" lon="6.9081238"><ele></ele><time>2022-5-31T0:29:17Z</time></trkpt>
<trkpt lat="43.4704070" lon="6.9081243"><ele></ele><time>2022-5-31T0:29:20Z</time></trkpt>
<trkpt lat="43.4704071" lon="6.9081249"><ele></ele><time>2022-5-31T0:29:23Z</time></trkpt>
<trkpt lat="43.4704079" lon="6.9081270"><ele></ele><time>2022-5-31T0:29:26Z</time></trkpt>
<trkpt lat="43.4704079" lon="6.9081287"><ele></ele><time>2022-5-31T0:29:29Z</time></trkpt>
<trkpt lat="43.4704076" lon="6.9081290"><ele></ele><time>2022-5-31T0:29:32Z</time></trkpt>
<trkpt lat="43.4704080" lon="6.9081285"><ele></ele><time>2022-5-31T0:29:35Z</time></trkpt>
<trkpt lat="43.4704067" lon="6.9081292"><ele></ele><time>2022-5-31T0:29:38Z</time></trkpt>
<trkpt lat="43.4704061" lon="6.9081291"><ele></ele><time>2022-5-31T0:29:41Z</time></trkpt>
<trkpt lat="43.4704063" lon="6.9081275"><ele></ele><time>2022-5-31T0:29:44Z</time></trkpt>
<trkpt lat="43.4704061" lon="6.9081258"><ele></ele><time>2022-5-31T0:29:47Z</time></trkpt>
<trkpt lat="43.4704069" lon="6.9081255"><ele></ele><time>2022-5-31T0:29:50Z</time></trkpt>
<trkpt lat="43.4704069" lon="6.9081253"><ele></ele><time>2022-5-31T0:29:53Z</time></trkpt>
<trkpt lat="43.4704068" lon="6.9081250"><ele></ele><time>2022-5-31T0:29:56Z</time></trkpt>
<trkpt lat="43.4704069" lon="6.9081246"><ele></ele><time>2022-5-31T0:29:59Z</time></trkpt>
<trkpt lat="43.4704065" lon="6.9081240"><ele></ele><time>2022-5-31T0:30:2Z</time></trkpt>
<trkpt lat="43.4704056" lon="6.9081236"><ele></ele><time>2022-5-31T0:30:5Z</time></trkpt>
<trkpt lat="43.4704055" lon="6.9081234"><ele></ele><time>2022-5-31T0:30:8Z</time></trkpt>
<trkpt lat="43.4704052" lon="6.9081230"><ele></ele><time>2022-5-31T0:30:11Z</time></trkpt>
<trkpt lat="43.4704058" lon="6.9081223"><ele></ele><time>2022-5-31T0:30:14Z</time></trkpt>
<trkpt lat="43.4704093" lon="6.9081191"><ele></ele><time>2022-5-31T0:30:17Z</time></trkpt>
<trkpt lat="43.4704099" lon="6.9081183"><ele></ele><time>2022-5-31T0:30:20Z</time></trkpt>
<trkpt lat="43.4704099" lon="6.9081180"><ele></ele><time>2022-5-31T0:30:23Z</time></trkpt>
<trkpt lat="43.4704094" lon="6.9081170"><ele></ele><time>2022-5-31T0:30:26Z</time></trkpt>
<trkpt lat="43.4704089" lon="6.9081159"><ele></ele><time>2022-5-31T0:30:29Z</time></trkpt>
<trkpt lat="43.4704092" lon="6.9081142"><ele></ele><time>2022-5-31T0:30:32Z</time></trkpt>
<trkpt lat="43.4704115" lon="6.9081109"><ele></ele><time>2022-5-31T0:30:35Z</time></trkpt>
<trkpt lat="43.4704124" lon="6.9081091"><ele></ele><time>2022-5-31T0:30:38Z</time></trkpt>
<trkpt lat="43.4704142" lon="6.9081094"><ele></ele><time>2022-5-31T0:30:41Z</time></trkpt>
<trkpt lat="43.4704210" lon="6.9081146"><ele></ele><time>2022-5-31T0:30:44Z</time></trkpt>
<trkpt lat="43.4704249" lon="6.9081132"><ele></ele><time>2022-5-31T0:30:47Z</time></trkpt>
<trkpt lat="43.4704342" lon="6.9081147"><ele></ele><time>2022-5-31T0:30:50Z</time></trkpt>
<trkpt lat="43.4704340" lon="6.9081145"><ele></ele><time>2022-5-31T0:30:53Z</time></trkpt>
<trkpt lat="43.4704368" lon="6.9081175"><ele></ele><time>2022-5-31T0:30:56Z</time></trkpt>
<trkpt lat="43.4704375" lon="6.9081188"><ele></ele><time>2022-5-31T0:30:59Z</time></trkpt>
<trkpt lat="43.4704386" lon="6.9081173"><ele></ele><time>2022-5-31T0:31:2Z</time></trkpt>
<trkpt lat="43.4704452" lon="6.9081138"><ele></ele><time>2022-5-31T0:31:5Z</time></trkpt>
<trkpt lat="43.4704462" lon="6.9081131"><ele></ele><time>2022-5-31T0:31:8Z</time></trkpt>
<trkpt lat="43.4704465" lon="6.9081228"><ele></ele><time>2022-5-31T0:31:11Z</time></trkpt>
<trkpt lat="43.4704462" lon="6.9081227"><ele></ele><time>2022-5-31T0:31:14Z</time></trkpt>
<trkpt lat="43.4704460" lon="6.9081235"><ele></ele><time>2022-5-31T0:31:17Z</time></trkpt>
<trkpt lat="43.4704462" lon="6.9081245"><ele></ele><time>2022-5-31T0:31:20Z</time></trkpt>
<trkpt lat="43.4704460" lon="6.9081243"><ele></ele><time>2022-5-31T0:31:23Z</time></trkpt>
<trkpt lat="43.4704462" lon="6.9081240"><ele></ele><time>2022-5-31T0:31:26Z</time></trkpt>
<trkpt lat="43.4704472" lon="6.9081273"><ele></ele><time>2022-5-31T0:31:29Z</time></trkpt>
<trkpt lat="43.4704477" lon="6.9081265"><ele></ele><time>2022-5-31T0:31:32Z</time></trkpt>
<trkpt lat="43.4704421" lon="6.9081021"><ele></ele><time>2022-5-31T0:31:35Z</time></trkpt>
<trkpt lat="43.4704457" lon="6.9080724"><ele></ele><time>2022-5-31T0:31:38Z</time></trkpt>
<trkpt lat="43.4704546" lon="6.9080601"><ele></ele><time>2022-5-31T0:31:41Z</time></trkpt>
<trkpt lat="43.4704659" lon="6.9080342"><ele></ele><time>2022-5-31T0:31:44Z</time></trkpt>
<trkpt lat="43.4704814" lon="6.9080050"><ele></ele><time>2022-5-31T0:31:47Z</time></trkpt>
<trkpt lat="43.4705052" lon="6.9079560"><ele></ele><time>2022-5-31T0:31:50Z</time></trkpt>
<trkpt lat="43.4705305" lon="6.9079133"><ele></ele><time>2022-5-31T0:31:53Z</time></trkpt>
<trkpt lat="43.4705539" lon="6.9078574"><ele></ele><time>2022-5-31T0:31:56Z</time></trkpt>
<trkpt lat="43.4705750" lon="6.9077975"><ele></ele><time>2022-5-31T0:31:59Z</time></trkpt>
<trkpt lat="43.4705962" lon="6.9077534"><ele></ele><time>2022-5-31T0:32:2Z</time></trkpt>
<trkpt lat="43.4706146" lon="6.9077109"><ele></ele><time>2022-5-31T0:32:5Z</time></trkpt>
<trkpt lat="43.4706343" lon="6.9076609"><ele></ele><time>2022-5-31T0:32:8Z</time></trkpt>
<trkpt lat="43.4706489" lon="6.9076161"><ele></ele><time>2022-5-31T0:32:11Z</time></trkpt>
<trkpt lat="43.4706658" lon="6.9075701"><ele></ele><time>2022-5-31T0:32:14Z</time></trkpt>
<trkpt lat="43.4706825" lon="6.9075288"><ele></ele><time>2022-5-31T0:32:17Z</time></trkpt>
<trkpt lat="43.4706986" lon="6.9074921"><ele></ele><time>2022-5-31T0:32:20Z</time></trkpt>
<trkpt lat="43.4707176" lon="6.9074470"><ele></ele><time>2022-5-31T0:32:23Z</time></trkpt>
<trkpt lat="43.4707339" lon="6.9074054"><ele></ele><time>2022-5-31T0:32:26Z</time></trkpt>
<trkpt lat="43.4707484" lon="6.9073650"><ele></ele><time>2022-5-31T0:32:29Z</time></trkpt>
<trkpt lat="43.4707665" lon="6.9073180"><ele></ele><time>2022-5-31T0:32:32Z</time></trkpt>
<trkpt lat="43.4707875" lon="6.9072676"><ele></ele><time>2022-5-31T0:32:35Z</time></trkpt>
<trkpt lat="43.4708047" lon="6.9072156"><ele></ele><time>2022-5-31T0:32:38Z</time></trkpt>
<trkpt lat="43.4708223" lon="6.9071642"><ele></ele><time>2022-5-31T0:32:41Z</time></trkpt>
<trkpt lat="43.4708407" lon="6.9071169"><ele></ele><time>2022-5-31T0:32:44Z</time></trkpt>
<trkpt lat="43.4708600" lon="6.9070675"><ele></ele><time>2022-5-31T0:32:47Z</time></trkpt>
<trkpt lat="43.4708869" lon="6.9070259"><ele></ele><time>2022-5-31T0:32:50Z</time></trkpt>
<trkpt lat="43.4709113" lon="6.9069969"><ele></ele><time>2022-5-31T0:32:53Z</time></trkpt>
<trkpt lat="43.4709328" lon="6.9069611"><ele></ele><time>2022-5-31T0:32:56Z</time></trkpt>
<trkpt lat="43.4709567" lon="6.9069239"><ele></ele><time>2022-5-31T0:32:59Z</time></trkpt>
<trkpt lat="43.4709809" lon="6.9068888"><ele></ele><time>2022-5-31T0:33:2Z</time></trkpt>
<trkpt lat="43.4710144" lon="6.9068580"><ele></ele><time>2022-5-31T0:33:5Z</time></trkpt>
<trkpt lat="43.4710481" lon="6.9068264"><ele></ele><time>2022-5-31T0:33:8Z</time></trkpt>
<trkpt lat="43.4710832" lon="6.9067946"><ele></ele><time>2022-5-31T0:33:11Z</time></trkpt>
<trkpt lat="43.4711289" lon="6.9067688"><ele></ele><time>2022-5-31T0:33:14Z</time></trkpt>
<trkpt lat="43.4711695" lon="6.9067327"><ele></ele><time>2022-5-31T0:33:17Z</time></trkpt>
<trkpt lat="43.4712126" lon="6.9067064"><ele></ele><time>2022-5-31T0:33:20Z</time></trkpt>
<trkpt lat="43.4712517" lon="6.9066861"><ele></ele><time>2022-5-31T0:33:23Z</time></trkpt>
<trkpt lat="43.4712872" lon="6.9066693"><ele></ele><time>2022-5-31T0:33:26Z</time></trkpt>
<trkpt lat="43.4713247" lon="6.9066563"><ele></ele><time>2022-5-31T0:33:29Z</time></trkpt>
<trkpt lat="43.4713615" lon="6.9066409"><ele></ele><time>2022-5-31T0:33:32Z</time></trkpt>
<trkpt lat="43.4713949" lon="6.9066264"><ele></ele><time>2022-5-31T0:33:35Z</time></trkpt>
<trkpt lat="43.4714313" lon="6.9066107"><ele></ele><time>2022-5-31T0:33:38Z</time></trkpt>
<trkpt lat="43.4714609" lon="6.9065995"><ele></ele><time>2022-5-31T0:33:41Z</time></trkpt>
<trkpt lat="43.4714876" lon="6.9065921"><ele></ele><time>2022-5-31T0:33:44Z</time></trkpt>
<trkpt lat="43.4715091" lon="6.9065874"><ele></ele><time>2022-5-31T0:33:47Z</time></trkpt>
<trkpt lat="43.4715311" lon="6.9065857"><ele></ele><time>2022-5-31T0:33:50Z</time></trkpt>
<trkpt lat="43.4715369" lon="6.9065859"><ele></ele><time>2022-5-31T0:33:53Z</time></trkpt>
<trkpt lat="43.4715396" lon="6.9065891"><ele></ele><time>2022-5-31T0:33:56Z</time></trkpt>
<trkpt lat="43.4715478" lon="6.9065914"><ele></ele><time>2022-5-31T0:33:59Z</time></trkpt>
<trkpt lat="43.4715450" lon="6.9065921"><ele></ele><time>2022-5-31T0:34:2Z</time></trkpt>
<trkpt lat="43.4715458" lon="6.9065927"><ele></ele><time>2022-5-31T0:34:5Z</time></trkpt>
<trkpt lat="43.4715452" lon="6.9065953"><ele></ele><time>2022-5-31T0:34:8Z</time></trkpt>
<trkpt lat="43.4715483" lon="6.9065931"><ele></ele><time>2022-5-31T0:34:11Z</time></trkpt>
<trkpt lat="43.4715509" lon="6.9065925"><ele></ele><time>2022-5-31T0:34:14Z</time></trkpt>
<trkpt lat="43.4715518" lon="6.9065905"><ele></ele><time>2022-5-31T0:34:17Z</time></trkpt>
<trkpt lat="43.4715550" lon="6.9065828"><ele></ele><time>2022-5-31T0:34:20Z</time></trkpt>
<trkpt lat="43.4715570" lon="6.9065787"><ele></ele><time>2022-5-31T0:34:23Z</time></trkpt>
<trkpt lat="43.4715577" lon="6.9065767"><ele></ele><time>2022-5-31T0:34:26Z</time></trkpt>
<trkpt lat="43.4715594" lon="6.9065638"><ele></ele><time>2022-5-31T0:34:29Z</time></trkpt>
<trkpt lat="43.4715600" lon="6.9065694"><ele></ele><time>2022-5-31T0:34:32Z</time></trkpt>
<trkpt lat="43.4715585" lon="6.9065668"><ele></ele><time>2022-5-31T0:34:35Z</time></trkpt>
<trkpt lat="43.4715570" lon="6.9065604"><ele></ele><time>2022-5-31T0:34:38Z</time></trkpt>
<trkpt lat="43.4715572" lon="6.9065526"><ele></ele><time>2022-5-31T0:34:41Z</time></trkpt>
<trkpt lat="43.4715589" lon="6.9065490"><ele></ele><time>2022-5-31T0:34:44Z</time></trkpt>
<trkpt lat="43.4715588" lon="6.9065487"><ele></ele><time>2022-5-31T0:34:47Z</time></trkpt>
<trkpt lat="43.4715591" lon="6.9065493"><ele></ele><time>2022-5-31T0:34:50Z</time></trkpt>
<trkpt lat="43.4715599" lon="6.9065513"><ele></ele><time>2022-5-31T0:34:53Z</time></trkpt>
<trkpt lat="43.4715702" lon="6.9065523"><ele></ele><time>2022-5-31T0:34:56Z</time></trkpt>
<trkpt lat="43.4715727" lon="6.9065555"><ele></ele><time>2022-5-31T0:34:59Z</time></trkpt>
<trkpt lat="43.4715761" lon="6.9065605"><ele></ele><time>2022-5-31T0:35:2Z</time></trkpt>
<trkpt lat="43.4715867" lon="6.9065532"><ele></ele><time>2022-5-31T0:35:5Z</time></trkpt>
<trkpt lat="43.4716018" lon="6.9065433"><ele></ele><time>2022-5-31T0:35:8Z</time></trkpt>
<trkpt lat="43.4716182" lon="6.9065305"><ele></ele><time>2022-5-31T0:35:11Z</time></trkpt>
<trkpt lat="43.4716415" lon="6.9065301"><ele></ele><time>2022-5-31T0:35:14Z</time></trkpt>
<trkpt lat="43.4716684" lon="6.9065238"><ele></ele><time>2022-5-31T0:35:17Z</time></trkpt>
<trkpt lat="43.4717023" lon="6.9065058"><ele></ele><time>2022-5-31T0:35:20Z</time></trkpt>
<trkpt lat="43.4717395" lon="6.9064856"><ele></ele><time>2022-5-31T0:35:23Z</time></trkpt>
<trkpt lat="43.4717783" lon="6.9064689"><ele></ele><time>2022-5-31T0:35:26Z</time></trkpt>
<trkpt lat="43.4718153" lon="6.9064556"><ele></ele><time>2022-5-31T0:35:29Z</time></trkpt>
<trkpt lat="43.4718541" lon="6.9064472"><ele></ele><time>2022-5-31T0:35:32Z</time></trkpt>
<trkpt lat="43.4718910" lon="6.9064272"><ele></ele><time>2022-5-31T0:35:35Z</time></trkpt>
<trkpt lat="43.4719165" lon="6.9064124"><ele></ele><time>2022-5-31T0:35:38Z</time></trkpt>
<trkpt lat="43.4719438" lon="6.9063970"><ele></ele><time>2022-5-31T0:35:41Z</time></trkpt>
<trkpt lat="43.4719754" lon="6.9063862"><ele></ele><time>2022-5-31T0:35:44Z</time></trkpt>
<trkpt lat="43.4719984" lon="6.9063758"><ele></ele><time>2022-5-31T0:35:47Z</time></trkpt>
<trkpt lat="43.4720023" lon="6.9063787"><ele></ele><time>2022-5-31T0:35:50Z</time></trkpt>
<trkpt lat="43.4719999" lon="6.9063776"><ele></ele><time>2022-5-31T0:35:53Z</time></trkpt>
<trkpt lat="43.4720035" lon="6.9063787"><ele></ele><time>2022-5-31T0:35:56Z</time></trkpt>
<trkpt lat="43.4720056" lon="6.9063828"><ele></ele><time>2022-5-31T0:35:59Z</time></trkpt>
<trkpt lat="43.4720025" lon="6.9063824"><ele></ele><time>2022-5-31T0:36:2Z</time></trkpt>
<trkpt lat="43.4720041" lon="6.9063830"><ele></ele><time>2022-5-31T0:36:5Z</time></trkpt>
<trkpt lat="43.4720051" lon="6.9063836"><ele></ele><time>2022-5-31T0:36:8Z</time></trkpt>
<trkpt lat="43.4720066" lon="6.9063845"><ele></ele><time>2022-5-31T0:36:11Z</time></trkpt>
<trkpt lat="43.4720079" lon="6.9063851"><ele></ele><time>2022-5-31T0:36:14Z</time></trkpt>
<trkpt lat="43.4720089" lon="6.9063859"><ele></ele><time>2022-5-31T0:36:17Z</time></trkpt>
<trkpt lat="43.4720100" lon="6.9063861"><ele></ele><time>2022-5-31T0:36:20Z</time></trkpt>
<trkpt lat="43.4720102" lon="6.9063857"><ele></ele><time>2022-5-31T0:36:23Z</time></trkpt>
<trkpt lat="43.4720144" lon="6.9063799"><ele></ele><time>2022-5-31T0:36:26Z</time></trkpt>
<trkpt lat="43.4720359" lon="6.9063655"><ele></ele><time>2022-5-31T0:36:29Z</time></trkpt>
<trkpt lat="43.4720665" lon="6.9063490"><ele></ele><time>2022-5-31T0:36:32Z</time></trkpt>
<trkpt lat="43.4720999" lon="6.9063435"><ele></ele><time>2022-5-31T0:36:35Z</time></trkpt>
<trkpt lat="43.4721262" lon="6.9063395"><ele></ele><time>2022-5-31T0:36:38Z</time></trkpt>
<trkpt lat="43.4721536" lon="6.9063264"><ele></ele><time>2022-5-31T0:36:41Z</time></trkpt>
<trkpt lat="43.4721926" lon="6.9063069"><ele></ele><time>2022-5-31T0:36:44Z</time></trkpt>
<trkpt lat="43.4722260" lon="6.9062929"><ele></ele><time>2022-5-31T0:36:47Z</time></trkpt>
<trkpt lat="43.4722585" lon="6.9062902"><ele></ele><time>2022-5-31T0:36:50Z</time></trkpt>
<trkpt lat="43.4722815" lon="6.9062761"><ele></ele><time>2022-5-31T0:36:53Z</time></trkpt>
<trkpt lat="43.4722901" lon="6.9062628"><ele></ele><time>2022-5-31T0:36:56Z</time></trkpt>
<trkpt lat="43.4723029" lon="6.9062538"><ele></ele><time>2022-5-31T0:36:59Z</time></trkpt>
<trkpt lat="43.4723233" lon="6.9062435"><ele></ele><time>2022-5-31T0:37:2Z</time></trkpt>
<trkpt lat="43.4723375" lon="6.9062452"><ele></ele><time>2022-5-31T0:37:5Z</time></trkpt>
<trkpt lat="43.4723583" lon="6.9062377"><ele></ele><time>2022-5-31T0:37:8Z</time></trkpt>
<trkpt lat="43.4723745" lon="6.9062322"><ele></ele><time>2022-5-31T0:37:11Z</time></trkpt>
<trkpt lat="43.4724009" lon="6.9062323"><ele></ele><time>2022-5-31T0:37:14Z</time></trkpt>
<trkpt lat="43.4724257" lon="6.9062259"><ele></ele><time>2022-5-31T0:37:17Z</time></trkpt>
<trkpt lat="43.4724526" lon="6.9062222"><ele></ele><time>2022-5-31T0:37:20Z</time></trkpt>
<trkpt lat="43.4724727" lon="6.9062173"><ele></ele><time>2022-5-31T0:37:23Z</time></trkpt>
<trkpt lat="43.4725019" lon="6.9061856"><ele></ele><time>2022-5-31T0:37:26Z</time></trkpt>
<trkpt lat="43.4725285" lon="6.9061572"><ele></ele><time>2022-5-31T0:37:29Z</time></trkpt>
<trkpt lat="43.4725486" lon="6.9061439"><ele></ele><time>2022-5-31T0:37:32Z</time></trkpt>
<trkpt lat="43.4725633" lon="6.9061305"><ele></ele><time>2022-5-31T0:37:35Z</time></trkpt>
<trkpt lat="43.4725757" lon="6.9061076"><ele></ele><time>2022-5-31T0:37:38Z</time></trkpt>
<trkpt lat="43.4725753" lon="6.9060802"><ele></ele><time>2022-5-31T0:37:41Z</time></trkpt>
<trkpt lat="43.4725708" lon="6.9060487"><ele></ele><time>2022-5-31T0:37:44Z</time></trkpt>
<trkpt lat="43.4725606" lon="6.9060103"><ele></ele><time>2022-5-31T0:37:47Z</time></trkpt>
<trkpt lat="43.4725494" lon="6.9059805"><ele></ele><time>2022-5-31T0:37:50Z</time></trkpt>
<trkpt lat="43.4725328" lon="6.9059506"><ele></ele><time>2022-5-31T0:37:53Z</time></trkpt>
<trkpt lat="43.4725095" lon="6.9059158"><ele></ele><time>2022-5-31T0:37:56Z</time></trkpt>
<trkpt lat="43.4724931" lon="6.9058813"><ele></ele><time>2022-5-31T0:37:59Z</time></trkpt>
<trkpt lat="43.4724799" lon="6.9058370"><ele></ele><time>2022-5-31T0:38:2Z</time></trkpt>
<trkpt lat="43.4724632" lon="6.9057835"><ele></ele><time>2022-5-31T0:38:5Z</time></trkpt>
<trkpt lat="43.4724485" lon="6.9057297"><ele></ele><time>2022-5-31T0:38:8Z</time></trkpt>
<trkpt lat="43.4724337" lon="6.9056786"><ele></ele><time>2022-5-31T0:38:11Z</time></trkpt>
<trkpt lat="43.4724160" lon="6.9056342"><ele></ele><time>2022-5-31T0:38:14Z</time></trkpt>
<trkpt lat="43.4723922" lon="6.9055774"><ele></ele><time>2022-5-31T0:38:17Z</time></trkpt>
<trkpt lat="43.4723639" lon="6.9055099"><ele></ele><time>2022-5-31T0:38:20Z</time></trkpt>
<trkpt lat="43.4723230" lon="6.9054496"><ele></ele><time>2022-5-31T0:38:23Z</time></trkpt>
<trkpt lat="43.4722884" lon="6.9053823"><ele></ele><time>2022-5-31T0:38:26Z</time></trkpt>
<trkpt lat="43.4722596" lon="6.9053111"><ele></ele><time>2022-5-31T0:38:29Z</time></trkpt>
<trkpt lat="43.4722244" lon="6.9052524"><ele></ele><time>2022-5-31T0:38:32Z</time></trkpt>
<trkpt lat="43.4721925" lon="6.9052078"><ele></ele><time>2022-5-31T0:38:35Z</time></trkpt>
<trkpt lat="43.4721696" lon="6.9051795"><ele></ele><time>2022-5-31T0:38:38Z</time></trkpt>
<trkpt lat="43.4721548" lon="6.9051457"><ele></ele><time>2022-5-31T0:38:41Z</time></trkpt>
<trkpt lat="43.4721396" lon="6.9051157"><ele></ele><time>2022-5-31T0:38:44Z</time></trkpt>
<trkpt lat="43.4721192" lon="6.9050792"><ele></ele><time>2022-5-31T0:38:47Z</time></trkpt>
<trkpt lat="43.4721019" lon="6.9050408"><ele></ele><time>2022-5-31T0:38:50Z</time></trkpt>
<trkpt lat="43.4720826" lon="6.9050081"><ele></ele><time>2022-5-31T0:38:53Z</time></trkpt>
<trkpt lat="43.4720673" lon="6.9049799"><ele></ele><time>2022-5-31T0:38:56Z</time></trkpt>
<trkpt lat="43.4720546" lon="6.9049576"><ele></ele><time>2022-5-31T0:38:59Z</time></trkpt>
<trkpt lat="43.4720397" lon="6.9049341"><ele></ele><time>2022-5-31T0:39:2Z</time></trkpt>
<trkpt lat="43.4720221" lon="6.9048968"><ele></ele><time>2022-5-31T0:39:5Z</time></trkpt>
<trkpt lat="43.4720058" lon="6.9048688"><ele></ele><time>2022-5-31T0:39:8Z</time></trkpt>
<trkpt lat="43.4719933" lon="6.9048488"><ele></ele><time>2022-5-31T0:39:11Z</time></trkpt>
<trkpt lat="43.4719871" lon="6.9048411"><ele></ele><time>2022-5-31T0:39:14Z</time></trkpt>
<trkpt lat="43.4719878" lon="6.9048455"><ele></ele><time>2022-5-31T0:39:17Z</time></trkpt>
<trkpt lat="43.4719863" lon="6.9048473"><ele></ele><time>2022-5-31T0:39:20Z</time></trkpt>
<trkpt lat="43.4719844" lon="6.9048456"><ele></ele><time>2022-5-31T0:39:23Z</time></trkpt>
<trkpt lat="43.4719840" lon="6.9048456"><ele></ele><time>2022-5-31T0:39:26Z</time></trkpt>
<trkpt lat="43.4719845" lon="6.9048470"><ele></ele><time>2022-5-31T0:39:29Z</time></trkpt>
<trkpt lat="43.4719845" lon="6.9048476"><ele></ele><time>2022-5-31T0:39:32Z</time></trkpt>
<trkpt lat="43.4719834" lon="6.9048479"><ele></ele><time>2022-5-31T0:39:35Z</time></trkpt>
<trkpt lat="43.4719778" lon="6.9048348"><ele></ele><time>2022-5-31T0:39:38Z</time></trkpt>
<trkpt lat="43.4719581" lon="6.9048018"><ele></ele><time>2022-5-31T0:39:41Z</time></trkpt>
<trkpt lat="43.4719377" lon="6.9047604"><ele></ele><time>2022-5-31T0:39:44Z</time></trkpt>
<trkpt lat="43.4719139" lon="6.9047129"><ele></ele><time>2022-5-31T0:39:47Z</time></trkpt>
<trkpt lat="43.4718903" lon="6.9046639"><ele></ele><time>2022-5-31T0:39:50Z</time></trkpt>
<trkpt lat="43.4718678" lon="6.9046106"><ele></ele><time>2022-5-31T0:39:53Z</time></trkpt>
<trkpt lat="43.4718498" lon="6.9045566"><ele></ele><time>2022-5-31T0:39:56Z</time></trkpt>
<trkpt lat="43.4718375" lon="6.9044985"><ele></ele><time>2022-5-31T0:39:59Z</time></trkpt>
<trkpt lat="43.4718282" lon="6.9044396"><ele></ele><time>2022-5-31T0:40:2Z</time></trkpt>
<trkpt lat="43.4718206" lon="6.9043773"><ele></ele><time>2022-5-31T0:40:5Z</time></trkpt>
<trkpt lat="43.4718189" lon="6.9043183"><ele></ele><time>2022-5-31T0:40:8Z</time></trkpt>
<trkpt lat="43.4718256" lon="6.9042583"><ele></ele><time>2022-5-31T0:40:11Z</time></trkpt>
<trkpt lat="43.4718396" lon="6.9042025"><ele></ele><time>2022-5-31T0:40:14Z</time></trkpt>
<trkpt lat="43.4718617" lon="6.9041555"><ele></ele><time>2022-5-31T0:40:17Z</time></trkpt>
<trkpt lat="43.4718783" lon="6.9041010"><ele></ele><time>2022-5-31T0:40:20Z</time></trkpt>
<trkpt lat="43.4718898" lon="6.9040377"><ele></ele><time>2022-5-31T0:40:23Z</time></trkpt>
<trkpt lat="43.4719068" lon="6.9039708"><ele></ele><time>2022-5-31T0:40:26Z</time></trkpt>
<trkpt lat="43.4719303" lon="6.9039084"><ele></ele><time>2022-5-31T0:40:29Z</time></trkpt>
<trkpt lat="43.4719599" lon="6.9038542"><ele></ele><time>2022-5-31T0:40:32Z</time></trkpt>
<trkpt lat="43.4719942" lon="6.9038011"><ele></ele><time>2022-5-31T0:40:35Z</time></trkpt>
<trkpt lat="43.4719986" lon="6.9037358"><ele></ele><time>2022-5-31T0:40:38Z</time></trkpt>
<trkpt lat="43.4719983" lon="6.9036710"><ele></ele><time>2022-5-31T0:40:41Z</time></trkpt>
<trkpt lat="43.4719976" lon="6.9036119"><ele></ele><time>2022-5-31T0:40:44Z</time></trkpt>
<trkpt lat="43.4719839" lon="6.9035549"><ele></ele><time>2022-5-31T0:40:47Z</time></trkpt>
<trkpt lat="43.4719677" lon="6.9034882"><ele></ele><time>2022-5-31T0:40:50Z</time></trkpt>
<trkpt lat="43.4719548" lon="6.9034203"><ele></ele><time>2022-5-31T0:40:53Z</time></trkpt>
<trkpt lat="43.4719572" lon="6.9033511"><ele></ele><time>2022-5-31T0:40:56Z</time></trkpt>
<trkpt lat="43.4719600" lon="6.9033003"><ele></ele><time>2022-5-31T0:40:59Z</time></trkpt>
<trkpt lat="43.4719530" lon="6.9032438"><ele></ele><time>2022-5-31T0:41:2Z</time></trkpt>
<trkpt lat="43.4719425" lon="6.9031834"><ele></ele><time>2022-5-31T0:41:5Z</time></trkpt>
<trkpt lat="43.4719287" lon="6.9031220"><ele></ele><time>2022-5-31T0:41:8Z</time></trkpt>
<trkpt lat="43.4719219" lon="6.9030643"><ele></ele><time>2022-5-31T0:41:11Z</time></trkpt>
<trkpt lat="43.4719193" lon="6.9030103"><ele></ele><time>2022-5-31T0:41:14Z</time></trkpt>
<trkpt lat="43.4719197" lon="6.9029570"><ele></ele><time>2022-5-31T0:41:17Z</time></trkpt>
<trkpt lat="43.4719140" lon="6.9029120"><ele></ele><time>2022-5-31T0:41:20Z</time></trkpt>
<trkpt lat="43.4719100" lon="6.9028782"><ele></ele><time>2022-5-31T0:41:23Z</time></trkpt>
<trkpt lat="43.4719198" lon="6.9028215"><ele></ele><time>2022-5-31T0:41:26Z</time></trkpt>
<trkpt lat="43.4719269" lon="6.9027738"><ele></ele><time>2022-5-31T0:41:29Z</time></trkpt>
<trkpt lat="43.4719304" lon="6.9027322"><ele></ele><time>2022-5-31T0:41:32Z</time></trkpt>
<trkpt lat="43.4719371" lon="6.9026852"><ele></ele><time>2022-5-31T0:41:35Z</time></trkpt>
<trkpt lat="43.4719433" lon="6.9026248"><ele></ele><time>2022-5-31T0:41:38Z</time></trkpt>
<trkpt lat="43.4719492" lon="6.9025712"><ele></ele><time>2022-5-31T0:41:41Z</time></trkpt>
<trkpt lat="43.4719589" lon="6.9025149"><ele></ele><time>2022-5-31T0:41:44Z</time></trkpt>
<trkpt lat="43.4719677" lon="6.9024822"><ele></ele><time>2022-5-31T0:41:47Z</time></trkpt>
<trkpt lat="43.4719801" lon="6.9024468"><ele></ele><time>2022-5-31T0:41:50Z</time></trkpt>
<trkpt lat="43.4719910" lon="6.9024189"><ele></ele><time>2022-5-31T0:41:53Z</time></trkpt>
<trkpt lat="43.4719985" lon="6.9023957"><ele></ele><time>2022-5-31T0:41:56Z</time></trkpt>
<trkpt lat="43.4720029" lon="6.9023656"><ele></ele><time>2022-5-31T0:41:59Z</time></trkpt>
<trkpt lat="43.4720028" lon="6.9023473"><ele></ele><time>2022-5-31T0:42:2Z</time></trkpt>
<trkpt lat="43.4720042" lon="6.9023299"><ele></ele><time>2022-5-31T0:42:5Z</time></trkpt>
<trkpt lat="43.4720132" lon="6.9023124"><ele></ele><time>2022-5-31T0:42:8Z</time></trkpt>
<trkpt lat="43.4720271" lon="6.9022888"><ele></ele><time>2022-5-31T0:42:11Z</time></trkpt>
<trkpt lat="43.4720349" lon="6.9022682"><ele></ele><time>2022-5-31T0:42:14Z</time></trkpt>
<trkpt lat="43.4720531" lon="6.9022503"><ele></ele><time>2022-5-31T0:42:17Z</time></trkpt>
<trkpt lat="43.4720736" lon="6.9022258"><ele></ele><time>2022-5-31T0:42:20Z</time></trkpt>
<trkpt lat="43.4720974" lon="6.9022103"><ele></ele><time>2022-5-31T0:42:23Z</time></trkpt>
<trkpt lat="43.4721216" lon="6.9021861"><ele></ele><time>2022-5-31T0:42:26Z</time></trkpt>
<trkpt lat="43.4721412" lon="6.9021661"><ele></ele><time>2022-5-31T0:42:29Z</time></trkpt>
<trkpt lat="43.4721703" lon="6.9021449"><ele></ele><time>2022-5-31T0:42:32Z</time></trkpt>
<trkpt lat="43.4722047" lon="6.9021227"><ele></ele><time>2022-5-31T0:42:35Z</time></trkpt>
<trkpt lat="43.4722387" lon="6.9021012"><ele></ele><time>2022-5-31T0:42:38Z</time></trkpt>
<trkpt lat="43.4722707" lon="6.9020775"><ele></ele><time>2022-5-31T0:42:41Z</time></trkpt>
<trkpt lat="43.4723124" lon="6.9020503"><ele></ele><time>2022-5-31T0:42:44Z</time></trkpt>
<trkpt lat="43.4723534" lon="6.9020255"><ele></ele><time>2022-5-31T0:42:47Z</time></trkpt>
<trkpt lat="43.4723889" lon="6.9020060"><ele></ele><time>2022-5-31T0:42:50Z</time></trkpt>
<trkpt lat="43.4724292" lon="6.9019888"><ele></ele><time>2022-5-31T0:42:53Z</time></trkpt>
<trkpt lat="43.4724664" lon="6.9019687"><ele></ele><time>2022-5-31T0:42:56Z</time></trkpt>
<trkpt lat="43.4725033" lon="6.9019457"><ele></ele><time>2022-5-31T0:42:59Z</time></trkpt>
<trkpt lat="43.4725382" lon="6.9019217"><ele></ele><time>2022-5-31T0:43:2Z</time></trkpt>
<trkpt lat="43.4725721" lon="6.9018989"><ele></ele><time>2022-5-31T0:43:5Z</time></trkpt>
<trkpt lat="43.4726011" lon="6.9018789"><ele></ele><time>2022-5-31T0:43:8Z</time></trkpt>
<trkpt lat="43.4726332" lon="6.9018608"><ele></ele><time>2022-5-31T0:43:11Z</time></trkpt>
<trkpt lat="43.4726699" lon="6.9018396"><ele></ele><time>2022-5-31T0:43:14Z</time></trkpt>
<trkpt lat="43.4727176" lon="6.9017985"><ele></ele><time>2022-5-31T0:43:17Z</time></trkpt>
<trkpt lat="43.4727616" lon="6.9017674"><ele></ele><time>2022-5-31T0:43:20Z</time></trkpt>
<trkpt lat="43.4727936" lon="6.9017534"><ele></ele><time>2022-5-31T0:43:23Z</time></trkpt>
<trkpt lat="43.4728163" lon="6.9017429"><ele></ele><time>2022-5-31T0:43:26Z</time></trkpt>
<trkpt lat="43.4728363" lon="6.9017383"><ele></ele><time>2022-5-31T0:43:29Z</time></trkpt>
<trkpt lat="43.4728540" lon="6.9017321"><ele></ele><time>2022-5-31T0:43:32Z</time></trkpt>
<trkpt lat="43.4728628" lon="6.9017287"><ele></ele><time>2022-5-31T0:43:35Z</time></trkpt>
<trkpt lat="43.4728696" lon="6.9017279"><ele></ele><time>2022-5-31T0:43:38Z</time></trkpt>
<trkpt lat="43.4728683" lon="6.9017289"><ele></ele><time>2022-5-31T0:43:41Z</time></trkpt>
<trkpt lat="43.4728714" lon="6.9017270"><ele></ele><time>2022-5-31T0:43:44Z</time></trkpt>
<trkpt lat="43.4728733" lon="6.9017284"><ele></ele><time>2022-5-31T0:43:47Z</time></trkpt>
<trkpt lat="43.4728740" lon="6.9017278"><ele></ele><time>2022-5-31T0:43:50Z</time></trkpt>
<trkpt lat="43.4728741" lon="6.9017281"><ele></ele><time>2022-5-31T0:43:53Z</time></trkpt>
<trkpt lat="43.4728792" lon="6.9017243"><ele></ele><time>2022-5-31T0:43:56Z</time></trkpt>
<trkpt lat="43.4729018" lon="6.9017111"><ele></ele><time>2022-5-31T0:43:59Z</time></trkpt>
<trkpt lat="43.4729341" lon="6.9016915"><ele></ele><time>2022-5-31T0:44:2Z</time></trkpt>
<trkpt lat="43.4729669" lon="6.9016775"><ele></ele><time>2022-5-31T0:44:5Z</time></trkpt>
<trkpt lat="43.4730001" lon="6.9016810"><ele></ele><time>2022-5-31T0:44:8Z</time></trkpt>
<trkpt lat="43.4730343" lon="6.9017006"><ele></ele><time>2022-5-31T0:44:11Z</time></trkpt>
<trkpt lat="43.4730627" lon="6.9017297"><ele></ele><time>2022-5-31T0:44:14Z</time></trkpt>
<trkpt lat="43.4730893" lon="6.9017575"><ele></ele><time>2022-5-31T0:44:17Z</time></trkpt>
<trkpt lat="43.4731241" lon="6.9017479"><ele></ele><time>2022-5-31T0:44:20Z</time></trkpt>
<trkpt lat="43.4731610" lon="6.9017185"><ele></ele><time>2022-5-31T0:44:23Z</time></trkpt>
<trkpt lat="43.4731802" lon="6.9016825"><ele></ele><time>2022-5-31T0:44:26Z</time></trkpt>
<trkpt lat="43.4731848" lon="6.9016789"><ele></ele><time>2022-5-31T0:44:29Z</time></trkpt>
<trkpt lat="43.4731879" lon="6.9016886"><ele></ele><time>2022-5-31T0:44:32Z</time></trkpt>
<trkpt lat="43.4731867" lon="6.9016919"><ele></ele><time>2022-5-31T0:44:35Z</time></trkpt>
<trkpt lat="43.4731867" lon="6.9016934"><ele></ele><time>2022-5-31T0:44:38Z</time></trkpt>
<trkpt lat="43.4731867" lon="6.9016928"><ele></ele><time>2022-5-31T0:44:41Z</time></trkpt>
<trkpt lat="43.4731879" lon="6.9016924"><ele></ele><time>2022-5-31T0:44:44Z</time></trkpt>
<trkpt lat="43.4731905" lon="6.9016883"><ele></ele><time>2022-5-31T0:44:47Z</time></trkpt>
<trkpt lat="43.4731938" lon="6.9016720"><ele></ele><time>2022-5-31T0:44:50Z</time></trkpt>
<trkpt lat="43.4731973" lon="6.9016640"><ele></ele><time>2022-5-31T0:44:53Z</time></trkpt>
<trkpt lat="43.4731987" lon="6.9016606"><ele></ele><time>2022-5-31T0:44:56Z</time></trkpt>
<trkpt lat="43.4731985" lon="6.9016593"><ele></ele><time>2022-5-31T0:44:59Z</time></trkpt>
<trkpt lat="43.4731988" lon="6.9016552"><ele></ele><time>2022-5-31T0:45:2Z</time></trkpt>
<trkpt lat="43.4732002" lon="6.9016405"><ele></ele><time>2022-5-31T0:45:5Z</time></trkpt>
<trkpt lat="43.4732108" lon="6.9016216"><ele></ele><time>2022-5-31T0:45:8Z</time></trkpt>
<trkpt lat="43.4732255" lon="6.9015945"><ele></ele><time>2022-5-31T0:45:11Z</time></trkpt>
<trkpt lat="43.4732504" lon="6.9015658"><ele></ele><time>2022-5-31T0:45:14Z</time></trkpt>
<trkpt lat="43.4732817" lon="6.9015486"><ele></ele><time>2022-5-31T0:45:17Z</time></trkpt>
<trkpt lat="43.4733146" lon="6.9015377"><ele></ele><time>2022-5-31T0:45:20Z</time></trkpt>
<trkpt lat="43.4733431" lon="6.9015225"><ele></ele><time>2022-5-31T0:45:23Z</time></trkpt>
<trkpt lat="43.4733700" lon="6.9015085"><ele></ele><time>2022-5-31T0:45:26Z</time></trkpt>
<trkpt lat="43.4733973" lon="6.9014929"><ele></ele><time>2022-5-31T0:45:29Z</time></trkpt>
<trkpt lat="43.4734305" lon="6.9014951"><ele></ele><time>2022-5-31T0:45:32Z</time></trkpt>
<trkpt lat="43.4734645" lon="6.9014898"><ele></ele><time>2022-5-31T0:45:35Z</time></trkpt>
<trkpt lat="43.4734853" lon="6.9014740"><ele></ele><time>2022-5-31T0:45:38Z</time></trkpt>
<trkpt lat="43.4735199" lon="6.9014508"><ele></ele><time>2022-5-31T0:45:41Z</time></trkpt>
<trkpt lat="43.4735496" lon="6.9014321"><ele></ele><time>2022-5-31T0:45:44Z</time></trkpt>
<trkpt lat="43.4735629" lon="6.9014212"><ele></ele><time>2022-5-31T0:45:47Z</time></trkpt>
<trkpt lat="43.4735769" lon="6.9014039"><ele></ele><time>2022-5-31T0:45:50Z</time></trkpt>
<trkpt lat="43.4735799" lon="6.9013860"><ele></ele><time>2022-5-31T0:45:53Z</time></trkpt>
<trkpt lat="43.4735811" lon="6.9013691"><ele></ele><time>2022-5-31T0:45:56Z</time></trkpt>
<trkpt lat="43.4735840" lon="6.9013528"><ele></ele><time>2022-5-31T0:45:59Z</time></trkpt>
<trkpt lat="43.4735931" lon="6.9013332"><ele></ele><time>2022-5-31T0:46:2Z</time></trkpt>
<trkpt lat="43.4735894" lon="6.9013516"><ele></ele><time>2022-5-31T0:46:5Z</time></trkpt>
<trkpt lat="43.4735846" lon="6.9013628"><ele></ele><time>2022-5-31T0:46:8Z</time></trkpt>
<trkpt lat="43.4735979" lon="6.9013727"><ele></ele><time>2022-5-31T0:46:11Z</time></trkpt>
<trkpt lat="43.4735864" lon="6.9013761"><ele></ele><time>2022-5-31T0:46:14Z</time></trkpt>
<trkpt lat="43.4735660" lon="6.9013885"><ele></ele><time>2022-5-31T0:46:17Z</time></trkpt>
<trkpt lat="43.4735556" lon="6.9013978"><ele></ele><time>2022-5-31T0:46:20Z</time></trkpt>
<trkpt lat="43.4735612" lon="6.9014023"><ele></ele><time>2022-5-31T0:46:23Z</time></trkpt>
<trkpt lat="43.4735501" lon="6.9013997"><ele></ele><time>2022-5-31T0:46:26Z</time></trkpt>
<trkpt lat="43.4735369" lon="6.9014015"><ele></ele><time>2022-5-31T0:46:29Z</time></trkpt>
<trkpt lat="43.4735297" lon="6.9014025"><ele></ele><time>2022-5-31T0:46:32Z</time></trkpt>
<trkpt lat="43.4735354" lon="6.9014031"><ele></ele><time>2022-5-31T0:46:35Z</time></trkpt>
<trkpt lat="43.4735352" lon="6.9014048"><ele></ele><time>2022-5-31T0:46:38Z</time></trkpt>
<trkpt lat="43.4735350" lon="6.9014059"><ele></ele><time>2022-5-31T0:46:41Z</time></trkpt>
<trkpt lat="43.4735355" lon="6.9014064"><ele></ele><time>2022-5-31T0:46:44Z</time></trkpt>
<trkpt lat="43.4735369" lon="6.9014084"><ele></ele><time>2022-5-31T0:46:47Z</time></trkpt>
<trkpt lat="43.4735375" lon="6.9014087"><ele></ele><time>2022-5-31T0:46:50Z</time></trkpt>
<trkpt lat="43.4735429" lon="6.9014108"><ele></ele><time>2022-5-31T0:46:53Z</time></trkpt>
<trkpt lat="43.4735444" lon="6.9014141"><ele></ele><time>2022-5-31T0:46:56Z</time></trkpt>
<trkpt lat="43.4735309" lon="6.9014146"><ele></ele><time>2022-5-31T0:46:59Z</time></trkpt>
<trkpt lat="43.4735289" lon="6.9014154"><ele></ele><time>2022-5-31T0:47:2Z</time></trkpt>
<trkpt lat="43.4735116" lon="6.9013955"><ele></ele><time>2022-5-31T0:47:5Z</time></trkpt>
<trkpt lat="43.4735069" lon="6.9013867"><ele></ele><time>2022-5-31T0:47:8Z</time></trkpt>
<trkpt lat="43.4735008" lon="6.9013715"><ele></ele><time>2022-5-31T0:47:11Z</time></trkpt>
<trkpt lat="43.4734979" lon="6.9013693"><ele></ele><time>2022-5-31T0:47:14Z</time></trkpt>
<trkpt lat="43.4735121" lon="6.9013854"><ele></ele><time>2022-5-31T0:47:17Z</time></trkpt>
<trkpt lat="43.4735158" lon="6.9013810"><ele></ele><time>2022-5-31T0:47:20Z</time></trkpt>
<trkpt lat="43.4735235" lon="6.9013816"><ele></ele><time>2022-5-31T0:47:23Z</time></trkpt>
<trkpt lat="43.4735178" lon="6.9013725"><ele></ele><time>2022-5-31T0:47:26Z</time></trkpt>
<trkpt lat="43.4734994" lon="6.9013586"><ele></ele><time>2022-5-31T0:47:29Z</time></trkpt>
<trkpt lat="43.4734796" lon="6.9013407"><ele></ele><time>2022-5-31T0:47:32Z</time></trkpt>
<trkpt lat="43.4734574" lon="6.9013154"><ele></ele><time>2022-5-31T0:47:35Z</time></trkpt>
<trkpt lat="43.4734339" lon="6.9012876"><ele></ele><time>2022-5-31T0:47:38Z</time></trkpt>
<trkpt lat="43.4734170" lon="6.9012378"><ele></ele><time>2022-5-31T0:47:41Z</time></trkpt>
<trkpt lat="43.4734097" lon="6.9011910"><ele></ele><time>2022-5-31T0:47:44Z</time></trkpt>
<trkpt lat="43.4733846" lon="6.9011501"><ele></ele><time>2022-5-31T0:47:47Z</time></trkpt>
<trkpt lat="43.4733576" lon="6.9011204"><ele></ele><time>2022-5-31T0:47:50Z</time></trkpt>
<trkpt lat="43.4733396" lon="6.9010734"><ele></ele><time>2022-5-31T0:47:53Z</time></trkpt>
<trkpt lat="43.4733252" lon="6.9010083"><ele></ele><time>2022-5-31T0:47:56Z</time></trkpt>
<trkpt lat="43.4733169" lon="6.9009414"><ele></ele><time>2022-5-31T0:47:59Z</time></trkpt>
<trkpt lat="43.4733189" lon="6.9008785"><ele></ele><time>2022-5-31T0:48:2Z</time></trkpt>
<trkpt lat="43.4733355" lon="6.9008332"><ele></ele><time>2022-5-31T0:48:5Z</time></trkpt>
<trkpt lat="43.4733534" lon="6.9007856"><ele></ele><time>2022-5-31T0:48:8Z</time></trkpt>
<trkpt lat="43.4733691" lon="6.9007336"><ele></ele><time>2022-5-31T0:48:11Z</time></trkpt>
<trkpt lat="43.4733825" lon="6.9006811"><ele></ele><time>2022-5-31T0:48:14Z</time></trkpt>
<trkpt lat="43.4733737" lon="6.9006341"><ele></ele><time>2022-5-31T0:48:17Z</time></trkpt>
<trkpt lat="43.4733413" lon="6.9006066"><ele></ele><time>2022-5-31T0:48:20Z</time></trkpt>
<trkpt lat="43.4733022" lon="6.9005951"><ele></ele><time>2022-5-31T0:48:23Z</time></trkpt>
<trkpt lat="43.4732616" lon="6.9005841"><ele></ele><time>2022-5-31T0:48:26Z</time></trkpt>
<trkpt lat="43.4732246" lon="6.9005721"><ele></ele><time>2022-5-31T0:48:29Z</time></trkpt>
<trkpt lat="43.4731953" lon="6.9005518"><ele></ele><time>2022-5-31T0:48:32Z</time></trkpt>
<trkpt lat="43.4731600" lon="6.9005258"><ele></ele><time>2022-5-31T0:48:35Z</time></trkpt>
<trkpt lat="43.4731376" lon="6.9004887"><ele></ele><time>2022-5-31T0:48:38Z</time></trkpt>
<trkpt lat="43.4731220" lon="6.9004522"><ele></ele><time>2022-5-31T0:48:41Z</time></trkpt>
<trkpt lat="43.4731229" lon="6.9004384"><ele></ele><time>2022-5-31T0:48:44Z</time></trkpt>
<trkpt lat="43.4731163" lon="6.9004309"><ele></ele><time>2022-5-31T0:48:47Z</time></trkpt>
<trkpt lat="43.4731158" lon="6.9004300"><ele></ele><time>2022-5-31T0:48:50Z</time></trkpt>
<trkpt lat="43.4731147" lon="6.9004293"><ele></ele><time>2022-5-31T0:48:53Z</time></trkpt>
<trkpt lat="43.4731148" lon="6.9004291"><ele></ele><time>2022-5-31T0:48:56Z</time></trkpt>
<trkpt lat="43.4731150" lon="6.9004291"><ele></ele><time>2022-5-31T0:48:59Z</time></trkpt>
<trkpt lat="43.4731153" lon="6.9004291"><ele></ele><time>2022-5-31T0:49:2Z</time></trkpt>
<trkpt lat="43.4731156" lon="6.9004292"><ele></ele><time>2022-5-31T0:49:5Z</time></trkpt>
<trkpt lat="43.4731163" lon="6.9004292"><ele></ele><time>2022-5-31T0:49:8Z</time></trkpt>
<trkpt lat="43.4731169" lon="6.9004295"><ele></ele><time>2022-5-31T0:49:11Z</time></trkpt>
<trkpt lat="43.4731170" lon="6.9004295"><ele></ele><time>2022-5-31T0:49:14Z</time></trkpt>
<trkpt lat="43.4731172" lon="6.9004296"><ele></ele><time>2022-5-31T0:49:17Z</time></trkpt>
<trkpt lat="43.4731173" lon="6.9004298"><ele></ele><time>2022-5-31T0:49:20Z</time></trkpt>
<trkpt lat="43.4731175" lon="6.9004300"><ele></ele><time>2022-5-31T0:49:23Z</time></trkpt>
<trkpt lat="43.4731173" lon="6.9004301"><ele></ele><time>2022-5-31T0:49:26Z</time></trkpt>
<trkpt lat="43.4731175" lon="6.9004307"><ele></ele><time>2022-5-31T0:49:29Z</time></trkpt>
<trkpt lat="43.4731166" lon="6.9004308"><ele></ele><time>2022-5-31T0:49:32Z</time></trkpt>
<trkpt lat="43.4731166" lon="6.9004326"><ele></ele><time>2022-5-31T0:49:35Z</time></trkpt>
<trkpt lat="43.4731153" lon="6.9004297"><ele></ele><time>2022-5-31T0:49:38Z</time></trkpt>
<trkpt lat="43.4731114" lon="6.9004173"><ele></ele><time>2022-5-31T0:49:41Z</time></trkpt>
<trkpt lat="43.4731030" lon="6.9003961"><ele></ele><time>2022-5-31T0:49:44Z</time></trkpt>
<trkpt lat="43.4730961" lon="6.9003694"><ele></ele><time>2022-5-31T0:49:47Z</time></trkpt>
<trkpt lat="43.4730864" lon="6.9003361"><ele></ele><time>2022-5-31T0:49:50Z</time></trkpt>
<trkpt lat="43.4730728" lon="6.9002967"><ele></ele><time>2022-5-31T0:49:53Z</time></trkpt>
<trkpt lat="43.4730595" lon="6.9002558"><ele></ele><time>2022-5-31T0:49:56Z</time></trkpt>
<trkpt lat="43.4730446" lon="6.9002136"><ele></ele><time>2022-5-31T0:49:59Z</time></trkpt>
<trkpt lat="43.4730311" lon="6.9001755"><ele></ele><time>2022-5-31T0:50:2Z</time></trkpt>
<trkpt lat="43.4730190" lon="6.9001393"><ele></ele><time>2022-5-31T0:50:5Z</time></trkpt>
<trkpt lat="43.4730034" lon="6.9000987"><ele></ele><time>2022-5-31T0:50:8Z</time></trkpt>
<trkpt lat="43.4729903" lon="6.9000631"><ele></ele><time>2022-5-31T0:50:11Z</time></trkpt>
<trkpt lat="43.4729804" lon="6.9000365"><ele></ele><time>2022-5-31T0:50:14Z</time></trkpt>
<trkpt lat="43.4729733" lon="6.9000138"><ele></ele><time>2022-5-31T0:50:17Z</time></trkpt>
<trkpt lat="43.4729656" lon="6.8999903"><ele></ele><time>2022-5-31T0:50:20Z</time></trkpt>
<trkpt lat="43.4729631" lon="6.8999641"><ele></ele><time>2022-5-31T0:50:23Z</time></trkpt>
<trkpt lat="43.4729622" lon="6.8999367"><ele></ele><time>2022-5-31T0:50:26Z</time></trkpt>
<trkpt lat="43.4729588" lon="6.8999047"><ele></ele><time>2022-5-31T0:50:29Z</time></trkpt>
<trkpt lat="43.4729559" lon="6.8998649"><ele></ele><time>2022-5-31T0:50:32Z</time></trkpt>
<trkpt lat="43.4729498" lon="6.8998204"><ele></ele><time>2022-5-31T0:50:35Z</time></trkpt>
<trkpt lat="43.4729405" lon="6.8997743"><ele></ele><time>2022-5-31T0:50:38Z</time></trkpt>
<trkpt lat="43.4729317" lon="6.8997312"><ele></ele><time>2022-5-31T0:50:41Z</time></trkpt>
<trkpt lat="43.4729231" lon="6.8996876"><ele></ele><time>2022-5-31T0:50:44Z</time></trkpt>
<trkpt lat="43.4729164" lon="6.8996456"><ele></ele><time>2022-5-31T0:50:47Z</time></trkpt>
<trkpt lat="43.4729099" lon="6.8996085"><ele></ele><time>2022-5-31T0:50:50Z</time></trkpt>
<trkpt lat="43.4728989" lon="6.8995806"><ele></ele><time>2022-5-31T0:50:53Z</time></trkpt>
<trkpt lat="43.4728766" lon="6.8995583"><ele></ele><time>2022-5-31T0:50:56Z</time></trkpt>
<trkpt lat="43.4728571" lon="6.8995299"><ele></ele><time>2022-5-31T0:50:59Z</time></trkpt>
<trkpt lat="43.4728438" lon="6.8994963"><ele></ele><time>2022-5-31T0:51:2Z</time></trkpt>
<trkpt lat="43.4728389" lon="6.8994560"><ele></ele><time>2022-5-31T0:51:5Z</time></trkpt>
<trkpt lat="43.4728329" lon="6.8994169"><ele></ele><time>2022-5-31T0:51:8Z</time></trkpt>
<trkpt lat="43.4728237" lon="6.8993840"><ele></ele><time>2022-5-31T0:51:11Z</time></trkpt>
<trkpt lat="43.4728097" lon="6.8993524"><ele></ele><time>2022-5-31T0:51:14Z</time></trkpt>
<trkpt lat="43.4728011" lon="6.8993194"><ele></ele><time>2022-5-31T0:51:17Z</time></trkpt>
<trkpt lat="43.4727973" lon="6.8992875"><ele></ele><time>2022-5-31T0:51:20Z</time></trkpt>
<trkpt lat="43.4727886" lon="6.8992536"><ele></ele><time>2022-5-31T0:51:23Z</time></trkpt>
<trkpt lat="43.4727842" lon="6.8992274"><ele></ele><time>2022-5-31T0:51:26Z</time></trkpt>
<trkpt lat="43.4727787" lon="6.8992000"><ele></ele><time>2022-5-31T0:51:29Z</time></trkpt>
<trkpt lat="43.4727616" lon="6.8991683"><ele></ele><time>2022-5-31T0:51:32Z</time></trkpt>
<trkpt lat="43.4727527" lon="6.8991491"><ele></ele><time>2022-5-31T0:51:35Z</time></trkpt>
<trkpt lat="43.4727395" lon="6.8991287"><ele></ele><time>2022-5-31T0:51:38Z</time></trkpt>
<trkpt lat="43.4727204" lon="6.8991018"><ele></ele><time>2022-5-31T0:51:41Z</time></trkpt>
<trkpt lat="43.4727026" lon="6.8990752"><ele></ele><time>2022-5-31T0:51:44Z</time></trkpt>
<trkpt lat="43.4726823" lon="6.8990485"><ele></ele><time>2022-5-31T0:51:47Z</time></trkpt>
<trkpt lat="43.4726636" lon="6.8990227"><ele></ele><time>2022-5-31T0:51:50Z</time></trkpt>
<trkpt lat="43.4726479" lon="6.8990029"><ele></ele><time>2022-5-31T0:51:53Z</time></trkpt>
<trkpt lat="43.4726348" lon="6.8989804"><ele></ele><time>2022-5-31T0:51:56Z</time></trkpt>
<trkpt lat="43.4726183" lon="6.8989490"><ele></ele><time>2022-5-31T0:51:59Z</time></trkpt>
<trkpt lat="43.4725942" lon="6.8989305"><ele></ele><time>2022-5-31T0:52:2Z</time></trkpt>
<trkpt lat="43.4725682" lon="6.8989182"><ele></ele><time>2022-5-31T0:52:5Z</time></trkpt>
<trkpt lat="43.4725443" lon="6.8989080"><ele></ele><time>2022-5-31T0:52:8Z</time></trkpt>
<trkpt lat="43.4725161" lon="6.8988949"><ele></ele><time>2022-5-31T0:52:11Z</time></trkpt>
<trkpt lat="43.4724791" lon="6.8988776"><ele></ele><time>2022-5-31T0:52:14Z</time></trkpt>
<trkpt lat="43.4724528" lon="6.8988637"><ele></ele><time>2022-5-31T0:52:17Z</time></trkpt>
<trkpt lat="43.4724268" lon="6.8988497"><ele></ele><time>2022-5-31T0:52:20Z</time></trkpt>
<trkpt lat="43.4723953" lon="6.8988284"><ele></ele><time>2022-5-31T0:52:23Z</time></trkpt>
<trkpt lat="43.4723593" lon="6.8988065"><ele></ele><time>2022-5-31T0:52:26Z</time></trkpt>
<trkpt lat="43.4723276" lon="6.8987847"><ele></ele><time>2022-5-31T0:52:29Z</time></trkpt>
<trkpt lat="43.4722980" lon="6.8987666"><ele></ele><time>2022-5-31T0:52:32Z</time></trkpt>
<trkpt lat="43.4722675" lon="6.8987486"><ele></ele><time>2022-5-31T0:52:35Z</time></trkpt>
<trkpt lat="43.4722377" lon="6.8987308"><ele></ele><time>2022-5-31T0:52:38Z</time></trkpt>
<trkpt lat="43.4722147" lon="6.8987206"><ele></ele><time>2022-5-31T0:52:41Z</time></trkpt>
<trkpt lat="43.4721864" lon="6.8987108"><ele></ele><time>2022-5-31T0:52:44Z</time></trkpt>
<trkpt lat="43.4721530" lon="6.8986992"><ele></ele><time>2022-5-31T0:52:47Z</time></trkpt>
<trkpt lat="43.4721287" lon="6.8986867"><ele></ele><time>2022-5-31T0:52:50Z</time></trkpt>
<trkpt lat="43.4721080" lon="6.8986665"><ele></ele><time>2022-5-31T0:52:53Z</time></trkpt>
<trkpt lat="43.4720786" lon="6.8986535"><ele></ele><time>2022-5-31T0:52:56Z</time></trkpt>
<trkpt lat="43.4720603" lon="6.8986399"><ele></ele><time>2022-5-31T0:52:59Z</time></trkpt>
<trkpt lat="43.4720380" lon="6.8986313"><ele></ele><time>2022-5-31T0:53:2Z</time></trkpt>
<trkpt lat="43.4720173" lon="6.8986263"><ele></ele><time>2022-5-31T0:53:5Z</time></trkpt>
<trkpt lat="43.4719987" lon="6.8986231"><ele></ele><time>2022-5-31T0:53:8Z</time></trkpt>
<trkpt lat="43.4719834" lon="6.8986112"><ele></ele><time>2022-5-31T0:53:11Z</time></trkpt>
<trkpt lat="43.4719703" lon="6.8985924"><ele></ele><time>2022-5-31T0:53:14Z</time></trkpt>
<trkpt lat="43.4719635" lon="6.8985802"><ele></ele><time>2022-5-31T0:53:17Z</time></trkpt>
<trkpt lat="43.4719593" lon="6.8985732"><ele></ele><time>2022-5-31T0:53:20Z</time></trkpt>
<trkpt lat="43.4719600" lon="6.8985796"><ele></ele><time>2022-5-31T0:53:23Z</time></trkpt>
<trkpt lat="43.4719613" lon="6.8985826"><ele></ele><time>2022-5-31T0:53:26Z</time></trkpt>
<trkpt lat="43.4719611" lon="6.8985820"><ele></ele><time>2022-5-31T0:53:29Z</time></trkpt>
<trkpt lat="43.4719611" lon="6.8985814"><ele></ele><time>2022-5-31T0:53:32Z</time></trkpt>
<trkpt lat="43.4719609" lon="6.8985806"><ele></ele><time>2022-5-31T0:53:35Z</time></trkpt>
<trkpt lat="43.4719612" lon="6.8985800"><ele></ele><time>2022-5-31T0:53:38Z</time></trkpt>
<trkpt lat="43.4719614" lon="6.8985798"><ele></ele><time>2022-5-31T0:53:41Z</time></trkpt>
<trkpt lat="43.4719608" lon="6.8985793"><ele></ele><time>2022-5-31T0:53:44Z</time></trkpt>
<trkpt lat="43.4719604" lon="6.8985806"><ele></ele><time>2022-5-31T0:53:47Z</time></trkpt>
<trkpt lat="43.4719596" lon="6.8985821"><ele></ele><time>2022-5-31T0:53:50Z</time></trkpt>
<trkpt lat="43.4719596" lon="6.8985859"><ele></ele><time>2022-5-31T0:53:53Z</time></trkpt>
<trkpt lat="43.4719602" lon="6.8985895"><ele></ele><time>2022-5-31T0:53:56Z</time></trkpt>
<trkpt lat="43.4719675" lon="6.8985902"><ele></ele><time>2022-5-31T0:53:59Z</time></trkpt>
<trkpt lat="43.4719778" lon="6.8985913"><ele></ele><time>2022-5-31T0:54:2Z</time></trkpt>
<trkpt lat="43.4719782" lon="6.8985848"><ele></ele><time>2022-5-31T0:54:5Z</time></trkpt>
<trkpt lat="43.4719709" lon="6.8985777"><ele></ele><time>2022-5-31T0:54:8Z</time></trkpt>
<trkpt lat="43.4719707" lon="6.8985677"><ele></ele><time>2022-5-31T0:54:11Z</time></trkpt>
<trkpt lat="43.4719520" lon="6.8985753"><ele></ele><time>2022-5-31T0:54:14Z</time></trkpt>
<trkpt lat="43.4719440" lon="6.8985803"><ele></ele><time>2022-5-31T0:54:17Z</time></trkpt>
<trkpt lat="43.4719210" lon="6.8985866"><ele></ele><time>2022-5-31T0:54:20Z</time></trkpt>
<trkpt lat="43.4719046" lon="6.8985865"><ele></ele><time>2022-5-31T0:54:23Z</time></trkpt>
<trkpt lat="43.4718907" lon="6.8985664"><ele></ele><time>2022-5-31T0:54:26Z</time></trkpt>
<trkpt lat="43.4718766" lon="6.8985372"><ele></ele><time>2022-5-31T0:54:29Z</time></trkpt>
<trkpt lat="43.4718544" lon="6.8985006"><ele></ele><time>2022-5-31T0:54:32Z</time></trkpt>
<trkpt lat="43.4718375" lon="6.8984610"><ele></ele><time>2022-5-31T0:54:35Z</time></trkpt>
<trkpt lat="43.4718231" lon="6.8984158"><ele></ele><time>2022-5-31T0:54:38Z</time></trkpt>
<trkpt lat="43.4718177" lon="6.8983564"><ele></ele><time>2022-5-31T0:54:41Z</time></trkpt>
<trkpt lat="43.4718138" lon="6.8983172"><ele></ele><time>2022-5-31T0:54:44Z</time></trkpt>
<trkpt lat="43.4718140" lon="6.8982787"><ele></ele><time>2022-5-31T0:54:47Z</time></trkpt>
<trkpt lat="43.4718160" lon="6.8982436"><ele></ele><time>2022-5-31T0:54:50Z</time></trkpt>
<trkpt lat="43.4718183" lon="6.8982221"><ele></ele><time>2022-5-31T0:54:53Z</time></trkpt>
<trkpt lat="43.4718230" lon="6.8982013"><ele></ele><time>2022-5-31T0:54:56Z</time></trkpt>
<trkpt lat="43.4718253" lon="6.8981657"><ele></ele><time>2022-5-31T0:54:59Z</time></trkpt>
<trkpt lat="43.4718255" lon="6.8981191"><ele></ele><time>2022-5-31T0:55:2Z</time></trkpt>
<trkpt lat="43.4718254" lon="6.8980764"><ele></ele><time>2022-5-31T0:55:5Z</time></trkpt>
<trkpt lat="43.4718295" lon="6.8980354"><ele></ele><time>2022-5-31T0:55:8Z</time></trkpt>
<trkpt lat="43.4718334" lon="6.8980092"><ele></ele><time>2022-5-31T0:55:11Z</time></trkpt>
<trkpt lat="43.4718372" lon="6.8979828"><ele></ele><time>2022-5-31T0:55:14Z</time></trkpt>
<trkpt lat="43.4718385" lon="6.8979649"><ele></ele><time>2022-5-31T0:55:17Z</time></trkpt>
<trkpt lat="43.4718407" lon="6.8979666"><ele></ele><time>2022-5-31T0:55:20Z</time></trkpt>
<trkpt lat="43.4718409" lon="6.8979779"><ele></ele><time>2022-5-31T0:55:23Z</time></trkpt>
<trkpt lat="43.4718402" lon="6.8979907"><ele></ele><time>2022-5-31T0:55:26Z</time></trkpt>
<trkpt lat="43.4718410" lon="6.8979926"><ele></ele><time>2022-5-31T0:55:29Z</time></trkpt>
<trkpt lat="43.4718409" lon="6.8979898"><ele></ele><time>2022-5-31T0:55:32Z</time></trkpt>
<trkpt lat="43.4718393" lon="6.8979830"><ele></ele><time>2022-5-31T0:55:35Z</time></trkpt>
<trkpt lat="43.4718425" lon="6.8979753"><ele></ele><time>2022-5-31T0:55:38Z</time></trkpt>
<trkpt lat="43.4718450" lon="6.8979667"><ele></ele><time>2022-5-31T0:55:41Z</time></trkpt>
<trkpt lat="43.4718448" lon="6.8979621"><ele></ele><time>2022-5-31T0:55:44Z</time></trkpt>
<trkpt lat="43.4718443" lon="6.8979510"><ele></ele><time>2022-5-31T0:55:47Z</time></trkpt>
<trkpt lat="43.4718515" lon="6.8979373"><ele></ele><time>2022-5-31T0:55:50Z</time></trkpt>
<trkpt lat="43.4718600" lon="6.8979271"><ele></ele><time>2022-5-31T0:55:53Z</time></trkpt>
<trkpt lat="43.4718634" lon="6.8979176"><ele></ele><time>2022-5-31T0:55:56Z</time></trkpt>
<trkpt lat="43.4718669" lon="6.8979156"><ele></ele><time>2022-5-31T0:55:59Z</time></trkpt>
<trkpt lat="43.4718665" lon="6.8979161"><ele></ele><time>2022-5-31T0:56:2Z</time></trkpt>
<trkpt lat="43.4718669" lon="6.8979150"><ele></ele><time>2022-5-31T0:56:5Z</time></trkpt>
<trkpt lat="43.4718671" lon="6.8979147"><ele></ele><time>2022-5-31T0:56:8Z</time></trkpt>
<trkpt lat="43.4718671" lon="6.8979145"><ele></ele><time>2022-5-31T0:56:11Z</time></trkpt>
<trkpt lat="43.4718674" lon="6.8979139"><ele></ele><time>2022-5-31T0:56:14Z</time></trkpt>
<trkpt lat="43.4718674" lon="6.8979142"><ele></ele><time>2022-5-31T0:56:17Z</time></trkpt>
<trkpt lat="43.4718677" lon="6.8979140"><ele></ele><time>2022-5-31T0:56:20Z</time></trkpt>
<trkpt lat="43.4718675" lon="6.8979144"><ele></ele><time>2022-5-31T0:56:23Z</time></trkpt>
<trkpt lat="43.4718677" lon="6.8979133"><ele></ele><time>2022-5-31T0:56:26Z</time></trkpt>
<trkpt lat="43.4718678" lon="6.8979131"><ele></ele><time>2022-5-31T0:56:29Z</time></trkpt>
<trkpt lat="43.4718674" lon="6.8979128"><ele></ele><time>2022-5-31T0:56:32Z</time></trkpt>
<trkpt lat="43.4718674" lon="6.8979118"><ele></ele><time>2022-5-31T0:56:35Z</time></trkpt>
<trkpt lat="43.4718670" lon="6.8979115"><ele></ele><time>2022-5-31T0:56:38Z</time></trkpt>
<trkpt lat="43.4718676" lon="6.8978985"><ele></ele><time>2022-5-31T0:56:41Z</time></trkpt>
<trkpt lat="43.4718749" lon="6.8978676"><ele></ele><time>2022-5-31T0:56:44Z</time></trkpt>
<trkpt lat="43.4718797" lon="6.8978419"><ele></ele><time>2022-5-31T0:56:47Z</time></trkpt>
<trkpt lat="43.4718880" lon="6.8978085"><ele></ele><time>2022-5-31T0:56:50Z</time></trkpt>
<trkpt lat="43.4718983" lon="6.8977725"><ele></ele><time>2022-5-31T0:56:53Z</time></trkpt>
<trkpt lat="43.4719044" lon="6.8977473"><ele></ele><time>2022-5-31T0:56:56Z</time></trkpt>
<trkpt lat="43.4719115" lon="6.8977185"><ele></ele><time>2022-5-31T0:56:59Z</time></trkpt>
<trkpt lat="43.4719192" lon="6.8976844"><ele></ele><time>2022-5-31T0:57:2Z</time></trkpt>
<trkpt lat="43.4719279" lon="6.8976443"><ele></ele><time>2022-5-31T0:57:5Z</time></trkpt>
<trkpt lat="43.4719362" lon="6.8976110"><ele></ele><time>2022-5-31T0:57:8Z</time></trkpt>
<trkpt lat="43.4719417" lon="6.8975779"><ele></ele><time>2022-5-31T0:57:11Z</time></trkpt>
<trkpt lat="43.4719448" lon="6.8975423"><ele></ele><time>2022-5-31T0:57:14Z</time></trkpt>
<trkpt lat="43.4719487" lon="6.8975052"><ele></ele><time>2022-5-31T0:57:17Z</time></trkpt>
<trkpt lat="43.4719535" lon="6.8974682"><ele></ele><time>2022-5-31T0:57:20Z</time></trkpt>
<trkpt lat="43.4719609" lon="6.8974348"><ele></ele><time>2022-5-31T0:57:23Z</time></trkpt>
<trkpt lat="43.4719683" lon="6.8974032"><ele></ele><time>2022-5-31T0:57:26Z</time></trkpt>
<trkpt lat="43.4719730" lon="6.8973736"><ele></ele><time>2022-5-31T0:57:29Z</time></trkpt>
<trkpt lat="43.4719743" lon="6.8973471"><ele></ele><time>2022-5-31T0:57:32Z</time></trkpt>
<trkpt lat="43.4719710" lon="6.8973168"><ele></ele><time>2022-5-31T0:57:35Z</time></trkpt>
<trkpt lat="43.4719728" lon="6.8972820"><ele></ele><time>2022-5-31T0:57:38Z</time></trkpt>
<trkpt lat="43.4719763" lon="6.8972482"><ele></ele><time>2022-5-31T0:57:41Z</time></trkpt>
<trkpt lat="43.4719801" lon="6.8972167"><ele></ele><time>2022-5-31T0:57:44Z</time></trkpt>
<trkpt lat="43.4719832" lon="6.8971834"><ele></ele><time>2022-5-31T0:57:47Z</time></trkpt>
<trkpt lat="43.4719859" lon="6.8971517"><ele></ele><time>2022-5-31T0:57:50Z</time></trkpt>
<trkpt lat="43.4719904" lon="6.8971282"><ele></ele><time>2022-5-31T0:57:53Z</time></trkpt>
<trkpt lat="43.4719980" lon="6.8971096"><ele></ele><time>2022-5-31T0:57:56Z</time></trkpt>
<trkpt lat="43.4720072" lon="6.8970871"><ele></ele><time>2022-5-31T0:57:59Z</time></trkpt>
<trkpt lat="43.4720175" lon="6.8970668"><ele></ele><time>2022-5-31T0:58:2Z</time></trkpt>
<trkpt lat="43.4720279" lon="6.8970390"><ele></ele><time>2022-5-31T0:58:5Z</time></trkpt>
<trkpt lat="43.4720301" lon="6.8970015"><ele></ele><time>2022-5-31T0:58:8Z</time></trkpt>
<trkpt lat="43.4720301" lon="6.8969688"><ele></ele><time>2022-5-31T0:58:11Z</time></trkpt>
<trkpt lat="43.4720355" lon="6.8969421"><ele></ele><time>2022-5-31T0:58:14Z</time></trkpt>
<trkpt lat="43.4720417" lon="6.8969253"><ele></ele><time>2022-5-31T0:58:17Z</time></trkpt>
<trkpt lat="43.4720523" lon="6.8969021"><ele></ele><time>2022-5-31T0:58:20Z</time></trkpt>
<trkpt lat="43.4720627" lon="6.8968755"><ele></ele><time>2022-5-31T0:58:23Z</time></trkpt>
<trkpt lat="43.4720719" lon="6.8968472"><ele></ele><time>2022-5-31T0:58:26Z</time></trkpt>
<trkpt lat="43.4720820" lon="6.8968227"><ele></ele><time>2022-5-31T0:58:29Z</time></trkpt>
<trkpt lat="43.4720909" lon="6.8968014"><ele></ele><time>2022-5-31T0:58:32Z</time></trkpt>
<trkpt lat="43.4721039" lon="6.8967775"><ele></ele><time>2022-5-31T0:58:35Z</time></trkpt>
<trkpt lat="43.4721166" lon="6.8967503"><ele></ele><time>2022-5-31T0:58:38Z</time></trkpt>
<trkpt lat="43.4721267" lon="6.8967292"><ele></ele><time>2022-5-31T0:58:41Z</time></trkpt>
<trkpt lat="43.4721322" lon="6.8967304"><ele></ele><time>2022-5-31T0:58:44Z</time></trkpt>
<trkpt lat="43.4721373" lon="6.8967320"><ele></ele><time>2022-5-31T0:58:47Z</time></trkpt>
<trkpt lat="43.4721392" lon="6.8967334"><ele></ele><time>2022-5-31T0:58:50Z</time></trkpt>
<trkpt lat="43.4721547" lon="6.8967189"><ele></ele><time>2022-5-31T0:58:53Z</time></trkpt>
<trkpt lat="43.4721719" lon="6.8966982"><ele></ele><time>2022-5-31T0:58:56Z</time></trkpt>
<trkpt lat="43.4721874" lon="6.8966777"><ele></ele><time>2022-5-31T0:58:59Z</time></trkpt>
<trkpt lat="43.4722008" lon="6.8966611"><ele></ele><time>2022-5-31T0:59:2Z</time></trkpt>
<trkpt lat="43.4722167" lon="6.8966398"><ele></ele><time>2022-5-31T0:59:5Z</time></trkpt>
<trkpt lat="43.4722366" lon="6.8966145"><ele></ele><time>2022-5-31T0:59:8Z</time></trkpt>
<trkpt lat="43.4722541" lon="6.8965986"><ele></ele><time>2022-5-31T0:59:11Z</time></trkpt>
<trkpt lat="43.4722675" lon="6.8965867"><ele></ele><time>2022-5-31T0:59:14Z</time></trkpt>
<trkpt lat="43.4722815" lon="6.8965804"><ele></ele><time>2022-5-31T0:59:17Z</time></trkpt>
<trkpt lat="43.4722837" lon="6.8965783"><ele></ele><time>2022-5-31T0:59:20Z</time></trkpt>
<trkpt lat="43.4722840" lon="6.8965808"><ele></ele><time>2022-5-31T0:59:23Z</time></trkpt>
<trkpt lat="43.4722885" lon="6.8965781"><ele></ele><time>2022-5-31T0:59:26Z</time></trkpt>
<trkpt lat="43.4722897" lon="6.8965813"><ele></ele><time>2022-5-31T0:59:29Z</time></trkpt>
<trkpt lat="43.4722901" lon="6.8965813"><ele></ele><time>2022-5-31T0:59:32Z</time></trkpt>
<trkpt lat="43.4722918" lon="6.8965815"><ele></ele><time>2022-5-31T0:59:35Z</time></trkpt>
<trkpt lat="43.4722950" lon="6.8965798"><ele></ele><time>2022-5-31T0:59:38Z</time></trkpt>
<trkpt lat="43.4722950" lon="6.8965807"><ele></ele><time>2022-5-31T0:59:41Z</time></trkpt>
<trkpt lat="43.4722969" lon="6.8965793"><ele></ele><time>2022-5-31T0:59:44Z</time></trkpt>
<trkpt lat="43.4722981" lon="6.8965777"><ele></ele><time>2022-5-31T0:59:47Z</time></trkpt>
<trkpt lat="43.4722989" lon="6.8965760"><ele></ele><time>2022-5-31T0:59:50Z</time></trkpt>
<trkpt lat="43.4722993" lon="6.8965752"><ele></ele><time>2022-5-31T0:59:53Z</time></trkpt>
<trkpt lat="43.4722997" lon="6.8965749"><ele></ele><time>2022-5-31T0:59:56Z</time></trkpt>
<trkpt lat="43.4722999" lon="6.8965752"><ele></ele><time>2022-5-31T0:59:59Z</time></trkpt>
<trkpt lat="43.4723002" lon="6.8965755"><ele></ele><time>2022-5-31T1:0:2Z</time></trkpt>
<trkpt lat="43.4722999" lon="6.8965766"><ele></ele><time>2022-5-31T1:0:5Z</time></trkpt>
<trkpt lat="43.4723000" lon="6.8965763"><ele></ele><time>2022-5-31T1:0:8Z</time></trkpt>
<trkpt lat="43.4723049" lon="6.8965683"><ele></ele><time>2022-5-31T1:0:11Z</time></trkpt>
<trkpt lat="43.4723158" lon="6.8965528"><ele></ele><time>2022-5-31T1:0:14Z</time></trkpt>
<trkpt lat="43.4723293" lon="6.8965247"><ele></ele><time>2022-5-31T1:0:17Z</time></trkpt>
<trkpt lat="43.4723472" lon="6.8964980"><ele></ele><time>2022-5-31T1:0:20Z</time></trkpt>
<trkpt lat="43.4723599" lon="6.8964788"><ele></ele><time>2022-5-31T1:0:23Z</time></trkpt>
<trkpt lat="43.4723756" lon="6.8964609"><ele></ele><time>2022-5-31T1:0:26Z</time></trkpt>
<trkpt lat="43.4723910" lon="6.8964445"><ele></ele><time>2022-5-31T1:0:29Z</time></trkpt>
<trkpt lat="43.4724084" lon="6.8964343"><ele></ele><time>2022-5-31T1:0:32Z</time></trkpt>
<trkpt lat="43.4724106" lon="6.8964385"><ele></ele><time>2022-5-31T1:0:35Z</time></trkpt>
<trkpt lat="43.4724123" lon="6.8964434"><ele></ele><time>2022-5-31T1:0:38Z</time></trkpt>
<trkpt lat="43.4724046" lon="6.8964515"><ele></ele><time>2022-5-31T1:0:41Z</time></trkpt>
<trkpt lat="43.4724087" lon="6.8964500"><ele></ele><time>2022-5-31T1:0:44Z</time></trkpt>
<trkpt lat="43.4724090" lon="6.8964498"><ele></ele><time>2022-5-31T1:0:47Z</time></trkpt>
<trkpt lat="43.4724094" lon="6.8964497"><ele></ele><time>2022-5-31T1:0:50Z</time></trkpt>
<trkpt lat="43.4724098" lon="6.8964490"><ele></ele><time>2022-5-31T1:0:53Z</time></trkpt>
<trkpt lat="43.4724100" lon="6.8964494"><ele></ele><time>2022-5-31T1:0:56Z</time></trkpt>
<trkpt lat="43.4724103" lon="6.8964495"><ele></ele><time>2022-5-31T1:0:59Z</time></trkpt>
<trkpt lat="43.4724105" lon="6.8964493"><ele></ele><time>2022-5-31T1:1:2Z</time></trkpt>
<trkpt lat="43.4724109" lon="6.8964494"><ele></ele><time>2022-5-31T1:1:5Z</time></trkpt>
<trkpt lat="43.4724112" lon="6.8964491"><ele></ele><time>2022-5-31T1:1:8Z</time></trkpt>
<trkpt lat="43.4724113" lon="6.8964490"><ele></ele><time>2022-5-31T1:1:11Z</time></trkpt>
<trkpt lat="43.4724115" lon="6.8964491"><ele></ele><time>2022-5-31T1:1:14Z</time></trkpt>
<trkpt lat="43.4724118" lon="6.8964493"><ele></ele><time>2022-5-31T1:1:17Z</time></trkpt>
<trkpt lat="43.4724122" lon="6.8964488"><ele></ele><time>2022-5-31T1:1:20Z</time></trkpt>
<trkpt lat="43.4724125" lon="6.8964487"><ele></ele><time>2022-5-31T1:1:23Z</time></trkpt>
<trkpt lat="43.4724127" lon="6.8964489"><ele></ele><time>2022-5-31T1:1:26Z</time></trkpt>
<trkpt lat="43.4724131" lon="6.8964485"><ele></ele><time>2022-5-31T1:1:29Z</time></trkpt>
<trkpt lat="43.4724133" lon="6.8964486"><ele></ele><time>2022-5-31T1:1:32Z</time></trkpt>
<trkpt lat="43.4724135" lon="6.8964484"><ele></ele><time>2022-5-31T1:1:35Z</time></trkpt>
<trkpt lat="43.4724137" lon="6.8964489"><ele></ele><time>2022-5-31T1:1:38Z</time></trkpt>
<trkpt lat="43.4724142" lon="6.8964489"><ele></ele><time>2022-5-31T1:1:41Z</time></trkpt>
<trkpt lat="43.4724145" lon="6.8964488"><ele></ele><time>2022-5-31T1:1:44Z</time></trkpt>
<trkpt lat="43.4724147" lon="6.8964487"><ele></ele><time>2022-5-31T1:1:47Z</time></trkpt>
<trkpt lat="43.4724149" lon="6.8964492"><ele></ele><time>2022-5-31T1:1:50Z</time></trkpt>
<trkpt lat="43.4724151" lon="6.8964495"><ele></ele><time>2022-5-31T1:1:53Z</time></trkpt>
<trkpt lat="43.4724153" lon="6.8964499"><ele></ele><time>2022-5-31T1:1:56Z</time></trkpt>
<trkpt lat="43.4724158" lon="6.8964503"><ele></ele><time>2022-5-31T1:1:59Z</time></trkpt>
<trkpt lat="43.4724162" lon="6.8964516"><ele></ele><time>2022-5-31T1:2:2Z</time></trkpt>
<trkpt lat="43.4724166" lon="6.8964523"><ele></ele><time>2022-5-31T1:2:5Z</time></trkpt>
<trkpt lat="43.4724212" lon="6.8964509"><ele></ele><time>2022-5-31T1:2:8Z</time></trkpt>
<trkpt lat="43.4724317" lon="6.8964354"><ele></ele><time>2022-5-31T1:2:11Z</time></trkpt>
<trkpt lat="43.4724488" lon="6.8964169"><ele></ele><time>2022-5-31T1:2:14Z</time></trkpt>
<trkpt lat="43.4724656" lon="6.8963942"><ele></ele><time>2022-5-31T1:2:17Z</time></trkpt>
<trkpt lat="43.4724805" lon="6.8963750"><ele></ele><time>2022-5-31T1:2:20Z</time></trkpt>
<trkpt lat="43.4724945" lon="6.8963538"><ele></ele><time>2022-5-31T1:2:23Z</time></trkpt>
<trkpt lat="43.4725074" lon="6.8963316"><ele></ele><time>2022-5-31T1:2:26Z</time></trkpt>
<trkpt lat="43.4725194" lon="6.8963141"><ele></ele><time>2022-5-31T1:2:29Z</time></trkpt>
<trkpt lat="43.4725334" lon="6.8962940"><ele></ele><time>2022-5-31T1:2:32Z</time></trkpt>
<trkpt lat="43.4725461" lon="6.8962723"><ele></ele><time>2022-5-31T1:2:35Z</time></trkpt>
<trkpt lat="43.4725582" lon="6.8962490"><ele></ele><time>2022-5-31T1:2:38Z</time></trkpt>
<trkpt lat="43.4725691" lon="6.8962302"><ele></ele><time>2022-5-31T1:2:41Z</time></trkpt>
<trkpt lat="43.4725805" lon="6.8962140"><ele></ele><time>2022-5-31T1:2:44Z</time></trkpt>
<trkpt lat="43.4725901" lon="6.8961972"><ele></ele><time>2022-5-31T1:2:47Z</time></trkpt>
<trkpt lat="43.4725975" lon="6.8961796"><ele></ele><time>2022-5-31T1:2:50Z</time></trkpt>
<trkpt lat="43.4726041" lon="6.8961520"><ele></ele><time>2022-5-31T1:2:53Z</time></trkpt>
<trkpt lat="43.4726164" lon="6.8961288"><ele></ele><time>2022-5-31T1:2:56Z</time></trkpt>
<trkpt lat="43.4726382" lon="6.8961186"><ele></ele><time>2022-5-31T1:2:59Z</time></trkpt>
<trkpt lat="43.4726611" lon="6.8961061"><ele></ele><time>2022-5-31T1:3:2Z</time></trkpt>
<trkpt lat="43.4726776" lon="6.8960964"><ele></ele><time>2022-5-31T1:3:5Z</time></trkpt>
<trkpt lat="43.4726977" lon="6.8960852"><ele></ele><time>2022-5-31T1:3:8Z</time></trkpt>
<trkpt lat="43.4727149" lon="6.8960728"><ele></ele><time>2022-5-31T1:3:11Z</time></trkpt>
<trkpt lat="43.4727320" lon="6.8960619"><ele></ele><time>2022-5-31T1:3:14Z</time></trkpt>
<trkpt lat="43.4727441" lon="6.8960427"><ele></ele><time>2022-5-31T1:3:17Z</time></trkpt>
<trkpt lat="43.4727557" lon="6.8960275"><ele></ele><time>2022-5-31T1:3:20Z</time></trkpt>
<trkpt lat="43.4727658" lon="6.8960199"><ele></ele><time>2022-5-31T1:3:23Z</time></trkpt>
<trkpt lat="43.4727707" lon="6.8960201"><ele></ele><time>2022-5-31T1:3:26Z</time></trkpt>
<trkpt lat="43.4727679" lon="6.8960271"><ele></ele><time>2022-5-31T1:3:29Z</time></trkpt>
<trkpt lat="43.4727690" lon="6.8960311"><ele></ele><time>2022-5-31T1:3:32Z</time></trkpt>
<trkpt lat="43.4727655" lon="6.8960438"><ele></ele><time>2022-5-31T1:3:35Z</time></trkpt>
<trkpt lat="43.4727652" lon="6.8960551"><ele></ele><time>2022-5-31T1:3:38Z</time></trkpt>
<trkpt lat="43.4727676" lon="6.8960597"><ele></ele><time>2022-5-31T1:3:41Z</time></trkpt>
<trkpt lat="43.4727673" lon="6.8960614"><ele></ele><time>2022-5-31T1:3:44Z</time></trkpt>
<trkpt lat="43.4727679" lon="6.8960600"><ele></ele><time>2022-5-31T1:3:47Z</time></trkpt>
<trkpt lat="43.4727687" lon="6.8960582"><ele></ele><time>2022-5-31T1:3:50Z</time></trkpt>
<trkpt lat="43.4727692" lon="6.8960553"><ele></ele><time>2022-5-31T1:3:53Z</time></trkpt>
<trkpt lat="43.4727693" lon="6.8960540"><ele></ele><time>2022-5-31T1:3:56Z</time></trkpt>
<trkpt lat="43.4727694" lon="6.8960526"><ele></ele><time>2022-5-31T1:3:59Z</time></trkpt>
<trkpt lat="43.4727694" lon="6.8960523"><ele></ele><time>2022-5-31T1:4:2Z</time></trkpt>
<trkpt lat="43.4727697" lon="6.8960517"><ele></ele><time>2022-5-31T1:4:5Z</time></trkpt>
<trkpt lat="43.4727701" lon="6.8960506"><ele></ele><time>2022-5-31T1:4:8Z</time></trkpt>
<trkpt lat="43.4727706" lon="6.8960496"><ele></ele><time>2022-5-31T1:4:11Z</time></trkpt>
<trkpt lat="43.4727706" lon="6.8960492"><ele></ele><time>2022-5-31T1:4:14Z</time></trkpt>
<trkpt lat="43.4727705" lon="6.8960493"><ele></ele><time>2022-5-31T1:4:17Z</time></trkpt>
<trkpt lat="43.4727704" lon="6.8960495"><ele></ele><time>2022-5-31T1:4:20Z</time></trkpt>
<trkpt lat="43.4727706" lon="6.8960499"><ele></ele><time>2022-5-31T1:4:23Z</time></trkpt>
<trkpt lat="43.4727706" lon="6.8960498"><ele></ele><time>2022-5-31T1:4:26Z</time></trkpt>
<trkpt lat="43.4727708" lon="6.8960495"><ele></ele><time>2022-5-31T1:4:29Z</time></trkpt>
<trkpt lat="43.4727712" lon="6.8960497"><ele></ele><time>2022-5-31T1:4:32Z</time></trkpt>
<trkpt lat="43.4727714" lon="6.8960505"><ele></ele><time>2022-5-31T1:4:35Z</time></trkpt>
<trkpt lat="43.4727713" lon="6.8960508"><ele></ele><time>2022-5-31T1:4:38Z</time></trkpt>
<trkpt lat="43.4727710" lon="6.8960512"><ele></ele><time>2022-5-31T1:4:41Z</time></trkpt>
<trkpt lat="43.4727707" lon="6.8960517"><ele></ele><time>2022-5-31T1:4:44Z</time></trkpt>
<trkpt lat="43.4727706" lon="6.8960526"><ele></ele><time>2022-5-31T1:4:47Z</time></trkpt>
<trkpt lat="43.4727705" lon="6.8960536"><ele></ele><time>2022-5-31T1:4:50Z</time></trkpt>
<trkpt lat="43.4727702" lon="6.8960547"><ele></ele><time>2022-5-31T1:4:53Z</time></trkpt>
<trkpt lat="43.4727695" lon="6.8960574"><ele></ele><time>2022-5-31T1:4:56Z</time></trkpt>
<trkpt lat="43.4727691" lon="6.8960583"><ele></ele><time>2022-5-31T1:4:59Z</time></trkpt>
<trkpt lat="43.4727686" lon="6.8960592"><ele></ele><time>2022-5-31T1:5:2Z</time></trkpt>
<trkpt lat="43.4727684" lon="6.8960605"><ele></ele><time>2022-5-31T1:5:5Z</time></trkpt>
<trkpt lat="43.4727680" lon="6.8960613"><ele></ele><time>2022-5-31T1:5:8Z</time></trkpt>
<trkpt lat="43.4727682" lon="6.8960614"><ele></ele><time>2022-5-31T1:5:11Z</time></trkpt>
<trkpt lat="43.4727682" lon="6.8960616"><ele></ele><time>2022-5-31T1:5:14Z</time></trkpt>
<trkpt lat="43.4727682" lon="6.8960622"><ele></ele><time>2022-5-31T1:5:17Z</time></trkpt>
<trkpt lat="43.4727684" lon="6.8960620"><ele></ele><time>2022-5-31T1:5:20Z</time></trkpt>
<trkpt lat="43.4727685" lon="6.8960622"><ele></ele><time>2022-5-31T1:5:23Z</time></trkpt>
<trkpt lat="43.4727686" lon="6.8960625"><ele></ele><time>2022-5-31T1:5:26Z</time></trkpt>
<trkpt lat="43.4727686" lon="6.8960621"><ele></ele><time>2022-5-31T1:5:29Z</time></trkpt>
<trkpt lat="43.4727687" lon="6.8960623"><ele></ele><time>2022-5-31T1:5:32Z</time></trkpt>
<trkpt lat="43.4727686" lon="6.8960638"><ele></ele><time>2022-5-31T1:5:35Z</time></trkpt>
<trkpt lat="43.4727688" lon="6.8960637"><ele></ele><time>2022-5-31T1:5:38Z</time></trkpt>
<trkpt lat="43.4727686" lon="6.8960647"><ele></ele><time>2022-5-31T1:5:41Z</time></trkpt>
<trkpt lat="43.4727684" lon="6.8960670"><ele></ele><time>2022-5-31T1:5:44Z</time></trkpt>
<trkpt lat="43.4727683" lon="6.8960686"><ele></ele><time>2022-5-31T1:5:47Z</time></trkpt>
<trkpt lat="43.4727680" lon="6.8960708"><ele></ele><time>2022-5-31T1:5:50Z</time></trkpt>
<trkpt lat="43.4727678" lon="6.8960742"><ele></ele><time>2022-5-31T1:5:53Z</time></trkpt>
<trkpt lat="43.4727673" lon="6.8960784"><ele></ele><time>2022-5-31T1:5:56Z</time></trkpt>
<trkpt lat="43.4727669" lon="6.8960819"><ele></ele><time>2022-5-31T1:5:59Z</time></trkpt>
<trkpt lat="43.4727664" lon="6.8960873"><ele></ele><time>2022-5-31T1:6:2Z</time></trkpt>
<trkpt lat="43.4727660" lon="6.8960914"><ele></ele><time>2022-5-31T1:6:5Z</time></trkpt>
<trkpt lat="43.4727655" lon="6.8960962"><ele></ele><time>2022-5-31T1:6:8Z</time></trkpt>
<trkpt lat="43.4727651" lon="6.8961005"><ele></ele><time>2022-5-31T1:6:11Z</time></trkpt>
<trkpt lat="43.4727648" lon="6.8961058"><ele></ele><time>2022-5-31T1:6:14Z</time></trkpt>
<trkpt lat="43.4727645" lon="6.8961116"><ele></ele><time>2022-5-31T1:6:17Z</time></trkpt>
<trkpt lat="43.4727642" lon="6.8961163"><ele></ele><time>2022-5-31T1:6:20Z</time></trkpt>
<trkpt lat="43.4727640" lon="6.8961219"><ele></ele><time>2022-5-31T1:6:23Z</time></trkpt>
<trkpt lat="43.4727639" lon="6.8961271"><ele></ele><time>2022-5-31T1:6:26Z</time></trkpt>
<trkpt lat="43.4727637" lon="6.8961310"><ele></ele><time>2022-5-31T1:6:29Z</time></trkpt>
<trkpt lat="43.4727635" lon="6.8961341"><ele></ele><time>2022-5-31T1:6:32Z</time></trkpt>
<trkpt lat="43.4727632" lon="6.8961355"><ele></ele><time>2022-5-31T1:6:35Z</time></trkpt>
<trkpt lat="43.4727632" lon="6.8961395"><ele></ele><time>2022-5-31T1:6:38Z</time></trkpt>
<trkpt lat="43.4727631" lon="6.8961424"><ele></ele><time>2022-5-31T1:6:41Z</time></trkpt>
<trkpt lat="43.4727628" lon="6.8961445"><ele></ele><time>2022-5-31T1:6:44Z</time></trkpt>
<trkpt lat="43.4727625" lon="6.8961467"><ele></ele><time>2022-5-31T1:6:47Z</time></trkpt>
<trkpt lat="43.4727623" lon="6.8961494"><ele></ele><time>2022-5-31T1:6:50Z</time></trkpt>
<trkpt lat="43.4727621" lon="6.8961518"><ele></ele><time>2022-5-31T1:6:53Z</time></trkpt>
<trkpt lat="43.4727621" lon="6.8961533"><ele></ele><time>2022-5-31T1:6:56Z</time></trkpt>
<trkpt lat="43.4727619" lon="6.8961574"><ele></ele><time>2022-5-31T1:6:59Z</time></trkpt>
<trkpt lat="43.4727616" lon="6.8961603"><ele></ele><time>2022-5-31T1:7:2Z</time></trkpt>
<trkpt lat="43.4727613" lon="6.8961645"><ele></ele><time>2022-5-31T1:7:5Z</time></trkpt>
<trkpt lat="43.4727611" lon="6.8961681"><ele></ele><time>2022-5-31T1:7:8Z</time></trkpt>
<trkpt lat="43.4727610" lon="6.8961704"><ele></ele><time>2022-5-31T1:7:11Z</time></trkpt>
<trkpt lat="43.4727614" lon="6.8961726"><ele></ele><time>2022-5-31T1:7:14Z</time></trkpt>
<trkpt lat="43.4727618" lon="6.8961749"><ele></ele><time>2022-5-31T1:7:17Z</time></trkpt>
<trkpt lat="43.4727623" lon="6.8961769"><ele></ele><time>2022-5-31T1:7:20Z</time></trkpt>
<trkpt lat="43.4727625" lon="6.8961744"><ele></ele><time>2022-5-31T1:7:23Z</time></trkpt>
<trkpt lat="43.4727628" lon="6.8961742"><ele></ele><time>2022-5-31T1:7:26Z</time></trkpt>
<trkpt lat="43.4727613" lon="6.8961723"><ele></ele><time>2022-5-31T1:7:29Z</time></trkpt>
<trkpt lat="43.4727599" lon="6.8961694"><ele></ele><time>2022-5-31T1:7:32Z</time></trkpt>
<trkpt lat="43.4727596" lon="6.8961675"><ele></ele><time>2022-5-31T1:7:35Z</time></trkpt>
<trkpt lat="43.4727592" lon="6.8961635"><ele></ele><time>2022-5-31T1:7:38Z</time></trkpt>
<trkpt lat="43.4727575" lon="6.8961586"><ele></ele><time>2022-5-31T1:7:41Z</time></trkpt>
<trkpt lat="43.4727280" lon="6.8961318"><ele></ele><time>2022-5-31T1:7:44Z</time></trkpt>
<trkpt lat="43.4727210" lon="6.8961063"><ele></ele><time>2022-5-31T1:7:47Z</time></trkpt>
<trkpt lat="43.4727121" lon="6.8960959"><ele></ele><time>2022-5-31T1:7:50Z</time></trkpt>
<trkpt lat="43.4727127" lon="6.8960945"><ele></ele><time>2022-5-31T1:7:53Z</time></trkpt>
<trkpt lat="43.4727126" lon="6.8960944"><ele></ele><time>2022-5-31T1:7:56Z</time></trkpt>
<trkpt lat="43.4727134" lon="6.8960934"><ele></ele><time>2022-5-31T1:7:59Z</time></trkpt>
<trkpt lat="43.4727137" lon="6.8960927"><ele></ele><time>2022-5-31T1:8:2Z</time></trkpt>
<trkpt lat="43.4727209" lon="6.8960836"><ele></ele><time>2022-5-31T1:8:5Z</time></trkpt>
<trkpt lat="43.4727215" lon="6.8960834"><ele></ele><time>2022-5-31T1:8:8Z</time></trkpt>
<trkpt lat="43.4727196" lon="6.8960774"><ele></ele><time>2022-5-31T1:8:11Z</time></trkpt>
<trkpt lat="43.4727194" lon="6.8960758"><ele></ele><time>2022-5-31T1:8:14Z</time></trkpt>
<trkpt lat="43.4727187" lon="6.8960763"><ele></ele><time>2022-5-31T1:8:17Z</time></trkpt>
<trkpt lat="43.4727192" lon="6.8960763"><ele></ele><time>2022-5-31T1:8:20Z</time></trkpt>
<trkpt lat="43.4727198" lon="6.8960767"><ele></ele><time>2022-5-31T1:8:23Z</time></trkpt>
<trkpt lat="43.4727199" lon="6.8960768"><ele></ele><time>2022-5-31T1:8:26Z</time></trkpt>
<trkpt lat="43.4727232" lon="6.8960786"><ele></ele><time>2022-5-31T1:8:29Z</time></trkpt>
<trkpt lat="43.4727262" lon="6.8960938"><ele></ele><time>2022-5-31T1:8:32Z</time></trkpt>
<trkpt lat="43.4727272" lon="6.8960890"><ele></ele><time>2022-5-31T1:8:35Z</time></trkpt>
<trkpt lat="43.4727353" lon="6.8960944"><ele></ele><time>2022-5-31T1:8:38Z</time></trkpt>
<trkpt lat="43.4727405" lon="6.8961022"><ele></ele><time>2022-5-31T1:8:41Z</time></trkpt>
<trkpt lat="43.4727418" lon="6.8961027"><ele></ele><time>2022-5-31T1:8:44Z</time></trkpt>
<trkpt lat="43.4727426" lon="6.8961029"><ele></ele><time>2022-5-31T1:8:47Z</time></trkpt>
<trkpt lat="43.4727426" lon="6.8961024"><ele></ele><time>2022-5-31T1:8:50Z</time></trkpt>
<trkpt lat="43.4727432" lon="6.8961009"><ele></ele><time>2022-5-31T1:8:53Z</time></trkpt>
<trkpt lat="43.4727431" lon="6.8960994"><ele></ele><time>2022-5-31T1:8:56Z</time></trkpt>
<trkpt lat="43.4727434" lon="6.8960987"><ele></ele><time>2022-5-31T1:8:59Z</time></trkpt>
<trkpt lat="43.4727434" lon="6.8960988"><ele></ele><time>2022-5-31T1:9:2Z</time></trkpt>
<trkpt lat="43.4727438" lon="6.8960985"><ele></ele><time>2022-5-31T1:9:5Z</time></trkpt>
<trkpt lat="43.4727438" lon="6.8960989"><ele></ele><time>2022-5-31T1:9:8Z</time></trkpt>
<trkpt lat="43.4727438" lon="6.8960990"><ele></ele><time>2022-5-31T1:9:11Z</time></trkpt>
<trkpt lat="43.4727438" lon="6.8960989"><ele></ele><time>2022-5-31T1:9:14Z</time></trkpt>
<trkpt lat="43.4727437" lon="6.8960989"><ele></ele><time>2022-5-31T1:9:17Z</time></trkpt>
<trkpt lat="43.4727437" lon="6.8960987"><ele></ele><time>2022-5-31T1:9:20Z</time></trkpt>
<trkpt lat="43.4727436" lon="6.8960985"><ele></ele><time>2022-5-31T1:9:23Z</time></trkpt>
<trkpt lat="43.4727435" lon="6.8960983"><ele></ele><time>2022-5-31T1:9:26Z</time></trkpt>
<trkpt lat="43.4727434" lon="6.8960981"><ele></ele><time>2022-5-31T1:9:29Z</time></trkpt>
<trkpt lat="43.4727433" lon="6.8960975"><ele></ele><time>2022-5-31T1:9:32Z</time></trkpt>
<trkpt lat="43.4727433" lon="6.8960974"><ele></ele><time>2022-5-31T1:9:35Z</time></trkpt>
<trkpt lat="43.4727434" lon="6.8960969"><ele></ele><time>2022-5-31T1:9:38Z</time></trkpt>
<trkpt lat="43.4727437" lon="6.8960964"><ele></ele><time>2022-5-31T1:9:41Z</time></trkpt>
<trkpt lat="43.4727440" lon="6.8960960"><ele></ele><time>2022-5-31T1:9:44Z</time></trkpt>
<trkpt lat="43.4727444" lon="6.8960957"><ele></ele><time>2022-5-31T1:9:47Z</time></trkpt>
<trkpt lat="43.4727449" lon="6.8960953"><ele></ele><time>2022-5-31T1:9:50Z</time></trkpt>
<trkpt lat="43.4727452" lon="6.8960950"><ele></ele><time>2022-5-31T1:9:53Z</time></trkpt>
<trkpt lat="43.4727455" lon="6.8960943"><ele></ele><time>2022-5-31T1:9:56Z</time></trkpt>
<trkpt lat="43.4727455" lon="6.8960940"><ele></ele><time>2022-5-31T1:9:59Z</time></trkpt>
<trkpt lat="43.4727456" lon="6.8960935"><ele></ele><time>2022-5-31T1:10:2Z</time></trkpt>
<trkpt lat="43.4727458" lon="6.8960927"><ele></ele><time>2022-5-31T1:10:5Z</time></trkpt>
<trkpt lat="43.4727457" lon="6.8960929"><ele></ele><time>2022-5-31T1:10:8Z</time></trkpt>
<trkpt lat="43.4727457" lon="6.8960910"><ele></ele><time>2022-5-31T1:10:11Z</time></trkpt>
<trkpt lat="43.4727449" lon="6.8960902"><ele></ele><time>2022-5-31T1:10:14Z</time></trkpt>
<trkpt lat="43.4727424" lon="6.8960880"><ele></ele><time>2022-5-31T1:10:17Z</time></trkpt>
<trkpt lat="43.4727399" lon="6.8960887"><ele></ele><time>2022-5-31T1:10:20Z</time></trkpt>
<trkpt lat="43.4727378" lon="6.8960905"><ele></ele><time>2022-5-31T1:10:23Z</time></trkpt>
<trkpt lat="43.4727382" lon="6.8960898"><ele></ele><time>2022-5-31T1:10:26Z</time></trkpt>
<trkpt lat="43.4727382" lon="6.8960884"><ele></ele><time>2022-5-31T1:10:29Z</time></trkpt>
<trkpt lat="43.4727384" lon="6.8960878"><ele></ele><time>2022-5-31T1:10:32Z</time></trkpt>
<trkpt lat="43.4727386" lon="6.8960862"><ele></ele><time>2022-5-31T1:10:35Z</time></trkpt>
<trkpt lat="43.4727371" lon="6.8960859"><ele></ele><time>2022-5-31T1:10:38Z</time></trkpt>
<trkpt lat="43.4727362" lon="6.8960867"><ele></ele><time>2022-5-31T1:10:41Z</time></trkpt>
<trkpt lat="43.4727356" lon="6.8960844"><ele></ele><time>2022-5-31T1:10:44Z</time></trkpt>
<trkpt lat="43.4727365" lon="6.8960854"><ele></ele><time>2022-5-31T1:10:47Z</time></trkpt>
<trkpt lat="43.4727351" lon="6.8960778"><ele></ele><time>2022-5-31T1:10:50Z</time></trkpt>
<trkpt lat="43.4727333" lon="6.8960646"><ele></ele><time>2022-5-31T1:10:53Z</time></trkpt>
<trkpt lat="43.4727327" lon="6.8960606"><ele></ele><time>2022-5-31T1:10:56Z</time></trkpt>
<trkpt lat="43.4727312" lon="6.8960545"><ele></ele><time>2022-5-31T1:10:59Z</time></trkpt>
<trkpt lat="43.4727311" lon="6.8960515"><ele></ele><time>2022-5-31T1:11:2Z</time></trkpt>
<trkpt lat="43.4727309" lon="6.8960493"><ele></ele><time>2022-5-31T1:11:5Z</time></trkpt>
<trkpt lat="43.4727295" lon="6.8960468"><ele></ele><time>2022-5-31T1:11:8Z</time></trkpt>
<trkpt lat="43.4727294" lon="6.8960453"><ele></ele><time>2022-5-31T1:11:11Z</time></trkpt>
<trkpt lat="43.4727294" lon="6.8960450"><ele></ele><time>2022-5-31T1:11:14Z</time></trkpt>
<trkpt lat="43.4727294" lon="6.8960452"><ele></ele><time>2022-5-31T1:11:17Z</time></trkpt>
<trkpt lat="43.4727296" lon="6.8960438"><ele></ele><time>2022-5-31T1:11:20Z</time></trkpt>
<trkpt lat="43.4727300" lon="6.8960424"><ele></ele><time>2022-5-31T1:11:23Z</time></trkpt>
<trkpt lat="43.4727301" lon="6.8960432"><ele></ele><time>2022-5-31T1:11:26Z</time></trkpt>
<trkpt lat="43.4727301" lon="6.8960430"><ele></ele><time>2022-5-31T1:11:29Z</time></trkpt>
<trkpt lat="43.4727300" lon="6.8960437"><ele></ele><time>2022-5-31T1:11:32Z</time></trkpt>
<trkpt lat="43.4727311" lon="6.8960398"><ele></ele><time>2022-5-31T1:11:35Z</time></trkpt>
<trkpt lat="43.4727360" lon="6.8960358"><ele></ele><time>2022-5-31T1:11:38Z</time></trkpt>
<trkpt lat="43.4727422" lon="6.8960295"><ele></ele><time>2022-5-31T1:11:41Z</time></trkpt>
<trkpt lat="43.4727395" lon="6.8960357"><ele></ele><time>2022-5-31T1:11:44Z</time></trkpt>
<trkpt lat="43.4727383" lon="6.8960371"><ele></ele><time>2022-5-31T1:11:47Z</time></trkpt>
<trkpt lat="43.4727476" lon="6.8960259"><ele></ele><time>2022-5-31T1:11:50Z</time></trkpt>
<trkpt lat="43.4727632" lon="6.8960207"><ele></ele><time>2022-5-31T1:11:53Z</time></trkpt>
<trkpt lat="43.4727736" lon="6.8960080"><ele></ele><time>2022-5-31T1:11:56Z</time></trkpt>
<trkpt lat="43.4727839" lon="6.8959915"><ele></ele><time>2022-5-31T1:11:59Z</time></trkpt>
<trkpt lat="43.4727959" lon="6.8959759"><ele></ele><time>2022-5-31T1:12:2Z</time></trkpt>
<trkpt lat="43.4728094" lon="6.8959563"><ele></ele><time>2022-5-31T1:12:5Z</time></trkpt>
<trkpt lat="43.4728221" lon="6.8959376"><ele></ele><time>2022-5-31T1:12:8Z</time></trkpt>
<trkpt lat="43.4728316" lon="6.8959209"><ele></ele><time>2022-5-31T1:12:11Z</time></trkpt>
<trkpt lat="43.4728430" lon="6.8959038"><ele></ele><time>2022-5-31T1:12:14Z</time></trkpt>
<trkpt lat="43.4728547" lon="6.8958868"><ele></ele><time>2022-5-31T1:12:17Z</time></trkpt>
<trkpt lat="43.4728699" lon="6.8958699"><ele></ele><time>2022-5-31T1:12:20Z</time></trkpt>
<trkpt lat="43.4728852" lon="6.8958547"><ele></ele><time>2022-5-31T1:12:23Z</time></trkpt>
<trkpt lat="43.4728966" lon="6.8958326"><ele></ele><time>2022-5-31T1:12:26Z</time></trkpt>
<trkpt lat="43.4729054" lon="6.8958122"><ele></ele><time>2022-5-31T1:12:29Z</time></trkpt>
<trkpt lat="43.4729115" lon="6.8957981"><ele></ele><time>2022-5-31T1:12:32Z</time></trkpt>
<trkpt lat="43.4729219" lon="6.8957838"><ele></ele><time>2022-5-31T1:12:35Z</time></trkpt>
<trkpt lat="43.4729312" lon="6.8957693"><ele></ele><time>2022-5-31T1:12:38Z</time></trkpt>
<trkpt lat="43.4729396" lon="6.8957548"><ele></ele><time>2022-5-31T1:12:41Z</time></trkpt>
<trkpt lat="43.4729588" lon="6.8957490"><ele></ele><time>2022-5-31T1:12:44Z</time></trkpt>
<trkpt lat="43.4729673" lon="6.8957422"><ele></ele><time>2022-5-31T1:12:47Z</time></trkpt>
<trkpt lat="43.4729788" lon="6.8957253"><ele></ele><time>2022-5-31T1:12:50Z</time></trkpt>
<trkpt lat="43.4729960" lon="6.8957017"><ele></ele><time>2022-5-31T1:12:53Z</time></trkpt>
<trkpt lat="43.4730101" lon="6.8956750"><ele></ele><time>2022-5-31T1:12:56Z</time></trkpt>
<trkpt lat="43.4730200" lon="6.8956564"><ele></ele><time>2022-5-31T1:12:59Z</time></trkpt>
<trkpt lat="43.4730303" lon="6.8956453"><ele></ele><time>2022-5-31T1:13:2Z</time></trkpt>
<trkpt lat="43.4730421" lon="6.8956249"><ele></ele><time>2022-5-31T1:13:5Z</time></trkpt>
<trkpt lat="43.4730534" lon="6.8956031"><ele></ele><time>2022-5-31T1:13:8Z</time></trkpt>
<trkpt lat="43.4730661" lon="6.8955804"><ele></ele><time>2022-5-31T1:13:11Z</time></trkpt>
<trkpt lat="43.4730787" lon="6.8955578"><ele></ele><time>2022-5-31T1:13:14Z</time></trkpt>
<trkpt lat="43.4730841" lon="6.8955331"><ele></ele><time>2022-5-31T1:13:17Z</time></trkpt>
<trkpt lat="43.4730904" lon="6.8955153"><ele></ele><time>2022-5-31T1:13:20Z</time></trkpt>
<trkpt lat="43.4730999" lon="6.8954956"><ele></ele><time>2022-5-31T1:13:23Z</time></trkpt>
<trkpt lat="43.4731071" lon="6.8954766"><ele></ele><time>2022-5-31T1:13:26Z</time></trkpt>
<trkpt lat="43.4731097" lon="6.8954557"><ele></ele><time>2022-5-31T1:13:29Z</time></trkpt>
<trkpt lat="43.4731090" lon="6.8954317"><ele></ele><time>2022-5-31T1:13:32Z</time></trkpt>
<trkpt lat="43.4731098" lon="6.8954074"><ele></ele><time>2022-5-31T1:13:35Z</time></trkpt>
<trkpt lat="43.4731094" lon="6.8953872"><ele></ele><time>2022-5-31T1:13:38Z</time></trkpt>
<trkpt lat="43.4731061" lon="6.8953789"><ele></ele><time>2022-5-31T1:13:41Z</time></trkpt>
<trkpt lat="43.4731063" lon="6.8953758"><ele></ele><time>2022-5-31T1:13:44Z</time></trkpt>
<trkpt lat="43.4731072" lon="6.8953671"><ele></ele><time>2022-5-31T1:13:47Z</time></trkpt>
<trkpt lat="43.4731078" lon="6.8953581"><ele></ele><time>2022-5-31T1:13:50Z</time></trkpt>
<trkpt lat="43.4731084" lon="6.8953580"><ele></ele><time>2022-5-31T1:13:53Z</time></trkpt>
<trkpt lat="43.4731096" lon="6.8953573"><ele></ele><time>2022-5-31T1:13:56Z</time></trkpt>
<trkpt lat="43.4731099" lon="6.8953578"><ele></ele><time>2022-5-31T1:13:59Z</time></trkpt>
<trkpt lat="43.4731105" lon="6.8953581"><ele></ele><time>2022-5-31T1:14:2Z</time></trkpt>
<trkpt lat="43.4731127" lon="6.8953595"><ele></ele><time>2022-5-31T1:14:5Z</time></trkpt>
<trkpt lat="43.4731144" lon="6.8953676"><ele></ele><time>2022-5-31T1:14:8Z</time></trkpt>
<trkpt lat="43.4731160" lon="6.8953733"><ele></ele><time>2022-5-31T1:14:11Z</time></trkpt>
<trkpt lat="43.4731161" lon="6.8953772"><ele></ele><time>2022-5-31T1:14:14Z</time></trkpt>
<trkpt lat="43.4731162" lon="6.8953773"><ele></ele><time>2022-5-31T1:14:17Z</time></trkpt>
<trkpt lat="43.4731163" lon="6.8953773"><ele></ele><time>2022-5-31T1:14:20Z</time></trkpt>
<trkpt lat="43.4731165" lon="6.8953775"><ele></ele><time>2022-5-31T1:14:23Z</time></trkpt>
<trkpt lat="43.4731167" lon="6.8953773"><ele></ele><time>2022-5-31T1:14:26Z</time></trkpt>
<trkpt lat="43.4731168" lon="6.8953774"><ele></ele><time>2022-5-31T1:14:29Z</time></trkpt>
<trkpt lat="43.4731170" lon="6.8953772"><ele></ele><time>2022-5-31T1:14:32Z</time></trkpt>
<trkpt lat="43.4731172" lon="6.8953771"><ele></ele><time>2022-5-31T1:14:35Z</time></trkpt>
<trkpt lat="43.4731174" lon="6.8953769"><ele></ele><time>2022-5-31T1:14:38Z</time></trkpt>
<trkpt lat="43.4731175" lon="6.8953769"><ele></ele><time>2022-5-31T1:14:41Z</time></trkpt>
<trkpt lat="43.4731176" lon="6.8953767"><ele></ele><time>2022-5-31T1:14:44Z</time></trkpt>
<trkpt lat="43.4731177" lon="6.8953768"><ele></ele><time>2022-5-31T1:14:47Z</time></trkpt>
<trkpt lat="43.4731178" lon="6.8953768"><ele></ele><time>2022-5-31T1:14:50Z</time></trkpt>
<trkpt lat="43.4731178" lon="6.8953767"><ele></ele><time>2022-5-31T1:14:53Z</time></trkpt>
<trkpt lat="43.4731178" lon="6.8953766"><ele></ele><time>2022-5-31T1:14:56Z</time></trkpt>
<trkpt lat="43.4731179" lon="6.8953766"><ele></ele><time>2022-5-31T1:14:59Z</time></trkpt>
<trkpt lat="43.4731180" lon="6.8953767"><ele></ele><time>2022-5-31T1:15:2Z</time></trkpt>
<trkpt lat="43.4731182" lon="6.8953768"><ele></ele><time>2022-5-31T1:15:5Z</time></trkpt>
<trkpt lat="43.4731182" lon="6.8953767"><ele></ele><time>2022-5-31T1:15:8Z</time></trkpt>
<trkpt lat="43.4731184" lon="6.8953769"><ele></ele><time>2022-5-31T1:15:11Z</time></trkpt>
<trkpt lat="43.4731186" lon="6.8953771"><ele></ele><time>2022-5-31T1:15:14Z</time></trkpt>
<trkpt lat="43.4731189" lon="6.8953774"><ele></ele><time>2022-5-31T1:15:17Z</time></trkpt>
<trkpt lat="43.4731192" lon="6.8953777"><ele></ele><time>2022-5-31T1:15:20Z</time></trkpt>
<trkpt lat="43.4731194" lon="6.8953780"><ele></ele><time>2022-5-31T1:15:23Z</time></trkpt>
<trkpt lat="43.4731197" lon="6.8953783"><ele></ele><time>2022-5-31T1:15:26Z</time></trkpt>
<trkpt lat="43.4731200" lon="6.8953787"><ele></ele><time>2022-5-31T1:15:29Z</time></trkpt>
<trkpt lat="43.4731202" lon="6.8953790"><ele></ele><time>2022-5-31T1:15:32Z</time></trkpt>
<trkpt lat="43.4731205" lon="6.8953794"><ele></ele><time>2022-5-31T1:15:35Z</time></trkpt>
<trkpt lat="43.4731208" lon="6.8953797"><ele></ele><time>2022-5-31T1:15:38Z</time></trkpt>
<trkpt lat="43.4731211" lon="6.8953801"><ele></ele><time>2022-5-31T1:15:41Z</time></trkpt>
<trkpt lat="43.4731214" lon="6.8953804"><ele></ele><time>2022-5-31T1:15:44Z</time></trkpt>
<trkpt lat="43.4731216" lon="6.8953807"><ele></ele><time>2022-5-31T1:15:47Z</time></trkpt>
<trkpt lat="43.4731221" lon="6.8953812"><ele></ele><time>2022-5-31T1:15:50Z</time></trkpt>
<trkpt lat="43.4731224" lon="6.8953815"><ele></ele><time>2022-5-31T1:15:53Z</time></trkpt>
<trkpt lat="43.4731229" lon="6.8953819"><ele></ele><time>2022-5-31T1:15:56Z</time></trkpt>
<trkpt lat="43.4731233" lon="6.8953825"><ele></ele><time>2022-5-31T1:15:59Z</time></trkpt>
<trkpt lat="43.4731238" lon="6.8953832"><ele></ele><time>2022-5-31T1:16:2Z</time></trkpt>
<trkpt lat="43.4731241" lon="6.8953836"><ele></ele><time>2022-5-31T1:16:5Z</time></trkpt>
<trkpt lat="43.4731244" lon="6.8953839"><ele></ele><time>2022-5-31T1:16:8Z</time></trkpt>
<trkpt lat="43.4731247" lon="6.8953842"><ele></ele><time>2022-5-31T1:16:11Z</time></trkpt>
<trkpt lat="43.4731250" lon="6.8953847"><ele></ele><time>2022-5-31T1:16:14Z</time></trkpt>
<trkpt lat="43.4731253" lon="6.8953852"><ele></ele><time>2022-5-31T1:16:17Z</time></trkpt>
<trkpt lat="43.4731256" lon="6.8953856"><ele></ele><time>2022-5-31T1:16:20Z</time></trkpt>
<trkpt lat="43.4731257" lon="6.8953857"><ele></ele><time>2022-5-31T1:16:23Z</time></trkpt>
<trkpt lat="43.4731260" lon="6.8953861"><ele></ele><time>2022-5-31T1:16:26Z</time></trkpt>
<trkpt lat="43.4731263" lon="6.8953868"><ele></ele><time>2022-5-31T1:16:29Z</time></trkpt>
<trkpt lat="43.4731266" lon="6.8953873"><ele></ele><time>2022-5-31T1:16:32Z</time></trkpt>
<trkpt lat="43.4731267" lon="6.8953875"><ele></ele><time>2022-5-31T1:16:35Z</time></trkpt>
<trkpt lat="43.4731270" lon="6.8953882"><ele></ele><time>2022-5-31T1:16:38Z</time></trkpt>
<trkpt lat="43.4731272" lon="6.8953885"><ele></ele><time>2022-5-31T1:16:41Z</time></trkpt>
<trkpt lat="43.4731275" lon="6.8953894"><ele></ele><time>2022-5-31T1:16:44Z</time></trkpt>
<trkpt lat="43.4731278" lon="6.8953899"><ele></ele><time>2022-5-31T1:16:47Z</time></trkpt>
<trkpt lat="43.4731279" lon="6.8953903"><ele></ele><time>2022-5-31T1:16:50Z</time></trkpt>
<trkpt lat="43.4731281" lon="6.8953904"><ele></ele><time>2022-5-31T1:16:53Z</time></trkpt>
<trkpt lat="43.4731284" lon="6.8953908"><ele></ele><time>2022-5-31T1:16:56Z</time></trkpt>
<trkpt lat="43.4731286" lon="6.8953909"><ele></ele><time>2022-5-31T1:16:59Z</time></trkpt>
<trkpt lat="43.4731288" lon="6.8953913"><ele></ele><time>2022-5-31T1:17:2Z</time></trkpt>
<trkpt lat="43.4731290" lon="6.8953916"><ele></ele><time>2022-5-31T1:17:5Z</time></trkpt>
<trkpt lat="43.4731292" lon="6.8953917"><ele></ele><time>2022-5-31T1:17:8Z</time></trkpt>
<trkpt lat="43.4731294" lon="6.8953920"><ele></ele><time>2022-5-31T1:17:11Z</time></trkpt>
<trkpt lat="43.4731297" lon="6.8953926"><ele></ele><time>2022-5-31T1:17:14Z</time></trkpt>
<trkpt lat="43.4731299" lon="6.8953927"><ele></ele><time>2022-5-31T1:17:17Z</time></trkpt>
<trkpt lat="43.4731301" lon="6.8953930"><ele></ele><time>2022-5-31T1:17:20Z</time></trkpt>
<trkpt lat="43.4731303" lon="6.8953932"><ele></ele><time>2022-5-31T1:17:23Z</time></trkpt>
<trkpt lat="43.4731305" lon="6.8953936"><ele></ele><time>2022-5-31T1:17:26Z</time></trkpt>
<trkpt lat="43.4731308" lon="6.8953938"><ele></ele><time>2022-5-31T1:17:29Z</time></trkpt>
<trkpt lat="43.4731309" lon="6.8953938"><ele></ele><time>2022-5-31T1:17:32Z</time></trkpt>
<trkpt lat="43.4731310" lon="6.8953942"><ele></ele><time>2022-5-31T1:17:35Z</time></trkpt>
<trkpt lat="43.4731313" lon="6.8953947"><ele></ele><time>2022-5-31T1:17:38Z</time></trkpt>
<trkpt lat="43.4731314" lon="6.8953948"><ele></ele><time>2022-5-31T1:17:41Z</time></trkpt>
<trkpt lat="43.4731316" lon="6.8953951"><ele></ele><time>2022-5-31T1:17:44Z</time></trkpt>
<trkpt lat="43.4731317" lon="6.8953953"><ele></ele><time>2022-5-31T1:17:47Z</time></trkpt>
<trkpt lat="43.4731319" lon="6.8953956"><ele></ele><time>2022-5-31T1:17:50Z</time></trkpt>
<trkpt lat="43.4731320" lon="6.8953959"><ele></ele><time>2022-5-31T1:17:53Z</time></trkpt>
<trkpt lat="43.4731322" lon="6.8953963"><ele></ele><time>2022-5-31T1:17:56Z</time></trkpt>
<trkpt lat="43.4731324" lon="6.8953965"><ele></ele><time>2022-5-31T1:17:59Z</time></trkpt>
<trkpt lat="43.4731326" lon="6.8953964"><ele></ele><time>2022-5-31T1:18:2Z</time></trkpt>
<trkpt lat="43.4731328" lon="6.8953966"><ele></ele><time>2022-5-31T1:18:5Z</time></trkpt>
<trkpt lat="43.4731329" lon="6.8953966"><ele></ele><time>2022-5-31T1:18:8Z</time></trkpt>
<trkpt lat="43.4731330" lon="6.8953969"><ele></ele><time>2022-5-31T1:18:11Z</time></trkpt>
<trkpt lat="43.4731331" lon="6.8953970"><ele></ele><time>2022-5-31T1:18:14Z</time></trkpt>
<trkpt lat="43.4731333" lon="6.8953972"><ele></ele><time>2022-5-31T1:18:17Z</time></trkpt>
<trkpt lat="43.4731334" lon="6.8953972"><ele></ele><time>2022-5-31T1:18:20Z</time></trkpt>
<trkpt lat="43.4731336" lon="6.8953974"><ele></ele><time>2022-5-31T1:18:23Z</time></trkpt>
<trkpt lat="43.4731336" lon="6.8953973"><ele></ele><time>2022-5-31T1:18:26Z</time></trkpt>
<trkpt lat="43.4731338" lon="6.8953973"><ele></ele><time>2022-5-31T1:18:29Z</time></trkpt>
<trkpt lat="43.4731339" lon="6.8953973"><ele></ele><time>2022-5-31T1:18:32Z</time></trkpt>
<trkpt lat="43.4731339" lon="6.8953973"><ele></ele><time>2022-5-31T1:18:35Z</time></trkpt>
<trkpt lat="43.4731340" lon="6.8953972"><ele></ele><time>2022-5-31T1:18:38Z</time></trkpt>
<trkpt lat="43.4731341" lon="6.8953974"><ele></ele><time>2022-5-31T1:18:41Z</time></trkpt>
<trkpt lat="43.4731343" lon="6.8953974"><ele></ele><time>2022-5-31T1:18:44Z</time></trkpt>
<trkpt lat="43.4731345" lon="6.8953978"><ele></ele><time>2022-5-31T1:18:47Z</time></trkpt>
<trkpt lat="43.4731346" lon="6.8953979"><ele></ele><time>2022-5-31T1:18:50Z</time></trkpt>
<trkpt lat="43.4731346" lon="6.8953978"><ele></ele><time>2022-5-31T1:18:53Z</time></trkpt>
<trkpt lat="43.4731345" lon="6.8953978"><ele></ele><time>2022-5-31T1:18:56Z</time></trkpt>
<trkpt lat="43.4731346" lon="6.8953982"><ele></ele><time>2022-5-31T1:18:59Z</time></trkpt>
<trkpt lat="43.4731346" lon="6.8953982"><ele></ele><time>2022-5-31T1:19:2Z</time></trkpt>
<trkpt lat="43.4731348" lon="6.8953985"><ele></ele><time>2022-5-31T1:19:5Z</time></trkpt>
<trkpt lat="43.4731349" lon="6.8953988"><ele></ele><time>2022-5-31T1:19:8Z</time></trkpt>
<trkpt lat="43.4731350" lon="6.8953990"><ele></ele><time>2022-5-31T1:19:11Z</time></trkpt>
<trkpt lat="43.4731350" lon="6.8953988"><ele></ele><time>2022-5-31T1:19:14Z</time></trkpt>
<trkpt lat="43.4731351" lon="6.8953988"><ele></ele><time>2022-5-31T1:19:17Z</time></trkpt>
<trkpt lat="43.4731351" lon="6.8953985"><ele></ele><time>2022-5-31T1:19:20Z</time></trkpt>
<trkpt lat="43.4731351" lon="6.8953982"><ele></ele><time>2022-5-31T1:19:23Z</time></trkpt>
<trkpt lat="43.4731351" lon="6.8953976"><ele></ele><time>2022-5-31T1:19:26Z</time></trkpt>
<trkpt lat="43.4731350" lon="6.8953970"><ele></ele><time>2022-5-31T1:19:29Z</time></trkpt>
<trkpt lat="43.4731351" lon="6.8953966"><ele></ele><time>2022-5-31T1:19:32Z</time></trkpt>
<trkpt lat="43.4731351" lon="6.8953962"><ele></ele><time>2022-5-31T1:19:35Z</time></trkpt>
<trkpt lat="43.4731351" lon="6.8953957"><ele></ele><time>2022-5-31T1:19:38Z</time></trkpt>
<trkpt lat="43.4731352" lon="6.8953953"><ele></ele><time>2022-5-31T1:19:41Z</time></trkpt>
<trkpt lat="43.4731352" lon="6.8953949"><ele></ele><time>2022-5-31T1:19:44Z</time></trkpt>
<trkpt lat="43.4731352" lon="6.8953945"><ele></ele><time>2022-5-31T1:19:47Z</time></trkpt>
<trkpt lat="43.4731352" lon="6.8953941"><ele></ele><time>2022-5-31T1:19:50Z</time></trkpt>
<trkpt lat="43.4731352" lon="6.8953939"><ele></ele><time>2022-5-31T1:19:53Z</time></trkpt>
<trkpt lat="43.4731352" lon="6.8953936"><ele></ele><time>2022-5-31T1:19:56Z</time></trkpt>
<trkpt lat="43.4731353" lon="6.8953933"><ele></ele><time>2022-5-31T1:19:59Z</time></trkpt>
<trkpt lat="43.4731353" lon="6.8953928"><ele></ele><time>2022-5-31T1:20:2Z</time></trkpt>
<trkpt lat="43.4731353" lon="6.8953926"><ele></ele><time>2022-5-31T1:20:5Z</time></trkpt>
<trkpt lat="43.4731353" lon="6.8953923"><ele></ele><time>2022-5-31T1:20:8Z</time></trkpt>
<trkpt lat="43.4731353" lon="6.8953921"><ele></ele><time>2022-5-31T1:20:11Z</time></trkpt>
<trkpt lat="43.4731354" lon="6.8953918"><ele></ele><time>2022-5-31T1:20:14Z</time></trkpt>
<trkpt lat="43.4731354" lon="6.8953913"><ele></ele><time>2022-5-31T1:20:17Z</time></trkpt>
<trkpt lat="43.4731354" lon="6.8953910"><ele></ele><time>2022-5-31T1:20:20Z</time></trkpt>
<trkpt lat="43.4731353" lon="6.8953906"><ele></ele><time>2022-5-31T1:20:23Z</time></trkpt>
<trkpt lat="43.4731354" lon="6.8953906"><ele></ele><time>2022-5-31T1:20:26Z</time></trkpt>
<trkpt lat="43.4731354" lon="6.8953903"><ele></ele><time>2022-5-31T1:20:29Z</time></trkpt>
<trkpt lat="43.4731354" lon="6.8953900"><ele></ele><time>2022-5-31T1:20:32Z</time></trkpt>
<trkpt lat="43.4731355" lon="6.8953896"><ele></ele><time>2022-5-31T1:20:35Z</time></trkpt>
<trkpt lat="43.4731355" lon="6.8953893"><ele></ele><time>2022-5-31T1:20:38Z</time></trkpt>
<trkpt lat="43.4731356" lon="6.8953893"><ele></ele><time>2022-5-31T1:20:41Z</time></trkpt>
<trkpt lat="43.4731356" lon="6.8953891"><ele></ele><time>2022-5-31T1:20:44Z</time></trkpt>
<trkpt lat="43.4731356" lon="6.8953889"><ele></ele><time>2022-5-31T1:20:47Z</time></trkpt>
<trkpt lat="43.4731356" lon="6.8953888"><ele></ele><time>2022-5-31T1:20:50Z</time></trkpt>
<trkpt lat="43.4731357" lon="6.8953887"><ele></ele><time>2022-5-31T1:20:53Z</time></trkpt>
<trkpt lat="43.4731357" lon="6.8953883"><ele></ele><time>2022-5-31T1:20:56Z</time></trkpt>
<trkpt lat="43.4731358" lon="6.8953880"><ele></ele><time>2022-5-31T1:20:59Z</time></trkpt>
<trkpt lat="43.4731358" lon="6.8953878"><ele></ele><time>2022-5-31T1:21:2Z</time></trkpt>
<trkpt lat="43.4731359" lon="6.8953875"><ele></ele><time>2022-5-31T1:21:5Z</time></trkpt>
<trkpt lat="43.4731359" lon="6.8953874"><ele></ele><time>2022-5-31T1:21:8Z</time></trkpt>
<trkpt lat="43.4731359" lon="6.8953873"><ele></ele><time>2022-5-31T1:21:11Z</time></trkpt>
<trkpt lat="43.4731359" lon="6.8953872"><ele></ele><time>2022-5-31T1:21:14Z</time></trkpt>
<trkpt lat="43.4731360" lon="6.8953869"><ele></ele><time>2022-5-31T1:21:17Z</time></trkpt>
<trkpt lat="43.4731360" lon="6.8953866"><ele></ele><time>2022-5-31T1:21:20Z</time></trkpt>
<trkpt lat="43.4731360" lon="6.8953863"><ele></ele><time>2022-5-31T1:21:23Z</time></trkpt>
<trkpt lat="43.4731360" lon="6.8953861"><ele></ele><time>2022-5-31T1:21:26Z</time></trkpt>
<trkpt lat="43.4731360" lon="6.8953860"><ele></ele><time>2022-5-31T1:21:29Z</time></trkpt>
<trkpt lat="43.4731360" lon="6.8953858"><ele></ele><time>2022-5-31T1:21:32Z</time></trkpt>
<trkpt lat="43.4731360" lon="6.8953858"><ele></ele><time>2022-5-31T1:21:35Z</time></trkpt>
<trkpt lat="43.4731360" lon="6.8953856"><ele></ele><time>2022-5-31T1:21:38Z</time></trkpt>
<trkpt lat="43.4731361" lon="6.8953852"><ele></ele><time>2022-5-31T1:21:41Z</time></trkpt>
<trkpt lat="43.4731361" lon="6.8953850"><ele></ele><time>2022-5-31T1:21:44Z</time></trkpt>
<trkpt lat="43.4731361" lon="6.8953845"><ele></ele><time>2022-5-31T1:21:47Z</time></trkpt>
<trkpt lat="43.4731362" lon="6.8953842"><ele></ele><time>2022-5-31T1:21:50Z</time></trkpt>
<trkpt lat="43.4731363" lon="6.8953840"><ele></ele><time>2022-5-31T1:21:53Z</time></trkpt>
<trkpt lat="43.4731363" lon="6.8953839"><ele></ele><time>2022-5-31T1:21:56Z</time></trkpt>
<trkpt lat="43.4731364" lon="6.8953838"><ele></ele><time>2022-5-31T1:21:59Z</time></trkpt>
<trkpt lat="43.4731365" lon="6.8953836"><ele></ele><time>2022-5-31T1:22:2Z</time></trkpt>
<trkpt lat="43.4731366" lon="6.8953830"><ele></ele><time>2022-5-31T1:22:5Z</time></trkpt>
<trkpt lat="43.4731369" lon="6.8953828"><ele></ele><time>2022-5-31T1:22:8Z</time></trkpt>
<trkpt lat="43.4731370" lon="6.8953825"><ele></ele><time>2022-5-31T1:22:11Z</time></trkpt>
<trkpt lat="43.4731372" lon="6.8953827"><ele></ele><time>2022-5-31T1:22:14Z</time></trkpt>
<trkpt lat="43.4731373" lon="6.8953829"><ele></ele><time>2022-5-31T1:22:17Z</time></trkpt>
<trkpt lat="43.4731374" lon="6.8953830"><ele></ele><time>2022-5-31T1:22:20Z</time></trkpt>
<trkpt lat="43.4731376" lon="6.8953833"><ele></ele><time>2022-5-31T1:22:23Z</time></trkpt>
<trkpt lat="43.4731379" lon="6.8953831"><ele></ele><time>2022-5-31T1:22:26Z</time></trkpt>
<trkpt lat="43.4731380" lon="6.8953832"><ele></ele><time>2022-5-31T1:22:29Z</time></trkpt>
<trkpt lat="43.4731382" lon="6.8953830"><ele></ele><time>2022-5-31T1:22:32Z</time></trkpt>
<trkpt lat="43.4731384" lon="6.8953829"><ele></ele><time>2022-5-31T1:22:35Z</time></trkpt>
<trkpt lat="43.4731386" lon="6.8953829"><ele></ele><time>2022-5-31T1:22:38Z</time></trkpt>
<trkpt lat="43.4731388" lon="6.8953833"><ele></ele><time>2022-5-31T1:22:41Z</time></trkpt>
<trkpt lat="43.4731390" lon="6.8953836"><ele></ele><time>2022-5-31T1:22:44Z</time></trkpt>
<trkpt lat="43.4731392" lon="6.8953833"><ele></ele><time>2022-5-31T1:22:47Z</time></trkpt>
<trkpt lat="43.4731403" lon="6.8953849"><ele></ele><time>2022-5-31T1:22:50Z</time></trkpt>
<trkpt lat="43.4731409" lon="6.8953851"><ele></ele><time>2022-5-31T1:22:53Z</time></trkpt>
<trkpt lat="43.4731418" lon="6.8953863"><ele></ele><time>2022-5-31T1:22:56Z</time></trkpt>
<trkpt lat="43.4731420" lon="6.8953866"><ele></ele><time>2022-5-31T1:22:59Z</time></trkpt>
<trkpt lat="43.4731424" lon="6.8953872"><ele></ele><time>2022-5-31T1:23:2Z</time></trkpt>
<trkpt lat="43.4731425" lon="6.8953875"><ele></ele><time>2022-5-31T1:23:5Z</time></trkpt>
<trkpt lat="43.4731431" lon="6.8953882"><ele></ele><time>2022-5-31T1:23:8Z</time></trkpt>
<trkpt lat="43.4731434" lon="6.8953885"><ele></ele><time>2022-5-31T1:23:11Z</time></trkpt>
<trkpt lat="43.4731437" lon="6.8953891"><ele></ele><time>2022-5-31T1:23:14Z</time></trkpt>
<trkpt lat="43.4731440" lon="6.8953900"><ele></ele><time>2022-5-31T1:23:17Z</time></trkpt>
<trkpt lat="43.4731441" lon="6.8953899"><ele></ele><time>2022-5-31T1:23:20Z</time></trkpt>
<trkpt lat="43.4731443" lon="6.8953901"><ele></ele><time>2022-5-31T1:23:23Z</time></trkpt>
<trkpt lat="43.4731443" lon="6.8953898"><ele></ele><time>2022-5-31T1:23:26Z</time></trkpt>
<trkpt lat="43.4731444" lon="6.8953900"><ele></ele><time>2022-5-31T1:23:29Z</time></trkpt>
<trkpt lat="43.4731446" lon="6.8953903"><ele></ele><time>2022-5-31T1:23:32Z</time></trkpt>
<trkpt lat="43.4731447" lon="6.8953901"><ele></ele><time>2022-5-31T1:23:35Z</time></trkpt>
<trkpt lat="43.4731448" lon="6.8953902"><ele></ele><time>2022-5-31T1:23:38Z</time></trkpt>
<trkpt lat="43.4731451" lon="6.8953910"><ele></ele><time>2022-5-31T1:23:41Z</time></trkpt>
<trkpt lat="43.4731452" lon="6.8953914"><ele></ele><time>2022-5-31T1:23:44Z</time></trkpt>
<trkpt lat="43.4731454" lon="6.8953924"><ele></ele><time>2022-5-31T1:23:47Z</time></trkpt>
<trkpt lat="43.4731457" lon="6.8953931"><ele></ele><time>2022-5-31T1:23:50Z</time></trkpt>
<trkpt lat="43.4731459" lon="6.8953931"><ele></ele><time>2022-5-31T1:23:53Z</time></trkpt>
<trkpt lat="43.4731461" lon="6.8953942"><ele></ele><time>2022-5-31T1:23:56Z</time></trkpt>
<trkpt lat="43.4731462" lon="6.8953946"><ele></ele><time>2022-5-31T1:23:59Z</time></trkpt>
<trkpt lat="43.4731462" lon="6.8953951"><ele></ele><time>2022-5-31T1:24:2Z</time></trkpt>
<trkpt lat="43.4731463" lon="6.8953956"><ele></ele><time>2022-5-31T1:24:5Z</time></trkpt>
<trkpt lat="43.4731464" lon="6.8953957"><ele></ele><time>2022-5-31T1:24:8Z</time></trkpt>
<trkpt lat="43.4731466" lon="6.8953969"><ele></ele><time>2022-5-31T1:24:11Z</time></trkpt>
<trkpt lat="43.4731469" lon="6.8953975"><ele></ele><time>2022-5-31T1:24:14Z</time></trkpt>
<trkpt lat="43.4731467" lon="6.8953970"><ele></ele><time>2022-5-31T1:24:17Z</time></trkpt>
<trkpt lat="43.4731466" lon="6.8953963"><ele></ele><time>2022-5-31T1:24:20Z</time></trkpt>
<trkpt lat="43.4731466" lon="6.8953961"><ele></ele><time>2022-5-31T1:24:23Z</time></trkpt>
<trkpt lat="43.4731464" lon="6.8953951"><ele></ele><time>2022-5-31T1:24:26Z</time></trkpt>
<trkpt lat="43.4731469" lon="6.8953930"><ele></ele><time>2022-5-31T1:24:29Z</time></trkpt>
<trkpt lat="43.4731471" lon="6.8953916"><ele></ele><time>2022-5-31T1:24:32Z</time></trkpt>
<trkpt lat="43.4731469" lon="6.8953895"><ele></ele><time>2022-5-31T1:24:35Z</time></trkpt>
<trkpt lat="43.4731469" lon="6.8953884"><ele></ele><time>2022-5-31T1:24:38Z</time></trkpt>
<trkpt lat="43.4731464" lon="6.8953877"><ele></ele><time>2022-5-31T1:24:41Z</time></trkpt>
<trkpt lat="43.4731462" lon="6.8953861"><ele></ele><time>2022-5-31T1:24:44Z</time></trkpt>
<trkpt lat="43.4731459" lon="6.8953857"><ele></ele><time>2022-5-31T1:24:47Z</time></trkpt>
<trkpt lat="43.4731458" lon="6.8953849"><ele></ele><time>2022-5-31T1:24:50Z</time></trkpt>
<trkpt lat="43.4731458" lon="6.8953832"><ele></ele><time>2022-5-31T1:24:53Z</time></trkpt>
<trkpt lat="43.4731457" lon="6.8953824"><ele></ele><time>2022-5-31T1:24:56Z</time></trkpt>
<trkpt lat="43.4731456" lon="6.8953816"><ele></ele><time>2022-5-31T1:24:59Z</time></trkpt>
<trkpt lat="43.4731454" lon="6.8953809"><ele></ele><time>2022-5-31T1:25:2Z</time></trkpt>
<trkpt lat="43.4731450" lon="6.8953795"><ele></ele><time>2022-5-31T1:25:5Z</time></trkpt>
<trkpt lat="43.4731449" lon="6.8953789"><ele></ele><time>2022-5-31T1:25:8Z</time></trkpt>
<trkpt lat="43.4731449" lon="6.8953781"><ele></ele><time>2022-5-31T1:25:11Z</time></trkpt>
<trkpt lat="43.4731448" lon="6.8953774"><ele></ele><time>2022-5-31T1:25:14Z</time></trkpt>
<trkpt lat="43.4731447" lon="6.8953771"><ele></ele><time>2022-5-31T1:25:17Z</time></trkpt>
<trkpt lat="43.4731486" lon="6.8953774"><ele></ele><time>2022-5-31T1:25:20Z</time></trkpt>
<trkpt lat="43.4731508" lon="6.8953819"><ele></ele><time>2022-5-31T1:25:23Z</time></trkpt>
<trkpt lat="43.4731561" lon="6.8953797"><ele></ele><time>2022-5-31T1:25:26Z</time></trkpt>
<trkpt lat="43.4731556" lon="6.8953784"><ele></ele><time>2022-5-31T1:25:29Z</time></trkpt>
<trkpt lat="43.4731567" lon="6.8953790"><ele></ele><time>2022-5-31T1:25:32Z</time></trkpt>
<trkpt lat="43.4731576" lon="6.8953803"><ele></ele><time>2022-5-31T1:25:35Z</time></trkpt>
<trkpt lat="43.4731554" lon="6.8953751"><ele></ele><time>2022-5-31T1:25:38Z</time></trkpt>
<trkpt lat="43.4731519" lon="6.8953700"><ele></ele><time>2022-5-31T1:25:41Z</time></trkpt>
<trkpt lat="43.4731484" lon="6.8953640"><ele></ele><time>2022-5-31T1:25:44Z</time></trkpt>
<trkpt lat="43.4731473" lon="6.8953628"><ele></ele><time>2022-5-31T1:25:47Z</time></trkpt>
<trkpt lat="43.4731466" lon="6.8953625"><ele></ele><time>2022-5-31T1:25:50Z</time></trkpt>
<trkpt lat="43.4731464" lon="6.8953627"><ele></ele><time>2022-5-31T1:25:53Z</time></trkpt>
<trkpt lat="43.4731460" lon="6.8953620"><ele></ele><time>2022-5-31T1:25:56Z</time></trkpt>
<trkpt lat="43.4731459" lon="6.8953614"><ele></ele><time>2022-5-31T1:25:59Z</time></trkpt>
<trkpt lat="43.4731460" lon="6.8953603"><ele></ele><time>2022-5-31T1:26:2Z</time></trkpt>
<trkpt lat="43.4731461" lon="6.8953600"><ele></ele><time>2022-5-31T1:26:5Z</time></trkpt>
<trkpt lat="43.4731461" lon="6.8953601"><ele></ele><time>2022-5-31T1:26:8Z</time></trkpt>
<trkpt lat="43.4731461" lon="6.8953602"><ele></ele><time>2022-5-31T1:26:11Z</time></trkpt>
<trkpt lat="43.4731460" lon="6.8953606"><ele></ele><time>2022-5-31T1:26:14Z</time></trkpt>
<trkpt lat="43.4731462" lon="6.8953614"><ele></ele><time>2022-5-31T1:26:17Z</time></trkpt>
<trkpt lat="43.4731469" lon="6.8953607"><ele></ele><time>2022-5-31T1:26:20Z</time></trkpt>
<trkpt lat="43.4731472" lon="6.8953608"><ele></ele><time>2022-5-31T1:26:23Z</time></trkpt>
<trkpt lat="43.4731476" lon="6.8953607"><ele></ele><time>2022-5-31T1:26:26Z</time></trkpt>
<trkpt lat="43.4731478" lon="6.8953609"><ele></ele><time>2022-5-31T1:26:29Z</time></trkpt>
<trkpt lat="43.4731479" lon="6.8953611"><ele></ele><time>2022-5-31T1:26:32Z</time></trkpt>
<trkpt lat="43.4731481" lon="6.8953613"><ele></ele><time>2022-5-31T1:26:35Z</time></trkpt>
<trkpt lat="43.4731482" lon="6.8953616"><ele></ele><time>2022-5-31T1:26:38Z</time></trkpt>
<trkpt lat="43.4731483" lon="6.8953614"><ele></ele><time>2022-5-31T1:26:41Z</time></trkpt>
<trkpt lat="43.4731485" lon="6.8953612"><ele></ele><time>2022-5-31T1:26:44Z</time></trkpt>
<trkpt lat="43.4731488" lon="6.8953613"><ele></ele><time>2022-5-31T1:26:47Z</time></trkpt>
<trkpt lat="43.4731491" lon="6.8953610"><ele></ele><time>2022-5-31T1:26:50Z</time></trkpt>
<trkpt lat="43.4731491" lon="6.8953616"><ele></ele><time>2022-5-31T1:26:53Z</time></trkpt>
<trkpt lat="43.4731495" lon="6.8953614"><ele></ele><time>2022-5-31T1:26:56Z</time></trkpt>
<trkpt lat="43.4731494" lon="6.8953621"><ele></ele><time>2022-5-31T1:26:59Z</time></trkpt>
<trkpt lat="43.4731496" lon="6.8953623"><ele></ele><time>2022-5-31T1:27:2Z</time></trkpt>
<trkpt lat="43.4731496" lon="6.8953627"><ele></ele><time>2022-5-31T1:27:5Z</time></trkpt>
<trkpt lat="43.4731490" lon="6.8953624"><ele></ele><time>2022-5-31T1:27:8Z</time></trkpt>
<trkpt lat="43.4731488" lon="6.8953622"><ele></ele><time>2022-5-31T1:27:11Z</time></trkpt>
<trkpt lat="43.4731488" lon="6.8953626"><ele></ele><time>2022-5-31T1:27:14Z</time></trkpt>
<trkpt lat="43.4731488" lon="6.8953628"><ele></ele><time>2022-5-31T1:27:17Z</time></trkpt>
<trkpt lat="43.4731487" lon="6.8953629"><ele></ele><time>2022-5-31T1:27:20Z</time></trkpt>
<trkpt lat="43.4731487" lon="6.8953630"><ele></ele><time>2022-5-31T1:27:23Z</time></trkpt>
<trkpt lat="43.4731487" lon="6.8953630"><ele></ele><time>2022-5-31T1:27:26Z</time></trkpt>
<trkpt lat="43.4731486" lon="6.8953630"><ele></ele><time>2022-5-31T1:27:29Z</time></trkpt>
<trkpt lat="43.4731487" lon="6.8953631"><ele></ele><time>2022-5-31T1:27:32Z</time></trkpt>
<trkpt lat="43.4731486" lon="6.8953631"><ele></ele><time>2022-5-31T1:27:35Z</time></trkpt>
<trkpt lat="43.4731487" lon="6.8953631"><ele></ele><time>2022-5-31T1:27:38Z</time></trkpt>
<trkpt lat="43.4731487" lon="6.8953627"><ele></ele><time>2022-5-31T1:27:41Z</time></trkpt>
<trkpt lat="43.4731488" lon="6.8953627"><ele></ele><time>2022-5-31T1:27:44Z</time></trkpt>
<trkpt lat="43.4731487" lon="6.8953628"><ele></ele><time>2022-5-31T1:27:47Z</time></trkpt>
<trkpt lat="43.4731487" lon="6.8953627"><ele></ele><time>2022-5-31T1:27:50Z</time></trkpt>
<trkpt lat="43.4731486" lon="6.8953627"><ele></ele><time>2022-5-31T1:27:53Z</time></trkpt>
<trkpt lat="43.4731486" lon="6.8953627"><ele></ele><time>2022-5-31T1:27:56Z</time></trkpt>
<trkpt lat="43.4731484" lon="6.8953626"><ele></ele><time>2022-5-31T1:27:59Z</time></trkpt>
<trkpt lat="43.4731484" lon="6.8953626"><ele></ele><time>2022-5-31T1:28:2Z</time></trkpt>
<trkpt lat="43.4731483" lon="6.8953625"><ele></ele><time>2022-5-31T1:28:5Z</time></trkpt>
<trkpt lat="43.4731483" lon="6.8953625"><ele></ele><time>2022-5-31T1:28:8Z</time></trkpt>
<trkpt lat="43.4731482" lon="6.8953626"><ele></ele><time>2022-5-31T1:28:11Z</time></trkpt>
<trkpt lat="43.4731482" lon="6.8953626"><ele></ele><time>2022-5-31T1:28:14Z</time></trkpt>
<trkpt lat="43.4731482" lon="6.8953628"><ele></ele><time>2022-5-31T1:28:17Z</time></trkpt>
<trkpt lat="43.4731482" lon="6.8953630"><ele></ele><time>2022-5-31T1:28:20Z</time></trkpt>
<trkpt lat="43.4731481" lon="6.8953630"><ele></ele><time>2022-5-31T1:28:23Z</time></trkpt>
<trkpt lat="43.4731480" lon="6.8953632"><ele></ele><time>2022-5-31T1:28:26Z</time></trkpt>
<trkpt lat="43.4731480" lon="6.8953633"><ele></ele><time>2022-5-31T1:28:29Z</time></trkpt>
<trkpt lat="43.4731479" lon="6.8953634"><ele></ele><time>2022-5-31T1:28:32Z</time></trkpt>
<trkpt lat="43.4731479" lon="6.8953634"><ele></ele><time>2022-5-31T1:28:35Z</time></trkpt>
<trkpt lat="43.4731479" lon="6.8953634"><ele></ele><time>2022-5-31T1:28:38Z</time></trkpt>
<trkpt lat="43.4731479" lon="6.8953636"><ele></ele><time>2022-5-31T1:28:41Z</time></trkpt>
<trkpt lat="43.4731479" lon="6.8953637"><ele></ele><time>2022-5-31T1:28:44Z</time></trkpt>
<trkpt lat="43.4731479" lon="6.8953636"><ele></ele><time>2022-5-31T1:28:47Z</time></trkpt>
<trkpt lat="43.4731479" lon="6.8953635"><ele></ele><time>2022-5-31T1:28:50Z</time></trkpt>
<trkpt lat="43.4731479" lon="6.8953634"><ele></ele><time>2022-5-31T1:28:53Z</time></trkpt>
<trkpt lat="43.4731478" lon="6.8953634"><ele></ele><time>2022-5-31T1:28:56Z</time></trkpt>
<trkpt lat="43.4731478" lon="6.8953629"><ele></ele><time>2022-5-31T1:28:59Z</time></trkpt>
<trkpt lat="43.4731479" lon="6.8953630"><ele></ele><time>2022-5-31T1:29:2Z</time></trkpt>
<trkpt lat="43.4731479" lon="6.8953630"><ele></ele><time>2022-5-31T1:29:5Z</time></trkpt>
<trkpt lat="43.4731479" lon="6.8953631"><ele></ele><time>2022-5-31T1:29:8Z</time></trkpt>
<trkpt lat="43.4731478" lon="6.8953633"><ele></ele><time>2022-5-31T1:29:11Z</time></trkpt>
<trkpt lat="43.4731477" lon="6.8953631"><ele></ele><time>2022-5-31T1:29:14Z</time></trkpt>
<trkpt lat="43.4731476" lon="6.8953632"><ele></ele><time>2022-5-31T1:29:17Z</time></trkpt>
<trkpt lat="43.4731476" lon="6.8953631"><ele></ele><time>2022-5-31T1:29:20Z</time></trkpt>
<trkpt lat="43.4731477" lon="6.8953632"><ele></ele><time>2022-5-31T1:29:23Z</time></trkpt>
<trkpt lat="43.4731475" lon="6.8953631"><ele></ele><time>2022-5-31T1:29:26Z</time></trkpt>
<trkpt lat="43.4731475" lon="6.8953632"><ele></ele><time>2022-5-31T1:29:29Z</time></trkpt>
<trkpt lat="43.4731474" lon="6.8953632"><ele></ele><time>2022-5-31T1:29:32Z</time></trkpt>
<trkpt lat="43.4731474" lon="6.8953632"><ele></ele><time>2022-5-31T1:29:35Z</time></trkpt>
<trkpt lat="43.4731473" lon="6.8953632"><ele></ele><time>2022-5-31T1:29:38Z</time></trkpt>
<trkpt lat="43.4731473" lon="6.8953633"><ele></ele><time>2022-5-31T1:29:41Z</time></trkpt>
<trkpt lat="43.4731472" lon="6.8953634"><ele></ele><time>2022-5-31T1:29:44Z</time></trkpt>
<trkpt lat="43.4731472" lon="6.8953634"><ele></ele><time>2022-5-31T1:29:47Z</time></trkpt>
<trkpt lat="43.4731471" lon="6.8953635"><ele></ele><time>2022-5-31T1:29:50Z</time></trkpt>
<trkpt lat="43.4731470" lon="6.8953635"><ele></ele><time>2022-5-31T1:29:53Z</time></trkpt>
<trkpt lat="43.4731469" lon="6.8953634"><ele></ele><time>2022-5-31T1:29:56Z</time></trkpt>
<trkpt lat="43.4731468" lon="6.8953634"><ele></ele><time>2022-5-31T1:29:59Z</time></trkpt>
<trkpt lat="43.4731467" lon="6.8953630"><ele></ele><time>2022-5-31T1:30:2Z</time></trkpt>
<trkpt lat="43.4731466" lon="6.8953626"><ele></ele><time>2022-5-31T1:30:5Z</time></trkpt>
<trkpt lat="43.4731468" lon="6.8953625"><ele></ele><time>2022-5-31T1:30:8Z</time></trkpt>
<trkpt lat="43.4731469" lon="6.8953623"><ele></ele><time>2022-5-31T1:30:11Z</time></trkpt>
<trkpt lat="43.4731469" lon="6.8953624"><ele></ele><time>2022-5-31T1:30:14Z</time></trkpt>
<trkpt lat="43.4731465" lon="6.8953621"><ele></ele><time>2022-5-31T1:30:17Z</time></trkpt>
<trkpt lat="43.4731463" lon="6.8953611"><ele></ele><time>2022-5-31T1:30:20Z</time></trkpt>
<trkpt lat="43.4731462" lon="6.8953609"><ele></ele><time>2022-5-31T1:30:23Z</time></trkpt>
<trkpt lat="43.4731461" lon="6.8953604"><ele></ele><time>2022-5-31T1:30:26Z</time></trkpt>
<trkpt lat="43.4731463" lon="6.8953603"><ele></ele><time>2022-5-31T1:30:29Z</time></trkpt>
<trkpt lat="43.4731463" lon="6.8953600"><ele></ele><time>2022-5-31T1:30:32Z</time></trkpt>
<trkpt lat="43.4731463" lon="6.8953598"><ele></ele><time>2022-5-31T1:30:35Z</time></trkpt>
<trkpt lat="43.4731462" lon="6.8953594"><ele></ele><time>2022-5-31T1:30:38Z</time></trkpt>
<trkpt lat="43.4731461" lon="6.8953596"><ele></ele><time>2022-5-31T1:30:41Z</time></trkpt>
<trkpt lat="43.4731460" lon="6.8953599"><ele></ele><time>2022-5-31T1:30:44Z</time></trkpt>
<trkpt lat="43.4731459" lon="6.8953609"><ele></ele><time>2022-5-31T1:30:47Z</time></trkpt>
<trkpt lat="43.4731462" lon="6.8953615"><ele></ele><time>2022-5-31T1:30:50Z</time></trkpt>
<trkpt lat="43.4731466" lon="6.8953614"><ele></ele><time>2022-5-31T1:30:53Z</time></trkpt>
<trkpt lat="43.4731469" lon="6.8953614"><ele></ele><time>2022-5-31T1:30:56Z</time></trkpt>
<trkpt lat="43.4731471" lon="6.8953617"><ele></ele><time>2022-5-31T1:30:59Z</time></trkpt>
<trkpt lat="43.4731468" lon="6.8953618"><ele></ele><time>2022-5-31T1:31:2Z</time></trkpt>
<trkpt lat="43.4731467" lon="6.8953620"><ele></ele><time>2022-5-31T1:31:5Z</time></trkpt>
<trkpt lat="43.4731465" lon="6.8953621"><ele></ele><time>2022-5-31T1:31:8Z</time></trkpt>
<trkpt lat="43.4731466" lon="6.8953625"><ele></ele><time>2022-5-31T1:31:11Z</time></trkpt>
<trkpt lat="43.4731466" lon="6.8953625"><ele></ele><time>2022-5-31T1:31:14Z</time></trkpt>
<trkpt lat="43.4731466" lon="6.8953630"><ele></ele><time>2022-5-31T1:31:17Z</time></trkpt>
<trkpt lat="43.4731468" lon="6.8953636"><ele></ele><time>2022-5-31T1:31:20Z</time></trkpt>
<trkpt lat="43.4731469" lon="6.8953640"><ele></ele><time>2022-5-31T1:31:23Z</time></trkpt>
<trkpt lat="43.4731470" lon="6.8953644"><ele></ele><time>2022-5-31T1:31:26Z</time></trkpt>
<trkpt lat="43.4731472" lon="6.8953643"><ele></ele><time>2022-5-31T1:31:29Z</time></trkpt>
<trkpt lat="43.4731472" lon="6.8953642"><ele></ele><time>2022-5-31T1:31:32Z</time></trkpt>
<trkpt lat="43.4731472" lon="6.8953641"><ele></ele><time>2022-5-31T1:31:35Z</time></trkpt>
<trkpt lat="43.4731472" lon="6.8953642"><ele></ele><time>2022-5-31T1:31:38Z</time></trkpt>
<trkpt lat="43.4731466" lon="6.8953641"><ele></ele><time>2022-5-31T1:31:41Z</time></trkpt>
<trkpt lat="43.4731465" lon="6.8953640"><ele></ele><time>2022-5-31T1:31:44Z</time></trkpt>
<trkpt lat="43.4731466" lon="6.8953642"><ele></ele><time>2022-5-31T1:31:47Z</time></trkpt>
<trkpt lat="43.4731466" lon="6.8953645"><ele></ele><time>2022-5-31T1:31:50Z</time></trkpt>
<trkpt lat="43.4731466" lon="6.8953640"><ele></ele><time>2022-5-31T1:31:53Z</time></trkpt>
<trkpt lat="43.4731467" lon="6.8953630"><ele></ele><time>2022-5-31T1:31:56Z</time></trkpt>
<trkpt lat="43.4731469" lon="6.8953622"><ele></ele><time>2022-5-31T1:31:59Z</time></trkpt>
<trkpt lat="43.4731471" lon="6.8953614"><ele></ele><time>2022-5-31T1:32:2Z</time></trkpt>
<trkpt lat="43.4731472" lon="6.8953610"><ele></ele><time>2022-5-31T1:32:5Z</time></trkpt>
<trkpt lat="43.4731471" lon="6.8953608"><ele></ele><time>2022-5-31T1:32:8Z</time></trkpt>
<trkpt lat="43.4731468" lon="6.8953606"><ele></ele><time>2022-5-31T1:32:11Z</time></trkpt>
<trkpt lat="43.4731465" lon="6.8953604"><ele></ele><time>2022-5-31T1:32:14Z</time></trkpt>
<trkpt lat="43.4731460" lon="6.8953607"><ele></ele><time>2022-5-31T1:32:17Z</time></trkpt>
<trkpt lat="43.4731454" lon="6.8953606"><ele></ele><time>2022-5-31T1:32:20Z</time></trkpt>
<trkpt lat="43.4731442" lon="6.8953566"><ele></ele><time>2022-5-31T1:32:23Z</time></trkpt>
<trkpt lat="43.4731442" lon="6.8953493"><ele></ele><time>2022-5-31T1:32:26Z</time></trkpt>
<trkpt lat="43.4731470" lon="6.8953415"><ele></ele><time>2022-5-31T1:32:29Z</time></trkpt>
<trkpt lat="43.4731512" lon="6.8953359"><ele></ele><time>2022-5-31T1:32:32Z</time></trkpt>
<trkpt lat="43.4731550" lon="6.8953354"><ele></ele><time>2022-5-31T1:32:35Z</time></trkpt>
<trkpt lat="43.4731593" lon="6.8953341"><ele></ele><time>2022-5-31T1:32:38Z</time></trkpt>
<trkpt lat="43.4731597" lon="6.8953361"><ele></ele><time>2022-5-31T1:32:41Z</time></trkpt>
<trkpt lat="43.4731603" lon="6.8953362"><ele></ele><time>2022-5-31T1:32:44Z</time></trkpt>
<trkpt lat="43.4731603" lon="6.8953369"><ele></ele><time>2022-5-31T1:32:47Z</time></trkpt>
<trkpt lat="43.4731610" lon="6.8953374"><ele></ele><time>2022-5-31T1:32:50Z</time></trkpt>
<trkpt lat="43.4731613" lon="6.8953373"><ele></ele><time>2022-5-31T1:32:53Z</time></trkpt>
<trkpt lat="43.4731614" lon="6.8953374"><ele></ele><time>2022-5-31T1:32:56Z</time></trkpt>
<trkpt lat="43.4731615" lon="6.8953375"><ele></ele><time>2022-5-31T1:32:59Z</time></trkpt>
<trkpt lat="43.4731617" lon="6.8953376"><ele></ele><time>2022-5-31T1:33:2Z</time></trkpt>
<trkpt lat="43.4731619" lon="6.8953378"><ele></ele><time>2022-5-31T1:33:5Z</time></trkpt>
<trkpt lat="43.4731620" lon="6.8953379"><ele></ele><time>2022-5-31T1:33:8Z</time></trkpt>
<trkpt lat="43.4731626" lon="6.8953376"><ele></ele><time>2022-5-31T1:33:11Z</time></trkpt>
<trkpt lat="43.4731627" lon="6.8953380"><ele></ele><time>2022-5-31T1:33:14Z</time></trkpt>
<trkpt lat="43.4731627" lon="6.8953387"><ele></ele><time>2022-5-31T1:33:17Z</time></trkpt>
<trkpt lat="43.4731627" lon="6.8953397"><ele></ele><time>2022-5-31T1:33:20Z</time></trkpt>
<trkpt lat="43.4731631" lon="6.8953403"><ele></ele><time>2022-5-31T1:33:23Z</time></trkpt>
<trkpt lat="43.4731632" lon="6.8953412"><ele></ele><time>2022-5-31T1:33:26Z</time></trkpt>
<trkpt lat="43.4731631" lon="6.8953435"><ele></ele><time>2022-5-31T1:33:29Z</time></trkpt>
<trkpt lat="43.4731624" lon="6.8953455"><ele></ele><time>2022-5-31T1:33:32Z</time></trkpt>
<trkpt lat="43.4731622" lon="6.8953462"><ele></ele><time>2022-5-31T1:33:35Z</time></trkpt>
<trkpt lat="43.4731634" lon="6.8953474"><ele></ele><time>2022-5-31T1:33:38Z</time></trkpt>
<trkpt lat="43.4731653" lon="6.8953464"><ele></ele><time>2022-5-31T1:33:41Z</time></trkpt>
<trkpt lat="43.4731706" lon="6.8953543"><ele></ele><time>2022-5-31T1:33:44Z</time></trkpt>
<trkpt lat="43.4731839" lon="6.8953742"><ele></ele><time>2022-5-31T1:33:47Z</time></trkpt>
<trkpt lat="43.4732005" lon="6.8953972"><ele></ele><time>2022-5-31T1:33:50Z</time></trkpt>
<trkpt lat="43.4732160" lon="6.8954189"><ele></ele><time>2022-5-31T1:33:53Z</time></trkpt>
<trkpt lat="43.4732342" lon="6.8954455"><ele></ele><time>2022-5-31T1:33:56Z</time></trkpt>
<trkpt lat="43.4732606" lon="6.8954735"><ele></ele><time>2022-5-31T1:33:59Z</time></trkpt>
<trkpt lat="43.4732830" lon="6.8955107"><ele></ele><time>2022-5-31T1:34:2Z</time></trkpt>
<trkpt lat="43.4733013" lon="6.8955445"><ele></ele><time>2022-5-31T1:34:5Z</time></trkpt>
<trkpt lat="43.4733239" lon="6.8955861"><ele></ele><time>2022-5-31T1:34:8Z</time></trkpt>
<trkpt lat="43.4733539" lon="6.8956388"><ele></ele><time>2022-5-31T1:34:11Z</time></trkpt>
<trkpt lat="43.4733841" lon="6.8956894"><ele></ele><time>2022-5-31T1:34:14Z</time></trkpt>
<trkpt lat="43.4734073" lon="6.8957251"><ele></ele><time>2022-5-31T1:34:17Z</time></trkpt>
<trkpt lat="43.4734254" lon="6.8957575"><ele></ele><time>2022-5-31T1:34:20Z</time></trkpt>
<trkpt lat="43.4734421" lon="6.8957928"><ele></ele><time>2022-5-31T1:34:23Z</time></trkpt>
<trkpt lat="43.4734583" lon="6.8958326"><ele></ele><time>2022-5-31T1:34:26Z</time></trkpt>
<trkpt lat="43.4734736" lon="6.8958658"><ele></ele><time>2022-5-31T1:34:29Z</time></trkpt>
<trkpt lat="43.4734891" lon="6.8958987"><ele></ele><time>2022-5-31T1:34:32Z</time></trkpt>
<trkpt lat="43.4735082" lon="6.8959298"><ele></ele><time>2022-5-31T1:34:35Z</time></trkpt>
<trkpt lat="43.4735299" lon="6.8959657"><ele></ele><time>2022-5-31T1:34:38Z</time></trkpt>
<trkpt lat="43.4735563" lon="6.8960005"><ele></ele><time>2022-5-31T1:34:41Z</time></trkpt>
<trkpt lat="43.4735850" lon="6.8960299"><ele></ele><time>2022-5-31T1:34:44Z</time></trkpt>
<trkpt lat="43.4736291" lon="6.8960740"><ele></ele><time>2022-5-31T1:34:47Z</time></trkpt>
<trkpt lat="43.4736706" lon="6.8961294"><ele></ele><time>2022-5-31T1:34:50Z</time></trkpt>
<trkpt lat="43.4737095" lon="6.8961808"><ele></ele><time>2022-5-31T1:34:53Z</time></trkpt>
<trkpt lat="43.4737434" lon="6.8962058"><ele></ele><time>2022-5-31T1:34:56Z</time></trkpt>
<trkpt lat="43.4737795" lon="6.8962080"><ele></ele><time>2022-5-31T1:34:59Z</time></trkpt>
<trkpt lat="43.4738158" lon="6.8962071"><ele></ele><time>2022-5-31T1:35:2Z</time></trkpt>
<trkpt lat="43.4738372" lon="6.8961936"><ele></ele><time>2022-5-31T1:35:5Z</time></trkpt>
<trkpt lat="43.4738476" lon="6.8961904"><ele></ele><time>2022-5-31T1:35:8Z</time></trkpt>
<trkpt lat="43.4738645" lon="6.8961784"><ele></ele><time>2022-5-31T1:35:11Z</time></trkpt>
<trkpt lat="43.4738663" lon="6.8961761"><ele></ele><time>2022-5-31T1:35:14Z</time></trkpt>
<trkpt lat="43.4738623" lon="6.8961743"><ele></ele><time>2022-5-31T1:35:17Z</time></trkpt>
<trkpt lat="43.4738626" lon="6.8961732"><ele></ele><time>2022-5-31T1:35:20Z</time></trkpt>
<trkpt lat="43.4738639" lon="6.8961727"><ele></ele><time>2022-5-31T1:35:23Z</time></trkpt>
<trkpt lat="43.4738628" lon="6.8961731"><ele></ele><time>2022-5-31T1:35:26Z</time></trkpt>
<trkpt lat="43.4738634" lon="6.8961733"><ele></ele><time>2022-5-31T1:35:29Z</time></trkpt>
<trkpt lat="43.4738643" lon="6.8961734"><ele></ele><time>2022-5-31T1:35:32Z</time></trkpt>
<trkpt lat="43.4738644" lon="6.8961745"><ele></ele><time>2022-5-31T1:35:35Z</time></trkpt>
<trkpt lat="43.4738656" lon="6.8961744"><ele></ele><time>2022-5-31T1:35:38Z</time></trkpt>
<trkpt lat="43.4738664" lon="6.8961743"><ele></ele><time>2022-5-31T1:35:41Z</time></trkpt>
<trkpt lat="43.4738669" lon="6.8961741"><ele></ele><time>2022-5-31T1:35:44Z</time></trkpt>
<trkpt lat="43.4738667" lon="6.8961742"><ele></ele><time>2022-5-31T1:35:47Z</time></trkpt>
<trkpt lat="43.4738670" lon="6.8961739"><ele></ele><time>2022-5-31T1:35:50Z</time></trkpt>
<trkpt lat="43.4738671" lon="6.8961742"><ele></ele><time>2022-5-31T1:35:53Z</time></trkpt>
<trkpt lat="43.4738674" lon="6.8961745"><ele></ele><time>2022-5-31T1:35:56Z</time></trkpt>
<trkpt lat="43.4738681" lon="6.8961746"><ele></ele><time>2022-5-31T1:35:59Z</time></trkpt>
<trkpt lat="43.4738682" lon="6.8961745"><ele></ele><time>2022-5-31T1:36:2Z</time></trkpt>
<trkpt lat="43.4738682" lon="6.8961740"><ele></ele><time>2022-5-31T1:36:5Z</time></trkpt>
<trkpt lat="43.4738676" lon="6.8961737"><ele></ele><time>2022-5-31T1:36:8Z</time></trkpt>
<trkpt lat="43.4738670" lon="6.8961735"><ele></ele><time>2022-5-31T1:36:11Z</time></trkpt>
<trkpt lat="43.4738651" lon="6.8961732"><ele></ele><time>2022-5-31T1:36:14Z</time></trkpt>
<trkpt lat="43.4738635" lon="6.8961730"><ele></ele><time>2022-5-31T1:36:17Z</time></trkpt>
<trkpt lat="43.4738611" lon="6.8961725"><ele></ele><time>2022-5-31T1:36:20Z</time></trkpt>
<trkpt lat="43.4738601" lon="6.8961723"><ele></ele><time>2022-5-31T1:36:23Z</time></trkpt>
<trkpt lat="43.4738598" lon="6.8961724"><ele></ele><time>2022-5-31T1:36:26Z</time></trkpt>
<trkpt lat="43.4738595" lon="6.8961724"><ele></ele><time>2022-5-31T1:36:29Z</time></trkpt>
<trkpt lat="43.4738593" lon="6.8961722"><ele></ele><time>2022-5-31T1:36:32Z</time></trkpt>
<trkpt lat="43.4738589" lon="6.8961720"><ele></ele><time>2022-5-31T1:36:35Z</time></trkpt>
<trkpt lat="43.4738582" lon="6.8961721"><ele></ele><time>2022-5-31T1:36:38Z</time></trkpt>
<trkpt lat="43.4738558" lon="6.8961699"><ele></ele><time>2022-5-31T1:36:41Z</time></trkpt>
<trkpt lat="43.4738672" lon="6.8961634"><ele></ele><time>2022-5-31T1:36:44Z</time></trkpt>
<trkpt lat="43.4738829" lon="6.8961528"><ele></ele><time>2022-5-31T1:36:47Z</time></trkpt>
<trkpt lat="43.4739100" lon="6.8961506"><ele></ele><time>2022-5-31T1:36:50Z</time></trkpt>
<trkpt lat="43.4739404" lon="6.8961510"><ele></ele><time>2022-5-31T1:36:53Z</time></trkpt>
<trkpt lat="43.4739695" lon="6.8961487"><ele></ele><time>2022-5-31T1:36:56Z</time></trkpt>
<trkpt lat="43.4739944" lon="6.8961431"><ele></ele><time>2022-5-31T1:36:59Z</time></trkpt>
<trkpt lat="43.4740238" lon="6.8961309"><ele></ele><time>2022-5-31T1:37:2Z</time></trkpt>
<trkpt lat="43.4740463" lon="6.8961234"><ele></ele><time>2022-5-31T1:37:5Z</time></trkpt>
<trkpt lat="43.4740545" lon="6.8961227"><ele></ele><time>2022-5-31T1:37:8Z</time></trkpt>
<trkpt lat="43.4740631" lon="6.8961081"><ele></ele><time>2022-5-31T1:37:11Z</time></trkpt>
<trkpt lat="43.4740782" lon="6.8960975"><ele></ele><time>2022-5-31T1:37:14Z</time></trkpt>
<trkpt lat="43.4740988" lon="6.8960864"><ele></ele><time>2022-5-31T1:37:17Z</time></trkpt>
<trkpt lat="43.4741144" lon="6.8960726"><ele></ele><time>2022-5-31T1:37:20Z</time></trkpt>
<trkpt lat="43.4741363" lon="6.8960603"><ele></ele><time>2022-5-31T1:37:23Z</time></trkpt>
<trkpt lat="43.4741644" lon="6.8960531"><ele></ele><time>2022-5-31T1:37:26Z</time></trkpt>
<trkpt lat="43.4741829" lon="6.8960538"><ele></ele><time>2022-5-31T1:37:29Z</time></trkpt>
<trkpt lat="43.4742046" lon="6.8960440"><ele></ele><time>2022-5-31T1:37:32Z</time></trkpt>
<trkpt lat="43.4742329" lon="6.8960378"><ele></ele><time>2022-5-31T1:37:35Z</time></trkpt>
<trkpt lat="43.4742861" lon="6.8960381"><ele></ele><time>2022-5-31T1:37:38Z</time></trkpt>
<trkpt lat="43.4742886" lon="6.8960338"><ele></ele><time>2022-5-31T1:37:41Z</time></trkpt>
<trkpt lat="43.4743143" lon="6.8960336"><ele></ele><time>2022-5-31T1:37:44Z</time></trkpt>
<trkpt lat="43.4743428" lon="6.8960307"><ele></ele><time>2022-5-31T1:37:47Z</time></trkpt>
<trkpt lat="43.4743734" lon="6.8960239"><ele></ele><time>2022-5-31T1:37:50Z</time></trkpt>
<trkpt lat="43.4744055" lon="6.8960225"><ele></ele><time>2022-5-31T1:37:53Z</time></trkpt>
<trkpt lat="43.4744461" lon="6.8960220"><ele></ele><time>2022-5-31T1:37:56Z</time></trkpt>
<trkpt lat="43.4744928" lon="6.8960117"><ele></ele><time>2022-5-31T1:37:59Z</time></trkpt>
<trkpt lat="43.4745103" lon="6.8960176"><ele></ele><time>2022-5-31T1:38:2Z</time></trkpt>
<trkpt lat="43.4745371" lon="6.8960353"><ele></ele><time>2022-5-31T1:38:5Z</time></trkpt>
<trkpt lat="43.4745714" lon="6.8960269"><ele></ele><time>2022-5-31T1:38:8Z</time></trkpt>
<trkpt lat="43.4745949" lon="6.8960165"><ele></ele><time>2022-5-31T1:38:11Z</time></trkpt>
<trkpt lat="43.4746161" lon="6.8960012"><ele></ele><time>2022-5-31T1:38:14Z</time></trkpt>
<trkpt lat="43.4746228" lon="6.8959908"><ele></ele><time>2022-5-31T1:38:17Z</time></trkpt>
<trkpt lat="43.4746462" lon="6.8959747"><ele></ele><time>2022-5-31T1:38:20Z</time></trkpt>
<trkpt lat="43.4746661" lon="6.8959597"><ele></ele><time>2022-5-31T1:38:23Z</time></trkpt>
<trkpt lat="43.4746935" lon="6.8959391"><ele></ele><time>2022-5-31T1:38:26Z</time></trkpt>
<trkpt lat="43.4747113" lon="6.8959243"><ele></ele><time>2022-5-31T1:38:29Z</time></trkpt>
<trkpt lat="43.4747323" lon="6.8959092"><ele></ele><time>2022-5-31T1:38:32Z</time></trkpt>
<trkpt lat="43.4747552" lon="6.8958966"><ele></ele><time>2022-5-31T1:38:35Z</time></trkpt>
<trkpt lat="43.4747680" lon="6.8958882"><ele></ele><time>2022-5-31T1:38:38Z</time></trkpt>
<trkpt lat="43.4747935" lon="6.8958753"><ele></ele><time>2022-5-31T1:38:41Z</time></trkpt>
<trkpt lat="43.4748312" lon="6.8958729"><ele></ele><time>2022-5-31T1:38:44Z</time></trkpt>
<trkpt lat="43.4748572" lon="6.8958638"><ele></ele><time>2022-5-31T1:38:47Z</time></trkpt>
<trkpt lat="43.4748716" lon="6.8958569"><ele></ele><time>2022-5-31T1:38:50Z</time></trkpt>
<trkpt lat="43.4748871" lon="6.8958482"><ele></ele><time>2022-5-31T1:38:53Z</time></trkpt>
<trkpt lat="43.4748965" lon="6.8958442"><ele></ele><time>2022-5-31T1:38:56Z</time></trkpt>
<trkpt lat="43.4749157" lon="6.8958301"><ele></ele><time>2022-5-31T1:38:59Z</time></trkpt>
<trkpt lat="43.4749354" lon="6.8958106"><ele></ele><time>2022-5-31T1:39:2Z</time></trkpt>
<trkpt lat="43.4749438" lon="6.8958051"><ele></ele><time>2022-5-31T1:39:5Z</time></trkpt>
<trkpt lat="43.4749594" lon="6.8957985"><ele></ele><time>2022-5-31T1:39:8Z</time></trkpt>
<trkpt lat="43.4749794" lon="6.8957956"><ele></ele><time>2022-5-31T1:39:11Z</time></trkpt>
<trkpt lat="43.4749977" lon="6.8957838"><ele></ele><time>2022-5-31T1:39:14Z</time></trkpt>
<trkpt lat="43.4750122" lon="6.8957716"><ele></ele><time>2022-5-31T1:39:17Z</time></trkpt>
<trkpt lat="43.4750293" lon="6.8957532"><ele></ele><time>2022-5-31T1:39:20Z</time></trkpt>
<trkpt lat="43.4750486" lon="6.8957395"><ele></ele><time>2022-5-31T1:39:23Z</time></trkpt>
<trkpt lat="43.4750679" lon="6.8957358"><ele></ele><time>2022-5-31T1:39:26Z</time></trkpt>
<trkpt lat="43.4750821" lon="6.8957287"><ele></ele><time>2022-5-31T1:39:29Z</time></trkpt>
<trkpt lat="43.4750930" lon="6.8957235"><ele></ele><time>2022-5-31T1:39:32Z</time></trkpt>
<trkpt lat="43.4751048" lon="6.8957160"><ele></ele><time>2022-5-31T1:39:35Z</time></trkpt>
<trkpt lat="43.4751175" lon="6.8957012"><ele></ele><time>2022-5-31T1:39:38Z</time></trkpt>
<trkpt lat="43.4751333" lon="6.8956882"><ele></ele><time>2022-5-31T1:39:41Z</time></trkpt>
<trkpt lat="43.4751521" lon="6.8956695"><ele></ele><time>2022-5-31T1:39:44Z</time></trkpt>
<trkpt lat="43.4751685" lon="6.8956549"><ele></ele><time>2022-5-31T1:39:47Z</time></trkpt>
<trkpt lat="43.4751865" lon="6.8956397"><ele></ele><time>2022-5-31T1:39:50Z</time></trkpt>
<trkpt lat="43.4752016" lon="6.8956312"><ele></ele><time>2022-5-31T1:39:53Z</time></trkpt>
<trkpt lat="43.4752224" lon="6.8956245"><ele></ele><time>2022-5-31T1:39:56Z</time></trkpt>
<trkpt lat="43.4752502" lon="6.8955949"><ele></ele><time>2022-5-31T1:39:59Z</time></trkpt>
<trkpt lat="43.4752685" lon="6.8955814"><ele></ele><time>2022-5-31T1:40:2Z</time></trkpt>
<trkpt lat="43.4752893" lon="6.8955697"><ele></ele><time>2022-5-31T1:40:5Z</time></trkpt>
<trkpt lat="43.4753098" lon="6.8955616"><ele></ele><time>2022-5-31T1:40:8Z</time></trkpt>
<trkpt lat="43.4753245" lon="6.8955539"><ele></ele><time>2022-5-31T1:40:11Z</time></trkpt>
<trkpt lat="43.4753448" lon="6.8955340"><ele></ele><time>2022-5-31T1:40:14Z</time></trkpt>
<trkpt lat="43.4753634" lon="6.8955163"><ele></ele><time>2022-5-31T1:40:17Z</time></trkpt>
<trkpt lat="43.4753797" lon="6.8955084"><ele></ele><time>2022-5-31T1:40:20Z</time></trkpt>
<trkpt lat="43.4753947" lon="6.8954989"><ele></ele><time>2022-5-31T1:40:23Z</time></trkpt>
<trkpt lat="43.4754122" lon="6.8954826"><ele></ele><time>2022-5-31T1:40:26Z</time></trkpt>
<trkpt lat="43.4754248" lon="6.8954653"><ele></ele><time>2022-5-31T1:40:29Z</time></trkpt>
<trkpt lat="43.4754392" lon="6.8954469"><ele></ele><time>2022-5-31T1:40:32Z</time></trkpt>
<trkpt lat="43.4754521" lon="6.8954263"><ele></ele><time>2022-5-31T1:40:35Z</time></trkpt>
<trkpt lat="43.4754663" lon="6.8954075"><ele></ele><time>2022-5-31T1:40:38Z</time></trkpt>
<trkpt lat="43.4754806" lon="6.8953900"><ele></ele><time>2022-5-31T1:40:41Z</time></trkpt>
<trkpt lat="43.4754963" lon="6.8953712"><ele></ele><time>2022-5-31T1:40:44Z</time></trkpt>
<trkpt lat="43.4755090" lon="6.8953529"><ele></ele><time>2022-5-31T1:40:47Z</time></trkpt>
<trkpt lat="43.4755192" lon="6.8953377"><ele></ele><time>2022-5-31T1:40:50Z</time></trkpt>
<trkpt lat="43.4755315" lon="6.8953208"><ele></ele><time>2022-5-31T1:40:53Z</time></trkpt>
<trkpt lat="43.4755443" lon="6.8953034"><ele></ele><time>2022-5-31T1:40:56Z</time></trkpt>
<trkpt lat="43.4755582" lon="6.8952868"><ele></ele><time>2022-5-31T1:40:59Z</time></trkpt>
<trkpt lat="43.4755743" lon="6.8952703"><ele></ele><time>2022-5-31T1:41:2Z</time></trkpt>
<trkpt lat="43.4755886" lon="6.8952519"><ele></ele><time>2022-5-31T1:41:5Z</time></trkpt>
<trkpt lat="43.4755993" lon="6.8952370"><ele></ele><time>2022-5-31T1:41:8Z</time></trkpt>
<trkpt lat="43.4756048" lon="6.8952286"><ele></ele><time>2022-5-31T1:41:11Z</time></trkpt>
<trkpt lat="43.4756069" lon="6.8952255"><ele></ele><time>2022-5-31T1:41:14Z</time></trkpt>
<trkpt lat="43.4756086" lon="6.8952248"><ele></ele><time>2022-5-31T1:41:17Z</time></trkpt>
<trkpt lat="43.4756031" lon="6.8952304"><ele></ele><time>2022-5-31T1:41:20Z</time></trkpt>
<trkpt lat="43.4756039" lon="6.8952286"><ele></ele><time>2022-5-31T1:41:23Z</time></trkpt>
<trkpt lat="43.4756038" lon="6.8952289"><ele></ele><time>2022-5-31T1:41:26Z</time></trkpt>
<trkpt lat="43.4756039" lon="6.8952288"><ele></ele><time>2022-5-31T1:41:29Z</time></trkpt>
<trkpt lat="43.4756040" lon="6.8952286"><ele></ele><time>2022-5-31T1:41:32Z</time></trkpt>
<trkpt lat="43.4756044" lon="6.8952283"><ele></ele><time>2022-5-31T1:41:35Z</time></trkpt>
<trkpt lat="43.4756044" lon="6.8952285"><ele></ele><time>2022-5-31T1:41:38Z</time></trkpt>
<trkpt lat="43.4756046" lon="6.8952285"><ele></ele><time>2022-5-31T1:41:41Z</time></trkpt>
<trkpt lat="43.4756048" lon="6.8952288"><ele></ele><time>2022-5-31T1:41:44Z</time></trkpt>
<trkpt lat="43.4756054" lon="6.8952285"><ele></ele><time>2022-5-31T1:41:47Z</time></trkpt>
<trkpt lat="43.4756099" lon="6.8952210"><ele></ele><time>2022-5-31T1:41:50Z</time></trkpt>
<trkpt lat="43.4756129" lon="6.8952187"><ele></ele><time>2022-5-31T1:41:53Z</time></trkpt>
<trkpt lat="43.4756136" lon="6.8952212"><ele></ele><time>2022-5-31T1:41:56Z</time></trkpt>
<trkpt lat="43.4756127" lon="6.8952270"><ele></ele><time>2022-5-31T1:41:59Z</time></trkpt>
<trkpt lat="43.4756104" lon="6.8952383"><ele></ele><time>2022-5-31T1:42:2Z</time></trkpt>
<trkpt lat="43.4756054" lon="6.8952481"><ele></ele><time>2022-5-31T1:42:5Z</time></trkpt>
<trkpt lat="43.4756012" lon="6.8952591"><ele></ele><time>2022-5-31T1:42:8Z</time></trkpt>
<trkpt lat="43.4755965" lon="6.8952729"><ele></ele><time>2022-5-31T1:42:11Z</time></trkpt>
<trkpt lat="43.4755923" lon="6.8952820"><ele></ele><time>2022-5-31T1:42:14Z</time></trkpt>
<trkpt lat="43.4755906" lon="6.8952883"><ele></ele><time>2022-5-31T1:42:17Z</time></trkpt>
<trkpt lat="43.4755922" lon="6.8952881"><ele></ele><time>2022-5-31T1:42:20Z</time></trkpt>
<trkpt lat="43.4755920" lon="6.8952897"><ele></ele><time>2022-5-31T1:42:23Z</time></trkpt>
<trkpt lat="43.4755910" lon="6.8952922"><ele></ele><time>2022-5-31T1:42:26Z</time></trkpt>
<trkpt lat="43.4755892" lon="6.8952976"><ele></ele><time>2022-5-31T1:42:29Z</time></trkpt>
<trkpt lat="43.4755891" lon="6.8953045"><ele></ele><time>2022-5-31T1:42:32Z</time></trkpt>
<trkpt lat="43.4755895" lon="6.8953067"><ele></ele><time>2022-5-31T1:42:35Z</time></trkpt>
<trkpt lat="43.4755904" lon="6.8953085"><ele></ele><time>2022-5-31T1:42:38Z</time></trkpt>
<trkpt lat="43.4755937" lon="6.8953086"><ele></ele><time>2022-5-31T1:42:41Z</time></trkpt>
<trkpt lat="43.4755935" lon="6.8953093"><ele></ele><time>2022-5-31T1:42:44Z</time></trkpt>
<trkpt lat="43.4755937" lon="6.8953097"><ele></ele><time>2022-5-31T1:42:47Z</time></trkpt>
<trkpt lat="43.4755941" lon="6.8953100"><ele></ele><time>2022-5-31T1:42:50Z</time></trkpt>
<trkpt lat="43.4755947" lon="6.8953100"><ele></ele><time>2022-5-31T1:42:53Z</time></trkpt>
<trkpt lat="43.4755951" lon="6.8953100"><ele></ele><time>2022-5-31T1:42:56Z</time></trkpt>
<trkpt lat="43.4755958" lon="6.8953099"><ele></ele><time>2022-5-31T1:42:59Z</time></trkpt>
<trkpt lat="43.4755963" lon="6.8953099"><ele></ele><time>2022-5-31T1:43:2Z</time></trkpt>
<trkpt lat="43.4755972" lon="6.8953103"><ele></ele><time>2022-5-31T1:43:5Z</time></trkpt>
<trkpt lat="43.4755973" lon="6.8953104"><ele></ele><time>2022-5-31T1:43:8Z</time></trkpt>
<trkpt lat="43.4755976" lon="6.8953106"><ele></ele><time>2022-5-31T1:43:11Z</time></trkpt>
<trkpt lat="43.4755978" lon="6.8953106"><ele></ele><time>2022-5-31T1:43:14Z</time></trkpt>
<trkpt lat="43.4755982" lon="6.8953107"><ele></ele><time>2022-5-31T1:43:17Z</time></trkpt>
<trkpt lat="43.4755983" lon="6.8953107"><ele></ele><time>2022-5-31T1:43:20Z</time></trkpt>
<trkpt lat="43.4755987" lon="6.8953108"><ele></ele><time>2022-5-31T1:43:23Z</time></trkpt>
<trkpt lat="43.4755954" lon="6.8953137"><ele></ele><time>2022-5-31T1:43:26Z</time></trkpt>
<trkpt lat="43.4755824" lon="6.8953298"><ele></ele><time>2022-5-31T1:43:29Z</time></trkpt>
<trkpt lat="43.4755738" lon="6.8953467"><ele></ele><time>2022-5-31T1:43:32Z</time></trkpt>
<trkpt lat="43.4755618" lon="6.8953655"><ele></ele><time>2022-5-31T1:43:35Z</time></trkpt>
<trkpt lat="43.4755538" lon="6.8953937"><ele></ele><time>2022-5-31T1:43:38Z</time></trkpt>
<trkpt lat="43.4755481" lon="6.8954238"><ele></ele><time>2022-5-31T1:43:41Z</time></trkpt>
<trkpt lat="43.4755449" lon="6.8954492"><ele></ele><time>2022-5-31T1:43:44Z</time></trkpt>
<trkpt lat="43.4755398" lon="6.8954726"><ele></ele><time>2022-5-31T1:43:47Z</time></trkpt>
<trkpt lat="43.4755296" lon="6.8954968"><ele></ele><time>2022-5-31T1:43:50Z</time></trkpt>
<trkpt lat="43.4755217" lon="6.8955230"><ele></ele><time>2022-5-31T1:43:53Z</time></trkpt>
<trkpt lat="43.4755158" lon="6.8955536"><ele></ele><time>2022-5-31T1:43:56Z</time></trkpt>
<trkpt lat="43.4755107" lon="6.8955773"><ele></ele><time>2022-5-31T1:43:59Z</time></trkpt>
<trkpt lat="43.4755052" lon="6.8956020"><ele></ele><time>2022-5-31T1:44:2Z</time></trkpt>
<trkpt lat="43.4755006" lon="6.8956263"><ele></ele><time>2022-5-31T1:44:5Z</time></trkpt>
<trkpt lat="43.4754969" lon="6.8956524"><ele></ele><time>2022-5-31T1:44:8Z</time></trkpt>
<trkpt lat="43.4754913" lon="6.8956832"><ele></ele><time>2022-5-31T1:44:11Z</time></trkpt>
<trkpt lat="43.4754841" lon="6.8957122"><ele></ele><time>2022-5-31T1:44:14Z</time></trkpt>
<trkpt lat="43.4754800" lon="6.8957365"><ele></ele><time>2022-5-31T1:44:17Z</time></trkpt>
<trkpt lat="43.4754743" lon="6.8957559"><ele></ele><time>2022-5-31T1:44:20Z</time></trkpt>
<trkpt lat="43.4754691" lon="6.8957732"><ele></ele><time>2022-5-31T1:44:23Z</time></trkpt>
<trkpt lat="43.4754644" lon="6.8957932"><ele></ele><time>2022-5-31T1:44:26Z</time></trkpt>
<trkpt lat="43.4754565" lon="6.8958182"><ele></ele><time>2022-5-31T1:44:29Z</time></trkpt>
<trkpt lat="43.4754487" lon="6.8958424"><ele></ele><time>2022-5-31T1:44:32Z</time></trkpt>
<trkpt lat="43.4754411" lon="6.8958659"><ele></ele><time>2022-5-31T1:44:35Z</time></trkpt>
<trkpt lat="43.4754328" lon="6.8958844"><ele></ele><time>2022-5-31T1:44:38Z</time></trkpt>
<trkpt lat="43.4754240" lon="6.8959044"><ele></ele><time>2022-5-31T1:44:41Z</time></trkpt>
<trkpt lat="43.4754126" lon="6.8959300"><ele></ele><time>2022-5-31T1:44:44Z</time></trkpt>
<trkpt lat="43.4754016" lon="6.8959544"><ele></ele><time>2022-5-31T1:44:47Z</time></trkpt>
<trkpt lat="43.4753891" lon="6.8959803"><ele></ele><time>2022-5-31T1:44:50Z</time></trkpt>
<trkpt lat="43.4753769" lon="6.8960090"><ele></ele><time>2022-5-31T1:44:53Z</time></trkpt>
<trkpt lat="43.4753655" lon="6.8960353"><ele></ele><time>2022-5-31T1:44:56Z</time></trkpt>
<trkpt lat="43.4753585" lon="6.8960522"><ele></ele><time>2022-5-31T1:44:59Z</time></trkpt>
<trkpt lat="43.4753507" lon="6.8960664"><ele></ele><time>2022-5-31T1:45:2Z</time></trkpt>
<trkpt lat="43.4753394" lon="6.8960883"><ele></ele><time>2022-5-31T1:45:5Z</time></trkpt>
<trkpt lat="43.4753270" lon="6.8961070"><ele></ele><time>2022-5-31T1:45:8Z</time></trkpt>
<trkpt lat="43.4753132" lon="6.8961233"><ele></ele><time>2022-5-31T1:45:11Z</time></trkpt>
<trkpt lat="43.4752999" lon="6.8961465"><ele></ele><time>2022-5-31T1:45:14Z</time></trkpt>
<trkpt lat="43.4752873" lon="6.8961734"><ele></ele><time>2022-5-31T1:45:17Z</time></trkpt>
<trkpt lat="43.4752840" lon="6.8961880"><ele></ele><time>2022-5-31T1:45:20Z</time></trkpt>
<trkpt lat="43.4752733" lon="6.8962093"><ele></ele><time>2022-5-31T1:45:23Z</time></trkpt>
<trkpt lat="43.4752600" lon="6.8962305"><ele></ele><time>2022-5-31T1:45:26Z</time></trkpt>
<trkpt lat="43.4752501" lon="6.8962502"><ele></ele><time>2022-5-31T1:45:29Z</time></trkpt>
<trkpt lat="43.4752452" lon="6.8962669"><ele></ele><time>2022-5-31T1:45:32Z</time></trkpt>
<trkpt lat="43.4752353" lon="6.8962921"><ele></ele><time>2022-5-31T1:45:35Z</time></trkpt>
<trkpt lat="43.4752240" lon="6.8963193"><ele></ele><time>2022-5-31T1:45:38Z</time></trkpt>
<trkpt lat="43.4752158" lon="6.8963387"><ele></ele><time>2022-5-31T1:45:41Z</time></trkpt>
<trkpt lat="43.4752119" lon="6.8963472"><ele></ele><time>2022-5-31T1:45:44Z</time></trkpt>
<trkpt lat="43.4752015" lon="6.8963681"><ele></ele><time>2022-5-31T1:45:47Z</time></trkpt>
<trkpt lat="43.4751889" lon="6.8963889"><ele></ele><time>2022-5-31T1:45:50Z</time></trkpt>
<trkpt lat="43.4751771" lon="6.8964072"><ele></ele><time>2022-5-31T1:45:53Z</time></trkpt>
<trkpt lat="43.4751659" lon="6.8964246"><ele></ele><time>2022-5-31T1:45:56Z</time></trkpt>
<trkpt lat="43.4751617" lon="6.8964338"><ele></ele><time>2022-5-31T1:45:59Z</time></trkpt>
<trkpt lat="43.4751533" lon="6.8964507"><ele></ele><time>2022-5-31T1:46:2Z</time></trkpt>
<trkpt lat="43.4751436" lon="6.8964707"><ele></ele><time>2022-5-31T1:46:5Z</time></trkpt>
<trkpt lat="43.4751341" lon="6.8964896"><ele></ele><time>2022-5-31T1:46:8Z</time></trkpt>
<trkpt lat="43.4751308" lon="6.8965050"><ele></ele><time>2022-5-31T1:46:11Z</time></trkpt>
<trkpt lat="43.4751245" lon="6.8965247"><ele></ele><time>2022-5-31T1:46:14Z</time></trkpt>
<trkpt lat="43.4751155" lon="6.8965386"><ele></ele><time>2022-5-31T1:46:17Z</time></trkpt>
<trkpt lat="43.4751070" lon="6.8965527"><ele></ele><time>2022-5-31T1:46:20Z</time></trkpt>
<trkpt lat="43.4750979" lon="6.8965717"><ele></ele><time>2022-5-31T1:46:23Z</time></trkpt>
<trkpt lat="43.4750951" lon="6.8965768"><ele></ele><time>2022-5-31T1:46:26Z</time></trkpt>
<trkpt lat="43.4750860" lon="6.8965922"><ele></ele><time>2022-5-31T1:46:29Z</time></trkpt>
<trkpt lat="43.4750733" lon="6.8966112"><ele></ele><time>2022-5-31T1:46:32Z</time></trkpt>
<trkpt lat="43.4750623" lon="6.8966304"><ele></ele><time>2022-5-31T1:46:35Z</time></trkpt>
<trkpt lat="43.4750577" lon="6.8966429"><ele></ele><time>2022-5-31T1:46:38Z</time></trkpt>
<trkpt lat="43.4750473" lon="6.8966589"><ele></ele><time>2022-5-31T1:46:41Z</time></trkpt>
<trkpt lat="43.4750385" lon="6.8966764"><ele></ele><time>2022-5-31T1:46:44Z</time></trkpt>
<trkpt lat="43.4750259" lon="6.8966944"><ele></ele><time>2022-5-31T1:46:47Z</time></trkpt>
<trkpt lat="43.4750131" lon="6.8967116"><ele></ele><time>2022-5-31T1:46:50Z</time></trkpt>
<trkpt lat="43.4749959" lon="6.8967320"><ele></ele><time>2022-5-31T1:46:53Z</time></trkpt>
<trkpt lat="43.4749833" lon="6.8967465"><ele></ele><time>2022-5-31T1:46:56Z</time></trkpt>
<trkpt lat="43.4749684" lon="6.8967630"><ele></ele><time>2022-5-31T1:46:59Z</time></trkpt>
<trkpt lat="43.4749563" lon="6.8967757"><ele></ele><time>2022-5-31T1:47:2Z</time></trkpt>
<trkpt lat="43.4749434" lon="6.8967873"><ele></ele><time>2022-5-31T1:47:5Z</time></trkpt>
<trkpt lat="43.4749283" lon="6.8968040"><ele></ele><time>2022-5-31T1:47:8Z</time></trkpt>
<trkpt lat="43.4749152" lon="6.8968151"><ele></ele><time>2022-5-31T1:47:11Z</time></trkpt>
<trkpt lat="43.4749000" lon="6.8968278"><ele></ele><time>2022-5-31T1:47:14Z</time></trkpt>
<trkpt lat="43.4748872" lon="6.8968437"><ele></ele><time>2022-5-31T1:47:17Z</time></trkpt>
<trkpt lat="43.4748723" lon="6.8968610"><ele></ele><time>2022-5-31T1:47:20Z</time></trkpt>
<trkpt lat="43.4748517" lon="6.8968823"><ele></ele><time>2022-5-31T1:47:23Z</time></trkpt>
<trkpt lat="43.4748307" lon="6.8969058"><ele></ele><time>2022-5-31T1:47:26Z</time></trkpt>
<trkpt lat="43.4748096" lon="6.8969319"><ele></ele><time>2022-5-31T1:47:29Z</time></trkpt>
<trkpt lat="43.4747983" lon="6.8969449"><ele></ele><time>2022-5-31T1:47:32Z</time></trkpt>
<trkpt lat="43.4747963" lon="6.8969463"><ele></ele><time>2022-5-31T1:47:35Z</time></trkpt>
<trkpt lat="43.4747988" lon="6.8969459"><ele></ele><time>2022-5-31T1:47:38Z</time></trkpt>
<trkpt lat="43.4747982" lon="6.8969461"><ele></ele><time>2022-5-31T1:47:41Z</time></trkpt>
<trkpt lat="43.4748013" lon="6.8969441"><ele></ele><time>2022-5-31T1:47:44Z</time></trkpt>
<trkpt lat="43.4748018" lon="6.8969436"><ele></ele><time>2022-5-31T1:47:47Z</time></trkpt>
<trkpt lat="43.4748020" lon="6.8969433"><ele></ele><time>2022-5-31T1:47:50Z</time></trkpt>
<trkpt lat="43.4748032" lon="6.8969439"><ele></ele><time>2022-5-31T1:47:53Z</time></trkpt>
<trkpt lat="43.4748059" lon="6.8969408"><ele></ele><time>2022-5-31T1:47:56Z</time></trkpt>
<trkpt lat="43.4748108" lon="6.8969326"><ele></ele><time>2022-5-31T1:47:59Z</time></trkpt>
<trkpt lat="43.4748123" lon="6.8969288"><ele></ele><time>2022-5-31T1:48:2Z</time></trkpt>
<trkpt lat="43.4748135" lon="6.8969267"><ele></ele><time>2022-5-31T1:48:5Z</time></trkpt>
<trkpt lat="43.4748136" lon="6.8969270"><ele></ele><time>2022-5-31T1:48:8Z</time></trkpt>
<trkpt lat="43.4748136" lon="6.8969270"><ele></ele><time>2022-5-31T1:48:11Z</time></trkpt>
<trkpt lat="43.4748139" lon="6.8969271"><ele></ele><time>2022-5-31T1:48:14Z</time></trkpt>
<trkpt lat="43.4748141" lon="6.8969271"><ele></ele><time>2022-5-31T1:48:17Z</time></trkpt>
<trkpt lat="43.4748141" lon="6.8969269"><ele></ele><time>2022-5-31T1:48:20Z</time></trkpt>
<trkpt lat="43.4748142" lon="6.8969274"><ele></ele><time>2022-5-31T1:48:23Z</time></trkpt>
<trkpt lat="43.4748143" lon="6.8969282"><ele></ele><time>2022-5-31T1:48:26Z</time></trkpt>
<trkpt lat="43.4748139" lon="6.8969293"><ele></ele><time>2022-5-31T1:48:29Z</time></trkpt>
<trkpt lat="43.4748137" lon="6.8969302"><ele></ele><time>2022-5-31T1:48:32Z</time></trkpt>
<trkpt lat="43.4748133" lon="6.8969303"><ele></ele><time>2022-5-31T1:48:35Z</time></trkpt>
<trkpt lat="43.4748132" lon="6.8969306"><ele></ele><time>2022-5-31T1:48:38Z</time></trkpt>
<trkpt lat="43.4748130" lon="6.8969316"><ele></ele><time>2022-5-31T1:48:41Z</time></trkpt>
<trkpt lat="43.4748131" lon="6.8969324"><ele></ele><time>2022-5-31T1:48:44Z</time></trkpt>
<trkpt lat="43.4748133" lon="6.8969339"><ele></ele><time>2022-5-31T1:48:47Z</time></trkpt>
<trkpt lat="43.4748136" lon="6.8969344"><ele></ele><time>2022-5-31T1:48:50Z</time></trkpt>
<trkpt lat="43.4748149" lon="6.8969344"><ele></ele><time>2022-5-31T1:48:53Z</time></trkpt>
<trkpt lat="43.4748170" lon="6.8969346"><ele></ele><time>2022-5-31T1:48:56Z</time></trkpt>
<trkpt lat="43.4748225" lon="6.8969301"><ele></ele><time>2022-5-31T1:48:59Z</time></trkpt>
<trkpt lat="43.4748344" lon="6.8969252"><ele></ele><time>2022-5-31T1:49:2Z</time></trkpt>
<trkpt lat="43.4748507" lon="6.8969194"><ele></ele><time>2022-5-31T1:49:5Z</time></trkpt>
<trkpt lat="43.4748640" lon="6.8969144"><ele></ele><time>2022-5-31T1:49:8Z</time></trkpt>
<trkpt lat="43.4748758" lon="6.8969140"><ele></ele><time>2022-5-31T1:49:11Z</time></trkpt>
<trkpt lat="43.4748835" lon="6.8969178"><ele></ele><time>2022-5-31T1:49:14Z</time></trkpt>
<trkpt lat="43.4748862" lon="6.8969232"><ele></ele><time>2022-5-31T1:49:17Z</time></trkpt>
<trkpt lat="43.4748876" lon="6.8969254"><ele></ele><time>2022-5-31T1:49:20Z</time></trkpt>
<trkpt lat="43.4748930" lon="6.8969249"><ele></ele><time>2022-5-31T1:49:23Z</time></trkpt>
<trkpt lat="43.4748939" lon="6.8969259"><ele></ele><time>2022-5-31T1:49:26Z</time></trkpt>
<trkpt lat="43.4748946" lon="6.8969255"><ele></ele><time>2022-5-31T1:49:29Z</time></trkpt>
<trkpt lat="43.4748957" lon="6.8969250"><ele></ele><time>2022-5-31T1:49:32Z</time></trkpt>
<trkpt lat="43.4748959" lon="6.8969240"><ele></ele><time>2022-5-31T1:49:35Z</time></trkpt>
<trkpt lat="43.4748966" lon="6.8969239"><ele></ele><time>2022-5-31T1:49:38Z</time></trkpt>
<trkpt lat="43.4748973" lon="6.8969229"><ele></ele><time>2022-5-31T1:49:41Z</time></trkpt>
<trkpt lat="43.4748984" lon="6.8969217"><ele></ele><time>2022-5-31T1:49:44Z</time></trkpt>
<trkpt lat="43.4748984" lon="6.8969213"><ele></ele><time>2022-5-31T1:49:47Z</time></trkpt>
<trkpt lat="43.4748996" lon="6.8969200"><ele></ele><time>2022-5-31T1:49:50Z</time></trkpt>
<trkpt lat="43.4749006" lon="6.8969193"><ele></ele><time>2022-5-31T1:49:53Z</time></trkpt>
<trkpt lat="43.4749019" lon="6.8969191"><ele></ele><time>2022-5-31T1:49:56Z</time></trkpt>
<trkpt lat="43.4749077" lon="6.8969163"><ele></ele><time>2022-5-31T1:49:59Z</time></trkpt>
<trkpt lat="43.4749250" lon="6.8969143"><ele></ele><time>2022-5-31T1:50:2Z</time></trkpt>
<trkpt lat="43.4749560" lon="6.8969010"><ele></ele><time>2022-5-31T1:50:5Z</time></trkpt>
<trkpt lat="43.4749798" lon="6.8968923"><ele></ele><time>2022-5-31T1:50:8Z</time></trkpt>
<trkpt lat="43.4750002" lon="6.8968891"><ele></ele><time>2022-5-31T1:50:11Z</time></trkpt>
<trkpt lat="43.4750255" lon="6.8968856"><ele></ele><time>2022-5-31T1:50:14Z</time></trkpt>
<trkpt lat="43.4750504" lon="6.8968832"><ele></ele><time>2022-5-31T1:50:17Z</time></trkpt>
<trkpt lat="43.4750832" lon="6.8968818"><ele></ele><time>2022-5-31T1:50:20Z</time></trkpt>
<trkpt lat="43.4751031" lon="6.8968805"><ele></ele><time>2022-5-31T1:50:23Z</time></trkpt>
<trkpt lat="43.4751188" lon="6.8968839"><ele></ele><time>2022-5-31T1:50:26Z</time></trkpt>
<trkpt lat="43.4751341" lon="6.8968835"><ele></ele><time>2022-5-31T1:50:29Z</time></trkpt>
<trkpt lat="43.4751473" lon="6.8968800"><ele></ele><time>2022-5-31T1:50:32Z</time></trkpt>
<trkpt lat="43.4751618" lon="6.8968791"><ele></ele><time>2022-5-31T1:50:35Z</time></trkpt>
<trkpt lat="43.4751778" lon="6.8968778"><ele></ele><time>2022-5-31T1:50:38Z</time></trkpt>
<trkpt lat="43.4751926" lon="6.8968699"><ele></ele><time>2022-5-31T1:50:41Z</time></trkpt>
<trkpt lat="43.4752046" lon="6.8968660"><ele></ele><time>2022-5-31T1:50:44Z</time></trkpt>
<trkpt lat="43.4752209" lon="6.8968592"><ele></ele><time>2022-5-31T1:50:47Z</time></trkpt>
<trkpt lat="43.4752356" lon="6.8968545"><ele></ele><time>2022-5-31T1:50:50Z</time></trkpt>
<trkpt lat="43.4752499" lon="6.8968496"><ele></ele><time>2022-5-31T1:50:53Z</time></trkpt>
<trkpt lat="43.4752637" lon="6.8968483"><ele></ele><time>2022-5-31T1:50:56Z</time></trkpt>
<trkpt lat="43.4752791" lon="6.8968480"><ele></ele><time>2022-5-31T1:50:59Z</time></trkpt>
<trkpt lat="43.4752946" lon="6.8968490"><ele></ele><time>2022-5-31T1:51:2Z</time></trkpt>
<trkpt lat="43.4753133" lon="6.8968475"><ele></ele><time>2022-5-31T1:51:5Z</time></trkpt>
<trkpt lat="43.4753299" lon="6.8968465"><ele></ele><time>2022-5-31T1:51:8Z</time></trkpt>
<trkpt lat="43.4753422" lon="6.8968478"><ele></ele><time>2022-5-31T1:51:11Z</time></trkpt>
<trkpt lat="43.4753566" lon="6.8968414"><ele></ele><time>2022-5-31T1:51:14Z</time></trkpt>
<trkpt lat="43.4753688" lon="6.8968310"><ele></ele><time>2022-5-31T1:51:17Z</time></trkpt>
<trkpt lat="43.4753853" lon="6.8968139"><ele></ele><time>2022-5-31T1:51:20Z</time></trkpt>
<trkpt lat="43.4753999" lon="6.8968000"><ele></ele><time>2022-5-31T1:51:23Z</time></trkpt>
<trkpt lat="43.4754149" lon="6.8967820"><ele></ele><time>2022-5-31T1:51:26Z</time></trkpt>
<trkpt lat="43.4754296" lon="6.8967657"><ele></ele><time>2022-5-31T1:51:29Z</time></trkpt>
<trkpt lat="43.4754440" lon="6.8967486"><ele></ele><time>2022-5-31T1:51:32Z</time></trkpt>
<trkpt lat="43.4754630" lon="6.8967325"><ele></ele><time>2022-5-31T1:51:35Z</time></trkpt>
<trkpt lat="43.4754751" lon="6.8967256"><ele></ele><time>2022-5-31T1:51:38Z</time></trkpt>
<trkpt lat="43.4754887" lon="6.8967177"><ele></ele><time>2022-5-31T1:51:41Z</time></trkpt>
<trkpt lat="43.4755029" lon="6.8967078"><ele></ele><time>2022-5-31T1:51:44Z</time></trkpt>
<trkpt lat="43.4755114" lon="6.8967028"><ele></ele><time>2022-5-31T1:51:47Z</time></trkpt>
<trkpt lat="43.4755195" lon="6.8966978"><ele></ele><time>2022-5-31T1:51:50Z</time></trkpt>
<trkpt lat="43.4755303" lon="6.8966852"><ele></ele><time>2022-5-31T1:51:53Z</time></trkpt>
<trkpt lat="43.4755475" lon="6.8966666"><ele></ele><time>2022-5-31T1:51:56Z</time></trkpt>
<trkpt lat="43.4755601" lon="6.8966546"><ele></ele><time>2022-5-31T1:51:59Z</time></trkpt>
<trkpt lat="43.4755751" lon="6.8966506"><ele></ele><time>2022-5-31T1:52:2Z</time></trkpt>
<trkpt lat="43.4755875" lon="6.8966410"><ele></ele><time>2022-5-31T1:52:5Z</time></trkpt>
<trkpt lat="43.4755924" lon="6.8966375"><ele></ele><time>2022-5-31T1:52:8Z</time></trkpt>
<trkpt lat="43.4755947" lon="6.8966354"><ele></ele><time>2022-5-31T1:52:11Z</time></trkpt>
<trkpt lat="43.4755937" lon="6.8966355"><ele></ele><time>2022-5-31T1:52:14Z</time></trkpt>
<trkpt lat="43.4755941" lon="6.8966356"><ele></ele><time>2022-5-31T1:52:17Z</time></trkpt>
<trkpt lat="43.4755944" lon="6.8966357"><ele></ele><time>2022-5-31T1:52:20Z</time></trkpt>
<trkpt lat="43.4755947" lon="6.8966361"><ele></ele><time>2022-5-31T1:52:23Z</time></trkpt>
<trkpt lat="43.4755951" lon="6.8966362"><ele></ele><time>2022-5-31T1:52:26Z</time></trkpt>
<trkpt lat="43.4755955" lon="6.8966363"><ele></ele><time>2022-5-31T1:52:29Z</time></trkpt>
<trkpt lat="43.4755957" lon="6.8966365"><ele></ele><time>2022-5-31T1:52:32Z</time></trkpt>
<trkpt lat="43.4755957" lon="6.8966365"><ele></ele><time>2022-5-31T1:52:35Z</time></trkpt>
<trkpt lat="43.4755954" lon="6.8966366"><ele></ele><time>2022-5-31T1:52:38Z</time></trkpt>
<trkpt lat="43.4755998" lon="6.8966344"><ele></ele><time>2022-5-31T1:52:41Z</time></trkpt>
<trkpt lat="43.4756074" lon="6.8966286"><ele></ele><time>2022-5-31T1:52:44Z</time></trkpt>
<trkpt lat="43.4756089" lon="6.8966301"><ele></ele><time>2022-5-31T1:52:47Z</time></trkpt>
<trkpt lat="43.4756073" lon="6.8966316"><ele></ele><time>2022-5-31T1:52:50Z</time></trkpt>
<trkpt lat="43.4756082" lon="6.8966319"><ele></ele><time>2022-5-31T1:52:53Z</time></trkpt>
<trkpt lat="43.4756105" lon="6.8966318"><ele></ele><time>2022-5-31T1:52:56Z</time></trkpt>
<trkpt lat="43.4756115" lon="6.8966337"><ele></ele><time>2022-5-31T1:52:59Z</time></trkpt>
<trkpt lat="43.4756200" lon="6.8966256"><ele></ele><time>2022-5-31T1:53:2Z</time></trkpt>
<trkpt lat="43.4756245" lon="6.8966048"><ele></ele><time>2022-5-31T1:53:5Z</time></trkpt>
<trkpt lat="43.4756251" lon="6.8966035"><ele></ele><time>2022-5-31T1:53:8Z</time></trkpt>
<trkpt lat="43.4756315" lon="6.8965896"><ele></ele><time>2022-5-31T1:53:11Z</time></trkpt>
<trkpt lat="43.4756409" lon="6.8965766"><ele></ele><time>2022-5-31T1:53:14Z</time></trkpt>
<trkpt lat="43.4756551" lon="6.8965578"><ele></ele><time>2022-5-31T1:53:17Z</time></trkpt>
<trkpt lat="43.4756690" lon="6.8965386"><ele></ele><time>2022-5-31T1:53:20Z</time></trkpt>
<trkpt lat="43.4756806" lon="6.8965283"><ele></ele><time>2022-5-31T1:53:23Z</time></trkpt>
<trkpt lat="43.4756926" lon="6.8965126"><ele></ele><time>2022-5-31T1:53:26Z</time></trkpt>
<trkpt lat="43.4757076" lon="6.8964982"><ele></ele><time>2022-5-31T1:53:29Z</time></trkpt>
<trkpt lat="43.4757229" lon="6.8964881"><ele></ele><time>2022-5-31T1:53:32Z</time></trkpt>
<trkpt lat="43.4757376" lon="6.8964781"><ele></ele><time>2022-5-31T1:53:35Z</time></trkpt>
<trkpt lat="43.4757527" lon="6.8964731"><ele></ele><time>2022-5-31T1:53:38Z</time></trkpt>
<trkpt lat="43.4757662" lon="6.8964697"><ele></ele><time>2022-5-31T1:53:41Z</time></trkpt>
<trkpt lat="43.4757777" lon="6.8964694"><ele></ele><time>2022-5-31T1:53:44Z</time></trkpt>
<trkpt lat="43.4757959" lon="6.8964656"><ele></ele><time>2022-5-31T1:53:47Z</time></trkpt>
<trkpt lat="43.4758188" lon="6.8964594"><ele></ele><time>2022-5-31T1:53:50Z</time></trkpt>
<trkpt lat="43.4758409" lon="6.8964549"><ele></ele><time>2022-5-31T1:53:53Z</time></trkpt>
<trkpt lat="43.4758641" lon="6.8964519"><ele></ele><time>2022-5-31T1:53:56Z</time></trkpt>
<trkpt lat="43.4758864" lon="6.8964506"><ele></ele><time>2022-5-31T1:53:59Z</time></trkpt>
<trkpt lat="43.4758995" lon="6.8964466"><ele></ele><time>2022-5-31T1:54:2Z</time></trkpt>
<trkpt lat="43.4759139" lon="6.8964397"><ele></ele><time>2022-5-31T1:54:5Z</time></trkpt>
<trkpt lat="43.4759288" lon="6.8964288"><ele></ele><time>2022-5-31T1:54:8Z</time></trkpt>
<trkpt lat="43.4759377" lon="6.8964251"><ele></ele><time>2022-5-31T1:54:11Z</time></trkpt>
<trkpt lat="43.4759403" lon="6.8964266"><ele></ele><time>2022-5-31T1:54:14Z</time></trkpt>
<trkpt lat="43.4759474" lon="6.8964185"><ele></ele><time>2022-5-31T1:54:17Z</time></trkpt>
<trkpt lat="43.4759492" lon="6.8964162"><ele></ele><time>2022-5-31T1:54:20Z</time></trkpt>
<trkpt lat="43.4759542" lon="6.8964101"><ele></ele><time>2022-5-31T1:54:23Z</time></trkpt>
<trkpt lat="43.4759590" lon="6.8964048"><ele></ele><time>2022-5-31T1:54:26Z</time></trkpt>
<trkpt lat="43.4759656" lon="6.8963975"><ele></ele><time>2022-5-31T1:54:29Z</time></trkpt>
<trkpt lat="43.4759671" lon="6.8963969"><ele></ele><time>2022-5-31T1:54:32Z</time></trkpt>
<trkpt lat="43.4759679" lon="6.8963965"><ele></ele><time>2022-5-31T1:54:35Z</time></trkpt>
<trkpt lat="43.4759684" lon="6.8963967"><ele></ele><time>2022-5-31T1:54:38Z</time></trkpt>
<trkpt lat="43.4759700" lon="6.8963957"><ele></ele><time>2022-5-31T1:54:41Z</time></trkpt>
<trkpt lat="43.4759704" lon="6.8963956"><ele></ele><time>2022-5-31T1:54:44Z</time></trkpt>
<trkpt lat="43.4759714" lon="6.8963960"><ele></ele><time>2022-5-31T1:54:47Z</time></trkpt>
<trkpt lat="43.4759721" lon="6.8963964"><ele></ele><time>2022-5-31T1:54:50Z</time></trkpt>
<trkpt lat="43.4759728" lon="6.8963963"><ele></ele><time>2022-5-31T1:54:53Z</time></trkpt>
<trkpt lat="43.4759744" lon="6.8963960"><ele></ele><time>2022-5-31T1:54:56Z</time></trkpt>
<trkpt lat="43.4759750" lon="6.8963963"><ele></ele><time>2022-5-31T1:54:59Z</time></trkpt>
<trkpt lat="43.4759764" lon="6.8963960"><ele></ele><time>2022-5-31T1:55:2Z</time></trkpt>
<trkpt lat="43.4759769" lon="6.8963959"><ele></ele><time>2022-5-31T1:55:5Z</time></trkpt>
<trkpt lat="43.4759779" lon="6.8963960"><ele></ele><time>2022-5-31T1:55:8Z</time></trkpt>
<trkpt lat="43.4759783" lon="6.8963961"><ele></ele><time>2022-5-31T1:55:11Z</time></trkpt>
<trkpt lat="43.4759787" lon="6.8963961"><ele></ele><time>2022-5-31T1:55:14Z</time></trkpt>
<trkpt lat="43.4759790" lon="6.8963962"><ele></ele><time>2022-5-31T1:55:17Z</time></trkpt>
<trkpt lat="43.4759793" lon="6.8963965"><ele></ele><time>2022-5-31T1:55:20Z</time></trkpt>
<trkpt lat="43.4759794" lon="6.8963969"><ele></ele><time>2022-5-31T1:55:23Z</time></trkpt>
<trkpt lat="43.4759799" lon="6.8963970"><ele></ele><time>2022-5-31T1:55:26Z</time></trkpt>
<trkpt lat="43.4759805" lon="6.8963971"><ele></ele><time>2022-5-31T1:55:29Z</time></trkpt>
<trkpt lat="43.4759810" lon="6.8963980"><ele></ele><time>2022-5-31T1:55:32Z</time></trkpt>
<trkpt lat="43.4759815" lon="6.8963980"><ele></ele><time>2022-5-31T1:55:35Z</time></trkpt>
<trkpt lat="43.4759819" lon="6.8963981"><ele></ele><time>2022-5-31T1:55:38Z</time></trkpt>
<trkpt lat="43.4759824" lon="6.8963983"><ele></ele><time>2022-5-31T1:55:41Z</time></trkpt>
<trkpt lat="43.4759823" lon="6.8963987"><ele></ele><time>2022-5-31T1:55:44Z</time></trkpt>
<trkpt lat="43.4759825" lon="6.8963990"><ele></ele><time>2022-5-31T1:55:47Z</time></trkpt>
<trkpt lat="43.4759825" lon="6.8963992"><ele></ele><time>2022-5-31T1:55:50Z</time></trkpt>
<trkpt lat="43.4759834" lon="6.8963990"><ele></ele><time>2022-5-31T1:55:53Z</time></trkpt>
<trkpt lat="43.4759838" lon="6.8963989"><ele></ele><time>2022-5-31T1:55:56Z</time></trkpt>
<trkpt lat="43.4759842" lon="6.8963991"><ele></ele><time>2022-5-31T1:55:59Z</time></trkpt>
<trkpt lat="43.4759850" lon="6.8963991"><ele></ele><time>2022-5-31T1:56:2Z</time></trkpt>
<trkpt lat="43.4759855" lon="6.8963991"><ele></ele><time>2022-5-31T1:56:5Z</time></trkpt>
<trkpt lat="43.4759861" lon="6.8963994"><ele></ele><time>2022-5-31T1:56:8Z</time></trkpt>
<trkpt lat="43.4759864" lon="6.8963993"><ele></ele><time>2022-5-31T1:56:11Z</time></trkpt>
<trkpt lat="43.4759869" lon="6.8963993"><ele></ele><time>2022-5-31T1:56:14Z</time></trkpt>
<trkpt lat="43.4759876" lon="6.8963992"><ele></ele><time>2022-5-31T1:56:17Z</time></trkpt>
<trkpt lat="43.4759882" lon="6.8963992"><ele></ele><time>2022-5-31T1:56:20Z</time></trkpt>
<trkpt lat="43.4759889" lon="6.8963992"><ele></ele><time>2022-5-31T1:56:23Z</time></trkpt>
<trkpt lat="43.4759893" lon="6.8963991"><ele></ele><time>2022-5-31T1:56:26Z</time></trkpt>
<trkpt lat="43.4759900" lon="6.8963991"><ele></ele><time>2022-5-31T1:56:29Z</time></trkpt>
<trkpt lat="43.4759903" lon="6.8963993"><ele></ele><time>2022-5-31T1:56:32Z</time></trkpt>
<trkpt lat="43.4759911" lon="6.8963991"><ele></ele><time>2022-5-31T1:56:35Z</time></trkpt>
<trkpt lat="43.4759917" lon="6.8963988"><ele></ele><time>2022-5-31T1:56:38Z</time></trkpt>
<trkpt lat="43.4759919" lon="6.8963991"><ele></ele><time>2022-5-31T1:56:41Z</time></trkpt>
<trkpt lat="43.4759923" lon="6.8963996"><ele></ele><time>2022-5-31T1:56:44Z</time></trkpt>
<trkpt lat="43.4759930" lon="6.8963997"><ele></ele><time>2022-5-31T1:56:47Z</time></trkpt>
<trkpt lat="43.4759934" lon="6.8963998"><ele></ele><time>2022-5-31T1:56:50Z</time></trkpt>
<trkpt lat="43.4759940" lon="6.8964001"><ele></ele><time>2022-5-31T1:56:53Z</time></trkpt>
<trkpt lat="43.4759945" lon="6.8963997"><ele></ele><time>2022-5-31T1:56:56Z</time></trkpt>
<trkpt lat="43.4759949" lon="6.8963992"><ele></ele><time>2022-5-31T1:56:59Z</time></trkpt>
<trkpt lat="43.4759954" lon="6.8963991"><ele></ele><time>2022-5-31T1:57:2Z</time></trkpt>
<trkpt lat="43.4759959" lon="6.8963990"><ele></ele><time>2022-5-31T1:57:5Z</time></trkpt>
<trkpt lat="43.4759965" lon="6.8963989"><ele></ele><time>2022-5-31T1:57:8Z</time></trkpt>
<trkpt lat="43.4759974" lon="6.8963989"><ele></ele><time>2022-5-31T1:57:11Z</time></trkpt>
<trkpt lat="43.4759980" lon="6.8963991"><ele></ele><time>2022-5-31T1:57:14Z</time></trkpt>
<trkpt lat="43.4759986" lon="6.8963991"><ele></ele><time>2022-5-31T1:57:17Z</time></trkpt>
<trkpt lat="43.4759993" lon="6.8963991"><ele></ele><time>2022-5-31T1:57:20Z</time></trkpt>
<trkpt lat="43.4759998" lon="6.8963991"><ele></ele><time>2022-5-31T1:57:23Z</time></trkpt>
<trkpt lat="43.4760004" lon="6.8963991"><ele></ele><time>2022-5-31T1:57:26Z</time></trkpt>
<trkpt lat="43.4760014" lon="6.8963991"><ele></ele><time>2022-5-31T1:57:29Z</time></trkpt>
<trkpt lat="43.4760022" lon="6.8963992"><ele></ele><time>2022-5-31T1:57:32Z</time></trkpt>
<trkpt lat="43.4760030" lon="6.8963992"><ele></ele><time>2022-5-31T1:57:35Z</time></trkpt>
<trkpt lat="43.4760036" lon="6.8963992"><ele></ele><time>2022-5-31T1:57:38Z</time></trkpt>
<trkpt lat="43.4760040" lon="6.8963993"><ele></ele><time>2022-5-31T1:57:41Z</time></trkpt>
<trkpt lat="43.4760046" lon="6.8963991"><ele></ele><time>2022-5-31T1:57:44Z</time></trkpt>
<trkpt lat="43.4760053" lon="6.8963991"><ele></ele><time>2022-5-31T1:57:47Z</time></trkpt>
<trkpt lat="43.4760059" lon="6.8963990"><ele></ele><time>2022-5-31T1:57:50Z</time></trkpt>
<trkpt lat="43.4760065" lon="6.8963988"><ele></ele><time>2022-5-31T1:57:53Z</time></trkpt>
<trkpt lat="43.4760071" lon="6.8963986"><ele></ele><time>2022-5-31T1:57:56Z</time></trkpt>
<trkpt lat="43.4760078" lon="6.8963983"><ele></ele><time>2022-5-31T1:57:59Z</time></trkpt>
<trkpt lat="43.4760082" lon="6.8963980"><ele></ele><time>2022-5-31T1:58:2Z</time></trkpt>
<trkpt lat="43.4760088" lon="6.8963977"><ele></ele><time>2022-5-31T1:58:5Z</time></trkpt>
<trkpt lat="43.4760094" lon="6.8963974"><ele></ele><time>2022-5-31T1:58:8Z</time></trkpt>
<trkpt lat="43.4760100" lon="6.8963970"><ele></ele><time>2022-5-31T1:58:11Z</time></trkpt>
<trkpt lat="43.4760105" lon="6.8963966"><ele></ele><time>2022-5-31T1:58:14Z</time></trkpt>
<trkpt lat="43.4760110" lon="6.8963963"><ele></ele><time>2022-5-31T1:58:17Z</time></trkpt>
<trkpt lat="43.4760115" lon="6.8963962"><ele></ele><time>2022-5-31T1:58:20Z</time></trkpt>
<trkpt lat="43.4760121" lon="6.8963960"><ele></ele><time>2022-5-31T1:58:23Z</time></trkpt>
<trkpt lat="43.4760124" lon="6.8963959"><ele></ele><time>2022-5-31T1:58:26Z</time></trkpt>
<trkpt lat="43.4760128" lon="6.8963958"><ele></ele><time>2022-5-31T1:58:29Z</time></trkpt>
<trkpt lat="43.4760132" lon="6.8963958"><ele></ele><time>2022-5-31T1:58:32Z</time></trkpt>
<trkpt lat="43.4760134" lon="6.8963959"><ele></ele><time>2022-5-31T1:58:35Z</time></trkpt>
<trkpt lat="43.4760140" lon="6.8963958"><ele></ele><time>2022-5-31T1:58:38Z</time></trkpt>
<trkpt lat="43.4760146" lon="6.8963958"><ele></ele><time>2022-5-31T1:58:41Z</time></trkpt>
<trkpt lat="43.4760148" lon="6.8963958"><ele></ele><time>2022-5-31T1:58:44Z</time></trkpt>
<trkpt lat="43.4760176" lon="6.8963965"><ele></ele><time>2022-5-31T1:58:47Z</time></trkpt>
<trkpt lat="43.4760185" lon="6.8963963"><ele></ele><time>2022-5-31T1:58:50Z</time></trkpt>
<trkpt lat="43.4760192" lon="6.8963963"><ele></ele><time>2022-5-31T1:58:53Z</time></trkpt>
<trkpt lat="43.4760197" lon="6.8963964"><ele></ele><time>2022-5-31T1:58:56Z</time></trkpt>
<trkpt lat="43.4760204" lon="6.8963964"><ele></ele><time>2022-5-31T1:58:59Z</time></trkpt>
<trkpt lat="43.4760212" lon="6.8963961"><ele></ele><time>2022-5-31T1:59:2Z</time></trkpt>
<trkpt lat="43.4760226" lon="6.8963963"><ele></ele><time>2022-5-31T1:59:5Z</time></trkpt>
<trkpt lat="43.4760266" lon="6.8963944"><ele></ele><time>2022-5-31T1:59:8Z</time></trkpt>
<trkpt lat="43.4760341" lon="6.8963842"><ele></ele><time>2022-5-31T1:59:11Z</time></trkpt>
<trkpt lat="43.4760473" lon="6.8963680"><ele></ele><time>2022-5-31T1:59:14Z</time></trkpt>
<trkpt lat="43.4760607" lon="6.8963520"><ele></ele><time>2022-5-31T1:59:17Z</time></trkpt>
<trkpt lat="43.4760790" lon="6.8963351"><ele></ele><time>2022-5-31T1:59:20Z</time></trkpt>
<trkpt lat="43.4760934" lon="6.8963224"><ele></ele><time>2022-5-31T1:59:23Z</time></trkpt>
<trkpt lat="43.4761085" lon="6.8963067"><ele></ele><time>2022-5-31T1:59:26Z</time></trkpt>
<trkpt lat="43.4761214" lon="6.8962950"><ele></ele><time>2022-5-31T1:59:29Z</time></trkpt>
<trkpt lat="43.4761334" lon="6.8962860"><ele></ele><time>2022-5-31T1:59:32Z</time></trkpt>
<trkpt lat="43.4761475" lon="6.8962790"><ele></ele><time>2022-5-31T1:59:35Z</time></trkpt>
<trkpt lat="43.4761736" lon="6.8962799"><ele></ele><time>2022-5-31T1:59:38Z</time></trkpt>
<trkpt lat="43.4762006" lon="6.8962910"><ele></ele><time>2022-5-31T1:59:41Z</time></trkpt>
<trkpt lat="43.4762208" lon="6.8963078"><ele></ele><time>2022-5-31T1:59:44Z</time></trkpt>
<trkpt lat="43.4762338" lon="6.8963241"><ele></ele><time>2022-5-31T1:59:47Z</time></trkpt>
<trkpt lat="43.4762411" lon="6.8963413"><ele></ele><time>2022-5-31T1:59:50Z</time></trkpt>
<trkpt lat="43.4762444" lon="6.8963568"><ele></ele><time>2022-5-31T1:59:53Z</time></trkpt>
<trkpt lat="43.4762481" lon="6.8963667"><ele></ele><time>2022-5-31T1:59:56Z</time></trkpt>
<trkpt lat="43.4762472" lon="6.8963871"><ele></ele><time>2022-5-31T1:59:59Z</time></trkpt>
<trkpt lat="43.4762413" lon="6.8964141"><ele></ele><time>2022-5-31T2:0:2Z</time></trkpt>
<trkpt lat="43.4762319" lon="6.8964476"><ele></ele><time>2022-5-31T2:0:5Z</time></trkpt>
<trkpt lat="43.4762252" lon="6.8964857"><ele></ele><time>2022-5-31T2:0:8Z</time></trkpt>
<trkpt lat="43.4762249" lon="6.8965186"><ele></ele><time>2022-5-31T2:0:11Z</time></trkpt>
<trkpt lat="43.4762319" lon="6.8965498"><ele></ele><time>2022-5-31T2:0:14Z</time></trkpt>
<trkpt lat="43.4762385" lon="6.8965859"><ele></ele><time>2022-5-31T2:0:17Z</time></trkpt>
<trkpt lat="43.4762429" lon="6.8966190"><ele></ele><time>2022-5-31T2:0:20Z</time></trkpt>
<trkpt lat="43.4762503" lon="6.8966451"><ele></ele><time>2022-5-31T2:0:23Z</time></trkpt>
<trkpt lat="43.4762575" lon="6.8966705"><ele></ele><time>2022-5-31T2:0:26Z</time></trkpt>
<trkpt lat="43.4762646" lon="6.8966926"><ele></ele><time>2022-5-31T2:0:29Z</time></trkpt>
<trkpt lat="43.4762670" lon="6.8967160"><ele></ele><time>2022-5-31T2:0:32Z</time></trkpt>
<trkpt lat="43.4762701" lon="6.8967365"><ele></ele><time>2022-5-31T2:0:35Z</time></trkpt>
<trkpt lat="43.4762707" lon="6.8967507"><ele></ele><time>2022-5-31T2:0:38Z</time></trkpt>
<trkpt lat="43.4762722" lon="6.8967528"><ele></ele><time>2022-5-31T2:0:41Z</time></trkpt>
<trkpt lat="43.4762715" lon="6.8967503"><ele></ele><time>2022-5-31T2:0:44Z</time></trkpt>
<trkpt lat="43.4762743" lon="6.8967691"><ele></ele><time>2022-5-31T2:0:47Z</time></trkpt>
<trkpt lat="43.4762740" lon="6.8967693"><ele></ele><time>2022-5-31T2:0:50Z</time></trkpt>
<trkpt lat="43.4762731" lon="6.8967696"><ele></ele><time>2022-5-31T2:0:53Z</time></trkpt>
<trkpt lat="43.4762704" lon="6.8967785"><ele></ele><time>2022-5-31T2:0:56Z</time></trkpt>
<trkpt lat="43.4762663" lon="6.8968048"><ele></ele><time>2022-5-31T2:0:59Z</time></trkpt>
<trkpt lat="43.4762623" lon="6.8968260"><ele></ele><time>2022-5-31T2:1:2Z</time></trkpt>
<trkpt lat="43.4762580" lon="6.8968465"><ele></ele><time>2022-5-31T2:1:5Z</time></trkpt>
<trkpt lat="43.4762529" lon="6.8968735"><ele></ele><time>2022-5-31T2:1:8Z</time></trkpt>
<trkpt lat="43.4762536" lon="6.8969064"><ele></ele><time>2022-5-31T2:1:11Z</time></trkpt>
<trkpt lat="43.4762586" lon="6.8969369"><ele></ele><time>2022-5-31T2:1:14Z</time></trkpt>
<trkpt lat="43.4762606" lon="6.8969711"><ele></ele><time>2022-5-31T2:1:17Z</time></trkpt>
<trkpt lat="43.4762617" lon="6.8969990"><ele></ele><time>2022-5-31T2:1:20Z</time></trkpt>
<trkpt lat="43.4762657" lon="6.8970272"><ele></ele><time>2022-5-31T2:1:23Z</time></trkpt>
<trkpt lat="43.4762678" lon="6.8970521"><ele></ele><time>2022-5-31T2:1:26Z</time></trkpt>
<trkpt lat="43.4762635" lon="6.8970800"><ele></ele><time>2022-5-31T2:1:29Z</time></trkpt>
<trkpt lat="43.4762484" lon="6.8971093"><ele></ele><time>2022-5-31T2:1:32Z</time></trkpt>
<trkpt lat="43.4762325" lon="6.8971479"><ele></ele><time>2022-5-31T2:1:35Z</time></trkpt>
<trkpt lat="43.4762176" lon="6.8971839"><ele></ele><time>2022-5-31T2:1:38Z</time></trkpt>
<trkpt lat="43.4762041" lon="6.8972132"><ele></ele><time>2022-5-31T2:1:41Z</time></trkpt>
<trkpt lat="43.4761932" lon="6.8972383"><ele></ele><time>2022-5-31T2:1:44Z</time></trkpt>
<trkpt lat="43.4761848" lon="6.8972599"><ele></ele><time>2022-5-31T2:1:47Z</time></trkpt>
<trkpt lat="43.4761810" lon="6.8972749"><ele></ele><time>2022-5-31T2:1:50Z</time></trkpt>
<trkpt lat="43.4761757" lon="6.8972909"><ele></ele><time>2022-5-31T2:1:53Z</time></trkpt>
<trkpt lat="43.4761690" lon="6.8973196"><ele></ele><time>2022-5-31T2:1:56Z</time></trkpt>
<trkpt lat="43.4761708" lon="6.8973560"><ele></ele><time>2022-5-31T2:1:59Z</time></trkpt>
<trkpt lat="43.4761830" lon="6.8973884"><ele></ele><time>2022-5-31T2:2:2Z</time></trkpt>
<trkpt lat="43.4761843" lon="6.8974197"><ele></ele><time>2022-5-31T2:2:5Z</time></trkpt>
<trkpt lat="43.4761758" lon="6.8974554"><ele></ele><time>2022-5-31T2:2:8Z</time></trkpt>
<trkpt lat="43.4761782" lon="6.8974905"><ele></ele><time>2022-5-31T2:2:11Z</time></trkpt>
<trkpt lat="43.4761837" lon="6.8975250"><ele></ele><time>2022-5-31T2:2:14Z</time></trkpt>
<trkpt lat="43.4761839" lon="6.8975685"><ele></ele><time>2022-5-31T2:2:17Z</time></trkpt>
<trkpt lat="43.4761811" lon="6.8976102"><ele></ele><time>2022-5-31T2:2:20Z</time></trkpt>
<trkpt lat="43.4761820" lon="6.8976602"><ele></ele><time>2022-5-31T2:2:23Z</time></trkpt>
<trkpt lat="43.4761901" lon="6.8977070"><ele></ele><time>2022-5-31T2:2:26Z</time></trkpt>
<trkpt lat="43.4762136" lon="6.8977496"><ele></ele><time>2022-5-31T2:2:29Z</time></trkpt>
<trkpt lat="43.4762250" lon="6.8977963"><ele></ele><time>2022-5-31T2:2:32Z</time></trkpt>
<trkpt lat="43.4762329" lon="6.8978280"><ele></ele><time>2022-5-31T2:2:35Z</time></trkpt>
<trkpt lat="43.4762409" lon="6.8978555"><ele></ele><time>2022-5-31T2:2:38Z</time></trkpt>
<trkpt lat="43.4762604" lon="6.8978892"><ele></ele><time>2022-5-31T2:2:41Z</time></trkpt>
<trkpt lat="43.4762767" lon="6.8979279"><ele></ele><time>2022-5-31T2:2:44Z</time></trkpt>
<trkpt lat="43.4763011" lon="6.8979778"><ele></ele><time>2022-5-31T2:2:47Z</time></trkpt>
<trkpt lat="43.4763294" lon="6.8980287"><ele></ele><time>2022-5-31T2:2:50Z</time></trkpt>
<trkpt lat="43.4763561" lon="6.8980789"><ele></ele><time>2022-5-31T2:2:53Z</time></trkpt>
<trkpt lat="43.4763837" lon="6.8981368"><ele></ele><time>2022-5-31T2:2:56Z</time></trkpt>
<trkpt lat="43.4764066" lon="6.8981947"><ele></ele><time>2022-5-31T2:2:59Z</time></trkpt>
<trkpt lat="43.4764207" lon="6.8982479"><ele></ele><time>2022-5-31T2:3:2Z</time></trkpt>
<trkpt lat="43.4764233" lon="6.8982995"><ele></ele><time>2022-5-31T2:3:5Z</time></trkpt>
<trkpt lat="43.4764159" lon="6.8983599"><ele></ele><time>2022-5-31T2:3:8Z</time></trkpt>
<trkpt lat="43.4763845" lon="6.8984267"><ele></ele><time>2022-5-31T2:3:11Z</time></trkpt>
<trkpt lat="43.4763458" lon="6.8984984"><ele></ele><time>2022-5-31T2:3:14Z</time></trkpt>
<trkpt lat="43.4763344" lon="6.8985380"><ele></ele><time>2022-5-31T2:3:17Z</time></trkpt>
<trkpt lat="43.4763188" lon="6.8985845"><ele></ele><time>2022-5-31T2:3:20Z</time></trkpt>
<trkpt lat="43.4763086" lon="6.8986242"><ele></ele><time>2022-5-31T2:3:23Z</time></trkpt>
<trkpt lat="43.4762977" lon="6.8986634"><ele></ele><time>2022-5-31T2:3:26Z</time></trkpt>
<trkpt lat="43.4762865" lon="6.8987037"><ele></ele><time>2022-5-31T2:3:29Z</time></trkpt>
<trkpt lat="43.4762694" lon="6.8987418"><ele></ele><time>2022-5-31T2:3:32Z</time></trkpt>
<trkpt lat="43.4762600" lon="6.8987822"><ele></ele><time>2022-5-31T2:3:35Z</time></trkpt>
<trkpt lat="43.4762557" lon="6.8988260"><ele></ele><time>2022-5-31T2:3:38Z</time></trkpt>
<trkpt lat="43.4762421" lon="6.8988693"><ele></ele><time>2022-5-31T2:3:41Z</time></trkpt>
<trkpt lat="43.4762369" lon="6.8988993"><ele></ele><time>2022-5-31T2:3:44Z</time></trkpt>
<trkpt lat="43.4762170" lon="6.8989463"><ele></ele><time>2022-5-31T2:3:47Z</time></trkpt>
<trkpt lat="43.4762004" lon="6.8990085"><ele></ele><time>2022-5-31T2:3:50Z</time></trkpt>
<trkpt lat="43.4761982" lon="6.8990549"><ele></ele><time>2022-5-31T2:3:53Z</time></trkpt>
<trkpt lat="43.4761904" lon="6.8991141"><ele></ele><time>2022-5-31T2:3:56Z</time></trkpt>
<trkpt lat="43.4761930" lon="6.8991599"><ele></ele><time>2022-5-31T2:3:59Z</time></trkpt>
<trkpt lat="43.4761872" lon="6.8992100"><ele></ele><time>2022-5-31T2:4:2Z</time></trkpt>
<trkpt lat="43.4761882" lon="6.8992481"><ele></ele><time>2022-5-31T2:4:5Z</time></trkpt>
<trkpt lat="43.4761780" lon="6.8993099"><ele></ele><time>2022-5-31T2:4:8Z</time></trkpt>
<trkpt lat="43.4761762" lon="6.8993655"><ele></ele><time>2022-5-31T2:4:11Z</time></trkpt>
<trkpt lat="43.4761749" lon="6.8994188"><ele></ele><time>2022-5-31T2:4:14Z</time></trkpt>
<trkpt lat="43.4761775" lon="6.8994573"><ele></ele><time>2022-5-31T2:4:17Z</time></trkpt>
<trkpt lat="43.4761877" lon="6.8995040"><ele></ele><time>2022-5-31T2:4:20Z</time></trkpt>
<trkpt lat="43.4761935" lon="6.8995446"><ele></ele><time>2022-5-31T2:4:23Z</time></trkpt>
<trkpt lat="43.4761957" lon="6.8995869"><ele></ele><time>2022-5-31T2:4:26Z</time></trkpt>
<trkpt lat="43.4762028" lon="6.8996255"><ele></ele><time>2022-5-31T2:4:29Z</time></trkpt>
<trkpt lat="43.4762162" lon="6.8996700"><ele></ele><time>2022-5-31T2:4:32Z</time></trkpt>
<trkpt lat="43.4762255" lon="6.8997111"><ele></ele><time>2022-5-31T2:4:35Z</time></trkpt>
<trkpt lat="43.4762321" lon="6.8997521"><ele></ele><time>2022-5-31T2:4:38Z</time></trkpt>
<trkpt lat="43.4762377" lon="6.8997889"><ele></ele><time>2022-5-31T2:4:41Z</time></trkpt>
<trkpt lat="43.4762407" lon="6.8998285"><ele></ele><time>2022-5-31T2:4:44Z</time></trkpt>
<trkpt lat="43.4762440" lon="6.8998671"><ele></ele><time>2022-5-31T2:4:47Z</time></trkpt>
<trkpt lat="43.4762399" lon="6.8999061"><ele></ele><time>2022-5-31T2:4:50Z</time></trkpt>
<trkpt lat="43.4762608" lon="6.8999495"><ele></ele><time>2022-5-31T2:4:53Z</time></trkpt>
<trkpt lat="43.4762837" lon="6.9000087"><ele></ele><time>2022-5-31T2:4:56Z</time></trkpt>
<trkpt lat="43.4763073" lon="6.9000758"><ele></ele><time>2022-5-31T2:4:59Z</time></trkpt>
<trkpt lat="43.4762991" lon="6.9001248"><ele></ele><time>2022-5-31T2:5:2Z</time></trkpt>
<trkpt lat="43.4762937" lon="6.9001766"><ele></ele><time>2022-5-31T2:5:5Z</time></trkpt>
<trkpt lat="43.4763018" lon="6.9002264"><ele></ele><time>2022-5-31T2:5:8Z</time></trkpt>
<trkpt lat="43.4763287" lon="6.9002704"><ele></ele><time>2022-5-31T2:5:11Z</time></trkpt>
<trkpt lat="43.4763440" lon="6.9003180"><ele></ele><time>2022-5-31T2:5:14Z</time></trkpt>
<trkpt lat="43.4763543" lon="6.9003621"><ele></ele><time>2022-5-31T2:5:17Z</time></trkpt>
<trkpt lat="43.4763812" lon="6.9004033"><ele></ele><time>2022-5-31T2:5:20Z</time></trkpt>
<trkpt lat="43.4764269" lon="6.9004442"><ele></ele><time>2022-5-31T2:5:23Z</time></trkpt>
<trkpt lat="43.4764409" lon="6.9005239"><ele></ele><time>2022-5-31T2:5:26Z</time></trkpt>
<trkpt lat="43.4764715" lon="6.9005822"><ele></ele><time>2022-5-31T2:5:29Z</time></trkpt>
<trkpt lat="43.4764878" lon="6.9006211"><ele></ele><time>2022-5-31T2:5:32Z</time></trkpt>
<trkpt lat="43.4765085" lon="6.9006561"><ele></ele><time>2022-5-31T2:5:35Z</time></trkpt>
<trkpt lat="43.4765272" lon="6.9006991"><ele></ele><time>2022-5-31T2:5:38Z</time></trkpt>
<trkpt lat="43.4765344" lon="6.9007475"><ele></ele><time>2022-5-31T2:5:41Z</time></trkpt>
<trkpt lat="43.4765461" lon="6.9007852"><ele></ele><time>2022-5-31T2:5:44Z</time></trkpt>
<trkpt lat="43.4765585" lon="6.9008206"><ele></ele><time>2022-5-31T2:5:47Z</time></trkpt>
<trkpt lat="43.4765665" lon="6.9008526"><ele></ele><time>2022-5-31T2:5:50Z</time></trkpt>
<trkpt lat="43.4765755" lon="6.9008838"><ele></ele><time>2022-5-31T2:5:53Z</time></trkpt>
<trkpt lat="43.4765810" lon="6.9009206"><ele></ele><time>2022-5-31T2:5:56Z</time></trkpt>
<trkpt lat="43.4765855" lon="6.9009569"><ele></ele><time>2022-5-31T2:5:59Z</time></trkpt>
<trkpt lat="43.4766050" lon="6.9009826"><ele></ele><time>2022-5-31T2:6:2Z</time></trkpt>
<trkpt lat="43.4766245" lon="6.9009969"><ele></ele><time>2022-5-31T2:6:5Z</time></trkpt>
<trkpt lat="43.4766315" lon="6.9010145"><ele></ele><time>2022-5-31T2:6:8Z</time></trkpt>
<trkpt lat="43.4766333" lon="6.9010268"><ele></ele><time>2022-5-31T2:6:11Z</time></trkpt>
<trkpt lat="43.4766587" lon="6.9010479"><ele></ele><time>2022-5-31T2:6:14Z</time></trkpt>
<trkpt lat="43.4766741" lon="6.9010686"><ele></ele><time>2022-5-31T2:6:17Z</time></trkpt>
<trkpt lat="43.4766719" lon="6.9010661"><ele></ele><time>2022-5-31T2:6:20Z</time></trkpt>
<trkpt lat="43.4766746" lon="6.9010667"><ele></ele><time>2022-5-31T2:6:23Z</time></trkpt>
<trkpt lat="43.4766740" lon="6.9010660"><ele></ele><time>2022-5-31T2:6:26Z</time></trkpt>
<trkpt lat="43.4766737" lon="6.9010654"><ele></ele><time>2022-5-31T2:6:29Z</time></trkpt>
<trkpt lat="43.4766724" lon="6.9010650"><ele></ele><time>2022-5-31T2:6:32Z</time></trkpt>
<trkpt lat="43.4766733" lon="6.9010696"><ele></ele><time>2022-5-31T2:6:35Z</time></trkpt>
<trkpt lat="43.4766649" lon="6.9010752"><ele></ele><time>2022-5-31T2:6:38Z</time></trkpt>
<trkpt lat="43.4766637" lon="6.9010781"><ele></ele><time>2022-5-31T2:6:41Z</time></trkpt>
<trkpt lat="43.4766592" lon="6.9010880"><ele></ele><time>2022-5-31T2:6:44Z</time></trkpt>
<trkpt lat="43.4766631" lon="6.9011071"><ele></ele><time>2022-5-31T2:6:47Z</time></trkpt>
<trkpt lat="43.4766621" lon="6.9011198"><ele></ele><time>2022-5-31T2:6:50Z</time></trkpt>
<trkpt lat="43.4766642" lon="6.9011323"><ele></ele><time>2022-5-31T2:6:53Z</time></trkpt>
<trkpt lat="43.4766808" lon="6.9011292"><ele></ele><time>2022-5-31T2:6:56Z</time></trkpt>
<trkpt lat="43.4766920" lon="6.9011411"><ele></ele><time>2022-5-31T2:6:59Z</time></trkpt>
<trkpt lat="43.4767134" lon="6.9011584"><ele></ele><time>2022-5-31T2:7:2Z</time></trkpt>
<trkpt lat="43.4767317" lon="6.9011705"><ele></ele><time>2022-5-31T2:7:5Z</time></trkpt>
<trkpt lat="43.4767351" lon="6.9011702"><ele></ele><time>2022-5-31T2:7:8Z</time></trkpt>
<trkpt lat="43.4767382" lon="6.9011781"><ele></ele><time>2022-5-31T2:7:11Z</time></trkpt>
<trkpt lat="43.4767434" lon="6.9011845"><ele></ele><time>2022-5-31T2:7:14Z</time></trkpt>
<trkpt lat="43.4767433" lon="6.9011843"><ele></ele><time>2022-5-31T2:7:17Z</time></trkpt>
<trkpt lat="43.4767540" lon="6.9012004"><ele></ele><time>2022-5-31T2:7:20Z</time></trkpt>
<trkpt lat="43.4767777" lon="6.9012207"><ele></ele><time>2022-5-31T2:7:23Z</time></trkpt>
<trkpt lat="43.4767962" lon="6.9012421"><ele></ele><time>2022-5-31T2:7:26Z</time></trkpt>
<trkpt lat="43.4768189" lon="6.9012515"><ele></ele><time>2022-5-31T2:7:29Z</time></trkpt>
<trkpt lat="43.4768368" lon="6.9012497"><ele></ele><time>2022-5-31T2:7:32Z</time></trkpt>
<trkpt lat="43.4768593" lon="6.9012647"><ele></ele><time>2022-5-31T2:7:35Z</time></trkpt>
<trkpt lat="43.4768830" lon="6.9012732"><ele></ele><time>2022-5-31T2:7:38Z</time></trkpt>
<trkpt lat="43.4768937" lon="6.9012882"><ele></ele><time>2022-5-31T2:7:41Z</time></trkpt>
<trkpt lat="43.4769043" lon="6.9013030"><ele></ele><time>2022-5-31T2:7:44Z</time></trkpt>
<trkpt lat="43.4769164" lon="6.9013151"><ele></ele><time>2022-5-31T2:7:47Z</time></trkpt>
<trkpt lat="43.4769179" lon="6.9013076"><ele></ele><time>2022-5-31T2:7:50Z</time></trkpt>
<trkpt lat="43.4769349" lon="6.9013009"><ele></ele><time>2022-5-31T2:7:53Z</time></trkpt>
<trkpt lat="43.4769222" lon="6.9013145"><ele></ele><time>2022-5-31T2:7:56Z</time></trkpt>
<trkpt lat="43.4769072" lon="6.9012987"><ele></ele><time>2022-5-31T2:7:59Z</time></trkpt>
<trkpt lat="43.4769095" lon="6.9012790"><ele></ele><time>2022-5-31T2:8:2Z</time></trkpt>
<trkpt lat="43.4769237" lon="6.9012864"><ele></ele><time>2022-5-31T2:8:5Z</time></trkpt>
<trkpt lat="43.4769367" lon="6.9012865"><ele></ele><time>2022-5-31T2:8:8Z</time></trkpt>
<trkpt lat="43.4769266" lon="6.9012939"><ele></ele><time>2022-5-31T2:8:11Z</time></trkpt>
<trkpt lat="43.4769308" lon="6.9013364"><ele></ele><time>2022-5-31T2:8:14Z</time></trkpt>
<trkpt lat="43.4769458" lon="6.9013504"><ele></ele><time>2022-5-31T2:8:17Z</time></trkpt>
<trkpt lat="43.4769624" lon="6.9013706"><ele></ele><time>2022-5-31T2:8:20Z</time></trkpt>
<trkpt lat="43.4769696" lon="6.9013725"><ele></ele><time>2022-5-31T2:8:23Z</time></trkpt>
<trkpt lat="43.4769608" lon="6.9013824"><ele></ele><time>2022-5-31T2:8:26Z</time></trkpt>
<trkpt lat="43.4769631" lon="6.9013996"><ele></ele><time>2022-5-31T2:8:29Z</time></trkpt>
<trkpt lat="43.4769341" lon="6.9013987"><ele></ele><time>2022-5-31T2:8:32Z</time></trkpt>
<trkpt lat="43.4769593" lon="6.9014045"><ele></ele><time>2022-5-31T2:8:35Z</time></trkpt>
<trkpt lat="43.4769611" lon="6.9014032"><ele></ele><time>2022-5-31T2:8:38Z</time></trkpt>
<trkpt lat="43.4769707" lon="6.9014179"><ele></ele><time>2022-5-31T2:8:41Z</time></trkpt>
<trkpt lat="43.4769690" lon="6.9014250"><ele></ele><time>2022-5-31T2:8:44Z</time></trkpt>
<trkpt lat="43.4769751" lon="6.9014413"><ele></ele><time>2022-5-31T2:8:47Z</time></trkpt>
<trkpt lat="43.4769713" lon="6.9014682"><ele></ele><time>2022-5-31T2:8:50Z</time></trkpt>
<trkpt lat="43.4769785" lon="6.9014820"><ele></ele><time>2022-5-31T2:8:53Z</time></trkpt>
<trkpt lat="43.4769862" lon="6.9014960"><ele></ele><time>2022-5-31T2:8:56Z</time></trkpt>
<trkpt lat="43.4769939" lon="6.9014968"><ele></ele><time>2022-5-31T2:8:59Z</time></trkpt>
<trkpt lat="43.4769961" lon="6.9015013"><ele></ele><time>2022-5-31T2:9:2Z</time></trkpt>
<trkpt lat="43.4769994" lon="6.9015081"><ele></ele><time>2022-5-31T2:9:5Z</time></trkpt>
<trkpt lat="43.4770127" lon="6.9015148"><ele></ele><time>2022-5-31T2:9:8Z</time></trkpt>
<trkpt lat="43.4770059" lon="6.9015164"><ele></ele><time>2022-5-31T2:9:11Z</time></trkpt>
<trkpt lat="43.4770094" lon="6.9015287"><ele></ele><time>2022-5-31T2:9:14Z</time></trkpt>
<trkpt lat="43.4770050" lon="6.9015382"><ele></ele><time>2022-5-31T2:9:17Z</time></trkpt>
<trkpt lat="43.4769982" lon="6.9015489"><ele></ele><time>2022-5-31T2:9:20Z</time></trkpt>
<trkpt lat="43.4769905" lon="6.9015438"><ele></ele><time>2022-5-31T2:9:23Z</time></trkpt>
<trkpt lat="43.4769890" lon="6.9015411"><ele></ele><time>2022-5-31T2:9:26Z</time></trkpt>
<trkpt lat="43.4769866" lon="6.9015389"><ele></ele><time>2022-5-31T2:9:29Z</time></trkpt>
<trkpt lat="43.4769901" lon="6.9015472"><ele></ele><time>2022-5-31T2:9:32Z</time></trkpt>
<trkpt lat="43.4769981" lon="6.9015593"><ele></ele><time>2022-5-31T2:9:35Z</time></trkpt>
<trkpt lat="43.4770041" lon="6.9015683"><ele></ele><time>2022-5-31T2:9:38Z</time></trkpt>
<trkpt lat="43.4770073" lon="6.9015816"><ele></ele><time>2022-5-31T2:9:41Z</time></trkpt>
<trkpt lat="43.4770065" lon="6.9015891"><ele></ele><time>2022-5-31T2:9:44Z</time></trkpt>
<trkpt lat="43.4770113" lon="6.9015960"><ele></ele><time>2022-5-31T2:9:47Z</time></trkpt>
<trkpt lat="43.4770145" lon="6.9016009"><ele></ele><time>2022-5-31T2:9:50Z</time></trkpt>
<trkpt lat="43.4770061" lon="6.9016089"><ele></ele><time>2022-5-31T2:9:53Z</time></trkpt>
<trkpt lat="43.4770018" lon="6.9016113"><ele></ele><time>2022-5-31T2:9:56Z</time></trkpt>
<trkpt lat="43.4770162" lon="6.9016159"><ele></ele><time>2022-5-31T2:9:59Z</time></trkpt>
<trkpt lat="43.4770164" lon="6.9016165"><ele></ele><time>2022-5-31T2:10:2Z</time></trkpt>
<trkpt lat="43.4770149" lon="6.9016198"><ele></ele><time>2022-5-31T2:10:5Z</time></trkpt>
<trkpt lat="43.4770211" lon="6.9016248"><ele></ele><time>2022-5-31T2:10:8Z</time></trkpt>
<trkpt lat="43.4770214" lon="6.9016252"><ele></ele><time>2022-5-31T2:10:11Z</time></trkpt>
<trkpt lat="43.4770210" lon="6.9016252"><ele></ele><time>2022-5-31T2:10:14Z</time></trkpt>
<trkpt lat="43.4770205" lon="6.9016253"><ele></ele><time>2022-5-31T2:10:17Z</time></trkpt>
<trkpt lat="43.4770210" lon="6.9016255"><ele></ele><time>2022-5-31T2:10:20Z</time></trkpt>
<trkpt lat="43.4770211" lon="6.9016256"><ele></ele><time>2022-5-31T2:10:23Z</time></trkpt>
<trkpt lat="43.4770212" lon="6.9016257"><ele></ele><time>2022-5-31T2:10:26Z</time></trkpt>
<trkpt lat="43.4770216" lon="6.9016260"><ele></ele><time>2022-5-31T2:10:29Z</time></trkpt>
<trkpt lat="43.4770220" lon="6.9016262"><ele></ele><time>2022-5-31T2:10:32Z</time></trkpt>
<trkpt lat="43.4770223" lon="6.9016263"><ele></ele><time>2022-5-31T2:10:35Z</time></trkpt>
<trkpt lat="43.4770227" lon="6.9016268"><ele></ele><time>2022-5-31T2:10:38Z</time></trkpt>
<trkpt lat="43.4770229" lon="6.9016267"><ele></ele><time>2022-5-31T2:10:41Z</time></trkpt>
<trkpt lat="43.4770242" lon="6.9016259"><ele></ele><time>2022-5-31T2:10:44Z</time></trkpt>
<trkpt lat="43.4770245" lon="6.9016260"><ele></ele><time>2022-5-31T2:10:47Z</time></trkpt>
<trkpt lat="43.4770244" lon="6.9016261"><ele></ele><time>2022-5-31T2:10:50Z</time></trkpt>
<trkpt lat="43.4770252" lon="6.9016264"><ele></ele><time>2022-5-31T2:10:53Z</time></trkpt>
<trkpt lat="43.4770252" lon="6.9016267"><ele></ele><time>2022-5-31T2:10:56Z</time></trkpt>
<trkpt lat="43.4770261" lon="6.9016273"><ele></ele><time>2022-5-31T2:10:59Z</time></trkpt>
<trkpt lat="43.4770301" lon="6.9016305"><ele></ele><time>2022-5-31T2:11:2Z</time></trkpt>
<trkpt lat="43.4770324" lon="6.9016376"><ele></ele><time>2022-5-31T2:11:5Z</time></trkpt>
<trkpt lat="43.4770359" lon="6.9016431"><ele></ele><time>2022-5-31T2:11:8Z</time></trkpt>
<trkpt lat="43.4770371" lon="6.9016477"><ele></ele><time>2022-5-31T2:11:11Z</time></trkpt>
<trkpt lat="43.4770361" lon="6.9016522"><ele></ele><time>2022-5-31T2:11:14Z</time></trkpt>
<trkpt lat="43.4770376" lon="6.9016554"><ele></ele><time>2022-5-31T2:11:17Z</time></trkpt>
<trkpt lat="43.4770437" lon="6.9016605"><ele></ele><time>2022-5-31T2:11:20Z</time></trkpt>
<trkpt lat="43.4770469" lon="6.9016658"><ele></ele><time>2022-5-31T2:11:23Z</time></trkpt>
<trkpt lat="43.4770466" lon="6.9016701"><ele></ele><time>2022-5-31T2:11:26Z</time></trkpt>
<trkpt lat="43.4770528" lon="6.9016793"><ele></ele><time>2022-5-31T2:11:29Z</time></trkpt>
<trkpt lat="43.4770497" lon="6.9016841"><ele></ele><time>2022-5-31T2:11:32Z</time></trkpt>
<trkpt lat="43.4770462" lon="6.9016890"><ele></ele><time>2022-5-31T2:11:35Z</time></trkpt>
<trkpt lat="43.4770444" lon="6.9016904"><ele></ele><time>2022-5-31T2:11:38Z</time></trkpt>
<trkpt lat="43.4770481" lon="6.9016889"><ele></ele><time>2022-5-31T2:11:41Z</time></trkpt>
<trkpt lat="43.4770491" lon="6.9016901"><ele></ele><time>2022-5-31T2:11:44Z</time></trkpt>
<trkpt lat="43.4770638" lon="6.9016919"><ele></ele><time>2022-5-31T2:11:47Z</time></trkpt>
<trkpt lat="43.4770639" lon="6.9016928"><ele></ele><time>2022-5-31T2:11:50Z</time></trkpt>
<trkpt lat="43.4770638" lon="6.9016932"><ele></ele><time>2022-5-31T2:11:53Z</time></trkpt>
<trkpt lat="43.4770678" lon="6.9016963"><ele></ele><time>2022-5-31T2:11:56Z</time></trkpt>
<trkpt lat="43.4770718" lon="6.9016988"><ele></ele><time>2022-5-31T2:11:59Z</time></trkpt>
<trkpt lat="43.4770791" lon="6.9017014"><ele></ele><time>2022-5-31T2:12:2Z</time></trkpt>
<trkpt lat="43.4770878" lon="6.9017040"><ele></ele><time>2022-5-31T2:12:5Z</time></trkpt>
<trkpt lat="43.4770941" lon="6.9017071"><ele></ele><time>2022-5-31T2:12:8Z</time></trkpt>
<trkpt lat="43.4771013" lon="6.9017158"><ele></ele><time>2022-5-31T2:12:11Z</time></trkpt>
<trkpt lat="43.4771082" lon="6.9017251"><ele></ele><time>2022-5-31T2:12:14Z</time></trkpt>
<trkpt lat="43.4771129" lon="6.9017323"><ele></ele><time>2022-5-31T2:12:17Z</time></trkpt>
<trkpt lat="43.4771151" lon="6.9017447"><ele></ele><time>2022-5-31T2:12:20Z</time></trkpt>
<trkpt lat="43.4771179" lon="6.9017586"><ele></ele><time>2022-5-31T2:12:23Z</time></trkpt>
<trkpt lat="43.4771182" lon="6.9017697"><ele></ele><time>2022-5-31T2:12:26Z</time></trkpt>
<trkpt lat="43.4771238" lon="6.9017818"><ele></ele><time>2022-5-31T2:12:29Z</time></trkpt>
<trkpt lat="43.4771280" lon="6.9017925"><ele></ele><time>2022-5-31T2:12:32Z</time></trkpt>
<trkpt lat="43.4771310" lon="6.9018061"><ele></ele><time>2022-5-31T2:12:35Z</time></trkpt>
<trkpt lat="43.4771337" lon="6.9018197"><ele></ele><time>2022-5-31T2:12:38Z</time></trkpt>
<trkpt lat="43.4771340" lon="6.9018320"><ele></ele><time>2022-5-31T2:12:41Z</time></trkpt>
<trkpt lat="43.4771343" lon="6.9018421"><ele></ele><time>2022-5-31T2:12:44Z</time></trkpt>
<trkpt lat="43.4771344" lon="6.9018531"><ele></ele><time>2022-5-31T2:12:47Z</time></trkpt>
<trkpt lat="43.4771306" lon="6.9018731"><ele></ele><time>2022-5-31T2:12:50Z</time></trkpt>
<trkpt lat="43.4771297" lon="6.9018841"><ele></ele><time>2022-5-31T2:12:53Z</time></trkpt>
<trkpt lat="43.4771303" lon="6.9018912"><ele></ele><time>2022-5-31T2:12:56Z</time></trkpt>
<trkpt lat="43.4771300" lon="6.9019070"><ele></ele><time>2022-5-31T2:12:59Z</time></trkpt>
<trkpt lat="43.4771269" lon="6.9019218"><ele></ele><time>2022-5-31T2:13:2Z</time></trkpt>
<trkpt lat="43.4771229" lon="6.9019342"><ele></ele><time>2022-5-31T2:13:5Z</time></trkpt>
<trkpt lat="43.4771188" lon="6.9019463"><ele></ele><time>2022-5-31T2:13:8Z</time></trkpt>
<trkpt lat="43.4771160" lon="6.9019521"><ele></ele><time>2022-5-31T2:13:11Z</time></trkpt>
<trkpt lat="43.4771149" lon="6.9019648"><ele></ele><time>2022-5-31T2:13:14Z</time></trkpt>
<trkpt lat="43.4771132" lon="6.9019794"><ele></ele><time>2022-5-31T2:13:17Z</time></trkpt>
<trkpt lat="43.4771138" lon="6.9019940"><ele></ele><time>2022-5-31T2:13:20Z</time></trkpt>
<trkpt lat="43.4771142" lon="6.9020153"><ele></ele><time>2022-5-31T2:13:23Z</time></trkpt>
<trkpt lat="43.4771180" lon="6.9020175"><ele></ele><time>2022-5-31T2:13:26Z</time></trkpt>
<trkpt lat="43.4771181" lon="6.9020274"><ele></ele><time>2022-5-31T2:13:29Z</time></trkpt>
<trkpt lat="43.4771183" lon="6.9020398"><ele></ele><time>2022-5-31T2:13:32Z</time></trkpt>
<trkpt lat="43.4771155" lon="6.9020479"><ele></ele><time>2022-5-31T2:13:35Z</time></trkpt>
<trkpt lat="43.4771126" lon="6.9020602"><ele></ele><time>2022-5-31T2:13:38Z</time></trkpt>
<trkpt lat="43.4771113" lon="6.9020596"><ele></ele><time>2022-5-31T2:13:41Z</time></trkpt>
<trkpt lat="43.4771063" lon="6.9020702"><ele></ele><time>2022-5-31T2:13:44Z</time></trkpt>
<trkpt lat="43.4771019" lon="6.9020846"><ele></ele><time>2022-5-31T2:13:47Z</time></trkpt>
<trkpt lat="43.4771026" lon="6.9020882"><ele></ele><time>2022-5-31T2:13:50Z</time></trkpt>
<trkpt lat="43.4771028" lon="6.9020894"><ele></ele><time>2022-5-31T2:13:53Z</time></trkpt>
<trkpt lat="43.4771060" lon="6.9020882"><ele></ele><time>2022-5-31T2:13:56Z</time></trkpt>
<trkpt lat="43.4771102" lon="6.9020803"><ele></ele><time>2022-5-31T2:13:59Z</time></trkpt>
<trkpt lat="43.4771135" lon="6.9020738"><ele></ele><time>2022-5-31T2:14:2Z</time></trkpt>
<trkpt lat="43.4771145" lon="6.9020720"><ele></ele><time>2022-5-31T2:14:5Z</time></trkpt>
<trkpt lat="43.4771146" lon="6.9020720"><ele></ele><time>2022-5-31T2:14:8Z</time></trkpt>
<trkpt lat="43.4771147" lon="6.9020716"><ele></ele><time>2022-5-31T2:14:11Z</time></trkpt>
<trkpt lat="43.4771147" lon="6.9020715"><ele></ele><time>2022-5-31T2:14:14Z</time></trkpt>
<trkpt lat="43.4771142" lon="6.9020720"><ele></ele><time>2022-5-31T2:14:17Z</time></trkpt>
<trkpt lat="43.4771142" lon="6.9020720"><ele></ele><time>2022-5-31T2:14:20Z</time></trkpt>
<trkpt lat="43.4771140" lon="6.9020719"><ele></ele><time>2022-5-31T2:14:23Z</time></trkpt>
<trkpt lat="43.4771137" lon="6.9020719"><ele></ele><time>2022-5-31T2:14:26Z</time></trkpt>
<trkpt lat="43.4771125" lon="6.9020726"><ele></ele><time>2022-5-31T2:14:29Z</time></trkpt>
<trkpt lat="43.4771109" lon="6.9020734"><ele></ele><time>2022-5-31T2:14:32Z</time></trkpt>
<trkpt lat="43.4771100" lon="6.9020736"><ele></ele><time>2022-5-31T2:14:35Z</time></trkpt>
<trkpt lat="43.4771089" lon="6.9020746"><ele></ele><time>2022-5-31T2:14:38Z</time></trkpt>
<trkpt lat="43.4771069" lon="6.9020762"><ele></ele><time>2022-5-31T2:14:41Z</time></trkpt>
<trkpt lat="43.4771056" lon="6.9020772"><ele></ele><time>2022-5-31T2:14:44Z</time></trkpt>
<trkpt lat="43.4771043" lon="6.9020784"><ele></ele><time>2022-5-31T2:14:47Z</time></trkpt>
<trkpt lat="43.4771042" lon="6.9020786"><ele></ele><time>2022-5-31T2:14:50Z</time></trkpt>
<trkpt lat="43.4771041" lon="6.9020789"><ele></ele><time>2022-5-31T2:14:53Z</time></trkpt>
<trkpt lat="43.4771042" lon="6.9020785"><ele></ele><time>2022-5-31T2:14:56Z</time></trkpt>
<trkpt lat="43.4771040" lon="6.9020787"><ele></ele><time>2022-5-31T2:14:59Z</time></trkpt>
<trkpt lat="43.4771041" lon="6.9020786"><ele></ele><time>2022-5-31T2:15:2Z</time></trkpt>
<trkpt lat="43.4771043" lon="6.9020784"><ele></ele><time>2022-5-31T2:15:5Z</time></trkpt>
<trkpt lat="43.4771042" lon="6.9020786"><ele></ele><time>2022-5-31T2:15:8Z</time></trkpt>
<trkpt lat="43.4771039" lon="6.9020788"><ele></ele><time>2022-5-31T2:15:11Z</time></trkpt>
<trkpt lat="43.4771036" lon="6.9020790"><ele></ele><time>2022-5-31T2:15:14Z</time></trkpt>
<trkpt lat="43.4771034" lon="6.9020794"><ele></ele><time>2022-5-31T2:15:17Z</time></trkpt>
<trkpt lat="43.4771032" lon="6.9020797"><ele></ele><time>2022-5-31T2:15:20Z</time></trkpt>
<trkpt lat="43.4771029" lon="6.9020799"><ele></ele><time>2022-5-31T2:15:23Z</time></trkpt>
<trkpt lat="43.4771029" lon="6.9020799"><ele></ele><time>2022-5-31T2:15:26Z</time></trkpt>
<trkpt lat="43.4771028" lon="6.9020799"><ele></ele><time>2022-5-31T2:15:29Z</time></trkpt>
<trkpt lat="43.4771028" lon="6.9020799"><ele></ele><time>2022-5-31T2:15:32Z</time></trkpt>
<trkpt lat="43.4771034" lon="6.9020785"><ele></ele><time>2022-5-31T2:15:35Z</time></trkpt>
<trkpt lat="43.4771033" lon="6.9020784"><ele></ele><time>2022-5-31T2:15:38Z</time></trkpt>
<trkpt lat="43.4771033" lon="6.9020782"><ele></ele><time>2022-5-31T2:15:41Z</time></trkpt>
<trkpt lat="43.4771033" lon="6.9020782"><ele></ele><time>2022-5-31T2:15:44Z</time></trkpt>
<trkpt lat="43.4771035" lon="6.9020779"><ele></ele><time>2022-5-31T2:15:47Z</time></trkpt>
<trkpt lat="43.4771041" lon="6.9020778"><ele></ele><time>2022-5-31T2:15:50Z</time></trkpt>
<trkpt lat="43.4771041" lon="6.9020777"><ele></ele><time>2022-5-31T2:15:53Z</time></trkpt>
<trkpt lat="43.4771041" lon="6.9020777"><ele></ele><time>2022-5-31T2:15:56Z</time></trkpt>
<trkpt lat="43.4771040" lon="6.9020778"><ele></ele><time>2022-5-31T2:15:59Z</time></trkpt>
<trkpt lat="43.4771040" lon="6.9020776"><ele></ele><time>2022-5-31T2:16:2Z</time></trkpt>
<trkpt lat="43.4771041" lon="6.9020774"><ele></ele><time>2022-5-31T2:16:5Z</time></trkpt>
<trkpt lat="43.4771040" lon="6.9020774"><ele></ele><time>2022-5-31T2:16:8Z</time></trkpt>
<trkpt lat="43.4771035" lon="6.9020777"><ele></ele><time>2022-5-31T2:16:11Z</time></trkpt>
<trkpt lat="43.4771033" lon="6.9020783"><ele></ele><time>2022-5-31T2:16:14Z</time></trkpt>
<trkpt lat="43.4771031" lon="6.9020783"><ele></ele><time>2022-5-31T2:16:17Z</time></trkpt>
<trkpt lat="43.4771025" lon="6.9020789"><ele></ele><time>2022-5-31T2:16:20Z</time></trkpt>
<trkpt lat="43.4771022" lon="6.9020790"><ele></ele><time>2022-5-31T2:16:23Z</time></trkpt>
<trkpt lat="43.4771017" lon="6.9020796"><ele></ele><time>2022-5-31T2:16:26Z</time></trkpt>
<trkpt lat="43.4771013" lon="6.9020800"><ele></ele><time>2022-5-31T2:16:29Z</time></trkpt>
<trkpt lat="43.4771010" lon="6.9020805"><ele></ele><time>2022-5-31T2:16:32Z</time></trkpt>
<trkpt lat="43.4771009" lon="6.9020811"><ele></ele><time>2022-5-31T2:16:35Z</time></trkpt>
<trkpt lat="43.4771008" lon="6.9020811"><ele></ele><time>2022-5-31T2:16:38Z</time></trkpt>
<trkpt lat="43.4771008" lon="6.9020810"><ele></ele><time>2022-5-31T2:16:41Z</time></trkpt>
<trkpt lat="43.4771009" lon="6.9020808"><ele></ele><time>2022-5-31T2:16:44Z</time></trkpt>
<trkpt lat="43.4771008" lon="6.9020805"><ele></ele><time>2022-5-31T2:16:47Z</time></trkpt>
<trkpt lat="43.4771015" lon="6.9020793"><ele></ele><time>2022-5-31T2:16:50Z</time></trkpt>
<trkpt lat="43.4771018" lon="6.9020790"><ele></ele><time>2022-5-31T2:16:53Z</time></trkpt>
<trkpt lat="43.4771020" lon="6.9020787"><ele></ele><time>2022-5-31T2:16:56Z</time></trkpt>
<trkpt lat="43.4771021" lon="6.9020787"><ele></ele><time>2022-5-31T2:16:59Z</time></trkpt>
<trkpt lat="43.4771021" lon="6.9020784"><ele></ele><time>2022-5-31T2:17:2Z</time></trkpt>
<trkpt lat="43.4771021" lon="6.9020784"><ele></ele><time>2022-5-31T2:17:5Z</time></trkpt>
<trkpt lat="43.4771031" lon="6.9020811"><ele></ele><time>2022-5-31T2:17:8Z</time></trkpt>
<trkpt lat="43.4771062" lon="6.9020893"><ele></ele><time>2022-5-31T2:17:11Z</time></trkpt>
<trkpt lat="43.4771139" lon="6.9021048"><ele></ele><time>2022-5-31T2:17:14Z</time></trkpt>
<trkpt lat="43.4771223" lon="6.9021246"><ele></ele><time>2022-5-31T2:17:17Z</time></trkpt>
<trkpt lat="43.4771310" lon="6.9021468"><ele></ele><time>2022-5-31T2:17:20Z</time></trkpt>
<trkpt lat="43.4771371" lon="6.9021681"><ele></ele><time>2022-5-31T2:17:23Z</time></trkpt>
<trkpt lat="43.4771353" lon="6.9021893"><ele></ele><time>2022-5-31T2:17:26Z</time></trkpt>
<trkpt lat="43.4771348" lon="6.9022094"><ele></ele><time>2022-5-31T2:17:29Z</time></trkpt>
<trkpt lat="43.4771354" lon="6.9022324"><ele></ele><time>2022-5-31T2:17:32Z</time></trkpt>
<trkpt lat="43.4771355" lon="6.9022575"><ele></ele><time>2022-5-31T2:17:35Z</time></trkpt>
<trkpt lat="43.4771376" lon="6.9022833"><ele></ele><time>2022-5-31T2:17:38Z</time></trkpt>
<trkpt lat="43.4771399" lon="6.9023032"><ele></ele><time>2022-5-31T2:17:41Z</time></trkpt>
<trkpt lat="43.4771451" lon="6.9023217"><ele></ele><time>2022-5-31T2:17:44Z</time></trkpt>
<trkpt lat="43.4771493" lon="6.9023442"><ele></ele><time>2022-5-31T2:17:47Z</time></trkpt>
<trkpt lat="43.4771532" lon="6.9023636"><ele></ele><time>2022-5-31T2:17:50Z</time></trkpt>
<trkpt lat="43.4771595" lon="6.9023825"><ele></ele><time>2022-5-31T2:17:53Z</time></trkpt>
<trkpt lat="43.4771662" lon="6.9024070"><ele></ele><time>2022-5-31T2:17:56Z</time></trkpt>
<trkpt lat="43.4771713" lon="6.9024223"><ele></ele><time>2022-5-31T2:17:59Z</time></trkpt>
<trkpt lat="43.4771772" lon="6.9024289"><ele></ele><time>2022-5-31T2:18:2Z</time></trkpt>
<trkpt lat="43.4771790" lon="6.9024284"><ele></ele><time>2022-5-31T2:18:5Z</time></trkpt>
<trkpt lat="43.4771822" lon="6.9024319"><ele></ele><time>2022-5-31T2:18:8Z</time></trkpt>
<trkpt lat="43.4771753" lon="6.9024124"><ele></ele><time>2022-5-31T2:18:11Z</time></trkpt>
<trkpt lat="43.4771752" lon="6.9024119"><ele></ele><time>2022-5-31T2:18:14Z</time></trkpt>
<trkpt lat="43.4771752" lon="6.9024121"><ele></ele><time>2022-5-31T2:18:17Z</time></trkpt>
<trkpt lat="43.4771762" lon="6.9024177"><ele></ele><time>2022-5-31T2:18:20Z</time></trkpt>
<trkpt lat="43.4771834" lon="6.9024382"><ele></ele><time>2022-5-31T2:18:23Z</time></trkpt>
<trkpt lat="43.4771948" lon="6.9024688"><ele></ele><time>2022-5-31T2:18:26Z</time></trkpt>
<trkpt lat="43.4771976" lon="6.9024899"><ele></ele><time>2022-5-31T2:18:29Z</time></trkpt>
<trkpt lat="43.4771978" lon="6.9025120"><ele></ele><time>2022-5-31T2:18:32Z</time></trkpt>
<trkpt lat="43.4772202" lon="6.9025254"><ele></ele><time>2022-5-31T2:18:35Z</time></trkpt>
<trkpt lat="43.4772415" lon="6.9025476"><ele></ele><time>2022-5-31T2:18:38Z</time></trkpt>
<trkpt lat="43.4772434" lon="6.9025688"><ele></ele><time>2022-5-31T2:18:41Z</time></trkpt>
<trkpt lat="43.4772495" lon="6.9025913"><ele></ele><time>2022-5-31T2:18:44Z</time></trkpt>
<trkpt lat="43.4772427" lon="6.9025782"><ele></ele><time>2022-5-31T2:18:47Z</time></trkpt>
<trkpt lat="43.4772528" lon="6.9025690"><ele></ele><time>2022-5-31T2:18:50Z</time></trkpt>
<trkpt lat="43.4772513" lon="6.9025635"><ele></ele><time>2022-5-31T2:18:53Z</time></trkpt>
<trkpt lat="43.4772521" lon="6.9025623"><ele></ele><time>2022-5-31T2:18:56Z</time></trkpt>
<trkpt lat="43.4772529" lon="6.9025662"><ele></ele><time>2022-5-31T2:18:59Z</time></trkpt>
<trkpt lat="43.4772535" lon="6.9025659"><ele></ele><time>2022-5-31T2:19:2Z</time></trkpt>
<trkpt lat="43.4772541" lon="6.9025660"><ele></ele><time>2022-5-31T2:19:5Z</time></trkpt>
<trkpt lat="43.4772543" lon="6.9025682"><ele></ele><time>2022-5-31T2:19:8Z</time></trkpt>
<trkpt lat="43.4772615" lon="6.9025909"><ele></ele><time>2022-5-31T2:19:11Z</time></trkpt>
<trkpt lat="43.4772569" lon="6.9025934"><ele></ele><time>2022-5-31T2:19:14Z</time></trkpt>
<trkpt lat="43.4772622" lon="6.9025997"><ele></ele><time>2022-5-31T2:19:17Z</time></trkpt>
<trkpt lat="43.4772678" lon="6.9026132"><ele></ele><time>2022-5-31T2:19:20Z</time></trkpt>
<trkpt lat="43.4772718" lon="6.9026160"><ele></ele><time>2022-5-31T2:19:23Z</time></trkpt>
<trkpt lat="43.4772777" lon="6.9026048"><ele></ele><time>2022-5-31T2:19:26Z</time></trkpt>
<trkpt lat="43.4772835" lon="6.9026045"><ele></ele><time>2022-5-31T2:19:29Z</time></trkpt>
<trkpt lat="43.4772857" lon="6.9026135"><ele></ele><time>2022-5-31T2:19:32Z</time></trkpt>
<trkpt lat="43.4772902" lon="6.9026396"><ele></ele><time>2022-5-31T2:19:35Z</time></trkpt>
<trkpt lat="43.4772952" lon="6.9026529"><ele></ele><time>2022-5-31T2:19:38Z</time></trkpt>
<trkpt lat="43.4773048" lon="6.9026622"><ele></ele><time>2022-5-31T2:19:41Z</time></trkpt>
<trkpt lat="43.4773114" lon="6.9026831"><ele></ele><time>2022-5-31T2:19:44Z</time></trkpt>
<trkpt lat="43.4773319" lon="6.9027220"><ele></ele><time>2022-5-31T2:19:47Z</time></trkpt>
<trkpt lat="43.4773532" lon="6.9027633"><ele></ele><time>2022-5-31T2:19:50Z</time></trkpt>
<trkpt lat="43.4773717" lon="6.9027946"><ele></ele><time>2022-5-31T2:19:53Z</time></trkpt>
<trkpt lat="43.4773850" lon="6.9028149"><ele></ele><time>2022-5-31T2:19:56Z</time></trkpt>
<trkpt lat="43.4773836" lon="6.9028297"><ele></ele><time>2022-5-31T2:19:59Z</time></trkpt>
<trkpt lat="43.4773957" lon="6.9028488"><ele></ele><time>2022-5-31T2:20:2Z</time></trkpt>
<trkpt lat="43.4774094" lon="6.9028629"><ele></ele><time>2022-5-31T2:20:5Z</time></trkpt>
<trkpt lat="43.4774096" lon="6.9028740"><ele></ele><time>2022-5-31T2:20:8Z</time></trkpt>
<trkpt lat="43.4774172" lon="6.9028899"><ele></ele><time>2022-5-31T2:20:11Z</time></trkpt>
<trkpt lat="43.4774298" lon="6.9028946"><ele></ele><time>2022-5-31T2:20:14Z</time></trkpt>
<trkpt lat="43.4774524" lon="6.9028906"><ele></ele><time>2022-5-31T2:20:17Z</time></trkpt>
<trkpt lat="43.4774713" lon="6.9028896"><ele></ele><time>2022-5-31T2:20:20Z</time></trkpt>
<trkpt lat="43.4774914" lon="6.9028942"><ele></ele><time>2022-5-31T2:20:23Z</time></trkpt>
<trkpt lat="43.4775344" lon="6.9028898"><ele></ele><time>2022-5-31T2:20:26Z</time></trkpt>
<trkpt lat="43.4775776" lon="6.9028879"><ele></ele><time>2022-5-31T2:20:29Z</time></trkpt>
<trkpt lat="43.4776164" lon="6.9028834"><ele></ele><time>2022-5-31T2:20:32Z</time></trkpt>
<trkpt lat="43.4776524" lon="6.9028771"><ele></ele><time>2022-5-31T2:20:35Z</time></trkpt>
<trkpt lat="43.4776485" lon="6.9028937"><ele></ele><time>2022-5-31T2:20:38Z</time></trkpt>
<trkpt lat="43.4776410" lon="6.9028981"><ele></ele><time>2022-5-31T2:20:41Z</time></trkpt>
<trkpt lat="43.4776554" lon="6.9028945"><ele></ele><time>2022-5-31T2:20:44Z</time></trkpt>
<trkpt lat="43.4776732" lon="6.9028930"><ele></ele><time>2022-5-31T2:20:47Z</time></trkpt>
<trkpt lat="43.4776944" lon="6.9028914"><ele></ele><time>2022-5-31T2:20:50Z</time></trkpt>
<trkpt lat="43.4777128" lon="6.9028819"><ele></ele><time>2022-5-31T2:20:53Z</time></trkpt>
<trkpt lat="43.4777251" lon="6.9028824"><ele></ele><time>2022-5-31T2:20:56Z</time></trkpt>
<trkpt lat="43.4777420" lon="6.9028773"><ele></ele><time>2022-5-31T2:20:59Z</time></trkpt>
<trkpt lat="43.4777590" lon="6.9028889"><ele></ele><time>2022-5-31T2:21:2Z</time></trkpt>
<trkpt lat="43.4778046" lon="6.9028784"><ele></ele><time>2022-5-31T2:21:5Z</time></trkpt>
<trkpt lat="43.4778106" lon="6.9028878"><ele></ele><time>2022-5-31T2:21:8Z</time></trkpt>
<trkpt lat="43.4778602" lon="6.9028759"><ele></ele><time>2022-5-31T2:21:11Z</time></trkpt>
<trkpt lat="43.4778882" lon="6.9028721"><ele></ele><time>2022-5-31T2:21:14Z</time></trkpt>
<trkpt lat="43.4778961" lon="6.9028935"><ele></ele><time>2022-5-31T2:21:17Z</time></trkpt>
<trkpt lat="43.4779305" lon="6.9029036"><ele></ele><time>2022-5-31T2:21:20Z</time></trkpt>
<trkpt lat="43.4779450" lon="6.9029125"><ele></ele><time>2022-5-31T2:21:23Z</time></trkpt>
<trkpt lat="43.4779662" lon="6.9029225"><ele></ele><time>2022-5-31T2:21:26Z</time></trkpt>
<trkpt lat="43.4779816" lon="6.9029329"><ele></ele><time>2022-5-31T2:21:29Z</time></trkpt>
<trkpt lat="43.4780039" lon="6.9029358"><ele></ele><time>2022-5-31T2:21:32Z</time></trkpt>
<trkpt lat="43.4780158" lon="6.9029345"><ele></ele><time>2022-5-31T2:21:35Z</time></trkpt>
<trkpt lat="43.4780268" lon="6.9029355"><ele></ele><time>2022-5-31T2:21:38Z</time></trkpt>
<trkpt lat="43.4780420" lon="6.9029357"><ele></ele><time>2022-5-31T2:21:41Z</time></trkpt>
<trkpt lat="43.4780590" lon="6.9029323"><ele></ele><time>2022-5-31T2:21:44Z</time></trkpt>
<trkpt lat="43.4780690" lon="6.9029306"><ele></ele><time>2022-5-31T2:21:47Z</time></trkpt>
<trkpt lat="43.4780814" lon="6.9029278"><ele></ele><time>2022-5-31T2:21:50Z</time></trkpt>
<trkpt lat="43.4780981" lon="6.9029278"><ele></ele><time>2022-5-31T2:21:53Z</time></trkpt>
<trkpt lat="43.4781202" lon="6.9029162"><ele></ele><time>2022-5-31T2:21:56Z</time></trkpt>
<trkpt lat="43.4781438" lon="6.9029050"><ele></ele><time>2022-5-31T2:21:59Z</time></trkpt>
<trkpt lat="43.4781715" lon="6.9029104"><ele></ele><time>2022-5-31T2:22:2Z</time></trkpt>
<trkpt lat="43.4781970" lon="6.9029088"><ele></ele><time>2022-5-31T2:22:5Z</time></trkpt>
<trkpt lat="43.4782148" lon="6.9029049"><ele></ele><time>2022-5-31T2:22:8Z</time></trkpt>
<trkpt lat="43.4782313" lon="6.9029001"><ele></ele><time>2022-5-31T2:22:11Z</time></trkpt>
<trkpt lat="43.4782512" lon="6.9028940"><ele></ele><time>2022-5-31T2:22:14Z</time></trkpt>
<trkpt lat="43.4782791" lon="6.9028959"><ele></ele><time>2022-5-31T2:22:17Z</time></trkpt>
<trkpt lat="43.4783034" lon="6.9028974"><ele></ele><time>2022-5-31T2:22:20Z</time></trkpt>
<trkpt lat="43.4783265" lon="6.9028958"><ele></ele><time>2022-5-31T2:22:23Z</time></trkpt>
<trkpt lat="43.4783441" lon="6.9029065"><ele></ele><time>2022-5-31T2:22:26Z</time></trkpt>
<trkpt lat="43.4783707" lon="6.9029071"><ele></ele><time>2022-5-31T2:22:29Z</time></trkpt>
<trkpt lat="43.4783947" lon="6.9029079"><ele></ele><time>2022-5-31T2:22:32Z</time></trkpt>
<trkpt lat="43.4784202" lon="6.9029102"><ele></ele><time>2022-5-31T2:22:35Z</time></trkpt>
<trkpt lat="43.4784472" lon="6.9029148"><ele></ele><time>2022-5-31T2:22:38Z</time></trkpt>
<trkpt lat="43.4784784" lon="6.9029209"><ele></ele><time>2022-5-31T2:22:41Z</time></trkpt>
<trkpt lat="43.4785152" lon="6.9029338"><ele></ele><time>2022-5-31T2:22:44Z</time></trkpt>
<trkpt lat="43.4785463" lon="6.9029491"><ele></ele><time>2022-5-31T2:22:47Z</time></trkpt>
<trkpt lat="43.4785744" lon="6.9029609"><ele></ele><time>2022-5-31T2:22:50Z</time></trkpt>
<trkpt lat="43.4785967" lon="6.9029688"><ele></ele><time>2022-5-31T2:22:53Z</time></trkpt>
<trkpt lat="43.4786114" lon="6.9029764"><ele></ele><time>2022-5-31T2:22:56Z</time></trkpt>
<trkpt lat="43.4786256" lon="6.9029841"><ele></ele><time>2022-5-31T2:22:59Z</time></trkpt>
<trkpt lat="43.4786460" lon="6.9029958"><ele></ele><time>2022-5-31T2:23:2Z</time></trkpt>
<trkpt lat="43.4786718" lon="6.9030102"><ele></ele><time>2022-5-31T2:23:5Z</time></trkpt>
<trkpt lat="43.4786905" lon="6.9030233"><ele></ele><time>2022-5-31T2:23:8Z</time></trkpt>
<trkpt lat="43.4787085" lon="6.9030346"><ele></ele><time>2022-5-31T2:23:11Z</time></trkpt>
<trkpt lat="43.4787237" lon="6.9030432"><ele></ele><time>2022-5-31T2:23:14Z</time></trkpt>
<trkpt lat="43.4787436" lon="6.9030528"><ele></ele><time>2022-5-31T2:23:17Z</time></trkpt>
<trkpt lat="43.4787636" lon="6.9030610"><ele></ele><time>2022-5-31T2:23:20Z</time></trkpt>
<trkpt lat="43.4787869" lon="6.9030705"><ele></ele><time>2022-5-31T2:23:23Z</time></trkpt>
<trkpt lat="43.4788075" lon="6.9030790"><ele></ele><time>2022-5-31T2:23:26Z</time></trkpt>
<trkpt lat="43.4788304" lon="6.9030880"><ele></ele><time>2022-5-31T2:23:29Z</time></trkpt>
<trkpt lat="43.4788530" lon="6.9030940"><ele></ele><time>2022-5-31T2:23:32Z</time></trkpt>
<trkpt lat="43.4788871" lon="6.9030958"><ele></ele><time>2022-5-31T2:23:35Z</time></trkpt>
<trkpt lat="43.4789083" lon="6.9031054"><ele></ele><time>2022-5-31T2:23:38Z</time></trkpt>
<trkpt lat="43.4789383" lon="6.9031124"><ele></ele><time>2022-5-31T2:23:41Z</time></trkpt>
<trkpt lat="43.4789648" lon="6.9031197"><ele></ele><time>2022-5-31T2:23:44Z</time></trkpt>
<trkpt lat="43.4789904" lon="6.9031277"><ele></ele><time>2022-5-31T2:23:47Z</time></trkpt>
<trkpt lat="43.4790170" lon="6.9031353"><ele></ele><time>2022-5-31T2:23:50Z</time></trkpt>
<trkpt lat="43.4790370" lon="6.9031418"><ele></ele><time>2022-5-31T2:23:53Z</time></trkpt>
<trkpt lat="43.4790588" lon="6.9031486"><ele></ele><time>2022-5-31T2:23:56Z</time></trkpt>
<trkpt lat="43.4790798" lon="6.9031547"><ele></ele><time>2022-5-31T2:23:59Z</time></trkpt>
<trkpt lat="43.4791010" lon="6.9031563"><ele></ele><time>2022-5-31T2:24:2Z</time></trkpt>
<trkpt lat="43.4791229" lon="6.9031495"><ele></ele><time>2022-5-31T2:24:5Z</time></trkpt>
<trkpt lat="43.4791412" lon="6.9031436"><ele></ele><time>2022-5-31T2:24:8Z</time></trkpt>
<trkpt lat="43.4791613" lon="6.9031471"><ele></ele><time>2022-5-31T2:24:11Z</time></trkpt>
<trkpt lat="43.4791794" lon="6.9031478"><ele></ele><time>2022-5-31T2:24:14Z</time></trkpt>
<trkpt lat="43.4791960" lon="6.9031515"><ele></ele><time>2022-5-31T2:24:17Z</time></trkpt>
<trkpt lat="43.4792188" lon="6.9031618"><ele></ele><time>2022-5-31T2:24:20Z</time></trkpt>
<trkpt lat="43.4792343" lon="6.9031754"><ele></ele><time>2022-5-31T2:24:23Z</time></trkpt>
<trkpt lat="43.4792491" lon="6.9031871"><ele></ele><time>2022-5-31T2:24:26Z</time></trkpt>
<trkpt lat="43.4792681" lon="6.9032075"><ele></ele><time>2022-5-31T2:24:29Z</time></trkpt>
<trkpt lat="43.4792814" lon="6.9032290"><ele></ele><time>2022-5-31T2:24:32Z</time></trkpt>
<trkpt lat="43.4792818" lon="6.9032374"><ele></ele><time>2022-5-31T2:24:35Z</time></trkpt>
<trkpt lat="43.4792792" lon="6.9032408"><ele></ele><time>2022-5-31T2:24:38Z</time></trkpt>
<trkpt lat="43.4792705" lon="6.9032302"><ele></ele><time>2022-5-31T2:24:41Z</time></trkpt>
<trkpt lat="43.4792776" lon="6.9032414"><ele></ele><time>2022-5-31T2:24:44Z</time></trkpt>
<trkpt lat="43.4792719" lon="6.9032354"><ele></ele><time>2022-5-31T2:24:47Z</time></trkpt>
<trkpt lat="43.4792717" lon="6.9032363"><ele></ele><time>2022-5-31T2:24:50Z</time></trkpt>
<trkpt lat="43.4792718" lon="6.9032368"><ele></ele><time>2022-5-31T2:24:53Z</time></trkpt>
<trkpt lat="43.4792717" lon="6.9032373"><ele></ele><time>2022-5-31T2:24:56Z</time></trkpt>
<trkpt lat="43.4792718" lon="6.9032379"><ele></ele><time>2022-5-31T2:24:59Z</time></trkpt>
<trkpt lat="43.4792719" lon="6.9032385"><ele></ele><time>2022-5-31T2:25:2Z</time></trkpt>
<trkpt lat="43.4792722" lon="6.9032394"><ele></ele><time>2022-5-31T2:25:5Z</time></trkpt>
<trkpt lat="43.4792726" lon="6.9032404"><ele></ele><time>2022-5-31T2:25:8Z</time></trkpt>
<trkpt lat="43.4792733" lon="6.9032410"><ele></ele><time>2022-5-31T2:25:11Z</time></trkpt>
<trkpt lat="43.4792740" lon="6.9032426"><ele></ele><time>2022-5-31T2:25:14Z</time></trkpt>
<trkpt lat="43.4792751" lon="6.9032472"><ele></ele><time>2022-5-31T2:25:17Z</time></trkpt>
<trkpt lat="43.4792743" lon="6.9032491"><ele></ele><time>2022-5-31T2:25:20Z</time></trkpt>
<trkpt lat="43.4792751" lon="6.9032529"><ele></ele><time>2022-5-31T2:25:23Z</time></trkpt>
<trkpt lat="43.4792749" lon="6.9032522"><ele></ele><time>2022-5-31T2:25:26Z</time></trkpt>
<trkpt lat="43.4792801" lon="6.9032631"><ele></ele><time>2022-5-31T2:25:29Z</time></trkpt>
<trkpt lat="43.4792919" lon="6.9032808"><ele></ele><time>2022-5-31T2:25:32Z</time></trkpt>
<trkpt lat="43.4793053" lon="6.9033033"><ele></ele><time>2022-5-31T2:25:35Z</time></trkpt>
<trkpt lat="43.4793181" lon="6.9033285"><ele></ele><time>2022-5-31T2:25:38Z</time></trkpt>
<trkpt lat="43.4793260" lon="6.9033541"><ele></ele><time>2022-5-31T2:25:41Z</time></trkpt>
<trkpt lat="43.4793278" lon="6.9033707"><ele></ele><time>2022-5-31T2:25:44Z</time></trkpt>
<trkpt lat="43.4793241" lon="6.9033817"><ele></ele><time>2022-5-31T2:25:47Z</time></trkpt>
<trkpt lat="43.4793167" lon="6.9033913"><ele></ele><time>2022-5-31T2:25:50Z</time></trkpt>
<trkpt lat="43.4793032" lon="6.9034051"><ele></ele><time>2022-5-31T2:25:53Z</time></trkpt>
<trkpt lat="43.4792922" lon="6.9034211"><ele></ele><time>2022-5-31T2:25:56Z</time></trkpt>
<trkpt lat="43.4792772" lon="6.9034450"><ele></ele><time>2022-5-31T2:25:59Z</time></trkpt>
<trkpt lat="43.4792639" lon="6.9034654"><ele></ele><time>2022-5-31T2:26:2Z</time></trkpt>
<trkpt lat="43.4792480" lon="6.9034862"><ele></ele><time>2022-5-31T2:26:5Z</time></trkpt>
<trkpt lat="43.4792259" lon="6.9035139"><ele></ele><time>2022-5-31T2:26:8Z</time></trkpt>
<trkpt lat="43.4792002" lon="6.9035518"><ele></ele><time>2022-5-31T2:26:11Z</time></trkpt>
<trkpt lat="43.4791729" lon="6.9036027"><ele></ele><time>2022-5-31T2:26:14Z</time></trkpt>
<trkpt lat="43.4791463" lon="6.9036569"><ele></ele><time>2022-5-31T2:26:17Z</time></trkpt>
<trkpt lat="43.4791263" lon="6.9037073"><ele></ele><time>2022-5-31T2:26:20Z</time></trkpt>
<trkpt lat="43.4790983" lon="6.9037610"><ele></ele><time>2022-5-31T2:26:23Z</time></trkpt>
<trkpt lat="43.4790746" lon="6.9038145"><ele></ele><time>2022-5-31T2:26:26Z</time></trkpt>
<trkpt lat="43.4790501" lon="6.9038734"><ele></ele><time>2022-5-31T2:26:29Z</time></trkpt>
<trkpt lat="43.4790416" lon="6.9039276"><ele></ele><time>2022-5-31T2:26:32Z</time></trkpt>
<trkpt lat="43.4790319" lon="6.9039777"><ele></ele><time>2022-5-31T2:26:35Z</time></trkpt>
<trkpt lat="43.4790191" lon="6.9040199"><ele></ele><time>2022-5-31T2:26:38Z</time></trkpt>
<trkpt lat="43.4790070" lon="6.9040526"><ele></ele><time>2022-5-31T2:26:41Z</time></trkpt>
<trkpt lat="43.4789951" lon="6.9040916"><ele></ele><time>2022-5-31T2:26:44Z</time></trkpt>
<trkpt lat="43.4789871" lon="6.9041306"><ele></ele><time>2022-5-31T2:26:47Z</time></trkpt>
<trkpt lat="43.4789780" lon="6.9041798"><ele></ele><time>2022-5-31T2:26:50Z</time></trkpt>
<trkpt lat="43.4789680" lon="6.9042636"><ele></ele><time>2022-5-31T2:26:53Z</time></trkpt>
<trkpt lat="43.4789684" lon="6.9043339"><ele></ele><time>2022-5-31T2:26:56Z</time></trkpt>
<trkpt lat="43.4789635" lon="6.9043888"><ele></ele><time>2022-5-31T2:26:59Z</time></trkpt>
<trkpt lat="43.4789613" lon="6.9044375"><ele></ele><time>2022-5-31T2:27:2Z</time></trkpt>
<trkpt lat="43.4789516" lon="6.9044850"><ele></ele><time>2022-5-31T2:27:5Z</time></trkpt>
<trkpt lat="43.4789528" lon="6.9045237"><ele></ele><time>2022-5-31T2:27:8Z</time></trkpt>
<trkpt lat="43.4789575" lon="6.9045470"><ele></ele><time>2022-5-31T2:27:11Z</time></trkpt>
<trkpt lat="43.4789678" lon="6.9045480"><ele></ele><time>2022-5-31T2:27:14Z</time></trkpt>
<trkpt lat="43.4789647" lon="6.9045471"><ele></ele><time>2022-5-31T2:27:17Z</time></trkpt>
<trkpt lat="43.4789701" lon="6.9045474"><ele></ele><time>2022-5-31T2:27:20Z</time></trkpt>
<trkpt lat="43.4789708" lon="6.9045479"><ele></ele><time>2022-5-31T2:27:23Z</time></trkpt>
<trkpt lat="43.4789696" lon="6.9045472"><ele></ele><time>2022-5-31T2:27:26Z</time></trkpt>
<trkpt lat="43.4789717" lon="6.9045562"><ele></ele><time>2022-5-31T2:27:29Z</time></trkpt>
<trkpt lat="43.4789818" lon="6.9045660"><ele></ele><time>2022-5-31T2:27:32Z</time></trkpt>
<trkpt lat="43.4789883" lon="6.9045797"><ele></ele><time>2022-5-31T2:27:35Z</time></trkpt>
<trkpt lat="43.4789930" lon="6.9045911"><ele></ele><time>2022-5-31T2:27:38Z</time></trkpt>
<trkpt lat="43.4789992" lon="6.9045981"><ele></ele><time>2022-5-31T2:27:41Z</time></trkpt>
<trkpt lat="43.4790063" lon="6.9046044"><ele></ele><time>2022-5-31T2:27:44Z</time></trkpt>
<trkpt lat="43.4790111" lon="6.9046155"><ele></ele><time>2022-5-31T2:27:47Z</time></trkpt>
<trkpt lat="43.4790304" lon="6.9046156"><ele></ele><time>2022-5-31T2:27:50Z</time></trkpt>
<trkpt lat="43.4790471" lon="6.9046205"><ele></ele><time>2022-5-31T2:27:53Z</time></trkpt>
<trkpt lat="43.4790434" lon="6.9046453"><ele></ele><time>2022-5-31T2:27:56Z</time></trkpt>
<trkpt lat="43.4790597" lon="6.9046577"><ele></ele><time>2022-5-31T2:27:59Z</time></trkpt>
<trkpt lat="43.4790767" lon="6.9046610"><ele></ele><time>2022-5-31T2:28:2Z</time></trkpt>
<trkpt lat="43.4790702" lon="6.9046852"><ele></ele><time>2022-5-31T2:28:5Z</time></trkpt>
<trkpt lat="43.4790671" lon="6.9047040"><ele></ele><time>2022-5-31T2:28:8Z</time></trkpt>
<trkpt lat="43.4790644" lon="6.9047285"><ele></ele><time>2022-5-31T2:28:11Z</time></trkpt>
<trkpt lat="43.4790617" lon="6.9047757"><ele></ele><time>2022-5-31T2:28:14Z</time></trkpt>
<trkpt lat="43.4790407" lon="6.9048482"><ele></ele><time>2022-5-31T2:28:17Z</time></trkpt>
<trkpt lat="43.4790433" lon="6.9049109"><ele></ele><time>2022-5-31T2:28:20Z</time></trkpt>
<trkpt lat="43.4790555" lon="6.9049589"><ele></ele><time>2022-5-31T2:28:23Z</time></trkpt>
<trkpt lat="43.4790586" lon="6.9050193"><ele></ele><time>2022-5-31T2:28:26Z</time></trkpt>
<trkpt lat="43.4790429" lon="6.9050807"><ele></ele><time>2022-5-31T2:28:29Z</time></trkpt>
<trkpt lat="43.4790379" lon="6.9051362"><ele></ele><time>2022-5-31T2:28:32Z</time></trkpt>
<trkpt lat="43.4790396" lon="6.9051784"><ele></ele><time>2022-5-31T2:28:35Z</time></trkpt>
<trkpt lat="43.4790522" lon="6.9052249"><ele></ele><time>2022-5-31T2:28:38Z</time></trkpt>
<trkpt lat="43.4790697" lon="6.9052789"><ele></ele><time>2022-5-31T2:28:41Z</time></trkpt>
<trkpt lat="43.4790586" lon="6.9053385"><ele></ele><time>2022-5-31T2:28:44Z</time></trkpt>
<trkpt lat="43.4790527" lon="6.9053946"><ele></ele><time>2022-5-31T2:28:47Z</time></trkpt>
<trkpt lat="43.4790336" lon="6.9054523"><ele></ele><time>2022-5-31T2:28:50Z</time></trkpt>
<trkpt lat="43.4790334" lon="6.9054908"><ele></ele><time>2022-5-31T2:28:53Z</time></trkpt>
<trkpt lat="43.4790154" lon="6.9055325"><ele></ele><time>2022-5-31T2:28:56Z</time></trkpt>
<trkpt lat="43.4790053" lon="6.9055642"><ele></ele><time>2022-5-31T2:28:59Z</time></trkpt>
<trkpt lat="43.4789993" lon="6.9055991"><ele></ele><time>2022-5-31T2:29:2Z</time></trkpt>
<trkpt lat="43.4789937" lon="6.9056366"><ele></ele><time>2022-5-31T2:29:5Z</time></trkpt>
<trkpt lat="43.4789789" lon="6.9056790"><ele></ele><time>2022-5-31T2:29:8Z</time></trkpt>
<trkpt lat="43.4789670" lon="6.9057270"><ele></ele><time>2022-5-31T2:29:11Z</time></trkpt>
<trkpt lat="43.4789570" lon="6.9057732"><ele></ele><time>2022-5-31T2:29:14Z</time></trkpt>
<trkpt lat="43.4789449" lon="6.9058130"><ele></ele><time>2022-5-31T2:29:17Z</time></trkpt>
<trkpt lat="43.4789390" lon="6.9058469"><ele></ele><time>2022-5-31T2:29:20Z</time></trkpt>
<trkpt lat="43.4789301" lon="6.9058852"><ele></ele><time>2022-5-31T2:29:23Z</time></trkpt>
<trkpt lat="43.4789244" lon="6.9059217"><ele></ele><time>2022-5-31T2:29:26Z</time></trkpt>
<trkpt lat="43.4789148" lon="6.9059568"><ele></ele><time>2022-5-31T2:29:29Z</time></trkpt>
<trkpt lat="43.4788922" lon="6.9059873"><ele></ele><time>2022-5-31T2:29:32Z</time></trkpt>
<trkpt lat="43.4788734" lon="6.9060326"><ele></ele><time>2022-5-31T2:29:35Z</time></trkpt>
<trkpt lat="43.4788572" lon="6.9060855"><ele></ele><time>2022-5-31T2:29:38Z</time></trkpt>
<trkpt lat="43.4788449" lon="6.9061370"><ele></ele><time>2022-5-31T2:29:41Z</time></trkpt>
<trkpt lat="43.4788142" lon="6.9062175"><ele></ele><time>2022-5-31T2:29:44Z</time></trkpt>
<trkpt lat="43.4787645" lon="6.9063034"><ele></ele><time>2022-5-31T2:29:47Z</time></trkpt>
<trkpt lat="43.4787444" lon="6.9063573"><ele></ele><time>2022-5-31T2:29:50Z</time></trkpt>
<trkpt lat="43.4787246" lon="6.9063971"><ele></ele><time>2022-5-31T2:29:53Z</time></trkpt>
<trkpt lat="43.4787036" lon="6.9064341"><ele></ele><time>2022-5-31T2:29:56Z</time></trkpt>
<trkpt lat="43.4786847" lon="6.9064714"><ele></ele><time>2022-5-31T2:29:59Z</time></trkpt>
<trkpt lat="43.4786553" lon="6.9065012"><ele></ele><time>2022-5-31T2:30:2Z</time></trkpt>
<trkpt lat="43.4786234" lon="6.9065356"><ele></ele><time>2022-5-31T2:30:5Z</time></trkpt>
<trkpt lat="43.4785921" lon="6.9065710"><ele></ele><time>2022-5-31T2:30:8Z</time></trkpt>
<trkpt lat="43.4785568" lon="6.9066036"><ele></ele><time>2022-5-31T2:30:11Z</time></trkpt>
<trkpt lat="43.4785221" lon="6.9066389"><ele></ele><time>2022-5-31T2:30:14Z</time></trkpt>
<trkpt lat="43.4784892" lon="6.9066663"><ele></ele><time>2022-5-31T2:30:17Z</time></trkpt>
<trkpt lat="43.4784546" lon="6.9066936"><ele></ele><time>2022-5-31T2:30:20Z</time></trkpt>
<trkpt lat="43.4784228" lon="6.9067231"><ele></ele><time>2022-5-31T2:30:23Z</time></trkpt>
<trkpt lat="43.4783910" lon="6.9067586"><ele></ele><time>2022-5-31T2:30:26Z</time></trkpt>
<trkpt lat="43.4783642" lon="6.9067952"><ele></ele><time>2022-5-31T2:30:29Z</time></trkpt>
<trkpt lat="43.4783418" lon="6.9068281"><ele></ele><time>2022-5-31T2:30:32Z</time></trkpt>
<trkpt lat="43.4783209" lon="6.9068586"><ele></ele><time>2022-5-31T2:30:35Z</time></trkpt>
<trkpt lat="43.4783028" lon="6.9068836"><ele></ele><time>2022-5-31T2:30:38Z</time></trkpt>
<trkpt lat="43.4782827" lon="6.9069100"><ele></ele><time>2022-5-31T2:30:41Z</time></trkpt>
<trkpt lat="43.4782584" lon="6.9069373"><ele></ele><time>2022-5-31T2:30:44Z</time></trkpt>
<trkpt lat="43.4782370" lon="6.9069605"><ele></ele><time>2022-5-31T2:30:47Z</time></trkpt>
<trkpt lat="43.4782189" lon="6.9069697"><ele></ele><time>2022-5-31T2:30:50Z</time></trkpt>
<trkpt lat="43.4782015" lon="6.9069707"><ele></ele><time>2022-5-31T2:30:53Z</time></trkpt>
<trkpt lat="43.4781918" lon="6.9069683"><ele></ele><time>2022-5-31T2:30:56Z</time></trkpt>
<trkpt lat="43.4781795" lon="6.9069808"><ele></ele><time>2022-5-31T2:30:59Z</time></trkpt>
<trkpt lat="43.4781658" lon="6.9069945"><ele></ele><time>2022-5-31T2:31:2Z</time></trkpt>
<trkpt lat="43.4781411" lon="6.9070060"><ele></ele><time>2022-5-31T2:31:5Z</time></trkpt>
<trkpt lat="43.4781117" lon="6.9070283"><ele></ele><time>2022-5-31T2:31:8Z</time></trkpt>
<trkpt lat="43.4780872" lon="6.9070458"><ele></ele><time>2022-5-31T2:31:11Z</time></trkpt>
<trkpt lat="43.4780527" lon="6.9070513"><ele></ele><time>2022-5-31T2:31:14Z</time></trkpt>
<trkpt lat="43.4780189" lon="6.9070790"><ele></ele><time>2022-5-31T2:31:17Z</time></trkpt>
<trkpt lat="43.4779950" lon="6.9071162"><ele></ele><time>2022-5-31T2:31:20Z</time></trkpt>
<trkpt lat="43.4779653" lon="6.9071494"><ele></ele><time>2022-5-31T2:31:23Z</time></trkpt>
<trkpt lat="43.4779241" lon="6.9071671"><ele></ele><time>2022-5-31T2:31:26Z</time></trkpt>
<trkpt lat="43.4778860" lon="6.9071906"><ele></ele><time>2022-5-31T2:31:29Z</time></trkpt>
<trkpt lat="43.4778597" lon="6.9072291"><ele></ele><time>2022-5-31T2:31:32Z</time></trkpt>
<trkpt lat="43.4778450" lon="6.9072712"><ele></ele><time>2022-5-31T2:31:35Z</time></trkpt>
<trkpt lat="43.4778300" lon="6.9073063"><ele></ele><time>2022-5-31T2:31:38Z</time></trkpt>
<trkpt lat="43.4778085" lon="6.9073450"><ele></ele><time>2022-5-31T2:31:41Z</time></trkpt>
<trkpt lat="43.4777868" lon="6.9073894"><ele></ele><time>2022-5-31T2:31:44Z</time></trkpt>
<trkpt lat="43.4777541" lon="6.9074291"><ele></ele><time>2022-5-31T2:31:47Z</time></trkpt>
<trkpt lat="43.4777186" lon="6.9074699"><ele></ele><time>2022-5-31T2:31:50Z</time></trkpt>
<trkpt lat="43.4776875" lon="6.9075170"><ele></ele><time>2022-5-31T2:31:53Z</time></trkpt>
<trkpt lat="43.4776645" lon="6.9075439"><ele></ele><time>2022-5-31T2:31:56Z</time></trkpt>
<trkpt lat="43.4776470" lon="6.9075593"><ele></ele><time>2022-5-31T2:31:59Z</time></trkpt>
<trkpt lat="43.4776325" lon="6.9075632"><ele></ele><time>2022-5-31T2:32:2Z</time></trkpt>
<trkpt lat="43.4776192" lon="6.9075794"><ele></ele><time>2022-5-31T2:32:5Z</time></trkpt>
<trkpt lat="43.4776152" lon="6.9076047"><ele></ele><time>2022-5-31T2:32:8Z</time></trkpt>
<trkpt lat="43.4776283" lon="6.9076365"><ele></ele><time>2022-5-31T2:32:11Z</time></trkpt>
<trkpt lat="43.4776516" lon="6.9076611"><ele></ele><time>2022-5-31T2:32:14Z</time></trkpt>
<trkpt lat="43.4776706" lon="6.9076950"><ele></ele><time>2022-5-31T2:32:17Z</time></trkpt>
<trkpt lat="43.4776832" lon="6.9077243"><ele></ele><time>2022-5-31T2:32:20Z</time></trkpt>
<trkpt lat="43.4777052" lon="6.9077538"><ele></ele><time>2022-5-31T2:32:23Z</time></trkpt>
<trkpt lat="43.4777388" lon="6.9077773"><ele></ele><time>2022-5-31T2:32:26Z</time></trkpt>
<trkpt lat="43.4777750" lon="6.9077800"><ele></ele><time>2022-5-31T2:32:29Z</time></trkpt>
<trkpt lat="43.4778357" lon="6.9077701"><ele></ele><time>2022-5-31T2:32:32Z</time></trkpt>
<trkpt lat="43.4778429" lon="6.9077888"><ele></ele><time>2022-5-31T2:32:35Z</time></trkpt>
<trkpt lat="43.4778675" lon="6.9078081"><ele></ele><time>2022-5-31T2:32:38Z</time></trkpt>
<trkpt lat="43.4779192" lon="6.9078166"><ele></ele><time>2022-5-31T2:32:41Z</time></trkpt>
<trkpt lat="43.4779870" lon="6.9078638"><ele></ele><time>2022-5-31T2:32:44Z</time></trkpt>
<trkpt lat="43.4780431" lon="6.9079238"><ele></ele><time>2022-5-31T2:32:47Z</time></trkpt>
<trkpt lat="43.4780902" lon="6.9079698"><ele></ele><time>2022-5-31T2:32:50Z</time></trkpt>
<trkpt lat="43.4781498" lon="6.9079947"><ele></ele><time>2022-5-31T2:32:53Z</time></trkpt>
<trkpt lat="43.4781476" lon="6.9080151"><ele></ele><time>2022-5-31T2:32:56Z</time></trkpt>
<trkpt lat="43.4780529" lon="6.9079994"><ele></ele><time>2022-5-31T2:32:59Z</time></trkpt>
<trkpt lat="43.4780091" lon="6.9080765"><ele></ele><time>2022-5-31T2:33:2Z</time></trkpt>
<trkpt lat="43.4779827" lon="6.9081249"><ele></ele><time>2022-5-31T2:33:5Z</time></trkpt>
<trkpt lat="43.4779854" lon="6.9081784"><ele></ele><time>2022-5-31T2:33:8Z</time></trkpt>
<trkpt lat="43.4780096" lon="6.9082058"><ele></ele><time>2022-5-31T2:33:11Z</time></trkpt>
<trkpt lat="43.4780404" lon="6.9082519"><ele></ele><time>2022-5-31T2:33:14Z</time></trkpt>
<trkpt lat="43.4780638" lon="6.9083083"><ele></ele><time>2022-5-31T2:33:17Z</time></trkpt>
<trkpt lat="43.4780845" lon="6.9083888"><ele></ele><time>2022-5-31T2:33:20Z</time></trkpt>
<trkpt lat="43.4781074" lon="6.9084810"><ele></ele><time>2022-5-31T2:33:23Z</time></trkpt>
<trkpt lat="43.4781374" lon="6.9085565"><ele></ele><time>2022-5-31T2:33:26Z</time></trkpt>
<trkpt lat="43.4781481" lon="6.9086023"><ele></ele><time>2022-5-31T2:33:29Z</time></trkpt>
<trkpt lat="43.4781645" lon="6.9086494"><ele></ele><time>2022-5-31T2:33:32Z</time></trkpt>
<trkpt lat="43.4781781" lon="6.9086835"><ele></ele><time>2022-5-31T2:33:35Z</time></trkpt>
<trkpt lat="43.4781765" lon="6.9087146"><ele></ele><time>2022-5-31T2:33:38Z</time></trkpt>
<trkpt lat="43.4781956" lon="6.9087957"><ele></ele><time>2022-5-31T2:33:41Z</time></trkpt>
<trkpt lat="43.4781962" lon="6.9088871"><ele></ele><time>2022-5-31T2:33:44Z</time></trkpt>
<trkpt lat="43.4782039" lon="6.9089632"><ele></ele><time>2022-5-31T2:33:47Z</time></trkpt>
<trkpt lat="43.4782095" lon="6.9090234"><ele></ele><time>2022-5-31T2:33:50Z</time></trkpt>
<trkpt lat="43.4782054" lon="6.9090927"><ele></ele><time>2022-5-31T2:33:53Z</time></trkpt>
<trkpt lat="43.4782039" lon="6.9091576"><ele></ele><time>2022-5-31T2:33:56Z</time></trkpt>
<trkpt lat="43.4782149" lon="6.9092143"><ele></ele><time>2022-5-31T2:33:59Z</time></trkpt>
<trkpt lat="43.4782362" lon="6.9092740"><ele></ele><time>2022-5-31T2:34:2Z</time></trkpt>
<trkpt lat="43.4782629" lon="6.9093300"><ele></ele><time>2022-5-31T2:34:5Z</time></trkpt>
<trkpt lat="43.4782992" lon="6.9093782"><ele></ele><time>2022-5-31T2:34:8Z</time></trkpt>
<trkpt lat="43.4783432" lon="6.9094118"><ele></ele><time>2022-5-31T2:34:11Z</time></trkpt>
<trkpt lat="43.4783923" lon="6.9094348"><ele></ele><time>2022-5-31T2:34:14Z</time></trkpt>
<trkpt lat="43.4784325" lon="6.9094690"><ele></ele><time>2022-5-31T2:34:17Z</time></trkpt>
<trkpt lat="43.4784522" lon="6.9094997"><ele></ele><time>2022-5-31T2:34:20Z</time></trkpt>
<trkpt lat="43.4784589" lon="6.9095262"><ele></ele><time>2022-5-31T2:34:23Z</time></trkpt>
<trkpt lat="43.4784696" lon="6.9095503"><ele></ele><time>2022-5-31T2:34:26Z</time></trkpt>
<trkpt lat="43.4784622" lon="6.9095465"><ele></ele><time>2022-5-31T2:34:29Z</time></trkpt>
<trkpt lat="43.4784670" lon="6.9095640"><ele></ele><time>2022-5-31T2:34:32Z</time></trkpt>
<trkpt lat="43.4784848" lon="6.9095558"><ele></ele><time>2022-5-31T2:34:35Z</time></trkpt>
<trkpt lat="43.4784721" lon="6.9095150"><ele></ele><time>2022-5-31T2:34:38Z</time></trkpt>
<trkpt lat="43.4784794" lon="6.9095271"><ele></ele><time>2022-5-31T2:34:41Z</time></trkpt>
<trkpt lat="43.4785000" lon="6.9095601"><ele></ele><time>2022-5-31T2:34:44Z</time></trkpt>
<trkpt lat="43.4785318" lon="6.9096095"><ele></ele><time>2022-5-31T2:34:47Z</time></trkpt>
<trkpt lat="43.4785528" lon="6.9096584"><ele></ele><time>2022-5-31T2:34:50Z</time></trkpt>
<trkpt lat="43.4785945" lon="6.9097107"><ele></ele><time>2022-5-31T2:34:53Z</time></trkpt>
<trkpt lat="43.4786342" lon="6.9097637"><ele></ele><time>2022-5-31T2:34:56Z</time></trkpt>
<trkpt lat="43.4786750" lon="6.9098062"><ele></ele><time>2022-5-31T2:34:59Z</time></trkpt>
<trkpt lat="43.4787170" lon="6.9098590"><ele></ele><time>2022-5-31T2:35:2Z</time></trkpt>
<trkpt lat="43.4787682" lon="6.9099072"><ele></ele><time>2022-5-31T2:35:5Z</time></trkpt>
<trkpt lat="43.4788037" lon="6.9099575"><ele></ele><time>2022-5-31T2:35:8Z</time></trkpt>
<trkpt lat="43.4788330" lon="6.9099939"><ele></ele><time>2022-5-31T2:35:11Z</time></trkpt>
<trkpt lat="43.4788613" lon="6.9100241"><ele></ele><time>2022-5-31T2:35:14Z</time></trkpt>
<trkpt lat="43.4788787" lon="6.9100468"><ele></ele><time>2022-5-31T2:35:17Z</time></trkpt>
<trkpt lat="43.4788912" lon="6.9100550"><ele></ele><time>2022-5-31T2:35:20Z</time></trkpt>
<trkpt lat="43.4788960" lon="6.9100552"><ele></ele><time>2022-5-31T2:35:23Z</time></trkpt>
<trkpt lat="43.4789006" lon="6.9100561"><ele></ele><time>2022-5-31T2:35:26Z</time></trkpt>
<trkpt lat="43.4789031" lon="6.9100607"><ele></ele><time>2022-5-31T2:35:29Z</time></trkpt>
<trkpt lat="43.4789031" lon="6.9100573"><ele></ele><time>2022-5-31T2:35:32Z</time></trkpt>
<trkpt lat="43.4789032" lon="6.9100569"><ele></ele><time>2022-5-31T2:35:35Z</time></trkpt>
<trkpt lat="43.4789033" lon="6.9100573"><ele></ele><time>2022-5-31T2:35:38Z</time></trkpt>
<trkpt lat="43.4789035" lon="6.9100580"><ele></ele><time>2022-5-31T2:35:41Z</time></trkpt>
<trkpt lat="43.4789035" lon="6.9100583"><ele></ele><time>2022-5-31T2:35:44Z</time></trkpt>
<trkpt lat="43.4789036" lon="6.9100587"><ele></ele><time>2022-5-31T2:35:47Z</time></trkpt>
<trkpt lat="43.4789036" lon="6.9100595"><ele></ele><time>2022-5-31T2:35:50Z</time></trkpt>
<trkpt lat="43.4789034" lon="6.9100600"><ele></ele><time>2022-5-31T2:35:53Z</time></trkpt>
<trkpt lat="43.4789033" lon="6.9100603"><ele></ele><time>2022-5-31T2:35:56Z</time></trkpt>
<trkpt lat="43.4789030" lon="6.9100607"><ele></ele><time>2022-5-31T2:35:59Z</time></trkpt>
<trkpt lat="43.4789026" lon="6.9100613"><ele></ele><time>2022-5-31T2:36:2Z</time></trkpt>
<trkpt lat="43.4789022" lon="6.9100620"><ele></ele><time>2022-5-31T2:36:5Z</time></trkpt>
<trkpt lat="43.4789023" lon="6.9100621"><ele></ele><time>2022-5-31T2:36:8Z</time></trkpt>
<trkpt lat="43.4789030" lon="6.9100620"><ele></ele><time>2022-5-31T2:36:11Z</time></trkpt>
<trkpt lat="43.4789028" lon="6.9100621"><ele></ele><time>2022-5-31T2:36:14Z</time></trkpt>
<trkpt lat="43.4789027" lon="6.9100622"><ele></ele><time>2022-5-31T2:36:17Z</time></trkpt>
<trkpt lat="43.4789028" lon="6.9100622"><ele></ele><time>2022-5-31T2:36:20Z</time></trkpt>
<trkpt lat="43.4789028" lon="6.9100622"><ele></ele><time>2022-5-31T2:36:23Z</time></trkpt>
<trkpt lat="43.4789028" lon="6.9100620"><ele></ele><time>2022-5-31T2:36:26Z</time></trkpt>
<trkpt lat="43.4789028" lon="6.9100618"><ele></ele><time>2022-5-31T2:36:29Z</time></trkpt>
<trkpt lat="43.4789030" lon="6.9100615"><ele></ele><time>2022-5-31T2:36:32Z</time></trkpt>
<trkpt lat="43.4789029" lon="6.9100615"><ele></ele><time>2022-5-31T2:36:35Z</time></trkpt>
<trkpt lat="43.4789028" lon="6.9100619"><ele></ele><time>2022-5-31T2:36:38Z</time></trkpt>
<trkpt lat="43.4789034" lon="6.9100610"><ele></ele><time>2022-5-31T2:36:41Z</time></trkpt>
<trkpt lat="43.4789038" lon="6.9100606"><ele></ele><time>2022-5-31T2:36:44Z</time></trkpt>
<trkpt lat="43.4789042" lon="6.9100613"><ele></ele><time>2022-5-31T2:36:47Z</time></trkpt>
<trkpt lat="43.4789043" lon="6.9100620"><ele></ele><time>2022-5-31T2:36:50Z</time></trkpt>
<trkpt lat="43.4789119" lon="6.9100737"><ele></ele><time>2022-5-31T2:36:53Z</time></trkpt>
<trkpt lat="43.4789225" lon="6.9100885"><ele></ele><time>2022-5-31T2:36:56Z</time></trkpt>
<trkpt lat="43.4789349" lon="6.9101061"><ele></ele><time>2022-5-31T2:36:59Z</time></trkpt>
<trkpt lat="43.4789531" lon="6.9101282"><ele></ele><time>2022-5-31T2:37:2Z</time></trkpt>
<trkpt lat="43.4789783" lon="6.9101472"><ele></ele><time>2022-5-31T2:37:5Z</time></trkpt>
<trkpt lat="43.4790134" lon="6.9101728"><ele></ele><time>2022-5-31T2:37:8Z</time></trkpt>
<trkpt lat="43.4790497" lon="6.9102046"><ele></ele><time>2022-5-31T2:37:11Z</time></trkpt>
<trkpt lat="43.4790870" lon="6.9102389"><ele></ele><time>2022-5-31T2:37:14Z</time></trkpt>
<trkpt lat="43.4791269" lon="6.9102721"><ele></ele><time>2022-5-31T2:37:17Z</time></trkpt>
<trkpt lat="43.4791686" lon="6.9103074"><ele></ele><time>2022-5-31T2:37:20Z</time></trkpt>
<trkpt lat="43.4792142" lon="6.9103413"><ele></ele><time>2022-5-31T2:37:23Z</time></trkpt>
<trkpt lat="43.4792596" lon="6.9103732"><ele></ele><time>2022-5-31T2:37:26Z</time></trkpt>
<trkpt lat="43.4793039" lon="6.9104013"><ele></ele><time>2022-5-31T2:37:29Z</time></trkpt>
<trkpt lat="43.4793462" lon="6.9104305"><ele></ele><time>2022-5-31T2:37:32Z</time></trkpt>
<trkpt lat="43.4793915" lon="6.9104645"><ele></ele><time>2022-5-31T2:37:35Z</time></trkpt>
<trkpt lat="43.4794341" lon="6.9104978"><ele></ele><time>2022-5-31T2:37:38Z</time></trkpt>
<trkpt lat="43.4794715" lon="6.9105323"><ele></ele><time>2022-5-31T2:37:41Z</time></trkpt>
<trkpt lat="43.4795032" lon="6.9105708"><ele></ele><time>2022-5-31T2:37:44Z</time></trkpt>
<trkpt lat="43.4795344" lon="6.9106067"><ele></ele><time>2022-5-31T2:37:47Z</time></trkpt>
<trkpt lat="43.4795683" lon="6.9106427"><ele></ele><time>2022-5-31T2:37:50Z</time></trkpt>
<trkpt lat="43.4796027" lon="6.9106804"><ele></ele><time>2022-5-31T2:37:53Z</time></trkpt>
<trkpt lat="43.4796329" lon="6.9107181"><ele></ele><time>2022-5-31T2:37:56Z</time></trkpt>
<trkpt lat="43.4796589" lon="6.9107576"><ele></ele><time>2022-5-31T2:37:59Z</time></trkpt>
<trkpt lat="43.4796834" lon="6.9107955"><ele></ele><time>2022-5-31T2:38:2Z</time></trkpt>
<trkpt lat="43.4797064" lon="6.9108363"><ele></ele><time>2022-5-31T2:38:5Z</time></trkpt>
<trkpt lat="43.4797277" lon="6.9108765"><ele></ele><time>2022-5-31T2:38:8Z</time></trkpt>
<trkpt lat="43.4797500" lon="6.9109121"><ele></ele><time>2022-5-31T2:38:11Z</time></trkpt>
<trkpt lat="43.4797695" lon="6.9109456"><ele></ele><time>2022-5-31T2:38:14Z</time></trkpt>
<trkpt lat="43.4797898" lon="6.9109851"><ele></ele><time>2022-5-31T2:38:17Z</time></trkpt>
<trkpt lat="43.4798115" lon="6.9110260"><ele></ele><time>2022-5-31T2:38:20Z</time></trkpt>
<trkpt lat="43.4798244" lon="6.9110598"><ele></ele><time>2022-5-31T2:38:23Z</time></trkpt>
<trkpt lat="43.4798417" lon="6.9110815"><ele></ele><time>2022-5-31T2:38:26Z</time></trkpt>
<trkpt lat="43.4798625" lon="6.9111021"><ele></ele><time>2022-5-31T2:38:29Z</time></trkpt>
<trkpt lat="43.4798847" lon="6.9111289"><ele></ele><time>2022-5-31T2:38:32Z</time></trkpt>
<trkpt lat="43.4799056" lon="6.9111569"><ele></ele><time>2022-5-31T2:38:35Z</time></trkpt>
<trkpt lat="43.4799305" lon="6.9111847"><ele></ele><time>2022-5-31T2:38:38Z</time></trkpt>
<trkpt lat="43.4799569" lon="6.9112169"><ele></ele><time>2022-5-31T2:38:41Z</time></trkpt>
<trkpt lat="43.4799875" lon="6.9112513"><ele></ele><time>2022-5-31T2:38:44Z</time></trkpt>
<trkpt lat="43.4800236" lon="6.9112876"><ele></ele><time>2022-5-31T2:38:47Z</time></trkpt>
<trkpt lat="43.4800632" lon="6.9113209"><ele></ele><time>2022-5-31T2:38:50Z</time></trkpt>
<trkpt lat="43.4800997" lon="6.9113526"><ele></ele><time>2022-5-31T2:38:53Z</time></trkpt>
<trkpt lat="43.4801387" lon="6.9113838"><ele></ele><time>2022-5-31T2:38:56Z</time></trkpt>
<trkpt lat="43.4801745" lon="6.9114060"><ele></ele><time>2022-5-31T2:38:59Z</time></trkpt>
<trkpt lat="43.4802040" lon="6.9114264"><ele></ele><time>2022-5-31T2:39:2Z</time></trkpt>
<trkpt lat="43.4802208" lon="6.9114482"><ele></ele><time>2022-5-31T2:39:5Z</time></trkpt>
<trkpt lat="43.4802351" lon="6.9114660"><ele></ele><time>2022-5-31T2:39:8Z</time></trkpt>
<trkpt lat="43.4802510" lon="6.9114794"><ele></ele><time>2022-5-31T2:39:11Z</time></trkpt>
<trkpt lat="43.4802706" lon="6.9114877"><ele></ele><time>2022-5-31T2:39:14Z</time></trkpt>
<trkpt lat="43.4802866" lon="6.9114938"><ele></ele><time>2022-5-31T2:39:17Z</time></trkpt>
<trkpt lat="43.4803073" lon="6.9115064"><ele></ele><time>2022-5-31T2:39:20Z</time></trkpt>
<trkpt lat="43.4803249" lon="6.9115337"><ele></ele><time>2022-5-31T2:39:23Z</time></trkpt>
<trkpt lat="43.4803436" lon="6.9115710"><ele></ele><time>2022-5-31T2:39:26Z</time></trkpt>
<trkpt lat="43.4803643" lon="6.9116079"><ele></ele><time>2022-5-31T2:39:29Z</time></trkpt>
<trkpt lat="43.4803880" lon="6.9116361"><ele></ele><time>2022-5-31T2:39:32Z</time></trkpt>
<trkpt lat="43.4804079" lon="6.9116675"><ele></ele><time>2022-5-31T2:39:35Z</time></trkpt>
<trkpt lat="43.4804289" lon="6.9116830"><ele></ele><time>2022-5-31T2:39:38Z</time></trkpt>
<trkpt lat="43.4804490" lon="6.9116884"><ele></ele><time>2022-5-31T2:39:41Z</time></trkpt>
<trkpt lat="43.4804646" lon="6.9116892"><ele></ele><time>2022-5-31T2:39:44Z</time></trkpt>
<trkpt lat="43.4804804" lon="6.9116899"><ele></ele><time>2022-5-31T2:39:47Z</time></trkpt>
<trkpt lat="43.4804972" lon="6.9116892"><ele></ele><time>2022-5-31T2:39:50Z</time></trkpt>
<trkpt lat="43.4805127" lon="6.9116745"><ele></ele><time>2022-5-31T2:39:53Z</time></trkpt>
<trkpt lat="43.4805321" lon="6.9116646"><ele></ele><time>2022-5-31T2:39:56Z</time></trkpt>
<trkpt lat="43.4805545" lon="6.9116529"><ele></ele><time>2022-5-31T2:39:59Z</time></trkpt>
<trkpt lat="43.4805801" lon="6.9116358"><ele></ele><time>2022-5-31T2:40:2Z</time></trkpt>
<trkpt lat="43.4806057" lon="6.9116238"><ele></ele><time>2022-5-31T2:40:5Z</time></trkpt>
<trkpt lat="43.4806340" lon="6.9116190"><ele></ele><time>2022-5-31T2:40:8Z</time></trkpt>
<trkpt lat="43.4806562" lon="6.9116045"><ele></ele><time>2022-5-31T2:40:11Z</time></trkpt>
<trkpt lat="43.4806784" lon="6.9115728"><ele></ele><time>2022-5-31T2:40:14Z</time></trkpt>
<trkpt lat="43.4806990" lon="6.9115291"><ele></ele><time>2022-5-31T2:40:17Z</time></trkpt>
<trkpt lat="43.4807205" lon="6.9114839"><ele></ele><time>2022-5-31T2:40:20Z</time></trkpt>
<trkpt lat="43.4807490" lon="6.9114498"><ele></ele><time>2022-5-31T2:40:23Z</time></trkpt>
<trkpt lat="43.4807877" lon="6.9114182"><ele></ele><time>2022-5-31T2:40:26Z</time></trkpt>
<trkpt lat="43.4808350" lon="6.9113874"><ele></ele><time>2022-5-31T2:40:29Z</time></trkpt>
<trkpt lat="43.4808807" lon="6.9113511"><ele></ele><time>2022-5-31T2:40:32Z</time></trkpt>
<trkpt lat="43.4809266" lon="6.9113207"><ele></ele><time>2022-5-31T2:40:35Z</time></trkpt>
<trkpt lat="43.4809737" lon="6.9112871"><ele></ele><time>2022-5-31T2:40:38Z</time></trkpt>
<trkpt lat="43.4810220" lon="6.9112426"><ele></ele><time>2022-5-31T2:40:41Z</time></trkpt>
<trkpt lat="43.4810617" lon="6.9112119"><ele></ele><time>2022-5-31T2:40:44Z</time></trkpt>
<trkpt lat="43.4811132" lon="6.9111729"><ele></ele><time>2022-5-31T2:40:47Z</time></trkpt>
<trkpt lat="43.4811644" lon="6.9111432"><ele></ele><time>2022-5-31T2:40:50Z</time></trkpt>
<trkpt lat="43.4811960" lon="6.9111109"><ele></ele><time>2022-5-31T2:40:53Z</time></trkpt>
<trkpt lat="43.4812381" lon="6.9110869"><ele></ele><time>2022-5-31T2:40:56Z</time></trkpt>
<trkpt lat="43.4812866" lon="6.9110509"><ele></ele><time>2022-5-31T2:40:59Z</time></trkpt>
<trkpt lat="43.4813366" lon="6.9110161"><ele></ele><time>2022-5-31T2:41:2Z</time></trkpt>
<trkpt lat="43.4813873" lon="6.9109833"><ele></ele><time>2022-5-31T2:41:5Z</time></trkpt>
<trkpt lat="43.4814377" lon="6.9109450"><ele></ele><time>2022-5-31T2:41:8Z</time></trkpt>
<trkpt lat="43.4814890" lon="6.9109088"><ele></ele><time>2022-5-31T2:41:11Z</time></trkpt>
<trkpt lat="43.4815343" lon="6.9108725"><ele></ele><time>2022-5-31T2:41:14Z</time></trkpt>
<trkpt lat="43.4815790" lon="6.9108463"><ele></ele><time>2022-5-31T2:41:17Z</time></trkpt>
<trkpt lat="43.4816241" lon="6.9108245"><ele></ele><time>2022-5-31T2:41:20Z</time></trkpt>
<trkpt lat="43.4816724" lon="6.9108070"><ele></ele><time>2022-5-31T2:41:23Z</time></trkpt>
<trkpt lat="43.4817309" lon="6.9107795"><ele></ele><time>2022-5-31T2:41:26Z</time></trkpt>
<trkpt lat="43.4817771" lon="6.9107587"><ele></ele><time>2022-5-31T2:41:29Z</time></trkpt>
<trkpt lat="43.4818232" lon="6.9107360"><ele></ele><time>2022-5-31T2:41:32Z</time></trkpt>
<trkpt lat="43.4818840" lon="6.9107178"><ele></ele><time>2022-5-31T2:41:35Z</time></trkpt>
<trkpt lat="43.4819278" lon="6.9107137"><ele></ele><time>2022-5-31T2:41:38Z</time></trkpt>
<trkpt lat="43.4819812" lon="6.9107040"><ele></ele><time>2022-5-31T2:41:41Z</time></trkpt>
<trkpt lat="43.4820268" lon="6.9107034"><ele></ele><time>2022-5-31T2:41:44Z</time></trkpt>
<trkpt lat="43.4820750" lon="6.9107157"><ele></ele><time>2022-5-31T2:41:47Z</time></trkpt>
<trkpt lat="43.4821212" lon="6.9107397"><ele></ele><time>2022-5-31T2:41:50Z</time></trkpt>
<trkpt lat="43.4821594" lon="6.9107701"><ele></ele><time>2022-5-31T2:41:53Z</time></trkpt>
<trkpt lat="43.4822010" lon="6.9108114"><ele></ele><time>2022-5-31T2:41:56Z</time></trkpt>
<trkpt lat="43.4822459" lon="6.9108581"><ele></ele><time>2022-5-31T2:41:59Z</time></trkpt>
<trkpt lat="43.4823027" lon="6.9109138"><ele></ele><time>2022-5-31T2:42:2Z</time></trkpt>
<trkpt lat="43.4823498" lon="6.9109714"><ele></ele><time>2022-5-31T2:42:5Z</time></trkpt>
<trkpt lat="43.4823959" lon="6.9110289"><ele></ele><time>2022-5-31T2:42:8Z</time></trkpt>
<trkpt lat="43.4824340" lon="6.9110832"><ele></ele><time>2022-5-31T2:42:11Z</time></trkpt>
<trkpt lat="43.4824718" lon="6.9111383"><ele></ele><time>2022-5-31T2:42:14Z</time></trkpt>
<trkpt lat="43.4825109" lon="6.9111967"><ele></ele><time>2022-5-31T2:42:17Z</time></trkpt>
<trkpt lat="43.4825546" lon="6.9112495"><ele></ele><time>2022-5-31T2:42:20Z</time></trkpt>
<trkpt lat="43.4825960" lon="6.9113013"><ele></ele><time>2022-5-31T2:42:23Z</time></trkpt>
<trkpt lat="43.4826304" lon="6.9113530"><ele></ele><time>2022-5-31T2:42:26Z</time></trkpt>
<trkpt lat="43.4826645" lon="6.9114056"><ele></ele><time>2022-5-31T2:42:29Z</time></trkpt>
<trkpt lat="43.4826989" lon="6.9114618"><ele></ele><time>2022-5-31T2:42:32Z</time></trkpt>
<trkpt lat="43.4827316" lon="6.9115143"><ele></ele><time>2022-5-31T2:42:35Z</time></trkpt>
<trkpt lat="43.4827642" lon="6.9115662"><ele></ele><time>2022-5-31T2:42:38Z</time></trkpt>
<trkpt lat="43.4827996" lon="6.9116185"><ele></ele><time>2022-5-31T2:42:41Z</time></trkpt>
<trkpt lat="43.4828336" lon="6.9116738"><ele></ele><time>2022-5-31T2:42:44Z</time></trkpt>
<trkpt lat="43.4828725" lon="6.9117374"><ele></ele><time>2022-5-31T2:42:47Z</time></trkpt>
<trkpt lat="43.4829106" lon="6.9118021"><ele></ele><time>2022-5-31T2:42:50Z</time></trkpt>
<trkpt lat="43.4829449" lon="6.9118747"><ele></ele><time>2022-5-31T2:42:53Z</time></trkpt>
<trkpt lat="43.4829796" lon="6.9119258"><ele></ele><time>2022-5-31T2:42:56Z</time></trkpt>
<trkpt lat="43.4830114" lon="6.9119797"><ele></ele><time>2022-5-31T2:42:59Z</time></trkpt>
<trkpt lat="43.4830348" lon="6.9120345"><ele></ele><time>2022-5-31T2:43:2Z</time></trkpt>
<trkpt lat="43.4830645" lon="6.9120880"><ele></ele><time>2022-5-31T2:43:5Z</time></trkpt>
<trkpt lat="43.4830927" lon="6.9121398"><ele></ele><time>2022-5-31T2:43:8Z</time></trkpt>
<trkpt lat="43.4831168" lon="6.9121910"><ele></ele><time>2022-5-31T2:43:11Z</time></trkpt>
<trkpt lat="43.4831410" lon="6.9122503"><ele></ele><time>2022-5-31T2:43:14Z</time></trkpt>
<trkpt lat="43.4831807" lon="6.9123112"><ele></ele><time>2022-5-31T2:43:17Z</time></trkpt>
<trkpt lat="43.4832274" lon="6.9123667"><ele></ele><time>2022-5-31T2:43:20Z</time></trkpt>
<trkpt lat="43.4832705" lon="6.9124236"><ele></ele><time>2022-5-31T2:43:23Z</time></trkpt>
<trkpt lat="43.4833143" lon="6.9124804"><ele></ele><time>2022-5-31T2:43:26Z</time></trkpt>
<trkpt lat="43.4833606" lon="6.9125345"><ele></ele><time>2022-5-31T2:43:29Z</time></trkpt>
<trkpt lat="43.4834069" lon="6.9125873"><ele></ele><time>2022-5-31T2:43:32Z</time></trkpt>
<trkpt lat="43.4834579" lon="6.9126241"><ele></ele><time>2022-5-31T2:43:35Z</time></trkpt>
<trkpt lat="43.4835035" lon="6.9126554"><ele></ele><time>2022-5-31T2:43:38Z</time></trkpt>
<trkpt lat="43.4835563" lon="6.9126726"><ele></ele><time>2022-5-31T2:43:41Z</time></trkpt>
<trkpt lat="43.4836113" lon="6.9126748"><ele></ele><time>2022-5-31T2:43:44Z</time></trkpt>
<trkpt lat="43.4836638" lon="6.9126722"><ele></ele><time>2022-5-31T2:43:47Z</time></trkpt>
<trkpt lat="43.4837163" lon="6.9126706"><ele></ele><time>2022-5-31T2:43:50Z</time></trkpt>
<trkpt lat="43.4837777" lon="6.9126579"><ele></ele><time>2022-5-31T2:43:53Z</time></trkpt>
<trkpt lat="43.4838338" lon="6.9126379"><ele></ele><time>2022-5-31T2:43:56Z</time></trkpt>
<trkpt lat="43.4838903" lon="6.9126086"><ele></ele><time>2022-5-31T2:43:59Z</time></trkpt>
<trkpt lat="43.4839435" lon="6.9125772"><ele></ele><time>2022-5-31T2:44:2Z</time></trkpt>
<trkpt lat="43.4839943" lon="6.9125355"><ele></ele><time>2022-5-31T2:44:5Z</time></trkpt>
<trkpt lat="43.4840525" lon="6.9124997"><ele></ele><time>2022-5-31T2:44:8Z</time></trkpt>
<trkpt lat="43.4841020" lon="6.9124625"><ele></ele><time>2022-5-31T2:44:11Z</time></trkpt>
<trkpt lat="43.4841509" lon="6.9124247"><ele></ele><time>2022-5-31T2:44:14Z</time></trkpt>
<trkpt lat="43.4841999" lon="6.9123924"><ele></ele><time>2022-5-31T2:44:17Z</time></trkpt>
<trkpt lat="43.4842508" lon="6.9123473"><ele></ele><time>2022-5-31T2:44:20Z</time></trkpt>
<trkpt lat="43.4843000" lon="6.9123058"><ele></ele><time>2022-5-31T2:44:23Z</time></trkpt>
<trkpt lat="43.4843625" lon="6.9122626"><ele></ele><time>2022-5-31T2:44:26Z</time></trkpt>
<trkpt lat="43.4844281" lon="6.9122129"><ele></ele><time>2022-5-31T2:44:29Z</time></trkpt>
<trkpt lat="43.4844933" lon="6.9121572"><ele></ele><time>2022-5-31T2:44:32Z</time></trkpt>
<trkpt lat="43.4845652" lon="6.9120948"><ele></ele><time>2022-5-31T2:44:35Z</time></trkpt>
<trkpt lat="43.4846269" lon="6.9120370"><ele></ele><time>2022-5-31T2:44:38Z</time></trkpt>
<trkpt lat="43.4846931" lon="6.9119845"><ele></ele><time>2022-5-31T2:44:41Z</time></trkpt>
<trkpt lat="43.4847602" lon="6.9119259"><ele></ele><time>2022-5-31T2:44:44Z</time></trkpt>
<trkpt lat="43.4848252" lon="6.9118602"><ele></ele><time>2022-5-31T2:44:47Z</time></trkpt>
<trkpt lat="43.4848837" lon="6.9117935"><ele></ele><time>2022-5-31T2:44:50Z</time></trkpt>
<trkpt lat="43.4849415" lon="6.9117333"><ele></ele><time>2022-5-31T2:44:53Z</time></trkpt>
<trkpt lat="43.4849997" lon="6.9116796"><ele></ele><time>2022-5-31T2:44:56Z</time></trkpt>
<trkpt lat="43.4850576" lon="6.9116217"><ele></ele><time>2022-5-31T2:44:59Z</time></trkpt>
<trkpt lat="43.4851109" lon="6.9115663"><ele></ele><time>2022-5-31T2:45:2Z</time></trkpt>
<trkpt lat="43.4851661" lon="6.9115021"><ele></ele><time>2022-5-31T2:45:5Z</time></trkpt>
<trkpt lat="43.4852255" lon="6.9114355"><ele></ele><time>2022-5-31T2:45:8Z</time></trkpt>
<trkpt lat="43.4852840" lon="6.9113693"><ele></ele><time>2022-5-31T2:45:11Z</time></trkpt>
<trkpt lat="43.4853437" lon="6.9112985"><ele></ele><time>2022-5-31T2:45:14Z</time></trkpt>
<trkpt lat="43.4854051" lon="6.9112231"><ele></ele><time>2022-5-31T2:45:17Z</time></trkpt>
<trkpt lat="43.4854664" lon="6.9111450"><ele></ele><time>2022-5-31T2:45:20Z</time></trkpt>
<trkpt lat="43.4855208" lon="6.9110630"><ele></ele><time>2022-5-31T2:45:23Z</time></trkpt>
<trkpt lat="43.4855741" lon="6.9109791"><ele></ele><time>2022-5-31T2:45:26Z</time></trkpt>
<trkpt lat="43.4856227" lon="6.9109028"><ele></ele><time>2022-5-31T2:45:29Z</time></trkpt>
<trkpt lat="43.4856656" lon="6.9108344"><ele></ele><time>2022-5-31T2:45:32Z</time></trkpt>
<trkpt lat="43.4857053" lon="6.9107697"><ele></ele><time>2022-5-31T2:45:35Z</time></trkpt>
<trkpt lat="43.4857452" lon="6.9107025"><ele></ele><time>2022-5-31T2:45:38Z</time></trkpt>
<trkpt lat="43.4857876" lon="6.9106307"><ele></ele><time>2022-5-31T2:45:41Z</time></trkpt>
<trkpt lat="43.4858337" lon="6.9105591"><ele></ele><time>2022-5-31T2:45:44Z</time></trkpt>
<trkpt lat="43.4858795" lon="6.9104940"><ele></ele><time>2022-5-31T2:45:47Z</time></trkpt>
<trkpt lat="43.4859249" lon="6.9104318"><ele></ele><time>2022-5-31T2:45:50Z</time></trkpt>
<trkpt lat="43.4859730" lon="6.9103612"><ele></ele><time>2022-5-31T2:45:53Z</time></trkpt>
<trkpt lat="43.4860259" lon="6.9102827"><ele></ele><time>2022-5-31T2:45:56Z</time></trkpt>
<trkpt lat="43.4860802" lon="6.9102102"><ele></ele><time>2022-5-31T2:45:59Z</time></trkpt>
<trkpt lat="43.4861383" lon="6.9101391"><ele></ele><time>2022-5-31T2:46:2Z</time></trkpt>
<trkpt lat="43.4861997" lon="6.9100810"><ele></ele><time>2022-5-31T2:46:5Z</time></trkpt>
<trkpt lat="43.4862668" lon="6.9100393"><ele></ele><time>2022-5-31T2:46:8Z</time></trkpt>
<trkpt lat="43.4863375" lon="6.9100122"><ele></ele><time>2022-5-31T2:46:11Z</time></trkpt>
<trkpt lat="43.4864115" lon="6.9100062"><ele></ele><time>2022-5-31T2:46:14Z</time></trkpt>
<trkpt lat="43.4864867" lon="6.9100172"><ele></ele><time>2022-5-31T2:46:17Z</time></trkpt>
<trkpt lat="43.4865647" lon="6.9100376"><ele></ele><time>2022-5-31T2:46:20Z</time></trkpt>
<trkpt lat="43.4866373" lon="6.9100560"><ele></ele><time>2022-5-31T2:46:23Z</time></trkpt>
<trkpt lat="43.4867066" lon="6.9100730"><ele></ele><time>2022-5-31T2:46:26Z</time></trkpt>
<trkpt lat="43.4867748" lon="6.9100916"><ele></ele><time>2022-5-31T2:46:29Z</time></trkpt>
<trkpt lat="43.4868404" lon="6.9101093"><ele></ele><time>2022-5-31T2:46:32Z</time></trkpt>
<trkpt lat="43.4868977" lon="6.9101257"><ele></ele><time>2022-5-31T2:46:35Z</time></trkpt>
<trkpt lat="43.4869448" lon="6.9101462"><ele></ele><time>2022-5-31T2:46:38Z</time></trkpt>
<trkpt lat="43.4869820" lon="6.9101740"><ele></ele><time>2022-5-31T2:46:41Z</time></trkpt>
<trkpt lat="43.4870207" lon="6.9101913"><ele></ele><time>2022-5-31T2:46:44Z</time></trkpt>
<trkpt lat="43.4870605" lon="6.9102016"><ele></ele><time>2022-5-31T2:46:47Z</time></trkpt>
<trkpt lat="43.4870976" lon="6.9102043"><ele></ele><time>2022-5-31T2:46:50Z</time></trkpt>
<trkpt lat="43.4871373" lon="6.9102006"><ele></ele><time>2022-5-31T2:46:53Z</time></trkpt>
<trkpt lat="43.4871833" lon="6.9101809"><ele></ele><time>2022-5-31T2:46:56Z</time></trkpt>
<trkpt lat="43.4872209" lon="6.9101399"><ele></ele><time>2022-5-31T2:46:59Z</time></trkpt>
<trkpt lat="43.4872429" lon="6.9100702"><ele></ele><time>2022-5-31T2:47:2Z</time></trkpt>
<trkpt lat="43.4872563" lon="6.9099940"><ele></ele><time>2022-5-31T2:47:5Z</time></trkpt>
<trkpt lat="43.4872852" lon="6.9099182"><ele></ele><time>2022-5-31T2:47:8Z</time></trkpt>
<trkpt lat="43.4873188" lon="6.9098390"><ele></ele><time>2022-5-31T2:47:11Z</time></trkpt>
<trkpt lat="43.4873521" lon="6.9097603"><ele></ele><time>2022-5-31T2:47:14Z</time></trkpt>
<trkpt lat="43.4873852" lon="6.9096807"><ele></ele><time>2022-5-31T2:47:17Z</time></trkpt>
<trkpt lat="43.4874164" lon="6.9096079"><ele></ele><time>2022-5-31T2:47:20Z</time></trkpt>
<trkpt lat="43.4874479" lon="6.9095337"><ele></ele><time>2022-5-31T2:47:23Z</time></trkpt>
<trkpt lat="43.4874817" lon="6.9094560"><ele></ele><time>2022-5-31T2:47:26Z</time></trkpt>
<trkpt lat="43.4875146" lon="6.9093699"><ele></ele><time>2022-5-31T2:47:29Z</time></trkpt>
<trkpt lat="43.4875392" lon="6.9092829"><ele></ele><time>2022-5-31T2:47:32Z</time></trkpt>
<trkpt lat="43.4875613" lon="6.9091970"><ele></ele><time>2022-5-31T2:47:35Z</time></trkpt>
<trkpt lat="43.4875755" lon="6.9091165"><ele></ele><time>2022-5-31T2:47:38Z</time></trkpt>
<trkpt lat="43.4875891" lon="6.9090353"><ele></ele><time>2022-5-31T2:47:41Z</time></trkpt>
<trkpt lat="43.4876040" lon="6.9089527"><ele></ele><time>2022-5-31T2:47:44Z</time></trkpt>
<trkpt lat="43.4876111" lon="6.9088684"><ele></ele><time>2022-5-31T2:47:47Z</time></trkpt>
<trkpt lat="43.4876138" lon="6.9087859"><ele></ele><time>2022-5-31T2:47:50Z</time></trkpt>
<trkpt lat="43.4876128" lon="6.9087039"><ele></ele><time>2022-5-31T2:47:53Z</time></trkpt>
<trkpt lat="43.4876098" lon="6.9086257"><ele></ele><time>2022-5-31T2:47:56Z</time></trkpt>
<trkpt lat="43.4876059" lon="6.9085420"><ele></ele><time>2022-5-31T2:47:59Z</time></trkpt>
<trkpt lat="43.4876001" lon="6.9084569"><ele></ele><time>2022-5-31T2:48:2Z</time></trkpt>
<trkpt lat="43.4875993" lon="6.9083708"><ele></ele><time>2022-5-31T2:48:5Z</time></trkpt>
<trkpt lat="43.4876000" lon="6.9082845"><ele></ele><time>2022-5-31T2:48:8Z</time></trkpt>
<trkpt lat="43.4875995" lon="6.9081941"><ele></ele><time>2022-5-31T2:48:11Z</time></trkpt>
<trkpt lat="43.4876003" lon="6.9081047"><ele></ele><time>2022-5-31T2:48:14Z</time></trkpt>
<trkpt lat="43.4875995" lon="6.9080182"><ele></ele><time>2022-5-31T2:48:17Z</time></trkpt>
<trkpt lat="43.4875954" lon="6.9079302"><ele></ele><time>2022-5-31T2:48:20Z</time></trkpt>
<trkpt lat="43.4875920" lon="6.9078441"><ele></ele><time>2022-5-31T2:48:23Z</time></trkpt>
<trkpt lat="43.4875901" lon="6.9077589"><ele></ele><time>2022-5-31T2:48:26Z</time></trkpt>
<trkpt lat="43.4875887" lon="6.9076762"><ele></ele><time>2022-5-31T2:48:29Z</time></trkpt>
<trkpt lat="43.4875928" lon="6.9076020"><ele></ele><time>2022-5-31T2:48:32Z</time></trkpt>
<trkpt lat="43.4876028" lon="6.9075325"><ele></ele><time>2022-5-31T2:48:35Z</time></trkpt>
<trkpt lat="43.4876255" lon="6.9074701"><ele></ele><time>2022-5-31T2:48:38Z</time></trkpt>
<trkpt lat="43.4876612" lon="6.9074199"><ele></ele><time>2022-5-31T2:48:41Z</time></trkpt>
<trkpt lat="43.4877068" lon="6.9073811"><ele></ele><time>2022-5-31T2:48:44Z</time></trkpt>
<trkpt lat="43.4877557" lon="6.9073642"><ele></ele><time>2022-5-31T2:48:47Z</time></trkpt>
<trkpt lat="43.4878069" lon="6.9073688"><ele></ele><time>2022-5-31T2:48:50Z</time></trkpt>
<trkpt lat="43.4878608" lon="6.9074023"><ele></ele><time>2022-5-31T2:48:53Z</time></trkpt>
<trkpt lat="43.4879115" lon="6.9074404"><ele></ele><time>2022-5-31T2:48:56Z</time></trkpt>
<trkpt lat="43.4879643" lon="6.9074764"><ele></ele><time>2022-5-31T2:48:59Z</time></trkpt>
<trkpt lat="43.4880201" lon="6.9075148"><ele></ele><time>2022-5-31T2:49:2Z</time></trkpt>
<trkpt lat="43.4880795" lon="6.9075586"><ele></ele><time>2022-5-31T2:49:5Z</time></trkpt>
<trkpt lat="43.4881381" lon="6.9075993"><ele></ele><time>2022-5-31T2:49:8Z</time></trkpt>
<trkpt lat="43.4882001" lon="6.9076437"><ele></ele><time>2022-5-31T2:49:11Z</time></trkpt>
<trkpt lat="43.4882630" lon="6.9076872"><ele></ele><time>2022-5-31T2:49:14Z</time></trkpt>
<trkpt lat="43.4883215" lon="6.9077349"><ele></ele><time>2022-5-31T2:49:17Z</time></trkpt>
<trkpt lat="43.4883857" lon="6.9077924"><ele></ele><time>2022-5-31T2:49:20Z</time></trkpt>
<trkpt lat="43.4884418" lon="6.9078623"><ele></ele><time>2022-5-31T2:49:23Z</time></trkpt>
<trkpt lat="43.4884971" lon="6.9079344"><ele></ele><time>2022-5-31T2:49:26Z</time></trkpt>
<trkpt lat="43.4885552" lon="6.9080086"><ele></ele><time>2022-5-31T2:49:29Z</time></trkpt>
<trkpt lat="43.4886108" lon="6.9080877"><ele></ele><time>2022-5-31T2:49:32Z</time></trkpt>
<trkpt lat="43.4886689" lon="6.9081611"><ele></ele><time>2022-5-31T2:49:35Z</time></trkpt>
<trkpt lat="43.4887182" lon="6.9082421"><ele></ele><time>2022-5-31T2:49:38Z</time></trkpt>
<trkpt lat="43.4887698" lon="6.9083176"><ele></ele><time>2022-5-31T2:49:41Z</time></trkpt>
<trkpt lat="43.4888208" lon="6.9083926"><ele></ele><time>2022-5-31T2:49:44Z</time></trkpt>
<trkpt lat="43.4888810" lon="6.9084518"><ele></ele><time>2022-5-31T2:49:47Z</time></trkpt>
<trkpt lat="43.4889457" lon="6.9084997"><ele></ele><time>2022-5-31T2:49:50Z</time></trkpt>
<trkpt lat="43.4890166" lon="6.9085216"><ele></ele><time>2022-5-31T2:49:53Z</time></trkpt>
<trkpt lat="43.4890882" lon="6.9085318"><ele></ele><time>2022-5-31T2:49:56Z</time></trkpt>
<trkpt lat="43.4891629" lon="6.9085252"><ele></ele><time>2022-5-31T2:49:59Z</time></trkpt>
<trkpt lat="43.4892337" lon="6.9085051"><ele></ele><time>2022-5-31T2:50:2Z</time></trkpt>
<trkpt lat="43.4893051" lon="6.9084706"><ele></ele><time>2022-5-31T2:50:5Z</time></trkpt>
<trkpt lat="43.4893843" lon="6.9084413"><ele></ele><time>2022-5-31T2:50:8Z</time></trkpt>
<trkpt lat="43.4894628" lon="6.9084168"><ele></ele><time>2022-5-31T2:50:11Z</time></trkpt>
<trkpt lat="43.4895333" lon="6.9083740"><ele></ele><time>2022-5-31T2:50:14Z</time></trkpt>
<trkpt lat="43.4896043" lon="6.9083219"><ele></ele><time>2022-5-31T2:50:17Z</time></trkpt>
<trkpt lat="43.4896738" lon="6.9082774"><ele></ele><time>2022-5-31T2:50:20Z</time></trkpt>
<trkpt lat="43.4897400" lon="6.9082500"><ele></ele><time>2022-5-31T2:50:23Z</time></trkpt>
<trkpt lat="43.4898076" lon="6.9082359"><ele></ele><time>2022-5-31T2:50:26Z</time></trkpt>
<trkpt lat="43.4898785" lon="6.9082287"><ele></ele><time>2022-5-31T2:50:29Z</time></trkpt>
<trkpt lat="43.4899439" lon="6.9082384"><ele></ele><time>2022-5-31T2:50:32Z</time></trkpt>
<trkpt lat="43.4900056" lon="6.9082661"><ele></ele><time>2022-5-31T2:50:35Z</time></trkpt>
<trkpt lat="43.4900600" lon="6.9083094"><ele></ele><time>2022-5-31T2:50:38Z</time></trkpt>
<trkpt lat="43.4901118" lon="6.9083549"><ele></ele><time>2022-5-31T2:50:41Z</time></trkpt>
<trkpt lat="43.4901636" lon="6.9084081"><ele></ele><time>2022-5-31T2:50:44Z</time></trkpt>
<trkpt lat="43.4902153" lon="6.9084587"><ele></ele><time>2022-5-31T2:50:47Z</time></trkpt>
<trkpt lat="43.4902638" lon="6.9085071"><ele></ele><time>2022-5-31T2:50:50Z</time></trkpt>
<trkpt lat="43.4903079" lon="6.9085551"><ele></ele><time>2022-5-31T2:50:53Z</time></trkpt>
<trkpt lat="43.4903484" lon="6.9086010"><ele></ele><time>2022-5-31T2:50:56Z</time></trkpt>
<trkpt lat="43.4903872" lon="6.9086451"><ele></ele><time>2022-5-31T2:50:59Z</time></trkpt>
<trkpt lat="43.4904153" lon="6.9086945"><ele></ele><time>2022-5-31T2:51:2Z</time></trkpt>
<trkpt lat="43.4904410" lon="6.9087417"><ele></ele><time>2022-5-31T2:51:5Z</time></trkpt>
<trkpt lat="43.4904615" lon="6.9087914"><ele></ele><time>2022-5-31T2:51:8Z</time></trkpt>
<trkpt lat="43.4904826" lon="6.9088367"><ele></ele><time>2022-5-31T2:51:11Z</time></trkpt>
<trkpt lat="43.4904968" lon="6.9088882"><ele></ele><time>2022-5-31T2:51:14Z</time></trkpt>
<trkpt lat="43.4905132" lon="6.9089391"><ele></ele><time>2022-5-31T2:51:17Z</time></trkpt>
<trkpt lat="43.4905261" lon="6.9089931"><ele></ele><time>2022-5-31T2:51:20Z</time></trkpt>
<trkpt lat="43.4905469" lon="6.9090399"><ele></ele><time>2022-5-31T2:51:23Z</time></trkpt>
<trkpt lat="43.4905665" lon="6.9090875"><ele></ele><time>2022-5-31T2:51:26Z</time></trkpt>
<trkpt lat="43.4905876" lon="6.9091354"><ele></ele><time>2022-5-31T2:51:29Z</time></trkpt>
<trkpt lat="43.4906117" lon="6.9091892"><ele></ele><time>2022-5-31T2:51:32Z</time></trkpt>
<trkpt lat="43.4906337" lon="6.9092430"><ele></ele><time>2022-5-31T2:51:35Z</time></trkpt>
<trkpt lat="43.4906506" lon="6.9092983"><ele></ele><time>2022-5-31T2:51:38Z</time></trkpt>
<trkpt lat="43.4906696" lon="6.9093571"><ele></ele><time>2022-5-31T2:51:41Z</time></trkpt>
<trkpt lat="43.4906937" lon="6.9094146"><ele></ele><time>2022-5-31T2:51:44Z</time></trkpt>
<trkpt lat="43.4907207" lon="6.9094676"><ele></ele><time>2022-5-31T2:51:47Z</time></trkpt>
<trkpt lat="43.4907563" lon="6.9095159"><ele></ele><time>2022-5-31T2:51:50Z</time></trkpt>
<trkpt lat="43.4907866" lon="6.9095588"><ele></ele><time>2022-5-31T2:51:53Z</time></trkpt>
<trkpt lat="43.4908139" lon="6.9096064"><ele></ele><time>2022-5-31T2:51:56Z</time></trkpt>
<trkpt lat="43.4908557" lon="6.9096429"><ele></ele><time>2022-5-31T2:51:59Z</time></trkpt>
<trkpt lat="43.4909022" lon="6.9096724"><ele></ele><time>2022-5-31T2:52:2Z</time></trkpt>
<trkpt lat="43.4909486" lon="6.9096864"><ele></ele><time>2022-5-31T2:52:5Z</time></trkpt>
<trkpt lat="43.4909838" lon="6.9096946"><ele></ele><time>2022-5-31T2:52:8Z</time></trkpt>
<trkpt lat="43.4910258" lon="6.9096883"><ele></ele><time>2022-5-31T2:52:11Z</time></trkpt>
<trkpt lat="43.4910749" lon="6.9096722"><ele></ele><time>2022-5-31T2:52:14Z</time></trkpt>
<trkpt lat="43.4911267" lon="6.9096565"><ele></ele><time>2022-5-31T2:52:17Z</time></trkpt>
<trkpt lat="43.4911747" lon="6.9096308"><ele></ele><time>2022-5-31T2:52:20Z</time></trkpt>
<trkpt lat="43.4912277" lon="6.9096055"><ele></ele><time>2022-5-31T2:52:23Z</time></trkpt>
<trkpt lat="43.4912790" lon="6.9095712"><ele></ele><time>2022-5-31T2:52:26Z</time></trkpt>
<trkpt lat="43.4913270" lon="6.9095176"><ele></ele><time>2022-5-31T2:52:29Z</time></trkpt>
<trkpt lat="43.4913920" lon="6.9094565"><ele></ele><time>2022-5-31T2:52:32Z</time></trkpt>
<trkpt lat="43.4914425" lon="6.9094075"><ele></ele><time>2022-5-31T2:52:35Z</time></trkpt>
<trkpt lat="43.4914841" lon="6.9093508"><ele></ele><time>2022-5-31T2:52:38Z</time></trkpt>
<trkpt lat="43.4915227" lon="6.9092971"><ele></ele><time>2022-5-31T2:52:41Z</time></trkpt>
<trkpt lat="43.4915635" lon="6.9092327"><ele></ele><time>2022-5-31T2:52:44Z</time></trkpt>
<trkpt lat="43.4916070" lon="6.9091767"><ele></ele><time>2022-5-31T2:52:47Z</time></trkpt>
<trkpt lat="43.4916509" lon="6.9091151"><ele></ele><time>2022-5-31T2:52:50Z</time></trkpt>
<trkpt lat="43.4916994" lon="6.9090538"><ele></ele><time>2022-5-31T2:52:53Z</time></trkpt>
<trkpt lat="43.4917455" lon="6.9089977"><ele></ele><time>2022-5-31T2:52:56Z</time></trkpt>
<trkpt lat="43.4917955" lon="6.9089403"><ele></ele><time>2022-5-31T2:52:59Z</time></trkpt>
<trkpt lat="43.4918440" lon="6.9088809"><ele></ele><time>2022-5-31T2:53:2Z</time></trkpt>
<trkpt lat="43.4918917" lon="6.9088197"><ele></ele><time>2022-5-31T2:53:5Z</time></trkpt>
<trkpt lat="43.4919379" lon="6.9087578"><ele></ele><time>2022-5-31T2:53:8Z</time></trkpt>
<trkpt lat="43.4919855" lon="6.9086950"><ele></ele><time>2022-5-31T2:53:11Z</time></trkpt>
<trkpt lat="43.4920341" lon="6.9086334"><ele></ele><time>2022-5-31T2:53:14Z</time></trkpt>
<trkpt lat="43.4920865" lon="6.9085723"><ele></ele><time>2022-5-31T2:53:17Z</time></trkpt>
<trkpt lat="43.4921329" lon="6.9085019"><ele></ele><time>2022-5-31T2:53:20Z</time></trkpt>
<trkpt lat="43.4921794" lon="6.9084360"><ele></ele><time>2022-5-31T2:53:23Z</time></trkpt>
<trkpt lat="43.4922334" lon="6.9083751"><ele></ele><time>2022-5-31T2:53:26Z</time></trkpt>
<trkpt lat="43.4922746" lon="6.9083033"><ele></ele><time>2022-5-31T2:53:29Z</time></trkpt>
<trkpt lat="43.4923152" lon="6.9082277"><ele></ele><time>2022-5-31T2:53:32Z</time></trkpt>
<trkpt lat="43.4923480" lon="6.9081525"><ele></ele><time>2022-5-31T2:53:35Z</time></trkpt>
<trkpt lat="43.4923693" lon="6.9080742"><ele></ele><time>2022-5-31T2:53:38Z</time></trkpt>
<trkpt lat="43.4923914" lon="6.9079907"><ele></ele><time>2022-5-31T2:53:41Z</time></trkpt>
<trkpt lat="43.4924181" lon="6.9079104"><ele></ele><time>2022-5-31T2:53:44Z</time></trkpt>
<trkpt lat="43.4924451" lon="6.9078319"><ele></ele><time>2022-5-31T2:53:47Z</time></trkpt>
<trkpt lat="43.4924726" lon="6.9077513"><ele></ele><time>2022-5-31T2:53:50Z</time></trkpt>
<trkpt lat="43.4925045" lon="6.9076750"><ele></ele><time>2022-5-31T2:53:53Z</time></trkpt>
<trkpt lat="43.4925487" lon="6.9076161"><ele></ele><time>2022-5-31T2:53:56Z</time></trkpt>
<trkpt lat="43.4926022" lon="6.9075637"><ele></ele><time>2022-5-31T2:53:59Z</time></trkpt>
<trkpt lat="43.4926559" lon="6.9075199"><ele></ele><time>2022-5-31T2:54:2Z</time></trkpt>
<trkpt lat="43.4927078" lon="6.9074824"><ele></ele><time>2022-5-31T2:54:5Z</time></trkpt>
<trkpt lat="43.4927614" lon="6.9074432"><ele></ele><time>2022-5-31T2:54:8Z</time></trkpt>
<trkpt lat="43.4928078" lon="6.9073985"><ele></ele><time>2022-5-31T2:54:11Z</time></trkpt>
<trkpt lat="43.4928571" lon="6.9073574"><ele></ele><time>2022-5-31T2:54:14Z</time></trkpt>
<trkpt lat="43.4929089" lon="6.9073158"><ele></ele><time>2022-5-31T2:54:17Z</time></trkpt>
<trkpt lat="43.4929576" lon="6.9072749"><ele></ele><time>2022-5-31T2:54:20Z</time></trkpt>
<trkpt lat="43.4930024" lon="6.9072345"><ele></ele><time>2022-5-31T2:54:23Z</time></trkpt>
<trkpt lat="43.4930436" lon="6.9071967"><ele></ele><time>2022-5-31T2:54:26Z</time></trkpt>
<trkpt lat="43.4930899" lon="6.9071704"><ele></ele><time>2022-5-31T2:54:29Z</time></trkpt>
<trkpt lat="43.4931375" lon="6.9071445"><ele></ele><time>2022-5-31T2:54:32Z</time></trkpt>
<trkpt lat="43.4931853" lon="6.9071062"><ele></ele><time>2022-5-31T2:54:35Z</time></trkpt>
<trkpt lat="43.4932389" lon="6.9070747"><ele></ele><time>2022-5-31T2:54:38Z</time></trkpt>
<trkpt lat="43.4932930" lon="6.9070558"><ele></ele><time>2022-5-31T2:54:41Z</time></trkpt>
<trkpt lat="43.4933544" lon="6.9070444"><ele></ele><time>2022-5-31T2:54:44Z</time></trkpt>
<trkpt lat="43.4934098" lon="6.9070307"><ele></ele><time>2022-5-31T2:54:47Z</time></trkpt>
<trkpt lat="43.4934622" lon="6.9070165"><ele></ele><time>2022-5-31T2:54:50Z</time></trkpt>
<trkpt lat="43.4935201" lon="6.9069989"><ele></ele><time>2022-5-31T2:54:53Z</time></trkpt>
<trkpt lat="43.4935833" lon="6.9069671"><ele></ele><time>2022-5-31T2:54:56Z</time></trkpt>
<trkpt lat="43.4936495" lon="6.9069353"><ele></ele><time>2022-5-31T2:54:59Z</time></trkpt>
<trkpt lat="43.4937146" lon="6.9068979"><ele></ele><time>2022-5-31T2:55:2Z</time></trkpt>
<trkpt lat="43.4937785" lon="6.9068559"><ele></ele><time>2022-5-31T2:55:5Z</time></trkpt>
<trkpt lat="43.4938305" lon="6.9068085"><ele></ele><time>2022-5-31T2:55:8Z</time></trkpt>
<trkpt lat="43.4938755" lon="6.9067485"><ele></ele><time>2022-5-31T2:55:11Z</time></trkpt>
<trkpt lat="43.4939243" lon="6.9066830"><ele></ele><time>2022-5-31T2:55:14Z</time></trkpt>
<trkpt lat="43.4939639" lon="6.9066103"><ele></ele><time>2022-5-31T2:55:17Z</time></trkpt>
<trkpt lat="43.4940008" lon="6.9065364"><ele></ele><time>2022-5-31T2:55:20Z</time></trkpt>
<trkpt lat="43.4940398" lon="6.9064739"><ele></ele><time>2022-5-31T2:55:23Z</time></trkpt>
<trkpt lat="43.4940778" lon="6.9064094"><ele></ele><time>2022-5-31T2:55:26Z</time></trkpt>
<trkpt lat="43.4941032" lon="6.9063391"><ele></ele><time>2022-5-31T2:55:29Z</time></trkpt>
<trkpt lat="43.4941332" lon="6.9062667"><ele></ele><time>2022-5-31T2:55:32Z</time></trkpt>
<trkpt lat="43.4941619" lon="6.9061932"><ele></ele><time>2022-5-31T2:55:35Z</time></trkpt>
<trkpt lat="43.4941863" lon="6.9061165"><ele></ele><time>2022-5-31T2:55:38Z</time></trkpt>
<trkpt lat="43.4941998" lon="6.9060428"><ele></ele><time>2022-5-31T2:55:41Z</time></trkpt>
<trkpt lat="43.4942147" lon="6.9059578"><ele></ele><time>2022-5-31T2:55:44Z</time></trkpt>
<trkpt lat="43.4942199" lon="6.9058695"><ele></ele><time>2022-5-31T2:55:47Z</time></trkpt>
<trkpt lat="43.4942171" lon="6.9057894"><ele></ele><time>2022-5-31T2:55:50Z</time></trkpt>
<trkpt lat="43.4942083" lon="6.9057192"><ele></ele><time>2022-5-31T2:55:53Z</time></trkpt>
<trkpt lat="43.4941938" lon="6.9056502"><ele></ele><time>2022-5-31T2:55:56Z</time></trkpt>
<trkpt lat="43.4941851" lon="6.9055785"><ele></ele><time>2022-5-31T2:55:59Z</time></trkpt>
<trkpt lat="43.4941768" lon="6.9054950"><ele></ele><time>2022-5-31T2:56:2Z</time></trkpt>
<trkpt lat="43.4941670" lon="6.9054084"><ele></ele><time>2022-5-31T2:56:5Z</time></trkpt>
<trkpt lat="43.4941610" lon="6.9053172"><ele></ele><time>2022-5-31T2:56:8Z</time></trkpt>
<trkpt lat="43.4941677" lon="6.9052333"><ele></ele><time>2022-5-31T2:56:11Z</time></trkpt>
<trkpt lat="43.4941945" lon="6.9051522"><ele></ele><time>2022-5-31T2:56:14Z</time></trkpt>
<trkpt lat="43.4942318" lon="6.9050830"><ele></ele><time>2022-5-31T2:56:17Z</time></trkpt>
<trkpt lat="43.4942642" lon="6.9050213"><ele></ele><time>2022-5-31T2:56:20Z</time></trkpt>
<trkpt lat="43.4943027" lon="6.9049551"><ele></ele><time>2022-5-31T2:56:23Z</time></trkpt>
<trkpt lat="43.4943525" lon="6.9049043"><ele></ele><time>2022-5-31T2:56:26Z</time></trkpt>
<trkpt lat="43.4944053" lon="6.9048495"><ele></ele><time>2022-5-31T2:56:29Z</time></trkpt>
<trkpt lat="43.4944560" lon="6.9047961"><ele></ele><time>2022-5-31T2:56:32Z</time></trkpt>
<trkpt lat="43.4945081" lon="6.9047423"><ele></ele><time>2022-5-31T2:56:35Z</time></trkpt>
<trkpt lat="43.4945588" lon="6.9046876"><ele></ele><time>2022-5-31T2:56:38Z</time></trkpt>
<trkpt lat="43.4946108" lon="6.9046288"><ele></ele><time>2022-5-31T2:56:41Z</time></trkpt>
<trkpt lat="43.4946591" lon="6.9045651"><ele></ele><time>2022-5-31T2:56:44Z</time></trkpt>
<trkpt lat="43.4946978" lon="6.9044898"><ele></ele><time>2022-5-31T2:56:47Z</time></trkpt>
<trkpt lat="43.4947324" lon="6.9044095"><ele></ele><time>2022-5-31T2:56:50Z</time></trkpt>
<trkpt lat="43.4947692" lon="6.9043235"><ele></ele><time>2022-5-31T2:56:53Z</time></trkpt>
<trkpt lat="43.4948038" lon="6.9042342"><ele></ele><time>2022-5-31T2:56:56Z</time></trkpt>
<trkpt lat="43.4948297" lon="6.9041425"><ele></ele><time>2022-5-31T2:56:59Z</time></trkpt>
<trkpt lat="43.4948561" lon="6.9040586"><ele></ele><time>2022-5-31T2:57:2Z</time></trkpt>
<trkpt lat="43.4948821" lon="6.9039867"><ele></ele><time>2022-5-31T2:57:5Z</time></trkpt>
<trkpt lat="43.4949008" lon="6.9039269"><ele></ele><time>2022-5-31T2:57:8Z</time></trkpt>
<trkpt lat="43.4949177" lon="6.9038927"><ele></ele><time>2022-5-31T2:57:11Z</time></trkpt>
<trkpt lat="43.4949177" lon="6.9038927"><ele></ele><time>2022-5-31T2:57:14Z</time></trkpt>
<trkpt lat="43.4949177" lon="6.9038927"><ele></ele><time>2022-5-31T2:57:17Z</time></trkpt>
<trkpt lat="43.4949177" lon="6.9038927"><ele></ele><time>2022-5-31T2:57:20Z</time></trkpt>
<trkpt lat="43.4949177" lon="6.9038927"><ele></ele><time>2022-5-31T2:57:23Z</time></trkpt>
<trkpt lat="43.4949177" lon="6.9038927"><ele></ele><time>2022-5-31T2:57:26Z</time></trkpt>
<trkpt lat="43.4949177" lon="6.9038927"><ele></ele><time>2022-5-31T2:57:29Z</time></trkpt>
<trkpt lat="43.4949177" lon="6.9038927"><ele></ele><time>2022-5-31T2:57:32Z</time></trkpt>
<trkpt lat="43.4949177" lon="6.9038927"><ele></ele><time>2022-5-31T2:57:35Z</time></trkpt>
<trkpt lat="43.4949177" lon="6.9038927"><ele></ele><time>2022-5-31T2:57:38Z</time></trkpt>
<trkpt lat="43.4949177" lon="6.9038927"><ele></ele><time>2022-5-31T2:57:41Z</time></trkpt>
<trkpt lat="43.4949177" lon="6.9038927"><ele></ele><time>2022-5-31T2:57:44Z</time></trkpt>
<trkpt lat="43.4949177" lon="6.9038927"><ele></ele><time>2022-5-31T2:57:47Z</time></trkpt>
<trkpt lat="43.4949177" lon="6.9038927"><ele></ele><time>2022-5-31T2:57:50Z</time></trkpt>
<trkpt lat="43.4949177" lon="6.9038927"><ele></ele><time>2022-5-31T2:57:53Z</time></trkpt>
<trkpt lat="43.4949177" lon="6.9038927"><ele></ele><time>2022-5-31T2:57:56Z</time></trkpt>
<trkpt lat="43.4949177" lon="6.9038927"><ele></ele><time>2022-5-31T2:57:59Z</time></trkpt>
<trkpt lat="43.4949177" lon="6.9038927"><ele></ele><time>2022-5-31T2:58:2Z</time></trkpt>
<trkpt lat="43.4949177" lon="6.9038927"><ele></ele><time>2022-5-31T2:58:5Z</time></trkpt>
<trkpt lat="43.4949177" lon="6.9038927"><ele></ele><time>2022-5-31T2:58:8Z</time></trkpt>
<trkpt lat="43.4949177" lon="6.9038927"><ele></ele><time>2022-5-31T2:58:11Z</time></trkpt>
<trkpt lat="43.4949177" lon="6.9038927"><ele></ele><time>2022-5-31T2:58:14Z</time></trkpt>
<trkpt lat="43.4949177" lon="6.9038927"><ele></ele><time>2022-5-31T2:58:17Z</time></trkpt>
<trkpt lat="43.4949177" lon="6.9038927"><ele></ele><time>2022-5-31T2:58:20Z</time></trkpt>
<trkpt lat="43.4949177" lon="6.9038927"><ele></ele><time>2022-5-31T2:58:23Z</time></trkpt>
<trkpt lat="43.4949177" lon="6.9038927"><ele></ele><time>2022-5-31T2:58:26Z</time></trkpt>
<trkpt lat="43.4949177" lon="6.9038927"><ele></ele><time>2022-5-31T2:58:29Z</time></trkpt>
<trkpt lat="43.4949177" lon="6.9038927"><ele></ele><time>2022-5-31T2:58:32Z</time></trkpt>
<trkpt lat="43.4949177" lon="6.9038927"><ele></ele><time>2022-5-31T2:58:35Z</time></trkpt>
<trkpt lat="43.4949177" lon="6.9038927"><ele></ele><time>2022-5-31T2:58:38Z</time></trkpt>
<trkpt lat="43.4949177" lon="6.9038927"><ele></ele><time>2022-5-31T2:58:41Z</time></trkpt>
<trkpt lat="43.4949177" lon="6.9038927"><ele></ele><time>2022-5-31T2:58:44Z</time></trkpt>
<trkpt lat="43.4949177" lon="6.9038927"><ele></ele><time>2022-5-31T2:58:47Z</time></trkpt>
<trkpt lat="43.4949177" lon="6.9038927"><ele></ele><time>2022-5-31T2:58:50Z</time></trkpt>
<trkpt lat="43.4949177" lon="6.9038927"><ele></ele><time>2022-5-31T2:58:53Z</time></trkpt>
<trkpt lat="43.4949177" lon="6.9038927"><ele></ele><time>2022-5-31T2:58:56Z</time></trkpt>
<trkpt lat="43.4949177" lon="6.9038927"><ele></ele><time>2022-5-31T2:58:59Z</time></trkpt>
<trkpt lat="43.4949177" lon="6.9038927"><ele></ele><time>2022-5-31T2:59:2Z</time></trkpt>
<trkpt lat="43.4949177" lon="6.9038927"><ele></ele><time>2022-5-31T2:59:5Z</time></trkpt>
<trkpt lat="43.4949177" lon="6.9038927"><ele></ele><time>2022-5-31T2:59:8Z</time></trkpt>
<trkpt lat="43.4949177" lon="6.9038927"><ele></ele><time>2022-5-31T2:59:11Z</time></trkpt>
<trkpt lat="43.4949177" lon="6.9038927"><ele></ele><time>2022-5-31T2:59:14Z</time></trkpt>
<trkpt lat="43.4949177" lon="6.9038927"><ele></ele><time>2022-5-31T2:59:17Z</time></trkpt>
<trkpt lat="43.4949177" lon="6.9038927"><ele></ele><time>2022-5-31T2:59:20Z</time></trkpt>
<trkpt lat="43.4949177" lon="6.9038927"><ele></ele><time>2022-5-31T2:59:23Z</time></trkpt>
<trkpt lat="43.4949177" lon="6.9038927"><ele></ele><time>2022-5-31T2:59:26Z</time></trkpt>
<trkpt lat="43.4949177" lon="6.9038927"><ele></ele><time>2022-5-31T2:59:29Z</time></trkpt>
<trkpt lat="43.4949177" lon="6.9038927"><ele></ele><time>2022-5-31T2:59:32Z</time></trkpt>
<trkpt lat="43.4949177" lon="6.9038927"><ele></ele><time>2022-5-31T2:59:35Z</time></trkpt>
<trkpt lat="43.4949177" lon="6.9038927"><ele></ele><time>2022-5-31T2:59:38Z</time></trkpt>
<trkpt lat="43.4949177" lon="6.9038927"><ele></ele><time>2022-5-31T2:59:41Z</time></trkpt>
<trkpt lat="43.4949177" lon="6.9038927"><ele></ele><time>2022-5-31T2:59:44Z</time></trkpt>
<trkpt lat="43.4949177" lon="6.9038927"><ele></ele><time>2022-5-31T2:59:47Z</time></trkpt>
<trkpt lat="43.4949177" lon="6.9038927"><ele></ele><time>2022-5-31T2:59:50Z</time></trkpt>
<trkpt lat="43.4949177" lon="6.9038927"><ele></ele><time>2022-5-31T2:59:53Z</time></trkpt>
<trkpt lat="43.4949177" lon="6.9038927"><ele></ele><time>2022-5-31T2:59:56Z</time></trkpt>
<trkpt lat="43.4949177" lon="6.9038927"><ele></ele><time>2022-5-31T2:59:59Z</time></trkpt>
<trkpt lat="43.4949177" lon="6.9038927"><ele></ele><time>2022-5-31T3:0:2Z</time></trkpt>
<trkpt lat="43.4949177" lon="6.9038927"><ele></ele><time>2022-5-31T3:0:5Z</time></trkpt>
<trkpt lat="43.4949177" lon="6.9038927"><ele></ele><time>2022-5-31T3:0:8Z</time></trkpt>
<trkpt lat="43.4949177" lon="6.9038927"><ele></ele><time>2022-5-31T3:0:11Z</time></trkpt>
<trkpt lat="43.4949177" lon="6.9038927"><ele></ele><time>2022-5-31T3:0:14Z</time></trkpt>
<trkpt lat="43.4949177" lon="6.9038927"><ele></ele><time>2022-5-31T3:0:17Z</time></trkpt>
<trkpt lat="43.4949177" lon="6.9038927"><ele></ele><time>2022-5-31T3:0:20Z</time></trkpt>
<trkpt lat="43.4949177" lon="6.9038927"><ele></ele><time>2022-5-31T3:0:23Z</time></trkpt>
<trkpt lat="43.4949177" lon="6.9038927"><ele></ele><time>2022-5-31T3:0:26Z</time></trkpt>
<trkpt lat="43.4949177" lon="6.9038927"><ele></ele><time>2022-5-31T3:0:29Z</time></trkpt>
<trkpt lat="43.4949177" lon="6.9038927"><ele></ele><time>2022-5-31T3:0:32Z</time></trkpt>
<trkpt lat="43.4949177" lon="6.9038927"><ele></ele><time>2022-5-31T3:0:35Z</time></trkpt>
<trkpt lat="43.4949177" lon="6.9038927"><ele></ele><time>2022-5-31T3:0:38Z</time></trkpt>
<trkpt lat="43.4949177" lon="6.9038927"><ele></ele><time>2022-5-31T3:0:41Z</time></trkpt>
<trkpt lat="43.4949177" lon="6.9038927"><ele></ele><time>2022-5-31T3:0:44Z</time></trkpt>
<trkpt lat="43.4949177" lon="6.9038927"><ele></ele><time>2022-5-31T3:0:47Z</time></trkpt>
<trkpt lat="43.4949177" lon="6.9038927"><ele></ele><time>2022-5-31T3:0:50Z</time></trkpt>
<trkpt lat="43.4949177" lon="6.9038927"><ele></ele><time>2022-5-31T3:0:53Z</time></trkpt>
<trkpt lat="43.4949177" lon="6.9038927"><ele></ele><time>2022-5-31T3:0:56Z</time></trkpt>
<trkpt lat="43.4949177" lon="6.9038927"><ele></ele><time>2022-5-31T3:0:59Z</time></trkpt>
<trkpt lat="43.4949177" lon="6.9038927"><ele></ele><time>2022-5-31T3:1:2Z</time></trkpt>
<trkpt lat="43.4949177" lon="6.9038927"><ele></ele><time>2022-5-31T3:1:5Z</time></trkpt>
<trkpt lat="43.4949177" lon="6.9038927"><ele></ele><time>2022-5-31T3:1:8Z</time></trkpt>
<trkpt lat="43.4949177" lon="6.9038927"><ele></ele><time>2022-5-31T3:1:11Z</time></trkpt>
<trkpt lat="43.4949177" lon="6.9038927"><ele></ele><time>2022-5-31T3:1:14Z</time></trkpt>
<trkpt lat="43.4949177" lon="6.9038927"><ele></ele><time>2022-5-31T3:1:17Z</time></trkpt>
<trkpt lat="43.4949177" lon="6.9038927"><ele></ele><time>2022-5-31T3:1:20Z</time></trkpt>
<trkpt lat="43.4949177" lon="6.9038927"><ele></ele><time>2022-5-31T3:1:23Z</time></trkpt>
<trkpt lat="43.4949177" lon="6.9038927"><ele></ele><time>2022-5-31T3:1:26Z</time></trkpt>
<trkpt lat="43.4949177" lon="6.9038927"><ele></ele><time>2022-5-31T3:1:29Z</time></trkpt>
<trkpt lat="43.4949177" lon="6.9038927"><ele></ele><time>2022-5-31T3:1:32Z</time></trkpt>
<trkpt lat="43.4949177" lon="6.9038927"><ele></ele><time>2022-5-31T3:1:35Z</time></trkpt>
<trkpt lat="43.4949177" lon="6.9038927"><ele></ele><time>2022-5-31T3:1:38Z</time></trkpt>
<trkpt lat="43.4949177" lon="6.9038927"><ele></ele><time>2022-5-31T3:1:41Z</time></trkpt>
<trkpt lat="43.4949177" lon="6.9038927"><ele></ele><time>2022-5-31T3:1:44Z</time></trkpt>
<trkpt lat="43.4949177" lon="6.9038927"><ele></ele><time>2022-5-31T3:1:47Z</time></trkpt>
<trkpt lat="43.4949177" lon="6.9038927"><ele></ele><time>2022-5-31T3:1:50Z</time></trkpt>
<trkpt lat="43.4949177" lon="6.9038927"><ele></ele><time>2022-5-31T3:1:53Z</time></trkpt>
<trkpt lat="43.4949177" lon="6.9038927"><ele></ele><time>2022-5-31T3:1:56Z</time></trkpt>
<trkpt lat="43.4949177" lon="6.9038927"><ele></ele><time>2022-5-31T3:1:59Z</time></trkpt>
<trkpt lat="43.4949177" lon="6.9038927"><ele></ele><time>2022-5-31T3:2:2Z</time></trkpt>
<trkpt lat="43.4949177" lon="6.9038927"><ele></ele><time>2022-5-31T3:2:5Z</time></trkpt>
<trkpt lat="43.4949177" lon="6.9038927"><ele></ele><time>2022-5-31T3:2:8Z</time></trkpt>
<trkpt lat="43.4949177" lon="6.9038927"><ele></ele><time>2022-5-31T3:2:11Z</time></trkpt>
<trkpt lat="43.4949177" lon="6.9038927"><ele></ele><time>2022-5-31T3:2:14Z</time></trkpt>
<trkpt lat="43.4949177" lon="6.9038927"><ele></ele><time>2022-5-31T3:2:17Z</time></trkpt>
<trkpt lat="43.4949177" lon="6.9038927"><ele></ele><time>2022-5-31T3:2:20Z</time></trkpt>
<trkpt lat="43.4949177" lon="6.9038927"><ele></ele><time>2022-5-31T3:2:23Z</time></trkpt>
<trkpt lat="43.4949177" lon="6.9038927"><ele></ele><time>2022-5-31T3:2:26Z</time></trkpt>
<trkpt lat="43.4949177" lon="6.9038927"><ele></ele><time>2022-5-31T3:2:29Z</time></trkpt>
<trkpt lat="43.4949177" lon="6.9038927"><ele></ele><time>2022-5-31T3:2:32Z</time></trkpt>
<trkpt lat="43.4949177" lon="6.9038927"><ele></ele><time>2022-5-31T3:2:35Z</time></trkpt>
<trkpt lat="43.4949177" lon="6.9038927"><ele></ele><time>2022-5-31T3:2:38Z</time></trkpt>
<trkpt lat="43.4949177" lon="6.9038927"><ele></ele><time>2022-5-31T3:2:41Z</time></trkpt>
<trkpt lat="43.4949177" lon="6.9038927"><ele></ele><time>2022-5-31T3:2:44Z</time></trkpt>
<trkpt lat="43.4949177" lon="6.9038927"><ele></ele><time>2022-5-31T3:2:47Z</time></trkpt>
<trkpt lat="43.4949177" lon="6.9038927"><ele></ele><time>2022-5-31T3:2:50Z</time></trkpt>
<trkpt lat="43.4949177" lon="6.9038927"><ele></ele><time>2022-5-31T3:2:53Z</time></trkpt>
<trkpt lat="43.4949177" lon="6.9038927"><ele></ele><time>2022-5-31T3:2:56Z</time></trkpt>
<trkpt lat="43.4949177" lon="6.9038927"><ele></ele><time>2022-5-31T3:2:59Z</time></trkpt>
<trkpt lat="43.4949177" lon="6.9038927"><ele></ele><time>2022-5-31T3:3:2Z</time></trkpt>
<trkpt lat="43.4949177" lon="6.9038927"><ele></ele><time>2022-5-31T3:3:5Z</time></trkpt>
<trkpt lat="43.4949177" lon="6.9038927"><ele></ele><time>2022-5-31T3:3:8Z</time></trkpt>
<trkpt lat="43.4949177" lon="6.9038927"><ele></ele><time>2022-5-31T3:3:11Z</time></trkpt>
<trkpt lat="43.4949177" lon="6.9038927"><ele></ele><time>2022-5-31T3:3:14Z</time></trkpt>
<trkpt lat="43.4949177" lon="6.9038927"><ele></ele><time>2022-5-31T3:3:17Z</time></trkpt>
<trkpt lat="43.4949177" lon="6.9038927"><ele></ele><time>2022-5-31T3:3:20Z</time></trkpt>
<trkpt lat="43.4949177" lon="6.9038927"><ele></ele><time>2022-5-31T3:3:23Z</time></trkpt>
<trkpt lat="43.4949177" lon="6.9038927"><ele></ele><time>2022-5-31T3:3:26Z</time></trkpt>
<trkpt lat="43.4949177" lon="6.9038927"><ele></ele><time>2022-5-31T3:3:29Z</time></trkpt>
<trkpt lat="43.4949177" lon="6.9038927"><ele></ele><time>2022-5-31T3:3:32Z</time></trkpt>
<trkpt lat="43.4949177" lon="6.9038927"><ele></ele><time>2022-5-31T3:3:35Z</time></trkpt>
<trkpt lat="43.4949177" lon="6.9038927"><ele></ele><time>2022-5-31T3:3:38Z</time></trkpt>
<trkpt lat="43.4949177" lon="6.9038927"><ele></ele><time>2022-5-31T3:3:41Z</time></trkpt>
<trkpt lat="43.4949177" lon="6.9038927"><ele></ele><time>2022-5-31T3:3:44Z</time></trkpt>
<trkpt lat="43.4949177" lon="6.9038927"><ele></ele><time>2022-5-31T3:3:47Z</time></trkpt>
<trkpt lat="43.4949177" lon="6.9038927"><ele></ele><time>2022-5-31T3:3:50Z</time></trkpt>
<trkpt lat="43.4949177" lon="6.9038927"><ele></ele><time>2022-5-31T3:3:53Z</time></trkpt>
<trkpt lat="43.4949177" lon="6.9038927"><ele></ele><time>2022-5-31T3:3:56Z</time></trkpt>
<trkpt lat="43.4949177" lon="6.9038927"><ele></ele><time>2022-5-31T3:3:59Z</time></trkpt>
<trkpt lat="43.4949177" lon="6.9038927"><ele></ele><time>2022-5-31T3:4:2Z</time></trkpt>
<trkpt lat="43.4949177" lon="6.9038927"><ele></ele><time>2022-5-31T3:4:5Z</time></trkpt>
<trkpt lat="43.4949177" lon="6.9038927"><ele></ele><time>2022-5-31T3:4:8Z</time></trkpt>
<trkpt lat="43.4949177" lon="6.9038927"><ele></ele><time>2022-5-31T3:4:11Z</time></trkpt>
<trkpt lat="43.4949177" lon="6.9038927"><ele></ele><time>2022-5-31T3:4:14Z</time></trkpt>
<trkpt lat="43.4949177" lon="6.9038927"><ele></ele><time>2022-5-31T3:4:17Z</time></trkpt>
<trkpt lat="43.4949177" lon="6.9038927"><ele></ele><time>2022-5-31T3:4:20Z</time></trkpt>
<trkpt lat="43.4949177" lon="6.9038927"><ele></ele><time>2022-5-31T3:4:23Z</time></trkpt>
<trkpt lat="43.4949177" lon="6.9038927"><ele></ele><time>2022-5-31T3:4:26Z</time></trkpt>
<trkpt lat="43.4949177" lon="6.9038927"><ele></ele><time>2022-5-31T3:4:29Z</time></trkpt>
<trkpt lat="43.4949177" lon="6.9038927"><ele></ele><time>2022-5-31T3:4:32Z</time></trkpt>
<trkpt lat="43.4949177" lon="6.9038927"><ele></ele><time>2022-5-31T3:4:35Z</time></trkpt>
<trkpt lat="43.4949177" lon="6.9038927"><ele></ele><time>2022-5-31T3:4:38Z</time></trkpt>
<trkpt lat="43.4949177" lon="6.9038927"><ele></ele><time>2022-5-31T3:4:41Z</time></trkpt>
<trkpt lat="43.4949177" lon="6.9038927"><ele></ele><time>2022-5-31T3:4:44Z</time></trkpt>
<trkpt lat="43.4949177" lon="6.9038927"><ele></ele><time>2022-5-31T3:4:47Z</time></trkpt>
<trkpt lat="43.4949177" lon="6.9038927"><ele></ele><time>2022-5-31T3:4:50Z</time></trkpt>
<trkpt lat="43.4949177" lon="6.9038927"><ele></ele><time>2022-5-31T3:4:53Z</time></trkpt>
<trkpt lat="43.4949177" lon="6.9038927"><ele></ele><time>2022-5-31T3:4:56Z</time></trkpt>
<trkpt lat="43.4949177" lon="6.9038927"><ele></ele><time>2022-5-31T3:4:59Z</time></trkpt>
<trkpt lat="43.4949177" lon="6.9038927"><ele></ele><time>2022-5-31T3:5:2Z</time></trkpt>
<trkpt lat="43.4949177" lon="6.9038927"><ele></ele><time>2022-5-31T3:5:5Z</time></trkpt>
<trkpt lat="43.4949177" lon="6.9038927"><ele></ele><time>2022-5-31T3:5:8Z</time></trkpt>
<trkpt lat="43.4949177" lon="6.9038927"><ele></ele><time>2022-5-31T3:5:11Z</time></trkpt>
<trkpt lat="43.4949177" lon="6.9038927"><ele></ele><time>2022-5-31T3:5:14Z</time></trkpt>
<trkpt lat="43.4949177" lon="6.9038927"><ele></ele><time>2022-5-31T3:5:17Z</time></trkpt>
<trkpt lat="43.4949177" lon="6.9038927"><ele></ele><time>2022-5-31T3:5:20Z</time></trkpt>
<trkpt lat="43.4949177" lon="6.9038927"><ele></ele><time>2022-5-31T3:5:23Z</time></trkpt>
<trkpt lat="43.4949177" lon="6.9038927"><ele></ele><time>2022-5-31T3:5:26Z</time></trkpt>
<trkpt lat="43.4949177" lon="6.9038927"><ele></ele><time>2022-5-31T3:5:29Z</time></trkpt>
<trkpt lat="43.4949177" lon="6.9038927"><ele></ele><time>2022-5-31T3:5:32Z</time></trkpt>
<trkpt lat="43.4949177" lon="6.9038927"><ele></ele><time>2022-5-31T3:5:35Z</time></trkpt>
<trkpt lat="43.4949177" lon="6.9038927"><ele></ele><time>2022-5-31T3:5:38Z</time></trkpt>
<trkpt lat="43.4949177" lon="6.9038927"><ele></ele><time>2022-5-31T3:5:41Z</time></trkpt>
<trkpt lat="43.4949177" lon="6.9038927"><ele></ele><time>2022-5-31T3:5:44Z</time></trkpt>
<trkpt lat="43.4949177" lon="6.9038927"><ele></ele><time>2022-5-31T3:5:47Z</time></trkpt>
<trkpt lat="43.4949177" lon="6.9038927"><ele></ele><time>2022-5-31T3:5:50Z</time></trkpt>
<trkpt lat="43.4949177" lon="6.9038927"><ele></ele><time>2022-5-31T3:5:53Z</time></trkpt>
<trkpt lat="43.4949177" lon="6.9038927"><ele></ele><time>2022-5-31T3:5:56Z</time></trkpt>
<trkpt lat="43.4949177" lon="6.9038927"><ele></ele><time>2022-5-31T3:5:59Z</time></trkpt>
<trkpt lat="43.4949177" lon="6.9038927"><ele></ele><time>2022-5-31T3:6:2Z</time></trkpt>
<trkpt lat="43.4949177" lon="6.9038927"><ele></ele><time>2022-5-31T3:6:5Z</time></trkpt>
<trkpt lat="43.4949177" lon="6.9038927"><ele></ele><time>2022-5-31T3:6:8Z</time></trkpt>
<trkpt lat="43.4949177" lon="6.9038927"><ele></ele><time>2022-5-31T3:6:11Z</time></trkpt>
<trkpt lat="43.4949177" lon="6.9038927"><ele></ele><time>2022-5-31T3:6:14Z</time></trkpt>
<trkpt lat="43.4949177" lon="6.9038927"><ele></ele><time>2022-5-31T3:6:17Z</time></trkpt>
<trkpt lat="43.4949177" lon="6.9038927"><ele></ele><time>2022-5-31T3:6:20Z</time></trkpt>
<trkpt lat="43.4949177" lon="6.9038927"><ele></ele><time>2022-5-31T3:6:23Z</time></trkpt>
<trkpt lat="43.4949177" lon="6.9038927"><ele></ele><time>2022-5-31T3:6:26Z</time></trkpt>
<trkpt lat="43.4949177" lon="6.9038927"><ele></ele><time>2022-5-31T3:6:29Z</time></trkpt>
<trkpt lat="43.4949177" lon="6.9038927"><ele></ele><time>2022-5-31T3:6:32Z</time></trkpt>
<trkpt lat="43.4949177" lon="6.9038927"><ele></ele><time>2022-5-31T3:6:35Z</time></trkpt>
<trkpt lat="43.4949177" lon="6.9038927"><ele></ele><time>2022-5-31T3:6:38Z</time></trkpt>
<trkpt lat="43.4949177" lon="6.9038927"><ele></ele><time>2022-5-31T3:6:41Z</time></trkpt>
<trkpt lat="43.4949177" lon="6.9038927"><ele></ele><time>2022-5-31T3:6:44Z</time></trkpt>
<trkpt lat="43.4949177" lon="6.9038927"><ele></ele><time>2022-5-31T3:6:47Z</time></trkpt>
<trkpt lat="43.4949177" lon="6.9038927"><ele></ele><time>2022-5-31T3:6:50Z</time></trkpt>
<trkpt lat="43.4949177" lon="6.9038927"><ele></ele><time>2022-5-31T3:6:53Z</time></trkpt>
<trkpt lat="43.4949177" lon="6.9038927"><ele></ele><time>2022-5-31T3:6:56Z</time></trkpt>
<trkpt lat="43.4949177" lon="6.9038927"><ele></ele><time>2022-5-31T3:6:59Z</time></trkpt>
<trkpt lat="43.4949177" lon="6.9038927"><ele></ele><time>2022-5-31T3:7:2Z</time></trkpt>
<trkpt lat="43.4949177" lon="6.9038927"><ele></ele><time>2022-5-31T3:7:5Z</time></trkpt>
<trkpt lat="43.4949177" lon="6.9038927"><ele></ele><time>2022-5-31T3:7:8Z</time></trkpt>
<trkpt lat="43.4949177" lon="6.9038927"><ele></ele><time>2022-5-31T3:7:11Z</time></trkpt>
<trkpt lat="43.4949177" lon="6.9038927"><ele></ele><time>2022-5-31T3:7:14Z</time></trkpt>
<trkpt lat="43.4949177" lon="6.9038927"><ele></ele><time>2022-5-31T3:7:17Z</time></trkpt>
<trkpt lat="43.4949177" lon="6.9038927"><ele></ele><time>2022-5-31T3:7:20Z</time></trkpt>
<trkpt lat="43.4949177" lon="6.9038927"><ele></ele><time>2022-5-31T3:7:23Z</time></trkpt>
<trkpt lat="43.4949177" lon="6.9038927"><ele></ele><time>2022-5-31T3:7:26Z</time></trkpt>
<trkpt lat="43.4949177" lon="6.9038927"><ele></ele><time>2022-5-31T3:7:29Z</time></trkpt>
<trkpt lat="43.4949177" lon="6.9038927"><ele></ele><time>2022-5-31T3:7:32Z</time></trkpt>
<trkpt lat="43.4949177" lon="6.9038927"><ele></ele><time>2022-5-31T3:7:35Z</time></trkpt>
<trkpt lat="43.4949177" lon="6.9038927"><ele></ele><time>2022-5-31T3:7:38Z</time></trkpt>
<trkpt lat="43.4949177" lon="6.9038927"><ele></ele><time>2022-5-31T3:7:41Z</time></trkpt>
<trkpt lat="43.4949177" lon="6.9038927"><ele></ele><time>2022-5-31T3:7:44Z</time></trkpt>
<trkpt lat="43.4949177" lon="6.9038927"><ele></ele><time>2022-5-31T3:7:47Z</time></trkpt>
<trkpt lat="43.4949177" lon="6.9038927"><ele></ele><time>2022-5-31T3:7:50Z</time></trkpt>
<trkpt lat="43.4949177" lon="6.9038927"><ele></ele><time>2022-5-31T3:7:53Z</time></trkpt>
<trkpt lat="43.4949177" lon="6.9038927"><ele></ele><time>2022-5-31T3:7:56Z</time></trkpt>
<trkpt lat="43.4949177" lon="6.9038927"><ele></ele><time>2022-5-31T3:7:59Z</time></trkpt>
<trkpt lat="43.4949177" lon="6.9038927"><ele></ele><time>2022-5-31T3:8:2Z</time></trkpt>
<trkpt lat="43.4949177" lon="6.9038927"><ele></ele><time>2022-5-31T3:8:5Z</time></trkpt>
<trkpt lat="43.4949177" lon="6.9038927"><ele></ele><time>2022-5-31T3:8:8Z</time></trkpt>
<trkpt lat="43.4949177" lon="6.9038927"><ele></ele><time>2022-5-31T3:8:11Z</time></trkpt>
<trkpt lat="43.4949177" lon="6.9038927"><ele></ele><time>2022-5-31T3:8:14Z</time></trkpt>
<trkpt lat="43.4949177" lon="6.9038927"><ele></ele><time>2022-5-31T3:8:17Z</time></trkpt>
<trkpt lat="43.4949177" lon="6.9038927"><ele></ele><time>2022-5-31T3:8:20Z</time></trkpt>
<trkpt lat="43.4949177" lon="6.9038927"><ele></ele><time>2022-5-31T3:8:23Z</time></trkpt>
<trkpt lat="43.4949177" lon="6.9038927"><ele></ele><time>2022-5-31T3:8:26Z</time></trkpt>
<trkpt lat="43.4949177" lon="6.9038927"><ele></ele><time>2022-5-31T3:8:29Z</time></trkpt>
<trkpt lat="43.4949177" lon="6.9038927"><ele></ele><time>2022-5-31T3:8:32Z</time></trkpt>
<trkpt lat="43.4949177" lon="6.9038927"><ele></ele><time>2022-5-31T3:8:35Z</time></trkpt>
<trkpt lat="43.4949177" lon="6.9038927"><ele></ele><time>2022-5-31T3:8:38Z</time></trkpt>
<trkpt lat="43.4949177" lon="6.9038927"><ele></ele><time>2022-5-31T3:8:41Z</time></trkpt>
<trkpt lat="43.4949177" lon="6.9038927"><ele></ele><time>2022-5-31T3:8:44Z</time></trkpt>
<trkpt lat="43.4949177" lon="6.9038927"><ele></ele><time>2022-5-31T3:8:47Z</time></trkpt>
<trkpt lat="43.4949177" lon="6.9038927"><ele></ele><time>2022-5-31T3:8:50Z</time></trkpt>
<trkpt lat="43.4949177" lon="6.9038927"><ele></ele><time>2022-5-31T3:8:53Z</time></trkpt>
<trkpt lat="43.4949177" lon="6.9038927"><ele></ele><time>2022-5-31T3:8:56Z</time></trkpt>
<trkpt lat="43.4949177" lon="6.9038927"><ele></ele><time>2022-5-31T3:8:59Z</time></trkpt>
<trkpt lat="43.4949177" lon="6.9038927"><ele></ele><time>2022-5-31T3:9:2Z</time></trkpt>
<trkpt lat="43.4949177" lon="6.9038927"><ele></ele><time>2022-5-31T3:9:5Z</time></trkpt>
<trkpt lat="43.4949177" lon="6.9038927"><ele></ele><time>2022-5-31T3:9:8Z</time></trkpt>
<trkpt lat="43.4949177" lon="6.9038927"><ele></ele><time>2022-5-31T3:9:11Z</time></trkpt>
<trkpt lat="43.4949177" lon="6.9038927"><ele></ele><time>2022-5-31T3:9:14Z</time></trkpt>
<trkpt lat="43.4949177" lon="6.9038927"><ele></ele><time>2022-5-31T3:9:17Z</time></trkpt>
<trkpt lat="43.4949177" lon="6.9038927"><ele></ele><time>2022-5-31T3:9:20Z</time></trkpt>
<trkpt lat="43.4949177" lon="6.9038927"><ele></ele><time>2022-5-31T3:9:23Z</time></trkpt>
<trkpt lat="43.4949177" lon="6.9038927"><ele></ele><time>2022-5-31T3:9:26Z</time></trkpt>
<trkpt lat="43.4949177" lon="6.9038927"><ele></ele><time>2022-5-31T3:9:29Z</time></trkpt>
<trkpt lat="43.4949177" lon="6.9038927"><ele></ele><time>2022-5-31T3:9:32Z</time></trkpt>
<trkpt lat="43.4949177" lon="6.9038927"><ele></ele><time>2022-5-31T3:9:35Z</time></trkpt>
<trkpt lat="43.4949177" lon="6.9038927"><ele></ele><time>2022-5-31T3:9:38Z</time></trkpt>
<trkpt lat="43.4949177" lon="6.9038927"><ele></ele><time>2022-5-31T3:9:41Z</time></trkpt>
<trkpt lat="43.4949177" lon="6.9038927"><ele></ele><time>2022-5-31T3:9:44Z</time></trkpt>
<trkpt lat="43.4949177" lon="6.9038927"><ele></ele><time>2022-5-31T3:9:47Z</time></trkpt>
<trkpt lat="43.4949177" lon="6.9038927"><ele></ele><time>2022-5-31T3:9:50Z</time></trkpt>
<trkpt lat="43.4949177" lon="6.9038927"><ele></ele><time>2022-5-31T3:9:53Z</time></trkpt>
<trkpt lat="43.4949177" lon="6.9038927"><ele></ele><time>2022-5-31T3:9:56Z</time></trkpt>
<trkpt lat="43.4949177" lon="6.9038927"><ele></ele><time>2022-5-31T3:9:59Z</time></trkpt>
<trkpt lat="43.4949177" lon="6.9038927"><ele></ele><time>2022-5-31T3:10:2Z</time></trkpt>
<trkpt lat="43.4949177" lon="6.9038927"><ele></ele><time>2022-5-31T3:10:5Z</time></trkpt>
<trkpt lat="43.4949177" lon="6.9038927"><ele></ele><time>2022-5-31T3:10:8Z</time></trkpt>
<trkpt lat="43.4949177" lon="6.9038927"><ele></ele><time>2022-5-31T3:10:11Z</time></trkpt>
<trkpt lat="43.4949177" lon="6.9038927"><ele></ele><time>2022-5-31T3:10:14Z</time></trkpt>
<trkpt lat="43.4949177" lon="6.9038927"><ele></ele><time>2022-5-31T3:10:17Z</time></trkpt>
<trkpt lat="43.4949177" lon="6.9038927"><ele></ele><time>2022-5-31T3:10:20Z</time></trkpt>
<trkpt lat="43.4949177" lon="6.9038927"><ele></ele><time>2022-5-31T3:10:23Z</time></trkpt>
<trkpt lat="43.4949177" lon="6.9038927"><ele></ele><time>2022-5-31T3:10:26Z</time></trkpt>
<trkpt lat="43.4949177" lon="6.9038927"><ele></ele><time>2022-5-31T3:10:29Z</time></trkpt>
<trkpt lat="43.4949177" lon="6.9038927"><ele></ele><time>2022-5-31T3:10:32Z</time></trkpt>
<trkpt lat="43.4949177" lon="6.9038927"><ele></ele><time>2022-5-31T3:10:35Z</time></trkpt>
<trkpt lat="43.4949177" lon="6.9038927"><ele></ele><time>2022-5-31T3:10:38Z</time></trkpt>
<trkpt lat="43.4949177" lon="6.9038927"><ele></ele><time>2022-5-31T3:10:41Z</time></trkpt>
<trkpt lat="43.4949177" lon="6.9038927"><ele></ele><time>2022-5-31T3:10:44Z</time></trkpt>
<trkpt lat="43.4949177" lon="6.9038927"><ele></ele><time>2022-5-31T3:10:47Z</time></trkpt>
<trkpt lat="43.4949177" lon="6.9038927"><ele></ele><time>2022-5-31T3:10:50Z</time></trkpt>
<trkpt lat="43.4949177" lon="6.9038927"><ele></ele><time>2022-5-31T3:10:53Z</time></trkpt>
<trkpt lat="43.4949177" lon="6.9038927"><ele></ele><time>2022-5-31T3:10:56Z</time></trkpt>
<trkpt lat="43.4949177" lon="6.9038927"><ele></ele><time>2022-5-31T3:10:59Z</time></trkpt>
<trkpt lat="43.4949177" lon="6.9038927"><ele></ele><time>2022-5-31T3:11:2Z</time></trkpt>
<trkpt lat="43.4949177" lon="6.9038927"><ele></ele><time>2022-5-31T3:11:5Z</time></trkpt>
<trkpt lat="43.4949177" lon="6.9038927"><ele></ele><time>2022-5-31T3:11:8Z</time></trkpt>
<trkpt lat="43.4949177" lon="6.9038927"><ele></ele><time>2022-5-31T3:11:11Z</time></trkpt>
<trkpt lat="43.4949177" lon="6.9038927"><ele></ele><time>2022-5-31T3:11:14Z</time></trkpt>
<trkpt lat="43.4949177" lon="6.9038927"><ele></ele><time>2022-5-31T3:11:17Z</time></trkpt>
<trkpt lat="43.4949177" lon="6.9038927"><ele></ele><time>2022-5-31T3:11:20Z</time></trkpt>
<trkpt lat="43.4949177" lon="6.9038927"><ele></ele><time>2022-5-31T3:11:23Z</time></trkpt>
<trkpt lat="43.4949177" lon="6.9038927"><ele></ele><time>2022-5-31T3:11:26Z</time></trkpt>
<trkpt lat="43.4949177" lon="6.9038927"><ele></ele><time>2022-5-31T3:11:29Z</time></trkpt>
<trkpt lat="43.4949177" lon="6.9038927"><ele></ele><time>2022-5-31T3:11:32Z</time></trkpt>
<trkpt lat="43.4949177" lon="6.9038927"><ele></ele><time>2022-5-31T3:11:35Z</time></trkpt>
<trkpt lat="43.4949177" lon="6.9038927"><ele></ele><time>2022-5-31T3:11:38Z</time></trkpt>
<trkpt lat="43.4949177" lon="6.9038927"><ele></ele><time>2022-5-31T3:11:41Z</time></trkpt>
<trkpt lat="43.4949177" lon="6.9038927"><ele></ele><time>2022-5-31T3:11:44Z</time></trkpt>
<trkpt lat="43.4949177" lon="6.9038927"><ele></ele><time>2022-5-31T3:11:47Z</time></trkpt>
<trkpt lat="43.4949177" lon="6.9038927"><ele></ele><time>2022-5-31T3:11:50Z</time></trkpt>
<trkpt lat="43.4949177" lon="6.9038927"><ele></ele><time>2022-5-31T3:11:53Z</time></trkpt>
<trkpt lat="43.4949177" lon="6.9038927"><ele></ele><time>2022-5-31T3:11:56Z</time></trkpt>
<trkpt lat="43.4949177" lon="6.9038927"><ele></ele><time>2022-5-31T3:11:59Z</time></trkpt>
<trkpt lat="43.4949177" lon="6.9038927"><ele></ele><time>2022-5-31T3:12:2Z</time></trkpt>
<trkpt lat="43.4949029" lon="6.9039206"><ele></ele><time>2022-5-31T3:12:5Z</time></trkpt>
<trkpt lat="43.4949028" lon="6.9039207"><ele></ele><time>2022-5-31T3:12:8Z</time></trkpt>
<trkpt lat="43.4949027" lon="6.9039209"><ele></ele><time>2022-5-31T3:12:11Z</time></trkpt>
<trkpt lat="43.4949027" lon="6.9039209"><ele></ele><time>2022-5-31T3:12:14Z</time></trkpt>
<trkpt lat="43.4949026" lon="6.9039210"><ele></ele><time>2022-5-31T3:12:17Z</time></trkpt>
<trkpt lat="43.4949026" lon="6.9039211"><ele></ele><time>2022-5-31T3:12:20Z</time></trkpt>
<trkpt lat="43.4949026" lon="6.9039212"><ele></ele><time>2022-5-31T3:12:23Z</time></trkpt>
<trkpt lat="43.4949027" lon="6.9039213"><ele></ele><time>2022-5-31T3:12:26Z</time></trkpt>
<trkpt lat="43.4949027" lon="6.9039215"><ele></ele><time>2022-5-31T3:12:29Z</time></trkpt>
<trkpt lat="43.4949027" lon="6.9039217"><ele></ele><time>2022-5-31T3:12:32Z</time></trkpt>
<trkpt lat="43.4949026" lon="6.9039220"><ele></ele><time>2022-5-31T3:12:35Z</time></trkpt>
<trkpt lat="43.4949027" lon="6.9039221"><ele></ele><time>2022-5-31T3:12:38Z</time></trkpt>
<trkpt lat="43.4949027" lon="6.9039222"><ele></ele><time>2022-5-31T3:12:41Z</time></trkpt>
<trkpt lat="43.4949026" lon="6.9039220"><ele></ele><time>2022-5-31T3:12:44Z</time></trkpt>
<trkpt lat="43.4949027" lon="6.9039221"><ele></ele><time>2022-5-31T3:12:47Z</time></trkpt>
<trkpt lat="43.4949028" lon="6.9039220"><ele></ele><time>2022-5-31T3:12:50Z</time></trkpt>
<trkpt lat="43.4949028" lon="6.9039218"><ele></ele><time>2022-5-31T3:12:53Z</time></trkpt>
<trkpt lat="43.4949030" lon="6.9039216"><ele></ele><time>2022-5-31T3:12:56Z</time></trkpt>
<trkpt lat="43.4949030" lon="6.9039214"><ele></ele><time>2022-5-31T3:12:59Z</time></trkpt>
<trkpt lat="43.4949033" lon="6.9039211"><ele></ele><time>2022-5-31T3:13:2Z</time></trkpt>
<trkpt lat="43.4949032" lon="6.9039210"><ele></ele><time>2022-5-31T3:13:5Z</time></trkpt>
<trkpt lat="43.4949033" lon="6.9039207"><ele></ele><time>2022-5-31T3:13:8Z</time></trkpt>
<trkpt lat="43.4949034" lon="6.9039207"><ele></ele><time>2022-5-31T3:13:11Z</time></trkpt>
<trkpt lat="43.4949034" lon="6.9039206"><ele></ele><time>2022-5-31T3:13:14Z</time></trkpt>
<trkpt lat="43.4949034" lon="6.9039206"><ele></ele><time>2022-5-31T3:13:17Z</time></trkpt>
<trkpt lat="43.4949035" lon="6.9039203"><ele></ele><time>2022-5-31T3:13:20Z</time></trkpt>
<trkpt lat="43.4949038" lon="6.9039202"><ele></ele><time>2022-5-31T3:13:23Z</time></trkpt>
<trkpt lat="43.4949038" lon="6.9039201"><ele></ele><time>2022-5-31T3:13:26Z</time></trkpt>
<trkpt lat="43.4949038" lon="6.9039199"><ele></ele><time>2022-5-31T3:13:29Z</time></trkpt>
<trkpt lat="43.4949040" lon="6.9039195"><ele></ele><time>2022-5-31T3:13:32Z</time></trkpt>
<trkpt lat="43.4949040" lon="6.9039194"><ele></ele><time>2022-5-31T3:13:35Z</time></trkpt>
<trkpt lat="43.4949040" lon="6.9039193"><ele></ele><time>2022-5-31T3:13:38Z</time></trkpt>
<trkpt lat="43.4949041" lon="6.9039191"><ele></ele><time>2022-5-31T3:13:41Z</time></trkpt>
<trkpt lat="43.4949042" lon="6.9039188"><ele></ele><time>2022-5-31T3:13:44Z</time></trkpt>
<trkpt lat="43.4949043" lon="6.9039186"><ele></ele><time>2022-5-31T3:13:47Z</time></trkpt>
<trkpt lat="43.4949042" lon="6.9039185"><ele></ele><time>2022-5-31T3:13:50Z</time></trkpt>
<trkpt lat="43.4949042" lon="6.9039184"><ele></ele><time>2022-5-31T3:13:53Z</time></trkpt>
<trkpt lat="43.4949043" lon="6.9039183"><ele></ele><time>2022-5-31T3:13:56Z</time></trkpt>
<trkpt lat="43.4949043" lon="6.9039183"><ele></ele><time>2022-5-31T3:13:59Z</time></trkpt>
<trkpt lat="43.4949042" lon="6.9039181"><ele></ele><time>2022-5-31T3:14:2Z</time></trkpt>
<trkpt lat="43.4949042" lon="6.9039181"><ele></ele><time>2022-5-31T3:14:5Z</time></trkpt>
<trkpt lat="43.4949042" lon="6.9039181"><ele></ele><time>2022-5-31T3:14:8Z</time></trkpt>
<trkpt lat="43.4949042" lon="6.9039182"><ele></ele><time>2022-5-31T3:14:11Z</time></trkpt>
<trkpt lat="43.4949042" lon="6.9039181"><ele></ele><time>2022-5-31T3:14:14Z</time></trkpt>
<trkpt lat="43.4949042" lon="6.9039180"><ele></ele><time>2022-5-31T3:14:17Z</time></trkpt>
<trkpt lat="43.4949042" lon="6.9039181"><ele></ele><time>2022-5-31T3:14:20Z</time></trkpt>
<trkpt lat="43.4949042" lon="6.9039181"><ele></ele><time>2022-5-31T3:14:23Z</time></trkpt>
<trkpt lat="43.4949042" lon="6.9039181"><ele></ele><time>2022-5-31T3:14:26Z</time></trkpt>
<trkpt lat="43.4949042" lon="6.9039180"><ele></ele><time>2022-5-31T3:14:29Z</time></trkpt>
<trkpt lat="43.4949042" lon="6.9039180"><ele></ele><time>2022-5-31T3:14:32Z</time></trkpt>
<trkpt lat="43.4949042" lon="6.9039179"><ele></ele><time>2022-5-31T3:14:35Z</time></trkpt>
<trkpt lat="43.4949042" lon="6.9039179"><ele></ele><time>2022-5-31T3:14:38Z</time></trkpt>
<trkpt lat="43.4949041" lon="6.9039180"><ele></ele><time>2022-5-31T3:14:41Z</time></trkpt>
<trkpt lat="43.4949043" lon="6.9039177"><ele></ele><time>2022-5-31T3:14:44Z</time></trkpt>
<trkpt lat="43.4949047" lon="6.9039171"><ele></ele><time>2022-5-31T3:14:47Z</time></trkpt>
<trkpt lat="43.4949047" lon="6.9039171"><ele></ele><time>2022-5-31T3:14:50Z</time></trkpt>
<trkpt lat="43.4949046" lon="6.9039171"><ele></ele><time>2022-5-31T3:14:53Z</time></trkpt>
<trkpt lat="43.4949046" lon="6.9039171"><ele></ele><time>2022-5-31T3:14:56Z</time></trkpt>
<trkpt lat="43.4949052" lon="6.9039169"><ele></ele><time>2022-5-31T3:14:59Z</time></trkpt>
<trkpt lat="43.4949054" lon="6.9039169"><ele></ele><time>2022-5-31T3:15:2Z</time></trkpt>
<trkpt lat="43.4949055" lon="6.9039171"><ele></ele><time>2022-5-31T3:15:5Z</time></trkpt>
<trkpt lat="43.4949055" lon="6.9039171"><ele></ele><time>2022-5-31T3:15:8Z</time></trkpt>
<trkpt lat="43.4949055" lon="6.9039174"><ele></ele><time>2022-5-31T3:15:11Z</time></trkpt>
<trkpt lat="43.4949057" lon="6.9039177"><ele></ele><time>2022-5-31T3:15:14Z</time></trkpt>
<trkpt lat="43.4949058" lon="6.9039174"><ele></ele><time>2022-5-31T3:15:17Z</time></trkpt>
<trkpt lat="43.4949056" lon="6.9039175"><ele></ele><time>2022-5-31T3:15:20Z</time></trkpt>
<trkpt lat="43.4949057" lon="6.9039175"><ele></ele><time>2022-5-31T3:15:23Z</time></trkpt>
<trkpt lat="43.4949057" lon="6.9039176"><ele></ele><time>2022-5-31T3:15:26Z</time></trkpt>
<trkpt lat="43.4949057" lon="6.9039176"><ele></ele><time>2022-5-31T3:15:29Z</time></trkpt>
<trkpt lat="43.4949057" lon="6.9039176"><ele></ele><time>2022-5-31T3:15:32Z</time></trkpt>
<trkpt lat="43.4949058" lon="6.9039175"><ele></ele><time>2022-5-31T3:15:35Z</time></trkpt>
<trkpt lat="43.4949061" lon="6.9039176"><ele></ele><time>2022-5-31T3:15:38Z</time></trkpt>
<trkpt lat="43.4949062" lon="6.9039176"><ele></ele><time>2022-5-31T3:15:41Z</time></trkpt>
<trkpt lat="43.4949063" lon="6.9039177"><ele></ele><time>2022-5-31T3:15:44Z</time></trkpt>
<trkpt lat="43.4949064" lon="6.9039179"><ele></ele><time>2022-5-31T3:15:47Z</time></trkpt>
<trkpt lat="43.4949065" lon="6.9039180"><ele></ele><time>2022-5-31T3:15:50Z</time></trkpt>
<trkpt lat="43.4949065" lon="6.9039180"><ele></ele><time>2022-5-31T3:15:53Z</time></trkpt>
<trkpt lat="43.4949067" lon="6.9039181"><ele></ele><time>2022-5-31T3:15:56Z</time></trkpt>
<trkpt lat="43.4949067" lon="6.9039182"><ele></ele><time>2022-5-31T3:15:59Z</time></trkpt>
<trkpt lat="43.4949068" lon="6.9039183"><ele></ele><time>2022-5-31T3:16:2Z</time></trkpt>
<trkpt lat="43.4949068" lon="6.9039183"><ele></ele><time>2022-5-31T3:16:5Z</time></trkpt>
<trkpt lat="43.4949069" lon="6.9039182"><ele></ele><time>2022-5-31T3:16:8Z</time></trkpt>
<trkpt lat="43.4949070" lon="6.9039182"><ele></ele><time>2022-5-31T3:16:11Z</time></trkpt>
<trkpt lat="43.4949071" lon="6.9039184"><ele></ele><time>2022-5-31T3:16:14Z</time></trkpt>
<trkpt lat="43.4949071" lon="6.9039184"><ele></ele><time>2022-5-31T3:16:17Z</time></trkpt>
<trkpt lat="43.4949071" lon="6.9039187"><ele></ele><time>2022-5-31T3:16:20Z</time></trkpt>
<trkpt lat="43.4949073" lon="6.9039189"><ele></ele><time>2022-5-31T3:16:23Z</time></trkpt>
<trkpt lat="43.4949073" lon="6.9039188"><ele></ele><time>2022-5-31T3:16:26Z</time></trkpt>
<trkpt lat="43.4949075" lon="6.9039189"><ele></ele><time>2022-5-31T3:16:29Z</time></trkpt>
<trkpt lat="43.4949077" lon="6.9039191"><ele></ele><time>2022-5-31T3:16:32Z</time></trkpt>
<trkpt lat="43.4949077" lon="6.9039194"><ele></ele><time>2022-5-31T3:16:35Z</time></trkpt>
<trkpt lat="43.4949077" lon="6.9039194"><ele></ele><time>2022-5-31T3:16:38Z</time></trkpt>
<trkpt lat="43.4949076" lon="6.9039197"><ele></ele><time>2022-5-31T3:16:41Z</time></trkpt>
<trkpt lat="43.4949077" lon="6.9039198"><ele></ele><time>2022-5-31T3:16:44Z</time></trkpt>
<trkpt lat="43.4949077" lon="6.9039199"><ele></ele><time>2022-5-31T3:16:47Z</time></trkpt>
<trkpt lat="43.4949078" lon="6.9039201"><ele></ele><time>2022-5-31T3:16:50Z</time></trkpt>
<trkpt lat="43.4949078" lon="6.9039205"><ele></ele><time>2022-5-31T3:16:53Z</time></trkpt>
<trkpt lat="43.4949078" lon="6.9039207"><ele></ele><time>2022-5-31T3:16:56Z</time></trkpt>
<trkpt lat="43.4949078" lon="6.9039207"><ele></ele><time>2022-5-31T3:16:59Z</time></trkpt>
<trkpt lat="43.4949077" lon="6.9039205"><ele></ele><time>2022-5-31T3:17:2Z</time></trkpt>
<trkpt lat="43.4949076" lon="6.9039204"><ele></ele><time>2022-5-31T3:17:5Z</time></trkpt>
<trkpt lat="43.4949079" lon="6.9039202"><ele></ele><time>2022-5-31T3:17:8Z</time></trkpt>
<trkpt lat="43.4949080" lon="6.9039201"><ele></ele><time>2022-5-31T3:17:11Z</time></trkpt>
<trkpt lat="43.4949081" lon="6.9039199"><ele></ele><time>2022-5-31T3:17:14Z</time></trkpt>
<trkpt lat="43.4949083" lon="6.9039197"><ele></ele><time>2022-5-31T3:17:17Z</time></trkpt>
<trkpt lat="43.4949084" lon="6.9039196"><ele></ele><time>2022-5-31T3:17:20Z</time></trkpt>
<trkpt lat="43.4949086" lon="6.9039193"><ele></ele><time>2022-5-31T3:17:23Z</time></trkpt>
<trkpt lat="43.4949086" lon="6.9039192"><ele></ele><time>2022-5-31T3:17:26Z</time></trkpt>
<trkpt lat="43.4949087" lon="6.9039190"><ele></ele><time>2022-5-31T3:17:29Z</time></trkpt>
<trkpt lat="43.4949088" lon="6.9039187"><ele></ele><time>2022-5-31T3:17:32Z</time></trkpt>
<trkpt lat="43.4949088" lon="6.9039187"><ele></ele><time>2022-5-31T3:17:35Z</time></trkpt>
<trkpt lat="43.4949088" lon="6.9039185"><ele></ele><time>2022-5-31T3:17:38Z</time></trkpt>
<trkpt lat="43.4949088" lon="6.9039182"><ele></ele><time>2022-5-31T3:17:41Z</time></trkpt>
<trkpt lat="43.4949089" lon="6.9039179"><ele></ele><time>2022-5-31T3:17:44Z</time></trkpt>
<trkpt lat="43.4949089" lon="6.9039178"><ele></ele><time>2022-5-31T3:17:47Z</time></trkpt>
<trkpt lat="43.4949090" lon="6.9039176"><ele></ele><time>2022-5-31T3:17:50Z</time></trkpt>
<trkpt lat="43.4949090" lon="6.9039176"><ele></ele><time>2022-5-31T3:17:53Z</time></trkpt>
<trkpt lat="43.4949093" lon="6.9039167"><ele></ele><time>2022-5-31T3:17:56Z</time></trkpt>
<trkpt lat="43.4949094" lon="6.9039164"><ele></ele><time>2022-5-31T3:17:59Z</time></trkpt>
<trkpt lat="43.4949096" lon="6.9039162"><ele></ele><time>2022-5-31T3:18:2Z</time></trkpt>
<trkpt lat="43.4949097" lon="6.9039161"><ele></ele><time>2022-5-31T3:18:5Z</time></trkpt>
<trkpt lat="43.4949097" lon="6.9039161"><ele></ele><time>2022-5-31T3:18:8Z</time></trkpt>
<trkpt lat="43.4949096" lon="6.9039159"><ele></ele><time>2022-5-31T3:18:11Z</time></trkpt>
<trkpt lat="43.4949096" lon="6.9039158"><ele></ele><time>2022-5-31T3:18:14Z</time></trkpt>
<trkpt lat="43.4949102" lon="6.9039156"><ele></ele><time>2022-5-31T3:18:17Z</time></trkpt>
<trkpt lat="43.4949104" lon="6.9039152"><ele></ele><time>2022-5-31T3:18:20Z</time></trkpt>
<trkpt lat="43.4949104" lon="6.9039152"><ele></ele><time>2022-5-31T3:18:23Z</time></trkpt>
<trkpt lat="43.4949105" lon="6.9039151"><ele></ele><time>2022-5-31T3:18:26Z</time></trkpt>
<trkpt lat="43.4949106" lon="6.9039152"><ele></ele><time>2022-5-31T3:18:29Z</time></trkpt>
<trkpt lat="43.4949108" lon="6.9039152"><ele></ele><time>2022-5-31T3:18:32Z</time></trkpt>
<trkpt lat="43.4949110" lon="6.9039153"><ele></ele><time>2022-5-31T3:18:35Z</time></trkpt>
<trkpt lat="43.4949112" lon="6.9039152"><ele></ele><time>2022-5-31T3:18:38Z</time></trkpt>
<trkpt lat="43.4949113" lon="6.9039151"><ele></ele><time>2022-5-31T3:18:41Z</time></trkpt>
<trkpt lat="43.4949115" lon="6.9039149"><ele></ele><time>2022-5-31T3:18:44Z</time></trkpt>
<trkpt lat="43.4949117" lon="6.9039147"><ele></ele><time>2022-5-31T3:18:47Z</time></trkpt>
<trkpt lat="43.4949117" lon="6.9039147"><ele></ele><time>2022-5-31T3:18:50Z</time></trkpt>
<trkpt lat="43.4949118" lon="6.9039147"><ele></ele><time>2022-5-31T3:18:53Z</time></trkpt>
<trkpt lat="43.4949119" lon="6.9039146"><ele></ele><time>2022-5-31T3:18:56Z</time></trkpt>
<trkpt lat="43.4949120" lon="6.9039146"><ele></ele><time>2022-5-31T3:18:59Z</time></trkpt>
<trkpt lat="43.4949121" lon="6.9039143"><ele></ele><time>2022-5-31T3:19:2Z</time></trkpt>
<trkpt lat="43.4949121" lon="6.9039141"><ele></ele><time>2022-5-31T3:19:5Z</time></trkpt>
<trkpt lat="43.4949122" lon="6.9039143"><ele></ele><time>2022-5-31T3:19:8Z</time></trkpt>
<trkpt lat="43.4949122" lon="6.9039142"><ele></ele><time>2022-5-31T3:19:11Z</time></trkpt>
<trkpt lat="43.4949123" lon="6.9039144"><ele></ele><time>2022-5-31T3:19:14Z</time></trkpt>
<trkpt lat="43.4949125" lon="6.9039144"><ele></ele><time>2022-5-31T3:19:17Z</time></trkpt>
<trkpt lat="43.4949125" lon="6.9039145"><ele></ele><time>2022-5-31T3:19:20Z</time></trkpt>
<trkpt lat="43.4949126" lon="6.9039146"><ele></ele><time>2022-5-31T3:19:23Z</time></trkpt>
<trkpt lat="43.4949129" lon="6.9039145"><ele></ele><time>2022-5-31T3:19:26Z</time></trkpt>
<trkpt lat="43.4949129" lon="6.9039148"><ele></ele><time>2022-5-31T3:19:29Z</time></trkpt>
<trkpt lat="43.4949130" lon="6.9039148"><ele></ele><time>2022-5-31T3:19:32Z</time></trkpt>
<trkpt lat="43.4949130" lon="6.9039143"><ele></ele><time>2022-5-31T3:19:35Z</time></trkpt>
<trkpt lat="43.4949123" lon="6.9039145"><ele></ele><time>2022-5-31T3:19:38Z</time></trkpt>
<trkpt lat="43.4949121" lon="6.9039146"><ele></ele><time>2022-5-31T3:19:41Z</time></trkpt>
<trkpt lat="43.4949120" lon="6.9039147"><ele></ele><time>2022-5-31T3:19:44Z</time></trkpt>
<trkpt lat="43.4949120" lon="6.9039149"><ele></ele><time>2022-5-31T3:19:47Z</time></trkpt>
<trkpt lat="43.4949116" lon="6.9039149"><ele></ele><time>2022-5-31T3:19:50Z</time></trkpt>
<trkpt lat="43.4949117" lon="6.9039148"><ele></ele><time>2022-5-31T3:19:53Z</time></trkpt>
<trkpt lat="43.4949113" lon="6.9039150"><ele></ele><time>2022-5-31T3:19:56Z</time></trkpt>
<trkpt lat="43.4949109" lon="6.9039153"><ele></ele><time>2022-5-31T3:19:59Z</time></trkpt>
<trkpt lat="43.4949111" lon="6.9039153"><ele></ele><time>2022-5-31T3:20:2Z</time></trkpt>
<trkpt lat="43.4949109" lon="6.9039153"><ele></ele><time>2022-5-31T3:20:5Z</time></trkpt>
<trkpt lat="43.4949110" lon="6.9039154"><ele></ele><time>2022-5-31T3:20:8Z</time></trkpt>
<trkpt lat="43.4949113" lon="6.9039153"><ele></ele><time>2022-5-31T3:20:11Z</time></trkpt>
<trkpt lat="43.4949114" lon="6.9039151"><ele></ele><time>2022-5-31T3:20:14Z</time></trkpt>
<trkpt lat="43.4949115" lon="6.9039147"><ele></ele><time>2022-5-31T3:20:17Z</time></trkpt>
<trkpt lat="43.4949116" lon="6.9039145"><ele></ele><time>2022-5-31T3:20:20Z</time></trkpt>
<trkpt lat="43.4949118" lon="6.9039144"><ele></ele><time>2022-5-31T3:20:23Z</time></trkpt>
<trkpt lat="43.4949120" lon="6.9039144"><ele></ele><time>2022-5-31T3:20:26Z</time></trkpt>
<trkpt lat="43.4949120" lon="6.9039144"><ele></ele><time>2022-5-31T3:20:29Z</time></trkpt>
<trkpt lat="43.4949122" lon="6.9039142"><ele></ele><time>2022-5-31T3:20:32Z</time></trkpt>
<trkpt lat="43.4949124" lon="6.9039142"><ele></ele><time>2022-5-31T3:20:35Z</time></trkpt>
<trkpt lat="43.4949128" lon="6.9039143"><ele></ele><time>2022-5-31T3:20:38Z</time></trkpt>
<trkpt lat="43.4949126" lon="6.9039141"><ele></ele><time>2022-5-31T3:20:41Z</time></trkpt>
<trkpt lat="43.4949128" lon="6.9039141"><ele></ele><time>2022-5-31T3:20:44Z</time></trkpt>
<trkpt lat="43.4949129" lon="6.9039140"><ele></ele><time>2022-5-31T3:20:47Z</time></trkpt>
<trkpt lat="43.4949129" lon="6.9039139"><ele></ele><time>2022-5-31T3:20:50Z</time></trkpt>
<trkpt lat="43.4949127" lon="6.9039139"><ele></ele><time>2022-5-31T3:20:53Z</time></trkpt>
<trkpt lat="43.4949126" lon="6.9039139"><ele></ele><time>2022-5-31T3:20:56Z</time></trkpt>
<trkpt lat="43.4949128" lon="6.9039134"><ele></ele><time>2022-5-31T3:20:59Z</time></trkpt>
<trkpt lat="43.4949127" lon="6.9039134"><ele></ele><time>2022-5-31T3:21:2Z</time></trkpt>
<trkpt lat="43.4949123" lon="6.9039128"><ele></ele><time>2022-5-31T3:21:5Z</time></trkpt>
<trkpt lat="43.4949116" lon="6.9039130"><ele></ele><time>2022-5-31T3:21:8Z</time></trkpt>
<trkpt lat="43.4949117" lon="6.9039135"><ele></ele><time>2022-5-31T3:21:11Z</time></trkpt>
<trkpt lat="43.4949111" lon="6.9039136"><ele></ele><time>2022-5-31T3:21:14Z</time></trkpt>
<trkpt lat="43.4949110" lon="6.9039137"><ele></ele><time>2022-5-31T3:21:17Z</time></trkpt>
<trkpt lat="43.4949113" lon="6.9039136"><ele></ele><time>2022-5-31T3:21:20Z</time></trkpt>
<trkpt lat="43.4949117" lon="6.9039135"><ele></ele><time>2022-5-31T3:21:23Z</time></trkpt>
<trkpt lat="43.4949120" lon="6.9039136"><ele></ele><time>2022-5-31T3:21:26Z</time></trkpt>
<trkpt lat="43.4949117" lon="6.9039136"><ele></ele><time>2022-5-31T3:21:29Z</time></trkpt>
<trkpt lat="43.4949124" lon="6.9039131"><ele></ele><time>2022-5-31T3:21:32Z</time></trkpt>
<trkpt lat="43.4949127" lon="6.9039129"><ele></ele><time>2022-5-31T3:21:35Z</time></trkpt>
<trkpt lat="43.4949126" lon="6.9039130"><ele></ele><time>2022-5-31T3:21:38Z</time></trkpt>
<trkpt lat="43.4949126" lon="6.9039130"><ele></ele><time>2022-5-31T3:21:41Z</time></trkpt>
<trkpt lat="43.4949129" lon="6.9039128"><ele></ele><time>2022-5-31T3:21:44Z</time></trkpt>
<trkpt lat="43.4949123" lon="6.9039129"><ele></ele><time>2022-5-31T3:21:47Z</time></trkpt>
<trkpt lat="43.4949123" lon="6.9039131"><ele></ele><time>2022-5-31T3:21:50Z</time></trkpt>
<trkpt lat="43.4949123" lon="6.9039132"><ele></ele><time>2022-5-31T3:21:53Z</time></trkpt>
<trkpt lat="43.4949122" lon="6.9039132"><ele></ele><time>2022-5-31T3:21:56Z</time></trkpt>
<trkpt lat="43.4949124" lon="6.9039132"><ele></ele><time>2022-5-31T3:21:59Z</time></trkpt>
<trkpt lat="43.4949125" lon="6.9039132"><ele></ele><time>2022-5-31T3:22:2Z</time></trkpt>
<trkpt lat="43.4949127" lon="6.9039133"><ele></ele><time>2022-5-31T3:22:5Z</time></trkpt>
<trkpt lat="43.4949128" lon="6.9039134"><ele></ele><time>2022-5-31T3:22:8Z</time></trkpt>
<trkpt lat="43.4949128" lon="6.9039135"><ele></ele><time>2022-5-31T3:22:11Z</time></trkpt>
<trkpt lat="43.4949128" lon="6.9039136"><ele></ele><time>2022-5-31T3:22:14Z</time></trkpt>
<trkpt lat="43.4949129" lon="6.9039135"><ele></ele><time>2022-5-31T3:22:17Z</time></trkpt>
<trkpt lat="43.4949128" lon="6.9039136"><ele></ele><time>2022-5-31T3:22:20Z</time></trkpt>
<trkpt lat="43.4949130" lon="6.9039133"><ele></ele><time>2022-5-31T3:22:23Z</time></trkpt>
<trkpt lat="43.4949132" lon="6.9039133"><ele></ele><time>2022-5-31T3:22:26Z</time></trkpt>
<trkpt lat="43.4949132" lon="6.9039134"><ele></ele><time>2022-5-31T3:22:29Z</time></trkpt>
<trkpt lat="43.4949132" lon="6.9039134"><ele></ele><time>2022-5-31T3:22:32Z</time></trkpt>
<trkpt lat="43.4949134" lon="6.9039133"><ele></ele><time>2022-5-31T3:22:35Z</time></trkpt>
<trkpt lat="43.4949133" lon="6.9039133"><ele></ele><time>2022-5-31T3:22:38Z</time></trkpt>
<trkpt lat="43.4949133" lon="6.9039132"><ele></ele><time>2022-5-31T3:22:41Z</time></trkpt>
<trkpt lat="43.4949132" lon="6.9039131"><ele></ele><time>2022-5-31T3:22:44Z</time></trkpt>
<trkpt lat="43.4949132" lon="6.9039130"><ele></ele><time>2022-5-31T3:22:47Z</time></trkpt>
<trkpt lat="43.4949132" lon="6.9039130"><ele></ele><time>2022-5-31T3:22:50Z</time></trkpt>
<trkpt lat="43.4949131" lon="6.9039130"><ele></ele><time>2022-5-31T3:22:53Z</time></trkpt>
<trkpt lat="43.4949131" lon="6.9039131"><ele></ele><time>2022-5-31T3:22:56Z</time></trkpt>
<trkpt lat="43.4949128" lon="6.9039131"><ele></ele><time>2022-5-31T3:22:59Z</time></trkpt>
<trkpt lat="43.4949131" lon="6.9039129"><ele></ele><time>2022-5-31T3:23:2Z</time></trkpt>
<trkpt lat="43.4949130" lon="6.9039129"><ele></ele><time>2022-5-31T3:23:5Z</time></trkpt>
<trkpt lat="43.4949131" lon="6.9039127"><ele></ele><time>2022-5-31T3:23:8Z</time></trkpt>
<trkpt lat="43.4949132" lon="6.9039127"><ele></ele><time>2022-5-31T3:23:11Z</time></trkpt>
<trkpt lat="43.4949132" lon="6.9039127"><ele></ele><time>2022-5-31T3:23:14Z</time></trkpt>
<trkpt lat="43.4949132" lon="6.9039128"><ele></ele><time>2022-5-31T3:23:17Z</time></trkpt>
<trkpt lat="43.4949132" lon="6.9039128"><ele></ele><time>2022-5-31T3:23:20Z</time></trkpt>
<trkpt lat="43.4949132" lon="6.9039122"><ele></ele><time>2022-5-31T3:23:23Z</time></trkpt>
<trkpt lat="43.4949133" lon="6.9039125"><ele></ele><time>2022-5-31T3:23:26Z</time></trkpt>
<trkpt lat="43.4949133" lon="6.9039125"><ele></ele><time>2022-5-31T3:23:29Z</time></trkpt>
<trkpt lat="43.4949133" lon="6.9039125"><ele></ele><time>2022-5-31T3:23:32Z</time></trkpt>
<trkpt lat="43.4949133" lon="6.9039124"><ele></ele><time>2022-5-31T3:23:35Z</time></trkpt>
<trkpt lat="43.4949131" lon="6.9039123"><ele></ele><time>2022-5-31T3:23:38Z</time></trkpt>
<trkpt lat="43.4949129" lon="6.9039125"><ele></ele><time>2022-5-31T3:23:41Z</time></trkpt>
<trkpt lat="43.4949128" lon="6.9039123"><ele></ele><time>2022-5-31T3:23:44Z</time></trkpt>
<trkpt lat="43.4949124" lon="6.9039124"><ele></ele><time>2022-5-31T3:23:47Z</time></trkpt>
<trkpt lat="43.4949123" lon="6.9039125"><ele></ele><time>2022-5-31T3:23:50Z</time></trkpt>
<trkpt lat="43.4949122" lon="6.9039124"><ele></ele><time>2022-5-31T3:23:53Z</time></trkpt>
<trkpt lat="43.4949122" lon="6.9039122"><ele></ele><time>2022-5-31T3:23:56Z</time></trkpt>
<trkpt lat="43.4949123" lon="6.9039122"><ele></ele><time>2022-5-31T3:23:59Z</time></trkpt>
<trkpt lat="43.4949122" lon="6.9039121"><ele></ele><time>2022-5-31T3:24:2Z</time></trkpt>
<trkpt lat="43.4949125" lon="6.9039121"><ele></ele><time>2022-5-31T3:24:5Z</time></trkpt>
<trkpt lat="43.4949124" lon="6.9039122"><ele></ele><time>2022-5-31T3:24:8Z</time></trkpt>
<trkpt lat="43.4949129" lon="6.9039120"><ele></ele><time>2022-5-31T3:24:11Z</time></trkpt>
<trkpt lat="43.4949129" lon="6.9039118"><ele></ele><time>2022-5-31T3:24:14Z</time></trkpt>
<trkpt lat="43.4949131" lon="6.9039119"><ele></ele><time>2022-5-31T3:24:17Z</time></trkpt>
<trkpt lat="43.4949130" lon="6.9039119"><ele></ele><time>2022-5-31T3:24:20Z</time></trkpt>
<trkpt lat="43.4949131" lon="6.9039120"><ele></ele><time>2022-5-31T3:24:23Z</time></trkpt>
<trkpt lat="43.4949130" lon="6.9039120"><ele></ele><time>2022-5-31T3:24:26Z</time></trkpt>
<trkpt lat="43.4949129" lon="6.9039121"><ele></ele><time>2022-5-31T3:24:29Z</time></trkpt>
<trkpt lat="43.4949128" lon="6.9039122"><ele></ele><time>2022-5-31T3:24:32Z</time></trkpt>
<trkpt lat="43.4949125" lon="6.9039123"><ele></ele><time>2022-5-31T3:24:35Z</time></trkpt>
<trkpt lat="43.4949124" lon="6.9039125"><ele></ele><time>2022-5-31T3:24:38Z</time></trkpt>
<trkpt lat="43.4949122" lon="6.9039127"><ele></ele><time>2022-5-31T3:24:41Z</time></trkpt>
<trkpt lat="43.4949122" lon="6.9039128"><ele></ele><time>2022-5-31T3:24:44Z</time></trkpt>
<trkpt lat="43.4949121" lon="6.9039129"><ele></ele><time>2022-5-31T3:24:47Z</time></trkpt>
<trkpt lat="43.4949120" lon="6.9039130"><ele></ele><time>2022-5-31T3:24:50Z</time></trkpt>
<trkpt lat="43.4949118" lon="6.9039131"><ele></ele><time>2022-5-31T3:24:53Z</time></trkpt>
<trkpt lat="43.4949119" lon="6.9039131"><ele></ele><time>2022-5-31T3:24:56Z</time></trkpt>
<trkpt lat="43.4949119" lon="6.9039132"><ele></ele><time>2022-5-31T3:24:59Z</time></trkpt>
<trkpt lat="43.4949120" lon="6.9039130"><ele></ele><time>2022-5-31T3:25:2Z</time></trkpt>
<trkpt lat="43.4949120" lon="6.9039134"><ele></ele><time>2022-5-31T3:25:5Z</time></trkpt>
<trkpt lat="43.4949120" lon="6.9039136"><ele></ele><time>2022-5-31T3:25:8Z</time></trkpt>
<trkpt lat="43.4949120" lon="6.9039138"><ele></ele><time>2022-5-31T3:25:11Z</time></trkpt>
<trkpt lat="43.4949122" lon="6.9039138"><ele></ele><time>2022-5-31T3:25:14Z</time></trkpt>
<trkpt lat="43.4949125" lon="6.9039141"><ele></ele><time>2022-5-31T3:25:17Z</time></trkpt>
<trkpt lat="43.4949130" lon="6.9039138"><ele></ele><time>2022-5-31T3:25:20Z</time></trkpt>
<trkpt lat="43.4949127" lon="6.9039142"><ele></ele><time>2022-5-31T3:25:23Z</time></trkpt>
<trkpt lat="43.4949127" lon="6.9039144"><ele></ele><time>2022-5-31T3:25:26Z</time></trkpt>
<trkpt lat="43.4949131" lon="6.9039145"><ele></ele><time>2022-5-31T3:25:29Z</time></trkpt>
<trkpt lat="43.4949131" lon="6.9039148"><ele></ele><time>2022-5-31T3:25:32Z</time></trkpt>
<trkpt lat="43.4949128" lon="6.9039157"><ele></ele><time>2022-5-31T3:25:35Z</time></trkpt>
<trkpt lat="43.4949118" lon="6.9039166"><ele></ele><time>2022-5-31T3:25:38Z</time></trkpt>
<trkpt lat="43.4949110" lon="6.9039169"><ele></ele><time>2022-5-31T3:25:41Z</time></trkpt>
<trkpt lat="43.4949110" lon="6.9039170"><ele></ele><time>2022-5-31T3:25:44Z</time></trkpt>
<trkpt lat="43.4949109" lon="6.9039171"><ele></ele><time>2022-5-31T3:25:47Z</time></trkpt>
<trkpt lat="43.4949108" lon="6.9039171"><ele></ele><time>2022-5-31T3:25:50Z</time></trkpt>
<trkpt lat="43.4949107" lon="6.9039175"><ele></ele><time>2022-5-31T3:25:53Z</time></trkpt>
<trkpt lat="43.4949103" lon="6.9039175"><ele></ele><time>2022-5-31T3:25:56Z</time></trkpt>
<trkpt lat="43.4949102" lon="6.9039177"><ele></ele><time>2022-5-31T3:25:59Z</time></trkpt>
<trkpt lat="43.4949102" lon="6.9039175"><ele></ele><time>2022-5-31T3:26:2Z</time></trkpt>
<trkpt lat="43.4949100" lon="6.9039173"><ele></ele><time>2022-5-31T3:26:5Z</time></trkpt>
<trkpt lat="43.4949100" lon="6.9039179"><ele></ele><time>2022-5-31T3:26:8Z</time></trkpt>
<trkpt lat="43.4949099" lon="6.9039179"><ele></ele><time>2022-5-31T3:26:11Z</time></trkpt>
<trkpt lat="43.4949109" lon="6.9039175"><ele></ele><time>2022-5-31T3:26:14Z</time></trkpt>
<trkpt lat="43.4949109" lon="6.9039173"><ele></ele><time>2022-5-31T3:26:17Z</time></trkpt>
<trkpt lat="43.4949109" lon="6.9039174"><ele></ele><time>2022-5-31T3:26:20Z</time></trkpt>
<trkpt lat="43.4949112" lon="6.9039171"><ele></ele><time>2022-5-31T3:26:23Z</time></trkpt>
<trkpt lat="43.4949112" lon="6.9039169"><ele></ele><time>2022-5-31T3:26:26Z</time></trkpt>
<trkpt lat="43.4949113" lon="6.9039169"><ele></ele><time>2022-5-31T3:26:29Z</time></trkpt>
<trkpt lat="43.4949112" lon="6.9039169"><ele></ele><time>2022-5-31T3:26:32Z</time></trkpt>
<trkpt lat="43.4949113" lon="6.9039169"><ele></ele><time>2022-5-31T3:26:35Z</time></trkpt>
<trkpt lat="43.4949114" lon="6.9039167"><ele></ele><time>2022-5-31T3:26:38Z</time></trkpt>
<trkpt lat="43.4949114" lon="6.9039166"><ele></ele><time>2022-5-31T3:26:41Z</time></trkpt>
<trkpt lat="43.4949112" lon="6.9039167"><ele></ele><time>2022-5-31T3:26:44Z</time></trkpt>
<trkpt lat="43.4949113" lon="6.9039168"><ele></ele><time>2022-5-31T3:26:47Z</time></trkpt>
<trkpt lat="43.4949112" lon="6.9039169"><ele></ele><time>2022-5-31T3:26:50Z</time></trkpt>
<trkpt lat="43.4949108" lon="6.9039170"><ele></ele><time>2022-5-31T3:26:53Z</time></trkpt>
<trkpt lat="43.4949102" lon="6.9039170"><ele></ele><time>2022-5-31T3:26:56Z</time></trkpt>
<trkpt lat="43.4949102" lon="6.9039172"><ele></ele><time>2022-5-31T3:26:59Z</time></trkpt>
<trkpt lat="43.4949101" lon="6.9039171"><ele></ele><time>2022-5-31T3:27:2Z</time></trkpt>
<trkpt lat="43.4949101" lon="6.9039169"><ele></ele><time>2022-5-31T3:27:5Z</time></trkpt>
<trkpt lat="43.4949100" lon="6.9039168"><ele></ele><time>2022-5-31T3:27:8Z</time></trkpt>
<trkpt lat="43.4949100" lon="6.9039169"><ele></ele><time>2022-5-31T3:27:11Z</time></trkpt>
<trkpt lat="43.4949101" lon="6.9039168"><ele></ele><time>2022-5-31T3:27:14Z</time></trkpt>
<trkpt lat="43.4949096" lon="6.9039168"><ele></ele><time>2022-5-31T3:27:17Z</time></trkpt>
<trkpt lat="43.4949094" lon="6.9039169"><ele></ele><time>2022-5-31T3:27:20Z</time></trkpt>
<trkpt lat="43.4949085" lon="6.9039168"><ele></ele><time>2022-5-31T3:27:23Z</time></trkpt>
<trkpt lat="43.4949084" lon="6.9039170"><ele></ele><time>2022-5-31T3:27:26Z</time></trkpt>
<trkpt lat="43.4949082" lon="6.9039171"><ele></ele><time>2022-5-31T3:27:29Z</time></trkpt>
<trkpt lat="43.4949084" lon="6.9039171"><ele></ele><time>2022-5-31T3:27:32Z</time></trkpt>
<trkpt lat="43.4949084" lon="6.9039170"><ele></ele><time>2022-5-31T3:27:35Z</time></trkpt>
<trkpt lat="43.4949084" lon="6.9039171"><ele></ele><time>2022-5-31T3:27:38Z</time></trkpt>
<trkpt lat="43.4949084" lon="6.9039169"><ele></ele><time>2022-5-31T3:27:41Z</time></trkpt>
<trkpt lat="43.4949089" lon="6.9039166"><ele></ele><time>2022-5-31T3:27:44Z</time></trkpt>
<trkpt lat="43.4949094" lon="6.9039162"><ele></ele><time>2022-5-31T3:27:47Z</time></trkpt>
<trkpt lat="43.4949095" lon="6.9039161"><ele></ele><time>2022-5-31T3:27:50Z</time></trkpt>
<trkpt lat="43.4949094" lon="6.9039161"><ele></ele><time>2022-5-31T3:27:53Z</time></trkpt>
<trkpt lat="43.4949100" lon="6.9039162"><ele></ele><time>2022-5-31T3:27:56Z</time></trkpt>
<trkpt lat="43.4949101" lon="6.9039159"><ele></ele><time>2022-5-31T3:27:59Z</time></trkpt>
<trkpt lat="43.4949100" lon="6.9039156"><ele></ele><time>2022-5-31T3:28:2Z</time></trkpt>
<trkpt lat="43.4949106" lon="6.9039152"><ele></ele><time>2022-5-31T3:28:5Z</time></trkpt>
<trkpt lat="43.4949110" lon="6.9039140"><ele></ele><time>2022-5-31T3:28:8Z</time></trkpt>
<trkpt lat="43.4949113" lon="6.9039140"><ele></ele><time>2022-5-31T3:28:11Z</time></trkpt>
<trkpt lat="43.4949113" lon="6.9039137"><ele></ele><time>2022-5-31T3:28:14Z</time></trkpt>
<trkpt lat="43.4949113" lon="6.9039137"><ele></ele><time>2022-5-31T3:28:17Z</time></trkpt>
<trkpt lat="43.4949114" lon="6.9039140"><ele></ele><time>2022-5-31T3:28:20Z</time></trkpt>
<trkpt lat="43.4949118" lon="6.9039140"><ele></ele><time>2022-5-31T3:28:23Z</time></trkpt>
<trkpt lat="43.4949118" lon="6.9039140"><ele></ele><time>2022-5-31T3:28:26Z</time></trkpt>
<trkpt lat="43.4949122" lon="6.9039140"><ele></ele><time>2022-5-31T3:28:29Z</time></trkpt>
<trkpt lat="43.4949125" lon="6.9039141"><ele></ele><time>2022-5-31T3:28:32Z</time></trkpt>
<trkpt lat="43.4949131" lon="6.9039140"><ele></ele><time>2022-5-31T3:28:35Z</time></trkpt>
<trkpt lat="43.4949130" lon="6.9039139"><ele></ele><time>2022-5-31T3:28:38Z</time></trkpt>
<trkpt lat="43.4949132" lon="6.9039138"><ele></ele><time>2022-5-31T3:28:41Z</time></trkpt>
<trkpt lat="43.4949133" lon="6.9039135"><ele></ele><time>2022-5-31T3:28:44Z</time></trkpt>
<trkpt lat="43.4949134" lon="6.9039133"><ele></ele><time>2022-5-31T3:28:47Z</time></trkpt>
<trkpt lat="43.4949136" lon="6.9039131"><ele></ele><time>2022-5-31T3:28:50Z</time></trkpt>
<trkpt lat="43.4949138" lon="6.9039131"><ele></ele><time>2022-5-31T3:28:53Z</time></trkpt>
<trkpt lat="43.4949139" lon="6.9039126"><ele></ele><time>2022-5-31T3:28:56Z</time></trkpt>
<trkpt lat="43.4949142" lon="6.9039125"><ele></ele><time>2022-5-31T3:28:59Z</time></trkpt>
<trkpt lat="43.4949145" lon="6.9039125"><ele></ele><time>2022-5-31T3:29:2Z</time></trkpt>
<trkpt lat="43.4949147" lon="6.9039124"><ele></ele><time>2022-5-31T3:29:5Z</time></trkpt>
<trkpt lat="43.4949148" lon="6.9039123"><ele></ele><time>2022-5-31T3:29:8Z</time></trkpt>
<trkpt lat="43.4949149" lon="6.9039123"><ele></ele><time>2022-5-31T3:29:11Z</time></trkpt>
<trkpt lat="43.4949149" lon="6.9039121"><ele></ele><time>2022-5-31T3:29:14Z</time></trkpt>
<trkpt lat="43.4949150" lon="6.9039119"><ele></ele><time>2022-5-31T3:29:17Z</time></trkpt>
<trkpt lat="43.4949150" lon="6.9039117"><ele></ele><time>2022-5-31T3:29:20Z</time></trkpt>
<trkpt lat="43.4949151" lon="6.9039114"><ele></ele><time>2022-5-31T3:29:23Z</time></trkpt>
<trkpt lat="43.4949151" lon="6.9039110"><ele></ele><time>2022-5-31T3:29:26Z</time></trkpt>
<trkpt lat="43.4949153" lon="6.9039107"><ele></ele><time>2022-5-31T3:29:29Z</time></trkpt>
<trkpt lat="43.4949153" lon="6.9039105"><ele></ele><time>2022-5-31T3:29:32Z</time></trkpt>
<trkpt lat="43.4949155" lon="6.9039102"><ele></ele><time>2022-5-31T3:29:35Z</time></trkpt>
<trkpt lat="43.4949156" lon="6.9039100"><ele></ele><time>2022-5-31T3:29:38Z</time></trkpt>
<trkpt lat="43.4949158" lon="6.9039096"><ele></ele><time>2022-5-31T3:29:41Z</time></trkpt>
<trkpt lat="43.4949158" lon="6.9039095"><ele></ele><time>2022-5-31T3:29:44Z</time></trkpt>
<trkpt lat="43.4949159" lon="6.9039093"><ele></ele><time>2022-5-31T3:29:47Z</time></trkpt>
<trkpt lat="43.4949159" lon="6.9039093"><ele></ele><time>2022-5-31T3:29:50Z</time></trkpt>
<trkpt lat="43.4949159" lon="6.9039090"><ele></ele><time>2022-5-31T3:29:53Z</time></trkpt>
<trkpt lat="43.4949159" lon="6.9039088"><ele></ele><time>2022-5-31T3:29:56Z</time></trkpt>
<trkpt lat="43.4949158" lon="6.9039088"><ele></ele><time>2022-5-31T3:29:59Z</time></trkpt>
<trkpt lat="43.4949156" lon="6.9039086"><ele></ele><time>2022-5-31T3:30:2Z</time></trkpt>
<trkpt lat="43.4949155" lon="6.9039085"><ele></ele><time>2022-5-31T3:30:5Z</time></trkpt>
<trkpt lat="43.4949155" lon="6.9039084"><ele></ele><time>2022-5-31T3:30:8Z</time></trkpt>
<trkpt lat="43.4949152" lon="6.9039082"><ele></ele><time>2022-5-31T3:30:11Z</time></trkpt>
<trkpt lat="43.4949149" lon="6.9039078"><ele></ele><time>2022-5-31T3:30:14Z</time></trkpt>
<trkpt lat="43.4949148" lon="6.9039077"><ele></ele><time>2022-5-31T3:30:17Z</time></trkpt>
<trkpt lat="43.4949151" lon="6.9039075"><ele></ele><time>2022-5-31T3:30:20Z</time></trkpt>
<trkpt lat="43.4949149" lon="6.9039074"><ele></ele><time>2022-5-31T3:30:23Z</time></trkpt>
<trkpt lat="43.4949149" lon="6.9039073"><ele></ele><time>2022-5-31T3:30:26Z</time></trkpt>
<trkpt lat="43.4949148" lon="6.9039073"><ele></ele><time>2022-5-31T3:30:29Z</time></trkpt>
<trkpt lat="43.4949148" lon="6.9039072"><ele></ele><time>2022-5-31T3:30:32Z</time></trkpt>
<trkpt lat="43.4949146" lon="6.9039070"><ele></ele><time>2022-5-31T3:30:35Z</time></trkpt>
<trkpt lat="43.4949145" lon="6.9039070"><ele></ele><time>2022-5-31T3:30:38Z</time></trkpt>
<trkpt lat="43.4949145" lon="6.9039071"><ele></ele><time>2022-5-31T3:30:41Z</time></trkpt>
<trkpt lat="43.4949146" lon="6.9039074"><ele></ele><time>2022-5-31T3:30:44Z</time></trkpt>
<trkpt lat="43.4949146" lon="6.9039079"><ele></ele><time>2022-5-31T3:30:47Z</time></trkpt>
<trkpt lat="43.4949147" lon="6.9039092"><ele></ele><time>2022-5-31T3:30:50Z</time></trkpt>
<trkpt lat="43.4949150" lon="6.9039100"><ele></ele><time>2022-5-31T3:30:53Z</time></trkpt>
<trkpt lat="43.4949148" lon="6.9039114"><ele></ele><time>2022-5-31T3:30:56Z</time></trkpt>
<trkpt lat="43.4949148" lon="6.9039117"><ele></ele><time>2022-5-31T3:30:59Z</time></trkpt>
<trkpt lat="43.4949151" lon="6.9039124"><ele></ele><time>2022-5-31T3:31:2Z</time></trkpt>
<trkpt lat="43.4949156" lon="6.9039135"><ele></ele><time>2022-5-31T3:31:5Z</time></trkpt>
<trkpt lat="43.4949158" lon="6.9039142"><ele></ele><time>2022-5-31T3:31:8Z</time></trkpt>
<trkpt lat="43.4949157" lon="6.9039150"><ele></ele><time>2022-5-31T3:31:11Z</time></trkpt>
<trkpt lat="43.4949159" lon="6.9039158"><ele></ele><time>2022-5-31T3:31:14Z</time></trkpt>
<trkpt lat="43.4949159" lon="6.9039162"><ele></ele><time>2022-5-31T3:31:17Z</time></trkpt>
<trkpt lat="43.4949161" lon="6.9039164"><ele></ele><time>2022-5-31T3:31:20Z</time></trkpt>
<trkpt lat="43.4949159" lon="6.9039171"><ele></ele><time>2022-5-31T3:31:23Z</time></trkpt>
<trkpt lat="43.4949158" lon="6.9039173"><ele></ele><time>2022-5-31T3:31:26Z</time></trkpt>
<trkpt lat="43.4949157" lon="6.9039172"><ele></ele><time>2022-5-31T3:31:29Z</time></trkpt>
<trkpt lat="43.4949157" lon="6.9039168"><ele></ele><time>2022-5-31T3:31:32Z</time></trkpt>
<trkpt lat="43.4949158" lon="6.9039168"><ele></ele><time>2022-5-31T3:31:35Z</time></trkpt>
<trkpt lat="43.4949166" lon="6.9039166"><ele></ele><time>2022-5-31T3:31:38Z</time></trkpt>
<trkpt lat="43.4949167" lon="6.9039155"><ele></ele><time>2022-5-31T3:31:41Z</time></trkpt>
<trkpt lat="43.4949167" lon="6.9039149"><ele></ele><time>2022-5-31T3:31:44Z</time></trkpt>
<trkpt lat="43.4949168" lon="6.9039146"><ele></ele><time>2022-5-31T3:31:47Z</time></trkpt>
<trkpt lat="43.4949171" lon="6.9039141"><ele></ele><time>2022-5-31T3:31:50Z</time></trkpt>
<trkpt lat="43.4949173" lon="6.9039139"><ele></ele><time>2022-5-31T3:31:53Z</time></trkpt>
<trkpt lat="43.4949173" lon="6.9039138"><ele></ele><time>2022-5-31T3:31:56Z</time></trkpt>
<trkpt lat="43.4949175" lon="6.9039137"><ele></ele><time>2022-5-31T3:31:59Z</time></trkpt>
<trkpt lat="43.4949177" lon="6.9039138"><ele></ele><time>2022-5-31T3:32:2Z</time></trkpt>
<trkpt lat="43.4949178" lon="6.9039136"><ele></ele><time>2022-5-31T3:32:5Z</time></trkpt>
<trkpt lat="43.4949177" lon="6.9039133"><ele></ele><time>2022-5-31T3:32:8Z</time></trkpt>
<trkpt lat="43.4949183" lon="6.9039128"><ele></ele><time>2022-5-31T3:32:11Z</time></trkpt>
<trkpt lat="43.4949189" lon="6.9039122"><ele></ele><time>2022-5-31T3:32:14Z</time></trkpt>
<trkpt lat="43.4949192" lon="6.9039121"><ele></ele><time>2022-5-31T3:32:17Z</time></trkpt>
<trkpt lat="43.4949193" lon="6.9039120"><ele></ele><time>2022-5-31T3:32:20Z</time></trkpt>
<trkpt lat="43.4949193" lon="6.9039119"><ele></ele><time>2022-5-31T3:32:23Z</time></trkpt>
<trkpt lat="43.4949195" lon="6.9039115"><ele></ele><time>2022-5-31T3:32:26Z</time></trkpt>
<trkpt lat="43.4949199" lon="6.9039112"><ele></ele><time>2022-5-31T3:32:29Z</time></trkpt>
<trkpt lat="43.4949199" lon="6.9039111"><ele></ele><time>2022-5-31T3:32:32Z</time></trkpt>
<trkpt lat="43.4949202" lon="6.9039110"><ele></ele><time>2022-5-31T3:32:35Z</time></trkpt>
<trkpt lat="43.4949201" lon="6.9039108"><ele></ele><time>2022-5-31T3:32:38Z</time></trkpt>
<trkpt lat="43.4949202" lon="6.9039108"><ele></ele><time>2022-5-31T3:32:41Z</time></trkpt>
<trkpt lat="43.4949202" lon="6.9039108"><ele></ele><time>2022-5-31T3:32:44Z</time></trkpt>
<trkpt lat="43.4949204" lon="6.9039107"><ele></ele><time>2022-5-31T3:32:47Z</time></trkpt>
<trkpt lat="43.4949204" lon="6.9039106"><ele></ele><time>2022-5-31T3:32:50Z</time></trkpt>
<trkpt lat="43.4949205" lon="6.9039106"><ele></ele><time>2022-5-31T3:32:53Z</time></trkpt>
<trkpt lat="43.4949203" lon="6.9039106"><ele></ele><time>2022-5-31T3:32:56Z</time></trkpt>
<trkpt lat="43.4949205" lon="6.9039113"><ele></ele><time>2022-5-31T3:32:59Z</time></trkpt>
<trkpt lat="43.4949203" lon="6.9039112"><ele></ele><time>2022-5-31T3:33:2Z</time></trkpt>
<trkpt lat="43.4949202" lon="6.9039113"><ele></ele><time>2022-5-31T3:33:5Z</time></trkpt>
<trkpt lat="43.4949200" lon="6.9039116"><ele></ele><time>2022-5-31T3:33:8Z</time></trkpt>
<trkpt lat="43.4949200" lon="6.9039120"><ele></ele><time>2022-5-31T3:33:11Z</time></trkpt>
<trkpt lat="43.4949200" lon="6.9039121"><ele></ele><time>2022-5-31T3:33:14Z</time></trkpt>
<trkpt lat="43.4949201" lon="6.9039122"><ele></ele><time>2022-5-31T3:33:17Z</time></trkpt>
<trkpt lat="43.4949201" lon="6.9039123"><ele></ele><time>2022-5-31T3:33:20Z</time></trkpt>
<trkpt lat="43.4949200" lon="6.9039126"><ele></ele><time>2022-5-31T3:33:23Z</time></trkpt>
<trkpt lat="43.4949204" lon="6.9039128"><ele></ele><time>2022-5-31T3:33:26Z</time></trkpt>
<trkpt lat="43.4949205" lon="6.9039127"><ele></ele><time>2022-5-31T3:33:29Z</time></trkpt>
<trkpt lat="43.4949209" lon="6.9039127"><ele></ele><time>2022-5-31T3:33:32Z</time></trkpt>
<trkpt lat="43.4949219" lon="6.9039118"><ele></ele><time>2022-5-31T3:33:35Z</time></trkpt>
<trkpt lat="43.4949220" lon="6.9039118"><ele></ele><time>2022-5-31T3:33:38Z</time></trkpt>
<trkpt lat="43.4949220" lon="6.9039118"><ele></ele><time>2022-5-31T3:33:41Z</time></trkpt>
<trkpt lat="43.4949222" lon="6.9039127"><ele></ele><time>2022-5-31T3:33:44Z</time></trkpt>
<trkpt lat="43.4949218" lon="6.9039137"><ele></ele><time>2022-5-31T3:33:47Z</time></trkpt>
<trkpt lat="43.4949228" lon="6.9039136"><ele></ele><time>2022-5-31T3:33:50Z</time></trkpt>
<trkpt lat="43.4949224" lon="6.9039150"><ele></ele><time>2022-5-31T3:33:53Z</time></trkpt>
<trkpt lat="43.4949227" lon="6.9039146"><ele></ele><time>2022-5-31T3:33:56Z</time></trkpt>
<trkpt lat="43.4949227" lon="6.9039145"><ele></ele><time>2022-5-31T3:33:59Z</time></trkpt>
<trkpt lat="43.4949226" lon="6.9039144"><ele></ele><time>2022-5-31T3:34:2Z</time></trkpt>
<trkpt lat="43.4949226" lon="6.9039145"><ele></ele><time>2022-5-31T3:34:5Z</time></trkpt>
<trkpt lat="43.4949226" lon="6.9039145"><ele></ele><time>2022-5-31T3:34:8Z</time></trkpt>
<trkpt lat="43.4949225" lon="6.9039144"><ele></ele><time>2022-5-31T3:34:11Z</time></trkpt>
<trkpt lat="43.4949229" lon="6.9039144"><ele></ele><time>2022-5-31T3:34:14Z</time></trkpt>
<trkpt lat="43.4949233" lon="6.9039142"><ele></ele><time>2022-5-31T3:34:17Z</time></trkpt>
<trkpt lat="43.4949236" lon="6.9039148"><ele></ele><time>2022-5-31T3:34:20Z</time></trkpt>
<trkpt lat="43.4949243" lon="6.9039152"><ele></ele><time>2022-5-31T3:34:23Z</time></trkpt>
<trkpt lat="43.4949245" lon="6.9039152"><ele></ele><time>2022-5-31T3:34:26Z</time></trkpt>
<trkpt lat="43.4949246" lon="6.9039152"><ele></ele><time>2022-5-31T3:34:29Z</time></trkpt>
<trkpt lat="43.4949246" lon="6.9039151"><ele></ele><time>2022-5-31T3:34:32Z</time></trkpt>
<trkpt lat="43.4949249" lon="6.9039151"><ele></ele><time>2022-5-31T3:34:35Z</time></trkpt>
<trkpt lat="43.4949250" lon="6.9039151"><ele></ele><time>2022-5-31T3:34:38Z</time></trkpt>
<trkpt lat="43.4949250" lon="6.9039150"><ele></ele><time>2022-5-31T3:34:41Z</time></trkpt>
<trkpt lat="43.4949250" lon="6.9039150"><ele></ele><time>2022-5-31T3:34:44Z</time></trkpt>
<trkpt lat="43.4949251" lon="6.9039150"><ele></ele><time>2022-5-31T3:34:47Z</time></trkpt>
<trkpt lat="43.4949250" lon="6.9039151"><ele></ele><time>2022-5-31T3:34:50Z</time></trkpt>
<trkpt lat="43.4949253" lon="6.9039152"><ele></ele><time>2022-5-31T3:34:53Z</time></trkpt>
<trkpt lat="43.4949254" lon="6.9039151"><ele></ele><time>2022-5-31T3:34:56Z</time></trkpt>
<trkpt lat="43.4949257" lon="6.9039150"><ele></ele><time>2022-5-31T3:34:59Z</time></trkpt>
<trkpt lat="43.4949257" lon="6.9039149"><ele></ele><time>2022-5-31T3:35:2Z</time></trkpt>
<trkpt lat="43.4949260" lon="6.9039148"><ele></ele><time>2022-5-31T3:35:5Z</time></trkpt>
<trkpt lat="43.4949263" lon="6.9039148"><ele></ele><time>2022-5-31T3:35:8Z</time></trkpt>
<trkpt lat="43.4949265" lon="6.9039146"><ele></ele><time>2022-5-31T3:35:11Z</time></trkpt>
<trkpt lat="43.4949264" lon="6.9039147"><ele></ele><time>2022-5-31T3:35:14Z</time></trkpt>
<trkpt lat="43.4949267" lon="6.9039145"><ele></ele><time>2022-5-31T3:35:17Z</time></trkpt>
<trkpt lat="43.4949267" lon="6.9039145"><ele></ele><time>2022-5-31T3:35:20Z</time></trkpt>
<trkpt lat="43.4949269" lon="6.9039143"><ele></ele><time>2022-5-31T3:35:23Z</time></trkpt>
<trkpt lat="43.4949272" lon="6.9039144"><ele></ele><time>2022-5-31T3:35:26Z</time></trkpt>
<trkpt lat="43.4949274" lon="6.9039143"><ele></ele><time>2022-5-31T3:35:29Z</time></trkpt>
<trkpt lat="43.4949274" lon="6.9039143"><ele></ele><time>2022-5-31T3:35:32Z</time></trkpt>
<trkpt lat="43.4949274" lon="6.9039143"><ele></ele><time>2022-5-31T3:35:35Z</time></trkpt>
<trkpt lat="43.4949275" lon="6.9039141"><ele></ele><time>2022-5-31T3:35:38Z</time></trkpt>
<trkpt lat="43.4949280" lon="6.9039140"><ele></ele><time>2022-5-31T3:35:41Z</time></trkpt>
<trkpt lat="43.4949282" lon="6.9039137"><ele></ele><time>2022-5-31T3:35:44Z</time></trkpt>
<trkpt lat="43.4949281" lon="6.9039136"><ele></ele><time>2022-5-31T3:35:47Z</time></trkpt>
<trkpt lat="43.4949282" lon="6.9039135"><ele></ele><time>2022-5-31T3:35:50Z</time></trkpt>
<trkpt lat="43.4949287" lon="6.9039133"><ele></ele><time>2022-5-31T3:35:53Z</time></trkpt>
<trkpt lat="43.4949290" lon="6.9039133"><ele></ele><time>2022-5-31T3:35:56Z</time></trkpt>
<trkpt lat="43.4949290" lon="6.9039133"><ele></ele><time>2022-5-31T3:35:59Z</time></trkpt>
<trkpt lat="43.4949296" lon="6.9039133"><ele></ele><time>2022-5-31T3:36:2Z</time></trkpt>
<trkpt lat="43.4949298" lon="6.9039131"><ele></ele><time>2022-5-31T3:36:5Z</time></trkpt>
<trkpt lat="43.4949298" lon="6.9039130"><ele></ele><time>2022-5-31T3:36:8Z</time></trkpt>
<trkpt lat="43.4949298" lon="6.9039128"><ele></ele><time>2022-5-31T3:36:11Z</time></trkpt>
<trkpt lat="43.4949304" lon="6.9039123"><ele></ele><time>2022-5-31T3:36:14Z</time></trkpt>
<trkpt lat="43.4949307" lon="6.9039120"><ele></ele><time>2022-5-31T3:36:17Z</time></trkpt>
<trkpt lat="43.4949312" lon="6.9039119"><ele></ele><time>2022-5-31T3:36:20Z</time></trkpt>
<trkpt lat="43.4949311" lon="6.9039115"><ele></ele><time>2022-5-31T3:36:23Z</time></trkpt>
<trkpt lat="43.4949313" lon="6.9039112"><ele></ele><time>2022-5-31T3:36:26Z</time></trkpt>
<trkpt lat="43.4949315" lon="6.9039111"><ele></ele><time>2022-5-31T3:36:29Z</time></trkpt>
<trkpt lat="43.4949314" lon="6.9039110"><ele></ele><time>2022-5-31T3:36:32Z</time></trkpt>
<trkpt lat="43.4949312" lon="6.9039107"><ele></ele><time>2022-5-31T3:36:35Z</time></trkpt>
<trkpt lat="43.4949313" lon="6.9039107"><ele></ele><time>2022-5-31T3:36:38Z</time></trkpt>
<trkpt lat="43.4949312" lon="6.9039107"><ele></ele><time>2022-5-31T3:36:41Z</time></trkpt>
<trkpt lat="43.4949311" lon="6.9039104"><ele></ele><time>2022-5-31T3:36:44Z</time></trkpt>
<trkpt lat="43.4949310" lon="6.9039106"><ele></ele><time>2022-5-31T3:36:47Z</time></trkpt>
<trkpt lat="43.4949312" lon="6.9039105"><ele></ele><time>2022-5-31T3:36:50Z</time></trkpt>
<trkpt lat="43.4949314" lon="6.9039102"><ele></ele><time>2022-5-31T3:36:53Z</time></trkpt>
<trkpt lat="43.4949316" lon="6.9039101"><ele></ele><time>2022-5-31T3:36:56Z</time></trkpt>
<trkpt lat="43.4949319" lon="6.9039101"><ele></ele><time>2022-5-31T3:36:59Z</time></trkpt>
<trkpt lat="43.4949321" lon="6.9039101"><ele></ele><time>2022-5-31T3:37:2Z</time></trkpt>
<trkpt lat="43.4949321" lon="6.9039100"><ele></ele><time>2022-5-31T3:37:5Z</time></trkpt>
<trkpt lat="43.4949322" lon="6.9039099"><ele></ele><time>2022-5-31T3:37:8Z</time></trkpt>
<trkpt lat="43.4949330" lon="6.9039096"><ele></ele><time>2022-5-31T3:37:11Z</time></trkpt>
<trkpt lat="43.4949332" lon="6.9039096"><ele></ele><time>2022-5-31T3:37:14Z</time></trkpt>
<trkpt lat="43.4949333" lon="6.9039095"><ele></ele><time>2022-5-31T3:37:17Z</time></trkpt>
<trkpt lat="43.4949337" lon="6.9039096"><ele></ele><time>2022-5-31T3:37:20Z</time></trkpt>
<trkpt lat="43.4949337" lon="6.9039094"><ele></ele><time>2022-5-31T3:37:23Z</time></trkpt>
<trkpt lat="43.4949336" lon="6.9039096"><ele></ele><time>2022-5-31T3:37:26Z</time></trkpt>
<trkpt lat="43.4949338" lon="6.9039096"><ele></ele><time>2022-5-31T3:37:29Z</time></trkpt>
<trkpt lat="43.4949340" lon="6.9039098"><ele></ele><time>2022-5-31T3:37:32Z</time></trkpt>
<trkpt lat="43.4949339" lon="6.9039099"><ele></ele><time>2022-5-31T3:37:35Z</time></trkpt>
<trkpt lat="43.4949339" lon="6.9039101"><ele></ele><time>2022-5-31T3:37:38Z</time></trkpt>
<trkpt lat="43.4949339" lon="6.9039101"><ele></ele><time>2022-5-31T3:37:41Z</time></trkpt>
<trkpt lat="43.4949340" lon="6.9039104"><ele></ele><time>2022-5-31T3:37:44Z</time></trkpt>
<trkpt lat="43.4949339" lon="6.9039105"><ele></ele><time>2022-5-31T3:37:47Z</time></trkpt>
<trkpt lat="43.4949338" lon="6.9039107"><ele></ele><time>2022-5-31T3:37:50Z</time></trkpt>
<trkpt lat="43.4949342" lon="6.9039110"><ele></ele><time>2022-5-31T3:37:53Z</time></trkpt>
<trkpt lat="43.4949343" lon="6.9039110"><ele></ele><time>2022-5-31T3:37:56Z</time></trkpt>
<trkpt lat="43.4949342" lon="6.9039112"><ele></ele><time>2022-5-31T3:37:59Z</time></trkpt>
<trkpt lat="43.4949341" lon="6.9039114"><ele></ele><time>2022-5-31T3:38:2Z</time></trkpt>
<trkpt lat="43.4949344" lon="6.9039117"><ele></ele><time>2022-5-31T3:38:5Z</time></trkpt>
<trkpt lat="43.4949346" lon="6.9039120"><ele></ele><time>2022-5-31T3:38:8Z</time></trkpt>
<trkpt lat="43.4949348" lon="6.9039122"><ele></ele><time>2022-5-31T3:38:11Z</time></trkpt>
<trkpt lat="43.4949348" lon="6.9039124"><ele></ele><time>2022-5-31T3:38:14Z</time></trkpt>
<trkpt lat="43.4949350" lon="6.9039126"><ele></ele><time>2022-5-31T3:38:17Z</time></trkpt>
<trkpt lat="43.4949351" lon="6.9039131"><ele></ele><time>2022-5-31T3:38:20Z</time></trkpt>
<trkpt lat="43.4949351" lon="6.9039134"><ele></ele><time>2022-5-31T3:38:23Z</time></trkpt>
<trkpt lat="43.4949356" lon="6.9039140"><ele></ele><time>2022-5-31T3:38:26Z</time></trkpt>
<trkpt lat="43.4949361" lon="6.9039140"><ele></ele><time>2022-5-31T3:38:29Z</time></trkpt>
<trkpt lat="43.4949360" lon="6.9039156"><ele></ele><time>2022-5-31T3:38:32Z</time></trkpt>
<trkpt lat="43.4949359" lon="6.9039167"><ele></ele><time>2022-5-31T3:38:35Z</time></trkpt>
<trkpt lat="43.4949358" lon="6.9039170"><ele></ele><time>2022-5-31T3:38:38Z</time></trkpt>
<trkpt lat="43.4949359" lon="6.9039171"><ele></ele><time>2022-5-31T3:38:41Z</time></trkpt>
<trkpt lat="43.4949358" lon="6.9039173"><ele></ele><time>2022-5-31T3:38:44Z</time></trkpt>
<trkpt lat="43.4949356" lon="6.9039175"><ele></ele><time>2022-5-31T3:38:47Z</time></trkpt>
<trkpt lat="43.4949354" lon="6.9039177"><ele></ele><time>2022-5-31T3:38:50Z</time></trkpt>
<trkpt lat="43.4949354" lon="6.9039178"><ele></ele><time>2022-5-31T3:38:53Z</time></trkpt>
<trkpt lat="43.4949350" lon="6.9039181"><ele></ele><time>2022-5-31T3:38:56Z</time></trkpt>
<trkpt lat="43.4949350" lon="6.9039181"><ele></ele><time>2022-5-31T3:38:59Z</time></trkpt>
<trkpt lat="43.4949348" lon="6.9039182"><ele></ele><time>2022-5-31T3:39:2Z</time></trkpt>
<trkpt lat="43.4949347" lon="6.9039182"><ele></ele><time>2022-5-31T3:39:5Z</time></trkpt>
<trkpt lat="43.4949347" lon="6.9039182"><ele></ele><time>2022-5-31T3:39:8Z</time></trkpt>
<trkpt lat="43.4949347" lon="6.9039184"><ele></ele><time>2022-5-31T3:39:11Z</time></trkpt>
<trkpt lat="43.4949347" lon="6.9039186"><ele></ele><time>2022-5-31T3:39:14Z</time></trkpt>
<trkpt lat="43.4949346" lon="6.9039187"><ele></ele><time>2022-5-31T3:39:17Z</time></trkpt>
<trkpt lat="43.4949349" lon="6.9039189"><ele></ele><time>2022-5-31T3:39:20Z</time></trkpt>
<trkpt lat="43.4949349" lon="6.9039191"><ele></ele><time>2022-5-31T3:39:23Z</time></trkpt>
<trkpt lat="43.4949349" lon="6.9039192"><ele></ele><time>2022-5-31T3:39:26Z</time></trkpt>
<trkpt lat="43.4949348" lon="6.9039194"><ele></ele><time>2022-5-31T3:39:29Z</time></trkpt>
<trkpt lat="43.4949350" lon="6.9039196"><ele></ele><time>2022-5-31T3:39:32Z</time></trkpt>
<trkpt lat="43.4949350" lon="6.9039200"><ele></ele><time>2022-5-31T3:39:35Z</time></trkpt>
<trkpt lat="43.4949350" lon="6.9039202"><ele></ele><time>2022-5-31T3:39:38Z</time></trkpt>
<trkpt lat="43.4949352" lon="6.9039203"><ele></ele><time>2022-5-31T3:39:41Z</time></trkpt>
<trkpt lat="43.4949351" lon="6.9039205"><ele></ele><time>2022-5-31T3:39:44Z</time></trkpt>
<trkpt lat="43.4949351" lon="6.9039208"><ele></ele><time>2022-5-31T3:39:47Z</time></trkpt>
<trkpt lat="43.4949351" lon="6.9039209"><ele></ele><time>2022-5-31T3:39:50Z</time></trkpt>
<trkpt lat="43.4949354" lon="6.9039209"><ele></ele><time>2022-5-31T3:39:53Z</time></trkpt>
<trkpt lat="43.4949354" lon="6.9039211"><ele></ele><time>2022-5-31T3:39:56Z</time></trkpt>
<trkpt lat="43.4949355" lon="6.9039211"><ele></ele><time>2022-5-31T3:39:59Z</time></trkpt>
<trkpt lat="43.4949354" lon="6.9039212"><ele></ele><time>2022-5-31T3:40:2Z</time></trkpt>
<trkpt lat="43.4949354" lon="6.9039213"><ele></ele><time>2022-5-31T3:40:5Z</time></trkpt>
<trkpt lat="43.4949355" lon="6.9039212"><ele></ele><time>2022-5-31T3:40:8Z</time></trkpt>
<trkpt lat="43.4949350" lon="6.9039222"><ele></ele><time>2022-5-31T3:40:11Z</time></trkpt>
<trkpt lat="43.4949351" lon="6.9039224"><ele></ele><time>2022-5-31T3:40:14Z</time></trkpt>
<trkpt lat="43.4949352" lon="6.9039224"><ele></ele><time>2022-5-31T3:40:17Z</time></trkpt>
<trkpt lat="43.4949353" lon="6.9039225"><ele></ele><time>2022-5-31T3:40:20Z</time></trkpt>
<trkpt lat="43.4949351" lon="6.9039226"><ele></ele><time>2022-5-31T3:40:23Z</time></trkpt>
<trkpt lat="43.4949352" lon="6.9039227"><ele></ele><time>2022-5-31T3:40:26Z</time></trkpt>
<trkpt lat="43.4949352" lon="6.9039230"><ele></ele><time>2022-5-31T3:40:29Z</time></trkpt>
<trkpt lat="43.4949351" lon="6.9039232"><ele></ele><time>2022-5-31T3:40:32Z</time></trkpt>
<trkpt lat="43.4949351" lon="6.9039235"><ele></ele><time>2022-5-31T3:40:35Z</time></trkpt>
<trkpt lat="43.4949353" lon="6.9039235"><ele></ele><time>2022-5-31T3:40:38Z</time></trkpt>
<trkpt lat="43.4949354" lon="6.9039234"><ele></ele><time>2022-5-31T3:40:41Z</time></trkpt>
<trkpt lat="43.4949352" lon="6.9039237"><ele></ele><time>2022-5-31T3:40:44Z</time></trkpt>
<trkpt lat="43.4949347" lon="6.9039243"><ele></ele><time>2022-5-31T3:40:47Z</time></trkpt>
<trkpt lat="43.4949348" lon="6.9039244"><ele></ele><time>2022-5-31T3:40:50Z</time></trkpt>
<trkpt lat="43.4949346" lon="6.9039247"><ele></ele><time>2022-5-31T3:40:53Z</time></trkpt>
<trkpt lat="43.4949348" lon="6.9039239"><ele></ele><time>2022-5-31T3:40:56Z</time></trkpt>
<trkpt lat="43.4949347" lon="6.9039219"><ele></ele><time>2022-5-31T3:40:59Z</time></trkpt>
<trkpt lat="43.4949348" lon="6.9039211"><ele></ele><time>2022-5-31T3:41:2Z</time></trkpt>
<trkpt lat="43.4949348" lon="6.9039206"><ele></ele><time>2022-5-31T3:41:5Z</time></trkpt>
<trkpt lat="43.4949346" lon="6.9039191"><ele></ele><time>2022-5-31T3:41:8Z</time></trkpt>
<trkpt lat="43.4949342" lon="6.9039183"><ele></ele><time>2022-5-31T3:41:11Z</time></trkpt>
<trkpt lat="43.4949344" lon="6.9039172"><ele></ele><time>2022-5-31T3:41:14Z</time></trkpt>
<trkpt lat="43.4949342" lon="6.9039164"><ele></ele><time>2022-5-31T3:41:17Z</time></trkpt>
<trkpt lat="43.4949340" lon="6.9039150"><ele></ele><time>2022-5-31T3:41:20Z</time></trkpt>
<trkpt lat="43.4949337" lon="6.9039140"><ele></ele><time>2022-5-31T3:41:23Z</time></trkpt>
<trkpt lat="43.4949345" lon="6.9039127"><ele></ele><time>2022-5-31T3:41:26Z</time></trkpt>
<trkpt lat="43.4949350" lon="6.9039115"><ele></ele><time>2022-5-31T3:41:29Z</time></trkpt>
<trkpt lat="43.4949367" lon="6.9039091"><ele></ele><time>2022-5-31T3:41:32Z</time></trkpt>
<trkpt lat="43.4949393" lon="6.9039052"><ele></ele><time>2022-5-31T3:41:35Z</time></trkpt>
<trkpt lat="43.4949375" lon="6.9039003"><ele></ele><time>2022-5-31T3:41:38Z</time></trkpt>
<trkpt lat="43.4949367" lon="6.9038946"><ele></ele><time>2022-5-31T3:41:41Z</time></trkpt>
<trkpt lat="43.4949367" lon="6.9038948"><ele></ele><time>2022-5-31T3:41:44Z</time></trkpt>
<trkpt lat="43.4949372" lon="6.9038935"><ele></ele><time>2022-5-31T3:41:47Z</time></trkpt>
<trkpt lat="43.4949363" lon="6.9038935"><ele></ele><time>2022-5-31T3:41:50Z</time></trkpt>
<trkpt lat="43.4949363" lon="6.9038935"><ele></ele><time>2022-5-31T3:41:53Z</time></trkpt>
<trkpt lat="43.4949365" lon="6.9038944"><ele></ele><time>2022-5-31T3:41:56Z</time></trkpt>
<trkpt lat="43.4949365" lon="6.9038954"><ele></ele><time>2022-5-31T3:41:59Z</time></trkpt>
<trkpt lat="43.4949364" lon="6.9038944"><ele></ele><time>2022-5-31T3:42:2Z</time></trkpt>
<trkpt lat="43.4949364" lon="6.9038941"><ele></ele><time>2022-5-31T3:42:5Z</time></trkpt>
<trkpt lat="43.4949344" lon="6.9038961"><ele></ele><time>2022-5-31T3:42:8Z</time></trkpt>
<trkpt lat="43.4949344" lon="6.9038972"><ele></ele><time>2022-5-31T3:42:11Z</time></trkpt>
<trkpt lat="43.4949347" lon="6.9038972"><ele></ele><time>2022-5-31T3:42:14Z</time></trkpt>
<trkpt lat="43.4949346" lon="6.9038976"><ele></ele><time>2022-5-31T3:42:17Z</time></trkpt>
<trkpt lat="43.4949346" lon="6.9038979"><ele></ele><time>2022-5-31T3:42:20Z</time></trkpt>
<trkpt lat="43.4949394" lon="6.9038807"><ele></ele><time>2022-5-31T3:42:23Z</time></trkpt>
<trkpt lat="43.4949412" lon="6.9038705"><ele></ele><time>2022-5-31T3:42:26Z</time></trkpt>
<trkpt lat="43.4949429" lon="6.9038513"><ele></ele><time>2022-5-31T3:42:29Z</time></trkpt>
<trkpt lat="43.4949432" lon="6.9038512"><ele></ele><time>2022-5-31T3:42:32Z</time></trkpt>
<trkpt lat="43.4949430" lon="6.9038517"><ele></ele><time>2022-5-31T3:42:35Z</time></trkpt>
<trkpt lat="43.4949436" lon="6.9038520"><ele></ele><time>2022-5-31T3:42:38Z</time></trkpt>
<trkpt lat="43.4949440" lon="6.9038523"><ele></ele><time>2022-5-31T3:42:41Z</time></trkpt>
<trkpt lat="43.4949440" lon="6.9038529"><ele></ele><time>2022-5-31T3:42:44Z</time></trkpt>
<trkpt lat="43.4949439" lon="6.9038541"><ele></ele><time>2022-5-31T3:42:47Z</time></trkpt>
<trkpt lat="43.4949439" lon="6.9038549"><ele></ele><time>2022-5-31T3:42:50Z</time></trkpt>
<trkpt lat="43.4949439" lon="6.9038557"><ele></ele><time>2022-5-31T3:42:53Z</time></trkpt>
<trkpt lat="43.4949439" lon="6.9038563"><ele></ele><time>2022-5-31T3:42:56Z</time></trkpt>
<trkpt lat="43.4949438" lon="6.9038570"><ele></ele><time>2022-5-31T3:42:59Z</time></trkpt>
<trkpt lat="43.4949437" lon="6.9038574"><ele></ele><time>2022-5-31T3:43:2Z</time></trkpt>
<trkpt lat="43.4949438" lon="6.9038568"><ele></ele><time>2022-5-31T3:43:5Z</time></trkpt>
<trkpt lat="43.4949435" lon="6.9038569"><ele></ele><time>2022-5-31T3:43:8Z</time></trkpt>
<trkpt lat="43.4949455" lon="6.9038536"><ele></ele><time>2022-5-31T3:43:11Z</time></trkpt>
<trkpt lat="43.4949493" lon="6.9038417"><ele></ele><time>2022-5-31T3:43:14Z</time></trkpt>
<trkpt lat="43.4949485" lon="6.9038357"><ele></ele><time>2022-5-31T3:43:17Z</time></trkpt>
<trkpt lat="43.4949497" lon="6.9038286"><ele></ele><time>2022-5-31T3:43:20Z</time></trkpt>
<trkpt lat="43.4949522" lon="6.9038173"><ele></ele><time>2022-5-31T3:43:23Z</time></trkpt>
<trkpt lat="43.4949540" lon="6.9038039"><ele></ele><time>2022-5-31T3:43:26Z</time></trkpt>
<trkpt lat="43.4949526" lon="6.9037887"><ele></ele><time>2022-5-31T3:43:29Z</time></trkpt>
<trkpt lat="43.4949408" lon="6.9037879"><ele></ele><time>2022-5-31T3:43:32Z</time></trkpt>
<trkpt lat="43.4949299" lon="6.9037944"><ele></ele><time>2022-5-31T3:43:35Z</time></trkpt>
<trkpt lat="43.4949279" lon="6.9038050"><ele></ele><time>2022-5-31T3:43:38Z</time></trkpt>
<trkpt lat="43.4949257" lon="6.9038104"><ele></ele><time>2022-5-31T3:43:41Z</time></trkpt>
<trkpt lat="43.4949223" lon="6.9038208"><ele></ele><time>2022-5-31T3:43:44Z</time></trkpt>
<trkpt lat="43.4949230" lon="6.9038201"><ele></ele><time>2022-5-31T3:43:47Z</time></trkpt>
<trkpt lat="43.4949230" lon="6.9038201"><ele></ele><time>2022-5-31T3:43:50Z</time></trkpt>
<trkpt lat="43.4949230" lon="6.9038201"><ele></ele><time>2022-5-31T3:43:53Z</time></trkpt>
<trkpt lat="43.4949229" lon="6.9038202"><ele></ele><time>2022-5-31T3:43:56Z</time></trkpt>
<trkpt lat="43.4949225" lon="6.9038205"><ele></ele><time>2022-5-31T3:43:59Z</time></trkpt>
<trkpt lat="43.4949224" lon="6.9038206"><ele></ele><time>2022-5-31T3:44:2Z</time></trkpt>
<trkpt lat="43.4949221" lon="6.9038214"><ele></ele><time>2022-5-31T3:44:5Z</time></trkpt>
<trkpt lat="43.4949223" lon="6.9038214"><ele></ele><time>2022-5-31T3:44:8Z</time></trkpt>
<trkpt lat="43.4949228" lon="6.9038218"><ele></ele><time>2022-5-31T3:44:11Z</time></trkpt>
<trkpt lat="43.4949228" lon="6.9038218"><ele></ele><time>2022-5-31T3:44:14Z</time></trkpt>
<trkpt lat="43.4949232" lon="6.9038216"><ele></ele><time>2022-5-31T3:44:17Z</time></trkpt>
<trkpt lat="43.4949232" lon="6.9038216"><ele></ele><time>2022-5-31T3:44:20Z</time></trkpt>
<trkpt lat="43.4949232" lon="6.9038216"><ele></ele><time>2022-5-31T3:44:23Z</time></trkpt>
<trkpt lat="43.4949230" lon="6.9038220"><ele></ele><time>2022-5-31T3:44:26Z</time></trkpt>
<trkpt lat="43.4949222" lon="6.9038241"><ele></ele><time>2022-5-31T3:44:29Z</time></trkpt>
<trkpt lat="43.4949250" lon="6.9038222"><ele></ele><time>2022-5-31T3:44:32Z</time></trkpt>
<trkpt lat="43.4949138" lon="6.9038425"><ele></ele><time>2022-5-31T3:44:35Z</time></trkpt>
<trkpt lat="43.4948966" lon="6.9038757"><ele></ele><time>2022-5-31T3:44:38Z</time></trkpt>
<trkpt lat="43.4948776" lon="6.9039095"><ele></ele><time>2022-5-31T3:44:41Z</time></trkpt>
<trkpt lat="43.4948559" lon="6.9039458"><ele></ele><time>2022-5-31T3:44:44Z</time></trkpt>
<trkpt lat="43.4948339" lon="6.9039775"><ele></ele><time>2022-5-31T3:44:47Z</time></trkpt>
<trkpt lat="43.4948032" lon="6.9039969"><ele></ele><time>2022-5-31T3:44:50Z</time></trkpt>
<trkpt lat="43.4947655" lon="6.9040147"><ele></ele><time>2022-5-31T3:44:53Z</time></trkpt>
<trkpt lat="43.4947243" lon="6.9040277"><ele></ele><time>2022-5-31T3:44:56Z</time></trkpt>
<trkpt lat="43.4946922" lon="6.9040258"><ele></ele><time>2022-5-31T3:44:59Z</time></trkpt>
<trkpt lat="43.4946622" lon="6.9040281"><ele></ele><time>2022-5-31T3:45:2Z</time></trkpt>
<trkpt lat="43.4946383" lon="6.9040333"><ele></ele><time>2022-5-31T3:45:5Z</time></trkpt>
<trkpt lat="43.4946222" lon="6.9040384"><ele></ele><time>2022-5-31T3:45:8Z</time></trkpt>
<trkpt lat="43.4946109" lon="6.9040440"><ele></ele><time>2022-5-31T3:45:11Z</time></trkpt>
<trkpt lat="43.4946073" lon="6.9040411"><ele></ele><time>2022-5-31T3:45:14Z</time></trkpt>
<trkpt lat="43.4946070" lon="6.9040403"><ele></ele><time>2022-5-31T3:45:17Z</time></trkpt>
<trkpt lat="43.4946111" lon="6.9040427"><ele></ele><time>2022-5-31T3:45:20Z</time></trkpt>
<trkpt lat="43.4946097" lon="6.9040439"><ele></ele><time>2022-5-31T3:45:23Z</time></trkpt>
<trkpt lat="43.4946095" lon="6.9040443"><ele></ele><time>2022-5-31T3:45:26Z</time></trkpt>
<trkpt lat="43.4946097" lon="6.9040443"><ele></ele><time>2022-5-31T3:45:29Z</time></trkpt>
<trkpt lat="43.4946097" lon="6.9040447"><ele></ele><time>2022-5-31T3:45:32Z</time></trkpt>
<trkpt lat="43.4946092" lon="6.9040451"><ele></ele><time>2022-5-31T3:45:35Z</time></trkpt>
<trkpt lat="43.4946091" lon="6.9040454"><ele></ele><time>2022-5-31T3:45:38Z</time></trkpt>
<trkpt lat="43.4946089" lon="6.9040456"><ele></ele><time>2022-5-31T3:45:41Z</time></trkpt>
<trkpt lat="43.4946087" lon="6.9040456"><ele></ele><time>2022-5-31T3:45:44Z</time></trkpt>
<trkpt lat="43.4946086" lon="6.9040458"><ele></ele><time>2022-5-31T3:45:47Z</time></trkpt>
<trkpt lat="43.4946080" lon="6.9040462"><ele></ele><time>2022-5-31T3:45:50Z</time></trkpt>
<trkpt lat="43.4946081" lon="6.9040461"><ele></ele><time>2022-5-31T3:45:53Z</time></trkpt>
<trkpt lat="43.4946082" lon="6.9040461"><ele></ele><time>2022-5-31T3:45:56Z</time></trkpt>
<trkpt lat="43.4946083" lon="6.9040461"><ele></ele><time>2022-5-31T3:45:59Z</time></trkpt>
<trkpt lat="43.4946084" lon="6.9040461"><ele></ele><time>2022-5-31T3:46:2Z</time></trkpt>
<trkpt lat="43.4946083" lon="6.9040462"><ele></ele><time>2022-5-31T3:46:5Z</time></trkpt>
<trkpt lat="43.4946082" lon="6.9040462"><ele></ele><time>2022-5-31T3:46:8Z</time></trkpt>
<trkpt lat="43.4946084" lon="6.9040463"><ele></ele><time>2022-5-31T3:46:11Z</time></trkpt>
<trkpt lat="43.4946090" lon="6.9040462"><ele></ele><time>2022-5-31T3:46:14Z</time></trkpt>
<trkpt lat="43.4946093" lon="6.9040463"><ele></ele><time>2022-5-31T3:46:17Z</time></trkpt>
<trkpt lat="43.4946093" lon="6.9040465"><ele></ele><time>2022-5-31T3:46:20Z</time></trkpt>
<trkpt lat="43.4946096" lon="6.9040465"><ele></ele><time>2022-5-31T3:46:23Z</time></trkpt>
<trkpt lat="43.4946097" lon="6.9040465"><ele></ele><time>2022-5-31T3:46:26Z</time></trkpt>
<trkpt lat="43.4946098" lon="6.9040464"><ele></ele><time>2022-5-31T3:46:29Z</time></trkpt>
<trkpt lat="43.4946104" lon="6.9040461"><ele></ele><time>2022-5-31T3:46:32Z</time></trkpt>
<trkpt lat="43.4946111" lon="6.9040462"><ele></ele><time>2022-5-31T3:46:35Z</time></trkpt>
<trkpt lat="43.4946118" lon="6.9040458"><ele></ele><time>2022-5-31T3:46:38Z</time></trkpt>
<trkpt lat="43.4946132" lon="6.9040453"><ele></ele><time>2022-5-31T3:46:41Z</time></trkpt>
<trkpt lat="43.4946141" lon="6.9040455"><ele></ele><time>2022-5-31T3:46:44Z</time></trkpt>
<trkpt lat="43.4946161" lon="6.9040446"><ele></ele><time>2022-5-31T3:46:47Z</time></trkpt>
<trkpt lat="43.4946212" lon="6.9040418"><ele></ele><time>2022-5-31T3:46:50Z</time></trkpt>
<trkpt lat="43.4946317" lon="6.9040355"><ele></ele><time>2022-5-31T3:46:53Z</time></trkpt>
<trkpt lat="43.4946378" lon="6.9040312"><ele></ele><time>2022-5-31T3:46:56Z</time></trkpt>
<trkpt lat="43.4946391" lon="6.9040297"><ele></ele><time>2022-5-31T3:46:59Z</time></trkpt>
<trkpt lat="43.4946390" lon="6.9040279"><ele></ele><time>2022-5-31T3:47:2Z</time></trkpt>
<trkpt lat="43.4946430" lon="6.9040198"><ele></ele><time>2022-5-31T3:47:5Z</time></trkpt>
<trkpt lat="43.4946446" lon="6.9040184"><ele></ele><time>2022-5-31T3:47:8Z</time></trkpt>
<trkpt lat="43.4946425" lon="6.9040193"><ele></ele><time>2022-5-31T3:47:11Z</time></trkpt>
<trkpt lat="43.4946372" lon="6.9040161"><ele></ele><time>2022-5-31T3:47:14Z</time></trkpt>
<trkpt lat="43.4946370" lon="6.9040153"><ele></ele><time>2022-5-31T3:47:17Z</time></trkpt>
<trkpt lat="43.4946378" lon="6.9040131"><ele></ele><time>2022-5-31T3:47:20Z</time></trkpt>
<trkpt lat="43.4946380" lon="6.9040125"><ele></ele><time>2022-5-31T3:47:23Z</time></trkpt>
<trkpt lat="43.4946377" lon="6.9040117"><ele></ele><time>2022-5-31T3:47:26Z</time></trkpt>
<trkpt lat="43.4946380" lon="6.9040111"><ele></ele><time>2022-5-31T3:47:29Z</time></trkpt>
<trkpt lat="43.4946381" lon="6.9040106"><ele></ele><time>2022-5-31T3:47:32Z</time></trkpt>
<trkpt lat="43.4946382" lon="6.9040106"><ele></ele><time>2022-5-31T3:47:35Z</time></trkpt>
<trkpt lat="43.4946382" lon="6.9040105"><ele></ele><time>2022-5-31T3:47:38Z</time></trkpt>
<trkpt lat="43.4946383" lon="6.9040104"><ele></ele><time>2022-5-31T3:47:41Z</time></trkpt>
<trkpt lat="43.4946384" lon="6.9040102"><ele></ele><time>2022-5-31T3:47:44Z</time></trkpt>
<trkpt lat="43.4946384" lon="6.9040102"><ele></ele><time>2022-5-31T3:47:47Z</time></trkpt>
<trkpt lat="43.4946383" lon="6.9040101"><ele></ele><time>2022-5-31T3:47:50Z</time></trkpt>
<trkpt lat="43.4946383" lon="6.9040101"><ele></ele><time>2022-5-31T3:47:53Z</time></trkpt>
<trkpt lat="43.4946381" lon="6.9040102"><ele></ele><time>2022-5-31T3:47:56Z</time></trkpt>
<trkpt lat="43.4946381" lon="6.9040102"><ele></ele><time>2022-5-31T3:47:59Z</time></trkpt>
<trkpt lat="43.4946378" lon="6.9040105"><ele></ele><time>2022-5-31T3:48:2Z</time></trkpt>
<trkpt lat="43.4946378" lon="6.9040106"><ele></ele><time>2022-5-31T3:48:5Z</time></trkpt>
<trkpt lat="43.4946377" lon="6.9040112"><ele></ele><time>2022-5-31T3:48:8Z</time></trkpt>
<trkpt lat="43.4946372" lon="6.9040117"><ele></ele><time>2022-5-31T3:48:11Z</time></trkpt>
<trkpt lat="43.4946374" lon="6.9040119"><ele></ele><time>2022-5-31T3:48:14Z</time></trkpt>
<trkpt lat="43.4946378" lon="6.9040126"><ele></ele><time>2022-5-31T3:48:17Z</time></trkpt>
<trkpt lat="43.4946381" lon="6.9040124"><ele></ele><time>2022-5-31T3:48:20Z</time></trkpt>
<trkpt lat="43.4946386" lon="6.9040105"><ele></ele><time>2022-5-31T3:48:23Z</time></trkpt>
<trkpt lat="43.4946447" lon="6.9040050"><ele></ele><time>2022-5-31T3:48:26Z</time></trkpt>
<trkpt lat="43.4946457" lon="6.9040031"><ele></ele><time>2022-5-31T3:48:29Z</time></trkpt>
<trkpt lat="43.4946476" lon="6.9039991"><ele></ele><time>2022-5-31T3:48:32Z</time></trkpt>
<trkpt lat="43.4946491" lon="6.9039974"><ele></ele><time>2022-5-31T3:48:35Z</time></trkpt>
<trkpt lat="43.4946496" lon="6.9039967"><ele></ele><time>2022-5-31T3:48:38Z</time></trkpt>
<trkpt lat="43.4946470" lon="6.9039960"><ele></ele><time>2022-5-31T3:48:41Z</time></trkpt>
<trkpt lat="43.4946509" lon="6.9039901"><ele></ele><time>2022-5-31T3:48:44Z</time></trkpt>
<trkpt lat="43.4946491" lon="6.9039923"><ele></ele><time>2022-5-31T3:48:47Z</time></trkpt>
<trkpt lat="43.4946485" lon="6.9039925"><ele></ele><time>2022-5-31T3:48:50Z</time></trkpt>
<trkpt lat="43.4946477" lon="6.9039932"><ele></ele><time>2022-5-31T3:48:53Z</time></trkpt>
<trkpt lat="43.4946457" lon="6.9039938"><ele></ele><time>2022-5-31T3:48:56Z</time></trkpt>
<trkpt lat="43.4946448" lon="6.9039935"><ele></ele><time>2022-5-31T3:48:59Z</time></trkpt>
<trkpt lat="43.4946427" lon="6.9039942"><ele></ele><time>2022-5-31T3:49:2Z</time></trkpt>
<trkpt lat="43.4946426" lon="6.9039944"><ele></ele><time>2022-5-31T3:49:5Z</time></trkpt>
<trkpt lat="43.4946417" lon="6.9039945"><ele></ele><time>2022-5-31T3:49:8Z</time></trkpt>
<trkpt lat="43.4946414" lon="6.9039949"><ele></ele><time>2022-5-31T3:49:11Z</time></trkpt>
<trkpt lat="43.4946403" lon="6.9039953"><ele></ele><time>2022-5-31T3:49:14Z</time></trkpt>
<trkpt lat="43.4946399" lon="6.9039954"><ele></ele><time>2022-5-31T3:49:17Z</time></trkpt>
<trkpt lat="43.4946400" lon="6.9039951"><ele></ele><time>2022-5-31T3:49:20Z</time></trkpt>
<trkpt lat="43.4946399" lon="6.9039948"><ele></ele><time>2022-5-31T3:49:23Z</time></trkpt>
<trkpt lat="43.4946399" lon="6.9039946"><ele></ele><time>2022-5-31T3:49:26Z</time></trkpt>
<trkpt lat="43.4946399" lon="6.9039943"><ele></ele><time>2022-5-31T3:49:29Z</time></trkpt>
<trkpt lat="43.4946400" lon="6.9039938"><ele></ele><time>2022-5-31T3:49:32Z</time></trkpt>
<trkpt lat="43.4946399" lon="6.9039936"><ele></ele><time>2022-5-31T3:49:35Z</time></trkpt>
<trkpt lat="43.4946399" lon="6.9039933"><ele></ele><time>2022-5-31T3:49:38Z</time></trkpt>
<trkpt lat="43.4946399" lon="6.9039929"><ele></ele><time>2022-5-31T3:49:41Z</time></trkpt>
<trkpt lat="43.4946401" lon="6.9039925"><ele></ele><time>2022-5-31T3:49:44Z</time></trkpt>
<trkpt lat="43.4946403" lon="6.9039923"><ele></ele><time>2022-5-31T3:49:47Z</time></trkpt>
<trkpt lat="43.4946406" lon="6.9039921"><ele></ele><time>2022-5-31T3:49:50Z</time></trkpt>
<trkpt lat="43.4946408" lon="6.9039917"><ele></ele><time>2022-5-31T3:49:53Z</time></trkpt>
<trkpt lat="43.4946406" lon="6.9039919"><ele></ele><time>2022-5-31T3:49:56Z</time></trkpt>
<trkpt lat="43.4946414" lon="6.9039908"><ele></ele><time>2022-5-31T3:49:59Z</time></trkpt>
<trkpt lat="43.4946409" lon="6.9039902"><ele></ele><time>2022-5-31T3:50:2Z</time></trkpt>
<trkpt lat="43.4946404" lon="6.9039899"><ele></ele><time>2022-5-31T3:50:5Z</time></trkpt>
<trkpt lat="43.4946403" lon="6.9039896"><ele></ele><time>2022-5-31T3:50:8Z</time></trkpt>
<trkpt lat="43.4946401" lon="6.9039889"><ele></ele><time>2022-5-31T3:50:11Z</time></trkpt>
<trkpt lat="43.4946399" lon="6.9039884"><ele></ele><time>2022-5-31T3:50:14Z</time></trkpt>
<trkpt lat="43.4946395" lon="6.9039880"><ele></ele><time>2022-5-31T3:50:17Z</time></trkpt>
<trkpt lat="43.4946395" lon="6.9039878"><ele></ele><time>2022-5-31T3:50:20Z</time></trkpt>
<trkpt lat="43.4946394" lon="6.9039878"><ele></ele><time>2022-5-31T3:50:23Z</time></trkpt>
<trkpt lat="43.4946449" lon="6.9039798"><ele></ele><time>2022-5-31T3:50:26Z</time></trkpt>
<trkpt lat="43.4946454" lon="6.9039770"><ele></ele><time>2022-5-31T3:50:29Z</time></trkpt>
<trkpt lat="43.4946447" lon="6.9039746"><ele></ele><time>2022-5-31T3:50:32Z</time></trkpt>
<trkpt lat="43.4946455" lon="6.9039723"><ele></ele><time>2022-5-31T3:50:35Z</time></trkpt>
<trkpt lat="43.4946451" lon="6.9039713"><ele></ele><time>2022-5-31T3:50:38Z</time></trkpt>
<trkpt lat="43.4946425" lon="6.9039711"><ele></ele><time>2022-5-31T3:50:41Z</time></trkpt>
<trkpt lat="43.4946403" lon="6.9039714"><ele></ele><time>2022-5-31T3:50:44Z</time></trkpt>
<trkpt lat="43.4946380" lon="6.9039710"><ele></ele><time>2022-5-31T3:50:47Z</time></trkpt>
<trkpt lat="43.4946370" lon="6.9039710"><ele></ele><time>2022-5-31T3:50:50Z</time></trkpt>
<trkpt lat="43.4946365" lon="6.9039708"><ele></ele><time>2022-5-31T3:50:53Z</time></trkpt>
<trkpt lat="43.4946358" lon="6.9039708"><ele></ele><time>2022-5-31T3:50:56Z</time></trkpt>
<trkpt lat="43.4946353" lon="6.9039705"><ele></ele><time>2022-5-31T3:50:59Z</time></trkpt>
<trkpt lat="43.4946344" lon="6.9039705"><ele></ele><time>2022-5-31T3:51:2Z</time></trkpt>
<trkpt lat="43.4946341" lon="6.9039706"><ele></ele><time>2022-5-31T3:51:5Z</time></trkpt>
<trkpt lat="43.4946340" lon="6.9039706"><ele></ele><time>2022-5-31T3:51:8Z</time></trkpt>
<trkpt lat="43.4946340" lon="6.9039707"><ele></ele><time>2022-5-31T3:51:11Z</time></trkpt>
<trkpt lat="43.4946340" lon="6.9039707"><ele></ele><time>2022-5-31T3:51:14Z</time></trkpt>
<trkpt lat="43.4946339" lon="6.9039705"><ele></ele><time>2022-5-31T3:51:17Z</time></trkpt>
<trkpt lat="43.4946340" lon="6.9039703"><ele></ele><time>2022-5-31T3:51:20Z</time></trkpt>
<trkpt lat="43.4946345" lon="6.9039699"><ele></ele><time>2022-5-31T3:51:23Z</time></trkpt>
<trkpt lat="43.4946348" lon="6.9039697"><ele></ele><time>2022-5-31T3:51:26Z</time></trkpt>
<trkpt lat="43.4946349" lon="6.9039695"><ele></ele><time>2022-5-31T3:51:29Z</time></trkpt>
<trkpt lat="43.4946348" lon="6.9039695"><ele></ele><time>2022-5-31T3:51:32Z</time></trkpt>
<trkpt lat="43.4946349" lon="6.9039695"><ele></ele><time>2022-5-31T3:51:35Z</time></trkpt>
<trkpt lat="43.4946347" lon="6.9039697"><ele></ele><time>2022-5-31T3:51:38Z</time></trkpt>
<trkpt lat="43.4946344" lon="6.9039698"><ele></ele><time>2022-5-31T3:51:41Z</time></trkpt>
<trkpt lat="43.4946348" lon="6.9039701"><ele></ele><time>2022-5-31T3:51:44Z</time></trkpt>
<trkpt lat="43.4946350" lon="6.9039704"><ele></ele><time>2022-5-31T3:51:47Z</time></trkpt>
<trkpt lat="43.4946353" lon="6.9039705"><ele></ele><time>2022-5-31T3:51:50Z</time></trkpt>
<trkpt lat="43.4946347" lon="6.9039708"><ele></ele><time>2022-5-31T3:51:53Z</time></trkpt>
<trkpt lat="43.4946340" lon="6.9039707"><ele></ele><time>2022-5-31T3:51:56Z</time></trkpt>
<trkpt lat="43.4946336" lon="6.9039708"><ele></ele><time>2022-5-31T3:51:59Z</time></trkpt>
<trkpt lat="43.4946315" lon="6.9039695"><ele></ele><time>2022-5-31T3:52:2Z</time></trkpt>
<trkpt lat="43.4946271" lon="6.9039856"><ele></ele><time>2022-5-31T3:52:5Z</time></trkpt>
<trkpt lat="43.4946228" lon="6.9040091"><ele></ele><time>2022-5-31T3:52:8Z</time></trkpt>
<trkpt lat="43.4946257" lon="6.9040285"><ele></ele><time>2022-5-31T3:52:11Z</time></trkpt>
<trkpt lat="43.4946246" lon="6.9040361"><ele></ele><time>2022-5-31T3:52:14Z</time></trkpt>
<trkpt lat="43.4946286" lon="6.9040513"><ele></ele><time>2022-5-31T3:52:17Z</time></trkpt>
<trkpt lat="43.4946284" lon="6.9040693"><ele></ele><time>2022-5-31T3:52:20Z</time></trkpt>
<trkpt lat="43.4946256" lon="6.9040787"><ele></ele><time>2022-5-31T3:52:23Z</time></trkpt>
<trkpt lat="43.4946489" lon="6.9040855"><ele></ele><time>2022-5-31T3:52:26Z</time></trkpt>
<trkpt lat="43.4946612" lon="6.9040614"><ele></ele><time>2022-5-31T3:52:29Z</time></trkpt>
<trkpt lat="43.4946658" lon="6.9040535"><ele></ele><time>2022-5-31T3:52:32Z</time></trkpt>
<trkpt lat="43.4946648" lon="6.9040528"><ele></ele><time>2022-5-31T3:52:35Z</time></trkpt>
<trkpt lat="43.4946641" lon="6.9040539"><ele></ele><time>2022-5-31T3:52:38Z</time></trkpt>
<trkpt lat="43.4946531" lon="6.9040521"><ele></ele><time>2022-5-31T3:52:41Z</time></trkpt>
<trkpt lat="43.4946462" lon="6.9040504"><ele></ele><time>2022-5-31T3:52:44Z</time></trkpt>
<trkpt lat="43.4946251" lon="6.9040493"><ele></ele><time>2022-5-31T3:52:47Z</time></trkpt>
<trkpt lat="43.4946256" lon="6.9040490"><ele></ele><time>2022-5-31T3:52:50Z</time></trkpt>
<trkpt lat="43.4946263" lon="6.9040449"><ele></ele><time>2022-5-31T3:52:53Z</time></trkpt>
<trkpt lat="43.4946319" lon="6.9040426"><ele></ele><time>2022-5-31T3:52:56Z</time></trkpt>
<trkpt lat="43.4946251" lon="6.9040536"><ele></ele><time>2022-5-31T3:52:59Z</time></trkpt>
<trkpt lat="43.4946251" lon="6.9040540"><ele></ele><time>2022-5-31T3:53:2Z</time></trkpt>
<trkpt lat="43.4946253" lon="6.9040541"><ele></ele><time>2022-5-31T3:53:5Z</time></trkpt>
<trkpt lat="43.4946258" lon="6.9040542"><ele></ele><time>2022-5-31T3:53:8Z</time></trkpt>
<trkpt lat="43.4946252" lon="6.9040547"><ele></ele><time>2022-5-31T3:53:11Z</time></trkpt>
<trkpt lat="43.4946250" lon="6.9040549"><ele></ele><time>2022-5-31T3:53:14Z</time></trkpt>
<trkpt lat="43.4946256" lon="6.9040555"><ele></ele><time>2022-5-31T3:53:17Z</time></trkpt>
<trkpt lat="43.4946261" lon="6.9040558"><ele></ele><time>2022-5-31T3:53:20Z</time></trkpt>
<trkpt lat="43.4946266" lon="6.9040559"><ele></ele><time>2022-5-31T3:53:23Z</time></trkpt>
<trkpt lat="43.4946270" lon="6.9040562"><ele></ele><time>2022-5-31T3:53:26Z</time></trkpt>
<trkpt lat="43.4946272" lon="6.9040566"><ele></ele><time>2022-5-31T3:53:29Z</time></trkpt>
<trkpt lat="43.4946286" lon="6.9040571"><ele></ele><time>2022-5-31T3:53:32Z</time></trkpt>
<trkpt lat="43.4946113" lon="6.9040646"><ele></ele><time>2022-5-31T3:53:35Z</time></trkpt>
<trkpt lat="43.4946089" lon="6.9040710"><ele></ele><time>2022-5-31T3:53:38Z</time></trkpt>
<trkpt lat="43.4945901" lon="6.9040690"><ele></ele><time>2022-5-31T3:53:41Z</time></trkpt>
<trkpt lat="43.4945982" lon="6.9040462"><ele></ele><time>2022-5-31T3:53:44Z</time></trkpt>
<trkpt lat="43.4945983" lon="6.9040445"><ele></ele><time>2022-5-31T3:53:47Z</time></trkpt>
<trkpt lat="43.4946005" lon="6.9040457"><ele></ele><time>2022-5-31T3:53:50Z</time></trkpt>
<trkpt lat="43.4946031" lon="6.9040446"><ele></ele><time>2022-5-31T3:53:53Z</time></trkpt>
<trkpt lat="43.4945731" lon="6.9040375"><ele></ele><time>2022-5-31T3:53:56Z</time></trkpt>
<trkpt lat="43.4945953" lon="6.9040282"><ele></ele><time>2022-5-31T3:53:59Z</time></trkpt>
<trkpt lat="43.4945875" lon="6.9040133"><ele></ele><time>2022-5-31T3:54:2Z</time></trkpt>
<trkpt lat="43.4945877" lon="6.9040118"><ele></ele><time>2022-5-31T3:54:5Z</time></trkpt>
<trkpt lat="43.4946100" lon="6.9040161"><ele></ele><time>2022-5-31T3:54:8Z</time></trkpt>
<trkpt lat="43.4946093" lon="6.9040066"><ele></ele><time>2022-5-31T3:54:11Z</time></trkpt>
<trkpt lat="43.4945781" lon="6.9039695"><ele></ele><time>2022-5-31T3:54:14Z</time></trkpt>
<trkpt lat="43.4945767" lon="6.9039705"><ele></ele><time>2022-5-31T3:54:17Z</time></trkpt>
<trkpt lat="43.4945791" lon="6.9039701"><ele></ele><time>2022-5-31T3:54:20Z</time></trkpt>
<trkpt lat="43.4945812" lon="6.9039705"><ele></ele><time>2022-5-31T3:54:23Z</time></trkpt>
<trkpt lat="43.4945828" lon="6.9039702"><ele></ele><time>2022-5-31T3:54:26Z</time></trkpt>
<trkpt lat="43.4945833" lon="6.9039707"><ele></ele><time>2022-5-31T3:54:29Z</time></trkpt>
<trkpt lat="43.4945853" lon="6.9039703"><ele></ele><time>2022-5-31T3:54:32Z</time></trkpt>
<trkpt lat="43.4945867" lon="6.9039774"><ele></ele><time>2022-5-31T3:54:35Z</time></trkpt>
<trkpt lat="43.4946061" lon="6.9039617"><ele></ele><time>2022-5-31T3:54:38Z</time></trkpt>
<trkpt lat="43.4946042" lon="6.9039638"><ele></ele><time>2022-5-31T3:54:41Z</time></trkpt>
<trkpt lat="43.4946063" lon="6.9039635"><ele></ele><time>2022-5-31T3:54:44Z</time></trkpt>
<trkpt lat="43.4946077" lon="6.9039631"><ele></ele><time>2022-5-31T3:54:47Z</time></trkpt>
<trkpt lat="43.4946096" lon="6.9039629"><ele></ele><time>2022-5-31T3:54:50Z</time></trkpt>
<trkpt lat="43.4946082" lon="6.9039660"><ele></ele><time>2022-5-31T3:54:53Z</time></trkpt>
<trkpt lat="43.4946132" lon="6.9039606"><ele></ele><time>2022-5-31T3:54:56Z</time></trkpt>
<trkpt lat="43.4946200" lon="6.9039603"><ele></ele><time>2022-5-31T3:54:59Z</time></trkpt>
<trkpt lat="43.4946201" lon="6.9039586"><ele></ele><time>2022-5-31T3:55:2Z</time></trkpt>
<trkpt lat="43.4946170" lon="6.9039570"><ele></ele><time>2022-5-31T3:55:5Z</time></trkpt>
<trkpt lat="43.4946156" lon="6.9039557"><ele></ele><time>2022-5-31T3:55:8Z</time></trkpt>
<trkpt lat="43.4946238" lon="6.9039557"><ele></ele><time>2022-5-31T3:55:11Z</time></trkpt>
<trkpt lat="43.4946343" lon="6.9039520"><ele></ele><time>2022-5-31T3:55:14Z</time></trkpt>
<trkpt lat="43.4946371" lon="6.9039524"><ele></ele><time>2022-5-31T3:55:17Z</time></trkpt>
<trkpt lat="43.4946365" lon="6.9039527"><ele></ele><time>2022-5-31T3:55:20Z</time></trkpt>
<trkpt lat="43.4946372" lon="6.9039530"><ele></ele><time>2022-5-31T3:55:23Z</time></trkpt>
<trkpt lat="43.4946382" lon="6.9039541"><ele></ele><time>2022-5-31T3:55:26Z</time></trkpt>
<trkpt lat="43.4946396" lon="6.9039548"><ele></ele><time>2022-5-31T3:55:29Z</time></trkpt>
<trkpt lat="43.4946392" lon="6.9039551"><ele></ele><time>2022-5-31T3:55:32Z</time></trkpt>
<trkpt lat="43.4946391" lon="6.9039550"><ele></ele><time>2022-5-31T3:55:35Z</time></trkpt>
<trkpt lat="43.4946398" lon="6.9039550"><ele></ele><time>2022-5-31T3:55:38Z</time></trkpt>
<trkpt lat="43.4946370" lon="6.9039548"><ele></ele><time>2022-5-31T3:55:41Z</time></trkpt>
<trkpt lat="43.4946374" lon="6.9039542"><ele></ele><time>2022-5-31T3:55:44Z</time></trkpt>
<trkpt lat="43.4946389" lon="6.9039547"><ele></ele><time>2022-5-31T3:55:47Z</time></trkpt>
<trkpt lat="43.4946375" lon="6.9039595"><ele></ele><time>2022-5-31T3:55:50Z</time></trkpt>
<trkpt lat="43.4946335" lon="6.9039615"><ele></ele><time>2022-5-31T3:55:53Z</time></trkpt>
<trkpt lat="43.4946414" lon="6.9039646"><ele></ele><time>2022-5-31T3:55:56Z</time></trkpt>
<trkpt lat="43.4946339" lon="6.9039659"><ele></ele><time>2022-5-31T3:55:59Z</time></trkpt>
<trkpt lat="43.4946324" lon="6.9039654"><ele></ele><time>2022-5-31T3:56:2Z</time></trkpt>
<trkpt lat="43.4946325" lon="6.9039653"><ele></ele><time>2022-5-31T3:56:5Z</time></trkpt>
<trkpt lat="43.4946320" lon="6.9039653"><ele></ele><time>2022-5-31T3:56:8Z</time></trkpt>
<trkpt lat="43.4946319" lon="6.9039654"><ele></ele><time>2022-5-31T3:56:11Z</time></trkpt>
<trkpt lat="43.4946325" lon="6.9039656"><ele></ele><time>2022-5-31T3:56:14Z</time></trkpt>
<trkpt lat="43.4946330" lon="6.9039660"><ele></ele><time>2022-5-31T3:56:17Z</time></trkpt>
<trkpt lat="43.4946280" lon="6.9039721"><ele></ele><time>2022-5-31T3:56:20Z</time></trkpt>
<trkpt lat="43.4946279" lon="6.9039752"><ele></ele><time>2022-5-31T3:56:23Z</time></trkpt>
<trkpt lat="43.4946262" lon="6.9039740"><ele></ele><time>2022-5-31T3:56:26Z</time></trkpt>
<trkpt lat="43.4946203" lon="6.9039751"><ele></ele><time>2022-5-31T3:56:29Z</time></trkpt>
<trkpt lat="43.4946207" lon="6.9039725"><ele></ele><time>2022-5-31T3:56:32Z</time></trkpt>
<trkpt lat="43.4946164" lon="6.9039755"><ele></ele><time>2022-5-31T3:56:35Z</time></trkpt>
<trkpt lat="43.4946051" lon="6.9039864"><ele></ele><time>2022-5-31T3:56:38Z</time></trkpt>
<trkpt lat="43.4945899" lon="6.9040006"><ele></ele><time>2022-5-31T3:56:41Z</time></trkpt>
<trkpt lat="43.4945722" lon="6.9040243"><ele></ele><time>2022-5-31T3:56:44Z</time></trkpt>
<trkpt lat="43.4945635" lon="6.9040405"><ele></ele><time>2022-5-31T3:56:47Z</time></trkpt>
<trkpt lat="43.4945432" lon="6.9040629"><ele></ele><time>2022-5-31T3:56:50Z</time></trkpt>
<trkpt lat="43.4945145" lon="6.9040911"><ele></ele><time>2022-5-31T3:56:53Z</time></trkpt>
<trkpt lat="43.4944854" lon="6.9041287"><ele></ele><time>2022-5-31T3:56:56Z</time></trkpt>
<trkpt lat="43.4944639" lon="6.9041704"><ele></ele><time>2022-5-31T3:56:59Z</time></trkpt>
<trkpt lat="43.4944407" lon="6.9042119"><ele></ele><time>2022-5-31T3:57:2Z</time></trkpt>
<trkpt lat="43.4944175" lon="6.9042483"><ele></ele><time>2022-5-31T3:57:5Z</time></trkpt>
<trkpt lat="43.4943817" lon="6.9042751"><ele></ele><time>2022-5-31T3:57:8Z</time></trkpt>
<trkpt lat="43.4943454" lon="6.9042972"><ele></ele><time>2022-5-31T3:57:11Z</time></trkpt>
<trkpt lat="43.4943098" lon="6.9043284"><ele></ele><time>2022-5-31T3:57:14Z</time></trkpt>
<trkpt lat="43.4942735" lon="6.9043634"><ele></ele><time>2022-5-31T3:57:17Z</time></trkpt>
<trkpt lat="43.4942327" lon="6.9043972"><ele></ele><time>2022-5-31T3:57:20Z</time></trkpt>
<trkpt lat="43.4941900" lon="6.9044358"><ele></ele><time>2022-5-31T3:57:23Z</time></trkpt>
<trkpt lat="43.4941376" lon="6.9044708"><ele></ele><time>2022-5-31T3:57:26Z</time></trkpt>
<trkpt lat="43.4940907" lon="6.9044985"><ele></ele><time>2022-5-31T3:57:29Z</time></trkpt>
<trkpt lat="43.4940496" lon="6.9045258"><ele></ele><time>2022-5-31T3:57:32Z</time></trkpt>
<trkpt lat="43.4940122" lon="6.9045732"><ele></ele><time>2022-5-31T3:57:35Z</time></trkpt>
<trkpt lat="43.4939744" lon="6.9046236"><ele></ele><time>2022-5-31T3:57:38Z</time></trkpt>
<trkpt lat="43.4939288" lon="6.9046634"><ele></ele><time>2022-5-31T3:57:41Z</time></trkpt>
<trkpt lat="43.4938830" lon="6.9047055"><ele></ele><time>2022-5-31T3:57:44Z</time></trkpt>
<trkpt lat="43.4938385" lon="6.9047596"><ele></ele><time>2022-5-31T3:57:47Z</time></trkpt>
<trkpt lat="43.4938007" lon="6.9048116"><ele></ele><time>2022-5-31T3:57:50Z</time></trkpt>
<trkpt lat="43.4937632" lon="6.9048484"><ele></ele><time>2022-5-31T3:57:53Z</time></trkpt>
<trkpt lat="43.4937274" lon="6.9048825"><ele></ele><time>2022-5-31T3:57:56Z</time></trkpt>
<trkpt lat="43.4936961" lon="6.9049299"><ele></ele><time>2022-5-31T3:57:59Z</time></trkpt>
<trkpt lat="43.4936742" lon="6.9049863"><ele></ele><time>2022-5-31T3:58:2Z</time></trkpt>
<trkpt lat="43.4936516" lon="6.9050464"><ele></ele><time>2022-5-31T3:58:5Z</time></trkpt>
<trkpt lat="43.4936285" lon="6.9051041"><ele></ele><time>2022-5-31T3:58:8Z</time></trkpt>
<trkpt lat="43.4936051" lon="6.9051690"><ele></ele><time>2022-5-31T3:58:11Z</time></trkpt>
<trkpt lat="43.4935884" lon="6.9052384"><ele></ele><time>2022-5-31T3:58:14Z</time></trkpt>
<trkpt lat="43.4935777" lon="6.9053056"><ele></ele><time>2022-5-31T3:58:17Z</time></trkpt>
<trkpt lat="43.4935696" lon="6.9053831"><ele></ele><time>2022-5-31T3:58:20Z</time></trkpt>
<trkpt lat="43.4935653" lon="6.9054600"><ele></ele><time>2022-5-31T3:58:23Z</time></trkpt>
<trkpt lat="43.4935636" lon="6.9055281"><ele></ele><time>2022-5-31T3:58:26Z</time></trkpt>
<trkpt lat="43.4935629" lon="6.9055861"><ele></ele><time>2022-5-31T3:58:29Z</time></trkpt>
<trkpt lat="43.4935746" lon="6.9056428"><ele></ele><time>2022-5-31T3:58:32Z</time></trkpt>
<trkpt lat="43.4935850" lon="6.9056896"><ele></ele><time>2022-5-31T3:58:35Z</time></trkpt>
<trkpt lat="43.4935829" lon="6.9057309"><ele></ele><time>2022-5-31T3:58:38Z</time></trkpt>
<trkpt lat="43.4935692" lon="6.9057815"><ele></ele><time>2022-5-31T3:58:41Z</time></trkpt>
<trkpt lat="43.4935556" lon="6.9058272"><ele></ele><time>2022-5-31T3:58:44Z</time></trkpt>
<trkpt lat="43.4935366" lon="6.9058622"><ele></ele><time>2022-5-31T3:58:47Z</time></trkpt>
<trkpt lat="43.4935146" lon="6.9058817"><ele></ele><time>2022-5-31T3:58:50Z</time></trkpt>
<trkpt lat="43.4934876" lon="6.9058764"><ele></ele><time>2022-5-31T3:58:53Z</time></trkpt>
<trkpt lat="43.4934497" lon="6.9058975"><ele></ele><time>2022-5-31T3:58:56Z</time></trkpt>
<trkpt lat="43.4934185" lon="6.9058992"><ele></ele><time>2022-5-31T3:58:59Z</time></trkpt>
<trkpt lat="43.4933872" lon="6.9058900"><ele></ele><time>2022-5-31T3:59:2Z</time></trkpt>
<trkpt lat="43.4933375" lon="6.9058883"><ele></ele><time>2022-5-31T3:59:5Z</time></trkpt>
<trkpt lat="43.4933063" lon="6.9058730"><ele></ele><time>2022-5-31T3:59:8Z</time></trkpt>
<trkpt lat="43.4932754" lon="6.9058572"><ele></ele><time>2022-5-31T3:59:11Z</time></trkpt>
<trkpt lat="43.4932621" lon="6.9058618"><ele></ele><time>2022-5-31T3:59:14Z</time></trkpt>
<trkpt lat="43.4932577" lon="6.9058771"><ele></ele><time>2022-5-31T3:59:17Z</time></trkpt>
<trkpt lat="43.4932375" lon="6.9058839"><ele></ele><time>2022-5-31T3:59:20Z</time></trkpt>
<trkpt lat="43.4932292" lon="6.9058972"><ele></ele><time>2022-5-31T3:59:23Z</time></trkpt>
<trkpt lat="43.4932305" lon="6.9059061"><ele></ele><time>2022-5-31T3:59:26Z</time></trkpt>
<trkpt lat="43.4932316" lon="6.9059064"><ele></ele><time>2022-5-31T3:59:29Z</time></trkpt>
<trkpt lat="43.4932313" lon="6.9059062"><ele></ele><time>2022-5-31T3:59:32Z</time></trkpt>
<trkpt lat="43.4932313" lon="6.9059068"><ele></ele><time>2022-5-31T3:59:35Z</time></trkpt>
<trkpt lat="43.4932310" lon="6.9059070"><ele></ele><time>2022-5-31T3:59:38Z</time></trkpt>
<trkpt lat="43.4932321" lon="6.9059073"><ele></ele><time>2022-5-31T3:59:41Z</time></trkpt>
<trkpt lat="43.4932316" lon="6.9059063"><ele></ele><time>2022-5-31T3:59:44Z</time></trkpt>
<trkpt lat="43.4932319" lon="6.9059069"><ele></ele><time>2022-5-31T3:59:47Z</time></trkpt>
<trkpt lat="43.4932311" lon="6.9059063"><ele></ele><time>2022-5-31T3:59:50Z</time></trkpt>
<trkpt lat="43.4932316" lon="6.9059055"><ele></ele><time>2022-5-31T3:59:53Z</time></trkpt>
<trkpt lat="43.4932288" lon="6.9059048"><ele></ele><time>2022-5-31T3:59:56Z</time></trkpt>
<trkpt lat="43.4932280" lon="6.9059045"><ele></ele><time>2022-5-31T3:59:59Z</time></trkpt>
<trkpt lat="43.4932286" lon="6.9059050"><ele></ele><time>2022-5-31T4:0:2Z</time></trkpt>
<trkpt lat="43.4932282" lon="6.9059051"><ele></ele><time>2022-5-31T4:0:5Z</time></trkpt>
<trkpt lat="43.4932287" lon="6.9059053"><ele></ele><time>2022-5-31T4:0:8Z</time></trkpt>
<trkpt lat="43.4932320" lon="6.9059062"><ele></ele><time>2022-5-31T4:0:11Z</time></trkpt>
<trkpt lat="43.4932345" lon="6.9059076"><ele></ele><time>2022-5-31T4:0:14Z</time></trkpt>
<trkpt lat="43.4932353" lon="6.9059081"><ele></ele><time>2022-5-31T4:0:17Z</time></trkpt>
<trkpt lat="43.4932377" lon="6.9059097"><ele></ele><time>2022-5-31T4:0:20Z</time></trkpt>
<trkpt lat="43.4932486" lon="6.9059149"><ele></ele><time>2022-5-31T4:0:23Z</time></trkpt>
<trkpt lat="43.4932517" lon="6.9059180"><ele></ele><time>2022-5-31T4:0:26Z</time></trkpt>
<trkpt lat="43.4932561" lon="6.9059198"><ele></ele><time>2022-5-31T4:0:29Z</time></trkpt>
<trkpt lat="43.4932561" lon="6.9059196"><ele></ele><time>2022-5-31T4:0:32Z</time></trkpt>
<trkpt lat="43.4932591" lon="6.9059206"><ele></ele><time>2022-5-31T4:0:35Z</time></trkpt>
<trkpt lat="43.4932603" lon="6.9059208"><ele></ele><time>2022-5-31T4:0:38Z</time></trkpt>
<trkpt lat="43.4932706" lon="6.9059228"><ele></ele><time>2022-5-31T4:0:41Z</time></trkpt>
<trkpt lat="43.4932808" lon="6.9059233"><ele></ele><time>2022-5-31T4:0:44Z</time></trkpt>
<trkpt lat="43.4932823" lon="6.9059233"><ele></ele><time>2022-5-31T4:0:47Z</time></trkpt>
<trkpt lat="43.4932877" lon="6.9059239"><ele></ele><time>2022-5-31T4:0:50Z</time></trkpt>
<trkpt lat="43.4932977" lon="6.9059270"><ele></ele><time>2022-5-31T4:0:53Z</time></trkpt>
<trkpt lat="43.4932977" lon="6.9059269"><ele></ele><time>2022-5-31T4:0:56Z</time></trkpt>
<trkpt lat="43.4932975" lon="6.9059273"><ele></ele><time>2022-5-31T4:0:59Z</time></trkpt>
<trkpt lat="43.4932959" lon="6.9059275"><ele></ele><time>2022-5-31T4:1:2Z</time></trkpt>
<trkpt lat="43.4932968" lon="6.9059270"><ele></ele><time>2022-5-31T4:1:5Z</time></trkpt>
<trkpt lat="43.4932863" lon="6.9059248"><ele></ele><time>2022-5-31T4:1:8Z</time></trkpt>
<trkpt lat="43.4932761" lon="6.9059255"><ele></ele><time>2022-5-31T4:1:11Z</time></trkpt>
<trkpt lat="43.4932607" lon="6.9059278"><ele></ele><time>2022-5-31T4:1:14Z</time></trkpt>
<trkpt lat="43.4932511" lon="6.9059247"><ele></ele><time>2022-5-31T4:1:17Z</time></trkpt>
<trkpt lat="43.4932325" lon="6.9059247"><ele></ele><time>2022-5-31T4:1:20Z</time></trkpt>
<trkpt lat="43.4932237" lon="6.9059266"><ele></ele><time>2022-5-31T4:1:23Z</time></trkpt>
<trkpt lat="43.4932225" lon="6.9059307"><ele></ele><time>2022-5-31T4:1:26Z</time></trkpt>
<trkpt lat="43.4932232" lon="6.9059305"><ele></ele><time>2022-5-31T4:1:29Z</time></trkpt>
<trkpt lat="43.4932171" lon="6.9059270"><ele></ele><time>2022-5-31T4:1:32Z</time></trkpt>
<trkpt lat="43.4932157" lon="6.9059264"><ele></ele><time>2022-5-31T4:1:35Z</time></trkpt>
<trkpt lat="43.4932154" lon="6.9059257"><ele></ele><time>2022-5-31T4:1:38Z</time></trkpt>
<trkpt lat="43.4932146" lon="6.9059256"><ele></ele><time>2022-5-31T4:1:41Z</time></trkpt>
<trkpt lat="43.4932145" lon="6.9059255"><ele></ele><time>2022-5-31T4:1:44Z</time></trkpt>
<trkpt lat="43.4932142" lon="6.9059255"><ele></ele><time>2022-5-31T4:1:47Z</time></trkpt>
<trkpt lat="43.4932143" lon="6.9059254"><ele></ele><time>2022-5-31T4:1:50Z</time></trkpt>
<trkpt lat="43.4932139" lon="6.9059255"><ele></ele><time>2022-5-31T4:1:53Z</time></trkpt>
<trkpt lat="43.4932134" lon="6.9059255"><ele></ele><time>2022-5-31T4:1:56Z</time></trkpt>
<trkpt lat="43.4932134" lon="6.9059255"><ele></ele><time>2022-5-31T4:1:59Z</time></trkpt>
<trkpt lat="43.4932119" lon="6.9059260"><ele></ele><time>2022-5-31T4:2:2Z</time></trkpt>
<trkpt lat="43.4932078" lon="6.9059261"><ele></ele><time>2022-5-31T4:2:5Z</time></trkpt>
<trkpt lat="43.4932026" lon="6.9059272"><ele></ele><time>2022-5-31T4:2:8Z</time></trkpt>
<trkpt lat="43.4931913" lon="6.9059318"><ele></ele><time>2022-5-31T4:2:11Z</time></trkpt>
<trkpt lat="43.4931782" lon="6.9059516"><ele></ele><time>2022-5-31T4:2:14Z</time></trkpt>
<trkpt lat="43.4931772" lon="6.9059684"><ele></ele><time>2022-5-31T4:2:17Z</time></trkpt>
<trkpt lat="43.4931762" lon="6.9059682"><ele></ele><time>2022-5-31T4:2:20Z</time></trkpt>
<trkpt lat="43.4931796" lon="6.9059676"><ele></ele><time>2022-5-31T4:2:23Z</time></trkpt>
<trkpt lat="43.4932079" lon="6.9059631"><ele></ele><time>2022-5-31T4:2:26Z</time></trkpt>
<trkpt lat="43.4932211" lon="6.9059711"><ele></ele><time>2022-5-31T4:2:29Z</time></trkpt>
<trkpt lat="43.4932252" lon="6.9059618"><ele></ele><time>2022-5-31T4:2:32Z</time></trkpt>
<trkpt lat="43.4932295" lon="6.9059591"><ele></ele><time>2022-5-31T4:2:35Z</time></trkpt>
<trkpt lat="43.4932069" lon="6.9059456"><ele></ele><time>2022-5-31T4:2:38Z</time></trkpt>
<trkpt lat="43.4931780" lon="6.9059127"><ele></ele><time>2022-5-31T4:2:41Z</time></trkpt>
<trkpt lat="43.4931441" lon="6.9058901"><ele></ele><time>2022-5-31T4:2:44Z</time></trkpt>
<trkpt lat="43.4931063" lon="6.9058673"><ele></ele><time>2022-5-31T4:2:47Z</time></trkpt>
<trkpt lat="43.4930641" lon="6.9058520"><ele></ele><time>2022-5-31T4:2:50Z</time></trkpt>
<trkpt lat="43.4930302" lon="6.9058295"><ele></ele><time>2022-5-31T4:2:53Z</time></trkpt>
<trkpt lat="43.4929955" lon="6.9057994"><ele></ele><time>2022-5-31T4:2:56Z</time></trkpt>
<trkpt lat="43.4929595" lon="6.9057926"><ele></ele><time>2022-5-31T4:2:59Z</time></trkpt>
<trkpt lat="43.4929347" lon="6.9057834"><ele></ele><time>2022-5-31T4:3:2Z</time></trkpt>
<trkpt lat="43.4929048" lon="6.9057771"><ele></ele><time>2022-5-31T4:3:5Z</time></trkpt>
<trkpt lat="43.4928714" lon="6.9057658"><ele></ele><time>2022-5-31T4:3:8Z</time></trkpt>
<trkpt lat="43.4928377" lon="6.9057556"><ele></ele><time>2022-5-31T4:3:11Z</time></trkpt>
<trkpt lat="43.4928099" lon="6.9057551"><ele></ele><time>2022-5-31T4:3:14Z</time></trkpt>
<trkpt lat="43.4927864" lon="6.9057595"><ele></ele><time>2022-5-31T4:3:17Z</time></trkpt>
<trkpt lat="43.4927676" lon="6.9057616"><ele></ele><time>2022-5-31T4:3:20Z</time></trkpt>
<trkpt lat="43.4927533" lon="6.9057729"><ele></ele><time>2022-5-31T4:3:23Z</time></trkpt>
<trkpt lat="43.4927368" lon="6.9057856"><ele></ele><time>2022-5-31T4:3:26Z</time></trkpt>
<trkpt lat="43.4927228" lon="6.9058049"><ele></ele><time>2022-5-31T4:3:29Z</time></trkpt>
<trkpt lat="43.4927069" lon="6.9058338"><ele></ele><time>2022-5-31T4:3:32Z</time></trkpt>
<trkpt lat="43.4926820" lon="6.9058609"><ele></ele><time>2022-5-31T4:3:35Z</time></trkpt>
<trkpt lat="43.4926494" lon="6.9058870"><ele></ele><time>2022-5-31T4:3:38Z</time></trkpt>
<trkpt lat="43.4926165" lon="6.9059194"><ele></ele><time>2022-5-31T4:3:41Z</time></trkpt>
<trkpt lat="43.4925914" lon="6.9059430"><ele></ele><time>2022-5-31T4:3:44Z</time></trkpt>
<trkpt lat="43.4925626" lon="6.9059671"><ele></ele><time>2022-5-31T4:3:47Z</time></trkpt>
<trkpt lat="43.4925344" lon="6.9059857"><ele></ele><time>2022-5-31T4:3:50Z</time></trkpt>
<trkpt lat="43.4925056" lon="6.9059965"><ele></ele><time>2022-5-31T4:3:53Z</time></trkpt>
<trkpt lat="43.4924861" lon="6.9060055"><ele></ele><time>2022-5-31T4:3:56Z</time></trkpt>
<trkpt lat="43.4924823" lon="6.9060129"><ele></ele><time>2022-5-31T4:3:59Z</time></trkpt>
<trkpt lat="43.4924571" lon="6.9060055"><ele></ele><time>2022-5-31T4:4:2Z</time></trkpt>
<trkpt lat="43.4924312" lon="6.9060076"><ele></ele><time>2022-5-31T4:4:5Z</time></trkpt>
<trkpt lat="43.4924010" lon="6.9060006"><ele></ele><time>2022-5-31T4:4:8Z</time></trkpt>
<trkpt lat="43.4923846" lon="6.9059965"><ele></ele><time>2022-5-31T4:4:11Z</time></trkpt>
<trkpt lat="43.4923612" lon="6.9059937"><ele></ele><time>2022-5-31T4:4:14Z</time></trkpt>
<trkpt lat="43.4923436" lon="6.9059944"><ele></ele><time>2022-5-31T4:4:17Z</time></trkpt>
<trkpt lat="43.4923469" lon="6.9059941"><ele></ele><time>2022-5-31T4:4:20Z</time></trkpt>
<trkpt lat="43.4923352" lon="6.9059942"><ele></ele><time>2022-5-31T4:4:23Z</time></trkpt>
<trkpt lat="43.4923119" lon="6.9059970"><ele></ele><time>2022-5-31T4:4:26Z</time></trkpt>
<trkpt lat="43.4922835" lon="6.9059962"><ele></ele><time>2022-5-31T4:4:29Z</time></trkpt>
<trkpt lat="43.4922545" lon="6.9059997"><ele></ele><time>2022-5-31T4:4:32Z</time></trkpt>
<trkpt lat="43.4922125" lon="6.9059947"><ele></ele><time>2022-5-31T4:4:35Z</time></trkpt>
<trkpt lat="43.4921744" lon="6.9059843"><ele></ele><time>2022-5-31T4:4:38Z</time></trkpt>
<trkpt lat="43.4921433" lon="6.9059663"><ele></ele><time>2022-5-31T4:4:41Z</time></trkpt>
<trkpt lat="43.4921108" lon="6.9059571"><ele></ele><time>2022-5-31T4:4:44Z</time></trkpt>
<trkpt lat="43.4920715" lon="6.9059588"><ele></ele><time>2022-5-31T4:4:47Z</time></trkpt>
<trkpt lat="43.4920372" lon="6.9059827"><ele></ele><time>2022-5-31T4:4:50Z</time></trkpt>
<trkpt lat="43.4919956" lon="6.9060168"><ele></ele><time>2022-5-31T4:4:53Z</time></trkpt>
<trkpt lat="43.4919584" lon="6.9060445"><ele></ele><time>2022-5-31T4:4:56Z</time></trkpt>
<trkpt lat="43.4919165" lon="6.9060764"><ele></ele><time>2022-5-31T4:4:59Z</time></trkpt>
<trkpt lat="43.4918890" lon="6.9061131"><ele></ele><time>2022-5-31T4:5:2Z</time></trkpt>
<trkpt lat="43.4918821" lon="6.9061555"><ele></ele><time>2022-5-31T4:5:5Z</time></trkpt>
<trkpt lat="43.4918757" lon="6.9062050"><ele></ele><time>2022-5-31T4:5:8Z</time></trkpt>
<trkpt lat="43.4918661" lon="6.9062365"><ele></ele><time>2022-5-31T4:5:11Z</time></trkpt>
<trkpt lat="43.4918404" lon="6.9062412"><ele></ele><time>2022-5-31T4:5:14Z</time></trkpt>
<trkpt lat="43.4917981" lon="6.9062367"><ele></ele><time>2022-5-31T4:5:17Z</time></trkpt>
<trkpt lat="43.4917456" lon="6.9062328"><ele></ele><time>2022-5-31T4:5:20Z</time></trkpt>
<trkpt lat="43.4917052" lon="6.9062317"><ele></ele><time>2022-5-31T4:5:23Z</time></trkpt>
<trkpt lat="43.4916804" lon="6.9062244"><ele></ele><time>2022-5-31T4:5:26Z</time></trkpt>
<trkpt lat="43.4916464" lon="6.9061944"><ele></ele><time>2022-5-31T4:5:29Z</time></trkpt>
<trkpt lat="43.4916097" lon="6.9061697"><ele></ele><time>2022-5-31T4:5:32Z</time></trkpt>
<trkpt lat="43.4915717" lon="6.9061545"><ele></ele><time>2022-5-31T4:5:35Z</time></trkpt>
<trkpt lat="43.4915351" lon="6.9061274"><ele></ele><time>2022-5-31T4:5:38Z</time></trkpt>
<trkpt lat="43.4915056" lon="6.9060951"><ele></ele><time>2022-5-31T4:5:41Z</time></trkpt>
<trkpt lat="43.4914651" lon="6.9060742"><ele></ele><time>2022-5-31T4:5:44Z</time></trkpt>
<trkpt lat="43.4914332" lon="6.9060657"><ele></ele><time>2022-5-31T4:5:47Z</time></trkpt>
<trkpt lat="43.4914149" lon="6.9060592"><ele></ele><time>2022-5-31T4:5:50Z</time></trkpt>
<trkpt lat="43.4913911" lon="6.9060686"><ele></ele><time>2022-5-31T4:5:53Z</time></trkpt>
<trkpt lat="43.4913627" lon="6.9061009"><ele></ele><time>2022-5-31T4:5:56Z</time></trkpt>
<trkpt lat="43.4913176" lon="6.9061160"><ele></ele><time>2022-5-31T4:5:59Z</time></trkpt>
<trkpt lat="43.4912844" lon="6.9061059"><ele></ele><time>2022-5-31T4:6:2Z</time></trkpt>
<trkpt lat="43.4912692" lon="6.9060817"><ele></ele><time>2022-5-31T4:6:5Z</time></trkpt>
<trkpt lat="43.4912633" lon="6.9060573"><ele></ele><time>2022-5-31T4:6:8Z</time></trkpt>
<trkpt lat="43.4912631" lon="6.9060250"><ele></ele><time>2022-5-31T4:6:11Z</time></trkpt>
<trkpt lat="43.4912649" lon="6.9059972"><ele></ele><time>2022-5-31T4:6:14Z</time></trkpt>
<trkpt lat="43.4912805" lon="6.9059722"><ele></ele><time>2022-5-31T4:6:17Z</time></trkpt>
<trkpt lat="43.4912984" lon="6.9059408"><ele></ele><time>2022-5-31T4:6:20Z</time></trkpt>
<trkpt lat="43.4913190" lon="6.9059070"><ele></ele><time>2022-5-31T4:6:23Z</time></trkpt>
<trkpt lat="43.4913430" lon="6.9058775"><ele></ele><time>2022-5-31T4:6:26Z</time></trkpt>
<trkpt lat="43.4913794" lon="6.9058699"><ele></ele><time>2022-5-31T4:6:29Z</time></trkpt>
<trkpt lat="43.4914072" lon="6.9058694"><ele></ele><time>2022-5-31T4:6:32Z</time></trkpt>
<trkpt lat="43.4914437" lon="6.9058718"><ele></ele><time>2022-5-31T4:6:35Z</time></trkpt>
<trkpt lat="43.4914778" lon="6.9058615"><ele></ele><time>2022-5-31T4:6:38Z</time></trkpt>
<trkpt lat="43.4914994" lon="6.9058397"><ele></ele><time>2022-5-31T4:6:41Z</time></trkpt>
<trkpt lat="43.4915079" lon="6.9058141"><ele></ele><time>2022-5-31T4:6:44Z</time></trkpt>
<trkpt lat="43.4915203" lon="6.9058141"><ele></ele><time>2022-5-31T4:6:47Z</time></trkpt>
<trkpt lat="43.4915497" lon="6.9058263"><ele></ele><time>2022-5-31T4:6:50Z</time></trkpt>
<trkpt lat="43.4915330" lon="6.9058388"><ele></ele><time>2022-5-31T4:6:53Z</time></trkpt>
<trkpt lat="43.4915120" lon="6.9058699"><ele></ele><time>2022-5-31T4:6:56Z</time></trkpt>
<trkpt lat="43.4915202" lon="6.9058304"><ele></ele><time>2022-5-31T4:6:59Z</time></trkpt>
<trkpt lat="43.4914774" lon="6.9058082"><ele></ele><time>2022-5-31T4:7:2Z</time></trkpt>
<trkpt lat="43.4914778" lon="6.9058064"><ele></ele><time>2022-5-31T4:7:5Z</time></trkpt>
<trkpt lat="43.4914788" lon="6.9058036"><ele></ele><time>2022-5-31T4:7:8Z</time></trkpt>
<trkpt lat="43.4914786" lon="6.9057828"><ele></ele><time>2022-5-31T4:7:11Z</time></trkpt>
<trkpt lat="43.4914762" lon="6.9057474"><ele></ele><time>2022-5-31T4:7:14Z</time></trkpt>
<trkpt lat="43.4914628" lon="6.9057185"><ele></ele><time>2022-5-31T4:7:17Z</time></trkpt>
<trkpt lat="43.4914411" lon="6.9056933"><ele></ele><time>2022-5-31T4:7:20Z</time></trkpt>
<trkpt lat="43.4914136" lon="6.9056861"><ele></ele><time>2022-5-31T4:7:23Z</time></trkpt>
<trkpt lat="43.4913775" lon="6.9056650"><ele></ele><time>2022-5-31T4:7:26Z</time></trkpt>
<trkpt lat="43.4913346" lon="6.9056398"><ele></ele><time>2022-5-31T4:7:29Z</time></trkpt>
<trkpt lat="43.4912799" lon="6.9056409"><ele></ele><time>2022-5-31T4:7:32Z</time></trkpt>
<trkpt lat="43.4912377" lon="6.9056467"><ele></ele><time>2022-5-31T4:7:35Z</time></trkpt>
<trkpt lat="43.4911791" lon="6.9056585"><ele></ele><time>2022-5-31T4:7:38Z</time></trkpt>
<trkpt lat="43.4911148" lon="6.9056574"><ele></ele><time>2022-5-31T4:7:41Z</time></trkpt>
<trkpt lat="43.4910744" lon="6.9056688"><ele></ele><time>2022-5-31T4:7:44Z</time></trkpt>
<trkpt lat="43.4910444" lon="6.9056487"><ele></ele><time>2022-5-31T4:7:47Z</time></trkpt>
<trkpt lat="43.4910456" lon="6.9056072"><ele></ele><time>2022-5-31T4:7:50Z</time></trkpt>
<trkpt lat="43.4910914" lon="6.9055808"><ele></ele><time>2022-5-31T4:7:53Z</time></trkpt>
<trkpt lat="43.4911379" lon="6.9055940"><ele></ele><time>2022-5-31T4:7:56Z</time></trkpt>
<trkpt lat="43.4911906" lon="6.9055790"><ele></ele><time>2022-5-31T4:7:59Z</time></trkpt>
<trkpt lat="43.4912481" lon="6.9055434"><ele></ele><time>2022-5-31T4:8:2Z</time></trkpt>
<trkpt lat="43.4913023" lon="6.9055239"><ele></ele><time>2022-5-31T4:8:5Z</time></trkpt>
<trkpt lat="43.4913491" lon="6.9055043"><ele></ele><time>2022-5-31T4:8:8Z</time></trkpt>
<trkpt lat="43.4914000" lon="6.9054937"><ele></ele><time>2022-5-31T4:8:11Z</time></trkpt>
<trkpt lat="43.4914439" lon="6.9054830"><ele></ele><time>2022-5-31T4:8:14Z</time></trkpt>
<trkpt lat="43.4914786" lon="6.9054722"><ele></ele><time>2022-5-31T4:8:17Z</time></trkpt>
<trkpt lat="43.4914862" lon="6.9054431"><ele></ele><time>2022-5-31T4:8:20Z</time></trkpt>
<trkpt lat="43.4914683" lon="6.9054154"><ele></ele><time>2022-5-31T4:8:23Z</time></trkpt>
<trkpt lat="43.4914407" lon="6.9054167"><ele></ele><time>2022-5-31T4:8:26Z</time></trkpt>
<trkpt lat="43.4914103" lon="6.9054461"><ele></ele><time>2022-5-31T4:8:29Z</time></trkpt>
<trkpt lat="43.4913531" lon="6.9054347"><ele></ele><time>2022-5-31T4:8:32Z</time></trkpt>
<trkpt lat="43.4913092" lon="6.9054083"><ele></ele><time>2022-5-31T4:8:35Z</time></trkpt>
<trkpt lat="43.4912827" lon="6.9053594"><ele></ele><time>2022-5-31T4:8:38Z</time></trkpt>
<trkpt lat="43.4912415" lon="6.9053521"><ele></ele><time>2022-5-31T4:8:41Z</time></trkpt>
<trkpt lat="43.4912189" lon="6.9053569"><ele></ele><time>2022-5-31T4:8:44Z</time></trkpt>
<trkpt lat="43.4912038" lon="6.9053587"><ele></ele><time>2022-5-31T4:8:47Z</time></trkpt>
<trkpt lat="43.4911979" lon="6.9053526"><ele></ele><time>2022-5-31T4:8:50Z</time></trkpt>
<trkpt lat="43.4912046" lon="6.9053517"><ele></ele><time>2022-5-31T4:8:53Z</time></trkpt>
<trkpt lat="43.4912008" lon="6.9053528"><ele></ele><time>2022-5-31T4:8:56Z</time></trkpt>
<trkpt lat="43.4912009" lon="6.9053526"><ele></ele><time>2022-5-31T4:8:59Z</time></trkpt>
<trkpt lat="43.4912008" lon="6.9053527"><ele></ele><time>2022-5-31T4:9:2Z</time></trkpt>
<trkpt lat="43.4912006" lon="6.9053527"><ele></ele><time>2022-5-31T4:9:5Z</time></trkpt>
<trkpt lat="43.4912011" lon="6.9053530"><ele></ele><time>2022-5-31T4:9:8Z</time></trkpt>
<trkpt lat="43.4912016" lon="6.9053530"><ele></ele><time>2022-5-31T4:9:11Z</time></trkpt>
<trkpt lat="43.4912030" lon="6.9053526"><ele></ele><time>2022-5-31T4:9:14Z</time></trkpt>
<trkpt lat="43.4912056" lon="6.9053553"><ele></ele><time>2022-5-31T4:9:17Z</time></trkpt>
<trkpt lat="43.4912087" lon="6.9053517"><ele></ele><time>2022-5-31T4:9:20Z</time></trkpt>
<trkpt lat="43.4911921" lon="6.9053478"><ele></ele><time>2022-5-31T4:9:23Z</time></trkpt>
<trkpt lat="43.4911706" lon="6.9053348"><ele></ele><time>2022-5-31T4:9:26Z</time></trkpt>
<trkpt lat="43.4911372" lon="6.9053087"><ele></ele><time>2022-5-31T4:9:29Z</time></trkpt>
<trkpt lat="43.4911005" lon="6.9052876"><ele></ele><time>2022-5-31T4:9:32Z</time></trkpt>
<trkpt lat="43.4910609" lon="6.9052528"><ele></ele><time>2022-5-31T4:9:35Z</time></trkpt>
<trkpt lat="43.4910202" lon="6.9052234"><ele></ele><time>2022-5-31T4:9:38Z</time></trkpt>
<trkpt lat="43.4909794" lon="6.9052025"><ele></ele><time>2022-5-31T4:9:41Z</time></trkpt>
<trkpt lat="43.4909268" lon="6.9051874"><ele></ele><time>2022-5-31T4:9:44Z</time></trkpt>
<trkpt lat="43.4908933" lon="6.9051651"><ele></ele><time>2022-5-31T4:9:47Z</time></trkpt>
<trkpt lat="43.4908485" lon="6.9051420"><ele></ele><time>2022-5-31T4:9:50Z</time></trkpt>
<trkpt lat="43.4908088" lon="6.9051116"><ele></ele><time>2022-5-31T4:9:53Z</time></trkpt>
<trkpt lat="43.4907559" lon="6.9050816"><ele></ele><time>2022-5-31T4:9:56Z</time></trkpt>
<trkpt lat="43.4907253" lon="6.9050498"><ele></ele><time>2022-5-31T4:9:59Z</time></trkpt>
<trkpt lat="43.4906907" lon="6.9050179"><ele></ele><time>2022-5-31T4:10:2Z</time></trkpt>
<trkpt lat="43.4906559" lon="6.9049934"><ele></ele><time>2022-5-31T4:10:5Z</time></trkpt>
<trkpt lat="43.4906198" lon="6.9049822"><ele></ele><time>2022-5-31T4:10:8Z</time></trkpt>
<trkpt lat="43.4905871" lon="6.9049746"><ele></ele><time>2022-5-31T4:10:11Z</time></trkpt>
<trkpt lat="43.4905643" lon="6.9049676"><ele></ele><time>2022-5-31T4:10:14Z</time></trkpt>
<trkpt lat="43.4905432" lon="6.9049746"><ele></ele><time>2022-5-31T4:10:17Z</time></trkpt>
<trkpt lat="43.4905157" lon="6.9049755"><ele></ele><time>2022-5-31T4:10:20Z</time></trkpt>
<trkpt lat="43.4904872" lon="6.9049556"><ele></ele><time>2022-5-31T4:10:23Z</time></trkpt>
<trkpt lat="43.4904512" lon="6.9049260"><ele></ele><time>2022-5-31T4:10:26Z</time></trkpt>
<trkpt lat="43.4904110" lon="6.9049030"><ele></ele><time>2022-5-31T4:10:29Z</time></trkpt>
<trkpt lat="43.4903727" lon="6.9048798"><ele></ele><time>2022-5-31T4:10:32Z</time></trkpt>
<trkpt lat="43.4903490" lon="6.9048408"><ele></ele><time>2022-5-31T4:10:35Z</time></trkpt>
<trkpt lat="43.4903315" lon="6.9048002"><ele></ele><time>2022-5-31T4:10:38Z</time></trkpt>
<trkpt lat="43.4903215" lon="6.9047685"><ele></ele><time>2022-5-31T4:10:41Z</time></trkpt>
<trkpt lat="43.4903151" lon="6.9047531"><ele></ele><time>2022-5-31T4:10:44Z</time></trkpt>
<trkpt lat="43.4903199" lon="6.9047571"><ele></ele><time>2022-5-31T4:10:47Z</time></trkpt>
<trkpt lat="43.4903253" lon="6.9047645"><ele></ele><time>2022-5-31T4:10:50Z</time></trkpt>
<trkpt lat="43.4903295" lon="6.9047653"><ele></ele><time>2022-5-31T4:10:53Z</time></trkpt>
<trkpt lat="43.4903279" lon="6.9047626"><ele></ele><time>2022-5-31T4:10:56Z</time></trkpt>
<trkpt lat="43.4903271" lon="6.9047620"><ele></ele><time>2022-5-31T4:10:59Z</time></trkpt>
<trkpt lat="43.4903244" lon="6.9047555"><ele></ele><time>2022-5-31T4:11:2Z</time></trkpt>
<trkpt lat="43.4903190" lon="6.9047463"><ele></ele><time>2022-5-31T4:11:5Z</time></trkpt>
<trkpt lat="43.4903122" lon="6.9047313"><ele></ele><time>2022-5-31T4:11:8Z</time></trkpt>
<trkpt lat="43.4903037" lon="6.9047110"><ele></ele><time>2022-5-31T4:11:11Z</time></trkpt>
<trkpt lat="43.4902980" lon="6.9046854"><ele></ele><time>2022-5-31T4:11:14Z</time></trkpt>
<trkpt lat="43.4902895" lon="6.9046603"><ele></ele><time>2022-5-31T4:11:17Z</time></trkpt>
<trkpt lat="43.4902813" lon="6.9046485"><ele></ele><time>2022-5-31T4:11:20Z</time></trkpt>
<trkpt lat="43.4902718" lon="6.9046442"><ele></ele><time>2022-5-31T4:11:23Z</time></trkpt>
<trkpt lat="43.4902704" lon="6.9046429"><ele></ele><time>2022-5-31T4:11:26Z</time></trkpt>
<trkpt lat="43.4902698" lon="6.9046415"><ele></ele><time>2022-5-31T4:11:29Z</time></trkpt>
<trkpt lat="43.4902635" lon="6.9046315"><ele></ele><time>2022-5-31T4:11:32Z</time></trkpt>
<trkpt lat="43.4902590" lon="6.9046211"><ele></ele><time>2022-5-31T4:11:35Z</time></trkpt>
<trkpt lat="43.4902516" lon="6.9046189"><ele></ele><time>2022-5-31T4:11:38Z</time></trkpt>
<trkpt lat="43.4902516" lon="6.9046209"><ele></ele><time>2022-5-31T4:11:41Z</time></trkpt>
<trkpt lat="43.4902650" lon="6.9046247"><ele></ele><time>2022-5-31T4:11:44Z</time></trkpt>
<trkpt lat="43.4902631" lon="6.9046097"><ele></ele><time>2022-5-31T4:11:47Z</time></trkpt>
<trkpt lat="43.4902562" lon="6.9046135"><ele></ele><time>2022-5-31T4:11:50Z</time></trkpt>
<trkpt lat="43.4902528" lon="6.9046173"><ele></ele><time>2022-5-31T4:11:53Z</time></trkpt>
<trkpt lat="43.4902506" lon="6.9046224"><ele></ele><time>2022-5-31T4:11:56Z</time></trkpt>
<trkpt lat="43.4902470" lon="6.9046260"><ele></ele><time>2022-5-31T4:11:59Z</time></trkpt>
<trkpt lat="43.4902470" lon="6.9046318"><ele></ele><time>2022-5-31T4:12:2Z</time></trkpt>
<trkpt lat="43.4902457" lon="6.9046318"><ele></ele><time>2022-5-31T4:12:5Z</time></trkpt>
<trkpt lat="43.4902519" lon="6.9046365"><ele></ele><time>2022-5-31T4:12:8Z</time></trkpt>
<trkpt lat="43.4902537" lon="6.9046412"><ele></ele><time>2022-5-31T4:12:11Z</time></trkpt>
<trkpt lat="43.4902520" lon="6.9046452"><ele></ele><time>2022-5-31T4:12:14Z</time></trkpt>
<trkpt lat="43.4902514" lon="6.9046454"><ele></ele><time>2022-5-31T4:12:17Z</time></trkpt>
<trkpt lat="43.4902501" lon="6.9046470"><ele></ele><time>2022-5-31T4:12:20Z</time></trkpt>
<trkpt lat="43.4902573" lon="6.9046475"><ele></ele><time>2022-5-31T4:12:23Z</time></trkpt>
<trkpt lat="43.4902597" lon="6.9046442"><ele></ele><time>2022-5-31T4:12:26Z</time></trkpt>
<trkpt lat="43.4902506" lon="6.9046425"><ele></ele><time>2022-5-31T4:12:29Z</time></trkpt>
<trkpt lat="43.4902429" lon="6.9046403"><ele></ele><time>2022-5-31T4:12:32Z</time></trkpt>
<trkpt lat="43.4902426" lon="6.9046406"><ele></ele><time>2022-5-31T4:12:35Z</time></trkpt>
<trkpt lat="43.4902286" lon="6.9046379"><ele></ele><time>2022-5-31T4:12:38Z</time></trkpt>
<trkpt lat="43.4902260" lon="6.9046349"><ele></ele><time>2022-5-31T4:12:41Z</time></trkpt>
<trkpt lat="43.4902109" lon="6.9046379"><ele></ele><time>2022-5-31T4:12:44Z</time></trkpt>
<trkpt lat="43.4902116" lon="6.9046382"><ele></ele><time>2022-5-31T4:12:47Z</time></trkpt>
<trkpt lat="43.4902108" lon="6.9046388"><ele></ele><time>2022-5-31T4:12:50Z</time></trkpt>
<trkpt lat="43.4902165" lon="6.9046450"><ele></ele><time>2022-5-31T4:12:53Z</time></trkpt>
<trkpt lat="43.4902177" lon="6.9046495"><ele></ele><time>2022-5-31T4:12:56Z</time></trkpt>
<trkpt lat="43.4902206" lon="6.9046534"><ele></ele><time>2022-5-31T4:12:59Z</time></trkpt>
<trkpt lat="43.4902211" lon="6.9046537"><ele></ele><time>2022-5-31T4:13:2Z</time></trkpt>
<trkpt lat="43.4902218" lon="6.9046539"><ele></ele><time>2022-5-31T4:13:5Z</time></trkpt>
<trkpt lat="43.4902224" lon="6.9046538"><ele></ele><time>2022-5-31T4:13:8Z</time></trkpt>
<trkpt lat="43.4902222" lon="6.9046539"><ele></ele><time>2022-5-31T4:13:11Z</time></trkpt>
<trkpt lat="43.4902229" lon="6.9046541"><ele></ele><time>2022-5-31T4:13:14Z</time></trkpt>
<trkpt lat="43.4902236" lon="6.9046540"><ele></ele><time>2022-5-31T4:13:17Z</time></trkpt>
<trkpt lat="43.4902080" lon="6.9046520"><ele></ele><time>2022-5-31T4:13:20Z</time></trkpt>
<trkpt lat="43.4901895" lon="6.9046527"><ele></ele><time>2022-5-31T4:13:23Z</time></trkpt>
<trkpt lat="43.4901819" lon="6.9046521"><ele></ele><time>2022-5-31T4:13:26Z</time></trkpt>
<trkpt lat="43.4901804" lon="6.9046523"><ele></ele><time>2022-5-31T4:13:29Z</time></trkpt>
<trkpt lat="43.4901855" lon="6.9046544"><ele></ele><time>2022-5-31T4:13:32Z</time></trkpt>
<trkpt lat="43.4901928" lon="6.9046565"><ele></ele><time>2022-5-31T4:13:35Z</time></trkpt>
<trkpt lat="43.4901780" lon="6.9046544"><ele></ele><time>2022-5-31T4:13:38Z</time></trkpt>
<trkpt lat="43.4901914" lon="6.9046586"><ele></ele><time>2022-5-31T4:13:41Z</time></trkpt>
<trkpt lat="43.4901936" lon="6.9046588"><ele></ele><time>2022-5-31T4:13:44Z</time></trkpt>
<trkpt lat="43.4901964" lon="6.9046590"><ele></ele><time>2022-5-31T4:13:47Z</time></trkpt>
<trkpt lat="43.4901973" lon="6.9046598"><ele></ele><time>2022-5-31T4:13:50Z</time></trkpt>
<trkpt lat="43.4901980" lon="6.9046597"><ele></ele><time>2022-5-31T4:13:53Z</time></trkpt>
<trkpt lat="43.4901948" lon="6.9046608"><ele></ele><time>2022-5-31T4:13:56Z</time></trkpt>
<trkpt lat="43.4901927" lon="6.9046623"><ele></ele><time>2022-5-31T4:13:59Z</time></trkpt>
<trkpt lat="43.4901916" lon="6.9046645"><ele></ele><time>2022-5-31T4:14:2Z</time></trkpt>
<trkpt lat="43.4901970" lon="6.9046611"><ele></ele><time>2022-5-31T4:14:5Z</time></trkpt>
<trkpt lat="43.4902006" lon="6.9046625"><ele></ele><time>2022-5-31T4:14:8Z</time></trkpt>
<trkpt lat="43.4901982" lon="6.9046654"><ele></ele><time>2022-5-31T4:14:11Z</time></trkpt>
<trkpt lat="43.4901811" lon="6.9046649"><ele></ele><time>2022-5-31T4:14:14Z</time></trkpt>
<trkpt lat="43.4901657" lon="6.9046605"><ele></ele><time>2022-5-31T4:14:17Z</time></trkpt>
<trkpt lat="43.4901571" lon="6.9046516"><ele></ele><time>2022-5-31T4:14:20Z</time></trkpt>
<trkpt lat="43.4901555" lon="6.9046452"><ele></ele><time>2022-5-31T4:14:23Z</time></trkpt>
<trkpt lat="43.4901457" lon="6.9046322"><ele></ele><time>2022-5-31T4:14:26Z</time></trkpt>
<trkpt lat="43.4901340" lon="6.9046196"><ele></ele><time>2022-5-31T4:14:29Z</time></trkpt>
<trkpt lat="43.4901278" lon="6.9046036"><ele></ele><time>2022-5-31T4:14:32Z</time></trkpt>
<trkpt lat="43.4901110" lon="6.9045865"><ele></ele><time>2022-5-31T4:14:35Z</time></trkpt>
<trkpt lat="43.4900872" lon="6.9045738"><ele></ele><time>2022-5-31T4:14:38Z</time></trkpt>
<trkpt lat="43.4900626" lon="6.9045477"><ele></ele><time>2022-5-31T4:14:41Z</time></trkpt>
<trkpt lat="43.4900403" lon="6.9045171"><ele></ele><time>2022-5-31T4:14:44Z</time></trkpt>
<trkpt lat="43.4900200" lon="6.9044859"><ele></ele><time>2022-5-31T4:14:47Z</time></trkpt>
<trkpt lat="43.4899999" lon="6.9044573"><ele></ele><time>2022-5-31T4:14:50Z</time></trkpt>
<trkpt lat="43.4899556" lon="6.9044287"><ele></ele><time>2022-5-31T4:14:53Z</time></trkpt>
<trkpt lat="43.4899256" lon="6.9044064"><ele></ele><time>2022-5-31T4:14:56Z</time></trkpt>
<trkpt lat="43.4899070" lon="6.9043730"><ele></ele><time>2022-5-31T4:14:59Z</time></trkpt>
<trkpt lat="43.4898775" lon="6.9043406"><ele></ele><time>2022-5-31T4:15:2Z</time></trkpt>
<trkpt lat="43.4898533" lon="6.9043258"><ele></ele><time>2022-5-31T4:15:5Z</time></trkpt>
<trkpt lat="43.4898410" lon="6.9043115"><ele></ele><time>2022-5-31T4:15:8Z</time></trkpt>
<trkpt lat="43.4898149" lon="6.9043011"><ele></ele><time>2022-5-31T4:15:11Z</time></trkpt>
<trkpt lat="43.4897804" lon="6.9043044"><ele></ele><time>2022-5-31T4:15:14Z</time></trkpt>
<trkpt lat="43.4897833" lon="6.9042975"><ele></ele><time>2022-5-31T4:15:17Z</time></trkpt>
<trkpt lat="43.4897824" lon="6.9043002"><ele></ele><time>2022-5-31T4:15:20Z</time></trkpt>
<trkpt lat="43.4897717" lon="6.9042925"><ele></ele><time>2022-5-31T4:15:23Z</time></trkpt>
<trkpt lat="43.4897419" lon="6.9042845"><ele></ele><time>2022-5-31T4:15:26Z</time></trkpt>
<trkpt lat="43.4897023" lon="6.9042884"><ele></ele><time>2022-5-31T4:15:29Z</time></trkpt>
<trkpt lat="43.4896618" lon="6.9042895"><ele></ele><time>2022-5-31T4:15:32Z</time></trkpt>
<trkpt lat="43.4896146" lon="6.9042869"><ele></ele><time>2022-5-31T4:15:35Z</time></trkpt>
<trkpt lat="43.4895789" lon="6.9042958"><ele></ele><time>2022-5-31T4:15:38Z</time></trkpt>
<trkpt lat="43.4895615" lon="6.9042942"><ele></ele><time>2022-5-31T4:15:41Z</time></trkpt>
<trkpt lat="43.4895339" lon="6.9043032"><ele></ele><time>2022-5-31T4:15:44Z</time></trkpt>
<trkpt lat="43.4895143" lon="6.9043084"><ele></ele><time>2022-5-31T4:15:47Z</time></trkpt>
<trkpt lat="43.4894984" lon="6.9043179"><ele></ele><time>2022-5-31T4:15:50Z</time></trkpt>
<trkpt lat="43.4894765" lon="6.9043321"><ele></ele><time>2022-5-31T4:15:53Z</time></trkpt>
<trkpt lat="43.4894571" lon="6.9043353"><ele></ele><time>2022-5-31T4:15:56Z</time></trkpt>
<trkpt lat="43.4894499" lon="6.9043302"><ele></ele><time>2022-5-31T4:15:59Z</time></trkpt>
<trkpt lat="43.4894432" lon="6.9043287"><ele></ele><time>2022-5-31T4:16:2Z</time></trkpt>
<trkpt lat="43.4894332" lon="6.9043267"><ele></ele><time>2022-5-31T4:16:5Z</time></trkpt>
<trkpt lat="43.4894325" lon="6.9043244"><ele></ele><time>2022-5-31T4:16:8Z</time></trkpt>
<trkpt lat="43.4894264" lon="6.9043243"><ele></ele><time>2022-5-31T4:16:11Z</time></trkpt>
<trkpt lat="43.4894292" lon="6.9043229"><ele></ele><time>2022-5-31T4:16:14Z</time></trkpt>
<trkpt lat="43.4894297" lon="6.9043225"><ele></ele><time>2022-5-31T4:16:17Z</time></trkpt>
<trkpt lat="43.4894290" lon="6.9043190"><ele></ele><time>2022-5-31T4:16:20Z</time></trkpt>
<trkpt lat="43.4894250" lon="6.9043128"><ele></ele><time>2022-5-31T4:16:23Z</time></trkpt>
<trkpt lat="43.4894202" lon="6.9043089"><ele></ele><time>2022-5-31T4:16:26Z</time></trkpt>
<trkpt lat="43.4894126" lon="6.9043080"><ele></ele><time>2022-5-31T4:16:29Z</time></trkpt>
<trkpt lat="43.4894092" lon="6.9043004"><ele></ele><time>2022-5-31T4:16:32Z</time></trkpt>
<trkpt lat="43.4894096" lon="6.9042951"><ele></ele><time>2022-5-31T4:16:35Z</time></trkpt>
<trkpt lat="43.4894081" lon="6.9042950"><ele></ele><time>2022-5-31T4:16:38Z</time></trkpt>
<trkpt lat="43.4894010" lon="6.9042909"><ele></ele><time>2022-5-31T4:16:41Z</time></trkpt>
<trkpt lat="43.4893894" lon="6.9042908"><ele></ele><time>2022-5-31T4:16:44Z</time></trkpt>
<trkpt lat="43.4893706" lon="6.9042896"><ele></ele><time>2022-5-31T4:16:47Z</time></trkpt>
<trkpt lat="43.4893492" lon="6.9042797"><ele></ele><time>2022-5-31T4:16:50Z</time></trkpt>
<trkpt lat="43.4893334" lon="6.9042694"><ele></ele><time>2022-5-31T4:16:53Z</time></trkpt>
<trkpt lat="43.4893265" lon="6.9042660"><ele></ele><time>2022-5-31T4:16:56Z</time></trkpt>
<trkpt lat="43.4893118" lon="6.9042663"><ele></ele><time>2022-5-31T4:16:59Z</time></trkpt>
<trkpt lat="43.4892979" lon="6.9042640"><ele></ele><time>2022-5-31T4:17:2Z</time></trkpt>
<trkpt lat="43.4892848" lon="6.9042625"><ele></ele><time>2022-5-31T4:17:5Z</time></trkpt>
<trkpt lat="43.4892749" lon="6.9042603"><ele></ele><time>2022-5-31T4:17:8Z</time></trkpt>
<trkpt lat="43.4892682" lon="6.9042636"><ele></ele><time>2022-5-31T4:17:11Z</time></trkpt>
<trkpt lat="43.4892481" lon="6.9042808"><ele></ele><time>2022-5-31T4:17:14Z</time></trkpt>
<trkpt lat="43.4892178" lon="6.9042805"><ele></ele><time>2022-5-31T4:17:17Z</time></trkpt>
<trkpt lat="43.4892083" lon="6.9042783"><ele></ele><time>2022-5-31T4:17:20Z</time></trkpt>
<trkpt lat="43.4892032" lon="6.9042753"><ele></ele><time>2022-5-31T4:17:23Z</time></trkpt>
<trkpt lat="43.4891896" lon="6.9042856"><ele></ele><time>2022-5-31T4:17:26Z</time></trkpt>
<trkpt lat="43.4891716" lon="6.9043016"><ele></ele><time>2022-5-31T4:17:29Z</time></trkpt>
<trkpt lat="43.4891594" lon="6.9043049"><ele></ele><time>2022-5-31T4:17:32Z</time></trkpt>
<trkpt lat="43.4891786" lon="6.9042911"><ele></ele><time>2022-5-31T4:17:35Z</time></trkpt>
<trkpt lat="43.4891883" lon="6.9042902"><ele></ele><time>2022-5-31T4:17:38Z</time></trkpt>
<trkpt lat="43.4891707" lon="6.9043025"><ele></ele><time>2022-5-31T4:17:41Z</time></trkpt>
<trkpt lat="43.4891526" lon="6.9043115"><ele></ele><time>2022-5-31T4:17:44Z</time></trkpt>
<trkpt lat="43.4891393" lon="6.9043135"><ele></ele><time>2022-5-31T4:17:47Z</time></trkpt>
<trkpt lat="43.4891378" lon="6.9043097"><ele></ele><time>2022-5-31T4:17:50Z</time></trkpt>
<trkpt lat="43.4891320" lon="6.9043052"><ele></ele><time>2022-5-31T4:17:53Z</time></trkpt>
<trkpt lat="43.4891225" lon="6.9043045"><ele></ele><time>2022-5-31T4:17:56Z</time></trkpt>
<trkpt lat="43.4891161" lon="6.9043020"><ele></ele><time>2022-5-31T4:17:59Z</time></trkpt>
<trkpt lat="43.4891077" lon="6.9043061"><ele></ele><time>2022-5-31T4:18:2Z</time></trkpt>
<trkpt lat="43.4891044" lon="6.9042966"><ele></ele><time>2022-5-31T4:18:5Z</time></trkpt>
<trkpt lat="43.4890964" lon="6.9042997"><ele></ele><time>2022-5-31T4:18:8Z</time></trkpt>
<trkpt lat="43.4890833" lon="6.9042922"><ele></ele><time>2022-5-31T4:18:11Z</time></trkpt>
<trkpt lat="43.4890712" lon="6.9042750"><ele></ele><time>2022-5-31T4:18:14Z</time></trkpt>
<trkpt lat="43.4890536" lon="6.9042836"><ele></ele><time>2022-5-31T4:18:17Z</time></trkpt>
<trkpt lat="43.4890882" lon="6.9042612"><ele></ele><time>2022-5-31T4:18:20Z</time></trkpt>
<trkpt lat="43.4890574" lon="6.9042693"><ele></ele><time>2022-5-31T4:18:23Z</time></trkpt>
<trkpt lat="43.4890475" lon="6.9042594"><ele></ele><time>2022-5-31T4:18:26Z</time></trkpt>
<trkpt lat="43.4890317" lon="6.9042615"><ele></ele><time>2022-5-31T4:18:29Z</time></trkpt>
<trkpt lat="43.4890158" lon="6.9042819"><ele></ele><time>2022-5-31T4:18:32Z</time></trkpt>
<trkpt lat="43.4890063" lon="6.9042829"><ele></ele><time>2022-5-31T4:18:35Z</time></trkpt>
<trkpt lat="43.4890018" lon="6.9042791"><ele></ele><time>2022-5-31T4:18:38Z</time></trkpt>
<trkpt lat="43.4890020" lon="6.9042778"><ele></ele><time>2022-5-31T4:18:41Z</time></trkpt>
<trkpt lat="43.4890031" lon="6.9042781"><ele></ele><time>2022-5-31T4:18:44Z</time></trkpt>
<trkpt lat="43.4889991" lon="6.9042798"><ele></ele><time>2022-5-31T4:18:47Z</time></trkpt>
<trkpt lat="43.4889954" lon="6.9042796"><ele></ele><time>2022-5-31T4:18:50Z</time></trkpt>
<trkpt lat="43.4890094" lon="6.9042774"><ele></ele><time>2022-5-31T4:18:53Z</time></trkpt>
<trkpt lat="43.4890074" lon="6.9042793"><ele></ele><time>2022-5-31T4:18:56Z</time></trkpt>
<trkpt lat="43.4889903" lon="6.9042846"><ele></ele><time>2022-5-31T4:18:59Z</time></trkpt>
<trkpt lat="43.4889735" lon="6.9042783"><ele></ele><time>2022-5-31T4:19:2Z</time></trkpt>
<trkpt lat="43.4889607" lon="6.9042711"><ele></ele><time>2022-5-31T4:19:5Z</time></trkpt>
<trkpt lat="43.4889494" lon="6.9042765"><ele></ele><time>2022-5-31T4:19:8Z</time></trkpt>
<trkpt lat="43.4889293" lon="6.9042938"><ele></ele><time>2022-5-31T4:19:11Z</time></trkpt>
<trkpt lat="43.4889126" lon="6.9042935"><ele></ele><time>2022-5-31T4:19:14Z</time></trkpt>
<trkpt lat="43.4888804" lon="6.9042807"><ele></ele><time>2022-5-31T4:19:17Z</time></trkpt>
<trkpt lat="43.4888611" lon="6.9042635"><ele></ele><time>2022-5-31T4:19:20Z</time></trkpt>
<trkpt lat="43.4888355" lon="6.9042511"><ele></ele><time>2022-5-31T4:19:23Z</time></trkpt>
<trkpt lat="43.4887972" lon="6.9042373"><ele></ele><time>2022-5-31T4:19:26Z</time></trkpt>
<trkpt lat="43.4887517" lon="6.9042279"><ele></ele><time>2022-5-31T4:19:29Z</time></trkpt>
<trkpt lat="43.4887199" lon="6.9042157"><ele></ele><time>2022-5-31T4:19:32Z</time></trkpt>
<trkpt lat="43.4886973" lon="6.9042026"><ele></ele><time>2022-5-31T4:19:35Z</time></trkpt>
<trkpt lat="43.4886701" lon="6.9041843"><ele></ele><time>2022-5-31T4:19:38Z</time></trkpt>
<trkpt lat="43.4886311" lon="6.9041577"><ele></ele><time>2022-5-31T4:19:41Z</time></trkpt>
<trkpt lat="43.4886000" lon="6.9041236"><ele></ele><time>2022-5-31T4:19:44Z</time></trkpt>
<trkpt lat="43.4885767" lon="6.9040831"><ele></ele><time>2022-5-31T4:19:47Z</time></trkpt>
<trkpt lat="43.4885464" lon="6.9040491"><ele></ele><time>2022-5-31T4:19:50Z</time></trkpt>
<trkpt lat="43.4885303" lon="6.9040197"><ele></ele><time>2022-5-31T4:19:53Z</time></trkpt>
<trkpt lat="43.4885066" lon="6.9039971"><ele></ele><time>2022-5-31T4:19:56Z</time></trkpt>
<trkpt lat="43.4884782" lon="6.9039745"><ele></ele><time>2022-5-31T4:19:59Z</time></trkpt>
<trkpt lat="43.4884596" lon="6.9039461"><ele></ele><time>2022-5-31T4:20:2Z</time></trkpt>
<trkpt lat="43.4884422" lon="6.9039230"><ele></ele><time>2022-5-31T4:20:5Z</time></trkpt>
<trkpt lat="43.4884132" lon="6.9038913"><ele></ele><time>2022-5-31T4:20:8Z</time></trkpt>
<trkpt lat="43.4883970" lon="6.9038440"><ele></ele><time>2022-5-31T4:20:11Z</time></trkpt>
<trkpt lat="43.4883657" lon="6.9038075"><ele></ele><time>2022-5-31T4:20:14Z</time></trkpt>
<trkpt lat="43.4883341" lon="6.9037678"><ele></ele><time>2022-5-31T4:20:17Z</time></trkpt>
<trkpt lat="43.4883061" lon="6.9037289"><ele></ele><time>2022-5-31T4:20:20Z</time></trkpt>
<trkpt lat="43.4882792" lon="6.9036914"><ele></ele><time>2022-5-31T4:20:23Z</time></trkpt>
<trkpt lat="43.4882645" lon="6.9036485"><ele></ele><time>2022-5-31T4:20:26Z</time></trkpt>
<trkpt lat="43.4882411" lon="6.9036176"><ele></ele><time>2022-5-31T4:20:29Z</time></trkpt>
<trkpt lat="43.4882268" lon="6.9035881"><ele></ele><time>2022-5-31T4:20:32Z</time></trkpt>
<trkpt lat="43.4882086" lon="6.9035511"><ele></ele><time>2022-5-31T4:20:35Z</time></trkpt>
<trkpt lat="43.4881861" lon="6.9035161"><ele></ele><time>2022-5-31T4:20:38Z</time></trkpt>
<trkpt lat="43.4881603" lon="6.9034881"><ele></ele><time>2022-5-31T4:20:41Z</time></trkpt>
<trkpt lat="43.4881352" lon="6.9034574"><ele></ele><time>2022-5-31T4:20:44Z</time></trkpt>
<trkpt lat="43.4881115" lon="6.9034197"><ele></ele><time>2022-5-31T4:20:47Z</time></trkpt>
<trkpt lat="43.4880884" lon="6.9033868"><ele></ele><time>2022-5-31T4:20:50Z</time></trkpt>
<trkpt lat="43.4880663" lon="6.9033571"><ele></ele><time>2022-5-31T4:20:53Z</time></trkpt>
<trkpt lat="43.4880448" lon="6.9033265"><ele></ele><time>2022-5-31T4:20:56Z</time></trkpt>
<trkpt lat="43.4880289" lon="6.9032947"><ele></ele><time>2022-5-31T4:20:59Z</time></trkpt>
<trkpt lat="43.4880204" lon="6.9032645"><ele></ele><time>2022-5-31T4:21:2Z</time></trkpt>
<trkpt lat="43.4880022" lon="6.9032447"><ele></ele><time>2022-5-31T4:21:5Z</time></trkpt>
<trkpt lat="43.4879875" lon="6.9032233"><ele></ele><time>2022-5-31T4:21:8Z</time></trkpt>
<trkpt lat="43.4879670" lon="6.9032042"><ele></ele><time>2022-5-31T4:21:11Z</time></trkpt>
<trkpt lat="43.4879483" lon="6.9031776"><ele></ele><time>2022-5-31T4:21:14Z</time></trkpt>
<trkpt lat="43.4879324" lon="6.9031470"><ele></ele><time>2022-5-31T4:21:17Z</time></trkpt>
<trkpt lat="43.4879162" lon="6.9031369"><ele></ele><time>2022-5-31T4:21:20Z</time></trkpt>
<trkpt lat="43.4878867" lon="6.9031288"><ele></ele><time>2022-5-31T4:21:23Z</time></trkpt>
<trkpt lat="43.4878728" lon="6.9031061"><ele></ele><time>2022-5-31T4:21:26Z</time></trkpt>
<trkpt lat="43.4878531" lon="6.9030734"><ele></ele><time>2022-5-31T4:21:29Z</time></trkpt>
<trkpt lat="43.4878217" lon="6.9030399"><ele></ele><time>2022-5-31T4:21:32Z</time></trkpt>
<trkpt lat="43.4878069" lon="6.9030055"><ele></ele><time>2022-5-31T4:21:35Z</time></trkpt>
<trkpt lat="43.4877701" lon="6.9029736"><ele></ele><time>2022-5-31T4:21:38Z</time></trkpt>
<trkpt lat="43.4877454" lon="6.9029204"><ele></ele><time>2022-5-31T4:21:41Z</time></trkpt>
<trkpt lat="43.4877217" lon="6.9028862"><ele></ele><time>2022-5-31T4:21:44Z</time></trkpt>
<trkpt lat="43.4877018" lon="6.9028521"><ele></ele><time>2022-5-31T4:21:47Z</time></trkpt>
<trkpt lat="43.4876678" lon="6.9028215"><ele></ele><time>2022-5-31T4:21:50Z</time></trkpt>
<trkpt lat="43.4876392" lon="6.9027882"><ele></ele><time>2022-5-31T4:21:53Z</time></trkpt>
<trkpt lat="43.4875971" lon="6.9027613"><ele></ele><time>2022-5-31T4:21:56Z</time></trkpt>
<trkpt lat="43.4875645" lon="6.9027279"><ele></ele><time>2022-5-31T4:21:59Z</time></trkpt>
<trkpt lat="43.4875311" lon="6.9027059"><ele></ele><time>2022-5-31T4:22:2Z</time></trkpt>
<trkpt lat="43.4874934" lon="6.9026758"><ele></ele><time>2022-5-31T4:22:5Z</time></trkpt>
<trkpt lat="43.4874811" lon="6.9026362"><ele></ele><time>2022-5-31T4:22:8Z</time></trkpt>
<trkpt lat="43.4874476" lon="6.9025967"><ele></ele><time>2022-5-31T4:22:11Z</time></trkpt>
<trkpt lat="43.4874212" lon="6.9025592"><ele></ele><time>2022-5-31T4:22:14Z</time></trkpt>
<trkpt lat="43.4873981" lon="6.9025186"><ele></ele><time>2022-5-31T4:22:17Z</time></trkpt>
<trkpt lat="43.4873764" lon="6.9024854"><ele></ele><time>2022-5-31T4:22:20Z</time></trkpt>
<trkpt lat="43.4873522" lon="6.9024584"><ele></ele><time>2022-5-31T4:22:23Z</time></trkpt>
<trkpt lat="43.4873365" lon="6.9024292"><ele></ele><time>2022-5-31T4:22:26Z</time></trkpt>
<trkpt lat="43.4873394" lon="6.9023927"><ele></ele><time>2022-5-31T4:22:29Z</time></trkpt>
<trkpt lat="43.4873263" lon="6.9023692"><ele></ele><time>2022-5-31T4:22:32Z</time></trkpt>
<trkpt lat="43.4873157" lon="6.9023421"><ele></ele><time>2022-5-31T4:22:35Z</time></trkpt>
<trkpt lat="43.4872941" lon="6.9023183"><ele></ele><time>2022-5-31T4:22:38Z</time></trkpt>
<trkpt lat="43.4872734" lon="6.9022882"><ele></ele><time>2022-5-31T4:22:41Z</time></trkpt>
<trkpt lat="43.4872490" lon="6.9022556"><ele></ele><time>2022-5-31T4:22:44Z</time></trkpt>
<trkpt lat="43.4872251" lon="6.9022186"><ele></ele><time>2022-5-31T4:22:47Z</time></trkpt>
<trkpt lat="43.4872033" lon="6.9021900"><ele></ele><time>2022-5-31T4:22:50Z</time></trkpt>
<trkpt lat="43.4871904" lon="6.9021711"><ele></ele><time>2022-5-31T4:22:53Z</time></trkpt>
<trkpt lat="43.4871814" lon="6.9021567"><ele></ele><time>2022-5-31T4:22:56Z</time></trkpt>
<trkpt lat="43.4871751" lon="6.9021432"><ele></ele><time>2022-5-31T4:22:59Z</time></trkpt>
<trkpt lat="43.4871609" lon="6.9021336"><ele></ele><time>2022-5-31T4:23:2Z</time></trkpt>
<trkpt lat="43.4871486" lon="6.9021187"><ele></ele><time>2022-5-31T4:23:5Z</time></trkpt>
<trkpt lat="43.4871386" lon="6.9021017"><ele></ele><time>2022-5-31T4:23:8Z</time></trkpt>
<trkpt lat="43.4871209" lon="6.9020960"><ele></ele><time>2022-5-31T4:23:11Z</time></trkpt>
<trkpt lat="43.4871038" lon="6.9020887"><ele></ele><time>2022-5-31T4:23:14Z</time></trkpt>
<trkpt lat="43.4870899" lon="6.9020647"><ele></ele><time>2022-5-31T4:23:17Z</time></trkpt>
<trkpt lat="43.4870755" lon="6.9020295"><ele></ele><time>2022-5-31T4:23:20Z</time></trkpt>
<trkpt lat="43.4870531" lon="6.9019975"><ele></ele><time>2022-5-31T4:23:23Z</time></trkpt>
<trkpt lat="43.4870389" lon="6.9019618"><ele></ele><time>2022-5-31T4:23:26Z</time></trkpt>
<trkpt lat="43.4870197" lon="6.9019277"><ele></ele><time>2022-5-31T4:23:29Z</time></trkpt>
<trkpt lat="43.4869956" lon="6.9019000"><ele></ele><time>2022-5-31T4:23:32Z</time></trkpt>
<trkpt lat="43.4869718" lon="6.9018735"><ele></ele><time>2022-5-31T4:23:35Z</time></trkpt>
<trkpt lat="43.4869545" lon="6.9018368"><ele></ele><time>2022-5-31T4:23:38Z</time></trkpt>
<trkpt lat="43.4869340" lon="6.9018039"><ele></ele><time>2022-5-31T4:23:41Z</time></trkpt>
<trkpt lat="43.4869299" lon="6.9017720"><ele></ele><time>2022-5-31T4:23:44Z</time></trkpt>
<trkpt lat="43.4869296" lon="6.9017527"><ele></ele><time>2022-5-31T4:23:47Z</time></trkpt>
<trkpt lat="43.4869266" lon="6.9017363"><ele></ele><time>2022-5-31T4:23:50Z</time></trkpt>
<trkpt lat="43.4869265" lon="6.9017100"><ele></ele><time>2022-5-31T4:23:53Z</time></trkpt>
<trkpt lat="43.4869204" lon="6.9016741"><ele></ele><time>2022-5-31T4:23:56Z</time></trkpt>
<trkpt lat="43.4869088" lon="6.9016327"><ele></ele><time>2022-5-31T4:23:59Z</time></trkpt>
<trkpt lat="43.4869048" lon="6.9015822"><ele></ele><time>2022-5-31T4:24:2Z</time></trkpt>
<trkpt lat="43.4869025" lon="6.9015337"><ele></ele><time>2022-5-31T4:24:5Z</time></trkpt>
<trkpt lat="43.4868923" lon="6.9014817"><ele></ele><time>2022-5-31T4:24:8Z</time></trkpt>
<trkpt lat="43.4868689" lon="6.9014429"><ele></ele><time>2022-5-31T4:24:11Z</time></trkpt>
<trkpt lat="43.4868355" lon="6.9014207"><ele></ele><time>2022-5-31T4:24:14Z</time></trkpt>
<trkpt lat="43.4868072" lon="6.9013933"><ele></ele><time>2022-5-31T4:24:17Z</time></trkpt>
<trkpt lat="43.4867806" lon="6.9013653"><ele></ele><time>2022-5-31T4:24:20Z</time></trkpt>
<trkpt lat="43.4867603" lon="6.9013335"><ele></ele><time>2022-5-31T4:24:23Z</time></trkpt>
<trkpt lat="43.4867394" lon="6.9013029"><ele></ele><time>2022-5-31T4:24:26Z</time></trkpt>
<trkpt lat="43.4867134" lon="6.9012729"><ele></ele><time>2022-5-31T4:24:29Z</time></trkpt>
<trkpt lat="43.4866878" lon="6.9012309"><ele></ele><time>2022-5-31T4:24:32Z</time></trkpt>
<trkpt lat="43.4866602" lon="6.9011861"><ele></ele><time>2022-5-31T4:24:35Z</time></trkpt>
<trkpt lat="43.4866285" lon="6.9011448"><ele></ele><time>2022-5-31T4:24:38Z</time></trkpt>
<trkpt lat="43.4865957" lon="6.9011038"><ele></ele><time>2022-5-31T4:24:41Z</time></trkpt>
<trkpt lat="43.4865695" lon="6.9010545"><ele></ele><time>2022-5-31T4:24:44Z</time></trkpt>
<trkpt lat="43.4865407" lon="6.9010125"><ele></ele><time>2022-5-31T4:24:47Z</time></trkpt>
<trkpt lat="43.4865194" lon="6.9009716"><ele></ele><time>2022-5-31T4:24:50Z</time></trkpt>
<trkpt lat="43.4865000" lon="6.9009343"><ele></ele><time>2022-5-31T4:24:53Z</time></trkpt>
<trkpt lat="43.4864871" lon="6.9008930"><ele></ele><time>2022-5-31T4:24:56Z</time></trkpt>
<trkpt lat="43.4864655" lon="6.9008502"><ele></ele><time>2022-5-31T4:24:59Z</time></trkpt>
<trkpt lat="43.4864668" lon="6.9007824"><ele></ele><time>2022-5-31T4:25:2Z</time></trkpt>
<trkpt lat="43.4864772" lon="6.9007224"><ele></ele><time>2022-5-31T4:25:5Z</time></trkpt>
<trkpt lat="43.4864861" lon="6.9006511"><ele></ele><time>2022-5-31T4:25:8Z</time></trkpt>
<trkpt lat="43.4864935" lon="6.9006076"><ele></ele><time>2022-5-31T4:25:11Z</time></trkpt>
<trkpt lat="43.4865006" lon="6.9005481"><ele></ele><time>2022-5-31T4:25:14Z</time></trkpt>
<trkpt lat="43.4865066" lon="6.9004987"><ele></ele><time>2022-5-31T4:25:17Z</time></trkpt>
<trkpt lat="43.4865081" lon="6.9004714"><ele></ele><time>2022-5-31T4:25:20Z</time></trkpt>
<trkpt lat="43.4865121" lon="6.9004638"><ele></ele><time>2022-5-31T4:25:23Z</time></trkpt>
<trkpt lat="43.4865130" lon="6.9004651"><ele></ele><time>2022-5-31T4:25:26Z</time></trkpt>
<trkpt lat="43.4865148" lon="6.9004645"><ele></ele><time>2022-5-31T4:25:29Z</time></trkpt>
<trkpt lat="43.4865140" lon="6.9004628"><ele></ele><time>2022-5-31T4:25:32Z</time></trkpt>
<trkpt lat="43.4865156" lon="6.9004481"><ele></ele><time>2022-5-31T4:25:35Z</time></trkpt>
<trkpt lat="43.4865159" lon="6.9004110"><ele></ele><time>2022-5-31T4:25:38Z</time></trkpt>
<trkpt lat="43.4865288" lon="6.9003766"><ele></ele><time>2022-5-31T4:25:41Z</time></trkpt>
<trkpt lat="43.4865442" lon="6.9003425"><ele></ele><time>2022-5-31T4:25:44Z</time></trkpt>
<trkpt lat="43.4865407" lon="6.9003045"><ele></ele><time>2022-5-31T4:25:47Z</time></trkpt>
<trkpt lat="43.4865365" lon="6.9002523"><ele></ele><time>2022-5-31T4:25:50Z</time></trkpt>
<trkpt lat="43.4865293" lon="6.9002034"><ele></ele><time>2022-5-31T4:25:53Z</time></trkpt>
<trkpt lat="43.4865185" lon="6.9001545"><ele></ele><time>2022-5-31T4:25:56Z</time></trkpt>
<trkpt lat="43.4865140" lon="6.9000973"><ele></ele><time>2022-5-31T4:25:59Z</time></trkpt>
<trkpt lat="43.4865244" lon="6.9000201"><ele></ele><time>2022-5-31T4:26:2Z</time></trkpt>
<trkpt lat="43.4865503" lon="6.8999577"><ele></ele><time>2022-5-31T4:26:5Z</time></trkpt>
<trkpt lat="43.4865905" lon="6.8999204"><ele></ele><time>2022-5-31T4:26:8Z</time></trkpt>
<trkpt lat="43.4866271" lon="6.8999091"><ele></ele><time>2022-5-31T4:26:11Z</time></trkpt>
<trkpt lat="43.4866508" lon="6.8998641"><ele></ele><time>2022-5-31T4:26:14Z</time></trkpt>
<trkpt lat="43.4866518" lon="6.8998113"><ele></ele><time>2022-5-31T4:26:17Z</time></trkpt>
<trkpt lat="43.4866403" lon="6.8997627"><ele></ele><time>2022-5-31T4:26:20Z</time></trkpt>
<trkpt lat="43.4866290" lon="6.8997140"><ele></ele><time>2022-5-31T4:26:23Z</time></trkpt>
<trkpt lat="43.4866226" lon="6.8996529"><ele></ele><time>2022-5-31T4:26:26Z</time></trkpt>
<trkpt lat="43.4866372" lon="6.8995940"><ele></ele><time>2022-5-31T4:26:29Z</time></trkpt>
<trkpt lat="43.4866610" lon="6.8995308"><ele></ele><time>2022-5-31T4:26:32Z</time></trkpt>
<trkpt lat="43.4866703" lon="6.8994616"><ele></ele><time>2022-5-31T4:26:35Z</time></trkpt>
<trkpt lat="43.4866814" lon="6.8994068"><ele></ele><time>2022-5-31T4:26:38Z</time></trkpt>
<trkpt lat="43.4866928" lon="6.8993510"><ele></ele><time>2022-5-31T4:26:41Z</time></trkpt>
<trkpt lat="43.4867070" lon="6.8992958"><ele></ele><time>2022-5-31T4:26:44Z</time></trkpt>
<trkpt lat="43.4867187" lon="6.8992296"><ele></ele><time>2022-5-31T4:26:47Z</time></trkpt>
<trkpt lat="43.4867188" lon="6.8991671"><ele></ele><time>2022-5-31T4:26:50Z</time></trkpt>
<trkpt lat="43.4867112" lon="6.8991099"><ele></ele><time>2022-5-31T4:26:53Z</time></trkpt>
<trkpt lat="43.4867029" lon="6.8990560"><ele></ele><time>2022-5-31T4:26:56Z</time></trkpt>
<trkpt lat="43.4866974" lon="6.8990021"><ele></ele><time>2022-5-31T4:26:59Z</time></trkpt>
<trkpt lat="43.4866944" lon="6.8989488"><ele></ele><time>2022-5-31T4:27:2Z</time></trkpt>
<trkpt lat="43.4866924" lon="6.8988941"><ele></ele><time>2022-5-31T4:27:5Z</time></trkpt>
<trkpt lat="43.4866895" lon="6.8988566"><ele></ele><time>2022-5-31T4:27:8Z</time></trkpt>
<trkpt lat="43.4866831" lon="6.8988280"><ele></ele><time>2022-5-31T4:27:11Z</time></trkpt>
<trkpt lat="43.4866731" lon="6.8988003"><ele></ele><time>2022-5-31T4:27:14Z</time></trkpt>
<trkpt lat="43.4866560" lon="6.8987695"><ele></ele><time>2022-5-31T4:27:17Z</time></trkpt>
<trkpt lat="43.4866382" lon="6.8987353"><ele></ele><time>2022-5-31T4:27:20Z</time></trkpt>
<trkpt lat="43.4866206" lon="6.8986977"><ele></ele><time>2022-5-31T4:27:23Z</time></trkpt>
<trkpt lat="43.4865996" lon="6.8986594"><ele></ele><time>2022-5-31T4:27:26Z</time></trkpt>
<trkpt lat="43.4865871" lon="6.8986133"><ele></ele><time>2022-5-31T4:27:29Z</time></trkpt>
<trkpt lat="43.4866022" lon="6.8985631"><ele></ele><time>2022-5-31T4:27:32Z</time></trkpt>
<trkpt lat="43.4866091" lon="6.8985156"><ele></ele><time>2022-5-31T4:27:35Z</time></trkpt>
<trkpt lat="43.4866050" lon="6.8984871"><ele></ele><time>2022-5-31T4:27:38Z</time></trkpt>
<trkpt lat="43.4865883" lon="6.8984673"><ele></ele><time>2022-5-31T4:27:41Z</time></trkpt>
<trkpt lat="43.4865722" lon="6.8984343"><ele></ele><time>2022-5-31T4:27:44Z</time></trkpt>
<trkpt lat="43.4865516" lon="6.8983984"><ele></ele><time>2022-5-31T4:27:47Z</time></trkpt>
<trkpt lat="43.4865297" lon="6.8983602"><ele></ele><time>2022-5-31T4:27:50Z</time></trkpt>
<trkpt lat="43.4865063" lon="6.8983235"><ele></ele><time>2022-5-31T4:27:53Z</time></trkpt>
<trkpt lat="43.4864828" lon="6.8982870"><ele></ele><time>2022-5-31T4:27:56Z</time></trkpt>
<trkpt lat="43.4864691" lon="6.8982392"><ele></ele><time>2022-5-31T4:27:59Z</time></trkpt>
<trkpt lat="43.4864528" lon="6.8981764"><ele></ele><time>2022-5-31T4:28:2Z</time></trkpt>
<trkpt lat="43.4864309" lon="6.8981219"><ele></ele><time>2022-5-31T4:28:5Z</time></trkpt>
<trkpt lat="43.4864143" lon="6.8980889"><ele></ele><time>2022-5-31T4:28:8Z</time></trkpt>
<trkpt lat="43.4864001" lon="6.8980547"><ele></ele><time>2022-5-31T4:28:11Z</time></trkpt>
<trkpt lat="43.4863868" lon="6.8980205"><ele></ele><time>2022-5-31T4:28:14Z</time></trkpt>
<trkpt lat="43.4863730" lon="6.8979867"><ele></ele><time>2022-5-31T4:28:17Z</time></trkpt>
<trkpt lat="43.4863600" lon="6.8979544"><ele></ele><time>2022-5-31T4:28:20Z</time></trkpt>
<trkpt lat="43.4863459" lon="6.8979276"><ele></ele><time>2022-5-31T4:28:23Z</time></trkpt>
<trkpt lat="43.4863384" lon="6.8979055"><ele></ele><time>2022-5-31T4:28:26Z</time></trkpt>
<trkpt lat="43.4863381" lon="6.8979131"><ele></ele><time>2022-5-31T4:28:29Z</time></trkpt>
<trkpt lat="43.4863364" lon="6.8979093"><ele></ele><time>2022-5-31T4:28:32Z</time></trkpt>
<trkpt lat="43.4863360" lon="6.8979096"><ele></ele><time>2022-5-31T4:28:35Z</time></trkpt>
<trkpt lat="43.4863442" lon="6.8979091"><ele></ele><time>2022-5-31T4:28:38Z</time></trkpt>
<trkpt lat="43.4863633" lon="6.8979064"><ele></ele><time>2022-5-31T4:28:41Z</time></trkpt>
<trkpt lat="43.4863650" lon="6.8979037"><ele></ele><time>2022-5-31T4:28:44Z</time></trkpt>
<trkpt lat="43.4863669" lon="6.8979024"><ele></ele><time>2022-5-31T4:28:47Z</time></trkpt>
<trkpt lat="43.4863695" lon="6.8979018"><ele></ele><time>2022-5-31T4:28:50Z</time></trkpt>
<trkpt lat="43.4863740" lon="6.8979000"><ele></ele><time>2022-5-31T4:28:53Z</time></trkpt>
<trkpt lat="43.4863741" lon="6.8979040"><ele></ele><time>2022-5-31T4:28:56Z</time></trkpt>
<trkpt lat="43.4863738" lon="6.8979051"><ele></ele><time>2022-5-31T4:28:59Z</time></trkpt>
<trkpt lat="43.4863740" lon="6.8979058"><ele></ele><time>2022-5-31T4:29:2Z</time></trkpt>
<trkpt lat="43.4863742" lon="6.8979072"><ele></ele><time>2022-5-31T4:29:5Z</time></trkpt>
<trkpt lat="43.4863718" lon="6.8979034"><ele></ele><time>2022-5-31T4:29:8Z</time></trkpt>
<trkpt lat="43.4863694" lon="6.8978934"><ele></ele><time>2022-5-31T4:29:11Z</time></trkpt>
<trkpt lat="43.4863827" lon="6.8979005"><ele></ele><time>2022-5-31T4:29:14Z</time></trkpt>
<trkpt lat="43.4863915" lon="6.8979037"><ele></ele><time>2022-5-31T4:29:17Z</time></trkpt>
<trkpt lat="43.4864025" lon="6.8979043"><ele></ele><time>2022-5-31T4:29:20Z</time></trkpt>
<trkpt lat="43.4864026" lon="6.8978938"><ele></ele><time>2022-5-31T4:29:23Z</time></trkpt>
<trkpt lat="43.4864060" lon="6.8978863"><ele></ele><time>2022-5-31T4:29:26Z</time></trkpt>
<trkpt lat="43.4864088" lon="6.8978831"><ele></ele><time>2022-5-31T4:29:29Z</time></trkpt>
<trkpt lat="43.4864100" lon="6.8978766"><ele></ele><time>2022-5-31T4:29:32Z</time></trkpt>
<trkpt lat="43.4864112" lon="6.8978652"><ele></ele><time>2022-5-31T4:29:35Z</time></trkpt>
<trkpt lat="43.4864076" lon="6.8978620"><ele></ele><time>2022-5-31T4:29:38Z</time></trkpt>
<trkpt lat="43.4864118" lon="6.8978602"><ele></ele><time>2022-5-31T4:29:41Z</time></trkpt>
<trkpt lat="43.4864117" lon="6.8978588"><ele></ele><time>2022-5-31T4:29:44Z</time></trkpt>
<trkpt lat="43.4864100" lon="6.8978540"><ele></ele><time>2022-5-31T4:29:47Z</time></trkpt>
<trkpt lat="43.4864109" lon="6.8978400"><ele></ele><time>2022-5-31T4:29:50Z</time></trkpt>
<trkpt lat="43.4864086" lon="6.8978399"><ele></ele><time>2022-5-31T4:29:53Z</time></trkpt>
<trkpt lat="43.4864067" lon="6.8978398"><ele></ele><time>2022-5-31T4:29:56Z</time></trkpt>
<trkpt lat="43.4864057" lon="6.8978331"><ele></ele><time>2022-5-31T4:29:59Z</time></trkpt>
<trkpt lat="43.4864098" lon="6.8978246"><ele></ele><time>2022-5-31T4:30:2Z</time></trkpt>
<trkpt lat="43.4864088" lon="6.8978195"><ele></ele><time>2022-5-31T4:30:5Z</time></trkpt>
<trkpt lat="43.4864159" lon="6.8978044"><ele></ele><time>2022-5-31T4:30:8Z</time></trkpt>
<trkpt lat="43.4864173" lon="6.8977972"><ele></ele><time>2022-5-31T4:30:11Z</time></trkpt>
<trkpt lat="43.4864202" lon="6.8977931"><ele></ele><time>2022-5-31T4:30:14Z</time></trkpt>
<trkpt lat="43.4864202" lon="6.8977926"><ele></ele><time>2022-5-31T4:30:17Z</time></trkpt>
<trkpt lat="43.4864218" lon="6.8977965"><ele></ele><time>2022-5-31T4:30:20Z</time></trkpt>
<trkpt lat="43.4864236" lon="6.8977965"><ele></ele><time>2022-5-31T4:30:23Z</time></trkpt>
<trkpt lat="43.4864208" lon="6.8977959"><ele></ele><time>2022-5-31T4:30:26Z</time></trkpt>
<trkpt lat="43.4864184" lon="6.8977950"><ele></ele><time>2022-5-31T4:30:29Z</time></trkpt>
<trkpt lat="43.4864180" lon="6.8977864"><ele></ele><time>2022-5-31T4:30:32Z</time></trkpt>
<trkpt lat="43.4864162" lon="6.8977847"><ele></ele><time>2022-5-31T4:30:35Z</time></trkpt>
<trkpt lat="43.4864145" lon="6.8977808"><ele></ele><time>2022-5-31T4:30:38Z</time></trkpt>
<trkpt lat="43.4864100" lon="6.8977781"><ele></ele><time>2022-5-31T4:30:41Z</time></trkpt>
<trkpt lat="43.4864071" lon="6.8977695"><ele></ele><time>2022-5-31T4:30:44Z</time></trkpt>
<trkpt lat="43.4864050" lon="6.8977572"><ele></ele><time>2022-5-31T4:30:47Z</time></trkpt>
<trkpt lat="43.4864035" lon="6.8977419"><ele></ele><time>2022-5-31T4:30:50Z</time></trkpt>
<trkpt lat="43.4864012" lon="6.8977321"><ele></ele><time>2022-5-31T4:30:53Z</time></trkpt>
<trkpt lat="43.4863966" lon="6.8977286"><ele></ele><time>2022-5-31T4:30:56Z</time></trkpt>
<trkpt lat="43.4863933" lon="6.8977222"><ele></ele><time>2022-5-31T4:30:59Z</time></trkpt>
<trkpt lat="43.4863851" lon="6.8977139"><ele></ele><time>2022-5-31T4:31:2Z</time></trkpt>
<trkpt lat="43.4863860" lon="6.8976959"><ele></ele><time>2022-5-31T4:31:5Z</time></trkpt>
<trkpt lat="43.4863856" lon="6.8976843"><ele></ele><time>2022-5-31T4:31:8Z</time></trkpt>
<trkpt lat="43.4863819" lon="6.8976815"><ele></ele><time>2022-5-31T4:31:11Z</time></trkpt>
<trkpt lat="43.4863775" lon="6.8976743"><ele></ele><time>2022-5-31T4:31:14Z</time></trkpt>
<trkpt lat="43.4863736" lon="6.8976610"><ele></ele><time>2022-5-31T4:31:17Z</time></trkpt>
<trkpt lat="43.4863732" lon="6.8976497"><ele></ele><time>2022-5-31T4:31:20Z</time></trkpt>
<trkpt lat="43.4863755" lon="6.8976390"><ele></ele><time>2022-5-31T4:31:23Z</time></trkpt>
<trkpt lat="43.4863674" lon="6.8976344"><ele></ele><time>2022-5-31T4:31:26Z</time></trkpt>
<trkpt lat="43.4863636" lon="6.8976316"><ele></ele><time>2022-5-31T4:31:29Z</time></trkpt>
<trkpt lat="43.4863595" lon="6.8976284"><ele></ele><time>2022-5-31T4:31:32Z</time></trkpt>
<trkpt lat="43.4863646" lon="6.8976317"><ele></ele><time>2022-5-31T4:31:35Z</time></trkpt>
<trkpt lat="43.4863670" lon="6.8976397"><ele></ele><time>2022-5-31T4:31:38Z</time></trkpt>
<trkpt lat="43.4863648" lon="6.8976479"><ele></ele><time>2022-5-31T4:31:41Z</time></trkpt>
<trkpt lat="43.4863570" lon="6.8976439"><ele></ele><time>2022-5-31T4:31:44Z</time></trkpt>
<trkpt lat="43.4863388" lon="6.8976536"><ele></ele><time>2022-5-31T4:31:47Z</time></trkpt>
<trkpt lat="43.4863365" lon="6.8976471"><ele></ele><time>2022-5-31T4:31:50Z</time></trkpt>
<trkpt lat="43.4863321" lon="6.8976376"><ele></ele><time>2022-5-31T4:31:53Z</time></trkpt>
<trkpt lat="43.4863329" lon="6.8976309"><ele></ele><time>2022-5-31T4:31:56Z</time></trkpt>
<trkpt lat="43.4863432" lon="6.8976143"><ele></ele><time>2022-5-31T4:31:59Z</time></trkpt>
<trkpt lat="43.4863466" lon="6.8976070"><ele></ele><time>2022-5-31T4:32:2Z</time></trkpt>
<trkpt lat="43.4863459" lon="6.8976050"><ele></ele><time>2022-5-31T4:32:5Z</time></trkpt>
<trkpt lat="43.4863431" lon="6.8976071"><ele></ele><time>2022-5-31T4:32:8Z</time></trkpt>
<trkpt lat="43.4863385" lon="6.8976123"><ele></ele><time>2022-5-31T4:32:11Z</time></trkpt>
<trkpt lat="43.4863384" lon="6.8976119"><ele></ele><time>2022-5-31T4:32:14Z</time></trkpt>
<trkpt lat="43.4863405" lon="6.8976069"><ele></ele><time>2022-5-31T4:32:17Z</time></trkpt>
<trkpt lat="43.4863406" lon="6.8976082"><ele></ele><time>2022-5-31T4:32:20Z</time></trkpt>
<trkpt lat="43.4863353" lon="6.8976023"><ele></ele><time>2022-5-31T4:32:23Z</time></trkpt>
<trkpt lat="43.4863276" lon="6.8975947"><ele></ele><time>2022-5-31T4:32:26Z</time></trkpt>
<trkpt lat="43.4863236" lon="6.8975884"><ele></ele><time>2022-5-31T4:32:29Z</time></trkpt>
<trkpt lat="43.4863228" lon="6.8975810"><ele></ele><time>2022-5-31T4:32:32Z</time></trkpt>
<trkpt lat="43.4863260" lon="6.8975801"><ele></ele><time>2022-5-31T4:32:35Z</time></trkpt>
<trkpt lat="43.4863242" lon="6.8975797"><ele></ele><time>2022-5-31T4:32:38Z</time></trkpt>
<trkpt lat="43.4863248" lon="6.8975818"><ele></ele><time>2022-5-31T4:32:41Z</time></trkpt>
<trkpt lat="43.4863207" lon="6.8975802"><ele></ele><time>2022-5-31T4:32:44Z</time></trkpt>
<trkpt lat="43.4863066" lon="6.8975814"><ele></ele><time>2022-5-31T4:32:47Z</time></trkpt>
<trkpt lat="43.4863079" lon="6.8975798"><ele></ele><time>2022-5-31T4:32:50Z</time></trkpt>
<trkpt lat="43.4863139" lon="6.8975782"><ele></ele><time>2022-5-31T4:32:53Z</time></trkpt>
<trkpt lat="43.4863166" lon="6.8975765"><ele></ele><time>2022-5-31T4:32:56Z</time></trkpt>
<trkpt lat="43.4863199" lon="6.8975744"><ele></ele><time>2022-5-31T4:32:59Z</time></trkpt>
<trkpt lat="43.4863255" lon="6.8975729"><ele></ele><time>2022-5-31T4:33:2Z</time></trkpt>
<trkpt lat="43.4863277" lon="6.8975693"><ele></ele><time>2022-5-31T4:33:5Z</time></trkpt>
<trkpt lat="43.4863305" lon="6.8975645"><ele></ele><time>2022-5-31T4:33:8Z</time></trkpt>
<trkpt lat="43.4863300" lon="6.8975541"><ele></ele><time>2022-5-31T4:33:11Z</time></trkpt>
<trkpt lat="43.4863309" lon="6.8975451"><ele></ele><time>2022-5-31T4:33:14Z</time></trkpt>
<trkpt lat="43.4863363" lon="6.8975321"><ele></ele><time>2022-5-31T4:33:17Z</time></trkpt>
<trkpt lat="43.4863431" lon="6.8975163"><ele></ele><time>2022-5-31T4:33:20Z</time></trkpt>
<trkpt lat="43.4863452" lon="6.8975093"><ele></ele><time>2022-5-31T4:33:23Z</time></trkpt>
<trkpt lat="43.4863455" lon="6.8975024"><ele></ele><time>2022-5-31T4:33:26Z</time></trkpt>
<trkpt lat="43.4863461" lon="6.8974911"><ele></ele><time>2022-5-31T4:33:29Z</time></trkpt>
<trkpt lat="43.4863443" lon="6.8974846"><ele></ele><time>2022-5-31T4:33:32Z</time></trkpt>
<trkpt lat="43.4863432" lon="6.8974819"><ele></ele><time>2022-5-31T4:33:35Z</time></trkpt>
<trkpt lat="43.4863416" lon="6.8974779"><ele></ele><time>2022-5-31T4:33:38Z</time></trkpt>
<trkpt lat="43.4863382" lon="6.8974745"><ele></ele><time>2022-5-31T4:33:41Z</time></trkpt>
<trkpt lat="43.4863385" lon="6.8974646"><ele></ele><time>2022-5-31T4:33:44Z</time></trkpt>
<trkpt lat="43.4863396" lon="6.8974617"><ele></ele><time>2022-5-31T4:33:47Z</time></trkpt>
<trkpt lat="43.4863404" lon="6.8974613"><ele></ele><time>2022-5-31T4:33:50Z</time></trkpt>
<trkpt lat="43.4863403" lon="6.8974632"><ele></ele><time>2022-5-31T4:33:53Z</time></trkpt>
<trkpt lat="43.4863397" lon="6.8974578"><ele></ele><time>2022-5-31T4:33:56Z</time></trkpt>
<trkpt lat="43.4863386" lon="6.8974447"><ele></ele><time>2022-5-31T4:33:59Z</time></trkpt>
<trkpt lat="43.4863378" lon="6.8974395"><ele></ele><time>2022-5-31T4:34:2Z</time></trkpt>
<trkpt lat="43.4863307" lon="6.8974260"><ele></ele><time>2022-5-31T4:34:5Z</time></trkpt>
<trkpt lat="43.4863295" lon="6.8974067"><ele></ele><time>2022-5-31T4:34:8Z</time></trkpt>
<trkpt lat="43.4863311" lon="6.8973942"><ele></ele><time>2022-5-31T4:34:11Z</time></trkpt>
<trkpt lat="43.4863332" lon="6.8973842"><ele></ele><time>2022-5-31T4:34:14Z</time></trkpt>
<trkpt lat="43.4863352" lon="6.8973739"><ele></ele><time>2022-5-31T4:34:17Z</time></trkpt>
<trkpt lat="43.4863363" lon="6.8973654"><ele></ele><time>2022-5-31T4:34:20Z</time></trkpt>
<trkpt lat="43.4863357" lon="6.8973580"><ele></ele><time>2022-5-31T4:34:23Z</time></trkpt>
<trkpt lat="43.4863354" lon="6.8973490"><ele></ele><time>2022-5-31T4:34:26Z</time></trkpt>
<trkpt lat="43.4863316" lon="6.8973355"><ele></ele><time>2022-5-31T4:34:29Z</time></trkpt>
<trkpt lat="43.4863286" lon="6.8973235"><ele></ele><time>2022-5-31T4:34:32Z</time></trkpt>
<trkpt lat="43.4863296" lon="6.8973088"><ele></ele><time>2022-5-31T4:34:35Z</time></trkpt>
<trkpt lat="43.4863270" lon="6.8972991"><ele></ele><time>2022-5-31T4:34:38Z</time></trkpt>
<trkpt lat="43.4863236" lon="6.8972803"><ele></ele><time>2022-5-31T4:34:41Z</time></trkpt>
<trkpt lat="43.4863113" lon="6.8972802"><ele></ele><time>2022-5-31T4:34:44Z</time></trkpt>
<trkpt lat="43.4863081" lon="6.8972761"><ele></ele><time>2022-5-31T4:34:47Z</time></trkpt>
<trkpt lat="43.4863048" lon="6.8972735"><ele></ele><time>2022-5-31T4:34:50Z</time></trkpt>
<trkpt lat="43.4863036" lon="6.8972684"><ele></ele><time>2022-5-31T4:34:53Z</time></trkpt>
<trkpt lat="43.4863014" lon="6.8972595"><ele></ele><time>2022-5-31T4:34:56Z</time></trkpt>
<trkpt lat="43.4863006" lon="6.8972463"><ele></ele><time>2022-5-31T4:34:59Z</time></trkpt>
<trkpt lat="43.4863013" lon="6.8972378"><ele></ele><time>2022-5-31T4:35:2Z</time></trkpt>
<trkpt lat="43.4863009" lon="6.8972319"><ele></ele><time>2022-5-31T4:35:5Z</time></trkpt>
<trkpt lat="43.4862994" lon="6.8972278"><ele></ele><time>2022-5-31T4:35:8Z</time></trkpt>
<trkpt lat="43.4863005" lon="6.8972266"><ele></ele><time>2022-5-31T4:35:11Z</time></trkpt>
<trkpt lat="43.4863001" lon="6.8972266"><ele></ele><time>2022-5-31T4:35:14Z</time></trkpt>
<trkpt lat="43.4862999" lon="6.8972268"><ele></ele><time>2022-5-31T4:35:17Z</time></trkpt>
<trkpt lat="43.4862990" lon="6.8972268"><ele></ele><time>2022-5-31T4:35:20Z</time></trkpt>
<trkpt lat="43.4862986" lon="6.8972275"><ele></ele><time>2022-5-31T4:35:23Z</time></trkpt>
<trkpt lat="43.4863007" lon="6.8972159"><ele></ele><time>2022-5-31T4:35:26Z</time></trkpt>
<trkpt lat="43.4862998" lon="6.8971982"><ele></ele><time>2022-5-31T4:35:29Z</time></trkpt>
<trkpt lat="43.4863029" lon="6.8971763"><ele></ele><time>2022-5-31T4:35:32Z</time></trkpt>
<trkpt lat="43.4863146" lon="6.8971452"><ele></ele><time>2022-5-31T4:35:35Z</time></trkpt>
<trkpt lat="43.4863220" lon="6.8971394"><ele></ele><time>2022-5-31T4:35:38Z</time></trkpt>
<trkpt lat="43.4863229" lon="6.8971381"><ele></ele><time>2022-5-31T4:35:41Z</time></trkpt>
<trkpt lat="43.4863235" lon="6.8971384"><ele></ele><time>2022-5-31T4:35:44Z</time></trkpt>
<trkpt lat="43.4863233" lon="6.8971389"><ele></ele><time>2022-5-31T4:35:47Z</time></trkpt>
<trkpt lat="43.4863231" lon="6.8971392"><ele></ele><time>2022-5-31T4:35:50Z</time></trkpt>
<trkpt lat="43.4863229" lon="6.8971396"><ele></ele><time>2022-5-31T4:35:53Z</time></trkpt>
<trkpt lat="43.4863227" lon="6.8971399"><ele></ele><time>2022-5-31T4:35:56Z</time></trkpt>
<trkpt lat="43.4863226" lon="6.8971400"><ele></ele><time>2022-5-31T4:35:59Z</time></trkpt>
<trkpt lat="43.4863225" lon="6.8971402"><ele></ele><time>2022-5-31T4:36:2Z</time></trkpt>
<trkpt lat="43.4863223" lon="6.8971405"><ele></ele><time>2022-5-31T4:36:5Z</time></trkpt>
<trkpt lat="43.4863222" lon="6.8971409"><ele></ele><time>2022-5-31T4:36:8Z</time></trkpt>
<trkpt lat="43.4863221" lon="6.8971412"><ele></ele><time>2022-5-31T4:36:11Z</time></trkpt>
<trkpt lat="43.4863219" lon="6.8971417"><ele></ele><time>2022-5-31T4:36:14Z</time></trkpt>
<trkpt lat="43.4863218" lon="6.8971419"><ele></ele><time>2022-5-31T4:36:17Z</time></trkpt>
<trkpt lat="43.4863215" lon="6.8971424"><ele></ele><time>2022-5-31T4:36:20Z</time></trkpt>
<trkpt lat="43.4863212" lon="6.8971431"><ele></ele><time>2022-5-31T4:36:23Z</time></trkpt>
<trkpt lat="43.4863209" lon="6.8971436"><ele></ele><time>2022-5-31T4:36:26Z</time></trkpt>
<trkpt lat="43.4863207" lon="6.8971442"><ele></ele><time>2022-5-31T4:36:29Z</time></trkpt>
<trkpt lat="43.4863205" lon="6.8971448"><ele></ele><time>2022-5-31T4:36:32Z</time></trkpt>
<trkpt lat="43.4863198" lon="6.8971467"><ele></ele><time>2022-5-31T4:36:35Z</time></trkpt>
<trkpt lat="43.4863195" lon="6.8971474"><ele></ele><time>2022-5-31T4:36:38Z</time></trkpt>
<trkpt lat="43.4863192" lon="6.8971481"><ele></ele><time>2022-5-31T4:36:41Z</time></trkpt>
<trkpt lat="43.4863188" lon="6.8971491"><ele></ele><time>2022-5-31T4:36:44Z</time></trkpt>
<trkpt lat="43.4863184" lon="6.8971496"><ele></ele><time>2022-5-31T4:36:47Z</time></trkpt>
<trkpt lat="43.4863180" lon="6.8971500"><ele></ele><time>2022-5-31T4:36:50Z</time></trkpt>
<trkpt lat="43.4863177" lon="6.8971504"><ele></ele><time>2022-5-31T4:36:53Z</time></trkpt>
<trkpt lat="43.4863175" lon="6.8971506"><ele></ele><time>2022-5-31T4:36:56Z</time></trkpt>
<trkpt lat="43.4863173" lon="6.8971509"><ele></ele><time>2022-5-31T4:36:59Z</time></trkpt>
<trkpt lat="43.4863170" lon="6.8971514"><ele></ele><time>2022-5-31T4:37:2Z</time></trkpt>
<trkpt lat="43.4863167" lon="6.8971518"><ele></ele><time>2022-5-31T4:37:5Z</time></trkpt>
<trkpt lat="43.4863163" lon="6.8971523"><ele></ele><time>2022-5-31T4:37:8Z</time></trkpt>
<trkpt lat="43.4863161" lon="6.8971526"><ele></ele><time>2022-5-31T4:37:11Z</time></trkpt>
<trkpt lat="43.4863158" lon="6.8971530"><ele></ele><time>2022-5-31T4:37:14Z</time></trkpt>
<trkpt lat="43.4863155" lon="6.8971535"><ele></ele><time>2022-5-31T4:37:17Z</time></trkpt>
<trkpt lat="43.4863152" lon="6.8971540"><ele></ele><time>2022-5-31T4:37:20Z</time></trkpt>
<trkpt lat="43.4863149" lon="6.8971544"><ele></ele><time>2022-5-31T4:37:23Z</time></trkpt>
<trkpt lat="43.4863144" lon="6.8971547"><ele></ele><time>2022-5-31T4:37:26Z</time></trkpt>
<trkpt lat="43.4863145" lon="6.8971547"><ele></ele><time>2022-5-31T4:37:29Z</time></trkpt>
<trkpt lat="43.4863145" lon="6.8971546"><ele></ele><time>2022-5-31T4:37:32Z</time></trkpt>
<trkpt lat="43.4863143" lon="6.8971549"><ele></ele><time>2022-5-31T4:37:35Z</time></trkpt>
<trkpt lat="43.4863139" lon="6.8971552"><ele></ele><time>2022-5-31T4:37:38Z</time></trkpt>
<trkpt lat="43.4863135" lon="6.8971555"><ele></ele><time>2022-5-31T4:37:41Z</time></trkpt>
<trkpt lat="43.4863130" lon="6.8971559"><ele></ele><time>2022-5-31T4:37:44Z</time></trkpt>
<trkpt lat="43.4863128" lon="6.8971559"><ele></ele><time>2022-5-31T4:37:47Z</time></trkpt>
<trkpt lat="43.4863125" lon="6.8971562"><ele></ele><time>2022-5-31T4:37:50Z</time></trkpt>
<trkpt lat="43.4863120" lon="6.8971566"><ele></ele><time>2022-5-31T4:37:53Z</time></trkpt>
<trkpt lat="43.4863115" lon="6.8971570"><ele></ele><time>2022-5-31T4:37:56Z</time></trkpt>
<trkpt lat="43.4863110" lon="6.8971573"><ele></ele><time>2022-5-31T4:37:59Z</time></trkpt>
<trkpt lat="43.4863109" lon="6.8971574"><ele></ele><time>2022-5-31T4:38:2Z</time></trkpt>
<trkpt lat="43.4863104" lon="6.8971578"><ele></ele><time>2022-5-31T4:38:5Z</time></trkpt>
<trkpt lat="43.4863098" lon="6.8971583"><ele></ele><time>2022-5-31T4:38:8Z</time></trkpt>
<trkpt lat="43.4863096" lon="6.8971586"><ele></ele><time>2022-5-31T4:38:11Z</time></trkpt>
<trkpt lat="43.4863090" lon="6.8971590"><ele></ele><time>2022-5-31T4:38:14Z</time></trkpt>
<trkpt lat="43.4863087" lon="6.8971592"><ele></ele><time>2022-5-31T4:38:17Z</time></trkpt>
<trkpt lat="43.4863084" lon="6.8971593"><ele></ele><time>2022-5-31T4:38:20Z</time></trkpt>
<trkpt lat="43.4863080" lon="6.8971595"><ele></ele><time>2022-5-31T4:38:23Z</time></trkpt>
<trkpt lat="43.4863079" lon="6.8971596"><ele></ele><time>2022-5-31T4:38:26Z</time></trkpt>
<trkpt lat="43.4863074" lon="6.8971601"><ele></ele><time>2022-5-31T4:38:29Z</time></trkpt>
<trkpt lat="43.4863070" lon="6.8971602"><ele></ele><time>2022-5-31T4:38:32Z</time></trkpt>
<trkpt lat="43.4863063" lon="6.8971605"><ele></ele><time>2022-5-31T4:38:35Z</time></trkpt>
<trkpt lat="43.4863063" lon="6.8971606"><ele></ele><time>2022-5-31T4:38:38Z</time></trkpt>
<trkpt lat="43.4863062" lon="6.8971607"><ele></ele><time>2022-5-31T4:38:41Z</time></trkpt>
<trkpt lat="43.4863054" lon="6.8971610"><ele></ele><time>2022-5-31T4:38:44Z</time></trkpt>
<trkpt lat="43.4863048" lon="6.8971612"><ele></ele><time>2022-5-31T4:38:47Z</time></trkpt>
<trkpt lat="43.4863047" lon="6.8971613"><ele></ele><time>2022-5-31T4:38:50Z</time></trkpt>
<trkpt lat="43.4863045" lon="6.8971613"><ele></ele><time>2022-5-31T4:38:53Z</time></trkpt>
<trkpt lat="43.4863043" lon="6.8971614"><ele></ele><time>2022-5-31T4:38:56Z</time></trkpt>
<trkpt lat="43.4863037" lon="6.8971616"><ele></ele><time>2022-5-31T4:38:59Z</time></trkpt>
<trkpt lat="43.4863034" lon="6.8971620"><ele></ele><time>2022-5-31T4:39:2Z</time></trkpt>
<trkpt lat="43.4863028" lon="6.8971621"><ele></ele><time>2022-5-31T4:39:5Z</time></trkpt>
<trkpt lat="43.4863027" lon="6.8971621"><ele></ele><time>2022-5-31T4:39:8Z</time></trkpt>
<trkpt lat="43.4863025" lon="6.8971622"><ele></ele><time>2022-5-31T4:39:11Z</time></trkpt>
<trkpt lat="43.4863026" lon="6.8971621"><ele></ele><time>2022-5-31T4:39:14Z</time></trkpt>
<trkpt lat="43.4863028" lon="6.8971621"><ele></ele><time>2022-5-31T4:39:17Z</time></trkpt>
<trkpt lat="43.4863029" lon="6.8971621"><ele></ele><time>2022-5-31T4:39:20Z</time></trkpt>
<trkpt lat="43.4863028" lon="6.8971621"><ele></ele><time>2022-5-31T4:39:23Z</time></trkpt>
<trkpt lat="43.4863025" lon="6.8971621"><ele></ele><time>2022-5-31T4:39:26Z</time></trkpt>
<trkpt lat="43.4863015" lon="6.8971622"><ele></ele><time>2022-5-31T4:39:29Z</time></trkpt>
<trkpt lat="43.4863014" lon="6.8971622"><ele></ele><time>2022-5-31T4:39:32Z</time></trkpt>
<trkpt lat="43.4863013" lon="6.8971622"><ele></ele><time>2022-5-31T4:39:35Z</time></trkpt>
<trkpt lat="43.4863010" lon="6.8971625"><ele></ele><time>2022-5-31T4:39:38Z</time></trkpt>
<trkpt lat="43.4863001" lon="6.8971633"><ele></ele><time>2022-5-31T4:39:41Z</time></trkpt>
<trkpt lat="43.4863002" lon="6.8971638"><ele></ele><time>2022-5-31T4:39:44Z</time></trkpt>
<trkpt lat="43.4863007" lon="6.8971641"><ele></ele><time>2022-5-31T4:39:47Z</time></trkpt>
<trkpt lat="43.4863012" lon="6.8971643"><ele></ele><time>2022-5-31T4:39:50Z</time></trkpt>
<trkpt lat="43.4863017" lon="6.8971648"><ele></ele><time>2022-5-31T4:39:53Z</time></trkpt>
<trkpt lat="43.4863022" lon="6.8971652"><ele></ele><time>2022-5-31T4:39:56Z</time></trkpt>
<trkpt lat="43.4863020" lon="6.8971658"><ele></ele><time>2022-5-31T4:39:59Z</time></trkpt>
<trkpt lat="43.4863015" lon="6.8971659"><ele></ele><time>2022-5-31T4:40:2Z</time></trkpt>
<trkpt lat="43.4863004" lon="6.8971661"><ele></ele><time>2022-5-31T4:40:5Z</time></trkpt>
<trkpt lat="43.4863000" lon="6.8971664"><ele></ele><time>2022-5-31T4:40:8Z</time></trkpt>
<trkpt lat="43.4862999" lon="6.8971668"><ele></ele><time>2022-5-31T4:40:11Z</time></trkpt>
<trkpt lat="43.4862999" lon="6.8971670"><ele></ele><time>2022-5-31T4:40:14Z</time></trkpt>
<trkpt lat="43.4862994" lon="6.8971671"><ele></ele><time>2022-5-31T4:40:17Z</time></trkpt>
<trkpt lat="43.4862993" lon="6.8971672"><ele></ele><time>2022-5-31T4:40:20Z</time></trkpt>
<trkpt lat="43.4862991" lon="6.8971673"><ele></ele><time>2022-5-31T4:40:23Z</time></trkpt>
<trkpt lat="43.4862988" lon="6.8971673"><ele></ele><time>2022-5-31T4:40:26Z</time></trkpt>
<trkpt lat="43.4862992" lon="6.8971674"><ele></ele><time>2022-5-31T4:40:29Z</time></trkpt>
<trkpt lat="43.4862996" lon="6.8971676"><ele></ele><time>2022-5-31T4:40:32Z</time></trkpt>
<trkpt lat="43.4862997" lon="6.8971676"><ele></ele><time>2022-5-31T4:40:35Z</time></trkpt>
<trkpt lat="43.4863003" lon="6.8971678"><ele></ele><time>2022-5-31T4:40:38Z</time></trkpt>
<trkpt lat="43.4863005" lon="6.8971678"><ele></ele><time>2022-5-31T4:40:41Z</time></trkpt>
<trkpt lat="43.4863007" lon="6.8971679"><ele></ele><time>2022-5-31T4:40:44Z</time></trkpt>
<trkpt lat="43.4863010" lon="6.8971680"><ele></ele><time>2022-5-31T4:40:47Z</time></trkpt>
<trkpt lat="43.4863018" lon="6.8971682"><ele></ele><time>2022-5-31T4:40:50Z</time></trkpt>
<trkpt lat="43.4863021" lon="6.8971684"><ele></ele><time>2022-5-31T4:40:53Z</time></trkpt>
<trkpt lat="43.4863022" lon="6.8971685"><ele></ele><time>2022-5-31T4:40:56Z</time></trkpt>
<trkpt lat="43.4863020" lon="6.8971687"><ele></ele><time>2022-5-31T4:40:59Z</time></trkpt>
<trkpt lat="43.4863020" lon="6.8971687"><ele></ele><time>2022-5-31T4:41:2Z</time></trkpt>
<trkpt lat="43.4863021" lon="6.8971689"><ele></ele><time>2022-5-31T4:41:5Z</time></trkpt>
<trkpt lat="43.4863024" lon="6.8971690"><ele></ele><time>2022-5-31T4:41:8Z</time></trkpt>
<trkpt lat="43.4863025" lon="6.8971692"><ele></ele><time>2022-5-31T4:41:11Z</time></trkpt>
<trkpt lat="43.4863028" lon="6.8971695"><ele></ele><time>2022-5-31T4:41:14Z</time></trkpt>
<trkpt lat="43.4863026" lon="6.8971695"><ele></ele><time>2022-5-31T4:41:17Z</time></trkpt>
<trkpt lat="43.4863027" lon="6.8971698"><ele></ele><time>2022-5-31T4:41:20Z</time></trkpt>
<trkpt lat="43.4863029" lon="6.8971698"><ele></ele><time>2022-5-31T4:41:23Z</time></trkpt>
<trkpt lat="43.4863031" lon="6.8971699"><ele></ele><time>2022-5-31T4:41:26Z</time></trkpt>
<trkpt lat="43.4863035" lon="6.8971699"><ele></ele><time>2022-5-31T4:41:29Z</time></trkpt>
<trkpt lat="43.4863034" lon="6.8971699"><ele></ele><time>2022-5-31T4:41:32Z</time></trkpt>
<trkpt lat="43.4863033" lon="6.8971698"><ele></ele><time>2022-5-31T4:41:35Z</time></trkpt>
<trkpt lat="43.4863032" lon="6.8971699"><ele></ele><time>2022-5-31T4:41:38Z</time></trkpt>
<trkpt lat="43.4863032" lon="6.8971700"><ele></ele><time>2022-5-31T4:41:41Z</time></trkpt>
<trkpt lat="43.4863030" lon="6.8971707"><ele></ele><time>2022-5-31T4:41:44Z</time></trkpt>
<trkpt lat="43.4863029" lon="6.8971708"><ele></ele><time>2022-5-31T4:41:47Z</time></trkpt>
<trkpt lat="43.4863023" lon="6.8971707"><ele></ele><time>2022-5-31T4:41:50Z</time></trkpt>
<trkpt lat="43.4863010" lon="6.8971710"><ele></ele><time>2022-5-31T4:41:53Z</time></trkpt>
<trkpt lat="43.4863008" lon="6.8971708"><ele></ele><time>2022-5-31T4:41:56Z</time></trkpt>
<trkpt lat="43.4863007" lon="6.8971707"><ele></ele><time>2022-5-31T4:41:59Z</time></trkpt>
<trkpt lat="43.4863005" lon="6.8971707"><ele></ele><time>2022-5-31T4:42:2Z</time></trkpt>
<trkpt lat="43.4863005" lon="6.8971708"><ele></ele><time>2022-5-31T4:42:5Z</time></trkpt>
<trkpt lat="43.4863007" lon="6.8971707"><ele></ele><time>2022-5-31T4:42:8Z</time></trkpt>
<trkpt lat="43.4863000" lon="6.8971704"><ele></ele><time>2022-5-31T4:42:11Z</time></trkpt>
<trkpt lat="43.4862997" lon="6.8971702"><ele></ele><time>2022-5-31T4:42:14Z</time></trkpt>
<trkpt lat="43.4862989" lon="6.8971699"><ele></ele><time>2022-5-31T4:42:17Z</time></trkpt>
<trkpt lat="43.4862982" lon="6.8971696"><ele></ele><time>2022-5-31T4:42:20Z</time></trkpt>
<trkpt lat="43.4862983" lon="6.8971694"><ele></ele><time>2022-5-31T4:42:23Z</time></trkpt>
<trkpt lat="43.4862987" lon="6.8971695"><ele></ele><time>2022-5-31T4:42:26Z</time></trkpt>
<trkpt lat="43.4862989" lon="6.8971700"><ele></ele><time>2022-5-31T4:42:29Z</time></trkpt>
<trkpt lat="43.4862987" lon="6.8971701"><ele></ele><time>2022-5-31T4:42:32Z</time></trkpt>
<trkpt lat="43.4862979" lon="6.8971704"><ele></ele><time>2022-5-31T4:42:35Z</time></trkpt>
<trkpt lat="43.4863004" lon="6.8971759"><ele></ele><time>2022-5-31T4:42:38Z</time></trkpt>
<trkpt lat="43.4862974" lon="6.8971757"><ele></ele><time>2022-5-31T4:42:41Z</time></trkpt>
<trkpt lat="43.4862954" lon="6.8971697"><ele></ele><time>2022-5-31T4:42:44Z</time></trkpt>
<trkpt lat="43.4862961" lon="6.8971686"><ele></ele><time>2022-5-31T4:42:47Z</time></trkpt>
<trkpt lat="43.4862965" lon="6.8971697"><ele></ele><time>2022-5-31T4:42:50Z</time></trkpt>
<trkpt lat="43.4862971" lon="6.8971681"><ele></ele><time>2022-5-31T4:42:53Z</time></trkpt>
<trkpt lat="43.4862974" lon="6.8971683"><ele></ele><time>2022-5-31T4:42:56Z</time></trkpt>
<trkpt lat="43.4862984" lon="6.8971677"><ele></ele><time>2022-5-31T4:42:59Z</time></trkpt>
<trkpt lat="43.4862991" lon="6.8971683"><ele></ele><time>2022-5-31T4:43:2Z</time></trkpt>
<trkpt lat="43.4862994" lon="6.8971688"><ele></ele><time>2022-5-31T4:43:5Z</time></trkpt>
<trkpt lat="43.4863004" lon="6.8971696"><ele></ele><time>2022-5-31T4:43:8Z</time></trkpt>
<trkpt lat="43.4863004" lon="6.8971698"><ele></ele><time>2022-5-31T4:43:11Z</time></trkpt>
<trkpt lat="43.4863006" lon="6.8971701"><ele></ele><time>2022-5-31T4:43:14Z</time></trkpt>
<trkpt lat="43.4863008" lon="6.8971704"><ele></ele><time>2022-5-31T4:43:17Z</time></trkpt>
<trkpt lat="43.4863010" lon="6.8971700"><ele></ele><time>2022-5-31T4:43:20Z</time></trkpt>
<trkpt lat="43.4863019" lon="6.8971703"><ele></ele><time>2022-5-31T4:43:23Z</time></trkpt>
<trkpt lat="43.4863029" lon="6.8971700"><ele></ele><time>2022-5-31T4:43:26Z</time></trkpt>
<trkpt lat="43.4863036" lon="6.8971700"><ele></ele><time>2022-5-31T4:43:29Z</time></trkpt>
<trkpt lat="43.4863046" lon="6.8971707"><ele></ele><time>2022-5-31T4:43:32Z</time></trkpt>
<trkpt lat="43.4863047" lon="6.8971711"><ele></ele><time>2022-5-31T4:43:35Z</time></trkpt>
<trkpt lat="43.4863054" lon="6.8971718"><ele></ele><time>2022-5-31T4:43:38Z</time></trkpt>
<trkpt lat="43.4863073" lon="6.8971726"><ele></ele><time>2022-5-31T4:43:41Z</time></trkpt>
<trkpt lat="43.4863070" lon="6.8971740"><ele></ele><time>2022-5-31T4:43:44Z</time></trkpt>
<trkpt lat="43.4863075" lon="6.8971747"><ele></ele><time>2022-5-31T4:43:47Z</time></trkpt>
<trkpt lat="43.4863083" lon="6.8971748"><ele></ele><time>2022-5-31T4:43:50Z</time></trkpt>
<trkpt lat="43.4863095" lon="6.8971751"><ele></ele><time>2022-5-31T4:43:53Z</time></trkpt>
<trkpt lat="43.4863099" lon="6.8971761"><ele></ele><time>2022-5-31T4:43:56Z</time></trkpt>
<trkpt lat="43.4863105" lon="6.8971779"><ele></ele><time>2022-5-31T4:43:59Z</time></trkpt>
<trkpt lat="43.4863112" lon="6.8971800"><ele></ele><time>2022-5-31T4:44:2Z</time></trkpt>
<trkpt lat="43.4863106" lon="6.8971805"><ele></ele><time>2022-5-31T4:44:5Z</time></trkpt>
<trkpt lat="43.4863113" lon="6.8971851"><ele></ele><time>2022-5-31T4:44:8Z</time></trkpt>
<trkpt lat="43.4863084" lon="6.8971750"><ele></ele><time>2022-5-31T4:44:11Z</time></trkpt>
<trkpt lat="43.4863046" lon="6.8971533"><ele></ele><time>2022-5-31T4:44:14Z</time></trkpt>
<trkpt lat="43.4863038" lon="6.8971301"><ele></ele><time>2022-5-31T4:44:17Z</time></trkpt>
<trkpt lat="43.4863036" lon="6.8971074"><ele></ele><time>2022-5-31T4:44:20Z</time></trkpt>
<trkpt lat="43.4863012" lon="6.8970823"><ele></ele><time>2022-5-31T4:44:23Z</time></trkpt>
<trkpt lat="43.4863002" lon="6.8970865"><ele></ele><time>2022-5-31T4:44:26Z</time></trkpt>
<trkpt lat="43.4863035" lon="6.8970723"><ele></ele><time>2022-5-31T4:44:29Z</time></trkpt>
<trkpt lat="43.4863073" lon="6.8970581"><ele></ele><time>2022-5-31T4:44:32Z</time></trkpt>
<trkpt lat="43.4863125" lon="6.8970318"><ele></ele><time>2022-5-31T4:44:35Z</time></trkpt>
<trkpt lat="43.4863172" lon="6.8969779"><ele></ele><time>2022-5-31T4:44:38Z</time></trkpt>
<trkpt lat="43.4863292" lon="6.8969119"><ele></ele><time>2022-5-31T4:44:41Z</time></trkpt>
<trkpt lat="43.4863389" lon="6.8968694"><ele></ele><time>2022-5-31T4:44:44Z</time></trkpt>
<trkpt lat="43.4863423" lon="6.8968375"><ele></ele><time>2022-5-31T4:44:47Z</time></trkpt>
<trkpt lat="43.4863332" lon="6.8968076"><ele></ele><time>2022-5-31T4:44:50Z</time></trkpt>
<trkpt lat="43.4863321" lon="6.8967623"><ele></ele><time>2022-5-31T4:44:53Z</time></trkpt>
<trkpt lat="43.4863321" lon="6.8967409"><ele></ele><time>2022-5-31T4:44:56Z</time></trkpt>
<trkpt lat="43.4863170" lon="6.8967419"><ele></ele><time>2022-5-31T4:44:59Z</time></trkpt>
<trkpt lat="43.4863081" lon="6.8967292"><ele></ele><time>2022-5-31T4:45:2Z</time></trkpt>
<trkpt lat="43.4862954" lon="6.8967120"><ele></ele><time>2022-5-31T4:45:5Z</time></trkpt>
<trkpt lat="43.4862765" lon="6.8967045"><ele></ele><time>2022-5-31T4:45:8Z</time></trkpt>
<trkpt lat="43.4862490" lon="6.8966934"><ele></ele><time>2022-5-31T4:45:11Z</time></trkpt>
<trkpt lat="43.4862273" lon="6.8966726"><ele></ele><time>2022-5-31T4:45:14Z</time></trkpt>
<trkpt lat="43.4862146" lon="6.8966417"><ele></ele><time>2022-5-31T4:45:17Z</time></trkpt>
<trkpt lat="43.4862045" lon="6.8966086"><ele></ele><time>2022-5-31T4:45:20Z</time></trkpt>
<trkpt lat="43.4861963" lon="6.8965673"><ele></ele><time>2022-5-31T4:45:23Z</time></trkpt>
<trkpt lat="43.4861893" lon="6.8965250"><ele></ele><time>2022-5-31T4:45:26Z</time></trkpt>
<trkpt lat="43.4861747" lon="6.8964874"><ele></ele><time>2022-5-31T4:45:29Z</time></trkpt>
<trkpt lat="43.4861594" lon="6.8964532"><ele></ele><time>2022-5-31T4:45:32Z</time></trkpt>
<trkpt lat="43.4861492" lon="6.8964188"><ele></ele><time>2022-5-31T4:45:35Z</time></trkpt>
<trkpt lat="43.4861483" lon="6.8963988"><ele></ele><time>2022-5-31T4:45:38Z</time></trkpt>
<trkpt lat="43.4861523" lon="6.8963929"><ele></ele><time>2022-5-31T4:45:41Z</time></trkpt>
<trkpt lat="43.4861556" lon="6.8963979"><ele></ele><time>2022-5-31T4:45:44Z</time></trkpt>
<trkpt lat="43.4861605" lon="6.8964038"><ele></ele><time>2022-5-31T4:45:47Z</time></trkpt>
<trkpt lat="43.4861599" lon="6.8964031"><ele></ele><time>2022-5-31T4:45:50Z</time></trkpt>
<trkpt lat="43.4861599" lon="6.8964031"><ele></ele><time>2022-5-31T4:45:53Z</time></trkpt>
<trkpt lat="43.4861599" lon="6.8964040"><ele></ele><time>2022-5-31T4:45:56Z</time></trkpt>
<trkpt lat="43.4861600" lon="6.8963970"><ele></ele><time>2022-5-31T4:45:59Z</time></trkpt>
<trkpt lat="43.4861577" lon="6.8963749"><ele></ele><time>2022-5-31T4:46:2Z</time></trkpt>
<trkpt lat="43.4861510" lon="6.8963526"><ele></ele><time>2022-5-31T4:46:5Z</time></trkpt>
<trkpt lat="43.4861471" lon="6.8963295"><ele></ele><time>2022-5-31T4:46:8Z</time></trkpt>
<trkpt lat="43.4861426" lon="6.8963088"><ele></ele><time>2022-5-31T4:46:11Z</time></trkpt>
<trkpt lat="43.4861356" lon="6.8962820"><ele></ele><time>2022-5-31T4:46:14Z</time></trkpt>
<trkpt lat="43.4861282" lon="6.8962549"><ele></ele><time>2022-5-31T4:46:17Z</time></trkpt>
<trkpt lat="43.4861219" lon="6.8962213"><ele></ele><time>2022-5-31T4:46:20Z</time></trkpt>
<trkpt lat="43.4861153" lon="6.8961858"><ele></ele><time>2022-5-31T4:46:23Z</time></trkpt>
<trkpt lat="43.4861114" lon="6.8961521"><ele></ele><time>2022-5-31T4:46:26Z</time></trkpt>
<trkpt lat="43.4861056" lon="6.8961211"><ele></ele><time>2022-5-31T4:46:29Z</time></trkpt>
<trkpt lat="43.4860921" lon="6.8960925"><ele></ele><time>2022-5-31T4:46:32Z</time></trkpt>
<trkpt lat="43.4860738" lon="6.8960592"><ele></ele><time>2022-5-31T4:46:35Z</time></trkpt>
<trkpt lat="43.4860679" lon="6.8960170"><ele></ele><time>2022-5-31T4:46:38Z</time></trkpt>
<trkpt lat="43.4860589" lon="6.8959738"><ele></ele><time>2022-5-31T4:46:41Z</time></trkpt>
<trkpt lat="43.4860495" lon="6.8959221"><ele></ele><time>2022-5-31T4:46:44Z</time></trkpt>
<trkpt lat="43.4860441" lon="6.8958758"><ele></ele><time>2022-5-31T4:46:47Z</time></trkpt>
<trkpt lat="43.4860386" lon="6.8958520"><ele></ele><time>2022-5-31T4:46:50Z</time></trkpt>
<trkpt lat="43.4860381" lon="6.8958293"><ele></ele><time>2022-5-31T4:46:53Z</time></trkpt>
<trkpt lat="43.4860356" lon="6.8958070"><ele></ele><time>2022-5-31T4:46:56Z</time></trkpt>
<trkpt lat="43.4860264" lon="6.8957933"><ele></ele><time>2022-5-31T4:46:59Z</time></trkpt>
<trkpt lat="43.4860197" lon="6.8957647"><ele></ele><time>2022-5-31T4:47:2Z</time></trkpt>
<trkpt lat="43.4860044" lon="6.8957375"><ele></ele><time>2022-5-31T4:47:5Z</time></trkpt>
<trkpt lat="43.4859949" lon="6.8956932"><ele></ele><time>2022-5-31T4:47:8Z</time></trkpt>
<trkpt lat="43.4859723" lon="6.8956598"><ele></ele><time>2022-5-31T4:47:11Z</time></trkpt>
<trkpt lat="43.4859692" lon="6.8956197"><ele></ele><time>2022-5-31T4:47:14Z</time></trkpt>
<trkpt lat="43.4859506" lon="6.8955927"><ele></ele><time>2022-5-31T4:47:17Z</time></trkpt>
<trkpt lat="43.4859349" lon="6.8955628"><ele></ele><time>2022-5-31T4:47:20Z</time></trkpt>
<trkpt lat="43.4859282" lon="6.8955460"><ele></ele><time>2022-5-31T4:47:23Z</time></trkpt>
<trkpt lat="43.4859223" lon="6.8955255"><ele></ele><time>2022-5-31T4:47:26Z</time></trkpt>
<trkpt lat="43.4859118" lon="6.8954947"><ele></ele><time>2022-5-31T4:47:29Z</time></trkpt>
<trkpt lat="43.4859077" lon="6.8954549"><ele></ele><time>2022-5-31T4:47:32Z</time></trkpt>
<trkpt lat="43.4859028" lon="6.8954179"><ele></ele><time>2022-5-31T4:47:35Z</time></trkpt>
<trkpt lat="43.4858856" lon="6.8953857"><ele></ele><time>2022-5-31T4:47:38Z</time></trkpt>
<trkpt lat="43.4858706" lon="6.8953491"><ele></ele><time>2022-5-31T4:47:41Z</time></trkpt>
<trkpt lat="43.4858590" lon="6.8953115"><ele></ele><time>2022-5-31T4:47:44Z</time></trkpt>
<trkpt lat="43.4858368" lon="6.8952718"><ele></ele><time>2022-5-31T4:47:47Z</time></trkpt>
<trkpt lat="43.4858249" lon="6.8952405"><ele></ele><time>2022-5-31T4:47:50Z</time></trkpt>
<trkpt lat="43.4858318" lon="6.8952077"><ele></ele><time>2022-5-31T4:47:53Z</time></trkpt>
<trkpt lat="43.4858417" lon="6.8951774"><ele></ele><time>2022-5-31T4:47:56Z</time></trkpt>
<trkpt lat="43.4858273" lon="6.8951612"><ele></ele><time>2022-5-31T4:47:59Z</time></trkpt>
<trkpt lat="43.4858039" lon="6.8951506"><ele></ele><time>2022-5-31T4:48:2Z</time></trkpt>
<trkpt lat="43.4857673" lon="6.8951429"><ele></ele><time>2022-5-31T4:48:5Z</time></trkpt>
<trkpt lat="43.4857457" lon="6.8951193"><ele></ele><time>2022-5-31T4:48:8Z</time></trkpt>
<trkpt lat="43.4857307" lon="6.8950911"><ele></ele><time>2022-5-31T4:48:11Z</time></trkpt>
<trkpt lat="43.4857031" lon="6.8950558"><ele></ele><time>2022-5-31T4:48:14Z</time></trkpt>
<trkpt lat="43.4856879" lon="6.8950172"><ele></ele><time>2022-5-31T4:48:17Z</time></trkpt>
<trkpt lat="43.4856527" lon="6.8949866"><ele></ele><time>2022-5-31T4:48:20Z</time></trkpt>
<trkpt lat="43.4856508" lon="6.8949552"><ele></ele><time>2022-5-31T4:48:23Z</time></trkpt>
<trkpt lat="43.4856425" lon="6.8949219"><ele></ele><time>2022-5-31T4:48:26Z</time></trkpt>
<trkpt lat="43.4856220" lon="6.8948865"><ele></ele><time>2022-5-31T4:48:29Z</time></trkpt>
<trkpt lat="43.4855884" lon="6.8948530"><ele></ele><time>2022-5-31T4:48:32Z</time></trkpt>
<trkpt lat="43.4855503" lon="6.8948153"><ele></ele><time>2022-5-31T4:48:35Z</time></trkpt>
<trkpt lat="43.4855264" lon="6.8947958"><ele></ele><time>2022-5-31T4:48:38Z</time></trkpt>
<trkpt lat="43.4854942" lon="6.8947827"><ele></ele><time>2022-5-31T4:48:41Z</time></trkpt>
<trkpt lat="43.4854837" lon="6.8947308"><ele></ele><time>2022-5-31T4:48:44Z</time></trkpt>
<trkpt lat="43.4854673" lon="6.8947128"><ele></ele><time>2022-5-31T4:48:47Z</time></trkpt>
<trkpt lat="43.4854368" lon="6.8946982"><ele></ele><time>2022-5-31T4:48:50Z</time></trkpt>
<trkpt lat="43.4854177" lon="6.8946743"><ele></ele><time>2022-5-31T4:48:53Z</time></trkpt>
<trkpt lat="43.4854061" lon="6.8946493"><ele></ele><time>2022-5-31T4:48:56Z</time></trkpt>
<trkpt lat="43.4853776" lon="6.8946355"><ele></ele><time>2022-5-31T4:48:59Z</time></trkpt>
<trkpt lat="43.4853414" lon="6.8946123"><ele></ele><time>2022-5-31T4:49:2Z</time></trkpt>
<trkpt lat="43.4853156" lon="6.8945825"><ele></ele><time>2022-5-31T4:49:5Z</time></trkpt>
<trkpt lat="43.4853145" lon="6.8945472"><ele></ele><time>2022-5-31T4:49:8Z</time></trkpt>
<trkpt lat="43.4853004" lon="6.8945112"><ele></ele><time>2022-5-31T4:49:11Z</time></trkpt>
<trkpt lat="43.4852909" lon="6.8944730"><ele></ele><time>2022-5-31T4:49:14Z</time></trkpt>
<trkpt lat="43.4852530" lon="6.8944393"><ele></ele><time>2022-5-31T4:49:17Z</time></trkpt>
<trkpt lat="43.4852288" lon="6.8944014"><ele></ele><time>2022-5-31T4:49:20Z</time></trkpt>
<trkpt lat="43.4852132" lon="6.8943585"><ele></ele><time>2022-5-31T4:49:23Z</time></trkpt>
<trkpt lat="43.4851743" lon="6.8943181"><ele></ele><time>2022-5-31T4:49:26Z</time></trkpt>
<trkpt lat="43.4851551" lon="6.8942839"><ele></ele><time>2022-5-31T4:49:29Z</time></trkpt>
<trkpt lat="43.4851197" lon="6.8942490"><ele></ele><time>2022-5-31T4:49:32Z</time></trkpt>
<trkpt lat="43.4850881" lon="6.8942106"><ele></ele><time>2022-5-31T4:49:35Z</time></trkpt>
<trkpt lat="43.4850853" lon="6.8941840"><ele></ele><time>2022-5-31T4:49:38Z</time></trkpt>
<trkpt lat="43.4850715" lon="6.8941606"><ele></ele><time>2022-5-31T4:49:41Z</time></trkpt>
<trkpt lat="43.4850867" lon="6.8941402"><ele></ele><time>2022-5-31T4:49:44Z</time></trkpt>
<trkpt lat="43.4850926" lon="6.8941431"><ele></ele><time>2022-5-31T4:49:47Z</time></trkpt>
<trkpt lat="43.4851118" lon="6.8941392"><ele></ele><time>2022-5-31T4:49:50Z</time></trkpt>
<trkpt lat="43.4851133" lon="6.8941327"><ele></ele><time>2022-5-31T4:49:53Z</time></trkpt>
<trkpt lat="43.4851097" lon="6.8941388"><ele></ele><time>2022-5-31T4:49:56Z</time></trkpt>
<trkpt lat="43.4851166" lon="6.8941364"><ele></ele><time>2022-5-31T4:49:59Z</time></trkpt>
<trkpt lat="43.4851182" lon="6.8941353"><ele></ele><time>2022-5-31T4:50:2Z</time></trkpt>
<trkpt lat="43.4851156" lon="6.8941247"><ele></ele><time>2022-5-31T4:50:5Z</time></trkpt>
<trkpt lat="43.4851047" lon="6.8941093"><ele></ele><time>2022-5-31T4:50:8Z</time></trkpt>
<trkpt lat="43.4850878" lon="6.8940769"><ele></ele><time>2022-5-31T4:50:11Z</time></trkpt>
<trkpt lat="43.4850727" lon="6.8940370"><ele></ele><time>2022-5-31T4:50:14Z</time></trkpt>
<trkpt lat="43.4850715" lon="6.8939980"><ele></ele><time>2022-5-31T4:50:17Z</time></trkpt>
<trkpt lat="43.4850587" lon="6.8939736"><ele></ele><time>2022-5-31T4:50:20Z</time></trkpt>
<trkpt lat="43.4850449" lon="6.8939516"><ele></ele><time>2022-5-31T4:50:23Z</time></trkpt>
<trkpt lat="43.4850317" lon="6.8939279"><ele></ele><time>2022-5-31T4:50:26Z</time></trkpt>
<trkpt lat="43.4850038" lon="6.8939067"><ele></ele><time>2022-5-31T4:50:29Z</time></trkpt>
<trkpt lat="43.4849857" lon="6.8938854"><ele></ele><time>2022-5-31T4:50:32Z</time></trkpt>
<trkpt lat="43.4849570" lon="6.8938599"><ele></ele><time>2022-5-31T4:50:35Z</time></trkpt>
<trkpt lat="43.4849351" lon="6.8938397"><ele></ele><time>2022-5-31T4:50:38Z</time></trkpt>
<trkpt lat="43.4849117" lon="6.8938284"><ele></ele><time>2022-5-31T4:50:41Z</time></trkpt>
<trkpt lat="43.4848890" lon="6.8938019"><ele></ele><time>2022-5-31T4:50:44Z</time></trkpt>
<trkpt lat="43.4848740" lon="6.8937746"><ele></ele><time>2022-5-31T4:50:47Z</time></trkpt>
<trkpt lat="43.4848442" lon="6.8937500"><ele></ele><time>2022-5-31T4:50:50Z</time></trkpt>
<trkpt lat="43.4848135" lon="6.8937294"><ele></ele><time>2022-5-31T4:50:53Z</time></trkpt>
<trkpt lat="43.4847870" lon="6.8937067"><ele></ele><time>2022-5-31T4:50:56Z</time></trkpt>
<trkpt lat="43.4847718" lon="6.8936745"><ele></ele><time>2022-5-31T4:50:59Z</time></trkpt>
<trkpt lat="43.4847679" lon="6.8936484"><ele></ele><time>2022-5-31T4:51:2Z</time></trkpt>
<trkpt lat="43.4847774" lon="6.8936469"><ele></ele><time>2022-5-31T4:51:5Z</time></trkpt>
<trkpt lat="43.4847745" lon="6.8936420"><ele></ele><time>2022-5-31T4:51:8Z</time></trkpt>
<trkpt lat="43.4847752" lon="6.8936478"><ele></ele><time>2022-5-31T4:51:11Z</time></trkpt>
<trkpt lat="43.4847803" lon="6.8936450"><ele></ele><time>2022-5-31T4:51:14Z</time></trkpt>
<trkpt lat="43.4847805" lon="6.8936442"><ele></ele><time>2022-5-31T4:51:17Z</time></trkpt>
<trkpt lat="43.4847811" lon="6.8936434"><ele></ele><time>2022-5-31T4:51:20Z</time></trkpt>
<trkpt lat="43.4847827" lon="6.8936420"><ele></ele><time>2022-5-31T4:51:23Z</time></trkpt>
<trkpt lat="43.4847839" lon="6.8936420"><ele></ele><time>2022-5-31T4:51:26Z</time></trkpt>
<trkpt lat="43.4847842" lon="6.8936413"><ele></ele><time>2022-5-31T4:51:29Z</time></trkpt>
<trkpt lat="43.4847841" lon="6.8936410"><ele></ele><time>2022-5-31T4:51:32Z</time></trkpt>
<trkpt lat="43.4847809" lon="6.8936347"><ele></ele><time>2022-5-31T4:51:35Z</time></trkpt>
<trkpt lat="43.4847690" lon="6.8936238"><ele></ele><time>2022-5-31T4:51:38Z</time></trkpt>
<trkpt lat="43.4847646" lon="6.8936166"><ele></ele><time>2022-5-31T4:51:41Z</time></trkpt>
<trkpt lat="43.4847639" lon="6.8936170"><ele></ele><time>2022-5-31T4:51:44Z</time></trkpt>
<trkpt lat="43.4847639" lon="6.8936161"><ele></ele><time>2022-5-31T4:51:47Z</time></trkpt>
<trkpt lat="43.4847652" lon="6.8936165"><ele></ele><time>2022-5-31T4:51:50Z</time></trkpt>
<trkpt lat="43.4847699" lon="6.8936145"><ele></ele><time>2022-5-31T4:51:53Z</time></trkpt>
<trkpt lat="43.4847714" lon="6.8936146"><ele></ele><time>2022-5-31T4:51:56Z</time></trkpt>
<trkpt lat="43.4847659" lon="6.8936026"><ele></ele><time>2022-5-31T4:51:59Z</time></trkpt>
<trkpt lat="43.4847671" lon="6.8936013"><ele></ele><time>2022-5-31T4:52:2Z</time></trkpt>
<trkpt lat="43.4847669" lon="6.8936013"><ele></ele><time>2022-5-31T4:52:5Z</time></trkpt>
<trkpt lat="43.4847683" lon="6.8936016"><ele></ele><time>2022-5-31T4:52:8Z</time></trkpt>
<trkpt lat="43.4847688" lon="6.8936018"><ele></ele><time>2022-5-31T4:52:11Z</time></trkpt>
<trkpt lat="43.4847694" lon="6.8936021"><ele></ele><time>2022-5-31T4:52:14Z</time></trkpt>
<trkpt lat="43.4847712" lon="6.8936024"><ele></ele><time>2022-5-31T4:52:17Z</time></trkpt>
<trkpt lat="43.4847713" lon="6.8936027"><ele></ele><time>2022-5-31T4:52:20Z</time></trkpt>
<trkpt lat="43.4847716" lon="6.8936030"><ele></ele><time>2022-5-31T4:52:23Z</time></trkpt>
<trkpt lat="43.4847739" lon="6.8936036"><ele></ele><time>2022-5-31T4:52:26Z</time></trkpt>
<trkpt lat="43.4847738" lon="6.8936043"><ele></ele><time>2022-5-31T4:52:29Z</time></trkpt>
<trkpt lat="43.4847768" lon="6.8936051"><ele></ele><time>2022-5-31T4:52:32Z</time></trkpt>
<trkpt lat="43.4847773" lon="6.8936057"><ele></ele><time>2022-5-31T4:52:35Z</time></trkpt>
<trkpt lat="43.4847797" lon="6.8936062"><ele></ele><time>2022-5-31T4:52:38Z</time></trkpt>
<trkpt lat="43.4847830" lon="6.8936044"><ele></ele><time>2022-5-31T4:52:41Z</time></trkpt>
<trkpt lat="43.4847708" lon="6.8935926"><ele></ele><time>2022-5-31T4:52:44Z</time></trkpt>
<trkpt lat="43.4847755" lon="6.8935963"><ele></ele><time>2022-5-31T4:52:47Z</time></trkpt>
<trkpt lat="43.4847870" lon="6.8935906"><ele></ele><time>2022-5-31T4:52:50Z</time></trkpt>
<trkpt lat="43.4847985" lon="6.8935892"><ele></ele><time>2022-5-31T4:52:53Z</time></trkpt>
<trkpt lat="43.4847962" lon="6.8935784"><ele></ele><time>2022-5-31T4:52:56Z</time></trkpt>
<trkpt lat="43.4848120" lon="6.8935725"><ele></ele><time>2022-5-31T4:52:59Z</time></trkpt>
<trkpt lat="43.4848136" lon="6.8935727"><ele></ele><time>2022-5-31T4:53:2Z</time></trkpt>
<trkpt lat="43.4848145" lon="6.8935732"><ele></ele><time>2022-5-31T4:53:5Z</time></trkpt>
<trkpt lat="43.4848154" lon="6.8935733"><ele></ele><time>2022-5-31T4:53:8Z</time></trkpt>
<trkpt lat="43.4848163" lon="6.8935738"><ele></ele><time>2022-5-31T4:53:11Z</time></trkpt>
<trkpt lat="43.4848152" lon="6.8935751"><ele></ele><time>2022-5-31T4:53:14Z</time></trkpt>
<trkpt lat="43.4848169" lon="6.8935760"><ele></ele><time>2022-5-31T4:53:17Z</time></trkpt>
<trkpt lat="43.4848331" lon="6.8935791"><ele></ele><time>2022-5-31T4:53:20Z</time></trkpt>
<trkpt lat="43.4848383" lon="6.8935831"><ele></ele><time>2022-5-31T4:53:23Z</time></trkpt>
<trkpt lat="43.4848592" lon="6.8935905"><ele></ele><time>2022-5-31T4:53:26Z</time></trkpt>
<trkpt lat="43.4848587" lon="6.8935920"><ele></ele><time>2022-5-31T4:53:29Z</time></trkpt>
<trkpt lat="43.4848604" lon="6.8935916"><ele></ele><time>2022-5-31T4:53:32Z</time></trkpt>
<trkpt lat="43.4848606" lon="6.8935910"><ele></ele><time>2022-5-31T4:53:35Z</time></trkpt>
<trkpt lat="43.4848610" lon="6.8935908"><ele></ele><time>2022-5-31T4:53:38Z</time></trkpt>
<trkpt lat="43.4848618" lon="6.8935911"><ele></ele><time>2022-5-31T4:53:41Z</time></trkpt>
<trkpt lat="43.4848628" lon="6.8935913"><ele></ele><time>2022-5-31T4:53:44Z</time></trkpt>
<trkpt lat="43.4848635" lon="6.8935921"><ele></ele><time>2022-5-31T4:53:47Z</time></trkpt>
<trkpt lat="43.4848621" lon="6.8935928"><ele></ele><time>2022-5-31T4:53:50Z</time></trkpt>
<trkpt lat="43.4848537" lon="6.8935966"><ele></ele><time>2022-5-31T4:53:53Z</time></trkpt>
<trkpt lat="43.4848603" lon="6.8935973"><ele></ele><time>2022-5-31T4:53:56Z</time></trkpt>
<trkpt lat="43.4848615" lon="6.8935975"><ele></ele><time>2022-5-31T4:53:59Z</time></trkpt>
<trkpt lat="43.4848613" lon="6.8935971"><ele></ele><time>2022-5-31T4:54:2Z</time></trkpt>
<trkpt lat="43.4848602" lon="6.8935975"><ele></ele><time>2022-5-31T4:54:5Z</time></trkpt>
<trkpt lat="43.4848605" lon="6.8935971"><ele></ele><time>2022-5-31T4:54:8Z</time></trkpt>
<trkpt lat="43.4848608" lon="6.8935966"><ele></ele><time>2022-5-31T4:54:11Z</time></trkpt>
<trkpt lat="43.4848616" lon="6.8935959"><ele></ele><time>2022-5-31T4:54:14Z</time></trkpt>
<trkpt lat="43.4848615" lon="6.8935951"><ele></ele><time>2022-5-31T4:54:17Z</time></trkpt>
<trkpt lat="43.4848622" lon="6.8935958"><ele></ele><time>2022-5-31T4:54:20Z</time></trkpt>
<trkpt lat="43.4848523" lon="6.8935930"><ele></ele><time>2022-5-31T4:54:23Z</time></trkpt>
<trkpt lat="43.4848423" lon="6.8936239"><ele></ele><time>2022-5-31T4:54:26Z</time></trkpt>
<trkpt lat="43.4848594" lon="6.8936122"><ele></ele><time>2022-5-31T4:54:29Z</time></trkpt>
<trkpt lat="43.4848593" lon="6.8936092"><ele></ele><time>2022-5-31T4:54:32Z</time></trkpt>
<trkpt lat="43.4848596" lon="6.8936067"><ele></ele><time>2022-5-31T4:54:35Z</time></trkpt>
<trkpt lat="43.4848550" lon="6.8936089"><ele></ele><time>2022-5-31T4:54:38Z</time></trkpt>
<trkpt lat="43.4848558" lon="6.8936084"><ele></ele><time>2022-5-31T4:54:41Z</time></trkpt>
<trkpt lat="43.4848560" lon="6.8936081"><ele></ele><time>2022-5-31T4:54:44Z</time></trkpt>
<trkpt lat="43.4848482" lon="6.8936148"><ele></ele><time>2022-5-31T4:54:47Z</time></trkpt>
<trkpt lat="43.4848471" lon="6.8936171"><ele></ele><time>2022-5-31T4:54:50Z</time></trkpt>
<trkpt lat="43.4848405" lon="6.8936207"><ele></ele><time>2022-5-31T4:54:53Z</time></trkpt>
<trkpt lat="43.4848355" lon="6.8936252"><ele></ele><time>2022-5-31T4:54:56Z</time></trkpt>
<trkpt lat="43.4848346" lon="6.8936266"><ele></ele><time>2022-5-31T4:54:59Z</time></trkpt>
<trkpt lat="43.4848347" lon="6.8936262"><ele></ele><time>2022-5-31T4:55:2Z</time></trkpt>
<trkpt lat="43.4848352" lon="6.8936283"><ele></ele><time>2022-5-31T4:55:5Z</time></trkpt>
<trkpt lat="43.4847985" lon="6.8936539"><ele></ele><time>2022-5-31T4:55:8Z</time></trkpt>
<trkpt lat="43.4848093" lon="6.8936314"><ele></ele><time>2022-5-31T4:55:11Z</time></trkpt>
<trkpt lat="43.4848248" lon="6.8936146"><ele></ele><time>2022-5-31T4:55:14Z</time></trkpt>
<trkpt lat="43.4848257" lon="6.8936136"><ele></ele><time>2022-5-31T4:55:17Z</time></trkpt>
<trkpt lat="43.4848270" lon="6.8936148"><ele></ele><time>2022-5-31T4:55:20Z</time></trkpt>
<trkpt lat="43.4848251" lon="6.8936155"><ele></ele><time>2022-5-31T4:55:23Z</time></trkpt>
<trkpt lat="43.4848250" lon="6.8936161"><ele></ele><time>2022-5-31T4:55:26Z</time></trkpt>
<trkpt lat="43.4848252" lon="6.8936156"><ele></ele><time>2022-5-31T4:55:29Z</time></trkpt>
<trkpt lat="43.4848253" lon="6.8936150"><ele></ele><time>2022-5-31T4:55:32Z</time></trkpt>
<trkpt lat="43.4848228" lon="6.8936148"><ele></ele><time>2022-5-31T4:55:35Z</time></trkpt>
<trkpt lat="43.4848102" lon="6.8936294"><ele></ele><time>2022-5-31T4:55:38Z</time></trkpt>
<trkpt lat="43.4848174" lon="6.8936297"><ele></ele><time>2022-5-31T4:55:41Z</time></trkpt>
<trkpt lat="43.4848311" lon="6.8936270"><ele></ele><time>2022-5-31T4:55:44Z</time></trkpt>
<trkpt lat="43.4848309" lon="6.8936269"><ele></ele><time>2022-5-31T4:55:47Z</time></trkpt>
<trkpt lat="43.4848421" lon="6.8936220"><ele></ele><time>2022-5-31T4:55:50Z</time></trkpt>
<trkpt lat="43.4848304" lon="6.8936179"><ele></ele><time>2022-5-31T4:55:53Z</time></trkpt>
<trkpt lat="43.4848258" lon="6.8936113"><ele></ele><time>2022-5-31T4:55:56Z</time></trkpt>
<trkpt lat="43.4848254" lon="6.8936112"><ele></ele><time>2022-5-31T4:55:59Z</time></trkpt>
<trkpt lat="43.4848256" lon="6.8936115"><ele></ele><time>2022-5-31T4:56:2Z</time></trkpt>
<trkpt lat="43.4848256" lon="6.8936116"><ele></ele><time>2022-5-31T4:56:5Z</time></trkpt>
<trkpt lat="43.4848251" lon="6.8936121"><ele></ele><time>2022-5-31T4:56:8Z</time></trkpt>
<trkpt lat="43.4848248" lon="6.8936131"><ele></ele><time>2022-5-31T4:56:11Z</time></trkpt>
<trkpt lat="43.4848244" lon="6.8936133"><ele></ele><time>2022-5-31T4:56:14Z</time></trkpt>
<trkpt lat="43.4848244" lon="6.8936134"><ele></ele><time>2022-5-31T4:56:17Z</time></trkpt>
<trkpt lat="43.4848242" lon="6.8936133"><ele></ele><time>2022-5-31T4:56:20Z</time></trkpt>
<trkpt lat="43.4848243" lon="6.8936129"><ele></ele><time>2022-5-31T4:56:23Z</time></trkpt>
<trkpt lat="43.4848251" lon="6.8936127"><ele></ele><time>2022-5-31T4:56:26Z</time></trkpt>
<trkpt lat="43.4848263" lon="6.8936122"><ele></ele><time>2022-5-31T4:56:29Z</time></trkpt>
<trkpt lat="43.4848268" lon="6.8936121"><ele></ele><time>2022-5-31T4:56:32Z</time></trkpt>
<trkpt lat="43.4848303" lon="6.8936145"><ele></ele><time>2022-5-31T4:56:35Z</time></trkpt>
<trkpt lat="43.4848342" lon="6.8936156"><ele></ele><time>2022-5-31T4:56:38Z</time></trkpt>
<trkpt lat="43.4848331" lon="6.8936161"><ele></ele><time>2022-5-31T4:56:41Z</time></trkpt>
<trkpt lat="43.4848345" lon="6.8936156"><ele></ele><time>2022-5-31T4:56:44Z</time></trkpt>
<trkpt lat="43.4848341" lon="6.8936157"><ele></ele><time>2022-5-31T4:56:47Z</time></trkpt>
<trkpt lat="43.4848350" lon="6.8936153"><ele></ele><time>2022-5-31T4:56:50Z</time></trkpt>
<trkpt lat="43.4848375" lon="6.8936136"><ele></ele><time>2022-5-31T4:56:53Z</time></trkpt>
<trkpt lat="43.4848421" lon="6.8936122"><ele></ele><time>2022-5-31T4:56:56Z</time></trkpt>
<trkpt lat="43.4848432" lon="6.8936111"><ele></ele><time>2022-5-31T4:56:59Z</time></trkpt>
<trkpt lat="43.4848446" lon="6.8936018"><ele></ele><time>2022-5-31T4:57:2Z</time></trkpt>
<trkpt lat="43.4848463" lon="6.8936010"><ele></ele><time>2022-5-31T4:57:5Z</time></trkpt>
<trkpt lat="43.4848462" lon="6.8936002"><ele></ele><time>2022-5-31T4:57:8Z</time></trkpt>
<trkpt lat="43.4848453" lon="6.8935992"><ele></ele><time>2022-5-31T4:57:11Z</time></trkpt>
<trkpt lat="43.4848438" lon="6.8935979"><ele></ele><time>2022-5-31T4:57:14Z</time></trkpt>
<trkpt lat="43.4848409" lon="6.8935958"><ele></ele><time>2022-5-31T4:57:17Z</time></trkpt>
<trkpt lat="43.4848397" lon="6.8935943"><ele></ele><time>2022-5-31T4:57:20Z</time></trkpt>
<trkpt lat="43.4848386" lon="6.8935933"><ele></ele><time>2022-5-31T4:57:23Z</time></trkpt>
<trkpt lat="43.4848374" lon="6.8935923"><ele></ele><time>2022-5-31T4:57:26Z</time></trkpt>
<trkpt lat="43.4848360" lon="6.8935916"><ele></ele><time>2022-5-31T4:57:29Z</time></trkpt>
<trkpt lat="43.4848335" lon="6.8935909"><ele></ele><time>2022-5-31T4:57:32Z</time></trkpt>
<trkpt lat="43.4848319" lon="6.8935896"><ele></ele><time>2022-5-31T4:57:35Z</time></trkpt>
<trkpt lat="43.4848295" lon="6.8935881"><ele></ele><time>2022-5-31T4:57:38Z</time></trkpt>
<trkpt lat="43.4848276" lon="6.8935872"><ele></ele><time>2022-5-31T4:57:41Z</time></trkpt>
<trkpt lat="43.4848258" lon="6.8935860"><ele></ele><time>2022-5-31T4:57:44Z</time></trkpt>
<trkpt lat="43.4848250" lon="6.8935854"><ele></ele><time>2022-5-31T4:57:47Z</time></trkpt>
<trkpt lat="43.4848242" lon="6.8935853"><ele></ele><time>2022-5-31T4:57:50Z</time></trkpt>
<trkpt lat="43.4848226" lon="6.8935849"><ele></ele><time>2022-5-31T4:57:53Z</time></trkpt>
<trkpt lat="43.4848215" lon="6.8935845"><ele></ele><time>2022-5-31T4:57:56Z</time></trkpt>
<trkpt lat="43.4848193" lon="6.8935837"><ele></ele><time>2022-5-31T4:57:59Z</time></trkpt>
<trkpt lat="43.4848190" lon="6.8935829"><ele></ele><time>2022-5-31T4:58:2Z</time></trkpt>
<trkpt lat="43.4848180" lon="6.8935831"><ele></ele><time>2022-5-31T4:58:5Z</time></trkpt>
<trkpt lat="43.4848174" lon="6.8935830"><ele></ele><time>2022-5-31T4:58:8Z</time></trkpt>
<trkpt lat="43.4848160" lon="6.8935834"><ele></ele><time>2022-5-31T4:58:11Z</time></trkpt>
<trkpt lat="43.4848146" lon="6.8935840"><ele></ele><time>2022-5-31T4:58:14Z</time></trkpt>
<trkpt lat="43.4848114" lon="6.8935843"><ele></ele><time>2022-5-31T4:58:17Z</time></trkpt>
<trkpt lat="43.4848108" lon="6.8935842"><ele></ele><time>2022-5-31T4:58:20Z</time></trkpt>
<trkpt lat="43.4848111" lon="6.8935839"><ele></ele><time>2022-5-31T4:58:23Z</time></trkpt>
<trkpt lat="43.4848104" lon="6.8935841"><ele></ele><time>2022-5-31T4:58:26Z</time></trkpt>
<trkpt lat="43.4848101" lon="6.8935845"><ele></ele><time>2022-5-31T4:58:29Z</time></trkpt>
<trkpt lat="43.4848101" lon="6.8935846"><ele></ele><time>2022-5-31T4:58:32Z</time></trkpt>
<trkpt lat="43.4848104" lon="6.8935845"><ele></ele><time>2022-5-31T4:58:35Z</time></trkpt>
<trkpt lat="43.4848085" lon="6.8935841"><ele></ele><time>2022-5-31T4:58:38Z</time></trkpt>
<trkpt lat="43.4848092" lon="6.8935853"><ele></ele><time>2022-5-31T4:58:41Z</time></trkpt>
<trkpt lat="43.4848107" lon="6.8935859"><ele></ele><time>2022-5-31T4:58:44Z</time></trkpt>
<trkpt lat="43.4848125" lon="6.8935869"><ele></ele><time>2022-5-31T4:58:47Z</time></trkpt>
<trkpt lat="43.4848110" lon="6.8935878"><ele></ele><time>2022-5-31T4:58:50Z</time></trkpt>
<trkpt lat="43.4848123" lon="6.8935884"><ele></ele><time>2022-5-31T4:58:53Z</time></trkpt>
<trkpt lat="43.4848065" lon="6.8935813"><ele></ele><time>2022-5-31T4:58:56Z</time></trkpt>
<trkpt lat="43.4847906" lon="6.8935775"><ele></ele><time>2022-5-31T4:58:59Z</time></trkpt>
<trkpt lat="43.4847794" lon="6.8935651"><ele></ele><time>2022-5-31T4:59:2Z</time></trkpt>
<trkpt lat="43.4847787" lon="6.8935649"><ele></ele><time>2022-5-31T4:59:5Z</time></trkpt>
<trkpt lat="43.4847788" lon="6.8935647"><ele></ele><time>2022-5-31T4:59:8Z</time></trkpt>
<trkpt lat="43.4847792" lon="6.8935643"><ele></ele><time>2022-5-31T4:59:11Z</time></trkpt>
<trkpt lat="43.4847795" lon="6.8935641"><ele></ele><time>2022-5-31T4:59:14Z</time></trkpt>
<trkpt lat="43.4847780" lon="6.8935637"><ele></ele><time>2022-5-31T4:59:17Z</time></trkpt>
<trkpt lat="43.4847781" lon="6.8935633"><ele></ele><time>2022-5-31T4:59:20Z</time></trkpt>
<trkpt lat="43.4847774" lon="6.8935624"><ele></ele><time>2022-5-31T4:59:23Z</time></trkpt>
<trkpt lat="43.4847766" lon="6.8935619"><ele></ele><time>2022-5-31T4:59:26Z</time></trkpt>
<trkpt lat="43.4847763" lon="6.8935610"><ele></ele><time>2022-5-31T4:59:29Z</time></trkpt>
<trkpt lat="43.4847752" lon="6.8935598"><ele></ele><time>2022-5-31T4:59:32Z</time></trkpt>
<trkpt lat="43.4847748" lon="6.8935593"><ele></ele><time>2022-5-31T4:59:35Z</time></trkpt>
<trkpt lat="43.4847754" lon="6.8935590"><ele></ele><time>2022-5-31T4:59:38Z</time></trkpt>
<trkpt lat="43.4847749" lon="6.8935585"><ele></ele><time>2022-5-31T4:59:41Z</time></trkpt>
<trkpt lat="43.4847751" lon="6.8935581"><ele></ele><time>2022-5-31T4:59:44Z</time></trkpt>
<trkpt lat="43.4847753" lon="6.8935579"><ele></ele><time>2022-5-31T4:59:47Z</time></trkpt>
<trkpt lat="43.4847755" lon="6.8935580"><ele></ele><time>2022-5-31T4:59:50Z</time></trkpt>
<trkpt lat="43.4847761" lon="6.8935581"><ele></ele><time>2022-5-31T4:59:53Z</time></trkpt>
<trkpt lat="43.4847693" lon="6.8935593"><ele></ele><time>2022-5-31T4:59:56Z</time></trkpt>
<trkpt lat="43.4847778" lon="6.8935605"><ele></ele><time>2022-5-31T4:59:59Z</time></trkpt>
<trkpt lat="43.4847761" lon="6.8935573"><ele></ele><time>2022-5-31T5:0:2Z</time></trkpt>
<trkpt lat="43.4847745" lon="6.8935408"><ele></ele><time>2022-5-31T5:0:5Z</time></trkpt>
<trkpt lat="43.4847640" lon="6.8935040"><ele></ele><time>2022-5-31T5:0:8Z</time></trkpt>
<trkpt lat="43.4847448" lon="6.8934633"><ele></ele><time>2022-5-31T5:0:11Z</time></trkpt>
<trkpt lat="43.4847195" lon="6.8934197"><ele></ele><time>2022-5-31T5:0:14Z</time></trkpt>
<trkpt lat="43.4846932" lon="6.8933818"><ele></ele><time>2022-5-31T5:0:17Z</time></trkpt>
<trkpt lat="43.4846733" lon="6.8933402"><ele></ele><time>2022-5-31T5:0:20Z</time></trkpt>
<trkpt lat="43.4846541" lon="6.8933000"><ele></ele><time>2022-5-31T5:0:23Z</time></trkpt>
<trkpt lat="43.4846271" lon="6.8932533"><ele></ele><time>2022-5-31T5:0:26Z</time></trkpt>
<trkpt lat="43.4845936" lon="6.8932053"><ele></ele><time>2022-5-31T5:0:29Z</time></trkpt>
<trkpt lat="43.4845598" lon="6.8931620"><ele></ele><time>2022-5-31T5:0:32Z</time></trkpt>
<trkpt lat="43.4845276" lon="6.8931165"><ele></ele><time>2022-5-31T5:0:35Z</time></trkpt>
<trkpt lat="43.4845216" lon="6.8930832"><ele></ele><time>2022-5-31T5:0:38Z</time></trkpt>
<trkpt lat="43.4844931" lon="6.8930478"><ele></ele><time>2022-5-31T5:0:41Z</time></trkpt>
<trkpt lat="43.4844635" lon="6.8930123"><ele></ele><time>2022-5-31T5:0:44Z</time></trkpt>
<trkpt lat="43.4844403" lon="6.8929777"><ele></ele><time>2022-5-31T5:0:47Z</time></trkpt>
<trkpt lat="43.4844250" lon="6.8929513"><ele></ele><time>2022-5-31T5:0:50Z</time></trkpt>
<trkpt lat="43.4843690" lon="6.8929102"><ele></ele><time>2022-5-31T5:0:53Z</time></trkpt>
<trkpt lat="43.4843636" lon="6.8928544"><ele></ele><time>2022-5-31T5:0:56Z</time></trkpt>
<trkpt lat="43.4843382" lon="6.8928121"><ele></ele><time>2022-5-31T5:0:59Z</time></trkpt>
<trkpt lat="43.4843002" lon="6.8927706"><ele></ele><time>2022-5-31T5:1:2Z</time></trkpt>
<trkpt lat="43.4842585" lon="6.8927221"><ele></ele><time>2022-5-31T5:1:5Z</time></trkpt>
<trkpt lat="43.4842255" lon="6.8926743"><ele></ele><time>2022-5-31T5:1:8Z</time></trkpt>
<trkpt lat="43.4842014" lon="6.8926234"><ele></ele><time>2022-5-31T5:1:11Z</time></trkpt>
<trkpt lat="43.4841776" lon="6.8925783"><ele></ele><time>2022-5-31T5:1:14Z</time></trkpt>
<trkpt lat="43.4841552" lon="6.8925396"><ele></ele><time>2022-5-31T5:1:17Z</time></trkpt>
<trkpt lat="43.4841304" lon="6.8925067"><ele></ele><time>2022-5-31T5:1:20Z</time></trkpt>
<trkpt lat="43.4841083" lon="6.8924695"><ele></ele><time>2022-5-31T5:1:23Z</time></trkpt>
<trkpt lat="43.4840824" lon="6.8924311"><ele></ele><time>2022-5-31T5:1:26Z</time></trkpt>
<trkpt lat="43.4840606" lon="6.8923963"><ele></ele><time>2022-5-31T5:1:29Z</time></trkpt>
<trkpt lat="43.4840274" lon="6.8923651"><ele></ele><time>2022-5-31T5:1:32Z</time></trkpt>
<trkpt lat="43.4839929" lon="6.8923388"><ele></ele><time>2022-5-31T5:1:35Z</time></trkpt>
<trkpt lat="43.4839572" lon="6.8923009"><ele></ele><time>2022-5-31T5:1:38Z</time></trkpt>
<trkpt lat="43.4839381" lon="6.8922636"><ele></ele><time>2022-5-31T5:1:41Z</time></trkpt>
<trkpt lat="43.4839136" lon="6.8922384"><ele></ele><time>2022-5-31T5:1:44Z</time></trkpt>
<trkpt lat="43.4838844" lon="6.8922074"><ele></ele><time>2022-5-31T5:1:47Z</time></trkpt>
<trkpt lat="43.4838537" lon="6.8921724"><ele></ele><time>2022-5-31T5:1:50Z</time></trkpt>
<trkpt lat="43.4838284" lon="6.8921379"><ele></ele><time>2022-5-31T5:1:53Z</time></trkpt>
<trkpt lat="43.4837996" lon="6.8921020"><ele></ele><time>2022-5-31T5:1:56Z</time></trkpt>
<trkpt lat="43.4837697" lon="6.8920674"><ele></ele><time>2022-5-31T5:1:59Z</time></trkpt>
<trkpt lat="43.4837422" lon="6.8920352"><ele></ele><time>2022-5-31T5:2:2Z</time></trkpt>
<trkpt lat="43.4837152" lon="6.8920027"><ele></ele><time>2022-5-31T5:2:5Z</time></trkpt>
<trkpt lat="43.4836924" lon="6.8919608"><ele></ele><time>2022-5-31T5:2:8Z</time></trkpt>
<trkpt lat="43.4836713" lon="6.8919156"><ele></ele><time>2022-5-31T5:2:11Z</time></trkpt>
<trkpt lat="43.4836472" lon="6.8918759"><ele></ele><time>2022-5-31T5:2:14Z</time></trkpt>
<trkpt lat="43.4836230" lon="6.8918292"><ele></ele><time>2022-5-31T5:2:17Z</time></trkpt>
<trkpt lat="43.4836097" lon="6.8917766"><ele></ele><time>2022-5-31T5:2:20Z</time></trkpt>
<trkpt lat="43.4835949" lon="6.8917133"><ele></ele><time>2022-5-31T5:2:23Z</time></trkpt>
<trkpt lat="43.4835763" lon="6.8916558"><ele></ele><time>2022-5-31T5:2:26Z</time></trkpt>
<trkpt lat="43.4835505" lon="6.8916092"><ele></ele><time>2022-5-31T5:2:29Z</time></trkpt>
<trkpt lat="43.4835159" lon="6.8915740"><ele></ele><time>2022-5-31T5:2:32Z</time></trkpt>
<trkpt lat="43.4834955" lon="6.8915298"><ele></ele><time>2022-5-31T5:2:35Z</time></trkpt>
<trkpt lat="43.4834844" lon="6.8914823"><ele></ele><time>2022-5-31T5:2:38Z</time></trkpt>
<trkpt lat="43.4834760" lon="6.8914360"><ele></ele><time>2022-5-31T5:2:41Z</time></trkpt>
<trkpt lat="43.4834533" lon="6.8913906"><ele></ele><time>2022-5-31T5:2:44Z</time></trkpt>
<trkpt lat="43.4834339" lon="6.8913389"><ele></ele><time>2022-5-31T5:2:47Z</time></trkpt>
<trkpt lat="43.4834167" lon="6.8912791"><ele></ele><time>2022-5-31T5:2:50Z</time></trkpt>
<trkpt lat="43.4834210" lon="6.8912267"><ele></ele><time>2022-5-31T5:2:53Z</time></trkpt>
<trkpt lat="43.4834306" lon="6.8911842"><ele></ele><time>2022-5-31T5:2:56Z</time></trkpt>
<trkpt lat="43.4834400" lon="6.8911519"><ele></ele><time>2022-5-31T5:2:59Z</time></trkpt>
<trkpt lat="43.4834419" lon="6.8911183"><ele></ele><time>2022-5-31T5:3:2Z</time></trkpt>
<trkpt lat="43.4834466" lon="6.8910780"><ele></ele><time>2022-5-31T5:3:5Z</time></trkpt>
<trkpt lat="43.4834685" lon="6.8910457"><ele></ele><time>2022-5-31T5:3:8Z</time></trkpt>
<trkpt lat="43.4834850" lon="6.8910226"><ele></ele><time>2022-5-31T5:3:11Z</time></trkpt>
<trkpt lat="43.4834863" lon="6.8909906"><ele></ele><time>2022-5-31T5:3:14Z</time></trkpt>
<trkpt lat="43.4834708" lon="6.8909593"><ele></ele><time>2022-5-31T5:3:17Z</time></trkpt>
<trkpt lat="43.4834521" lon="6.8909340"><ele></ele><time>2022-5-31T5:3:20Z</time></trkpt>
<trkpt lat="43.4834289" lon="6.8909150"><ele></ele><time>2022-5-31T5:3:23Z</time></trkpt>
<trkpt lat="43.4834081" lon="6.8908953"><ele></ele><time>2022-5-31T5:3:26Z</time></trkpt>
<trkpt lat="43.4833867" lon="6.8908732"><ele></ele><time>2022-5-31T5:3:29Z</time></trkpt>
<trkpt lat="43.4833665" lon="6.8908368"><ele></ele><time>2022-5-31T5:3:32Z</time></trkpt>
<trkpt lat="43.4833519" lon="6.8907969"><ele></ele><time>2022-5-31T5:3:35Z</time></trkpt>
<trkpt lat="43.4833470" lon="6.8907526"><ele></ele><time>2022-5-31T5:3:38Z</time></trkpt>
<trkpt lat="43.4833507" lon="6.8907016"><ele></ele><time>2022-5-31T5:3:41Z</time></trkpt>
<trkpt lat="43.4833545" lon="6.8906500"><ele></ele><time>2022-5-31T5:3:44Z</time></trkpt>
<trkpt lat="43.4833548" lon="6.8906026"><ele></ele><time>2022-5-31T5:3:47Z</time></trkpt>
<trkpt lat="43.4833554" lon="6.8905570"><ele></ele><time>2022-5-31T5:3:50Z</time></trkpt>
<trkpt lat="43.4833595" lon="6.8905130"><ele></ele><time>2022-5-31T5:3:53Z</time></trkpt>
<trkpt lat="43.4833646" lon="6.8904688"><ele></ele><time>2022-5-31T5:3:56Z</time></trkpt>
<trkpt lat="43.4833696" lon="6.8904220"><ele></ele><time>2022-5-31T5:3:59Z</time></trkpt>
<trkpt lat="43.4833825" lon="6.8903835"><ele></ele><time>2022-5-31T5:4:2Z</time></trkpt>
<trkpt lat="43.4833943" lon="6.8903413"><ele></ele><time>2022-5-31T5:4:5Z</time></trkpt>
<trkpt lat="43.4833983" lon="6.8902940"><ele></ele><time>2022-5-31T5:4:8Z</time></trkpt>
<trkpt lat="43.4833997" lon="6.8902464"><ele></ele><time>2022-5-31T5:4:11Z</time></trkpt>
<trkpt lat="43.4834005" lon="6.8902009"><ele></ele><time>2022-5-31T5:4:14Z</time></trkpt>
<trkpt lat="43.4834013" lon="6.8901569"><ele></ele><time>2022-5-31T5:4:17Z</time></trkpt>
<trkpt lat="43.4834017" lon="6.8901168"><ele></ele><time>2022-5-31T5:4:20Z</time></trkpt>
<trkpt lat="43.4834005" lon="6.8900687"><ele></ele><time>2022-5-31T5:4:23Z</time></trkpt>
<trkpt lat="43.4833801" lon="6.8900368"><ele></ele><time>2022-5-31T5:4:26Z</time></trkpt>
<trkpt lat="43.4833706" lon="6.8899997"><ele></ele><time>2022-5-31T5:4:29Z</time></trkpt>
<trkpt lat="43.4833752" lon="6.8899714"><ele></ele><time>2022-5-31T5:4:32Z</time></trkpt>
<trkpt lat="43.4833675" lon="6.8899466"><ele></ele><time>2022-5-31T5:4:35Z</time></trkpt>
<trkpt lat="43.4833576" lon="6.8899142"><ele></ele><time>2022-5-31T5:4:38Z</time></trkpt>
<trkpt lat="43.4833571" lon="6.8898816"><ele></ele><time>2022-5-31T5:4:41Z</time></trkpt>
<trkpt lat="43.4833568" lon="6.8898476"><ele></ele><time>2022-5-31T5:4:44Z</time></trkpt>
<trkpt lat="43.4833508" lon="6.8898168"><ele></ele><time>2022-5-31T5:4:47Z</time></trkpt>
<trkpt lat="43.4833399" lon="6.8897782"><ele></ele><time>2022-5-31T5:4:50Z</time></trkpt>
<trkpt lat="43.4833355" lon="6.8897341"><ele></ele><time>2022-5-31T5:4:53Z</time></trkpt>
<trkpt lat="43.4833372" lon="6.8896909"><ele></ele><time>2022-5-31T5:4:56Z</time></trkpt>
<trkpt lat="43.4833400" lon="6.8896495"><ele></ele><time>2022-5-31T5:4:59Z</time></trkpt>
<trkpt lat="43.4833478" lon="6.8896102"><ele></ele><time>2022-5-31T5:5:2Z</time></trkpt>
<trkpt lat="43.4833580" lon="6.8895768"><ele></ele><time>2022-5-31T5:5:5Z</time></trkpt>
<trkpt lat="43.4833644" lon="6.8895476"><ele></ele><time>2022-5-31T5:5:8Z</time></trkpt>
<trkpt lat="43.4833596" lon="6.8895085"><ele></ele><time>2022-5-31T5:5:11Z</time></trkpt>
<trkpt lat="43.4833464" lon="6.8894775"><ele></ele><time>2022-5-31T5:5:14Z</time></trkpt>
<trkpt lat="43.4833379" lon="6.8894423"><ele></ele><time>2022-5-31T5:5:17Z</time></trkpt>
<trkpt lat="43.4833311" lon="6.8894014"><ele></ele><time>2022-5-31T5:5:20Z</time></trkpt>
<trkpt lat="43.4833097" lon="6.8893779"><ele></ele><time>2022-5-31T5:5:23Z</time></trkpt>
<trkpt lat="43.4832845" lon="6.8893626"><ele></ele><time>2022-5-31T5:5:26Z</time></trkpt>
<trkpt lat="43.4832710" lon="6.8893315"><ele></ele><time>2022-5-31T5:5:29Z</time></trkpt>
<trkpt lat="43.4832447" lon="6.8893098"><ele></ele><time>2022-5-31T5:5:32Z</time></trkpt>
<trkpt lat="43.4832183" lon="6.8892704"><ele></ele><time>2022-5-31T5:5:35Z</time></trkpt>
<trkpt lat="43.4831925" lon="6.8892350"><ele></ele><time>2022-5-31T5:5:38Z</time></trkpt>
<trkpt lat="43.4831580" lon="6.8892000"><ele></ele><time>2022-5-31T5:5:41Z</time></trkpt>
<trkpt lat="43.4831312" lon="6.8891522"><ele></ele><time>2022-5-31T5:5:44Z</time></trkpt>
<trkpt lat="43.4830971" lon="6.8891017"><ele></ele><time>2022-5-31T5:5:47Z</time></trkpt>
<trkpt lat="43.4830654" lon="6.8890564"><ele></ele><time>2022-5-31T5:5:50Z</time></trkpt>
<trkpt lat="43.4830362" lon="6.8890205"><ele></ele><time>2022-5-31T5:5:53Z</time></trkpt>
<trkpt lat="43.4830094" lon="6.8889938"><ele></ele><time>2022-5-31T5:5:56Z</time></trkpt>
<trkpt lat="43.4829898" lon="6.8889569"><ele></ele><time>2022-5-31T5:5:59Z</time></trkpt>
<trkpt lat="43.4829714" lon="6.8889160"><ele></ele><time>2022-5-31T5:6:2Z</time></trkpt>
<trkpt lat="43.4829465" lon="6.8888836"><ele></ele><time>2022-5-31T5:6:5Z</time></trkpt>
<trkpt lat="43.4829136" lon="6.8888511"><ele></ele><time>2022-5-31T5:6:8Z</time></trkpt>
<trkpt lat="43.4828808" lon="6.8888221"><ele></ele><time>2022-5-31T5:6:11Z</time></trkpt>
<trkpt lat="43.4828561" lon="6.8887898"><ele></ele><time>2022-5-31T5:6:14Z</time></trkpt>
<trkpt lat="43.4828287" lon="6.8887479"><ele></ele><time>2022-5-31T5:6:17Z</time></trkpt>
<trkpt lat="43.4827984" lon="6.8887052"><ele></ele><time>2022-5-31T5:6:20Z</time></trkpt>
<trkpt lat="43.4827707" lon="6.8886664"><ele></ele><time>2022-5-31T5:6:23Z</time></trkpt>
<trkpt lat="43.4827447" lon="6.8886299"><ele></ele><time>2022-5-31T5:6:26Z</time></trkpt>
<trkpt lat="43.4827124" lon="6.8885792"><ele></ele><time>2022-5-31T5:6:29Z</time></trkpt>
<trkpt lat="43.4826810" lon="6.8885354"><ele></ele><time>2022-5-31T5:6:32Z</time></trkpt>
<trkpt lat="43.4826424" lon="6.8885223"><ele></ele><time>2022-5-31T5:6:35Z</time></trkpt>
<trkpt lat="43.4826024" lon="6.8885068"><ele></ele><time>2022-5-31T5:6:38Z</time></trkpt>
<trkpt lat="43.4825620" lon="6.8884629"><ele></ele><time>2022-5-31T5:6:41Z</time></trkpt>
<trkpt lat="43.4825208" lon="6.8884314"><ele></ele><time>2022-5-31T5:6:44Z</time></trkpt>
<trkpt lat="43.4824870" lon="6.8884145"><ele></ele><time>2022-5-31T5:6:47Z</time></trkpt>
<trkpt lat="43.4824583" lon="6.8884053"><ele></ele><time>2022-5-31T5:6:50Z</time></trkpt>
<trkpt lat="43.4824335" lon="6.8883962"><ele></ele><time>2022-5-31T5:6:53Z</time></trkpt>
<trkpt lat="43.4824076" lon="6.8883819"><ele></ele><time>2022-5-31T5:6:56Z</time></trkpt>
<trkpt lat="43.4823857" lon="6.8883702"><ele></ele><time>2022-5-31T5:6:59Z</time></trkpt>
<trkpt lat="43.4823633" lon="6.8883630"><ele></ele><time>2022-5-31T5:7:2Z</time></trkpt>
<trkpt lat="43.4823388" lon="6.8883507"><ele></ele><time>2022-5-31T5:7:5Z</time></trkpt>
<trkpt lat="43.4823163" lon="6.8883382"><ele></ele><time>2022-5-31T5:7:8Z</time></trkpt>
<trkpt lat="43.4822953" lon="6.8883247"><ele></ele><time>2022-5-31T5:7:11Z</time></trkpt>
<trkpt lat="43.4822766" lon="6.8883054"><ele></ele><time>2022-5-31T5:7:14Z</time></trkpt>
<trkpt lat="43.4822584" lon="6.8882851"><ele></ele><time>2022-5-31T5:7:17Z</time></trkpt>
<trkpt lat="43.4822421" lon="6.8882669"><ele></ele><time>2022-5-31T5:7:20Z</time></trkpt>
<trkpt lat="43.4822316" lon="6.8882502"><ele></ele><time>2022-5-31T5:7:23Z</time></trkpt>
<trkpt lat="43.4822135" lon="6.8882305"><ele></ele><time>2022-5-31T5:7:26Z</time></trkpt>
<trkpt lat="43.4821966" lon="6.8882104"><ele></ele><time>2022-5-31T5:7:29Z</time></trkpt>
<trkpt lat="43.4821802" lon="6.8881955"><ele></ele><time>2022-5-31T5:7:32Z</time></trkpt>
<trkpt lat="43.4821613" lon="6.8881817"><ele></ele><time>2022-5-31T5:7:35Z</time></trkpt>
<trkpt lat="43.4821360" lon="6.8881626"><ele></ele><time>2022-5-31T5:7:38Z</time></trkpt>
<trkpt lat="43.4821099" lon="6.8881437"><ele></ele><time>2022-5-31T5:7:41Z</time></trkpt>
<trkpt lat="43.4820832" lon="6.8881277"><ele></ele><time>2022-5-31T5:7:44Z</time></trkpt>
<trkpt lat="43.4820623" lon="6.8881131"><ele></ele><time>2022-5-31T5:7:47Z</time></trkpt>
<trkpt lat="43.4820426" lon="6.8880950"><ele></ele><time>2022-5-31T5:7:50Z</time></trkpt>
<trkpt lat="43.4820206" lon="6.8880753"><ele></ele><time>2022-5-31T5:7:53Z</time></trkpt>
<trkpt lat="43.4819992" lon="6.8880610"><ele></ele><time>2022-5-31T5:7:56Z</time></trkpt>
<trkpt lat="43.4819788" lon="6.8880485"><ele></ele><time>2022-5-31T5:7:59Z</time></trkpt>
<trkpt lat="43.4819621" lon="6.8880352"><ele></ele><time>2022-5-31T5:8:2Z</time></trkpt>
<trkpt lat="43.4819346" lon="6.8880146"><ele></ele><time>2022-5-31T5:8:5Z</time></trkpt>
<trkpt lat="43.4819052" lon="6.8879936"><ele></ele><time>2022-5-31T5:8:8Z</time></trkpt>
<trkpt lat="43.4818800" lon="6.8879787"><ele></ele><time>2022-5-31T5:8:11Z</time></trkpt>
<trkpt lat="43.4818574" lon="6.8879657"><ele></ele><time>2022-5-31T5:8:14Z</time></trkpt>
<trkpt lat="43.4818249" lon="6.8879581"><ele></ele><time>2022-5-31T5:8:17Z</time></trkpt>
<trkpt lat="43.4817856" lon="6.8879586"><ele></ele><time>2022-5-31T5:8:20Z</time></trkpt>
<trkpt lat="43.4817493" lon="6.8879584"><ele></ele><time>2022-5-31T5:8:23Z</time></trkpt>
<trkpt lat="43.4817077" lon="6.8879599"><ele></ele><time>2022-5-31T5:8:26Z</time></trkpt>
<trkpt lat="43.4816767" lon="6.8879713"><ele></ele><time>2022-5-31T5:8:29Z</time></trkpt>
<trkpt lat="43.4816384" lon="6.8879814"><ele></ele><time>2022-5-31T5:8:32Z</time></trkpt>
<trkpt lat="43.4816030" lon="6.8879887"><ele></ele><time>2022-5-31T5:8:35Z</time></trkpt>
<trkpt lat="43.4815654" lon="6.8879894"><ele></ele><time>2022-5-31T5:8:38Z</time></trkpt>
<trkpt lat="43.4815265" lon="6.8879822"><ele></ele><time>2022-5-31T5:8:41Z</time></trkpt>
<trkpt lat="43.4814892" lon="6.8879670"><ele></ele><time>2022-5-31T5:8:44Z</time></trkpt>
<trkpt lat="43.4814554" lon="6.8879519"><ele></ele><time>2022-5-31T5:8:47Z</time></trkpt>
<trkpt lat="43.4814298" lon="6.8879383"><ele></ele><time>2022-5-31T5:8:50Z</time></trkpt>
<trkpt lat="43.4814043" lon="6.8879247"><ele></ele><time>2022-5-31T5:8:53Z</time></trkpt>
<trkpt lat="43.4813738" lon="6.8879115"><ele></ele><time>2022-5-31T5:8:56Z</time></trkpt>
<trkpt lat="43.4813412" lon="6.8878957"><ele></ele><time>2022-5-31T5:8:59Z</time></trkpt>
<trkpt lat="43.4813095" lon="6.8878803"><ele></ele><time>2022-5-31T5:9:2Z</time></trkpt>
<trkpt lat="43.4812754" lon="6.8878697"><ele></ele><time>2022-5-31T5:9:5Z</time></trkpt>
<trkpt lat="43.4812433" lon="6.8878547"><ele></ele><time>2022-5-31T5:9:8Z</time></trkpt>
<trkpt lat="43.4812096" lon="6.8878333"><ele></ele><time>2022-5-31T5:9:11Z</time></trkpt>
<trkpt lat="43.4811818" lon="6.8878147"><ele></ele><time>2022-5-31T5:9:14Z</time></trkpt>
<trkpt lat="43.4811413" lon="6.8877955"><ele></ele><time>2022-5-31T5:9:17Z</time></trkpt>
<trkpt lat="43.4810997" lon="6.8877785"><ele></ele><time>2022-5-31T5:9:20Z</time></trkpt>
<trkpt lat="43.4810503" lon="6.8877597"><ele></ele><time>2022-5-31T5:9:23Z</time></trkpt>
<trkpt lat="43.4809888" lon="6.8877347"><ele></ele><time>2022-5-31T5:9:26Z</time></trkpt>
<trkpt lat="43.4809320" lon="6.8877059"><ele></ele><time>2022-5-31T5:9:29Z</time></trkpt>
<trkpt lat="43.4808693" lon="6.8876752"><ele></ele><time>2022-5-31T5:9:32Z</time></trkpt>
<trkpt lat="43.4808083" lon="6.8876360"><ele></ele><time>2022-5-31T5:9:35Z</time></trkpt>
<trkpt lat="43.4807611" lon="6.8876063"><ele></ele><time>2022-5-31T5:9:38Z</time></trkpt>
<trkpt lat="43.4807063" lon="6.8875820"><ele></ele><time>2022-5-31T5:9:41Z</time></trkpt>
<trkpt lat="43.4806529" lon="6.8875707"><ele></ele><time>2022-5-31T5:9:44Z</time></trkpt>
<trkpt lat="43.4806010" lon="6.8875578"><ele></ele><time>2022-5-31T5:9:47Z</time></trkpt>
<trkpt lat="43.4805519" lon="6.8875477"><ele></ele><time>2022-5-31T5:9:50Z</time></trkpt>
<trkpt lat="43.4805005" lon="6.8875414"><ele></ele><time>2022-5-31T5:9:53Z</time></trkpt>
<trkpt lat="43.4804431" lon="6.8875349"><ele></ele><time>2022-5-31T5:9:56Z</time></trkpt>
<trkpt lat="43.4803882" lon="6.8875261"><ele></ele><time>2022-5-31T5:9:59Z</time></trkpt>
<trkpt lat="43.4803419" lon="6.8875180"><ele></ele><time>2022-5-31T5:10:2Z</time></trkpt>
<trkpt lat="43.4802861" lon="6.8875141"><ele></ele><time>2022-5-31T5:10:5Z</time></trkpt>
<trkpt lat="43.4802278" lon="6.8875118"><ele></ele><time>2022-5-31T5:10:8Z</time></trkpt>
<trkpt lat="43.4801766" lon="6.8875078"><ele></ele><time>2022-5-31T5:10:11Z</time></trkpt>
<trkpt lat="43.4801263" lon="6.8875055"><ele></ele><time>2022-5-31T5:10:14Z</time></trkpt>
<trkpt lat="43.4800771" lon="6.8875041"><ele></ele><time>2022-5-31T5:10:17Z</time></trkpt>
<trkpt lat="43.4800220" lon="6.8874982"><ele></ele><time>2022-5-31T5:10:20Z</time></trkpt>
<trkpt lat="43.4799640" lon="6.8874883"><ele></ele><time>2022-5-31T5:10:23Z</time></trkpt>
<trkpt lat="43.4799185" lon="6.8874653"><ele></ele><time>2022-5-31T5:10:26Z</time></trkpt>
<trkpt lat="43.4798705" lon="6.8874444"><ele></ele><time>2022-5-31T5:10:29Z</time></trkpt>
<trkpt lat="43.4798195" lon="6.8874371"><ele></ele><time>2022-5-31T5:10:32Z</time></trkpt>
<trkpt lat="43.4797594" lon="6.8874461"><ele></ele><time>2022-5-31T5:10:35Z</time></trkpt>
<trkpt lat="43.4797002" lon="6.8874479"><ele></ele><time>2022-5-31T5:10:38Z</time></trkpt>
<trkpt lat="43.4796473" lon="6.8874490"><ele></ele><time>2022-5-31T5:10:41Z</time></trkpt>
<trkpt lat="43.4795993" lon="6.8874543"><ele></ele><time>2022-5-31T5:10:44Z</time></trkpt>
<trkpt lat="43.4795464" lon="6.8874601"><ele></ele><time>2022-5-31T5:10:47Z</time></trkpt>
<trkpt lat="43.4794946" lon="6.8874716"><ele></ele><time>2022-5-31T5:10:50Z</time></trkpt>
<trkpt lat="43.4794428" lon="6.8874719"><ele></ele><time>2022-5-31T5:10:53Z</time></trkpt>
<trkpt lat="43.4793895" lon="6.8874714"><ele></ele><time>2022-5-31T5:10:56Z</time></trkpt>
<trkpt lat="43.4793353" lon="6.8874711"><ele></ele><time>2022-5-31T5:10:59Z</time></trkpt>
<trkpt lat="43.4792867" lon="6.8874734"><ele></ele><time>2022-5-31T5:11:2Z</time></trkpt>
<trkpt lat="43.4792444" lon="6.8874766"><ele></ele><time>2022-5-31T5:11:5Z</time></trkpt>
<trkpt lat="43.4792033" lon="6.8874763"><ele></ele><time>2022-5-31T5:11:8Z</time></trkpt>
<trkpt lat="43.4791655" lon="6.8874675"><ele></ele><time>2022-5-31T5:11:11Z</time></trkpt>
<trkpt lat="43.4791319" lon="6.8874567"><ele></ele><time>2022-5-31T5:11:14Z</time></trkpt>
<trkpt lat="43.4791044" lon="6.8874479"><ele></ele><time>2022-5-31T5:11:17Z</time></trkpt>
<trkpt lat="43.4790779" lon="6.8874397"><ele></ele><time>2022-5-31T5:11:20Z</time></trkpt>
<trkpt lat="43.4790593" lon="6.8874330"><ele></ele><time>2022-5-31T5:11:23Z</time></trkpt>
<trkpt lat="43.4790466" lon="6.8874314"><ele></ele><time>2022-5-31T5:11:26Z</time></trkpt>
<trkpt lat="43.4790381" lon="6.8874293"><ele></ele><time>2022-5-31T5:11:29Z</time></trkpt>
<trkpt lat="43.4790268" lon="6.8874274"><ele></ele><time>2022-5-31T5:11:32Z</time></trkpt>
<trkpt lat="43.4790153" lon="6.8874245"><ele></ele><time>2022-5-31T5:11:35Z</time></trkpt>
<trkpt lat="43.4790014" lon="6.8874308"><ele></ele><time>2022-5-31T5:11:38Z</time></trkpt>
<trkpt lat="43.4789878" lon="6.8874349"><ele></ele><time>2022-5-31T5:11:41Z</time></trkpt>
<trkpt lat="43.4789852" lon="6.8874484"><ele></ele><time>2022-5-31T5:11:44Z</time></trkpt>
<trkpt lat="43.4790001" lon="6.8874505"><ele></ele><time>2022-5-31T5:11:47Z</time></trkpt>
<trkpt lat="43.4789845" lon="6.8874665"><ele></ele><time>2022-5-31T5:11:50Z</time></trkpt>
<trkpt lat="43.4789838" lon="6.8874673"><ele></ele><time>2022-5-31T5:11:53Z</time></trkpt>
<trkpt lat="43.4789836" lon="6.8874676"><ele></ele><time>2022-5-31T5:11:56Z</time></trkpt>
<trkpt lat="43.4789822" lon="6.8874684"><ele></ele><time>2022-5-31T5:11:59Z</time></trkpt>
<trkpt lat="43.4789819" lon="6.8874685"><ele></ele><time>2022-5-31T5:12:2Z</time></trkpt>
<trkpt lat="43.4789823" lon="6.8874686"><ele></ele><time>2022-5-31T5:12:5Z</time></trkpt>
<trkpt lat="43.4789831" lon="6.8874689"><ele></ele><time>2022-5-31T5:12:8Z</time></trkpt>
<trkpt lat="43.4789828" lon="6.8874691"><ele></ele><time>2022-5-31T5:12:11Z</time></trkpt>
<trkpt lat="43.4789809" lon="6.8874700"><ele></ele><time>2022-5-31T5:12:14Z</time></trkpt>
<trkpt lat="43.4789809" lon="6.8874703"><ele></ele><time>2022-5-31T5:12:17Z</time></trkpt>
<trkpt lat="43.4789804" lon="6.8874704"><ele></ele><time>2022-5-31T5:12:20Z</time></trkpt>
<trkpt lat="43.4789799" lon="6.8874709"><ele></ele><time>2022-5-31T5:12:23Z</time></trkpt>
<trkpt lat="43.4789792" lon="6.8874706"><ele></ele><time>2022-5-31T5:12:26Z</time></trkpt>
<trkpt lat="43.4789788" lon="6.8874698"><ele></ele><time>2022-5-31T5:12:29Z</time></trkpt>
<trkpt lat="43.4789785" lon="6.8874698"><ele></ele><time>2022-5-31T5:12:32Z</time></trkpt>
<trkpt lat="43.4789776" lon="6.8874700"><ele></ele><time>2022-5-31T5:12:35Z</time></trkpt>
<trkpt lat="43.4789780" lon="6.8874687"><ele></ele><time>2022-5-31T5:12:38Z</time></trkpt>
<trkpt lat="43.4789804" lon="6.8874677"><ele></ele><time>2022-5-31T5:12:41Z</time></trkpt>
<trkpt lat="43.4789805" lon="6.8874663"><ele></ele><time>2022-5-31T5:12:44Z</time></trkpt>
<trkpt lat="43.4789802" lon="6.8874657"><ele></ele><time>2022-5-31T5:12:47Z</time></trkpt>
<trkpt lat="43.4789802" lon="6.8874640"><ele></ele><time>2022-5-31T5:12:50Z</time></trkpt>
<trkpt lat="43.4789827" lon="6.8874636"><ele></ele><time>2022-5-31T5:12:53Z</time></trkpt>
<trkpt lat="43.4789825" lon="6.8874618"><ele></ele><time>2022-5-31T5:12:56Z</time></trkpt>
<trkpt lat="43.4789818" lon="6.8874552"><ele></ele><time>2022-5-31T5:12:59Z</time></trkpt>
<trkpt lat="43.4789812" lon="6.8874364"><ele></ele><time>2022-5-31T5:13:2Z</time></trkpt>
<trkpt lat="43.4789744" lon="6.8874108"><ele></ele><time>2022-5-31T5:13:5Z</time></trkpt>
<trkpt lat="43.4789667" lon="6.8873762"><ele></ele><time>2022-5-31T5:13:8Z</time></trkpt>
<trkpt lat="43.4789737" lon="6.8873344"><ele></ele><time>2022-5-31T5:13:11Z</time></trkpt>
<trkpt lat="43.4789767" lon="6.8872885"><ele></ele><time>2022-5-31T5:13:14Z</time></trkpt>
<trkpt lat="43.4789907" lon="6.8872550"><ele></ele><time>2022-5-31T5:13:17Z</time></trkpt>
<trkpt lat="43.4790053" lon="6.8872341"><ele></ele><time>2022-5-31T5:13:20Z</time></trkpt>
<trkpt lat="43.4790144" lon="6.8872322"><ele></ele><time>2022-5-31T5:13:23Z</time></trkpt>
<trkpt lat="43.4790152" lon="6.8872321"><ele></ele><time>2022-5-31T5:13:26Z</time></trkpt>
<trkpt lat="43.4790111" lon="6.8872348"><ele></ele><time>2022-5-31T5:13:29Z</time></trkpt>
<trkpt lat="43.4790090" lon="6.8872326"><ele></ele><time>2022-5-31T5:13:32Z</time></trkpt>
<trkpt lat="43.4790137" lon="6.8872288"><ele></ele><time>2022-5-31T5:13:35Z</time></trkpt>
<trkpt lat="43.4790209" lon="6.8872307"><ele></ele><time>2022-5-31T5:13:38Z</time></trkpt>
<trkpt lat="43.4790261" lon="6.8872396"><ele></ele><time>2022-5-31T5:13:41Z</time></trkpt>
<trkpt lat="43.4790332" lon="6.8872500"><ele></ele><time>2022-5-31T5:13:44Z</time></trkpt>
<trkpt lat="43.4790418" lon="6.8872561"><ele></ele><time>2022-5-31T5:13:47Z</time></trkpt>
<trkpt lat="43.4790520" lon="6.8872568"><ele></ele><time>2022-5-31T5:13:50Z</time></trkpt>
<trkpt lat="43.4790605" lon="6.8872578"><ele></ele><time>2022-5-31T5:13:53Z</time></trkpt>
<trkpt lat="43.4790722" lon="6.8872607"><ele></ele><time>2022-5-31T5:13:56Z</time></trkpt>
<trkpt lat="43.4790800" lon="6.8872633"><ele></ele><time>2022-5-31T5:13:59Z</time></trkpt>
<trkpt lat="43.4790817" lon="6.8872642"><ele></ele><time>2022-5-31T5:14:2Z</time></trkpt>
<trkpt lat="43.4790794" lon="6.8872646"><ele></ele><time>2022-5-31T5:14:5Z</time></trkpt>
<trkpt lat="43.4790802" lon="6.8872650"><ele></ele><time>2022-5-31T5:14:8Z</time></trkpt>
<trkpt lat="43.4790855" lon="6.8872688"><ele></ele><time>2022-5-31T5:14:11Z</time></trkpt>
<trkpt lat="43.4790943" lon="6.8872763"><ele></ele><time>2022-5-31T5:14:14Z</time></trkpt>
<trkpt lat="43.4791021" lon="6.8872846"><ele></ele><time>2022-5-31T5:14:17Z</time></trkpt>
<trkpt lat="43.4791003" lon="6.8872837"><ele></ele><time>2022-5-31T5:14:20Z</time></trkpt>
<trkpt lat="43.4790964" lon="6.8872800"><ele></ele><time>2022-5-31T5:14:23Z</time></trkpt>
<trkpt lat="43.4791085" lon="6.8872830"><ele></ele><time>2022-5-31T5:14:26Z</time></trkpt>
<trkpt lat="43.4791167" lon="6.8872831"><ele></ele><time>2022-5-31T5:14:29Z</time></trkpt>
<trkpt lat="43.4791215" lon="6.8872827"><ele></ele><time>2022-5-31T5:14:32Z</time></trkpt>
<trkpt lat="43.4791184" lon="6.8872814"><ele></ele><time>2022-5-31T5:14:35Z</time></trkpt>
<trkpt lat="43.4791224" lon="6.8872799"><ele></ele><time>2022-5-31T5:14:38Z</time></trkpt>
<trkpt lat="43.4791239" lon="6.8872776"><ele></ele><time>2022-5-31T5:14:41Z</time></trkpt>
<trkpt lat="43.4791284" lon="6.8872745"><ele></ele><time>2022-5-31T5:14:44Z</time></trkpt>
<trkpt lat="43.4791321" lon="6.8872739"><ele></ele><time>2022-5-31T5:14:47Z</time></trkpt>
<trkpt lat="43.4791480" lon="6.8872726"><ele></ele><time>2022-5-31T5:14:50Z</time></trkpt>
<trkpt lat="43.4791569" lon="6.8872720"><ele></ele><time>2022-5-31T5:14:53Z</time></trkpt>
<trkpt lat="43.4791666" lon="6.8872725"><ele></ele><time>2022-5-31T5:14:56Z</time></trkpt>
<trkpt lat="43.4791745" lon="6.8872752"><ele></ele><time>2022-5-31T5:14:59Z</time></trkpt>
<trkpt lat="43.4791755" lon="6.8872759"><ele></ele><time>2022-5-31T5:15:2Z</time></trkpt>
<trkpt lat="43.4791736" lon="6.8872763"><ele></ele><time>2022-5-31T5:15:5Z</time></trkpt>
<trkpt lat="43.4791766" lon="6.8872782"><ele></ele><time>2022-5-31T5:15:8Z</time></trkpt>
<trkpt lat="43.4791804" lon="6.8872776"><ele></ele><time>2022-5-31T5:15:11Z</time></trkpt>
<trkpt lat="43.4791804" lon="6.8872766"><ele></ele><time>2022-5-31T5:15:14Z</time></trkpt>
<trkpt lat="43.4791812" lon="6.8872738"><ele></ele><time>2022-5-31T5:15:17Z</time></trkpt>
<trkpt lat="43.4791855" lon="6.8872710"><ele></ele><time>2022-5-31T5:15:20Z</time></trkpt>
<trkpt lat="43.4791866" lon="6.8872702"><ele></ele><time>2022-5-31T5:15:23Z</time></trkpt>
<trkpt lat="43.4791888" lon="6.8872691"><ele></ele><time>2022-5-31T5:15:26Z</time></trkpt>
<trkpt lat="43.4791890" lon="6.8872687"><ele></ele><time>2022-5-31T5:15:29Z</time></trkpt>
<trkpt lat="43.4791877" lon="6.8872690"><ele></ele><time>2022-5-31T5:15:32Z</time></trkpt>
<trkpt lat="43.4791886" lon="6.8872691"><ele></ele><time>2022-5-31T5:15:35Z</time></trkpt>
<trkpt lat="43.4791878" lon="6.8872693"><ele></ele><time>2022-5-31T5:15:38Z</time></trkpt>
<trkpt lat="43.4791875" lon="6.8872694"><ele></ele><time>2022-5-31T5:15:41Z</time></trkpt>
<trkpt lat="43.4791867" lon="6.8872677"><ele></ele><time>2022-5-31T5:15:44Z</time></trkpt>
<trkpt lat="43.4791870" lon="6.8872675"><ele></ele><time>2022-5-31T5:15:47Z</time></trkpt>
<trkpt lat="43.4791875" lon="6.8872676"><ele></ele><time>2022-5-31T5:15:50Z</time></trkpt>
<trkpt lat="43.4791904" lon="6.8872676"><ele></ele><time>2022-5-31T5:15:53Z</time></trkpt>
<trkpt lat="43.4791901" lon="6.8872680"><ele></ele><time>2022-5-31T5:15:56Z</time></trkpt>
<trkpt lat="43.4791902" lon="6.8872669"><ele></ele><time>2022-5-31T5:15:59Z</time></trkpt>
<trkpt lat="43.4791905" lon="6.8872665"><ele></ele><time>2022-5-31T5:16:2Z</time></trkpt>
<trkpt lat="43.4791898" lon="6.8872669"><ele></ele><time>2022-5-31T5:16:5Z</time></trkpt>
<trkpt lat="43.4791899" lon="6.8872667"><ele></ele><time>2022-5-31T5:16:8Z</time></trkpt>
<trkpt lat="43.4791910" lon="6.8872663"><ele></ele><time>2022-5-31T5:16:11Z</time></trkpt>
<trkpt lat="43.4791904" lon="6.8872660"><ele></ele><time>2022-5-31T5:16:14Z</time></trkpt>
<trkpt lat="43.4791909" lon="6.8872655"><ele></ele><time>2022-5-31T5:16:17Z</time></trkpt>
<trkpt lat="43.4791905" lon="6.8872653"><ele></ele><time>2022-5-31T5:16:20Z</time></trkpt>
<trkpt lat="43.4791903" lon="6.8872652"><ele></ele><time>2022-5-31T5:16:23Z</time></trkpt>
<trkpt lat="43.4791904" lon="6.8872650"><ele></ele><time>2022-5-31T5:16:26Z</time></trkpt>
<trkpt lat="43.4791902" lon="6.8872649"><ele></ele><time>2022-5-31T5:16:29Z</time></trkpt>
<trkpt lat="43.4791893" lon="6.8872648"><ele></ele><time>2022-5-31T5:16:32Z</time></trkpt>
<trkpt lat="43.4791893" lon="6.8872646"><ele></ele><time>2022-5-31T5:16:35Z</time></trkpt>
<trkpt lat="43.4791896" lon="6.8872643"><ele></ele><time>2022-5-31T5:16:38Z</time></trkpt>
<trkpt lat="43.4791898" lon="6.8872641"><ele></ele><time>2022-5-31T5:16:41Z</time></trkpt>
<trkpt lat="43.4791899" lon="6.8872639"><ele></ele><time>2022-5-31T5:16:44Z</time></trkpt>
<trkpt lat="43.4791901" lon="6.8872637"><ele></ele><time>2022-5-31T5:16:47Z</time></trkpt>
<trkpt lat="43.4791905" lon="6.8872632"><ele></ele><time>2022-5-31T5:16:50Z</time></trkpt>
<trkpt lat="43.4791904" lon="6.8872630"><ele></ele><time>2022-5-31T5:16:53Z</time></trkpt>
<trkpt lat="43.4791901" lon="6.8872630"><ele></ele><time>2022-5-31T5:16:56Z</time></trkpt>
<trkpt lat="43.4791901" lon="6.8872628"><ele></ele><time>2022-5-31T5:16:59Z</time></trkpt>
<trkpt lat="43.4791898" lon="6.8872625"><ele></ele><time>2022-5-31T5:17:2Z</time></trkpt>
<trkpt lat="43.4791894" lon="6.8872622"><ele></ele><time>2022-5-31T5:17:5Z</time></trkpt>
<trkpt lat="43.4791891" lon="6.8872622"><ele></ele><time>2022-5-31T5:17:8Z</time></trkpt>
<trkpt lat="43.4791889" lon="6.8872621"><ele></ele><time>2022-5-31T5:17:11Z</time></trkpt>
<trkpt lat="43.4791888" lon="6.8872621"><ele></ele><time>2022-5-31T5:17:14Z</time></trkpt>
<trkpt lat="43.4791887" lon="6.8872621"><ele></ele><time>2022-5-31T5:17:17Z</time></trkpt>
<trkpt lat="43.4791885" lon="6.8872620"><ele></ele><time>2022-5-31T5:17:20Z</time></trkpt>
<trkpt lat="43.4791885" lon="6.8872619"><ele></ele><time>2022-5-31T5:17:23Z</time></trkpt>
<trkpt lat="43.4791886" lon="6.8872618"><ele></ele><time>2022-5-31T5:17:26Z</time></trkpt>
<trkpt lat="43.4791885" lon="6.8872618"><ele></ele><time>2022-5-31T5:17:29Z</time></trkpt>
<trkpt lat="43.4791886" lon="6.8872616"><ele></ele><time>2022-5-31T5:17:32Z</time></trkpt>
<trkpt lat="43.4791887" lon="6.8872615"><ele></ele><time>2022-5-31T5:17:35Z</time></trkpt>
<trkpt lat="43.4791892" lon="6.8872613"><ele></ele><time>2022-5-31T5:17:38Z</time></trkpt>
<trkpt lat="43.4791894" lon="6.8872612"><ele></ele><time>2022-5-31T5:17:41Z</time></trkpt>
<trkpt lat="43.4791896" lon="6.8872611"><ele></ele><time>2022-5-31T5:17:44Z</time></trkpt>
<trkpt lat="43.4791895" lon="6.8872611"><ele></ele><time>2022-5-31T5:17:47Z</time></trkpt>
<trkpt lat="43.4791894" lon="6.8872611"><ele></ele><time>2022-5-31T5:17:50Z</time></trkpt>
<trkpt lat="43.4791897" lon="6.8872610"><ele></ele><time>2022-5-31T5:17:53Z</time></trkpt>
<trkpt lat="43.4791896" lon="6.8872611"><ele></ele><time>2022-5-31T5:17:56Z</time></trkpt>
<trkpt lat="43.4791896" lon="6.8872612"><ele></ele><time>2022-5-31T5:17:59Z</time></trkpt>
<trkpt lat="43.4791897" lon="6.8872612"><ele></ele><time>2022-5-31T5:18:2Z</time></trkpt>
<trkpt lat="43.4791898" lon="6.8872610"><ele></ele><time>2022-5-31T5:18:5Z</time></trkpt>
<trkpt lat="43.4791913" lon="6.8872603"><ele></ele><time>2022-5-31T5:18:8Z</time></trkpt>
<trkpt lat="43.4791909" lon="6.8872600"><ele></ele><time>2022-5-31T5:18:11Z</time></trkpt>
<trkpt lat="43.4791955" lon="6.8872573"><ele></ele><time>2022-5-31T5:18:14Z</time></trkpt>
<trkpt lat="43.4791996" lon="6.8872540"><ele></ele><time>2022-5-31T5:18:17Z</time></trkpt>
<trkpt lat="43.4792010" lon="6.8872534"><ele></ele><time>2022-5-31T5:18:20Z</time></trkpt>
<trkpt lat="43.4792028" lon="6.8872524"><ele></ele><time>2022-5-31T5:18:23Z</time></trkpt>
<trkpt lat="43.4792041" lon="6.8872516"><ele></ele><time>2022-5-31T5:18:26Z</time></trkpt>
<trkpt lat="43.4792029" lon="6.8872517"><ele></ele><time>2022-5-31T5:18:29Z</time></trkpt>
<trkpt lat="43.4792021" lon="6.8872514"><ele></ele><time>2022-5-31T5:18:32Z</time></trkpt>
<trkpt lat="43.4792037" lon="6.8872510"><ele></ele><time>2022-5-31T5:18:35Z</time></trkpt>
<trkpt lat="43.4792003" lon="6.8872537"><ele></ele><time>2022-5-31T5:18:38Z</time></trkpt>
<trkpt lat="43.4791998" lon="6.8872539"><ele></ele><time>2022-5-31T5:18:41Z</time></trkpt>
<trkpt lat="43.4791994" lon="6.8872543"><ele></ele><time>2022-5-31T5:18:44Z</time></trkpt>
<trkpt lat="43.4791991" lon="6.8872545"><ele></ele><time>2022-5-31T5:18:47Z</time></trkpt>
<trkpt lat="43.4791992" lon="6.8872543"><ele></ele><time>2022-5-31T5:18:50Z</time></trkpt>
<trkpt lat="43.4791997" lon="6.8872542"><ele></ele><time>2022-5-31T5:18:53Z</time></trkpt>
<trkpt lat="43.4792006" lon="6.8872537"><ele></ele><time>2022-5-31T5:18:56Z</time></trkpt>
<trkpt lat="43.4792089" lon="6.8872498"><ele></ele><time>2022-5-31T5:18:59Z</time></trkpt>
<trkpt lat="43.4792102" lon="6.8872492"><ele></ele><time>2022-5-31T5:19:2Z</time></trkpt>
<trkpt lat="43.4792110" lon="6.8872468"><ele></ele><time>2022-5-31T5:19:5Z</time></trkpt>
<trkpt lat="43.4792118" lon="6.8872465"><ele></ele><time>2022-5-31T5:19:8Z</time></trkpt>
<trkpt lat="43.4792112" lon="6.8872483"><ele></ele><time>2022-5-31T5:19:11Z</time></trkpt>
<trkpt lat="43.4792144" lon="6.8872489"><ele></ele><time>2022-5-31T5:19:14Z</time></trkpt>
<trkpt lat="43.4792150" lon="6.8872477"><ele></ele><time>2022-5-31T5:19:17Z</time></trkpt>
<trkpt lat="43.4792156" lon="6.8872452"><ele></ele><time>2022-5-31T5:19:20Z</time></trkpt>
<trkpt lat="43.4792186" lon="6.8872146"><ele></ele><time>2022-5-31T5:19:23Z</time></trkpt>
<trkpt lat="43.4792241" lon="6.8872021"><ele></ele><time>2022-5-31T5:19:26Z</time></trkpt>
<trkpt lat="43.4792328" lon="6.8872075"><ele></ele><time>2022-5-31T5:19:29Z</time></trkpt>
<trkpt lat="43.4792539" lon="6.8872274"><ele></ele><time>2022-5-31T5:19:32Z</time></trkpt>
<trkpt lat="43.4792677" lon="6.8872431"><ele></ele><time>2022-5-31T5:19:35Z</time></trkpt>
<trkpt lat="43.4792810" lon="6.8872437"><ele></ele><time>2022-5-31T5:19:38Z</time></trkpt>
<trkpt lat="43.4792809" lon="6.8872437"><ele></ele><time>2022-5-31T5:19:41Z</time></trkpt>
<trkpt lat="43.4792837" lon="6.8872440"><ele></ele><time>2022-5-31T5:19:44Z</time></trkpt>
<trkpt lat="43.4792823" lon="6.8872407"><ele></ele><time>2022-5-31T5:19:47Z</time></trkpt>
<trkpt lat="43.4792794" lon="6.8872408"><ele></ele><time>2022-5-31T5:19:50Z</time></trkpt>
<trkpt lat="43.4792720" lon="6.8872391"><ele></ele><time>2022-5-31T5:19:53Z</time></trkpt>
<trkpt lat="43.4792639" lon="6.8872591"><ele></ele><time>2022-5-31T5:19:56Z</time></trkpt>
<trkpt lat="43.4792607" lon="6.8872619"><ele></ele><time>2022-5-31T5:19:59Z</time></trkpt>
<trkpt lat="43.4792609" lon="6.8872625"><ele></ele><time>2022-5-31T5:20:2Z</time></trkpt>
<trkpt lat="43.4792613" lon="6.8872628"><ele></ele><time>2022-5-31T5:20:5Z</time></trkpt>
<trkpt lat="43.4792632" lon="6.8872665"><ele></ele><time>2022-5-31T5:20:8Z</time></trkpt>
<trkpt lat="43.4792714" lon="6.8872687"><ele></ele><time>2022-5-31T5:20:11Z</time></trkpt>
<trkpt lat="43.4792932" lon="6.8872882"><ele></ele><time>2022-5-31T5:20:14Z</time></trkpt>
<trkpt lat="43.4792921" lon="6.8872879"><ele></ele><time>2022-5-31T5:20:17Z</time></trkpt>
<trkpt lat="43.4792926" lon="6.8872899"><ele></ele><time>2022-5-31T5:20:20Z</time></trkpt>
<trkpt lat="43.4792825" lon="6.8873156"><ele></ele><time>2022-5-31T5:20:23Z</time></trkpt>
<trkpt lat="43.4792691" lon="6.8873024"><ele></ele><time>2022-5-31T5:20:26Z</time></trkpt>
<trkpt lat="43.4792538" lon="6.8872840"><ele></ele><time>2022-5-31T5:20:29Z</time></trkpt>
<trkpt lat="43.4792342" lon="6.8872548"><ele></ele><time>2022-5-31T5:20:32Z</time></trkpt>
<trkpt lat="43.4792059" lon="6.8872355"><ele></ele><time>2022-5-31T5:20:35Z</time></trkpt>
<trkpt lat="43.4791806" lon="6.8872052"><ele></ele><time>2022-5-31T5:20:38Z</time></trkpt>
<trkpt lat="43.4791623" lon="6.8871789"><ele></ele><time>2022-5-31T5:20:41Z</time></trkpt>
<trkpt lat="43.4791479" lon="6.8871516"><ele></ele><time>2022-5-31T5:20:44Z</time></trkpt>
<trkpt lat="43.4791307" lon="6.8871018"><ele></ele><time>2022-5-31T5:20:47Z</time></trkpt>
<trkpt lat="43.4791042" lon="6.8870554"><ele></ele><time>2022-5-31T5:20:50Z</time></trkpt>
<trkpt lat="43.4790867" lon="6.8870103"><ele></ele><time>2022-5-31T5:20:53Z</time></trkpt>
<trkpt lat="43.4790737" lon="6.8869668"><ele></ele><time>2022-5-31T5:20:56Z</time></trkpt>
<trkpt lat="43.4790691" lon="6.8869148"><ele></ele><time>2022-5-31T5:20:59Z</time></trkpt>
<trkpt lat="43.4790656" lon="6.8868625"><ele></ele><time>2022-5-31T5:21:2Z</time></trkpt>
<trkpt lat="43.4790562" lon="6.8868128"><ele></ele><time>2022-5-31T5:21:5Z</time></trkpt>
<trkpt lat="43.4790433" lon="6.8867662"><ele></ele><time>2022-5-31T5:21:8Z</time></trkpt>
<trkpt lat="43.4790179" lon="6.8867203"><ele></ele><time>2022-5-31T5:21:11Z</time></trkpt>
<trkpt lat="43.4789979" lon="6.8866793"><ele></ele><time>2022-5-31T5:21:14Z</time></trkpt>
<trkpt lat="43.4789781" lon="6.8866383"><ele></ele><time>2022-5-31T5:21:17Z</time></trkpt>
<trkpt lat="43.4789550" lon="6.8865959"><ele></ele><time>2022-5-31T5:21:20Z</time></trkpt>
<trkpt lat="43.4789676" lon="6.8865466"><ele></ele><time>2022-5-31T5:21:23Z</time></trkpt>
<trkpt lat="43.4789731" lon="6.8865033"><ele></ele><time>2022-5-31T5:21:26Z</time></trkpt>
<trkpt lat="43.4789766" lon="6.8864642"><ele></ele><time>2022-5-31T5:21:29Z</time></trkpt>
<trkpt lat="43.4789720" lon="6.8864271"><ele></ele><time>2022-5-31T5:21:32Z</time></trkpt>
<trkpt lat="43.4789721" lon="6.8863958"><ele></ele><time>2022-5-31T5:21:35Z</time></trkpt>
<trkpt lat="43.4789830" lon="6.8863878"><ele></ele><time>2022-5-31T5:21:38Z</time></trkpt>
<trkpt lat="43.4789698" lon="6.8863903"><ele></ele><time>2022-5-31T5:21:41Z</time></trkpt>
<trkpt lat="43.4789613" lon="6.8863990"><ele></ele><time>2022-5-31T5:21:44Z</time></trkpt>
<trkpt lat="43.4789571" lon="6.8864060"><ele></ele><time>2022-5-31T5:21:47Z</time></trkpt>
<trkpt lat="43.4789516" lon="6.8864119"><ele></ele><time>2022-5-31T5:21:50Z</time></trkpt>
<trkpt lat="43.4789485" lon="6.8864202"><ele></ele><time>2022-5-31T5:21:53Z</time></trkpt>
<trkpt lat="43.4789483" lon="6.8864194"><ele></ele><time>2022-5-31T5:21:56Z</time></trkpt>
<trkpt lat="43.4789481" lon="6.8864197"><ele></ele><time>2022-5-31T5:21:59Z</time></trkpt>
<trkpt lat="43.4789482" lon="6.8864198"><ele></ele><time>2022-5-31T5:22:2Z</time></trkpt>
<trkpt lat="43.4789482" lon="6.8864198"><ele></ele><time>2022-5-31T5:22:5Z</time></trkpt>
<trkpt lat="43.4789482" lon="6.8864199"><ele></ele><time>2022-5-31T5:22:8Z</time></trkpt>
<trkpt lat="43.4789481" lon="6.8864200"><ele></ele><time>2022-5-31T5:22:11Z</time></trkpt>
<trkpt lat="43.4789480" lon="6.8864203"><ele></ele><time>2022-5-31T5:22:14Z</time></trkpt>
<trkpt lat="43.4789479" lon="6.8864204"><ele></ele><time>2022-5-31T5:22:17Z</time></trkpt>
<trkpt lat="43.4789479" lon="6.8864206"><ele></ele><time>2022-5-31T5:22:20Z</time></trkpt>
<trkpt lat="43.4789479" lon="6.8864207"><ele></ele><time>2022-5-31T5:22:23Z</time></trkpt>
<trkpt lat="43.4789481" lon="6.8864202"><ele></ele><time>2022-5-31T5:22:26Z</time></trkpt>
<trkpt lat="43.4789483" lon="6.8864197"><ele></ele><time>2022-5-31T5:22:29Z</time></trkpt>
<trkpt lat="43.4789484" lon="6.8864193"><ele></ele><time>2022-5-31T5:22:32Z</time></trkpt>
<trkpt lat="43.4789488" lon="6.8864184"><ele></ele><time>2022-5-31T5:22:35Z</time></trkpt>
<trkpt lat="43.4789489" lon="6.8864183"><ele></ele><time>2022-5-31T5:22:38Z</time></trkpt>
<trkpt lat="43.4789488" lon="6.8864183"><ele></ele><time>2022-5-31T5:22:41Z</time></trkpt>
<trkpt lat="43.4789488" lon="6.8864184"><ele></ele><time>2022-5-31T5:22:44Z</time></trkpt>
<trkpt lat="43.4789488" lon="6.8864186"><ele></ele><time>2022-5-31T5:22:47Z</time></trkpt>
<trkpt lat="43.4789489" lon="6.8864185"><ele></ele><time>2022-5-31T5:22:50Z</time></trkpt>
<trkpt lat="43.4789490" lon="6.8864183"><ele></ele><time>2022-5-31T5:22:53Z</time></trkpt>
<trkpt lat="43.4789490" lon="6.8864183"><ele></ele><time>2022-5-31T5:22:56Z</time></trkpt>
<trkpt lat="43.4789490" lon="6.8864184"><ele></ele><time>2022-5-31T5:22:59Z</time></trkpt>
<trkpt lat="43.4789490" lon="6.8864184"><ele></ele><time>2022-5-31T5:23:2Z</time></trkpt>
<trkpt lat="43.4789489" lon="6.8864185"><ele></ele><time>2022-5-31T5:23:5Z</time></trkpt>
<trkpt lat="43.4789489" lon="6.8864185"><ele></ele><time>2022-5-31T5:23:8Z</time></trkpt>
<trkpt lat="43.4789489" lon="6.8864186"><ele></ele><time>2022-5-31T5:23:11Z</time></trkpt>
<trkpt lat="43.4789489" lon="6.8864187"><ele></ele><time>2022-5-31T5:23:14Z</time></trkpt>
<trkpt lat="43.4789489" lon="6.8864190"><ele></ele><time>2022-5-31T5:23:17Z</time></trkpt>
<trkpt lat="43.4789486" lon="6.8864193"><ele></ele><time>2022-5-31T5:23:20Z</time></trkpt>
<trkpt lat="43.4789475" lon="6.8864226"><ele></ele><time>2022-5-31T5:23:23Z</time></trkpt>
<trkpt lat="43.4789486" lon="6.8864250"><ele></ele><time>2022-5-31T5:23:26Z</time></trkpt>
<trkpt lat="43.4789590" lon="6.8864050"><ele></ele><time>2022-5-31T5:23:29Z</time></trkpt>
<trkpt lat="43.4789684" lon="6.8863811"><ele></ele><time>2022-5-31T5:23:32Z</time></trkpt>
<trkpt lat="43.4789826" lon="6.8863431"><ele></ele><time>2022-5-31T5:23:35Z</time></trkpt>
<trkpt lat="43.4789977" lon="6.8863098"><ele></ele><time>2022-5-31T5:23:38Z</time></trkpt>
<trkpt lat="43.4790101" lon="6.8862832"><ele></ele><time>2022-5-31T5:23:41Z</time></trkpt>
<trkpt lat="43.4790260" lon="6.8862553"><ele></ele><time>2022-5-31T5:23:44Z</time></trkpt>
<trkpt lat="43.4790383" lon="6.8862356"><ele></ele><time>2022-5-31T5:23:47Z</time></trkpt>
<trkpt lat="43.4790511" lon="6.8862210"><ele></ele><time>2022-5-31T5:23:50Z</time></trkpt>
<trkpt lat="43.4790541" lon="6.8862188"><ele></ele><time>2022-5-31T5:23:53Z</time></trkpt>
<trkpt lat="43.4790557" lon="6.8862199"><ele></ele><time>2022-5-31T5:23:56Z</time></trkpt>
<trkpt lat="43.4790558" lon="6.8862205"><ele></ele><time>2022-5-31T5:23:59Z</time></trkpt>
<trkpt lat="43.4790578" lon="6.8862177"><ele></ele><time>2022-5-31T5:24:2Z</time></trkpt>
<trkpt lat="43.4790608" lon="6.8862157"><ele></ele><time>2022-5-31T5:24:5Z</time></trkpt>
<trkpt lat="43.4790578" lon="6.8862192"><ele></ele><time>2022-5-31T5:24:8Z</time></trkpt>
<trkpt lat="43.4790521" lon="6.8862229"><ele></ele><time>2022-5-31T5:24:11Z</time></trkpt>
<trkpt lat="43.4790469" lon="6.8862259"><ele></ele><time>2022-5-31T5:24:14Z</time></trkpt>
<trkpt lat="43.4790422" lon="6.8862283"><ele></ele><time>2022-5-31T5:24:17Z</time></trkpt>
<trkpt lat="43.4790353" lon="6.8862360"><ele></ele><time>2022-5-31T5:24:20Z</time></trkpt>
<trkpt lat="43.4790328" lon="6.8862423"><ele></ele><time>2022-5-31T5:24:23Z</time></trkpt>
<trkpt lat="43.4790372" lon="6.8862425"><ele></ele><time>2022-5-31T5:24:26Z</time></trkpt>
<trkpt lat="43.4790383" lon="6.8862422"><ele></ele><time>2022-5-31T5:24:29Z</time></trkpt>
<trkpt lat="43.4790385" lon="6.8862423"><ele></ele><time>2022-5-31T5:24:32Z</time></trkpt>
<trkpt lat="43.4790390" lon="6.8862427"><ele></ele><time>2022-5-31T5:24:35Z</time></trkpt>
<trkpt lat="43.4790391" lon="6.8862427"><ele></ele><time>2022-5-31T5:24:38Z</time></trkpt>
<trkpt lat="43.4790395" lon="6.8862427"><ele></ele><time>2022-5-31T5:24:41Z</time></trkpt>
<trkpt lat="43.4790401" lon="6.8862424"><ele></ele><time>2022-5-31T5:24:44Z</time></trkpt>
<trkpt lat="43.4790402" lon="6.8862423"><ele></ele><time>2022-5-31T5:24:47Z</time></trkpt>
<trkpt lat="43.4790412" lon="6.8862420"><ele></ele><time>2022-5-31T5:24:50Z</time></trkpt>
<trkpt lat="43.4790417" lon="6.8862417"><ele></ele><time>2022-5-31T5:24:53Z</time></trkpt>
<trkpt lat="43.4790423" lon="6.8862411"><ele></ele><time>2022-5-31T5:24:56Z</time></trkpt>
<trkpt lat="43.4790426" lon="6.8862407"><ele></ele><time>2022-5-31T5:24:59Z</time></trkpt>
<trkpt lat="43.4790429" lon="6.8862401"><ele></ele><time>2022-5-31T5:25:2Z</time></trkpt>
<trkpt lat="43.4790432" lon="6.8862397"><ele></ele><time>2022-5-31T5:25:5Z</time></trkpt>
<trkpt lat="43.4790434" lon="6.8862394"><ele></ele><time>2022-5-31T5:25:8Z</time></trkpt>
<trkpt lat="43.4790435" lon="6.8862390"><ele></ele><time>2022-5-31T5:25:11Z</time></trkpt>
<trkpt lat="43.4790436" lon="6.8862389"><ele></ele><time>2022-5-31T5:25:14Z</time></trkpt>
<trkpt lat="43.4790437" lon="6.8862388"><ele></ele><time>2022-5-31T5:25:17Z</time></trkpt>
<trkpt lat="43.4790439" lon="6.8862387"><ele></ele><time>2022-5-31T5:25:20Z</time></trkpt>
<trkpt lat="43.4790440" lon="6.8862386"><ele></ele><time>2022-5-31T5:25:23Z</time></trkpt>
<trkpt lat="43.4790440" lon="6.8862386"><ele></ele><time>2022-5-31T5:25:26Z</time></trkpt>
<trkpt lat="43.4790440" lon="6.8862387"><ele></ele><time>2022-5-31T5:25:29Z</time></trkpt>
<trkpt lat="43.4790442" lon="6.8862387"><ele></ele><time>2022-5-31T5:25:32Z</time></trkpt>
<trkpt lat="43.4790444" lon="6.8862386"><ele></ele><time>2022-5-31T5:25:35Z</time></trkpt>
<trkpt lat="43.4790442" lon="6.8862383"><ele></ele><time>2022-5-31T5:25:38Z</time></trkpt>
<trkpt lat="43.4790441" lon="6.8862380"><ele></ele><time>2022-5-31T5:25:41Z</time></trkpt>
<trkpt lat="43.4790439" lon="6.8862378"><ele></ele><time>2022-5-31T5:25:44Z</time></trkpt>
<trkpt lat="43.4790436" lon="6.8862377"><ele></ele><time>2022-5-31T5:25:47Z</time></trkpt>
<trkpt lat="43.4790440" lon="6.8862376"><ele></ele><time>2022-5-31T5:25:50Z</time></trkpt>
<trkpt lat="43.4790450" lon="6.8862371"><ele></ele><time>2022-5-31T5:25:53Z</time></trkpt>
<trkpt lat="43.4790450" lon="6.8862373"><ele></ele><time>2022-5-31T5:25:56Z</time></trkpt>
<trkpt lat="43.4790454" lon="6.8862379"><ele></ele><time>2022-5-31T5:25:59Z</time></trkpt>
<trkpt lat="43.4790457" lon="6.8862394"><ele></ele><time>2022-5-31T5:26:2Z</time></trkpt>
<trkpt lat="43.4790458" lon="6.8862396"><ele></ele><time>2022-5-31T5:26:5Z</time></trkpt>
<trkpt lat="43.4790461" lon="6.8862403"><ele></ele><time>2022-5-31T5:26:8Z</time></trkpt>
<trkpt lat="43.4790470" lon="6.8862406"><ele></ele><time>2022-5-31T5:26:11Z</time></trkpt>
<trkpt lat="43.4790492" lon="6.8862444"><ele></ele><time>2022-5-31T5:26:14Z</time></trkpt>
<trkpt lat="43.4790500" lon="6.8862460"><ele></ele><time>2022-5-31T5:26:17Z</time></trkpt>
<trkpt lat="43.4790502" lon="6.8862467"><ele></ele><time>2022-5-31T5:26:20Z</time></trkpt>
<trkpt lat="43.4790504" lon="6.8862470"><ele></ele><time>2022-5-31T5:26:23Z</time></trkpt>
<trkpt lat="43.4790509" lon="6.8862475"><ele></ele><time>2022-5-31T5:26:26Z</time></trkpt>
<trkpt lat="43.4790514" lon="6.8862479"><ele></ele><time>2022-5-31T5:26:29Z</time></trkpt>
<trkpt lat="43.4790518" lon="6.8862485"><ele></ele><time>2022-5-31T5:26:32Z</time></trkpt>
<trkpt lat="43.4790522" lon="6.8862485"><ele></ele><time>2022-5-31T5:26:35Z</time></trkpt>
<trkpt lat="43.4790534" lon="6.8862483"><ele></ele><time>2022-5-31T5:26:38Z</time></trkpt>
<trkpt lat="43.4790542" lon="6.8862525"><ele></ele><time>2022-5-31T5:26:41Z</time></trkpt>
<trkpt lat="43.4790485" lon="6.8862580"><ele></ele><time>2022-5-31T5:26:44Z</time></trkpt>
<trkpt lat="43.4790384" lon="6.8862568"><ele></ele><time>2022-5-31T5:26:47Z</time></trkpt>
<trkpt lat="43.4790255" lon="6.8862589"><ele></ele><time>2022-5-31T5:26:50Z</time></trkpt>
<trkpt lat="43.4790177" lon="6.8862693"><ele></ele><time>2022-5-31T5:26:53Z</time></trkpt>
<trkpt lat="43.4790149" lon="6.8862750"><ele></ele><time>2022-5-31T5:26:56Z</time></trkpt>
<trkpt lat="43.4790209" lon="6.8862768"><ele></ele><time>2022-5-31T5:26:59Z</time></trkpt>
<trkpt lat="43.4790187" lon="6.8862834"><ele></ele><time>2022-5-31T5:27:2Z</time></trkpt>
<trkpt lat="43.4790155" lon="6.8862893"><ele></ele><time>2022-5-31T5:27:5Z</time></trkpt>
<trkpt lat="43.4790119" lon="6.8862970"><ele></ele><time>2022-5-31T5:27:8Z</time></trkpt>
<trkpt lat="43.4790065" lon="6.8863089"><ele></ele><time>2022-5-31T5:27:11Z</time></trkpt>
<trkpt lat="43.4790009" lon="6.8863177"><ele></ele><time>2022-5-31T5:27:14Z</time></trkpt>
<trkpt lat="43.4789934" lon="6.8863235"><ele></ele><time>2022-5-31T5:27:17Z</time></trkpt>
<trkpt lat="43.4789834" lon="6.8863312"><ele></ele><time>2022-5-31T5:27:20Z</time></trkpt>
<trkpt lat="43.4789740" lon="6.8863407"><ele></ele><time>2022-5-31T5:27:23Z</time></trkpt>
<trkpt lat="43.4789659" lon="6.8863481"><ele></ele><time>2022-5-31T5:27:26Z</time></trkpt>
<trkpt lat="43.4789618" lon="6.8863511"><ele></ele><time>2022-5-31T5:27:29Z</time></trkpt>
<trkpt lat="43.4789605" lon="6.8863534"><ele></ele><time>2022-5-31T5:27:32Z</time></trkpt>
<trkpt lat="43.4789653" lon="6.8863525"><ele></ele><time>2022-5-31T5:27:35Z</time></trkpt>
<trkpt lat="43.4789641" lon="6.8863523"><ele></ele><time>2022-5-31T5:27:38Z</time></trkpt>
<trkpt lat="43.4789664" lon="6.8863517"><ele></ele><time>2022-5-31T5:27:41Z</time></trkpt>
<trkpt lat="43.4789687" lon="6.8863514"><ele></ele><time>2022-5-31T5:27:44Z</time></trkpt>
<trkpt lat="43.4789688" lon="6.8863514"><ele></ele><time>2022-5-31T5:27:47Z</time></trkpt>
<trkpt lat="43.4789689" lon="6.8863514"><ele></ele><time>2022-5-31T5:27:50Z</time></trkpt>
<trkpt lat="43.4789690" lon="6.8863514"><ele></ele><time>2022-5-31T5:27:53Z</time></trkpt>
<trkpt lat="43.4789694" lon="6.8863512"><ele></ele><time>2022-5-31T5:27:56Z</time></trkpt>
<trkpt lat="43.4789696" lon="6.8863512"><ele></ele><time>2022-5-31T5:27:59Z</time></trkpt>
<trkpt lat="43.4789697" lon="6.8863512"><ele></ele><time>2022-5-31T5:28:2Z</time></trkpt>
<trkpt lat="43.4789698" lon="6.8863512"><ele></ele><time>2022-5-31T5:28:5Z</time></trkpt>
<trkpt lat="43.4789699" lon="6.8863512"><ele></ele><time>2022-5-31T5:28:8Z</time></trkpt>
<trkpt lat="43.4789699" lon="6.8863512"><ele></ele><time>2022-5-31T5:28:11Z</time></trkpt>
<trkpt lat="43.4789700" lon="6.8863512"><ele></ele><time>2022-5-31T5:28:14Z</time></trkpt>
<trkpt lat="43.4789700" lon="6.8863512"><ele></ele><time>2022-5-31T5:28:17Z</time></trkpt>
<trkpt lat="43.4789701" lon="6.8863511"><ele></ele><time>2022-5-31T5:28:20Z</time></trkpt>
<trkpt lat="43.4789701" lon="6.8863510"><ele></ele><time>2022-5-31T5:28:23Z</time></trkpt>
<trkpt lat="43.4789702" lon="6.8863510"><ele></ele><time>2022-5-31T5:28:26Z</time></trkpt>
<trkpt lat="43.4789702" lon="6.8863510"><ele></ele><time>2022-5-31T5:28:29Z</time></trkpt>
<trkpt lat="43.4789703" lon="6.8863510"><ele></ele><time>2022-5-31T5:28:32Z</time></trkpt>
<trkpt lat="43.4789703" lon="6.8863511"><ele></ele><time>2022-5-31T5:28:35Z</time></trkpt>
<trkpt lat="43.4789703" lon="6.8863511"><ele></ele><time>2022-5-31T5:28:38Z</time></trkpt>
<trkpt lat="43.4789703" lon="6.8863511"><ele></ele><time>2022-5-31T5:28:41Z</time></trkpt>
<trkpt lat="43.4789701" lon="6.8863511"><ele></ele><time>2022-5-31T5:28:44Z</time></trkpt>
<trkpt lat="43.4789695" lon="6.8863513"><ele></ele><time>2022-5-31T5:28:47Z</time></trkpt>
<trkpt lat="43.4789694" lon="6.8863512"><ele></ele><time>2022-5-31T5:28:50Z</time></trkpt>
<trkpt lat="43.4789695" lon="6.8863511"><ele></ele><time>2022-5-31T5:28:53Z</time></trkpt>
<trkpt lat="43.4789694" lon="6.8863510"><ele></ele><time>2022-5-31T5:28:56Z</time></trkpt>
<trkpt lat="43.4789693" lon="6.8863510"><ele></ele><time>2022-5-31T5:28:59Z</time></trkpt>
<trkpt lat="43.4789693" lon="6.8863509"><ele></ele><time>2022-5-31T5:29:2Z</time></trkpt>
<trkpt lat="43.4789693" lon="6.8863509"><ele></ele><time>2022-5-31T5:29:5Z</time></trkpt>
<trkpt lat="43.4789692" lon="6.8863508"><ele></ele><time>2022-5-31T5:29:8Z</time></trkpt>
<trkpt lat="43.4789690" lon="6.8863508"><ele></ele><time>2022-5-31T5:29:11Z</time></trkpt>
<trkpt lat="43.4789683" lon="6.8863510"><ele></ele><time>2022-5-31T5:29:14Z</time></trkpt>
<trkpt lat="43.4789741" lon="6.8863574"><ele></ele><time>2022-5-31T5:29:17Z</time></trkpt>
<trkpt lat="43.4789740" lon="6.8863624"><ele></ele><time>2022-5-31T5:29:20Z</time></trkpt>
<trkpt lat="43.4789794" lon="6.8863741"><ele></ele><time>2022-5-31T5:29:23Z</time></trkpt>
<trkpt lat="43.4789877" lon="6.8863854"><ele></ele><time>2022-5-31T5:29:26Z</time></trkpt>
<trkpt lat="43.4789895" lon="6.8863807"><ele></ele><time>2022-5-31T5:29:29Z</time></trkpt>
<trkpt lat="43.4789901" lon="6.8863795"><ele></ele><time>2022-5-31T5:29:32Z</time></trkpt>
<trkpt lat="43.4789923" lon="6.8863784"><ele></ele><time>2022-5-31T5:29:35Z</time></trkpt>
<trkpt lat="43.4789902" lon="6.8863783"><ele></ele><time>2022-5-31T5:29:38Z</time></trkpt>
<trkpt lat="43.4789901" lon="6.8863789"><ele></ele><time>2022-5-31T5:29:41Z</time></trkpt>
<trkpt lat="43.4789928" lon="6.8863797"><ele></ele><time>2022-5-31T5:29:44Z</time></trkpt>
<trkpt lat="43.4789920" lon="6.8863802"><ele></ele><time>2022-5-31T5:29:47Z</time></trkpt>
<trkpt lat="43.4789922" lon="6.8863806"><ele></ele><time>2022-5-31T5:29:50Z</time></trkpt>
<trkpt lat="43.4789923" lon="6.8863808"><ele></ele><time>2022-5-31T5:29:53Z</time></trkpt>
<trkpt lat="43.4789921" lon="6.8863812"><ele></ele><time>2022-5-31T5:29:56Z</time></trkpt>
<trkpt lat="43.4789923" lon="6.8863815"><ele></ele><time>2022-5-31T5:29:59Z</time></trkpt>
<trkpt lat="43.4789931" lon="6.8863819"><ele></ele><time>2022-5-31T5:30:2Z</time></trkpt>
<trkpt lat="43.4789952" lon="6.8863767"><ele></ele><time>2022-5-31T5:30:5Z</time></trkpt>
<trkpt lat="43.4789843" lon="6.8863720"><ele></ele><time>2022-5-31T5:30:8Z</time></trkpt>
<trkpt lat="43.4789588" lon="6.8863688"><ele></ele><time>2022-5-31T5:30:11Z</time></trkpt>
<trkpt lat="43.4789358" lon="6.8863630"><ele></ele><time>2022-5-31T5:30:14Z</time></trkpt>
<trkpt lat="43.4789154" lon="6.8863502"><ele></ele><time>2022-5-31T5:30:17Z</time></trkpt>
<trkpt lat="43.4789024" lon="6.8863413"><ele></ele><time>2022-5-31T5:30:20Z</time></trkpt>
<trkpt lat="43.4788894" lon="6.8863222"><ele></ele><time>2022-5-31T5:30:23Z</time></trkpt>
<trkpt lat="43.4788774" lon="6.8862962"><ele></ele><time>2022-5-31T5:30:26Z</time></trkpt>
<trkpt lat="43.4788737" lon="6.8862761"><ele></ele><time>2022-5-31T5:30:29Z</time></trkpt>
<trkpt lat="43.4788767" lon="6.8862519"><ele></ele><time>2022-5-31T5:30:32Z</time></trkpt>
<trkpt lat="43.4788783" lon="6.8862445"><ele></ele><time>2022-5-31T5:30:35Z</time></trkpt>
<trkpt lat="43.4788815" lon="6.8862454"><ele></ele><time>2022-5-31T5:30:38Z</time></trkpt>
<trkpt lat="43.4788812" lon="6.8862442"><ele></ele><time>2022-5-31T5:30:41Z</time></trkpt>
<trkpt lat="43.4788805" lon="6.8862432"><ele></ele><time>2022-5-31T5:30:44Z</time></trkpt>
<trkpt lat="43.4788804" lon="6.8862426"><ele></ele><time>2022-5-31T5:30:47Z</time></trkpt>
<trkpt lat="43.4788809" lon="6.8862419"><ele></ele><time>2022-5-31T5:30:50Z</time></trkpt>
<trkpt lat="43.4788813" lon="6.8862419"><ele></ele><time>2022-5-31T5:30:53Z</time></trkpt>
<trkpt lat="43.4788832" lon="6.8862323"><ele></ele><time>2022-5-31T5:30:56Z</time></trkpt>
<trkpt lat="43.4788905" lon="6.8862285"><ele></ele><time>2022-5-31T5:30:59Z</time></trkpt>
<trkpt lat="43.4789058" lon="6.8862256"><ele></ele><time>2022-5-31T5:31:2Z</time></trkpt>
<trkpt lat="43.4789109" lon="6.8862279"><ele></ele><time>2022-5-31T5:31:5Z</time></trkpt>
<trkpt lat="43.4789220" lon="6.8862293"><ele></ele><time>2022-5-31T5:31:8Z</time></trkpt>
<trkpt lat="43.4789239" lon="6.8862271"><ele></ele><time>2022-5-31T5:31:11Z</time></trkpt>
<trkpt lat="43.4789272" lon="6.8862254"><ele></ele><time>2022-5-31T5:31:14Z</time></trkpt>
<trkpt lat="43.4789321" lon="6.8862205"><ele></ele><time>2022-5-31T5:31:17Z</time></trkpt>
<trkpt lat="43.4789350" lon="6.8862141"><ele></ele><time>2022-5-31T5:31:20Z</time></trkpt>
<trkpt lat="43.4789337" lon="6.8862083"><ele></ele><time>2022-5-31T5:31:23Z</time></trkpt>
<trkpt lat="43.4789325" lon="6.8862022"><ele></ele><time>2022-5-31T5:31:26Z</time></trkpt>
<trkpt lat="43.4789305" lon="6.8861962"><ele></ele><time>2022-5-31T5:31:29Z</time></trkpt>
<trkpt lat="43.4789249" lon="6.8861880"><ele></ele><time>2022-5-31T5:31:32Z</time></trkpt>
<trkpt lat="43.4789185" lon="6.8861779"><ele></ele><time>2022-5-31T5:31:35Z</time></trkpt>
<trkpt lat="43.4789242" lon="6.8861668"><ele></ele><time>2022-5-31T5:31:38Z</time></trkpt>
<trkpt lat="43.4789242" lon="6.8861582"><ele></ele><time>2022-5-31T5:31:41Z</time></trkpt>
<trkpt lat="43.4789236" lon="6.8861533"><ele></ele><time>2022-5-31T5:31:44Z</time></trkpt>
<trkpt lat="43.4789226" lon="6.8861477"><ele></ele><time>2022-5-31T5:31:47Z</time></trkpt>
<trkpt lat="43.4789218" lon="6.8861442"><ele></ele><time>2022-5-31T5:31:50Z</time></trkpt>
<trkpt lat="43.4789210" lon="6.8861429"><ele></ele><time>2022-5-31T5:31:53Z</time></trkpt>
<trkpt lat="43.4789251" lon="6.8861346"><ele></ele><time>2022-5-31T5:31:56Z</time></trkpt>
<trkpt lat="43.4789377" lon="6.8861187"><ele></ele><time>2022-5-31T5:31:59Z</time></trkpt>
<trkpt lat="43.4789563" lon="6.8860984"><ele></ele><time>2022-5-31T5:32:2Z</time></trkpt>
<trkpt lat="43.4789754" lon="6.8860767"><ele></ele><time>2022-5-31T5:32:5Z</time></trkpt>
<trkpt lat="43.4789908" lon="6.8860555"><ele></ele><time>2022-5-31T5:32:8Z</time></trkpt>
<trkpt lat="43.4790068" lon="6.8860378"><ele></ele><time>2022-5-31T5:32:11Z</time></trkpt>
<trkpt lat="43.4790238" lon="6.8860336"><ele></ele><time>2022-5-31T5:32:14Z</time></trkpt>
<trkpt lat="43.4790470" lon="6.8860387"><ele></ele><time>2022-5-31T5:32:17Z</time></trkpt>
<trkpt lat="43.4790720" lon="6.8860469"><ele></ele><time>2022-5-31T5:32:20Z</time></trkpt>
<trkpt lat="43.4790908" lon="6.8860464"><ele></ele><time>2022-5-31T5:32:23Z</time></trkpt>
<trkpt lat="43.4791110" lon="6.8860466"><ele></ele><time>2022-5-31T5:32:26Z</time></trkpt>
<trkpt lat="43.4791320" lon="6.8860497"><ele></ele><time>2022-5-31T5:32:29Z</time></trkpt>
<trkpt lat="43.4791501" lon="6.8860591"><ele></ele><time>2022-5-31T5:32:32Z</time></trkpt>
<trkpt lat="43.4791611" lon="6.8860647"><ele></ele><time>2022-5-31T5:32:35Z</time></trkpt>
<trkpt lat="43.4791653" lon="6.8860693"><ele></ele><time>2022-5-31T5:32:38Z</time></trkpt>
<trkpt lat="43.4791711" lon="6.8860653"><ele></ele><time>2022-5-31T5:32:41Z</time></trkpt>
<trkpt lat="43.4791708" lon="6.8860649"><ele></ele><time>2022-5-31T5:32:44Z</time></trkpt>
<trkpt lat="43.4791715" lon="6.8860644"><ele></ele><time>2022-5-31T5:32:47Z</time></trkpt>
<trkpt lat="43.4791715" lon="6.8860647"><ele></ele><time>2022-5-31T5:32:50Z</time></trkpt>
<trkpt lat="43.4791775" lon="6.8860675"><ele></ele><time>2022-5-31T5:32:53Z</time></trkpt>
<trkpt lat="43.4791920" lon="6.8860713"><ele></ele><time>2022-5-31T5:32:56Z</time></trkpt>
<trkpt lat="43.4792030" lon="6.8860694"><ele></ele><time>2022-5-31T5:32:59Z</time></trkpt>
<trkpt lat="43.4792031" lon="6.8860697"><ele></ele><time>2022-5-31T5:33:2Z</time></trkpt>
<trkpt lat="43.4791993" lon="6.8860738"><ele></ele><time>2022-5-31T5:33:5Z</time></trkpt>
<trkpt lat="43.4791981" lon="6.8860779"><ele></ele><time>2022-5-31T5:33:8Z</time></trkpt>
<trkpt lat="43.4791975" lon="6.8860782"><ele></ele><time>2022-5-31T5:33:11Z</time></trkpt>
<trkpt lat="43.4791990" lon="6.8860763"><ele></ele><time>2022-5-31T5:33:14Z</time></trkpt>
<trkpt lat="43.4791986" lon="6.8860764"><ele></ele><time>2022-5-31T5:33:17Z</time></trkpt>
<trkpt lat="43.4791987" lon="6.8860763"><ele></ele><time>2022-5-31T5:33:20Z</time></trkpt>
<trkpt lat="43.4791999" lon="6.8860747"><ele></ele><time>2022-5-31T5:33:23Z</time></trkpt>
<trkpt lat="43.4791964" lon="6.8860712"><ele></ele><time>2022-5-31T5:33:26Z</time></trkpt>
<trkpt lat="43.4791983" lon="6.8860662"><ele></ele><time>2022-5-31T5:33:29Z</time></trkpt>
<trkpt lat="43.4791961" lon="6.8860695"><ele></ele><time>2022-5-31T5:33:32Z</time></trkpt>
<trkpt lat="43.4791965" lon="6.8860699"><ele></ele><time>2022-5-31T5:33:35Z</time></trkpt>
<trkpt lat="43.4791961" lon="6.8860701"><ele></ele><time>2022-5-31T5:33:38Z</time></trkpt>
<trkpt lat="43.4791953" lon="6.8860709"><ele></ele><time>2022-5-31T5:33:41Z</time></trkpt>
<trkpt lat="43.4791951" lon="6.8860718"><ele></ele><time>2022-5-31T5:33:44Z</time></trkpt>
<trkpt lat="43.4791949" lon="6.8860745"><ele></ele><time>2022-5-31T5:33:47Z</time></trkpt>
<trkpt lat="43.4791938" lon="6.8860748"><ele></ele><time>2022-5-31T5:33:50Z</time></trkpt>
<trkpt lat="43.4791976" lon="6.8860718"><ele></ele><time>2022-5-31T5:33:53Z</time></trkpt>
<trkpt lat="43.4791997" lon="6.8860641"><ele></ele><time>2022-5-31T5:33:56Z</time></trkpt>
<trkpt lat="43.4792028" lon="6.8860502"><ele></ele><time>2022-5-31T5:33:59Z</time></trkpt>
<trkpt lat="43.4792047" lon="6.8860440"><ele></ele><time>2022-5-31T5:34:2Z</time></trkpt>
<trkpt lat="43.4792056" lon="6.8860384"><ele></ele><time>2022-5-31T5:34:5Z</time></trkpt>
<trkpt lat="43.4792061" lon="6.8860332"><ele></ele><time>2022-5-31T5:34:8Z</time></trkpt>
<trkpt lat="43.4792108" lon="6.8860232"><ele></ele><time>2022-5-31T5:34:11Z</time></trkpt>
<trkpt lat="43.4792127" lon="6.8860159"><ele></ele><time>2022-5-31T5:34:14Z</time></trkpt>
<trkpt lat="43.4792150" lon="6.8860048"><ele></ele><time>2022-5-31T5:34:17Z</time></trkpt>
<trkpt lat="43.4792094" lon="6.8860008"><ele></ele><time>2022-5-31T5:34:20Z</time></trkpt>
<trkpt lat="43.4792045" lon="6.8859813"><ele></ele><time>2022-5-31T5:34:23Z</time></trkpt>
<trkpt lat="43.4791970" lon="6.8859749"><ele></ele><time>2022-5-31T5:34:26Z</time></trkpt>
<trkpt lat="43.4791911" lon="6.8859688"><ele></ele><time>2022-5-31T5:34:29Z</time></trkpt>
<trkpt lat="43.4791919" lon="6.8859504"><ele></ele><time>2022-5-31T5:34:32Z</time></trkpt>
<trkpt lat="43.4791918" lon="6.8859365"><ele></ele><time>2022-5-31T5:34:35Z</time></trkpt>
<trkpt lat="43.4791934" lon="6.8859257"><ele></ele><time>2022-5-31T5:34:38Z</time></trkpt>
<trkpt lat="43.4791941" lon="6.8859181"><ele></ele><time>2022-5-31T5:34:41Z</time></trkpt>
<trkpt lat="43.4791947" lon="6.8859128"><ele></ele><time>2022-5-31T5:34:44Z</time></trkpt>
<trkpt lat="43.4792023" lon="6.8859050"><ele></ele><time>2022-5-31T5:34:47Z</time></trkpt>
<trkpt lat="43.4792099" lon="6.8858968"><ele></ele><time>2022-5-31T5:34:50Z</time></trkpt>
<trkpt lat="43.4792091" lon="6.8858999"><ele></ele><time>2022-5-31T5:34:53Z</time></trkpt>
<trkpt lat="43.4792123" lon="6.8858988"><ele></ele><time>2022-5-31T5:34:56Z</time></trkpt>
<trkpt lat="43.4792133" lon="6.8858917"><ele></ele><time>2022-5-31T5:34:59Z</time></trkpt>
<trkpt lat="43.4792125" lon="6.8858940"><ele></ele><time>2022-5-31T5:35:2Z</time></trkpt>
<trkpt lat="43.4792132" lon="6.8858936"><ele></ele><time>2022-5-31T5:35:5Z</time></trkpt>
<trkpt lat="43.4792136" lon="6.8858928"><ele></ele><time>2022-5-31T5:35:8Z</time></trkpt>
<trkpt lat="43.4792137" lon="6.8858916"><ele></ele><time>2022-5-31T5:35:11Z</time></trkpt>
<trkpt lat="43.4792138" lon="6.8858907"><ele></ele><time>2022-5-31T5:35:14Z</time></trkpt>
<trkpt lat="43.4792136" lon="6.8858901"><ele></ele><time>2022-5-31T5:35:17Z</time></trkpt>
<trkpt lat="43.4792141" lon="6.8858889"><ele></ele><time>2022-5-31T5:35:20Z</time></trkpt>
<trkpt lat="43.4792140" lon="6.8858887"><ele></ele><time>2022-5-31T5:35:23Z</time></trkpt>
<trkpt lat="43.4792136" lon="6.8858890"><ele></ele><time>2022-5-31T5:35:26Z</time></trkpt>
<trkpt lat="43.4792171" lon="6.8858838"><ele></ele><time>2022-5-31T5:35:29Z</time></trkpt>
<trkpt lat="43.4792254" lon="6.8858745"><ele></ele><time>2022-5-31T5:35:32Z</time></trkpt>
<trkpt lat="43.4792523" lon="6.8858698"><ele></ele><time>2022-5-31T5:35:35Z</time></trkpt>
<trkpt lat="43.4792902" lon="6.8858702"><ele></ele><time>2022-5-31T5:35:38Z</time></trkpt>
<trkpt lat="43.4793158" lon="6.8858588"><ele></ele><time>2022-5-31T5:35:41Z</time></trkpt>
<trkpt lat="43.4793303" lon="6.8858377"><ele></ele><time>2022-5-31T5:35:44Z</time></trkpt>
<trkpt lat="43.4793341" lon="6.8857991"><ele></ele><time>2022-5-31T5:35:47Z</time></trkpt>
<trkpt lat="43.4793349" lon="6.8857723"><ele></ele><time>2022-5-31T5:35:50Z</time></trkpt>
<trkpt lat="43.4793277" lon="6.8857474"><ele></ele><time>2022-5-31T5:35:53Z</time></trkpt>
<trkpt lat="43.4793175" lon="6.8857342"><ele></ele><time>2022-5-31T5:35:56Z</time></trkpt>
<trkpt lat="43.4793117" lon="6.8857297"><ele></ele><time>2022-5-31T5:35:59Z</time></trkpt>
<trkpt lat="43.4793083" lon="6.8857289"><ele></ele><time>2022-5-31T5:36:2Z</time></trkpt>
<trkpt lat="43.4793031" lon="6.8857287"><ele></ele><time>2022-5-31T5:36:5Z</time></trkpt>
<trkpt lat="43.4792924" lon="6.8857270"><ele></ele><time>2022-5-31T5:36:8Z</time></trkpt>
<trkpt lat="43.4792815" lon="6.8857192"><ele></ele><time>2022-5-31T5:36:11Z</time></trkpt>
<trkpt lat="43.4792768" lon="6.8857083"><ele></ele><time>2022-5-31T5:36:14Z</time></trkpt>
<trkpt lat="43.4792683" lon="6.8856991"><ele></ele><time>2022-5-31T5:36:17Z</time></trkpt>
<trkpt lat="43.4792561" lon="6.8856725"><ele></ele><time>2022-5-31T5:36:20Z</time></trkpt>
<trkpt lat="43.4792502" lon="6.8856827"><ele></ele><time>2022-5-31T5:36:23Z</time></trkpt>
<trkpt lat="43.4792491" lon="6.8856829"><ele></ele><time>2022-5-31T5:36:26Z</time></trkpt>
<trkpt lat="43.4792492" lon="6.8856833"><ele></ele><time>2022-5-31T5:36:29Z</time></trkpt>
<trkpt lat="43.4792494" lon="6.8856858"><ele></ele><time>2022-5-31T5:36:32Z</time></trkpt>
<trkpt lat="43.4792492" lon="6.8856865"><ele></ele><time>2022-5-31T5:36:35Z</time></trkpt>
<trkpt lat="43.4792490" lon="6.8856877"><ele></ele><time>2022-5-31T5:36:38Z</time></trkpt>
<trkpt lat="43.4792489" lon="6.8856892"><ele></ele><time>2022-5-31T5:36:41Z</time></trkpt>
<trkpt lat="43.4792490" lon="6.8856904"><ele></ele><time>2022-5-31T5:36:44Z</time></trkpt>
<trkpt lat="43.4792491" lon="6.8856917"><ele></ele><time>2022-5-31T5:36:47Z</time></trkpt>
<trkpt lat="43.4792494" lon="6.8856946"><ele></ele><time>2022-5-31T5:36:50Z</time></trkpt>
<trkpt lat="43.4792503" lon="6.8856966"><ele></ele><time>2022-5-31T5:36:53Z</time></trkpt>
<trkpt lat="43.4792505" lon="6.8856968"><ele></ele><time>2022-5-31T5:36:56Z</time></trkpt>
<trkpt lat="43.4792509" lon="6.8856975"><ele></ele><time>2022-5-31T5:36:59Z</time></trkpt>
<trkpt lat="43.4792511" lon="6.8856979"><ele></ele><time>2022-5-31T5:37:2Z</time></trkpt>
<trkpt lat="43.4792512" lon="6.8856980"><ele></ele><time>2022-5-31T5:37:5Z</time></trkpt>
<trkpt lat="43.4792510" lon="6.8856981"><ele></ele><time>2022-5-31T5:37:8Z</time></trkpt>
<trkpt lat="43.4792509" lon="6.8856983"><ele></ele><time>2022-5-31T5:37:11Z</time></trkpt>
<trkpt lat="43.4792501" lon="6.8857039"><ele></ele><time>2022-5-31T5:37:14Z</time></trkpt>
<trkpt lat="43.4792504" lon="6.8857074"><ele></ele><time>2022-5-31T5:37:17Z</time></trkpt>
<trkpt lat="43.4792507" lon="6.8857093"><ele></ele><time>2022-5-31T5:37:20Z</time></trkpt>
<trkpt lat="43.4792514" lon="6.8857106"><ele></ele><time>2022-5-31T5:37:23Z</time></trkpt>
<trkpt lat="43.4792521" lon="6.8857124"><ele></ele><time>2022-5-31T5:37:26Z</time></trkpt>
<trkpt lat="43.4792538" lon="6.8857155"><ele></ele><time>2022-5-31T5:37:29Z</time></trkpt>
<trkpt lat="43.4792555" lon="6.8857181"><ele></ele><time>2022-5-31T5:37:32Z</time></trkpt>
<trkpt lat="43.4792566" lon="6.8857212"><ele></ele><time>2022-5-31T5:37:35Z</time></trkpt>
<trkpt lat="43.4792572" lon="6.8857226"><ele></ele><time>2022-5-31T5:37:38Z</time></trkpt>
<trkpt lat="43.4792580" lon="6.8857243"><ele></ele><time>2022-5-31T5:37:41Z</time></trkpt>
<trkpt lat="43.4792586" lon="6.8857255"><ele></ele><time>2022-5-31T5:37:44Z</time></trkpt>
<trkpt lat="43.4792593" lon="6.8857265"><ele></ele><time>2022-5-31T5:37:47Z</time></trkpt>
<trkpt lat="43.4792602" lon="6.8857276"><ele></ele><time>2022-5-31T5:37:50Z</time></trkpt>
<trkpt lat="43.4792608" lon="6.8857282"><ele></ele><time>2022-5-31T5:37:53Z</time></trkpt>
<trkpt lat="43.4792614" lon="6.8857288"><ele></ele><time>2022-5-31T5:37:56Z</time></trkpt>
<trkpt lat="43.4792622" lon="6.8857295"><ele></ele><time>2022-5-31T5:37:59Z</time></trkpt>
<trkpt lat="43.4792640" lon="6.8857303"><ele></ele><time>2022-5-31T5:38:2Z</time></trkpt>
<trkpt lat="43.4792655" lon="6.8857311"><ele></ele><time>2022-5-31T5:38:5Z</time></trkpt>
<trkpt lat="43.4792662" lon="6.8857317"><ele></ele><time>2022-5-31T5:38:8Z</time></trkpt>
<trkpt lat="43.4792669" lon="6.8857323"><ele></ele><time>2022-5-31T5:38:11Z</time></trkpt>
<trkpt lat="43.4792674" lon="6.8857327"><ele></ele><time>2022-5-31T5:38:14Z</time></trkpt>
<trkpt lat="43.4792685" lon="6.8857340"><ele></ele><time>2022-5-31T5:38:17Z</time></trkpt>
<trkpt lat="43.4792689" lon="6.8857343"><ele></ele><time>2022-5-31T5:38:20Z</time></trkpt>
<trkpt lat="43.4792694" lon="6.8857349"><ele></ele><time>2022-5-31T5:38:23Z</time></trkpt>
<trkpt lat="43.4792703" lon="6.8857358"><ele></ele><time>2022-5-31T5:38:26Z</time></trkpt>
<trkpt lat="43.4792706" lon="6.8857359"><ele></ele><time>2022-5-31T5:38:29Z</time></trkpt>
<trkpt lat="43.4792711" lon="6.8857363"><ele></ele><time>2022-5-31T5:38:32Z</time></trkpt>
<trkpt lat="43.4792722" lon="6.8857373"><ele></ele><time>2022-5-31T5:38:35Z</time></trkpt>
<trkpt lat="43.4792726" lon="6.8857375"><ele></ele><time>2022-5-31T5:38:38Z</time></trkpt>
<trkpt lat="43.4792733" lon="6.8857381"><ele></ele><time>2022-5-31T5:38:41Z</time></trkpt>
<trkpt lat="43.4792747" lon="6.8857384"><ele></ele><time>2022-5-31T5:38:44Z</time></trkpt>
<trkpt lat="43.4792761" lon="6.8857388"><ele></ele><time>2022-5-31T5:38:47Z</time></trkpt>
<trkpt lat="43.4792767" lon="6.8857392"><ele></ele><time>2022-5-31T5:38:50Z</time></trkpt>
<trkpt lat="43.4792784" lon="6.8857398"><ele></ele><time>2022-5-31T5:38:53Z</time></trkpt>
<trkpt lat="43.4792810" lon="6.8857399"><ele></ele><time>2022-5-31T5:38:56Z</time></trkpt>
<trkpt lat="43.4792825" lon="6.8857402"><ele></ele><time>2022-5-31T5:38:59Z</time></trkpt>
<trkpt lat="43.4792843" lon="6.8857401"><ele></ele><time>2022-5-31T5:39:2Z</time></trkpt>
<trkpt lat="43.4792858" lon="6.8857396"><ele></ele><time>2022-5-31T5:39:5Z</time></trkpt>
<trkpt lat="43.4792850" lon="6.8857416"><ele></ele><time>2022-5-31T5:39:8Z</time></trkpt>
<trkpt lat="43.4792843" lon="6.8857434"><ele></ele><time>2022-5-31T5:39:11Z</time></trkpt>
<trkpt lat="43.4792827" lon="6.8857455"><ele></ele><time>2022-5-31T5:39:14Z</time></trkpt>
<trkpt lat="43.4792811" lon="6.8857490"><ele></ele><time>2022-5-31T5:39:17Z</time></trkpt>
<trkpt lat="43.4792810" lon="6.8857503"><ele></ele><time>2022-5-31T5:39:20Z</time></trkpt>
<trkpt lat="43.4792804" lon="6.8857519"><ele></ele><time>2022-5-31T5:39:23Z</time></trkpt>
<trkpt lat="43.4792802" lon="6.8857527"><ele></ele><time>2022-5-31T5:39:26Z</time></trkpt>
<trkpt lat="43.4792802" lon="6.8857542"><ele></ele><time>2022-5-31T5:39:29Z</time></trkpt>
<trkpt lat="43.4792806" lon="6.8857561"><ele></ele><time>2022-5-31T5:39:32Z</time></trkpt>
<trkpt lat="43.4792807" lon="6.8857583"><ele></ele><time>2022-5-31T5:39:35Z</time></trkpt>
<trkpt lat="43.4792798" lon="6.8857583"><ele></ele><time>2022-5-31T5:39:38Z</time></trkpt>
<trkpt lat="43.4792798" lon="6.8857584"><ele></ele><time>2022-5-31T5:39:41Z</time></trkpt>
<trkpt lat="43.4792797" lon="6.8857584"><ele></ele><time>2022-5-31T5:39:44Z</time></trkpt>
<trkpt lat="43.4792798" lon="6.8857584"><ele></ele><time>2022-5-31T5:39:47Z</time></trkpt>
<trkpt lat="43.4792797" lon="6.8857582"><ele></ele><time>2022-5-31T5:39:50Z</time></trkpt>
<trkpt lat="43.4792798" lon="6.8857582"><ele></ele><time>2022-5-31T5:39:53Z</time></trkpt>
<trkpt lat="43.4792799" lon="6.8857583"><ele></ele><time>2022-5-31T5:39:56Z</time></trkpt>
<trkpt lat="43.4792799" lon="6.8857584"><ele></ele><time>2022-5-31T5:39:59Z</time></trkpt>
<trkpt lat="43.4792799" lon="6.8857584"><ele></ele><time>2022-5-31T5:40:2Z</time></trkpt>
<trkpt lat="43.4792798" lon="6.8857582"><ele></ele><time>2022-5-31T5:40:5Z</time></trkpt>
<trkpt lat="43.4792797" lon="6.8857581"><ele></ele><time>2022-5-31T5:40:8Z</time></trkpt>
<trkpt lat="43.4792796" lon="6.8857579"><ele></ele><time>2022-5-31T5:40:11Z</time></trkpt>
<trkpt lat="43.4792795" lon="6.8857576"><ele></ele><time>2022-5-31T5:40:14Z</time></trkpt>
<trkpt lat="43.4792794" lon="6.8857575"><ele></ele><time>2022-5-31T5:40:17Z</time></trkpt>
<trkpt lat="43.4792795" lon="6.8857576"><ele></ele><time>2022-5-31T5:40:20Z</time></trkpt>
<trkpt lat="43.4792798" lon="6.8857580"><ele></ele><time>2022-5-31T5:40:23Z</time></trkpt>
<trkpt lat="43.4792805" lon="6.8857583"><ele></ele><time>2022-5-31T5:40:26Z</time></trkpt>
<trkpt lat="43.4792804" lon="6.8857581"><ele></ele><time>2022-5-31T5:40:29Z</time></trkpt>
<trkpt lat="43.4792797" lon="6.8857571"><ele></ele><time>2022-5-31T5:40:32Z</time></trkpt>
<trkpt lat="43.4792787" lon="6.8857567"><ele></ele><time>2022-5-31T5:40:35Z</time></trkpt>
<trkpt lat="43.4792786" lon="6.8857568"><ele></ele><time>2022-5-31T5:40:38Z</time></trkpt>
<trkpt lat="43.4792787" lon="6.8857568"><ele></ele><time>2022-5-31T5:40:41Z</time></trkpt>
<trkpt lat="43.4792792" lon="6.8857575"><ele></ele><time>2022-5-31T5:40:44Z</time></trkpt>
<trkpt lat="43.4792798" lon="6.8857583"><ele></ele><time>2022-5-31T5:40:47Z</time></trkpt>
<trkpt lat="43.4792807" lon="6.8857597"><ele></ele><time>2022-5-31T5:40:50Z</time></trkpt>
<trkpt lat="43.4792834" lon="6.8857626"><ele></ele><time>2022-5-31T5:40:53Z</time></trkpt>
<trkpt lat="43.4792810" lon="6.8857589"><ele></ele><time>2022-5-31T5:40:56Z</time></trkpt>
<trkpt lat="43.4792661" lon="6.8857568"><ele></ele><time>2022-5-31T5:40:59Z</time></trkpt>
<trkpt lat="43.4792447" lon="6.8857625"><ele></ele><time>2022-5-31T5:41:2Z</time></trkpt>
<trkpt lat="43.4792120" lon="6.8857752"><ele></ele><time>2022-5-31T5:41:5Z</time></trkpt>
<trkpt lat="43.4791889" lon="6.8857761"><ele></ele><time>2022-5-31T5:41:8Z</time></trkpt>
<trkpt lat="43.4791702" lon="6.8857795"><ele></ele><time>2022-5-31T5:41:11Z</time></trkpt>
<trkpt lat="43.4791453" lon="6.8857835"><ele></ele><time>2022-5-31T5:41:14Z</time></trkpt>
<trkpt lat="43.4791211" lon="6.8857822"><ele></ele><time>2022-5-31T5:41:17Z</time></trkpt>
<trkpt lat="43.4790906" lon="6.8857799"><ele></ele><time>2022-5-31T5:41:20Z</time></trkpt>
<trkpt lat="43.4790594" lon="6.8857777"><ele></ele><time>2022-5-31T5:41:23Z</time></trkpt>
<trkpt lat="43.4790261" lon="6.8857749"><ele></ele><time>2022-5-31T5:41:26Z</time></trkpt>
<trkpt lat="43.4789990" lon="6.8857736"><ele></ele><time>2022-5-31T5:41:29Z</time></trkpt>
<trkpt lat="43.4789640" lon="6.8857837"><ele></ele><time>2022-5-31T5:41:32Z</time></trkpt>
<trkpt lat="43.4789419" lon="6.8857937"><ele></ele><time>2022-5-31T5:41:35Z</time></trkpt>
<trkpt lat="43.4789231" lon="6.8857940"><ele></ele><time>2022-5-31T5:41:38Z</time></trkpt>
<trkpt lat="43.4788960" lon="6.8857949"><ele></ele><time>2022-5-31T5:41:41Z</time></trkpt>
<trkpt lat="43.4788644" lon="6.8858033"><ele></ele><time>2022-5-31T5:41:44Z</time></trkpt>
<trkpt lat="43.4788410" lon="6.8858089"><ele></ele><time>2022-5-31T5:41:47Z</time></trkpt>
<trkpt lat="43.4788181" lon="6.8858138"><ele></ele><time>2022-5-31T5:41:50Z</time></trkpt>
<trkpt lat="43.4788000" lon="6.8858226"><ele></ele><time>2022-5-31T5:41:53Z</time></trkpt>
<trkpt lat="43.4787773" lon="6.8858304"><ele></ele><time>2022-5-31T5:41:56Z</time></trkpt>
<trkpt lat="43.4787514" lon="6.8858464"><ele></ele><time>2022-5-31T5:41:59Z</time></trkpt>
<trkpt lat="43.4787220" lon="6.8858634"><ele></ele><time>2022-5-31T5:42:2Z</time></trkpt>
<trkpt lat="43.4786943" lon="6.8858809"><ele></ele><time>2022-5-31T5:42:5Z</time></trkpt>
<trkpt lat="43.4786676" lon="6.8858979"><ele></ele><time>2022-5-31T5:42:8Z</time></trkpt>
<trkpt lat="43.4786419" lon="6.8859158"><ele></ele><time>2022-5-31T5:42:11Z</time></trkpt>
<trkpt lat="43.4786173" lon="6.8859309"><ele></ele><time>2022-5-31T5:42:14Z</time></trkpt>
<trkpt lat="43.4785969" lon="6.8859431"><ele></ele><time>2022-5-31T5:42:17Z</time></trkpt>
<trkpt lat="43.4785759" lon="6.8859550"><ele></ele><time>2022-5-31T5:42:20Z</time></trkpt>
<trkpt lat="43.4785526" lon="6.8859675"><ele></ele><time>2022-5-31T5:42:23Z</time></trkpt>
<trkpt lat="43.4785314" lon="6.8859794"><ele></ele><time>2022-5-31T5:42:26Z</time></trkpt>
<trkpt lat="43.4785098" lon="6.8859877"><ele></ele><time>2022-5-31T5:42:29Z</time></trkpt>
<trkpt lat="43.4784814" lon="6.8859980"><ele></ele><time>2022-5-31T5:42:32Z</time></trkpt>
<trkpt lat="43.4784568" lon="6.8859997"><ele></ele><time>2022-5-31T5:42:35Z</time></trkpt>
<trkpt lat="43.4784291" lon="6.8859915"><ele></ele><time>2022-5-31T5:42:38Z</time></trkpt>
<trkpt lat="43.4784040" lon="6.8859766"><ele></ele><time>2022-5-31T5:42:41Z</time></trkpt>
<trkpt lat="43.4783787" lon="6.8859613"><ele></ele><time>2022-5-31T5:42:44Z</time></trkpt>
<trkpt lat="43.4783514" lon="6.8859580"><ele></ele><time>2022-5-31T5:42:47Z</time></trkpt>
<trkpt lat="43.4783208" lon="6.8859504"><ele></ele><time>2022-5-31T5:42:50Z</time></trkpt>
<trkpt lat="43.4782961" lon="6.8859353"><ele></ele><time>2022-5-31T5:42:53Z</time></trkpt>
<trkpt lat="43.4782701" lon="6.8859317"><ele></ele><time>2022-5-31T5:42:56Z</time></trkpt>
<trkpt lat="43.4782398" lon="6.8859204"><ele></ele><time>2022-5-31T5:42:59Z</time></trkpt>
<trkpt lat="43.4782056" lon="6.8859089"><ele></ele><time>2022-5-31T5:43:2Z</time></trkpt>
<trkpt lat="43.4781725" lon="6.8858974"><ele></ele><time>2022-5-31T5:43:5Z</time></trkpt>
<trkpt lat="43.4781402" lon="6.8858911"><ele></ele><time>2022-5-31T5:43:8Z</time></trkpt>
<trkpt lat="43.4781113" lon="6.8858725"><ele></ele><time>2022-5-31T5:43:11Z</time></trkpt>
<trkpt lat="43.4780798" lon="6.8858569"><ele></ele><time>2022-5-31T5:43:14Z</time></trkpt>
<trkpt lat="43.4780536" lon="6.8858342"><ele></ele><time>2022-5-31T5:43:17Z</time></trkpt>
<trkpt lat="43.4780340" lon="6.8858093"><ele></ele><time>2022-5-31T5:43:20Z</time></trkpt>
<trkpt lat="43.4780114" lon="6.8857939"><ele></ele><time>2022-5-31T5:43:23Z</time></trkpt>
<trkpt lat="43.4779861" lon="6.8857854"><ele></ele><time>2022-5-31T5:43:26Z</time></trkpt>
<trkpt lat="43.4779639" lon="6.8857678"><ele></ele><time>2022-5-31T5:43:29Z</time></trkpt>
<trkpt lat="43.4779464" lon="6.8857415"><ele></ele><time>2022-5-31T5:43:32Z</time></trkpt>
<trkpt lat="43.4779262" lon="6.8857106"><ele></ele><time>2022-5-31T5:43:35Z</time></trkpt>
<trkpt lat="43.4778987" lon="6.8856862"><ele></ele><time>2022-5-31T5:43:38Z</time></trkpt>
<trkpt lat="43.4778649" lon="6.8856659"><ele></ele><time>2022-5-31T5:43:41Z</time></trkpt>
<trkpt lat="43.4778342" lon="6.8856520"><ele></ele><time>2022-5-31T5:43:44Z</time></trkpt>
<trkpt lat="43.4778119" lon="6.8856291"><ele></ele><time>2022-5-31T5:43:47Z</time></trkpt>
<trkpt lat="43.4777934" lon="6.8856102"><ele></ele><time>2022-5-31T5:43:50Z</time></trkpt>
<trkpt lat="43.4777695" lon="6.8855943"><ele></ele><time>2022-5-31T5:43:53Z</time></trkpt>
<trkpt lat="43.4777443" lon="6.8855817"><ele></ele><time>2022-5-31T5:43:56Z</time></trkpt>
<trkpt lat="43.4777197" lon="6.8855621"><ele></ele><time>2022-5-31T5:43:59Z</time></trkpt>
<trkpt lat="43.4776905" lon="6.8855420"><ele></ele><time>2022-5-31T5:44:2Z</time></trkpt>
<trkpt lat="43.4776725" lon="6.8855177"><ele></ele><time>2022-5-31T5:44:5Z</time></trkpt>
<trkpt lat="43.4776559" lon="6.8854878"><ele></ele><time>2022-5-31T5:44:8Z</time></trkpt>
<trkpt lat="43.4776342" lon="6.8854582"><ele></ele><time>2022-5-31T5:44:11Z</time></trkpt>
<trkpt lat="43.4776235" lon="6.8854200"><ele></ele><time>2022-5-31T5:44:14Z</time></trkpt>
<trkpt lat="43.4776063" lon="6.8853748"><ele></ele><time>2022-5-31T5:44:17Z</time></trkpt>
<trkpt lat="43.4775938" lon="6.8853275"><ele></ele><time>2022-5-31T5:44:20Z</time></trkpt>
<trkpt lat="43.4775922" lon="6.8852838"><ele></ele><time>2022-5-31T5:44:23Z</time></trkpt>
<trkpt lat="43.4775860" lon="6.8852440"><ele></ele><time>2022-5-31T5:44:26Z</time></trkpt>
<trkpt lat="43.4775873" lon="6.8852110"><ele></ele><time>2022-5-31T5:44:29Z</time></trkpt>
<trkpt lat="43.4775817" lon="6.8851724"><ele></ele><time>2022-5-31T5:44:32Z</time></trkpt>
<trkpt lat="43.4775788" lon="6.8851379"><ele></ele><time>2022-5-31T5:44:35Z</time></trkpt>
<trkpt lat="43.4775709" lon="6.8851046"><ele></ele><time>2022-5-31T5:44:38Z</time></trkpt>
<trkpt lat="43.4775651" lon="6.8850696"><ele></ele><time>2022-5-31T5:44:41Z</time></trkpt>
<trkpt lat="43.4775638" lon="6.8850405"><ele></ele><time>2022-5-31T5:44:44Z</time></trkpt>
<trkpt lat="43.4775632" lon="6.8850079"><ele></ele><time>2022-5-31T5:44:47Z</time></trkpt>
<trkpt lat="43.4775534" lon="6.8849754"><ele></ele><time>2022-5-31T5:44:50Z</time></trkpt>
<trkpt lat="43.4775309" lon="6.8849551"><ele></ele><time>2022-5-31T5:44:53Z</time></trkpt>
<trkpt lat="43.4775054" lon="6.8849382"><ele></ele><time>2022-5-31T5:44:56Z</time></trkpt>
<trkpt lat="43.4774770" lon="6.8849341"><ele></ele><time>2022-5-31T5:44:59Z</time></trkpt>
<trkpt lat="43.4774444" lon="6.8849295"><ele></ele><time>2022-5-31T5:45:2Z</time></trkpt>
<trkpt lat="43.4774059" lon="6.8849172"><ele></ele><time>2022-5-31T5:45:5Z</time></trkpt>
<trkpt lat="43.4773600" lon="6.8849106"><ele></ele><time>2022-5-31T5:45:8Z</time></trkpt>
<trkpt lat="43.4773091" lon="6.8849100"><ele></ele><time>2022-5-31T5:45:11Z</time></trkpt>
<trkpt lat="43.4772525" lon="6.8849074"><ele></ele><time>2022-5-31T5:45:14Z</time></trkpt>
<trkpt lat="43.4771979" lon="6.8848986"><ele></ele><time>2022-5-31T5:45:17Z</time></trkpt>
<trkpt lat="43.4771412" lon="6.8848897"><ele></ele><time>2022-5-31T5:45:20Z</time></trkpt>
<trkpt lat="43.4770886" lon="6.8848846"><ele></ele><time>2022-5-31T5:45:23Z</time></trkpt>
<trkpt lat="43.4770394" lon="6.8848834"><ele></ele><time>2022-5-31T5:45:26Z</time></trkpt>
<trkpt lat="43.4769884" lon="6.8848744"><ele></ele><time>2022-5-31T5:45:29Z</time></trkpt>
<trkpt lat="43.4769330" lon="6.8848659"><ele></ele><time>2022-5-31T5:45:32Z</time></trkpt>
<trkpt lat="43.4768787" lon="6.8848523"><ele></ele><time>2022-5-31T5:45:35Z</time></trkpt>
<trkpt lat="43.4768195" lon="6.8848393"><ele></ele><time>2022-5-31T5:45:38Z</time></trkpt>
<trkpt lat="43.4767538" lon="6.8848283"><ele></ele><time>2022-5-31T5:45:41Z</time></trkpt>
<trkpt lat="43.4766867" lon="6.8848169"><ele></ele><time>2022-5-31T5:45:44Z</time></trkpt>
<trkpt lat="43.4766165" lon="6.8848002"><ele></ele><time>2022-5-31T5:45:47Z</time></trkpt>
<trkpt lat="43.4765467" lon="6.8847917"><ele></ele><time>2022-5-31T5:45:50Z</time></trkpt>
<trkpt lat="43.4764728" lon="6.8847845"><ele></ele><time>2022-5-31T5:45:53Z</time></trkpt>
<trkpt lat="43.4763964" lon="6.8847835"><ele></ele><time>2022-5-31T5:45:56Z</time></trkpt>
<trkpt lat="43.4763184" lon="6.8847770"><ele></ele><time>2022-5-31T5:45:59Z</time></trkpt>
<trkpt lat="43.4762447" lon="6.8847600"><ele></ele><time>2022-5-31T5:46:2Z</time></trkpt>
<trkpt lat="43.4761698" lon="6.8847373"><ele></ele><time>2022-5-31T5:46:5Z</time></trkpt>
<trkpt lat="43.4760961" lon="6.8847107"><ele></ele><time>2022-5-31T5:46:8Z</time></trkpt>
<trkpt lat="43.4760193" lon="6.8846817"><ele></ele><time>2022-5-31T5:46:11Z</time></trkpt>
<trkpt lat="43.4759375" lon="6.8846462"><ele></ele><time>2022-5-31T5:46:14Z</time></trkpt>
<trkpt lat="43.4758600" lon="6.8846014"><ele></ele><time>2022-5-31T5:46:17Z</time></trkpt>
<trkpt lat="43.4757919" lon="6.8845570"><ele></ele><time>2022-5-31T5:46:20Z</time></trkpt>
<trkpt lat="43.4757225" lon="6.8845200"><ele></ele><time>2022-5-31T5:46:23Z</time></trkpt>
<trkpt lat="43.4756537" lon="6.8844822"><ele></ele><time>2022-5-31T5:46:26Z</time></trkpt>
<trkpt lat="43.4755790" lon="6.8844539"><ele></ele><time>2022-5-31T5:46:29Z</time></trkpt>
<trkpt lat="43.4754954" lon="6.8844293"><ele></ele><time>2022-5-31T5:46:32Z</time></trkpt>
<trkpt lat="43.4754099" lon="6.8844083"><ele></ele><time>2022-5-31T5:46:35Z</time></trkpt>
<trkpt lat="43.4753260" lon="6.8843939"><ele></ele><time>2022-5-31T5:46:38Z</time></trkpt>
<trkpt lat="43.4752477" lon="6.8843868"><ele></ele><time>2022-5-31T5:46:41Z</time></trkpt>
<trkpt lat="43.4751713" lon="6.8843845"><ele></ele><time>2022-5-31T5:46:44Z</time></trkpt>
<trkpt lat="43.4750913" lon="6.8843847"><ele></ele><time>2022-5-31T5:46:47Z</time></trkpt>
<trkpt lat="43.4750098" lon="6.8843942"><ele></ele><time>2022-5-31T5:46:50Z</time></trkpt>
<trkpt lat="43.4749319" lon="6.8844159"><ele></ele><time>2022-5-31T5:46:53Z</time></trkpt>
<trkpt lat="43.4748623" lon="6.8844368"><ele></ele><time>2022-5-31T5:46:56Z</time></trkpt>
<trkpt lat="43.4748072" lon="6.8844638"><ele></ele><time>2022-5-31T5:46:59Z</time></trkpt>
<trkpt lat="43.4747779" lon="6.8844787"><ele></ele><time>2022-5-31T5:47:2Z</time></trkpt>
<trkpt lat="43.4747779" lon="6.8844787"><ele></ele><time>2022-5-31T5:47:5Z</time></trkpt>
<trkpt lat="43.4747779" lon="6.8844787"><ele></ele><time>2022-5-31T5:47:8Z</time></trkpt>
<trkpt lat="43.4747779" lon="6.8844787"><ele></ele><time>2022-5-31T5:47:11Z</time></trkpt>
<trkpt lat="43.4747779" lon="6.8844787"><ele></ele><time>2022-5-31T5:47:14Z</time></trkpt>
<trkpt lat="43.4747779" lon="6.8844787"><ele></ele><time>2022-5-31T5:47:17Z</time></trkpt>
<trkpt lat="43.4747779" lon="6.8844787"><ele></ele><time>2022-5-31T5:47:20Z</time></trkpt>
<trkpt lat="43.4747779" lon="6.8844787"><ele></ele><time>2022-5-31T5:47:23Z</time></trkpt>
<trkpt lat="43.4747779" lon="6.8844787"><ele></ele><time>2022-5-31T5:47:26Z</time></trkpt>
<trkpt lat="43.4747779" lon="6.8844787"><ele></ele><time>2022-5-31T5:47:29Z</time></trkpt>
<trkpt lat="43.4747779" lon="6.8844787"><ele></ele><time>2022-5-31T5:47:32Z</time></trkpt>
<trkpt lat="43.4747779" lon="6.8844787"><ele></ele><time>2022-5-31T5:47:35Z</time></trkpt>
<trkpt lat="43.4747779" lon="6.8844787"><ele></ele><time>2022-5-31T5:47:38Z</time></trkpt>
<trkpt lat="43.4747779" lon="6.8844787"><ele></ele><time>2022-5-31T5:47:41Z</time></trkpt>
<trkpt lat="43.4747779" lon="6.8844787"><ele></ele><time>2022-5-31T5:47:44Z</time></trkpt>
<trkpt lat="43.4747779" lon="6.8844787"><ele></ele><time>2022-5-31T5:47:47Z</time></trkpt>
<trkpt lat="43.4747779" lon="6.8844787"><ele></ele><time>2022-5-31T5:47:50Z</time></trkpt>
<trkpt lat="43.4747779" lon="6.8844787"><ele></ele><time>2022-5-31T5:47:53Z</time></trkpt>
<trkpt lat="43.4747779" lon="6.8844787"><ele></ele><time>2022-5-31T5:47:56Z</time></trkpt>
<trkpt lat="43.4747779" lon="6.8844787"><ele></ele><time>2022-5-31T5:47:59Z</time></trkpt>
<trkpt lat="43.4747779" lon="6.8844787"><ele></ele><time>2022-5-31T5:48:2Z</time></trkpt>
<trkpt lat="43.4747779" lon="6.8844787"><ele></ele><time>2022-5-31T5:48:5Z</time></trkpt>
<trkpt lat="43.4747779" lon="6.8844787"><ele></ele><time>2022-5-31T5:48:8Z</time></trkpt>
<trkpt lat="43.4747779" lon="6.8844787"><ele></ele><time>2022-5-31T5:48:11Z</time></trkpt>
<trkpt lat="43.4747779" lon="6.8844787"><ele></ele><time>2022-5-31T5:48:14Z</time></trkpt>
<trkpt lat="43.4747779" lon="6.8844787"><ele></ele><time>2022-5-31T5:48:17Z</time></trkpt>
<trkpt lat="43.4747779" lon="6.8844787"><ele></ele><time>2022-5-31T5:48:20Z</time></trkpt>
<trkpt lat="43.4747779" lon="6.8844787"><ele></ele><time>2022-5-31T5:48:23Z</time></trkpt>
<trkpt lat="43.4748096" lon="6.8845209"><ele></ele><time>2022-5-31T5:48:26Z</time></trkpt>
<trkpt lat="43.4748170" lon="6.8845214"><ele></ele><time>2022-5-31T5:48:29Z</time></trkpt>
<trkpt lat="43.4748216" lon="6.8845311"><ele></ele><time>2022-5-31T5:48:32Z</time></trkpt>
<trkpt lat="43.4748238" lon="6.8845157"><ele></ele><time>2022-5-31T5:48:35Z</time></trkpt>
<trkpt lat="43.4748272" lon="6.8845113"><ele></ele><time>2022-5-31T5:48:38Z</time></trkpt>
<trkpt lat="43.4748214" lon="6.8845060"><ele></ele><time>2022-5-31T5:48:41Z</time></trkpt>
<trkpt lat="43.4748293" lon="6.8845069"><ele></ele><time>2022-5-31T5:48:44Z</time></trkpt>
<trkpt lat="43.4748397" lon="6.8845085"><ele></ele><time>2022-5-31T5:48:47Z</time></trkpt>
<trkpt lat="43.4748449" lon="6.8845043"><ele></ele><time>2022-5-31T5:48:50Z</time></trkpt>
<trkpt lat="43.4748465" lon="6.8845035"><ele></ele><time>2022-5-31T5:48:53Z</time></trkpt>
<trkpt lat="43.4748667" lon="6.8845114"><ele></ele><time>2022-5-31T5:48:56Z</time></trkpt>
<trkpt lat="43.4748748" lon="6.8845203"><ele></ele><time>2022-5-31T5:48:59Z</time></trkpt>
<trkpt lat="43.4748939" lon="6.8845415"><ele></ele><time>2022-5-31T5:49:2Z</time></trkpt>
<trkpt lat="43.4749076" lon="6.8845563"><ele></ele><time>2022-5-31T5:49:5Z</time></trkpt>
<trkpt lat="43.4749152" lon="6.8845561"><ele></ele><time>2022-5-31T5:49:8Z</time></trkpt>
<trkpt lat="43.4749099" lon="6.8845545"><ele></ele><time>2022-5-31T5:49:11Z</time></trkpt>
<trkpt lat="43.4749106" lon="6.8845511"><ele></ele><time>2022-5-31T5:49:14Z</time></trkpt>
<trkpt lat="43.4749035" lon="6.8845538"><ele></ele><time>2022-5-31T5:49:17Z</time></trkpt>
<trkpt lat="43.4749003" lon="6.8845528"><ele></ele><time>2022-5-31T5:49:20Z</time></trkpt>
<trkpt lat="43.4748902" lon="6.8845663"><ele></ele><time>2022-5-31T5:49:23Z</time></trkpt>
<trkpt lat="43.4748898" lon="6.8845882"><ele></ele><time>2022-5-31T5:49:26Z</time></trkpt>
<trkpt lat="43.4748983" lon="6.8846065"><ele></ele><time>2022-5-31T5:49:29Z</time></trkpt>
<trkpt lat="43.4748937" lon="6.8846014"><ele></ele><time>2022-5-31T5:49:32Z</time></trkpt>
<trkpt lat="43.4748765" lon="6.8846075"><ele></ele><time>2022-5-31T5:49:35Z</time></trkpt>
<trkpt lat="43.4748573" lon="6.8845794"><ele></ele><time>2022-5-31T5:49:38Z</time></trkpt>
<trkpt lat="43.4748313" lon="6.8845415"><ele></ele><time>2022-5-31T5:49:41Z</time></trkpt>
<trkpt lat="43.4748295" lon="6.8845333"><ele></ele><time>2022-5-31T5:49:44Z</time></trkpt>
<trkpt lat="43.4748282" lon="6.8845330"><ele></ele><time>2022-5-31T5:49:47Z</time></trkpt>
<trkpt lat="43.4748280" lon="6.8845361"><ele></ele><time>2022-5-31T5:49:50Z</time></trkpt>
<trkpt lat="43.4748280" lon="6.8845241"><ele></ele><time>2022-5-31T5:49:53Z</time></trkpt>
<trkpt lat="43.4748284" lon="6.8845252"><ele></ele><time>2022-5-31T5:49:56Z</time></trkpt>
<trkpt lat="43.4748291" lon="6.8845254"><ele></ele><time>2022-5-31T5:49:59Z</time></trkpt>
<trkpt lat="43.4748294" lon="6.8845254"><ele></ele><time>2022-5-31T5:50:2Z</time></trkpt>
<trkpt lat="43.4748296" lon="6.8845258"><ele></ele><time>2022-5-31T5:50:5Z</time></trkpt>
<trkpt lat="43.4748291" lon="6.8845251"><ele></ele><time>2022-5-31T5:50:8Z</time></trkpt>
<trkpt lat="43.4748287" lon="6.8845242"><ele></ele><time>2022-5-31T5:50:11Z</time></trkpt>
<trkpt lat="43.4748294" lon="6.8845252"><ele></ele><time>2022-5-31T5:50:14Z</time></trkpt>
<trkpt lat="43.4748295" lon="6.8845245"><ele></ele><time>2022-5-31T5:50:17Z</time></trkpt>
<trkpt lat="43.4748279" lon="6.8845204"><ele></ele><time>2022-5-31T5:50:20Z</time></trkpt>
<trkpt lat="43.4748270" lon="6.8845205"><ele></ele><time>2022-5-31T5:50:23Z</time></trkpt>
<trkpt lat="43.4748300" lon="6.8845268"><ele></ele><time>2022-5-31T5:50:26Z</time></trkpt>
<trkpt lat="43.4748289" lon="6.8845257"><ele></ele><time>2022-5-31T5:50:29Z</time></trkpt>
<trkpt lat="43.4748342" lon="6.8845384"><ele></ele><time>2022-5-31T5:50:32Z</time></trkpt>
<trkpt lat="43.4748397" lon="6.8845512"><ele></ele><time>2022-5-31T5:50:35Z</time></trkpt>
<trkpt lat="43.4748485" lon="6.8845694"><ele></ele><time>2022-5-31T5:50:38Z</time></trkpt>
<trkpt lat="43.4748391" lon="6.8845681"><ele></ele><time>2022-5-31T5:50:41Z</time></trkpt>
<trkpt lat="43.4748525" lon="6.8845613"><ele></ele><time>2022-5-31T5:50:44Z</time></trkpt>
<trkpt lat="43.4748542" lon="6.8845759"><ele></ele><time>2022-5-31T5:50:47Z</time></trkpt>
<trkpt lat="43.4748540" lon="6.8845971"><ele></ele><time>2022-5-31T5:50:50Z</time></trkpt>
<trkpt lat="43.4748708" lon="6.8846031"><ele></ele><time>2022-5-31T5:50:53Z</time></trkpt>
<trkpt lat="43.4748737" lon="6.8846049"><ele></ele><time>2022-5-31T5:50:56Z</time></trkpt>
<trkpt lat="43.4748799" lon="6.8846046"><ele></ele><time>2022-5-31T5:50:59Z</time></trkpt>
<trkpt lat="43.4748796" lon="6.8846044"><ele></ele><time>2022-5-31T5:51:2Z</time></trkpt>
<trkpt lat="43.4748793" lon="6.8846040"><ele></ele><time>2022-5-31T5:51:5Z</time></trkpt>
<trkpt lat="43.4748794" lon="6.8846040"><ele></ele><time>2022-5-31T5:51:8Z</time></trkpt>
<trkpt lat="43.4748796" lon="6.8846043"><ele></ele><time>2022-5-31T5:51:11Z</time></trkpt>
<trkpt lat="43.4748796" lon="6.8846045"><ele></ele><time>2022-5-31T5:51:14Z</time></trkpt>
<trkpt lat="43.4748799" lon="6.8846046"><ele></ele><time>2022-5-31T5:51:17Z</time></trkpt>
<trkpt lat="43.4748775" lon="6.8846025"><ele></ele><time>2022-5-31T5:51:20Z</time></trkpt>
<trkpt lat="43.4748764" lon="6.8846005"><ele></ele><time>2022-5-31T5:51:23Z</time></trkpt>
<trkpt lat="43.4748714" lon="6.8845865"><ele></ele><time>2022-5-31T5:51:26Z</time></trkpt>
<trkpt lat="43.4748727" lon="6.8845772"><ele></ele><time>2022-5-31T5:51:29Z</time></trkpt>
<trkpt lat="43.4748581" lon="6.8845685"><ele></ele><time>2022-5-31T5:51:32Z</time></trkpt>
<trkpt lat="43.4748567" lon="6.8845673"><ele></ele><time>2022-5-31T5:51:35Z</time></trkpt>
<trkpt lat="43.4748571" lon="6.8845671"><ele></ele><time>2022-5-31T5:51:38Z</time></trkpt>
<trkpt lat="43.4748570" lon="6.8845662"><ele></ele><time>2022-5-31T5:51:41Z</time></trkpt>
<trkpt lat="43.4748569" lon="6.8845659"><ele></ele><time>2022-5-31T5:51:44Z</time></trkpt>
<trkpt lat="43.4748574" lon="6.8845657"><ele></ele><time>2022-5-31T5:51:47Z</time></trkpt>
<trkpt lat="43.4748583" lon="6.8845655"><ele></ele><time>2022-5-31T5:51:50Z</time></trkpt>
<trkpt lat="43.4748592" lon="6.8845643"><ele></ele><time>2022-5-31T5:51:53Z</time></trkpt>
<trkpt lat="43.4748601" lon="6.8845629"><ele></ele><time>2022-5-31T5:51:56Z</time></trkpt>
<trkpt lat="43.4748599" lon="6.8845623"><ele></ele><time>2022-5-31T5:51:59Z</time></trkpt>
<trkpt lat="43.4748598" lon="6.8845619"><ele></ele><time>2022-5-31T5:52:2Z</time></trkpt>
<trkpt lat="43.4748595" lon="6.8845625"><ele></ele><time>2022-5-31T5:52:5Z</time></trkpt>
<trkpt lat="43.4748594" lon="6.8845638"><ele></ele><time>2022-5-31T5:52:8Z</time></trkpt>
<trkpt lat="43.4748590" lon="6.8845654"><ele></ele><time>2022-5-31T5:52:11Z</time></trkpt>
<trkpt lat="43.4748596" lon="6.8845660"><ele></ele><time>2022-5-31T5:52:14Z</time></trkpt>
<trkpt lat="43.4748609" lon="6.8845681"><ele></ele><time>2022-5-31T5:52:17Z</time></trkpt>
<trkpt lat="43.4748611" lon="6.8845682"><ele></ele><time>2022-5-31T5:52:20Z</time></trkpt>
<trkpt lat="43.4748602" lon="6.8845681"><ele></ele><time>2022-5-31T5:52:23Z</time></trkpt>
<trkpt lat="43.4748597" lon="6.8845675"><ele></ele><time>2022-5-31T5:52:26Z</time></trkpt>
<trkpt lat="43.4748591" lon="6.8845673"><ele></ele><time>2022-5-31T5:52:29Z</time></trkpt>
<trkpt lat="43.4748578" lon="6.8845666"><ele></ele><time>2022-5-31T5:52:32Z</time></trkpt>
<trkpt lat="43.4748559" lon="6.8845657"><ele></ele><time>2022-5-31T5:52:35Z</time></trkpt>
<trkpt lat="43.4748510" lon="6.8845650"><ele></ele><time>2022-5-31T5:52:38Z</time></trkpt>
<trkpt lat="43.4748476" lon="6.8845637"><ele></ele><time>2022-5-31T5:52:41Z</time></trkpt>
<trkpt lat="43.4748443" lon="6.8845603"><ele></ele><time>2022-5-31T5:52:44Z</time></trkpt>
<trkpt lat="43.4748423" lon="6.8845597"><ele></ele><time>2022-5-31T5:52:47Z</time></trkpt>
<trkpt lat="43.4748432" lon="6.8845589"><ele></ele><time>2022-5-31T5:52:50Z</time></trkpt>
<trkpt lat="43.4748435" lon="6.8845583"><ele></ele><time>2022-5-31T5:52:53Z</time></trkpt>
<trkpt lat="43.4748432" lon="6.8845580"><ele></ele><time>2022-5-31T5:52:56Z</time></trkpt>
<trkpt lat="43.4748433" lon="6.8845576"><ele></ele><time>2022-5-31T5:52:59Z</time></trkpt>
<trkpt lat="43.4748431" lon="6.8845573"><ele></ele><time>2022-5-31T5:53:2Z</time></trkpt>
<trkpt lat="43.4748429" lon="6.8845571"><ele></ele><time>2022-5-31T5:53:5Z</time></trkpt>
<trkpt lat="43.4748432" lon="6.8845577"><ele></ele><time>2022-5-31T5:53:8Z</time></trkpt>
<trkpt lat="43.4748430" lon="6.8845578"><ele></ele><time>2022-5-31T5:53:11Z</time></trkpt>
<trkpt lat="43.4748428" lon="6.8845580"><ele></ele><time>2022-5-31T5:53:14Z</time></trkpt>
<trkpt lat="43.4748426" lon="6.8845580"><ele></ele><time>2022-5-31T5:53:17Z</time></trkpt>
<trkpt lat="43.4748424" lon="6.8845573"><ele></ele><time>2022-5-31T5:53:20Z</time></trkpt>
<trkpt lat="43.4748426" lon="6.8845574"><ele></ele><time>2022-5-31T5:53:23Z</time></trkpt>
<trkpt lat="43.4748426" lon="6.8845577"><ele></ele><time>2022-5-31T5:53:26Z</time></trkpt>
<trkpt lat="43.4748433" lon="6.8845572"><ele></ele><time>2022-5-31T5:53:29Z</time></trkpt>
<trkpt lat="43.4748433" lon="6.8845550"><ele></ele><time>2022-5-31T5:53:32Z</time></trkpt>
<trkpt lat="43.4748453" lon="6.8845468"><ele></ele><time>2022-5-31T5:53:35Z</time></trkpt>
<trkpt lat="43.4748464" lon="6.8845394"><ele></ele><time>2022-5-31T5:53:38Z</time></trkpt>
<trkpt lat="43.4748502" lon="6.8845402"><ele></ele><time>2022-5-31T5:53:41Z</time></trkpt>
<trkpt lat="43.4748476" lon="6.8845377"><ele></ele><time>2022-5-31T5:53:44Z</time></trkpt>
<trkpt lat="43.4748478" lon="6.8845375"><ele></ele><time>2022-5-31T5:53:47Z</time></trkpt>
<trkpt lat="43.4748477" lon="6.8845372"><ele></ele><time>2022-5-31T5:53:50Z</time></trkpt>
<trkpt lat="43.4748472" lon="6.8845351"><ele></ele><time>2022-5-31T5:53:53Z</time></trkpt>
<trkpt lat="43.4748472" lon="6.8845350"><ele></ele><time>2022-5-31T5:53:56Z</time></trkpt>
<trkpt lat="43.4748457" lon="6.8845320"><ele></ele><time>2022-5-31T5:53:59Z</time></trkpt>
<trkpt lat="43.4748469" lon="6.8845363"><ele></ele><time>2022-5-31T5:54:2Z</time></trkpt>
<trkpt lat="43.4748456" lon="6.8845337"><ele></ele><time>2022-5-31T5:54:5Z</time></trkpt>
<trkpt lat="43.4748439" lon="6.8845299"><ele></ele><time>2022-5-31T5:54:8Z</time></trkpt>
<trkpt lat="43.4748437" lon="6.8845295"><ele></ele><time>2022-5-31T5:54:11Z</time></trkpt>
<trkpt lat="43.4748440" lon="6.8845301"><ele></ele><time>2022-5-31T5:54:14Z</time></trkpt>
<trkpt lat="43.4748438" lon="6.8845289"><ele></ele><time>2022-5-31T5:54:17Z</time></trkpt>
<trkpt lat="43.4748429" lon="6.8845207"><ele></ele><time>2022-5-31T5:54:20Z</time></trkpt>
<trkpt lat="43.4748419" lon="6.8845188"><ele></ele><time>2022-5-31T5:54:23Z</time></trkpt>
<trkpt lat="43.4748406" lon="6.8845205"><ele></ele><time>2022-5-31T5:54:26Z</time></trkpt>
<trkpt lat="43.4748406" lon="6.8845201"><ele></ele><time>2022-5-31T5:54:29Z</time></trkpt>
<trkpt lat="43.4748408" lon="6.8845201"><ele></ele><time>2022-5-31T5:54:32Z</time></trkpt>
<trkpt lat="43.4748412" lon="6.8845205"><ele></ele><time>2022-5-31T5:54:35Z</time></trkpt>
<trkpt lat="43.4748414" lon="6.8845206"><ele></ele><time>2022-5-31T5:54:38Z</time></trkpt>
<trkpt lat="43.4748415" lon="6.8845206"><ele></ele><time>2022-5-31T5:54:41Z</time></trkpt>
<trkpt lat="43.4748416" lon="6.8845195"><ele></ele><time>2022-5-31T5:54:44Z</time></trkpt>
<trkpt lat="43.4748418" lon="6.8845189"><ele></ele><time>2022-5-31T5:54:47Z</time></trkpt>
<trkpt lat="43.4748418" lon="6.8845189"><ele></ele><time>2022-5-31T5:54:50Z</time></trkpt>
<trkpt lat="43.4748423" lon="6.8845187"><ele></ele><time>2022-5-31T5:54:53Z</time></trkpt>
<trkpt lat="43.4748426" lon="6.8845188"><ele></ele><time>2022-5-31T5:54:56Z</time></trkpt>
<trkpt lat="43.4748429" lon="6.8845186"><ele></ele><time>2022-5-31T5:54:59Z</time></trkpt>
<trkpt lat="43.4748428" lon="6.8845184"><ele></ele><time>2022-5-31T5:55:2Z</time></trkpt>
<trkpt lat="43.4748427" lon="6.8845183"><ele></ele><time>2022-5-31T5:55:5Z</time></trkpt>
<trkpt lat="43.4748425" lon="6.8845181"><ele></ele><time>2022-5-31T5:55:8Z</time></trkpt>
<trkpt lat="43.4748424" lon="6.8845183"><ele></ele><time>2022-5-31T5:55:11Z</time></trkpt>
<trkpt lat="43.4748430" lon="6.8845193"><ele></ele><time>2022-5-31T5:55:14Z</time></trkpt>
<trkpt lat="43.4748430" lon="6.8845194"><ele></ele><time>2022-5-31T5:55:17Z</time></trkpt>
<trkpt lat="43.4748467" lon="6.8845295"><ele></ele><time>2022-5-31T5:55:20Z</time></trkpt>
<trkpt lat="43.4748480" lon="6.8845421"><ele></ele><time>2022-5-31T5:55:23Z</time></trkpt>
<trkpt lat="43.4748491" lon="6.8845411"><ele></ele><time>2022-5-31T5:55:26Z</time></trkpt>
<trkpt lat="43.4748482" lon="6.8845343"><ele></ele><time>2022-5-31T5:55:29Z</time></trkpt>
<trkpt lat="43.4748580" lon="6.8845245"><ele></ele><time>2022-5-31T5:55:32Z</time></trkpt>
<trkpt lat="43.4748562" lon="6.8845238"><ele></ele><time>2022-5-31T5:55:35Z</time></trkpt>
<trkpt lat="43.4748561" lon="6.8845240"><ele></ele><time>2022-5-31T5:55:38Z</time></trkpt>
<trkpt lat="43.4748559" lon="6.8845243"><ele></ele><time>2022-5-31T5:55:41Z</time></trkpt>
<trkpt lat="43.4748551" lon="6.8845247"><ele></ele><time>2022-5-31T5:55:44Z</time></trkpt>
<trkpt lat="43.4748545" lon="6.8845246"><ele></ele><time>2022-5-31T5:55:47Z</time></trkpt>
<trkpt lat="43.4748541" lon="6.8845243"><ele></ele><time>2022-5-31T5:55:50Z</time></trkpt>
<trkpt lat="43.4748538" lon="6.8845241"><ele></ele><time>2022-5-31T5:55:53Z</time></trkpt>
<trkpt lat="43.4748528" lon="6.8845244"><ele></ele><time>2022-5-31T5:55:56Z</time></trkpt>
<trkpt lat="43.4748531" lon="6.8845238"><ele></ele><time>2022-5-31T5:55:59Z</time></trkpt>
<trkpt lat="43.4748523" lon="6.8845238"><ele></ele><time>2022-5-31T5:56:2Z</time></trkpt>
<trkpt lat="43.4748522" lon="6.8845221"><ele></ele><time>2022-5-31T5:56:5Z</time></trkpt>
<trkpt lat="43.4748497" lon="6.8845297"><ele></ele><time>2022-5-31T5:56:8Z</time></trkpt>
<trkpt lat="43.4748488" lon="6.8845264"><ele></ele><time>2022-5-31T5:56:11Z</time></trkpt>
<trkpt lat="43.4748467" lon="6.8845316"><ele></ele><time>2022-5-31T5:56:14Z</time></trkpt>
<trkpt lat="43.4748502" lon="6.8845284"><ele></ele><time>2022-5-31T5:56:17Z</time></trkpt>
<trkpt lat="43.4748513" lon="6.8845235"><ele></ele><time>2022-5-31T5:56:20Z</time></trkpt>
<trkpt lat="43.4748539" lon="6.8845136"><ele></ele><time>2022-5-31T5:56:23Z</time></trkpt>
<trkpt lat="43.4748539" lon="6.8845133"><ele></ele><time>2022-5-31T5:56:26Z</time></trkpt>
<trkpt lat="43.4748526" lon="6.8845119"><ele></ele><time>2022-5-31T5:56:29Z</time></trkpt>
<trkpt lat="43.4748472" lon="6.8845145"><ele></ele><time>2022-5-31T5:56:32Z</time></trkpt>
<trkpt lat="43.4748441" lon="6.8845129"><ele></ele><time>2022-5-31T5:56:35Z</time></trkpt>
<trkpt lat="43.4748438" lon="6.8845131"><ele></ele><time>2022-5-31T5:56:38Z</time></trkpt>
<trkpt lat="43.4748413" lon="6.8845131"><ele></ele><time>2022-5-31T5:56:41Z</time></trkpt>
<trkpt lat="43.4748413" lon="6.8845129"><ele></ele><time>2022-5-31T5:56:44Z</time></trkpt>
<trkpt lat="43.4748415" lon="6.8845141"><ele></ele><time>2022-5-31T5:56:47Z</time></trkpt>
<trkpt lat="43.4748413" lon="6.8845147"><ele></ele><time>2022-5-31T5:56:50Z</time></trkpt>
<trkpt lat="43.4748411" lon="6.8845150"><ele></ele><time>2022-5-31T5:56:53Z</time></trkpt>
<trkpt lat="43.4748406" lon="6.8845143"><ele></ele><time>2022-5-31T5:56:56Z</time></trkpt>
<trkpt lat="43.4748373" lon="6.8845295"><ele></ele><time>2022-5-31T5:56:59Z</time></trkpt>
<trkpt lat="43.4748309" lon="6.8845361"><ele></ele><time>2022-5-31T5:57:2Z</time></trkpt>
<trkpt lat="43.4748266" lon="6.8845377"><ele></ele><time>2022-5-31T5:57:5Z</time></trkpt>
<trkpt lat="43.4748284" lon="6.8845377"><ele></ele><time>2022-5-31T5:57:8Z</time></trkpt>
<trkpt lat="43.4748340" lon="6.8845308"><ele></ele><time>2022-5-31T5:57:11Z</time></trkpt>
<trkpt lat="43.4748328" lon="6.8845319"><ele></ele><time>2022-5-31T5:57:14Z</time></trkpt>
<trkpt lat="43.4748307" lon="6.8845318"><ele></ele><time>2022-5-31T5:57:17Z</time></trkpt>
<trkpt lat="43.4748307" lon="6.8845325"><ele></ele><time>2022-5-31T5:57:20Z</time></trkpt>
<trkpt lat="43.4748303" lon="6.8845364"><ele></ele><time>2022-5-31T5:57:23Z</time></trkpt>
<trkpt lat="43.4748224" lon="6.8845528"><ele></ele><time>2022-5-31T5:57:26Z</time></trkpt>
<trkpt lat="43.4748307" lon="6.8845543"><ele></ele><time>2022-5-31T5:57:29Z</time></trkpt>
<trkpt lat="43.4748307" lon="6.8845533"><ele></ele><time>2022-5-31T5:57:32Z</time></trkpt>
<trkpt lat="43.4748296" lon="6.8845589"><ele></ele><time>2022-5-31T5:57:35Z</time></trkpt>
<trkpt lat="43.4748345" lon="6.8845552"><ele></ele><time>2022-5-31T5:57:38Z</time></trkpt>
<trkpt lat="43.4748370" lon="6.8845533"><ele></ele><time>2022-5-31T5:57:41Z</time></trkpt>
<trkpt lat="43.4748380" lon="6.8845542"><ele></ele><time>2022-5-31T5:57:44Z</time></trkpt>
<trkpt lat="43.4748378" lon="6.8845541"><ele></ele><time>2022-5-31T5:57:47Z</time></trkpt>
<trkpt lat="43.4748379" lon="6.8845542"><ele></ele><time>2022-5-31T5:57:50Z</time></trkpt>
<trkpt lat="43.4748376" lon="6.8845543"><ele></ele><time>2022-5-31T5:57:53Z</time></trkpt>
<trkpt lat="43.4748378" lon="6.8845547"><ele></ele><time>2022-5-31T5:57:56Z</time></trkpt>
<trkpt lat="43.4748387" lon="6.8845553"><ele></ele><time>2022-5-31T5:57:59Z</time></trkpt>
<trkpt lat="43.4748395" lon="6.8845586"><ele></ele><time>2022-5-31T5:58:2Z</time></trkpt>
<trkpt lat="43.4748398" lon="6.8845554"><ele></ele><time>2022-5-31T5:58:5Z</time></trkpt>
<trkpt lat="43.4748365" lon="6.8845630"><ele></ele><time>2022-5-31T5:58:8Z</time></trkpt>
<trkpt lat="43.4748328" lon="6.8845633"><ele></ele><time>2022-5-31T5:58:11Z</time></trkpt>
<trkpt lat="43.4748275" lon="6.8845588"><ele></ele><time>2022-5-31T5:58:14Z</time></trkpt>
<trkpt lat="43.4748242" lon="6.8845652"><ele></ele><time>2022-5-31T5:58:17Z</time></trkpt>
<trkpt lat="43.4748274" lon="6.8845611"><ele></ele><time>2022-5-31T5:58:20Z</time></trkpt>
<trkpt lat="43.4748238" lon="6.8845609"><ele></ele><time>2022-5-31T5:58:23Z</time></trkpt>
<trkpt lat="43.4748242" lon="6.8845604"><ele></ele><time>2022-5-31T5:58:26Z</time></trkpt>
<trkpt lat="43.4748242" lon="6.8845600"><ele></ele><time>2022-5-31T5:58:29Z</time></trkpt>
<trkpt lat="43.4748242" lon="6.8845593"><ele></ele><time>2022-5-31T5:58:32Z</time></trkpt>
<trkpt lat="43.4748257" lon="6.8845585"><ele></ele><time>2022-5-31T5:58:35Z</time></trkpt>
<trkpt lat="43.4748248" lon="6.8845566"><ele></ele><time>2022-5-31T5:58:38Z</time></trkpt>
<trkpt lat="43.4748192" lon="6.8845494"><ele></ele><time>2022-5-31T5:58:41Z</time></trkpt>
<trkpt lat="43.4748200" lon="6.8845476"><ele></ele><time>2022-5-31T5:58:44Z</time></trkpt>
<trkpt lat="43.4748170" lon="6.8845425"><ele></ele><time>2022-5-31T5:58:47Z</time></trkpt>
<trkpt lat="43.4748064" lon="6.8845259"><ele></ele><time>2022-5-31T5:58:50Z</time></trkpt>
<trkpt lat="43.4748050" lon="6.8845240"><ele></ele><time>2022-5-31T5:58:53Z</time></trkpt>
<trkpt lat="43.4748051" lon="6.8845236"><ele></ele><time>2022-5-31T5:58:56Z</time></trkpt>
<trkpt lat="43.4748048" lon="6.8845228"><ele></ele><time>2022-5-31T5:58:59Z</time></trkpt>
<trkpt lat="43.4748044" lon="6.8845220"><ele></ele><time>2022-5-31T5:59:2Z</time></trkpt>
<trkpt lat="43.4747910" lon="6.8845047"><ele></ele><time>2022-5-31T5:59:5Z</time></trkpt>
<trkpt lat="43.4747948" lon="6.8845120"><ele></ele><time>2022-5-31T5:59:8Z</time></trkpt>
<trkpt lat="43.4747788" lon="6.8845165"><ele></ele><time>2022-5-31T5:59:11Z</time></trkpt>
<trkpt lat="43.4747657" lon="6.8845190"><ele></ele><time>2022-5-31T5:59:14Z</time></trkpt>
<trkpt lat="43.4747614" lon="6.8845239"><ele></ele><time>2022-5-31T5:59:17Z</time></trkpt>
<trkpt lat="43.4747449" lon="6.8845200"><ele></ele><time>2022-5-31T5:59:20Z</time></trkpt>
<trkpt lat="43.4747449" lon="6.8845197"><ele></ele><time>2022-5-31T5:59:23Z</time></trkpt>
<trkpt lat="43.4747448" lon="6.8845195"><ele></ele><time>2022-5-31T5:59:26Z</time></trkpt>
<trkpt lat="43.4747446" lon="6.8845193"><ele></ele><time>2022-5-31T5:59:29Z</time></trkpt>
<trkpt lat="43.4747446" lon="6.8845192"><ele></ele><time>2022-5-31T5:59:32Z</time></trkpt>
<trkpt lat="43.4747444" lon="6.8845189"><ele></ele><time>2022-5-31T5:59:35Z</time></trkpt>
<trkpt lat="43.4747444" lon="6.8845188"><ele></ele><time>2022-5-31T5:59:38Z</time></trkpt>
<trkpt lat="43.4747447" lon="6.8845189"><ele></ele><time>2022-5-31T5:59:41Z</time></trkpt>
<trkpt lat="43.4747447" lon="6.8845188"><ele></ele><time>2022-5-31T5:59:44Z</time></trkpt>
<trkpt lat="43.4747446" lon="6.8845188"><ele></ele><time>2022-5-31T5:59:47Z</time></trkpt>
<trkpt lat="43.4747442" lon="6.8845186"><ele></ele><time>2022-5-31T5:59:50Z</time></trkpt>
<trkpt lat="43.4747440" lon="6.8845186"><ele></ele><time>2022-5-31T5:59:53Z</time></trkpt>
<trkpt lat="43.4747441" lon="6.8845186"><ele></ele><time>2022-5-31T5:59:56Z</time></trkpt>
<trkpt lat="43.4747444" lon="6.8845185"><ele></ele><time>2022-5-31T5:59:59Z</time></trkpt>
<trkpt lat="43.4747465" lon="6.8845182"><ele></ele><time>2022-5-31T6:0:2Z</time></trkpt>
<trkpt lat="43.4747497" lon="6.8845176"><ele></ele><time>2022-5-31T6:0:5Z</time></trkpt>
<trkpt lat="43.4747517" lon="6.8845180"><ele></ele><time>2022-5-31T6:0:8Z</time></trkpt>
<trkpt lat="43.4747586" lon="6.8845187"><ele></ele><time>2022-5-31T6:0:11Z</time></trkpt>
<trkpt lat="43.4747589" lon="6.8845202"><ele></ele><time>2022-5-31T6:0:14Z</time></trkpt>
<trkpt lat="43.4747614" lon="6.8845209"><ele></ele><time>2022-5-31T6:0:17Z</time></trkpt>
<trkpt lat="43.4747614" lon="6.8845211"><ele></ele><time>2022-5-31T6:0:20Z</time></trkpt>
<trkpt lat="43.4747617" lon="6.8845213"><ele></ele><time>2022-5-31T6:0:23Z</time></trkpt>
<trkpt lat="43.4747621" lon="6.8845218"><ele></ele><time>2022-5-31T6:0:26Z</time></trkpt>
<trkpt lat="43.4747621" lon="6.8845222"><ele></ele><time>2022-5-31T6:0:29Z</time></trkpt>
<trkpt lat="43.4747627" lon="6.8845217"><ele></ele><time>2022-5-31T6:0:32Z</time></trkpt>
<trkpt lat="43.4747628" lon="6.8845217"><ele></ele><time>2022-5-31T6:0:35Z</time></trkpt>
<trkpt lat="43.4747631" lon="6.8845221"><ele></ele><time>2022-5-31T6:0:38Z</time></trkpt>
<trkpt lat="43.4747627" lon="6.8845233"><ele></ele><time>2022-5-31T6:0:41Z</time></trkpt>
<trkpt lat="43.4747632" lon="6.8845235"><ele></ele><time>2022-5-31T6:0:44Z</time></trkpt>
<trkpt lat="43.4747660" lon="6.8845220"><ele></ele><time>2022-5-31T6:0:47Z</time></trkpt>
<trkpt lat="43.4747665" lon="6.8845350"><ele></ele><time>2022-5-31T6:0:50Z</time></trkpt>
<trkpt lat="43.4747605" lon="6.8845548"><ele></ele><time>2022-5-31T6:0:53Z</time></trkpt>
<trkpt lat="43.4747612" lon="6.8845832"><ele></ele><time>2022-5-31T6:0:56Z</time></trkpt>
<trkpt lat="43.4747440" lon="6.8846186"><ele></ele><time>2022-5-31T6:0:59Z</time></trkpt>
<trkpt lat="43.4747253" lon="6.8846567"><ele></ele><time>2022-5-31T6:1:2Z</time></trkpt>
<trkpt lat="43.4747066" lon="6.8846968"><ele></ele><time>2022-5-31T6:1:5Z</time></trkpt>
<trkpt lat="43.4746764" lon="6.8847306"><ele></ele><time>2022-5-31T6:1:8Z</time></trkpt>
<trkpt lat="43.4746650" lon="6.8847947"><ele></ele><time>2022-5-31T6:1:11Z</time></trkpt>
<trkpt lat="43.4746378" lon="6.8848383"><ele></ele><time>2022-5-31T6:1:14Z</time></trkpt>
<trkpt lat="43.4746073" lon="6.8848669"><ele></ele><time>2022-5-31T6:1:17Z</time></trkpt>
<trkpt lat="43.4745805" lon="6.8848761"><ele></ele><time>2022-5-31T6:1:20Z</time></trkpt>
<trkpt lat="43.4745529" lon="6.8848701"><ele></ele><time>2022-5-31T6:1:23Z</time></trkpt>
<trkpt lat="43.4745165" lon="6.8848730"><ele></ele><time>2022-5-31T6:1:26Z</time></trkpt>
<trkpt lat="43.4744801" lon="6.8848720"><ele></ele><time>2022-5-31T6:1:29Z</time></trkpt>
<trkpt lat="43.4744466" lon="6.8848660"><ele></ele><time>2022-5-31T6:1:32Z</time></trkpt>
<trkpt lat="43.4744028" lon="6.8848676"><ele></ele><time>2022-5-31T6:1:35Z</time></trkpt>
<trkpt lat="43.4743522" lon="6.8848662"><ele></ele><time>2022-5-31T6:1:38Z</time></trkpt>
<trkpt lat="43.4743046" lon="6.8848580"><ele></ele><time>2022-5-31T6:1:41Z</time></trkpt>
<trkpt lat="43.4742678" lon="6.8848379"><ele></ele><time>2022-5-31T6:1:44Z</time></trkpt>
<trkpt lat="43.4742392" lon="6.8848111"><ele></ele><time>2022-5-31T6:1:47Z</time></trkpt>
<trkpt lat="43.4742037" lon="6.8847852"><ele></ele><time>2022-5-31T6:1:50Z</time></trkpt>
<trkpt lat="43.4741721" lon="6.8847513"><ele></ele><time>2022-5-31T6:1:53Z</time></trkpt>
<trkpt lat="43.4741475" lon="6.8847048"><ele></ele><time>2022-5-31T6:1:56Z</time></trkpt>
<trkpt lat="43.4741238" lon="6.8846551"><ele></ele><time>2022-5-31T6:1:59Z</time></trkpt>
<trkpt lat="43.4741033" lon="6.8846078"><ele></ele><time>2022-5-31T6:2:2Z</time></trkpt>
<trkpt lat="43.4740851" lon="6.8845597"><ele></ele><time>2022-5-31T6:2:5Z</time></trkpt>
<trkpt lat="43.4740684" lon="6.8845079"><ele></ele><time>2022-5-31T6:2:8Z</time></trkpt>
<trkpt lat="43.4740456" lon="6.8844522"><ele></ele><time>2022-5-31T6:2:11Z</time></trkpt>
<trkpt lat="43.4740199" lon="6.8843980"><ele></ele><time>2022-5-31T6:2:14Z</time></trkpt>
<trkpt lat="43.4739934" lon="6.8843472"><ele></ele><time>2022-5-31T6:2:17Z</time></trkpt>
<trkpt lat="43.4739774" lon="6.8842985"><ele></ele><time>2022-5-31T6:2:20Z</time></trkpt>
<trkpt lat="43.4739615" lon="6.8842466"><ele></ele><time>2022-5-31T6:2:23Z</time></trkpt>
<trkpt lat="43.4739473" lon="6.8841960"><ele></ele><time>2022-5-31T6:2:26Z</time></trkpt>
<trkpt lat="43.4739326" lon="6.8841445"><ele></ele><time>2022-5-31T6:2:29Z</time></trkpt>
<trkpt lat="43.4739268" lon="6.8840747"><ele></ele><time>2022-5-31T6:2:32Z</time></trkpt>
<trkpt lat="43.4739187" lon="6.8840044"><ele></ele><time>2022-5-31T6:2:35Z</time></trkpt>
<trkpt lat="43.4739248" lon="6.8839262"><ele></ele><time>2022-5-31T6:2:38Z</time></trkpt>
<trkpt lat="43.4739263" lon="6.8838529"><ele></ele><time>2022-5-31T6:2:41Z</time></trkpt>
<trkpt lat="43.4739310" lon="6.8837776"><ele></ele><time>2022-5-31T6:2:44Z</time></trkpt>
<trkpt lat="43.4739270" lon="6.8836974"><ele></ele><time>2022-5-31T6:2:47Z</time></trkpt>
<trkpt lat="43.4739242" lon="6.8836060"><ele></ele><time>2022-5-31T6:2:50Z</time></trkpt>
<trkpt lat="43.4739234" lon="6.8835095"><ele></ele><time>2022-5-31T6:2:53Z</time></trkpt>
<trkpt lat="43.4739251" lon="6.8834059"><ele></ele><time>2022-5-31T6:2:56Z</time></trkpt>
<trkpt lat="43.4739281" lon="6.8833067"><ele></ele><time>2022-5-31T6:2:59Z</time></trkpt>
<trkpt lat="43.4739492" lon="6.8832100"><ele></ele><time>2022-5-31T6:3:2Z</time></trkpt>
<trkpt lat="43.4739631" lon="6.8831130"><ele></ele><time>2022-5-31T6:3:5Z</time></trkpt>
<trkpt lat="43.4739709" lon="6.8830151"><ele></ele><time>2022-5-31T6:3:8Z</time></trkpt>
<trkpt lat="43.4739775" lon="6.8829199"><ele></ele><time>2022-5-31T6:3:11Z</time></trkpt>
<trkpt lat="43.4739876" lon="6.8828217"><ele></ele><time>2022-5-31T6:3:14Z</time></trkpt>
<trkpt lat="43.4740033" lon="6.8827197"><ele></ele><time>2022-5-31T6:3:17Z</time></trkpt>
<trkpt lat="43.4740132" lon="6.8826143"><ele></ele><time>2022-5-31T6:3:20Z</time></trkpt>
<trkpt lat="43.4740244" lon="6.8825166"><ele></ele><time>2022-5-31T6:3:23Z</time></trkpt>
<trkpt lat="43.4740312" lon="6.8824382"><ele></ele><time>2022-5-31T6:3:26Z</time></trkpt>
<trkpt lat="43.4740326" lon="6.8823743"><ele></ele><time>2022-5-31T6:3:29Z</time></trkpt>
<trkpt lat="43.4740255" lon="6.8823195"><ele></ele><time>2022-5-31T6:3:32Z</time></trkpt>
<trkpt lat="43.4740012" lon="6.8822684"><ele></ele><time>2022-5-31T6:3:35Z</time></trkpt>
<trkpt lat="43.4739611" lon="6.8822183"><ele></ele><time>2022-5-31T6:3:38Z</time></trkpt>
<trkpt lat="43.4739148" lon="6.8821624"><ele></ele><time>2022-5-31T6:3:41Z</time></trkpt>
<trkpt lat="43.4738653" lon="6.8821177"><ele></ele><time>2022-5-31T6:3:44Z</time></trkpt>
<trkpt lat="43.4738199" lon="6.8820682"><ele></ele><time>2022-5-31T6:3:47Z</time></trkpt>
<trkpt lat="43.4737848" lon="6.8820119"><ele></ele><time>2022-5-31T6:3:50Z</time></trkpt>
<trkpt lat="43.4737652" lon="6.8819540"><ele></ele><time>2022-5-31T6:3:53Z</time></trkpt>
<trkpt lat="43.4737597" lon="6.8819017"><ele></ele><time>2022-5-31T6:3:56Z</time></trkpt>
<trkpt lat="43.4737578" lon="6.8818537"><ele></ele><time>2022-5-31T6:3:59Z</time></trkpt>
<trkpt lat="43.4737482" lon="6.8818062"><ele></ele><time>2022-5-31T6:4:2Z</time></trkpt>
<trkpt lat="43.4737414" lon="6.8817551"><ele></ele><time>2022-5-31T6:4:5Z</time></trkpt>
<trkpt lat="43.4737363" lon="6.8817026"><ele></ele><time>2022-5-31T6:4:8Z</time></trkpt>
<trkpt lat="43.4737344" lon="6.8816469"><ele></ele><time>2022-5-31T6:4:11Z</time></trkpt>
<trkpt lat="43.4737449" lon="6.8815935"><ele></ele><time>2022-5-31T6:4:14Z</time></trkpt>
<trkpt lat="43.4737547" lon="6.8815443"><ele></ele><time>2022-5-31T6:4:17Z</time></trkpt>
<trkpt lat="43.4737603" lon="6.8814941"><ele></ele><time>2022-5-31T6:4:20Z</time></trkpt>
<trkpt lat="43.4737699" lon="6.8814415"><ele></ele><time>2022-5-31T6:4:23Z</time></trkpt>
<trkpt lat="43.4737832" lon="6.8813891"><ele></ele><time>2022-5-31T6:4:26Z</time></trkpt>
<trkpt lat="43.4737941" lon="6.8813310"><ele></ele><time>2022-5-31T6:4:29Z</time></trkpt>
<trkpt lat="43.4738037" lon="6.8812684"><ele></ele><time>2022-5-31T6:4:32Z</time></trkpt>
<trkpt lat="43.4738248" lon="6.8812008"><ele></ele><time>2022-5-31T6:4:35Z</time></trkpt>
<trkpt lat="43.4738518" lon="6.8811396"><ele></ele><time>2022-5-31T6:4:38Z</time></trkpt>
<trkpt lat="43.4738831" lon="6.8810768"><ele></ele><time>2022-5-31T6:4:41Z</time></trkpt>
<trkpt lat="43.4739120" lon="6.8810246"><ele></ele><time>2022-5-31T6:4:44Z</time></trkpt>
<trkpt lat="43.4739343" lon="6.8809726"><ele></ele><time>2022-5-31T6:4:47Z</time></trkpt>
<trkpt lat="43.4739467" lon="6.8809195"><ele></ele><time>2022-5-31T6:4:50Z</time></trkpt>
<trkpt lat="43.4739547" lon="6.8808684"><ele></ele><time>2022-5-31T6:4:53Z</time></trkpt>
<trkpt lat="43.4739624" lon="6.8808144"><ele></ele><time>2022-5-31T6:4:56Z</time></trkpt>
<trkpt lat="43.4739662" lon="6.8807522"><ele></ele><time>2022-5-31T6:4:59Z</time></trkpt>
<trkpt lat="43.4739687" lon="6.8806929"><ele></ele><time>2022-5-31T6:5:2Z</time></trkpt>
<trkpt lat="43.4739695" lon="6.8806374"><ele></ele><time>2022-5-31T6:5:5Z</time></trkpt>
<trkpt lat="43.4739656" lon="6.8805800"><ele></ele><time>2022-5-31T6:5:8Z</time></trkpt>
<trkpt lat="43.4739611" lon="6.8805177"><ele></ele><time>2022-5-31T6:5:11Z</time></trkpt>
<trkpt lat="43.4739497" lon="6.8804504"><ele></ele><time>2022-5-31T6:5:14Z</time></trkpt>
<trkpt lat="43.4739283" lon="6.8803867"><ele></ele><time>2022-5-31T6:5:17Z</time></trkpt>
<trkpt lat="43.4738985" lon="6.8803372"><ele></ele><time>2022-5-31T6:5:20Z</time></trkpt>
<trkpt lat="43.4738625" lon="6.8803049"><ele></ele><time>2022-5-31T6:5:23Z</time></trkpt>
<trkpt lat="43.4738223" lon="6.8802765"><ele></ele><time>2022-5-31T6:5:26Z</time></trkpt>
<trkpt lat="43.4737796" lon="6.8802563"><ele></ele><time>2022-5-31T6:5:29Z</time></trkpt>
<trkpt lat="43.4737332" lon="6.8802575"><ele></ele><time>2022-5-31T6:5:32Z</time></trkpt>
<trkpt lat="43.4736829" lon="6.8802634"><ele></ele><time>2022-5-31T6:5:35Z</time></trkpt>
<trkpt lat="43.4736356" lon="6.8802753"><ele></ele><time>2022-5-31T6:5:38Z</time></trkpt>
<trkpt lat="43.4735889" lon="6.8802885"><ele></ele><time>2022-5-31T6:5:41Z</time></trkpt>
<trkpt lat="43.4735440" lon="6.8803085"><ele></ele><time>2022-5-31T6:5:44Z</time></trkpt>
<trkpt lat="43.4735004" lon="6.8803334"><ele></ele><time>2022-5-31T6:5:47Z</time></trkpt>
<trkpt lat="43.4734593" lon="6.8803682"><ele></ele><time>2022-5-31T6:5:50Z</time></trkpt>
<trkpt lat="43.4734190" lon="6.8804092"><ele></ele><time>2022-5-31T6:5:53Z</time></trkpt>
<trkpt lat="43.4733785" lon="6.8804520"><ele></ele><time>2022-5-31T6:5:56Z</time></trkpt>
<trkpt lat="43.4733448" lon="6.8804965"><ele></ele><time>2022-5-31T6:5:59Z</time></trkpt>
<trkpt lat="43.4733300" lon="6.8805449"><ele></ele><time>2022-5-31T6:6:2Z</time></trkpt>
<trkpt lat="43.4733075" lon="6.8806003"><ele></ele><time>2022-5-31T6:6:5Z</time></trkpt>
<trkpt lat="43.4732887" lon="6.8806368"><ele></ele><time>2022-5-31T6:6:8Z</time></trkpt>
<trkpt lat="43.4732761" lon="6.8806847"><ele></ele><time>2022-5-31T6:6:11Z</time></trkpt>
<trkpt lat="43.4732608" lon="6.8807489"><ele></ele><time>2022-5-31T6:6:14Z</time></trkpt>
<trkpt lat="43.4732462" lon="6.8808005"><ele></ele><time>2022-5-31T6:6:17Z</time></trkpt>
<trkpt lat="43.4732234" lon="6.8808585"><ele></ele><time>2022-5-31T6:6:20Z</time></trkpt>
<trkpt lat="43.4732037" lon="6.8809063"><ele></ele><time>2022-5-31T6:6:23Z</time></trkpt>
<trkpt lat="43.4731749" lon="6.8809441"><ele></ele><time>2022-5-31T6:6:26Z</time></trkpt>
<trkpt lat="43.4731456" lon="6.8809657"><ele></ele><time>2022-5-31T6:6:29Z</time></trkpt>
<trkpt lat="43.4731094" lon="6.8809937"><ele></ele><time>2022-5-31T6:6:32Z</time></trkpt>
<trkpt lat="43.4730713" lon="6.8810188"><ele></ele><time>2022-5-31T6:6:35Z</time></trkpt>
<trkpt lat="43.4730323" lon="6.8810406"><ele></ele><time>2022-5-31T6:6:38Z</time></trkpt>
<trkpt lat="43.4729929" lon="6.8810538"><ele></ele><time>2022-5-31T6:6:41Z</time></trkpt>
<trkpt lat="43.4729505" lon="6.8810645"><ele></ele><time>2022-5-31T6:6:44Z</time></trkpt>
<trkpt lat="43.4729148" lon="6.8810664"><ele></ele><time>2022-5-31T6:6:47Z</time></trkpt>
<trkpt lat="43.4728808" lon="6.8810539"><ele></ele><time>2022-5-31T6:6:50Z</time></trkpt>
<trkpt lat="43.4728447" lon="6.8810465"><ele></ele><time>2022-5-31T6:6:53Z</time></trkpt>
<trkpt lat="43.4728134" lon="6.8810380"><ele></ele><time>2022-5-31T6:6:56Z</time></trkpt>
<trkpt lat="43.4727843" lon="6.8810305"><ele></ele><time>2022-5-31T6:6:59Z</time></trkpt>
<trkpt lat="43.4727467" lon="6.8810222"><ele></ele><time>2022-5-31T6:7:2Z</time></trkpt>
<trkpt lat="43.4727135" lon="6.8810029"><ele></ele><time>2022-5-31T6:7:5Z</time></trkpt>
<trkpt lat="43.4726826" lon="6.8809821"><ele></ele><time>2022-5-31T6:7:8Z</time></trkpt>
<trkpt lat="43.4726526" lon="6.8809555"><ele></ele><time>2022-5-31T6:7:11Z</time></trkpt>
<trkpt lat="43.4726298" lon="6.8809205"><ele></ele><time>2022-5-31T6:7:14Z</time></trkpt>
<trkpt lat="43.4726096" lon="6.8808814"><ele></ele><time>2022-5-31T6:7:17Z</time></trkpt>
<trkpt lat="43.4725860" lon="6.8808298"><ele></ele><time>2022-5-31T6:7:20Z</time></trkpt>
<trkpt lat="43.4725678" lon="6.8807844"><ele></ele><time>2022-5-31T6:7:23Z</time></trkpt>
<trkpt lat="43.4725567" lon="6.8807373"><ele></ele><time>2022-5-31T6:7:26Z</time></trkpt>
<trkpt lat="43.4725502" lon="6.8806920"><ele></ele><time>2022-5-31T6:7:29Z</time></trkpt>
<trkpt lat="43.4725521" lon="6.8806388"><ele></ele><time>2022-5-31T6:7:32Z</time></trkpt>
<trkpt lat="43.4725582" lon="6.8805865"><ele></ele><time>2022-5-31T6:7:35Z</time></trkpt>
<trkpt lat="43.4725658" lon="6.8805393"><ele></ele><time>2022-5-31T6:7:38Z</time></trkpt>
<trkpt lat="43.4725677" lon="6.8805192"><ele></ele><time>2022-5-31T6:7:41Z</time></trkpt>
<trkpt lat="43.4725702" lon="6.8805098"><ele></ele><time>2022-5-31T6:7:44Z</time></trkpt>
<trkpt lat="43.4725699" lon="6.8805080"><ele></ele><time>2022-5-31T6:7:47Z</time></trkpt>
<trkpt lat="43.4725681" lon="6.8805106"><ele></ele><time>2022-5-31T6:7:50Z</time></trkpt>
<trkpt lat="43.4725688" lon="6.8805149"><ele></ele><time>2022-5-31T6:7:53Z</time></trkpt>
<trkpt lat="43.4725685" lon="6.8805158"><ele></ele><time>2022-5-31T6:7:56Z</time></trkpt>
<trkpt lat="43.4725707" lon="6.8805107"><ele></ele><time>2022-5-31T6:7:59Z</time></trkpt>
<trkpt lat="43.4725693" lon="6.8804972"><ele></ele><time>2022-5-31T6:8:2Z</time></trkpt>
<trkpt lat="43.4725667" lon="6.8804929"><ele></ele><time>2022-5-31T6:8:5Z</time></trkpt>
<trkpt lat="43.4725650" lon="6.8804928"><ele></ele><time>2022-5-31T6:8:8Z</time></trkpt>
<trkpt lat="43.4725651" lon="6.8804919"><ele></ele><time>2022-5-31T6:8:11Z</time></trkpt>
<trkpt lat="43.4725651" lon="6.8804921"><ele></ele><time>2022-5-31T6:8:14Z</time></trkpt>
<trkpt lat="43.4725650" lon="6.8804923"><ele></ele><time>2022-5-31T6:8:17Z</time></trkpt>
<trkpt lat="43.4725647" lon="6.8804926"><ele></ele><time>2022-5-31T6:8:20Z</time></trkpt>
<trkpt lat="43.4725645" lon="6.8804929"><ele></ele><time>2022-5-31T6:8:23Z</time></trkpt>
<trkpt lat="43.4725644" lon="6.8804931"><ele></ele><time>2022-5-31T6:8:26Z</time></trkpt>
<trkpt lat="43.4725642" lon="6.8804935"><ele></ele><time>2022-5-31T6:8:29Z</time></trkpt>
<trkpt lat="43.4725640" lon="6.8804939"><ele></ele><time>2022-5-31T6:8:32Z</time></trkpt>
<trkpt lat="43.4725640" lon="6.8804942"><ele></ele><time>2022-5-31T6:8:35Z</time></trkpt>
<trkpt lat="43.4725638" lon="6.8804946"><ele></ele><time>2022-5-31T6:8:38Z</time></trkpt>
<trkpt lat="43.4725635" lon="6.8804951"><ele></ele><time>2022-5-31T6:8:41Z</time></trkpt>
<trkpt lat="43.4725632" lon="6.8804957"><ele></ele><time>2022-5-31T6:8:44Z</time></trkpt>
<trkpt lat="43.4725628" lon="6.8804958"><ele></ele><time>2022-5-31T6:8:47Z</time></trkpt>
<trkpt lat="43.4725625" lon="6.8804957"><ele></ele><time>2022-5-31T6:8:50Z</time></trkpt>
<trkpt lat="43.4725623" lon="6.8804956"><ele></ele><time>2022-5-31T6:8:53Z</time></trkpt>
<trkpt lat="43.4725622" lon="6.8804957"><ele></ele><time>2022-5-31T6:8:56Z</time></trkpt>
<trkpt lat="43.4725621" lon="6.8804957"><ele></ele><time>2022-5-31T6:8:59Z</time></trkpt>
<trkpt lat="43.4725620" lon="6.8804960"><ele></ele><time>2022-5-31T6:9:2Z</time></trkpt>
<trkpt lat="43.4725619" lon="6.8804966"><ele></ele><time>2022-5-31T6:9:5Z</time></trkpt>
<trkpt lat="43.4725615" lon="6.8804962"><ele></ele><time>2022-5-31T6:9:8Z</time></trkpt>
<trkpt lat="43.4725612" lon="6.8804961"><ele></ele><time>2022-5-31T6:9:11Z</time></trkpt>
<trkpt lat="43.4725610" lon="6.8804963"><ele></ele><time>2022-5-31T6:9:14Z</time></trkpt>
<trkpt lat="43.4725609" lon="6.8804963"><ele></ele><time>2022-5-31T6:9:17Z</time></trkpt>
<trkpt lat="43.4725606" lon="6.8804966"><ele></ele><time>2022-5-31T6:9:20Z</time></trkpt>
<trkpt lat="43.4725604" lon="6.8804968"><ele></ele><time>2022-5-31T6:9:23Z</time></trkpt>
<trkpt lat="43.4725603" lon="6.8804971"><ele></ele><time>2022-5-31T6:9:26Z</time></trkpt>
<trkpt lat="43.4725602" lon="6.8804976"><ele></ele><time>2022-5-31T6:9:29Z</time></trkpt>
<trkpt lat="43.4725601" lon="6.8804981"><ele></ele><time>2022-5-31T6:9:32Z</time></trkpt>
<trkpt lat="43.4725601" lon="6.8804984"><ele></ele><time>2022-5-31T6:9:35Z</time></trkpt>
<trkpt lat="43.4725599" lon="6.8804992"><ele></ele><time>2022-5-31T6:9:38Z</time></trkpt>
<trkpt lat="43.4725598" lon="6.8804997"><ele></ele><time>2022-5-31T6:9:41Z</time></trkpt>
<trkpt lat="43.4725596" lon="6.8805001"><ele></ele><time>2022-5-31T6:9:44Z</time></trkpt>
<trkpt lat="43.4725594" lon="6.8805002"><ele></ele><time>2022-5-31T6:9:47Z</time></trkpt>
<trkpt lat="43.4725590" lon="6.8805011"><ele></ele><time>2022-5-31T6:9:50Z</time></trkpt>
<trkpt lat="43.4725594" lon="6.8805013"><ele></ele><time>2022-5-31T6:9:53Z</time></trkpt>
<trkpt lat="43.4725599" lon="6.8805014"><ele></ele><time>2022-5-31T6:9:56Z</time></trkpt>
<trkpt lat="43.4725607" lon="6.8805025"><ele></ele><time>2022-5-31T6:9:59Z</time></trkpt>
<trkpt lat="43.4725606" lon="6.8805039"><ele></ele><time>2022-5-31T6:10:2Z</time></trkpt>
<trkpt lat="43.4725633" lon="6.8804981"><ele></ele><time>2022-5-31T6:10:5Z</time></trkpt>
<trkpt lat="43.4725696" lon="6.8804823"><ele></ele><time>2022-5-31T6:10:8Z</time></trkpt>
<trkpt lat="43.4725741" lon="6.8804541"><ele></ele><time>2022-5-31T6:10:11Z</time></trkpt>
<trkpt lat="43.4725866" lon="6.8804219"><ele></ele><time>2022-5-31T6:10:14Z</time></trkpt>
<trkpt lat="43.4725895" lon="6.8803853"><ele></ele><time>2022-5-31T6:10:17Z</time></trkpt>
<trkpt lat="43.4725913" lon="6.8803581"><ele></ele><time>2022-5-31T6:10:20Z</time></trkpt>
<trkpt lat="43.4725862" lon="6.8803271"><ele></ele><time>2022-5-31T6:10:23Z</time></trkpt>
<trkpt lat="43.4725839" lon="6.8802927"><ele></ele><time>2022-5-31T6:10:26Z</time></trkpt>
<trkpt lat="43.4725843" lon="6.8802471"><ele></ele><time>2022-5-31T6:10:29Z</time></trkpt>
<trkpt lat="43.4725605" lon="6.8801965"><ele></ele><time>2022-5-31T6:10:32Z</time></trkpt>
<trkpt lat="43.4725485" lon="6.8801508"><ele></ele><time>2022-5-31T6:10:35Z</time></trkpt>
<trkpt lat="43.4725642" lon="6.8800878"><ele></ele><time>2022-5-31T6:10:38Z</time></trkpt>
<trkpt lat="43.4725808" lon="6.8799904"><ele></ele><time>2022-5-31T6:10:41Z</time></trkpt>
<trkpt lat="43.4725757" lon="6.8799169"><ele></ele><time>2022-5-31T6:10:44Z</time></trkpt>
<trkpt lat="43.4725615" lon="6.8798581"><ele></ele><time>2022-5-31T6:10:47Z</time></trkpt>
<trkpt lat="43.4725511" lon="6.8797887"><ele></ele><time>2022-5-31T6:10:50Z</time></trkpt>
<trkpt lat="43.4725388" lon="6.8797264"><ele></ele><time>2022-5-31T6:10:53Z</time></trkpt>
<trkpt lat="43.4725202" lon="6.8796708"><ele></ele><time>2022-5-31T6:10:56Z</time></trkpt>
<trkpt lat="43.4725003" lon="6.8796163"><ele></ele><time>2022-5-31T6:10:59Z</time></trkpt>
<trkpt lat="43.4724828" lon="6.8795613"><ele></ele><time>2022-5-31T6:11:2Z</time></trkpt>
<trkpt lat="43.4724591" lon="6.8795111"><ele></ele><time>2022-5-31T6:11:5Z</time></trkpt>
<trkpt lat="43.4724314" lon="6.8794605"><ele></ele><time>2022-5-31T6:11:8Z</time></trkpt>
<trkpt lat="43.4724040" lon="6.8794062"><ele></ele><time>2022-5-31T6:11:11Z</time></trkpt>
<trkpt lat="43.4723736" lon="6.8793499"><ele></ele><time>2022-5-31T6:11:14Z</time></trkpt>
<trkpt lat="43.4723397" lon="6.8792920"><ele></ele><time>2022-5-31T6:11:17Z</time></trkpt>
<trkpt lat="43.4723143" lon="6.8792377"><ele></ele><time>2022-5-31T6:11:20Z</time></trkpt>
<trkpt lat="43.4722924" lon="6.8791791"><ele></ele><time>2022-5-31T6:11:23Z</time></trkpt>
<trkpt lat="43.4722717" lon="6.8791188"><ele></ele><time>2022-5-31T6:11:26Z</time></trkpt>
<trkpt lat="43.4722644" lon="6.8790556"><ele></ele><time>2022-5-31T6:11:29Z</time></trkpt>
<trkpt lat="43.4722731" lon="6.8789901"><ele></ele><time>2022-5-31T6:11:32Z</time></trkpt>
<trkpt lat="43.4722972" lon="6.8789202"><ele></ele><time>2022-5-31T6:11:35Z</time></trkpt>
<trkpt lat="43.4723207" lon="6.8788575"><ele></ele><time>2022-5-31T6:11:38Z</time></trkpt>
<trkpt lat="43.4723307" lon="6.8787863"><ele></ele><time>2022-5-31T6:11:41Z</time></trkpt>
<trkpt lat="43.4723279" lon="6.8787211"><ele></ele><time>2022-5-31T6:11:44Z</time></trkpt>
<trkpt lat="43.4723092" lon="6.8786775"><ele></ele><time>2022-5-31T6:11:47Z</time></trkpt>
<trkpt lat="43.4722719" lon="6.8786474"><ele></ele><time>2022-5-31T6:11:50Z</time></trkpt>
<trkpt lat="43.4722324" lon="6.8786178"><ele></ele><time>2022-5-31T6:11:53Z</time></trkpt>
<trkpt lat="43.4721987" lon="6.8785911"><ele></ele><time>2022-5-31T6:11:56Z</time></trkpt>
<trkpt lat="43.4721628" lon="6.8785891"><ele></ele><time>2022-5-31T6:11:59Z</time></trkpt>
<trkpt lat="43.4721355" lon="6.8786122"><ele></ele><time>2022-5-31T6:12:2Z</time></trkpt>
<trkpt lat="43.4721070" lon="6.8786424"><ele></ele><time>2022-5-31T6:12:5Z</time></trkpt>
<trkpt lat="43.4720808" lon="6.8786797"><ele></ele><time>2022-5-31T6:12:8Z</time></trkpt>
<trkpt lat="43.4720544" lon="6.8787168"><ele></ele><time>2022-5-31T6:12:11Z</time></trkpt>
<trkpt lat="43.4720208" lon="6.8787714"><ele></ele><time>2022-5-31T6:12:14Z</time></trkpt>
<trkpt lat="43.4719908" lon="6.8788203"><ele></ele><time>2022-5-31T6:12:17Z</time></trkpt>
<trkpt lat="43.4719671" lon="6.8788672"><ele></ele><time>2022-5-31T6:12:20Z</time></trkpt>
<trkpt lat="43.4719522" lon="6.8789157"><ele></ele><time>2022-5-31T6:12:23Z</time></trkpt>
<trkpt lat="43.4719329" lon="6.8789633"><ele></ele><time>2022-5-31T6:12:26Z</time></trkpt>
<trkpt lat="43.4719019" lon="6.8790213"><ele></ele><time>2022-5-31T6:12:29Z</time></trkpt>
<trkpt lat="43.4718554" lon="6.8790722"><ele></ele><time>2022-5-31T6:12:32Z</time></trkpt>
<trkpt lat="43.4718132" lon="6.8791169"><ele></ele><time>2022-5-31T6:12:35Z</time></trkpt>
<trkpt lat="43.4717564" lon="6.8791411"><ele></ele><time>2022-5-31T6:12:38Z</time></trkpt>
<trkpt lat="43.4716948" lon="6.8791712"><ele></ele><time>2022-5-31T6:12:41Z</time></trkpt>
<trkpt lat="43.4716570" lon="6.8792042"><ele></ele><time>2022-5-31T6:12:44Z</time></trkpt>
<trkpt lat="43.4716032" lon="6.8791844"><ele></ele><time>2022-5-31T6:12:47Z</time></trkpt>
<trkpt lat="43.4715565" lon="6.8791959"><ele></ele><time>2022-5-31T6:12:50Z</time></trkpt>
<trkpt lat="43.4715126" lon="6.8792222"><ele></ele><time>2022-5-31T6:12:53Z</time></trkpt>
<trkpt lat="43.4714889" lon="6.8792462"><ele></ele><time>2022-5-31T6:12:56Z</time></trkpt>
<trkpt lat="43.4714703" lon="6.8792612"><ele></ele><time>2022-5-31T6:12:59Z</time></trkpt>
<trkpt lat="43.4714488" lon="6.8792882"><ele></ele><time>2022-5-31T6:13:2Z</time></trkpt>
<trkpt lat="43.4714174" lon="6.8793181"><ele></ele><time>2022-5-31T6:13:5Z</time></trkpt>
<trkpt lat="43.4713949" lon="6.8793443"><ele></ele><time>2022-5-31T6:13:8Z</time></trkpt>
<trkpt lat="43.4713784" lon="6.8793730"><ele></ele><time>2022-5-31T6:13:11Z</time></trkpt>
<trkpt lat="43.4713675" lon="6.8794086"><ele></ele><time>2022-5-31T6:13:14Z</time></trkpt>
<trkpt lat="43.4713545" lon="6.8794444"><ele></ele><time>2022-5-31T6:13:17Z</time></trkpt>
<trkpt lat="43.4713310" lon="6.8794773"><ele></ele><time>2022-5-31T6:13:20Z</time></trkpt>
<trkpt lat="43.4713071" lon="6.8795051"><ele></ele><time>2022-5-31T6:13:23Z</time></trkpt>
<trkpt lat="43.4712871" lon="6.8795424"><ele></ele><time>2022-5-31T6:13:26Z</time></trkpt>
<trkpt lat="43.4712663" lon="6.8795819"><ele></ele><time>2022-5-31T6:13:29Z</time></trkpt>
<trkpt lat="43.4712463" lon="6.8796262"><ele></ele><time>2022-5-31T6:13:32Z</time></trkpt>
<trkpt lat="43.4712189" lon="6.8796621"><ele></ele><time>2022-5-31T6:13:35Z</time></trkpt>
<trkpt lat="43.4711929" lon="6.8796998"><ele></ele><time>2022-5-31T6:13:38Z</time></trkpt>
<trkpt lat="43.4711683" lon="6.8797368"><ele></ele><time>2022-5-31T6:13:41Z</time></trkpt>
<trkpt lat="43.4711421" lon="6.8797699"><ele></ele><time>2022-5-31T6:13:44Z</time></trkpt>
<trkpt lat="43.4711168" lon="6.8797983"><ele></ele><time>2022-5-31T6:13:47Z</time></trkpt>
<trkpt lat="43.4710839" lon="6.8798296"><ele></ele><time>2022-5-31T6:13:50Z</time></trkpt>
<trkpt lat="43.4710501" lon="6.8798673"><ele></ele><time>2022-5-31T6:13:53Z</time></trkpt>
<trkpt lat="43.4710168" lon="6.8798926"><ele></ele><time>2022-5-31T6:13:56Z</time></trkpt>
<trkpt lat="43.4709817" lon="6.8798935"><ele></ele><time>2022-5-31T6:13:59Z</time></trkpt>
<trkpt lat="43.4709444" lon="6.8799013"><ele></ele><time>2022-5-31T6:14:2Z</time></trkpt>
<trkpt lat="43.4709065" lon="6.8799223"><ele></ele><time>2022-5-31T6:14:5Z</time></trkpt>
<trkpt lat="43.4708718" lon="6.8799449"><ele></ele><time>2022-5-31T6:14:8Z</time></trkpt>
<trkpt lat="43.4708335" lon="6.8799715"><ele></ele><time>2022-5-31T6:14:11Z</time></trkpt>
<trkpt lat="43.4708000" lon="6.8799910"><ele></ele><time>2022-5-31T6:14:14Z</time></trkpt>
<trkpt lat="43.4707677" lon="6.8800055"><ele></ele><time>2022-5-31T6:14:17Z</time></trkpt>
<trkpt lat="43.4707295" lon="6.8800188"><ele></ele><time>2022-5-31T6:14:20Z</time></trkpt>
<trkpt lat="43.4706814" lon="6.8800337"><ele></ele><time>2022-5-31T6:14:23Z</time></trkpt>
<trkpt lat="43.4706481" lon="6.8800271"><ele></ele><time>2022-5-31T6:14:26Z</time></trkpt>
<trkpt lat="43.4706146" lon="6.8800231"><ele></ele><time>2022-5-31T6:14:29Z</time></trkpt>
<trkpt lat="43.4705893" lon="6.8800153"><ele></ele><time>2022-5-31T6:14:32Z</time></trkpt>
<trkpt lat="43.4705607" lon="6.8800133"><ele></ele><time>2022-5-31T6:14:35Z</time></trkpt>
<trkpt lat="43.4705119" lon="6.8800180"><ele></ele><time>2022-5-31T6:14:38Z</time></trkpt>
<trkpt lat="43.4704704" lon="6.8800149"><ele></ele><time>2022-5-31T6:14:41Z</time></trkpt>
<trkpt lat="43.4704447" lon="6.8799958"><ele></ele><time>2022-5-31T6:14:44Z</time></trkpt>
<trkpt lat="43.4704229" lon="6.8799708"><ele></ele><time>2022-5-31T6:14:47Z</time></trkpt>
<trkpt lat="43.4703985" lon="6.8799264"><ele></ele><time>2022-5-31T6:14:50Z</time></trkpt>
<trkpt lat="43.4703728" lon="6.8798898"><ele></ele><time>2022-5-31T6:14:53Z</time></trkpt>
<trkpt lat="43.4703492" lon="6.8798288"><ele></ele><time>2022-5-31T6:14:56Z</time></trkpt>
<trkpt lat="43.4703265" lon="6.8797646"><ele></ele><time>2022-5-31T6:14:59Z</time></trkpt>
<trkpt lat="43.4703058" lon="6.8797221"><ele></ele><time>2022-5-31T6:15:2Z</time></trkpt>
<trkpt lat="43.4702931" lon="6.8796957"><ele></ele><time>2022-5-31T6:15:5Z</time></trkpt>
<trkpt lat="43.4702713" lon="6.8796391"><ele></ele><time>2022-5-31T6:15:8Z</time></trkpt>
<trkpt lat="43.4702555" lon="6.8795761"><ele></ele><time>2022-5-31T6:15:11Z</time></trkpt>
<trkpt lat="43.4702495" lon="6.8794844"><ele></ele><time>2022-5-31T6:15:14Z</time></trkpt>
<trkpt lat="43.4702264" lon="6.8794282"><ele></ele><time>2022-5-31T6:15:17Z</time></trkpt>
<trkpt lat="43.4702057" lon="6.8793302"><ele></ele><time>2022-5-31T6:15:20Z</time></trkpt>
<trkpt lat="43.4701717" lon="6.8792550"><ele></ele><time>2022-5-31T6:15:23Z</time></trkpt>
<trkpt lat="43.4701323" lon="6.8792006"><ele></ele><time>2022-5-31T6:15:26Z</time></trkpt>
<trkpt lat="43.4700989" lon="6.8791519"><ele></ele><time>2022-5-31T6:15:29Z</time></trkpt>
<trkpt lat="43.4700777" lon="6.8791266"><ele></ele><time>2022-5-31T6:15:32Z</time></trkpt>
<trkpt lat="43.4700459" lon="6.8790841"><ele></ele><time>2022-5-31T6:15:35Z</time></trkpt>
<trkpt lat="43.4699953" lon="6.8790826"><ele></ele><time>2022-5-31T6:15:38Z</time></trkpt>
<trkpt lat="43.4699639" lon="6.8790601"><ele></ele><time>2022-5-31T6:15:41Z</time></trkpt>
<trkpt lat="43.4699227" lon="6.8790384"><ele></ele><time>2022-5-31T6:15:44Z</time></trkpt>
<trkpt lat="43.4698984" lon="6.8790141"><ele></ele><time>2022-5-31T6:15:47Z</time></trkpt>
<trkpt lat="43.4698620" lon="6.8790050"><ele></ele><time>2022-5-31T6:15:50Z</time></trkpt>
<trkpt lat="43.4698115" lon="6.8790158"><ele></ele><time>2022-5-31T6:15:53Z</time></trkpt>
<trkpt lat="43.4697477" lon="6.8790304"><ele></ele><time>2022-5-31T6:15:56Z</time></trkpt>
<trkpt lat="43.4696969" lon="6.8790051"><ele></ele><time>2022-5-31T6:15:59Z</time></trkpt>
<trkpt lat="43.4696706" lon="6.8789742"><ele></ele><time>2022-5-31T6:16:2Z</time></trkpt>
<trkpt lat="43.4696612" lon="6.8788910"><ele></ele><time>2022-5-31T6:16:5Z</time></trkpt>
<trkpt lat="43.4695989" lon="6.8788867"><ele></ele><time>2022-5-31T6:16:8Z</time></trkpt>
<trkpt lat="43.4695592" lon="6.8788315"><ele></ele><time>2022-5-31T6:16:11Z</time></trkpt>
<trkpt lat="43.4695031" lon="6.8787627"><ele></ele><time>2022-5-31T6:16:14Z</time></trkpt>
<trkpt lat="43.4694693" lon="6.8787250"><ele></ele><time>2022-5-31T6:16:17Z</time></trkpt>
<trkpt lat="43.4694280" lon="6.8786546"><ele></ele><time>2022-5-31T6:16:20Z</time></trkpt>
<trkpt lat="43.4693911" lon="6.8785759"><ele></ele><time>2022-5-31T6:16:23Z</time></trkpt>
<trkpt lat="43.4693482" lon="6.8784981"><ele></ele><time>2022-5-31T6:16:26Z</time></trkpt>
<trkpt lat="43.4693140" lon="6.8784381"><ele></ele><time>2022-5-31T6:16:29Z</time></trkpt>
<trkpt lat="43.4692680" lon="6.8783818"><ele></ele><time>2022-5-31T6:16:32Z</time></trkpt>
<trkpt lat="43.4692289" lon="6.8783271"><ele></ele><time>2022-5-31T6:16:35Z</time></trkpt>
<trkpt lat="43.4691709" lon="6.8782736"><ele></ele><time>2022-5-31T6:16:38Z</time></trkpt>
<trkpt lat="43.4691346" lon="6.8782106"><ele></ele><time>2022-5-31T6:16:41Z</time></trkpt>
<trkpt lat="43.4690719" lon="6.8781691"><ele></ele><time>2022-5-31T6:16:44Z</time></trkpt>
<trkpt lat="43.4690238" lon="6.8780958"><ele></ele><time>2022-5-31T6:16:47Z</time></trkpt>
<trkpt lat="43.4689896" lon="6.8780561"><ele></ele><time>2022-5-31T6:16:50Z</time></trkpt>
<trkpt lat="43.4689645" lon="6.8780014"><ele></ele><time>2022-5-31T6:16:53Z</time></trkpt>
<trkpt lat="43.4689592" lon="6.8779789"><ele></ele><time>2022-5-31T6:16:56Z</time></trkpt>
<trkpt lat="43.4689515" lon="6.8779640"><ele></ele><time>2022-5-31T6:16:59Z</time></trkpt>
<trkpt lat="43.4689435" lon="6.8779561"><ele></ele><time>2022-5-31T6:17:2Z</time></trkpt>
<trkpt lat="43.4689388" lon="6.8779641"><ele></ele><time>2022-5-31T6:17:5Z</time></trkpt>
<trkpt lat="43.4689449" lon="6.8779566"><ele></ele><time>2022-5-31T6:17:8Z</time></trkpt>
<trkpt lat="43.4689419" lon="6.8779577"><ele></ele><time>2022-5-31T6:17:11Z</time></trkpt>
<trkpt lat="43.4689418" lon="6.8779573"><ele></ele><time>2022-5-31T6:17:14Z</time></trkpt>
<trkpt lat="43.4689420" lon="6.8779571"><ele></ele><time>2022-5-31T6:17:17Z</time></trkpt>
<trkpt lat="43.4689422" lon="6.8779565"><ele></ele><time>2022-5-31T6:17:20Z</time></trkpt>
<trkpt lat="43.4689425" lon="6.8779562"><ele></ele><time>2022-5-31T6:17:23Z</time></trkpt>
<trkpt lat="43.4689427" lon="6.8779560"><ele></ele><time>2022-5-31T6:17:26Z</time></trkpt>
<trkpt lat="43.4689430" lon="6.8779561"><ele></ele><time>2022-5-31T6:17:29Z</time></trkpt>
<trkpt lat="43.4689431" lon="6.8779562"><ele></ele><time>2022-5-31T6:17:32Z</time></trkpt>
<trkpt lat="43.4689431" lon="6.8779561"><ele></ele><time>2022-5-31T6:17:35Z</time></trkpt>
<trkpt lat="43.4689433" lon="6.8779567"><ele></ele><time>2022-5-31T6:17:38Z</time></trkpt>
<trkpt lat="43.4689436" lon="6.8779573"><ele></ele><time>2022-5-31T6:17:41Z</time></trkpt>
<trkpt lat="43.4689437" lon="6.8779579"><ele></ele><time>2022-5-31T6:17:44Z</time></trkpt>
<trkpt lat="43.4689439" lon="6.8779583"><ele></ele><time>2022-5-31T6:17:47Z</time></trkpt>
<trkpt lat="43.4689440" lon="6.8779588"><ele></ele><time>2022-5-31T6:17:50Z</time></trkpt>
<trkpt lat="43.4689441" lon="6.8779591"><ele></ele><time>2022-5-31T6:17:53Z</time></trkpt>
<trkpt lat="43.4689441" lon="6.8779594"><ele></ele><time>2022-5-31T6:17:56Z</time></trkpt>
<trkpt lat="43.4689442" lon="6.8779598"><ele></ele><time>2022-5-31T6:17:59Z</time></trkpt>
<trkpt lat="43.4689443" lon="6.8779602"><ele></ele><time>2022-5-31T6:18:2Z</time></trkpt>
<trkpt lat="43.4689444" lon="6.8779606"><ele></ele><time>2022-5-31T6:18:5Z</time></trkpt>
<trkpt lat="43.4689445" lon="6.8779609"><ele></ele><time>2022-5-31T6:18:8Z</time></trkpt>
<trkpt lat="43.4689447" lon="6.8779612"><ele></ele><time>2022-5-31T6:18:11Z</time></trkpt>
<trkpt lat="43.4689449" lon="6.8779617"><ele></ele><time>2022-5-31T6:18:14Z</time></trkpt>
<trkpt lat="43.4689467" lon="6.8779644"><ele></ele><time>2022-5-31T6:18:17Z</time></trkpt>
<trkpt lat="43.4689426" lon="6.8779636"><ele></ele><time>2022-5-31T6:18:20Z</time></trkpt>
<trkpt lat="43.4689406" lon="6.8779679"><ele></ele><time>2022-5-31T6:18:23Z</time></trkpt>
<trkpt lat="43.4689304" lon="6.8779748"><ele></ele><time>2022-5-31T6:18:26Z</time></trkpt>
<trkpt lat="43.4689038" lon="6.8779603"><ele></ele><time>2022-5-31T6:18:29Z</time></trkpt>
<trkpt lat="43.4688711" lon="6.8779407"><ele></ele><time>2022-5-31T6:18:32Z</time></trkpt>
<trkpt lat="43.4688283" lon="6.8779137"><ele></ele><time>2022-5-31T6:18:35Z</time></trkpt>
<trkpt lat="43.4688082" lon="6.8779073"><ele></ele><time>2022-5-31T6:18:38Z</time></trkpt>
<trkpt lat="43.4687889" lon="6.8779051"><ele></ele><time>2022-5-31T6:18:41Z</time></trkpt>
<trkpt lat="43.4687671" lon="6.8779104"><ele></ele><time>2022-5-31T6:18:44Z</time></trkpt>
<trkpt lat="43.4687344" lon="6.8779158"><ele></ele><time>2022-5-31T6:18:47Z</time></trkpt>
<trkpt lat="43.4687003" lon="6.8778996"><ele></ele><time>2022-5-31T6:18:50Z</time></trkpt>
<trkpt lat="43.4686659" lon="6.8778615"><ele></ele><time>2022-5-31T6:18:53Z</time></trkpt>
<trkpt lat="43.4686263" lon="6.8778165"><ele></ele><time>2022-5-31T6:18:56Z</time></trkpt>
<trkpt lat="43.4685904" lon="6.8777792"><ele></ele><time>2022-5-31T6:18:59Z</time></trkpt>
<trkpt lat="43.4685583" lon="6.8777542"><ele></ele><time>2022-5-31T6:19:2Z</time></trkpt>
<trkpt lat="43.4685105" lon="6.8777085"><ele></ele><time>2022-5-31T6:19:5Z</time></trkpt>
<trkpt lat="43.4684703" lon="6.8776760"><ele></ele><time>2022-5-31T6:19:8Z</time></trkpt>
<trkpt lat="43.4684191" lon="6.8776356"><ele></ele><time>2022-5-31T6:19:11Z</time></trkpt>
<trkpt lat="43.4683719" lon="6.8775927"><ele></ele><time>2022-5-31T6:19:14Z</time></trkpt>
<trkpt lat="43.4683295" lon="6.8775729"><ele></ele><time>2022-5-31T6:19:17Z</time></trkpt>
<trkpt lat="43.4683033" lon="6.8775337"><ele></ele><time>2022-5-31T6:19:20Z</time></trkpt>
<trkpt lat="43.4682740" lon="6.8775086"><ele></ele><time>2022-5-31T6:19:23Z</time></trkpt>
<trkpt lat="43.4682335" lon="6.8774877"><ele></ele><time>2022-5-31T6:19:26Z</time></trkpt>
<trkpt lat="43.4681915" lon="6.8774632"><ele></ele><time>2022-5-31T6:19:29Z</time></trkpt>
<trkpt lat="43.4681400" lon="6.8774298"><ele></ele><time>2022-5-31T6:19:32Z</time></trkpt>
<trkpt lat="43.4680994" lon="6.8774053"><ele></ele><time>2022-5-31T6:19:35Z</time></trkpt>
<trkpt lat="43.4680651" lon="6.8773900"><ele></ele><time>2022-5-31T6:19:38Z</time></trkpt>
<trkpt lat="43.4680346" lon="6.8773799"><ele></ele><time>2022-5-31T6:19:41Z</time></trkpt>
<trkpt lat="43.4679985" lon="6.8773553"><ele></ele><time>2022-5-31T6:19:44Z</time></trkpt>
<trkpt lat="43.4679764" lon="6.8773312"><ele></ele><time>2022-5-31T6:19:47Z</time></trkpt>
<trkpt lat="43.4679464" lon="6.8773037"><ele></ele><time>2022-5-31T6:19:50Z</time></trkpt>
<trkpt lat="43.4679145" lon="6.8772688"><ele></ele><time>2022-5-31T6:19:53Z</time></trkpt>
<trkpt lat="43.4678912" lon="6.8772468"><ele></ele><time>2022-5-31T6:19:56Z</time></trkpt>
<trkpt lat="43.4678673" lon="6.8772111"><ele></ele><time>2022-5-31T6:19:59Z</time></trkpt>
<trkpt lat="43.4678471" lon="6.8771819"><ele></ele><time>2022-5-31T6:20:2Z</time></trkpt>
<trkpt lat="43.4678211" lon="6.8771629"><ele></ele><time>2022-5-31T6:20:5Z</time></trkpt>
<trkpt lat="43.4677930" lon="6.8771434"><ele></ele><time>2022-5-31T6:20:8Z</time></trkpt>
<trkpt lat="43.4677802" lon="6.8771401"><ele></ele><time>2022-5-31T6:20:11Z</time></trkpt>
<trkpt lat="43.4677625" lon="6.8771277"><ele></ele><time>2022-5-31T6:20:14Z</time></trkpt>
<trkpt lat="43.4677421" lon="6.8771194"><ele></ele><time>2022-5-31T6:20:17Z</time></trkpt>
<trkpt lat="43.4677134" lon="6.8771285"><ele></ele><time>2022-5-31T6:20:20Z</time></trkpt>
<trkpt lat="43.4676838" lon="6.8771220"><ele></ele><time>2022-5-31T6:20:23Z</time></trkpt>
<trkpt lat="43.4676661" lon="6.8770996"><ele></ele><time>2022-5-31T6:20:26Z</time></trkpt>
<trkpt lat="43.4676322" lon="6.8770873"><ele></ele><time>2022-5-31T6:20:29Z</time></trkpt>
<trkpt lat="43.4675663" lon="6.8770625"><ele></ele><time>2022-5-31T6:20:32Z</time></trkpt>
<trkpt lat="43.4675154" lon="6.8770177"><ele></ele><time>2022-5-31T6:20:35Z</time></trkpt>
<trkpt lat="43.4674734" lon="6.8769886"><ele></ele><time>2022-5-31T6:20:38Z</time></trkpt>
<trkpt lat="43.4674315" lon="6.8769642"><ele></ele><time>2022-5-31T6:20:41Z</time></trkpt>
<trkpt lat="43.4674030" lon="6.8769380"><ele></ele><time>2022-5-31T6:20:44Z</time></trkpt>
<trkpt lat="43.4673583" lon="6.8769276"><ele></ele><time>2022-5-31T6:20:47Z</time></trkpt>
<trkpt lat="43.4673253" lon="6.8768992"><ele></ele><time>2022-5-31T6:20:50Z</time></trkpt>
<trkpt lat="43.4672907" lon="6.8768646"><ele></ele><time>2022-5-31T6:20:53Z</time></trkpt>
<trkpt lat="43.4672590" lon="6.8768352"><ele></ele><time>2022-5-31T6:20:56Z</time></trkpt>
<trkpt lat="43.4672374" lon="6.8768087"><ele></ele><time>2022-5-31T6:20:59Z</time></trkpt>
<trkpt lat="43.4672164" lon="6.8767874"><ele></ele><time>2022-5-31T6:21:2Z</time></trkpt>
<trkpt lat="43.4672044" lon="6.8767732"><ele></ele><time>2022-5-31T6:21:5Z</time></trkpt>
<trkpt lat="43.4671710" lon="6.8767556"><ele></ele><time>2022-5-31T6:21:8Z</time></trkpt>
<trkpt lat="43.4671385" lon="6.8767440"><ele></ele><time>2022-5-31T6:21:11Z</time></trkpt>
<trkpt lat="43.4670890" lon="6.8767094"><ele></ele><time>2022-5-31T6:21:14Z</time></trkpt>
<trkpt lat="43.4670447" lon="6.8766961"><ele></ele><time>2022-5-31T6:21:17Z</time></trkpt>
<trkpt lat="43.4669923" lon="6.8766802"><ele></ele><time>2022-5-31T6:21:20Z</time></trkpt>
<trkpt lat="43.4669624" lon="6.8766798"><ele></ele><time>2022-5-31T6:21:23Z</time></trkpt>
<trkpt lat="43.4669336" lon="6.8766771"><ele></ele><time>2022-5-31T6:21:26Z</time></trkpt>
<trkpt lat="43.4669021" lon="6.8766546"><ele></ele><time>2022-5-31T6:21:29Z</time></trkpt>
<trkpt lat="43.4668816" lon="6.8766419"><ele></ele><time>2022-5-31T6:21:32Z</time></trkpt>
<trkpt lat="43.4668380" lon="6.8766461"><ele></ele><time>2022-5-31T6:21:35Z</time></trkpt>
<trkpt lat="43.4667941" lon="6.8766447"><ele></ele><time>2022-5-31T6:21:38Z</time></trkpt>
<trkpt lat="43.4667662" lon="6.8766148"><ele></ele><time>2022-5-31T6:21:41Z</time></trkpt>
<trkpt lat="43.4667176" lon="6.8766072"><ele></ele><time>2022-5-31T6:21:44Z</time></trkpt>
<trkpt lat="43.4666784" lon="6.8765931"><ele></ele><time>2022-5-31T6:21:47Z</time></trkpt>
<trkpt lat="43.4666349" lon="6.8765701"><ele></ele><time>2022-5-31T6:21:50Z</time></trkpt>
<trkpt lat="43.4666160" lon="6.8765599"><ele></ele><time>2022-5-31T6:21:53Z</time></trkpt>
<trkpt lat="43.4665777" lon="6.8765677"><ele></ele><time>2022-5-31T6:21:56Z</time></trkpt>
<trkpt lat="43.4665465" lon="6.8765508"><ele></ele><time>2022-5-31T6:21:59Z</time></trkpt>
<trkpt lat="43.4665063" lon="6.8765429"><ele></ele><time>2022-5-31T6:22:2Z</time></trkpt>
<trkpt lat="43.4664621" lon="6.8765281"><ele></ele><time>2022-5-31T6:22:5Z</time></trkpt>
<trkpt lat="43.4664338" lon="6.8765216"><ele></ele><time>2022-5-31T6:22:8Z</time></trkpt>
<trkpt lat="43.4663902" lon="6.8764982"><ele></ele><time>2022-5-31T6:22:11Z</time></trkpt>
<trkpt lat="43.4663468" lon="6.8764906"><ele></ele><time>2022-5-31T6:22:14Z</time></trkpt>
<trkpt lat="43.4663081" lon="6.8764781"><ele></ele><time>2022-5-31T6:22:17Z</time></trkpt>
<trkpt lat="43.4662630" lon="6.8764382"><ele></ele><time>2022-5-31T6:22:20Z</time></trkpt>
<trkpt lat="43.4662211" lon="6.8764136"><ele></ele><time>2022-5-31T6:22:23Z</time></trkpt>
<trkpt lat="43.4661748" lon="6.8764095"><ele></ele><time>2022-5-31T6:22:26Z</time></trkpt>
<trkpt lat="43.4661428" lon="6.8763971"><ele></ele><time>2022-5-31T6:22:29Z</time></trkpt>
<trkpt lat="43.4661175" lon="6.8763686"><ele></ele><time>2022-5-31T6:22:32Z</time></trkpt>
<trkpt lat="43.4660720" lon="6.8763309"><ele></ele><time>2022-5-31T6:22:35Z</time></trkpt>
<trkpt lat="43.4660340" lon="6.8763101"><ele></ele><time>2022-5-31T6:22:38Z</time></trkpt>
<trkpt lat="43.4660020" lon="6.8763262"><ele></ele><time>2022-5-31T6:22:41Z</time></trkpt>
<trkpt lat="43.4659705" lon="6.8763284"><ele></ele><time>2022-5-31T6:22:44Z</time></trkpt>
<trkpt lat="43.4659413" lon="6.8763261"><ele></ele><time>2022-5-31T6:22:47Z</time></trkpt>
<trkpt lat="43.4658985" lon="6.8762699"><ele></ele><time>2022-5-31T6:22:50Z</time></trkpt>
<trkpt lat="43.4658759" lon="6.8762153"><ele></ele><time>2022-5-31T6:22:53Z</time></trkpt>
<trkpt lat="43.4658489" lon="6.8761698"><ele></ele><time>2022-5-31T6:22:56Z</time></trkpt>
<trkpt lat="43.4658120" lon="6.8761408"><ele></ele><time>2022-5-31T6:22:59Z</time></trkpt>
<trkpt lat="43.4657737" lon="6.8761023"><ele></ele><time>2022-5-31T6:23:2Z</time></trkpt>
<trkpt lat="43.4657320" lon="6.8760651"><ele></ele><time>2022-5-31T6:23:5Z</time></trkpt>
<trkpt lat="43.4656900" lon="6.8760175"><ele></ele><time>2022-5-31T6:23:8Z</time></trkpt>
<trkpt lat="43.4656473" lon="6.8759810"><ele></ele><time>2022-5-31T6:23:11Z</time></trkpt>
<trkpt lat="43.4655983" lon="6.8759312"><ele></ele><time>2022-5-31T6:23:14Z</time></trkpt>
<trkpt lat="43.4655386" lon="6.8758805"><ele></ele><time>2022-5-31T6:23:17Z</time></trkpt>
<trkpt lat="43.4654806" lon="6.8758351"><ele></ele><time>2022-5-31T6:23:20Z</time></trkpt>
<trkpt lat="43.4654254" lon="6.8758063"><ele></ele><time>2022-5-31T6:23:23Z</time></trkpt>
<trkpt lat="43.4653701" lon="6.8757665"><ele></ele><time>2022-5-31T6:23:26Z</time></trkpt>
<trkpt lat="43.4653099" lon="6.8757409"><ele></ele><time>2022-5-31T6:23:29Z</time></trkpt>
<trkpt lat="43.4652525" lon="6.8757129"><ele></ele><time>2022-5-31T6:23:32Z</time></trkpt>
<trkpt lat="43.4651802" lon="6.8756892"><ele></ele><time>2022-5-31T6:23:35Z</time></trkpt>
<trkpt lat="43.4651153" lon="6.8756631"><ele></ele><time>2022-5-31T6:23:38Z</time></trkpt>
<trkpt lat="43.4650555" lon="6.8756389"><ele></ele><time>2022-5-31T6:23:41Z</time></trkpt>
<trkpt lat="43.4649935" lon="6.8756169"><ele></ele><time>2022-5-31T6:23:44Z</time></trkpt>
<trkpt lat="43.4649303" lon="6.8755972"><ele></ele><time>2022-5-31T6:23:47Z</time></trkpt>
<trkpt lat="43.4648632" lon="6.8755783"><ele></ele><time>2022-5-31T6:23:50Z</time></trkpt>
<trkpt lat="43.4648025" lon="6.8755681"><ele></ele><time>2022-5-31T6:23:53Z</time></trkpt>
<trkpt lat="43.4647430" lon="6.8755551"><ele></ele><time>2022-5-31T6:23:56Z</time></trkpt>
<trkpt lat="43.4646920" lon="6.8755413"><ele></ele><time>2022-5-31T6:23:59Z</time></trkpt>
<trkpt lat="43.4646461" lon="6.8755362"><ele></ele><time>2022-5-31T6:24:2Z</time></trkpt>
<trkpt lat="43.4646019" lon="6.8755403"><ele></ele><time>2022-5-31T6:24:5Z</time></trkpt>
<trkpt lat="43.4645633" lon="6.8755450"><ele></ele><time>2022-5-31T6:24:8Z</time></trkpt>
<trkpt lat="43.4645318" lon="6.8755497"><ele></ele><time>2022-5-31T6:24:11Z</time></trkpt>
<trkpt lat="43.4645016" lon="6.8755637"><ele></ele><time>2022-5-31T6:24:14Z</time></trkpt>
<trkpt lat="43.4644729" lon="6.8755906"><ele></ele><time>2022-5-31T6:24:17Z</time></trkpt>
<trkpt lat="43.4644542" lon="6.8756186"><ele></ele><time>2022-5-31T6:24:20Z</time></trkpt>
<trkpt lat="43.4644463" lon="6.8756382"><ele></ele><time>2022-5-31T6:24:23Z</time></trkpt>
<trkpt lat="43.4644532" lon="6.8756395"><ele></ele><time>2022-5-31T6:24:26Z</time></trkpt>
<trkpt lat="43.4644652" lon="6.8756331"><ele></ele><time>2022-5-31T6:24:29Z</time></trkpt>
<trkpt lat="43.4644738" lon="6.8756318"><ele></ele><time>2022-5-31T6:24:32Z</time></trkpt>
<trkpt lat="43.4644766" lon="6.8756299"><ele></ele><time>2022-5-31T6:24:35Z</time></trkpt>
<trkpt lat="43.4644768" lon="6.8756305"><ele></ele><time>2022-5-31T6:24:38Z</time></trkpt>
<trkpt lat="43.4644769" lon="6.8756311"><ele></ele><time>2022-5-31T6:24:41Z</time></trkpt>
<trkpt lat="43.4644765" lon="6.8756355"><ele></ele><time>2022-5-31T6:24:44Z</time></trkpt>
<trkpt lat="43.4644732" lon="6.8756488"><ele></ele><time>2022-5-31T6:24:47Z</time></trkpt>
<trkpt lat="43.4644624" lon="6.8756726"><ele></ele><time>2022-5-31T6:24:50Z</time></trkpt>
<trkpt lat="43.4644458" lon="6.8757184"><ele></ele><time>2022-5-31T6:24:53Z</time></trkpt>
<trkpt lat="43.4644292" lon="6.8757738"><ele></ele><time>2022-5-31T6:24:56Z</time></trkpt>
<trkpt lat="43.4644213" lon="6.8758289"><ele></ele><time>2022-5-31T6:24:59Z</time></trkpt>
<trkpt lat="43.4644091" lon="6.8758797"><ele></ele><time>2022-5-31T6:25:2Z</time></trkpt>
<trkpt lat="43.4643961" lon="6.8759392"><ele></ele><time>2022-5-31T6:25:5Z</time></trkpt>
<trkpt lat="43.4643794" lon="6.8760046"><ele></ele><time>2022-5-31T6:25:8Z</time></trkpt>
<trkpt lat="43.4643768" lon="6.8760782"><ele></ele><time>2022-5-31T6:25:11Z</time></trkpt>
<trkpt lat="43.4643733" lon="6.8761501"><ele></ele><time>2022-5-31T6:25:14Z</time></trkpt>
<trkpt lat="43.4643657" lon="6.8762242"><ele></ele><time>2022-5-31T6:25:17Z</time></trkpt>
<trkpt lat="43.4643473" lon="6.8763014"><ele></ele><time>2022-5-31T6:25:20Z</time></trkpt>
<trkpt lat="43.4643271" lon="6.8763766"><ele></ele><time>2022-5-31T6:25:23Z</time></trkpt>
<trkpt lat="43.4643020" lon="6.8764523"><ele></ele><time>2022-5-31T6:25:26Z</time></trkpt>
<trkpt lat="43.4642693" lon="6.8765144"><ele></ele><time>2022-5-31T6:25:29Z</time></trkpt>
<trkpt lat="43.4642354" lon="6.8765741"><ele></ele><time>2022-5-31T6:25:32Z</time></trkpt>
<trkpt lat="43.4642026" lon="6.8766278"><ele></ele><time>2022-5-31T6:25:35Z</time></trkpt>
<trkpt lat="43.4641729" lon="6.8766846"><ele></ele><time>2022-5-31T6:25:38Z</time></trkpt>
<trkpt lat="43.4641296" lon="6.8767336"><ele></ele><time>2022-5-31T6:25:41Z</time></trkpt>
<trkpt lat="43.4640790" lon="6.8767847"><ele></ele><time>2022-5-31T6:25:44Z</time></trkpt>
<trkpt lat="43.4640312" lon="6.8768182"><ele></ele><time>2022-5-31T6:25:47Z</time></trkpt>
<trkpt lat="43.4639797" lon="6.8768518"><ele></ele><time>2022-5-31T6:25:50Z</time></trkpt>
<trkpt lat="43.4639289" lon="6.8768869"><ele></ele><time>2022-5-31T6:25:53Z</time></trkpt>
<trkpt lat="43.4638804" lon="6.8769117"><ele></ele><time>2022-5-31T6:25:56Z</time></trkpt>
<trkpt lat="43.4638285" lon="6.8769208"><ele></ele><time>2022-5-31T6:25:59Z</time></trkpt>
<trkpt lat="43.4637751" lon="6.8769390"><ele></ele><time>2022-5-31T6:26:2Z</time></trkpt>
<trkpt lat="43.4637267" lon="6.8769628"><ele></ele><time>2022-5-31T6:26:5Z</time></trkpt>
<trkpt lat="43.4636859" lon="6.8769858"><ele></ele><time>2022-5-31T6:26:8Z</time></trkpt>
<trkpt lat="43.4636523" lon="6.8770179"><ele></ele><time>2022-5-31T6:26:11Z</time></trkpt>
<trkpt lat="43.4636148" lon="6.8770210"><ele></ele><time>2022-5-31T6:26:14Z</time></trkpt>
<trkpt lat="43.4635871" lon="6.8770390"><ele></ele><time>2022-5-31T6:26:17Z</time></trkpt>
<trkpt lat="43.4635465" lon="6.8770572"><ele></ele><time>2022-5-31T6:26:20Z</time></trkpt>
<trkpt lat="43.4635047" lon="6.8770761"><ele></ele><time>2022-5-31T6:26:23Z</time></trkpt>
<trkpt lat="43.4634651" lon="6.8770975"><ele></ele><time>2022-5-31T6:26:26Z</time></trkpt>
<trkpt lat="43.4634249" lon="6.8771173"><ele></ele><time>2022-5-31T6:26:29Z</time></trkpt>
<trkpt lat="43.4633873" lon="6.8771339"><ele></ele><time>2022-5-31T6:26:32Z</time></trkpt>
<trkpt lat="43.4633551" lon="6.8771283"><ele></ele><time>2022-5-31T6:26:35Z</time></trkpt>
<trkpt lat="43.4633212" lon="6.8771365"><ele></ele><time>2022-5-31T6:26:38Z</time></trkpt>
<trkpt lat="43.4632855" lon="6.8771481"><ele></ele><time>2022-5-31T6:26:41Z</time></trkpt>
<trkpt lat="43.4632528" lon="6.8771692"><ele></ele><time>2022-5-31T6:26:44Z</time></trkpt>
<trkpt lat="43.4632282" lon="6.8771932"><ele></ele><time>2022-5-31T6:26:47Z</time></trkpt>
<trkpt lat="43.4632044" lon="6.8772263"><ele></ele><time>2022-5-31T6:26:50Z</time></trkpt>
<trkpt lat="43.4631775" lon="6.8772614"><ele></ele><time>2022-5-31T6:26:53Z</time></trkpt>
<trkpt lat="43.4631462" lon="6.8772963"><ele></ele><time>2022-5-31T6:26:56Z</time></trkpt>
<trkpt lat="43.4631100" lon="6.8773385"><ele></ele><time>2022-5-31T6:26:59Z</time></trkpt>
<trkpt lat="43.4630725" lon="6.8773905"><ele></ele><time>2022-5-31T6:27:2Z</time></trkpt>
<trkpt lat="43.4630381" lon="6.8774354"><ele></ele><time>2022-5-31T6:27:5Z</time></trkpt>
<trkpt lat="43.4630032" lon="6.8774775"><ele></ele><time>2022-5-31T6:27:8Z</time></trkpt>
<trkpt lat="43.4629617" lon="6.8775249"><ele></ele><time>2022-5-31T6:27:11Z</time></trkpt>
<trkpt lat="43.4629170" lon="6.8775723"><ele></ele><time>2022-5-31T6:27:14Z</time></trkpt>
<trkpt lat="43.4628727" lon="6.8776191"><ele></ele><time>2022-5-31T6:27:17Z</time></trkpt>
<trkpt lat="43.4628323" lon="6.8776622"><ele></ele><time>2022-5-31T6:27:20Z</time></trkpt>
<trkpt lat="43.4627877" lon="6.8777065"><ele></ele><time>2022-5-31T6:27:23Z</time></trkpt>
<trkpt lat="43.4627364" lon="6.8777532"><ele></ele><time>2022-5-31T6:27:26Z</time></trkpt>
<trkpt lat="43.4626807" lon="6.8777966"><ele></ele><time>2022-5-31T6:27:29Z</time></trkpt>
<trkpt lat="43.4626223" lon="6.8778384"><ele></ele><time>2022-5-31T6:27:32Z</time></trkpt>
<trkpt lat="43.4625711" lon="6.8778627"><ele></ele><time>2022-5-31T6:27:35Z</time></trkpt>
<trkpt lat="43.4625158" lon="6.8778930"><ele></ele><time>2022-5-31T6:27:38Z</time></trkpt>
<trkpt lat="43.4624593" lon="6.8779245"><ele></ele><time>2022-5-31T6:27:41Z</time></trkpt>
<trkpt lat="43.4623994" lon="6.8779583"><ele></ele><time>2022-5-31T6:27:44Z</time></trkpt>
<trkpt lat="43.4623431" lon="6.8779891"><ele></ele><time>2022-5-31T6:27:47Z</time></trkpt>
<trkpt lat="43.4622871" lon="6.8780057"><ele></ele><time>2022-5-31T6:27:50Z</time></trkpt>
<trkpt lat="43.4622362" lon="6.8780161"><ele></ele><time>2022-5-31T6:27:53Z</time></trkpt>
<trkpt lat="43.4621846" lon="6.8780447"><ele></ele><time>2022-5-31T6:27:56Z</time></trkpt>
<trkpt lat="43.4621326" lon="6.8780847"><ele></ele><time>2022-5-31T6:27:59Z</time></trkpt>
<trkpt lat="43.4620789" lon="6.8781119"><ele></ele><time>2022-5-31T6:28:2Z</time></trkpt>
<trkpt lat="43.4620234" lon="6.8781398"><ele></ele><time>2022-5-31T6:28:5Z</time></trkpt>
<trkpt lat="43.4619623" lon="6.8781674"><ele></ele><time>2022-5-31T6:28:8Z</time></trkpt>
<trkpt lat="43.4619073" lon="6.8781908"><ele></ele><time>2022-5-31T6:28:11Z</time></trkpt>
<trkpt lat="43.4618598" lon="6.8782089"><ele></ele><time>2022-5-31T6:28:14Z</time></trkpt>
<trkpt lat="43.4618143" lon="6.8782268"><ele></ele><time>2022-5-31T6:28:17Z</time></trkpt>
<trkpt lat="43.4617650" lon="6.8782452"><ele></ele><time>2022-5-31T6:28:20Z</time></trkpt>
<trkpt lat="43.4617148" lon="6.8782610"><ele></ele><time>2022-5-31T6:28:23Z</time></trkpt>
<trkpt lat="43.4616628" lon="6.8782718"><ele></ele><time>2022-5-31T6:28:26Z</time></trkpt>
<trkpt lat="43.4616201" lon="6.8782807"><ele></ele><time>2022-5-31T6:28:29Z</time></trkpt>
<trkpt lat="43.4615882" lon="6.8782857"><ele></ele><time>2022-5-31T6:28:32Z</time></trkpt>
<trkpt lat="43.4615564" lon="6.8782933"><ele></ele><time>2022-5-31T6:28:35Z</time></trkpt>
<trkpt lat="43.4615171" lon="6.8783056"><ele></ele><time>2022-5-31T6:28:38Z</time></trkpt>
<trkpt lat="43.4614716" lon="6.8783258"><ele></ele><time>2022-5-31T6:28:41Z</time></trkpt>
<trkpt lat="43.4614269" lon="6.8783454"><ele></ele><time>2022-5-31T6:28:44Z</time></trkpt>
<trkpt lat="43.4613788" lon="6.8783793"><ele></ele><time>2022-5-31T6:28:47Z</time></trkpt>
<trkpt lat="43.4613363" lon="6.8784409"><ele></ele><time>2022-5-31T6:28:50Z</time></trkpt>
<trkpt lat="43.4613005" lon="6.8785166"><ele></ele><time>2022-5-31T6:28:53Z</time></trkpt>
<trkpt lat="43.4612671" lon="6.8786003"><ele></ele><time>2022-5-31T6:28:56Z</time></trkpt>
<trkpt lat="43.4612412" lon="6.8786914"><ele></ele><time>2022-5-31T6:28:59Z</time></trkpt>
<trkpt lat="43.4612028" lon="6.8787708"><ele></ele><time>2022-5-31T6:29:2Z</time></trkpt>
<trkpt lat="43.4611488" lon="6.8788338"><ele></ele><time>2022-5-31T6:29:5Z</time></trkpt>
<trkpt lat="43.4610821" lon="6.8788819"><ele></ele><time>2022-5-31T6:29:8Z</time></trkpt>
<trkpt lat="43.4610187" lon="6.8789306"><ele></ele><time>2022-5-31T6:29:11Z</time></trkpt>
<trkpt lat="43.4609656" lon="6.8789652"><ele></ele><time>2022-5-31T6:29:14Z</time></trkpt>
<trkpt lat="43.4609207" lon="6.8789916"><ele></ele><time>2022-5-31T6:29:17Z</time></trkpt>
<trkpt lat="43.4608751" lon="6.8790114"><ele></ele><time>2022-5-31T6:29:20Z</time></trkpt>
<trkpt lat="43.4608320" lon="6.8790263"><ele></ele><time>2022-5-31T6:29:23Z</time></trkpt>
<trkpt lat="43.4607964" lon="6.8790316"><ele></ele><time>2022-5-31T6:29:26Z</time></trkpt>
<trkpt lat="43.4607578" lon="6.8790412"><ele></ele><time>2022-5-31T6:29:29Z</time></trkpt>
<trkpt lat="43.4607238" lon="6.8790464"><ele></ele><time>2022-5-31T6:29:32Z</time></trkpt>
<trkpt lat="43.4606866" lon="6.8790437"><ele></ele><time>2022-5-31T6:29:35Z</time></trkpt>
<trkpt lat="43.4606466" lon="6.8790311"><ele></ele><time>2022-5-31T6:29:38Z</time></trkpt>
<trkpt lat="43.4606073" lon="6.8790063"><ele></ele><time>2022-5-31T6:29:41Z</time></trkpt>
<trkpt lat="43.4605684" lon="6.8789703"><ele></ele><time>2022-5-31T6:29:44Z</time></trkpt>
<trkpt lat="43.4605345" lon="6.8789280"><ele></ele><time>2022-5-31T6:29:47Z</time></trkpt>
<trkpt lat="43.4605093" lon="6.8788813"><ele></ele><time>2022-5-31T6:29:50Z</time></trkpt>
<trkpt lat="43.4604881" lon="6.8788277"><ele></ele><time>2022-5-31T6:29:53Z</time></trkpt>
<trkpt lat="43.4604729" lon="6.8787682"><ele></ele><time>2022-5-31T6:29:56Z</time></trkpt>
<trkpt lat="43.4604652" lon="6.8787075"><ele></ele><time>2022-5-31T6:29:59Z</time></trkpt>
<trkpt lat="43.4604541" lon="6.8786541"><ele></ele><time>2022-5-31T6:30:2Z</time></trkpt>
<trkpt lat="43.4604425" lon="6.8786006"><ele></ele><time>2022-5-31T6:30:5Z</time></trkpt>
<trkpt lat="43.4604311" lon="6.8785494"><ele></ele><time>2022-5-31T6:30:8Z</time></trkpt>
<trkpt lat="43.4604233" lon="6.8784961"><ele></ele><time>2022-5-31T6:30:11Z</time></trkpt>
<trkpt lat="43.4604149" lon="6.8784419"><ele></ele><time>2022-5-31T6:30:14Z</time></trkpt>
<trkpt lat="43.4604024" lon="6.8783883"><ele></ele><time>2022-5-31T6:30:17Z</time></trkpt>
<trkpt lat="43.4603885" lon="6.8783372"><ele></ele><time>2022-5-31T6:30:20Z</time></trkpt>
<trkpt lat="43.4603727" lon="6.8782922"><ele></ele><time>2022-5-31T6:30:23Z</time></trkpt>
<trkpt lat="43.4603502" lon="6.8782503"><ele></ele><time>2022-5-31T6:30:26Z</time></trkpt>
<trkpt lat="43.4603280" lon="6.8782044"><ele></ele><time>2022-5-31T6:30:29Z</time></trkpt>
<trkpt lat="43.4603031" lon="6.8781607"><ele></ele><time>2022-5-31T6:30:32Z</time></trkpt>
<trkpt lat="43.4602807" lon="6.8781218"><ele></ele><time>2022-5-31T6:30:35Z</time></trkpt>
<trkpt lat="43.4602582" lon="6.8780851"><ele></ele><time>2022-5-31T6:30:38Z</time></trkpt>
<trkpt lat="43.4602355" lon="6.8780436"><ele></ele><time>2022-5-31T6:30:41Z</time></trkpt>
<trkpt lat="43.4602069" lon="6.8780028"><ele></ele><time>2022-5-31T6:30:44Z</time></trkpt>
<trkpt lat="43.4601788" lon="6.8779584"><ele></ele><time>2022-5-31T6:30:47Z</time></trkpt>
<trkpt lat="43.4601581" lon="6.8779103"><ele></ele><time>2022-5-31T6:30:50Z</time></trkpt>
<trkpt lat="43.4601391" lon="6.8778640"><ele></ele><time>2022-5-31T6:30:53Z</time></trkpt>
<trkpt lat="43.4601221" lon="6.8778240"><ele></ele><time>2022-5-31T6:30:56Z</time></trkpt>
<trkpt lat="43.4601067" lon="6.8777756"><ele></ele><time>2022-5-31T6:30:59Z</time></trkpt>
<trkpt lat="43.4600831" lon="6.8777249"><ele></ele><time>2022-5-31T6:31:2Z</time></trkpt>
<trkpt lat="43.4600520" lon="6.8776846"><ele></ele><time>2022-5-31T6:31:5Z</time></trkpt>
<trkpt lat="43.4600274" lon="6.8776390"><ele></ele><time>2022-5-31T6:31:8Z</time></trkpt>
<trkpt lat="43.4600057" lon="6.8775936"><ele></ele><time>2022-5-31T6:31:11Z</time></trkpt>
<trkpt lat="43.4599820" lon="6.8775503"><ele></ele><time>2022-5-31T6:31:14Z</time></trkpt>
<trkpt lat="43.4599600" lon="6.8775040"><ele></ele><time>2022-5-31T6:31:17Z</time></trkpt>
<trkpt lat="43.4599405" lon="6.8774611"><ele></ele><time>2022-5-31T6:31:20Z</time></trkpt>
<trkpt lat="43.4599172" lon="6.8774177"><ele></ele><time>2022-5-31T6:31:23Z</time></trkpt>
<trkpt lat="43.4598923" lon="6.8773744"><ele></ele><time>2022-5-31T6:31:26Z</time></trkpt>
<trkpt lat="43.4598682" lon="6.8773325"><ele></ele><time>2022-5-31T6:31:29Z</time></trkpt>
<trkpt lat="43.4598443" lon="6.8772839"><ele></ele><time>2022-5-31T6:31:32Z</time></trkpt>
<trkpt lat="43.4598217" lon="6.8772333"><ele></ele><time>2022-5-31T6:31:35Z</time></trkpt>
<trkpt lat="43.4597987" lon="6.8771851"><ele></ele><time>2022-5-31T6:31:38Z</time></trkpt>
<trkpt lat="43.4597765" lon="6.8771399"><ele></ele><time>2022-5-31T6:31:41Z</time></trkpt>
<trkpt lat="43.4597532" lon="6.8770944"><ele></ele><time>2022-5-31T6:31:44Z</time></trkpt>
<trkpt lat="43.4597254" lon="6.8770507"><ele></ele><time>2022-5-31T6:31:47Z</time></trkpt>
<trkpt lat="43.4597012" lon="6.8770153"><ele></ele><time>2022-5-31T6:31:50Z</time></trkpt>
<trkpt lat="43.4596691" lon="6.8769787"><ele></ele><time>2022-5-31T6:31:53Z</time></trkpt>
<trkpt lat="43.4596370" lon="6.8769434"><ele></ele><time>2022-5-31T6:31:56Z</time></trkpt>
<trkpt lat="43.4596052" lon="6.8769084"><ele></ele><time>2022-5-31T6:31:59Z</time></trkpt>
<trkpt lat="43.4595769" lon="6.8768757"><ele></ele><time>2022-5-31T6:32:2Z</time></trkpt>
<trkpt lat="43.4595457" lon="6.8768380"><ele></ele><time>2022-5-31T6:32:5Z</time></trkpt>
<trkpt lat="43.4595149" lon="6.8767999"><ele></ele><time>2022-5-31T6:32:8Z</time></trkpt>
<trkpt lat="43.4594841" lon="6.8767643"><ele></ele><time>2022-5-31T6:32:11Z</time></trkpt>
<trkpt lat="43.4594579" lon="6.8767307"><ele></ele><time>2022-5-31T6:32:14Z</time></trkpt>
<trkpt lat="43.4594255" lon="6.8766809"><ele></ele><time>2022-5-31T6:32:17Z</time></trkpt>
<trkpt lat="43.4593955" lon="6.8766306"><ele></ele><time>2022-5-31T6:32:20Z</time></trkpt>
<trkpt lat="43.4593771" lon="6.8765895"><ele></ele><time>2022-5-31T6:32:23Z</time></trkpt>
<trkpt lat="43.4593585" lon="6.8765346"><ele></ele><time>2022-5-31T6:32:26Z</time></trkpt>
<trkpt lat="43.4593350" lon="6.8764834"><ele></ele><time>2022-5-31T6:32:29Z</time></trkpt>
<trkpt lat="43.4593094" lon="6.8764355"><ele></ele><time>2022-5-31T6:32:32Z</time></trkpt>
<trkpt lat="43.4592911" lon="6.8763898"><ele></ele><time>2022-5-31T6:32:35Z</time></trkpt>
<trkpt lat="43.4592726" lon="6.8763415"><ele></ele><time>2022-5-31T6:32:38Z</time></trkpt>
<trkpt lat="43.4592519" lon="6.8762935"><ele></ele><time>2022-5-31T6:32:41Z</time></trkpt>
<trkpt lat="43.4592342" lon="6.8762479"><ele></ele><time>2022-5-31T6:32:44Z</time></trkpt>
<trkpt lat="43.4592149" lon="6.8762051"><ele></ele><time>2022-5-31T6:32:47Z</time></trkpt>
<trkpt lat="43.4591989" lon="6.8761672"><ele></ele><time>2022-5-31T6:32:50Z</time></trkpt>
<trkpt lat="43.4591788" lon="6.8761230"><ele></ele><time>2022-5-31T6:32:53Z</time></trkpt>
<trkpt lat="43.4591555" lon="6.8760826"><ele></ele><time>2022-5-31T6:32:56Z</time></trkpt>
<trkpt lat="43.4591307" lon="6.8760425"><ele></ele><time>2022-5-31T6:32:59Z</time></trkpt>
<trkpt lat="43.4591103" lon="6.8760133"><ele></ele><time>2022-5-31T6:33:2Z</time></trkpt>
<trkpt lat="43.4590882" lon="6.8759873"><ele></ele><time>2022-5-31T6:33:5Z</time></trkpt>
<trkpt lat="43.4590627" lon="6.8759593"><ele></ele><time>2022-5-31T6:33:8Z</time></trkpt>
<trkpt lat="43.4590363" lon="6.8759370"><ele></ele><time>2022-5-31T6:33:11Z</time></trkpt>
<trkpt lat="43.4590036" lon="6.8759241"><ele></ele><time>2022-5-31T6:33:14Z</time></trkpt>
<trkpt lat="43.4589653" lon="6.8759098"><ele></ele><time>2022-5-31T6:33:17Z</time></trkpt>
<trkpt lat="43.4589291" lon="6.8758984"><ele></ele><time>2022-5-31T6:33:20Z</time></trkpt>
<trkpt lat="43.4588946" lon="6.8758873"><ele></ele><time>2022-5-31T6:33:23Z</time></trkpt>
<trkpt lat="43.4588567" lon="6.8758789"><ele></ele><time>2022-5-31T6:33:26Z</time></trkpt>
<trkpt lat="43.4588180" lon="6.8758778"><ele></ele><time>2022-5-31T6:33:29Z</time></trkpt>
<trkpt lat="43.4587796" lon="6.8758668"><ele></ele><time>2022-5-31T6:33:32Z</time></trkpt>
<trkpt lat="43.4587389" lon="6.8758511"><ele></ele><time>2022-5-31T6:33:35Z</time></trkpt>
<trkpt lat="43.4586997" lon="6.8758438"><ele></ele><time>2022-5-31T6:33:38Z</time></trkpt>
<trkpt lat="43.4586609" lon="6.8758418"><ele></ele><time>2022-5-31T6:33:41Z</time></trkpt>
<trkpt lat="43.4586141" lon="6.8758313"><ele></ele><time>2022-5-31T6:33:44Z</time></trkpt>
<trkpt lat="43.4585761" lon="6.8758130"><ele></ele><time>2022-5-31T6:33:47Z</time></trkpt>
<trkpt lat="43.4585413" lon="6.8758043"><ele></ele><time>2022-5-31T6:33:50Z</time></trkpt>
<trkpt lat="43.4585084" lon="6.8758015"><ele></ele><time>2022-5-31T6:33:53Z</time></trkpt>
<trkpt lat="43.4584739" lon="6.8757925"><ele></ele><time>2022-5-31T6:33:56Z</time></trkpt>
<trkpt lat="43.4584378" lon="6.8757767"><ele></ele><time>2022-5-31T6:33:59Z</time></trkpt>
<trkpt lat="43.4584028" lon="6.8757693"><ele></ele><time>2022-5-31T6:34:2Z</time></trkpt>
<trkpt lat="43.4583637" lon="6.8757632"><ele></ele><time>2022-5-31T6:34:5Z</time></trkpt>
<trkpt lat="43.4583372" lon="6.8757527"><ele></ele><time>2022-5-31T6:34:8Z</time></trkpt>
<trkpt lat="43.4583066" lon="6.8757393"><ele></ele><time>2022-5-31T6:34:11Z</time></trkpt>
<trkpt lat="43.4582728" lon="6.8757262"><ele></ele><time>2022-5-31T6:34:14Z</time></trkpt>
<trkpt lat="43.4582435" lon="6.8757050"><ele></ele><time>2022-5-31T6:34:17Z</time></trkpt>
<trkpt lat="43.4582122" lon="6.8756761"><ele></ele><time>2022-5-31T6:34:20Z</time></trkpt>
<trkpt lat="43.4581873" lon="6.8756452"><ele></ele><time>2022-5-31T6:34:23Z</time></trkpt>
<trkpt lat="43.4581690" lon="6.8756112"><ele></ele><time>2022-5-31T6:34:26Z</time></trkpt>
<trkpt lat="43.4581448" lon="6.8755699"><ele></ele><time>2022-5-31T6:34:29Z</time></trkpt>
<trkpt lat="43.4581229" lon="6.8755349"><ele></ele><time>2022-5-31T6:34:32Z</time></trkpt>
<trkpt lat="43.4580996" lon="6.8754971"><ele></ele><time>2022-5-31T6:34:35Z</time></trkpt>
<trkpt lat="43.4580768" lon="6.8754597"><ele></ele><time>2022-5-31T6:34:38Z</time></trkpt>
<trkpt lat="43.4580581" lon="6.8754246"><ele></ele><time>2022-5-31T6:34:41Z</time></trkpt>
<trkpt lat="43.4580365" lon="6.8753834"><ele></ele><time>2022-5-31T6:34:44Z</time></trkpt>
<trkpt lat="43.4580132" lon="6.8753411"><ele></ele><time>2022-5-31T6:34:47Z</time></trkpt>
<trkpt lat="43.4579871" lon="6.8752958"><ele></ele><time>2022-5-31T6:34:50Z</time></trkpt>
<trkpt lat="43.4579628" lon="6.8752517"><ele></ele><time>2022-5-31T6:34:53Z</time></trkpt>
<trkpt lat="43.4579425" lon="6.8752084"><ele></ele><time>2022-5-31T6:34:56Z</time></trkpt>
<trkpt lat="43.4579187" lon="6.8751577"><ele></ele><time>2022-5-31T6:34:59Z</time></trkpt>
<trkpt lat="43.4578968" lon="6.8751105"><ele></ele><time>2022-5-31T6:35:2Z</time></trkpt>
<trkpt lat="43.4578745" lon="6.8750586"><ele></ele><time>2022-5-31T6:35:5Z</time></trkpt>
<trkpt lat="43.4578549" lon="6.8750089"><ele></ele><time>2022-5-31T6:35:8Z</time></trkpt>
<trkpt lat="43.4578350" lon="6.8749558"><ele></ele><time>2022-5-31T6:35:11Z</time></trkpt>
<trkpt lat="43.4578221" lon="6.8749010"><ele></ele><time>2022-5-31T6:35:14Z</time></trkpt>
<trkpt lat="43.4578086" lon="6.8748505"><ele></ele><time>2022-5-31T6:35:17Z</time></trkpt>
<trkpt lat="43.4577940" lon="6.8748014"><ele></ele><time>2022-5-31T6:35:20Z</time></trkpt>
<trkpt lat="43.4577834" lon="6.8747480"><ele></ele><time>2022-5-31T6:35:23Z</time></trkpt>
<trkpt lat="43.4577727" lon="6.8746944"><ele></ele><time>2022-5-31T6:35:26Z</time></trkpt>
<trkpt lat="43.4577612" lon="6.8746443"><ele></ele><time>2022-5-31T6:35:29Z</time></trkpt>
<trkpt lat="43.4577553" lon="6.8745831"><ele></ele><time>2022-5-31T6:35:32Z</time></trkpt>
<trkpt lat="43.4577335" lon="6.8745271"><ele></ele><time>2022-5-31T6:35:35Z</time></trkpt>
<trkpt lat="43.4577099" lon="6.8744732"><ele></ele><time>2022-5-31T6:35:38Z</time></trkpt>
<trkpt lat="43.4576938" lon="6.8744144"><ele></ele><time>2022-5-31T6:35:41Z</time></trkpt>
<trkpt lat="43.4576788" lon="6.8743580"><ele></ele><time>2022-5-31T6:35:44Z</time></trkpt>
<trkpt lat="43.4576577" lon="6.8743028"><ele></ele><time>2022-5-31T6:35:47Z</time></trkpt>
<trkpt lat="43.4576364" lon="6.8742482"><ele></ele><time>2022-5-31T6:35:50Z</time></trkpt>
<trkpt lat="43.4576215" lon="6.8741905"><ele></ele><time>2022-5-31T6:35:53Z</time></trkpt>
<trkpt lat="43.4576089" lon="6.8741301"><ele></ele><time>2022-5-31T6:35:56Z</time></trkpt>
<trkpt lat="43.4575858" lon="6.8740783"><ele></ele><time>2022-5-31T6:35:59Z</time></trkpt>
<trkpt lat="43.4575618" lon="6.8740188"><ele></ele><time>2022-5-31T6:36:2Z</time></trkpt>
<trkpt lat="43.4575434" lon="6.8739528"><ele></ele><time>2022-5-31T6:36:5Z</time></trkpt>
<trkpt lat="43.4575305" lon="6.8738880"><ele></ele><time>2022-5-31T6:36:8Z</time></trkpt>
<trkpt lat="43.4575071" lon="6.8738233"><ele></ele><time>2022-5-31T6:36:11Z</time></trkpt>
<trkpt lat="43.4574812" lon="6.8737621"><ele></ele><time>2022-5-31T6:36:14Z</time></trkpt>
<trkpt lat="43.4574637" lon="6.8737005"><ele></ele><time>2022-5-31T6:36:17Z</time></trkpt>
<trkpt lat="43.4574409" lon="6.8736448"><ele></ele><time>2022-5-31T6:36:20Z</time></trkpt>
<trkpt lat="43.4573968" lon="6.8735975"><ele></ele><time>2022-5-31T6:36:23Z</time></trkpt>
<trkpt lat="43.4573448" lon="6.8735709"><ele></ele><time>2022-5-31T6:36:26Z</time></trkpt>
<trkpt lat="43.4572937" lon="6.8735538"><ele></ele><time>2022-5-31T6:36:29Z</time></trkpt>
<trkpt lat="43.4572432" lon="6.8735529"><ele></ele><time>2022-5-31T6:36:32Z</time></trkpt>
<trkpt lat="43.4571967" lon="6.8735371"><ele></ele><time>2022-5-31T6:36:35Z</time></trkpt>
<trkpt lat="43.4571497" lon="6.8735174"><ele></ele><time>2022-5-31T6:36:38Z</time></trkpt>
<trkpt lat="43.4571021" lon="6.8735014"><ele></ele><time>2022-5-31T6:36:41Z</time></trkpt>
<trkpt lat="43.4570543" lon="6.8734833"><ele></ele><time>2022-5-31T6:36:44Z</time></trkpt>
<trkpt lat="43.4570090" lon="6.8734598"><ele></ele><time>2022-5-31T6:36:47Z</time></trkpt>
<trkpt lat="43.4569636" lon="6.8734213"><ele></ele><time>2022-5-31T6:36:50Z</time></trkpt>
<trkpt lat="43.4569303" lon="6.8733741"><ele></ele><time>2022-5-31T6:36:53Z</time></trkpt>
<trkpt lat="43.4569103" lon="6.8733160"><ele></ele><time>2022-5-31T6:36:56Z</time></trkpt>
<trkpt lat="43.4568948" lon="6.8732530"><ele></ele><time>2022-5-31T6:36:59Z</time></trkpt>
<trkpt lat="43.4568798" lon="6.8731888"><ele></ele><time>2022-5-31T6:37:2Z</time></trkpt>
<trkpt lat="43.4568685" lon="6.8731296"><ele></ele><time>2022-5-31T6:37:5Z</time></trkpt>
<trkpt lat="43.4568586" lon="6.8730613"><ele></ele><time>2022-5-31T6:37:8Z</time></trkpt>
<trkpt lat="43.4568508" lon="6.8729959"><ele></ele><time>2022-5-31T6:37:11Z</time></trkpt>
<trkpt lat="43.4568489" lon="6.8729290"><ele></ele><time>2022-5-31T6:37:14Z</time></trkpt>
<trkpt lat="43.4568456" lon="6.8728632"><ele></ele><time>2022-5-31T6:37:17Z</time></trkpt>
<trkpt lat="43.4568331" lon="6.8727878"><ele></ele><time>2022-5-31T6:37:20Z</time></trkpt>
<trkpt lat="43.4568258" lon="6.8727176"><ele></ele><time>2022-5-31T6:37:23Z</time></trkpt>
<trkpt lat="43.4568176" lon="6.8726536"><ele></ele><time>2022-5-31T6:37:26Z</time></trkpt>
<trkpt lat="43.4568109" lon="6.8725861"><ele></ele><time>2022-5-31T6:37:29Z</time></trkpt>
<trkpt lat="43.4568024" lon="6.8725189"><ele></ele><time>2022-5-31T6:37:32Z</time></trkpt>
<trkpt lat="43.4567875" lon="6.8724467"><ele></ele><time>2022-5-31T6:37:35Z</time></trkpt>
<trkpt lat="43.4567780" lon="6.8723793"><ele></ele><time>2022-5-31T6:37:38Z</time></trkpt>
<trkpt lat="43.4567730" lon="6.8723089"><ele></ele><time>2022-5-31T6:37:41Z</time></trkpt>
<trkpt lat="43.4567654" lon="6.8722442"><ele></ele><time>2022-5-31T6:37:44Z</time></trkpt>
<trkpt lat="43.4567540" lon="6.8721850"><ele></ele><time>2022-5-31T6:37:47Z</time></trkpt>
<trkpt lat="43.4567467" lon="6.8721197"><ele></ele><time>2022-5-31T6:37:50Z</time></trkpt>
<trkpt lat="43.4567441" lon="6.8720597"><ele></ele><time>2022-5-31T6:37:53Z</time></trkpt>
<trkpt lat="43.4567322" lon="6.8720013"><ele></ele><time>2022-5-31T6:37:56Z</time></trkpt>
<trkpt lat="43.4567211" lon="6.8719331"><ele></ele><time>2022-5-31T6:37:59Z</time></trkpt>
<trkpt lat="43.4567128" lon="6.8718605"><ele></ele><time>2022-5-31T6:38:2Z</time></trkpt>
<trkpt lat="43.4567051" lon="6.8718003"><ele></ele><time>2022-5-31T6:38:5Z</time></trkpt>
<trkpt lat="43.4567044" lon="6.8717376"><ele></ele><time>2022-5-31T6:38:8Z</time></trkpt>
<trkpt lat="43.4567017" lon="6.8716770"><ele></ele><time>2022-5-31T6:38:11Z</time></trkpt>
<trkpt lat="43.4566994" lon="6.8716134"><ele></ele><time>2022-5-31T6:38:14Z</time></trkpt>
<trkpt lat="43.4566931" lon="6.8715522"><ele></ele><time>2022-5-31T6:38:17Z</time></trkpt>
<trkpt lat="43.4566833" lon="6.8714970"><ele></ele><time>2022-5-31T6:38:20Z</time></trkpt>
<trkpt lat="43.4566740" lon="6.8714368"><ele></ele><time>2022-5-31T6:38:23Z</time></trkpt>
<trkpt lat="43.4566685" lon="6.8713741"><ele></ele><time>2022-5-31T6:38:26Z</time></trkpt>
<trkpt lat="43.4566634" lon="6.8713173"><ele></ele><time>2022-5-31T6:38:29Z</time></trkpt>
<trkpt lat="43.4566592" lon="6.8712523"><ele></ele><time>2022-5-31T6:38:32Z</time></trkpt>
<trkpt lat="43.4566561" lon="6.8711793"><ele></ele><time>2022-5-31T6:38:35Z</time></trkpt>
<trkpt lat="43.4566540" lon="6.8711133"><ele></ele><time>2022-5-31T6:38:38Z</time></trkpt>
<trkpt lat="43.4566529" lon="6.8710439"><ele></ele><time>2022-5-31T6:38:41Z</time></trkpt>
<trkpt lat="43.4566421" lon="6.8709716"><ele></ele><time>2022-5-31T6:38:44Z</time></trkpt>
<trkpt lat="43.4566346" lon="6.8709169"><ele></ele><time>2022-5-31T6:38:47Z</time></trkpt>
<trkpt lat="43.4566320" lon="6.8708661"><ele></ele><time>2022-5-31T6:38:50Z</time></trkpt>
<trkpt lat="43.4566353" lon="6.8708102"><ele></ele><time>2022-5-31T6:38:53Z</time></trkpt>
<trkpt lat="43.4566350" lon="6.8707706"><ele></ele><time>2022-5-31T6:38:56Z</time></trkpt>
<trkpt lat="43.4566331" lon="6.8707319"><ele></ele><time>2022-5-31T6:38:59Z</time></trkpt>
<trkpt lat="43.4566238" lon="6.8706917"><ele></ele><time>2022-5-31T6:39:2Z</time></trkpt>
<trkpt lat="43.4566090" lon="6.8706457"><ele></ele><time>2022-5-31T6:39:5Z</time></trkpt>
<trkpt lat="43.4565990" lon="6.8706007"><ele></ele><time>2022-5-31T6:39:8Z</time></trkpt>
<trkpt lat="43.4565907" lon="6.8705654"><ele></ele><time>2022-5-31T6:39:11Z</time></trkpt>
<trkpt lat="43.4565787" lon="6.8705214"><ele></ele><time>2022-5-31T6:39:14Z</time></trkpt>
<trkpt lat="43.4565678" lon="6.8704720"><ele></ele><time>2022-5-31T6:39:17Z</time></trkpt>
<trkpt lat="43.4565679" lon="6.8704296"><ele></ele><time>2022-5-31T6:39:20Z</time></trkpt>
<trkpt lat="43.4565731" lon="6.8703835"><ele></ele><time>2022-5-31T6:39:23Z</time></trkpt>
<trkpt lat="43.4565719" lon="6.8703369"><ele></ele><time>2022-5-31T6:39:26Z</time></trkpt>
<trkpt lat="43.4565728" lon="6.8702884"><ele></ele><time>2022-5-31T6:39:29Z</time></trkpt>
<trkpt lat="43.4565778" lon="6.8702477"><ele></ele><time>2022-5-31T6:39:32Z</time></trkpt>
<trkpt lat="43.4565854" lon="6.8702039"><ele></ele><time>2022-5-31T6:39:35Z</time></trkpt>
<trkpt lat="43.4565906" lon="6.8701539"><ele></ele><time>2022-5-31T6:39:38Z</time></trkpt>
<trkpt lat="43.4565962" lon="6.8700998"><ele></ele><time>2022-5-31T6:39:41Z</time></trkpt>
<trkpt lat="43.4565986" lon="6.8700498"><ele></ele><time>2022-5-31T6:39:44Z</time></trkpt>
<trkpt lat="43.4566016" lon="6.8700032"><ele></ele><time>2022-5-31T6:39:47Z</time></trkpt>
<trkpt lat="43.4566069" lon="6.8699562"><ele></ele><time>2022-5-31T6:39:50Z</time></trkpt>
<trkpt lat="43.4566082" lon="6.8699141"><ele></ele><time>2022-5-31T6:39:53Z</time></trkpt>
<trkpt lat="43.4566056" lon="6.8698709"><ele></ele><time>2022-5-31T6:39:56Z</time></trkpt>
<trkpt lat="43.4566091" lon="6.8698210"><ele></ele><time>2022-5-31T6:39:59Z</time></trkpt>
<trkpt lat="43.4566122" lon="6.8697751"><ele></ele><time>2022-5-31T6:40:2Z</time></trkpt>
<trkpt lat="43.4566150" lon="6.8697265"><ele></ele><time>2022-5-31T6:40:5Z</time></trkpt>
<trkpt lat="43.4566175" lon="6.8696758"><ele></ele><time>2022-5-31T6:40:8Z</time></trkpt>
<trkpt lat="43.4566202" lon="6.8696252"><ele></ele><time>2022-5-31T6:40:11Z</time></trkpt>
<trkpt lat="43.4566185" lon="6.8695713"><ele></ele><time>2022-5-31T6:40:14Z</time></trkpt>
<trkpt lat="43.4566144" lon="6.8695251"><ele></ele><time>2022-5-31T6:40:17Z</time></trkpt>
<trkpt lat="43.4566105" lon="6.8694845"><ele></ele><time>2022-5-31T6:40:20Z</time></trkpt>
<trkpt lat="43.4566077" lon="6.8694546"><ele></ele><time>2022-5-31T6:40:23Z</time></trkpt>
<trkpt lat="43.4566051" lon="6.8694284"><ele></ele><time>2022-5-31T6:40:26Z</time></trkpt>
<trkpt lat="43.4566074" lon="6.8693996"><ele></ele><time>2022-5-31T6:40:29Z</time></trkpt>
<trkpt lat="43.4566149" lon="6.8693793"><ele></ele><time>2022-5-31T6:40:32Z</time></trkpt>
<trkpt lat="43.4566272" lon="6.8693542"><ele></ele><time>2022-5-31T6:40:35Z</time></trkpt>
<trkpt lat="43.4566297" lon="6.8693236"><ele></ele><time>2022-5-31T6:40:38Z</time></trkpt>
<trkpt lat="43.4566127" lon="6.8693010"><ele></ele><time>2022-5-31T6:40:41Z</time></trkpt>
<trkpt lat="43.4565941" lon="6.8692701"><ele></ele><time>2022-5-31T6:40:44Z</time></trkpt>
<trkpt lat="43.4565875" lon="6.8692270"><ele></ele><time>2022-5-31T6:40:47Z</time></trkpt>
<trkpt lat="43.4565855" lon="6.8691879"><ele></ele><time>2022-5-31T6:40:50Z</time></trkpt>
<trkpt lat="43.4565865" lon="6.8691573"><ele></ele><time>2022-5-31T6:40:53Z</time></trkpt>
<trkpt lat="43.4565880" lon="6.8691270"><ele></ele><time>2022-5-31T6:40:56Z</time></trkpt>
<trkpt lat="43.4565872" lon="6.8691047"><ele></ele><time>2022-5-31T6:40:59Z</time></trkpt>
<trkpt lat="43.4565855" lon="6.8690839"><ele></ele><time>2022-5-31T6:41:2Z</time></trkpt>
<trkpt lat="43.4565874" lon="6.8690663"><ele></ele><time>2022-5-31T6:41:5Z</time></trkpt>
<trkpt lat="43.4565795" lon="6.8690430"><ele></ele><time>2022-5-31T6:41:8Z</time></trkpt>
<trkpt lat="43.4565744" lon="6.8690150"><ele></ele><time>2022-5-31T6:41:11Z</time></trkpt>
<trkpt lat="43.4565731" lon="6.8689886"><ele></ele><time>2022-5-31T6:41:14Z</time></trkpt>
<trkpt lat="43.4565708" lon="6.8689635"><ele></ele><time>2022-5-31T6:41:17Z</time></trkpt>
<trkpt lat="43.4565710" lon="6.8689343"><ele></ele><time>2022-5-31T6:41:20Z</time></trkpt>
<trkpt lat="43.4565763" lon="6.8689084"><ele></ele><time>2022-5-31T6:41:23Z</time></trkpt>
<trkpt lat="43.4565821" lon="6.8688941"><ele></ele><time>2022-5-31T6:41:26Z</time></trkpt>
<trkpt lat="43.4565821" lon="6.8688733"><ele></ele><time>2022-5-31T6:41:29Z</time></trkpt>
<trkpt lat="43.4565842" lon="6.8688468"><ele></ele><time>2022-5-31T6:41:32Z</time></trkpt>
<trkpt lat="43.4566008" lon="6.8688198"><ele></ele><time>2022-5-31T6:41:35Z</time></trkpt>
<trkpt lat="43.4566205" lon="6.8688014"><ele></ele><time>2022-5-31T6:41:38Z</time></trkpt>
<trkpt lat="43.4566388" lon="6.8687778"><ele></ele><time>2022-5-31T6:41:41Z</time></trkpt>
<trkpt lat="43.4566579" lon="6.8687547"><ele></ele><time>2022-5-31T6:41:44Z</time></trkpt>
<trkpt lat="43.4566741" lon="6.8687342"><ele></ele><time>2022-5-31T6:41:47Z</time></trkpt>
<trkpt lat="43.4566896" lon="6.8687129"><ele></ele><time>2022-5-31T6:41:50Z</time></trkpt>
<trkpt lat="43.4567073" lon="6.8687011"><ele></ele><time>2022-5-31T6:41:53Z</time></trkpt>
<trkpt lat="43.4567204" lon="6.8686883"><ele></ele><time>2022-5-31T6:41:56Z</time></trkpt>
<trkpt lat="43.4567359" lon="6.8686758"><ele></ele><time>2022-5-31T6:41:59Z</time></trkpt>
<trkpt lat="43.4567539" lon="6.8686627"><ele></ele><time>2022-5-31T6:42:2Z</time></trkpt>
<trkpt lat="43.4567683" lon="6.8686450"><ele></ele><time>2022-5-31T6:42:5Z</time></trkpt>
<trkpt lat="43.4567818" lon="6.8686243"><ele></ele><time>2022-5-31T6:42:8Z</time></trkpt>
<trkpt lat="43.4567935" lon="6.8686024"><ele></ele><time>2022-5-31T6:42:11Z</time></trkpt>
<trkpt lat="43.4568070" lon="6.8685840"><ele></ele><time>2022-5-31T6:42:14Z</time></trkpt>
<trkpt lat="43.4568211" lon="6.8685662"><ele></ele><time>2022-5-31T6:42:17Z</time></trkpt>
<trkpt lat="43.4568296" lon="6.8685505"><ele></ele><time>2022-5-31T6:42:20Z</time></trkpt>
<trkpt lat="43.4568367" lon="6.8685393"><ele></ele><time>2022-5-31T6:42:23Z</time></trkpt>
<trkpt lat="43.4568445" lon="6.8685176"><ele></ele><time>2022-5-31T6:42:26Z</time></trkpt>
<trkpt lat="43.4568540" lon="6.8685089"><ele></ele><time>2022-5-31T6:42:29Z</time></trkpt>
<trkpt lat="43.4568619" lon="6.8685031"><ele></ele><time>2022-5-31T6:42:32Z</time></trkpt>
<trkpt lat="43.4568620" lon="6.8685030"><ele></ele><time>2022-5-31T6:42:35Z</time></trkpt>
<trkpt lat="43.4568609" lon="6.8685032"><ele></ele><time>2022-5-31T6:42:38Z</time></trkpt>
<trkpt lat="43.4568614" lon="6.8685038"><ele></ele><time>2022-5-31T6:42:41Z</time></trkpt>
<trkpt lat="43.4568602" lon="6.8685058"><ele></ele><time>2022-5-31T6:42:44Z</time></trkpt>
<trkpt lat="43.4568573" lon="6.8685115"><ele></ele><time>2022-5-31T6:42:47Z</time></trkpt>
<trkpt lat="43.4568565" lon="6.8685173"><ele></ele><time>2022-5-31T6:42:50Z</time></trkpt>
<trkpt lat="43.4568553" lon="6.8685203"><ele></ele><time>2022-5-31T6:42:53Z</time></trkpt>
<trkpt lat="43.4568552" lon="6.8685207"><ele></ele><time>2022-5-31T6:42:56Z</time></trkpt>
<trkpt lat="43.4568552" lon="6.8685210"><ele></ele><time>2022-5-31T6:42:59Z</time></trkpt>
<trkpt lat="43.4568552" lon="6.8685215"><ele></ele><time>2022-5-31T6:43:2Z</time></trkpt>
<trkpt lat="43.4568547" lon="6.8685217"><ele></ele><time>2022-5-31T6:43:5Z</time></trkpt>
<trkpt lat="43.4568549" lon="6.8685218"><ele></ele><time>2022-5-31T6:43:8Z</time></trkpt>
<trkpt lat="43.4568553" lon="6.8685225"><ele></ele><time>2022-5-31T6:43:11Z</time></trkpt>
<trkpt lat="43.4568553" lon="6.8685232"><ele></ele><time>2022-5-31T6:43:14Z</time></trkpt>
<trkpt lat="43.4568570" lon="6.8685285"><ele></ele><time>2022-5-31T6:43:17Z</time></trkpt>
<trkpt lat="43.4568571" lon="6.8685287"><ele></ele><time>2022-5-31T6:43:20Z</time></trkpt>
<trkpt lat="43.4568574" lon="6.8685296"><ele></ele><time>2022-5-31T6:43:23Z</time></trkpt>
<trkpt lat="43.4568578" lon="6.8685315"><ele></ele><time>2022-5-31T6:43:26Z</time></trkpt>
<trkpt lat="43.4568581" lon="6.8685325"><ele></ele><time>2022-5-31T6:43:29Z</time></trkpt>
<trkpt lat="43.4568579" lon="6.8685335"><ele></ele><time>2022-5-31T6:43:32Z</time></trkpt>
<trkpt lat="43.4568583" lon="6.8685346"><ele></ele><time>2022-5-31T6:43:35Z</time></trkpt>
<trkpt lat="43.4568583" lon="6.8685351"><ele></ele><time>2022-5-31T6:43:38Z</time></trkpt>
<trkpt lat="43.4568581" lon="6.8685361"><ele></ele><time>2022-5-31T6:43:41Z</time></trkpt>
<trkpt lat="43.4568586" lon="6.8685373"><ele></ele><time>2022-5-31T6:43:44Z</time></trkpt>
<trkpt lat="43.4568585" lon="6.8685373"><ele></ele><time>2022-5-31T6:43:47Z</time></trkpt>
<trkpt lat="43.4568581" lon="6.8685375"><ele></ele><time>2022-5-31T6:43:50Z</time></trkpt>
<trkpt lat="43.4568580" lon="6.8685375"><ele></ele><time>2022-5-31T6:43:53Z</time></trkpt>
<trkpt lat="43.4568578" lon="6.8685377"><ele></ele><time>2022-5-31T6:43:56Z</time></trkpt>
<trkpt lat="43.4568578" lon="6.8685379"><ele></ele><time>2022-5-31T6:43:59Z</time></trkpt>
<trkpt lat="43.4568579" lon="6.8685390"><ele></ele><time>2022-5-31T6:44:2Z</time></trkpt>
<trkpt lat="43.4568580" lon="6.8685392"><ele></ele><time>2022-5-31T6:44:5Z</time></trkpt>
<trkpt lat="43.4568578" lon="6.8685397"><ele></ele><time>2022-5-31T6:44:8Z</time></trkpt>
<trkpt lat="43.4568601" lon="6.8685369"><ele></ele><time>2022-5-31T6:44:11Z</time></trkpt>
<trkpt lat="43.4568608" lon="6.8685365"><ele></ele><time>2022-5-31T6:44:14Z</time></trkpt>
<trkpt lat="43.4568612" lon="6.8685366"><ele></ele><time>2022-5-31T6:44:17Z</time></trkpt>
<trkpt lat="43.4568622" lon="6.8685388"><ele></ele><time>2022-5-31T6:44:20Z</time></trkpt>
<trkpt lat="43.4568623" lon="6.8685415"><ele></ele><time>2022-5-31T6:44:23Z</time></trkpt>
<trkpt lat="43.4568617" lon="6.8685429"><ele></ele><time>2022-5-31T6:44:26Z</time></trkpt>
<trkpt lat="43.4568614" lon="6.8685434"><ele></ele><time>2022-5-31T6:44:29Z</time></trkpt>
<trkpt lat="43.4568613" lon="6.8685440"><ele></ele><time>2022-5-31T6:44:32Z</time></trkpt>
<trkpt lat="43.4568612" lon="6.8685443"><ele></ele><time>2022-5-31T6:44:35Z</time></trkpt>
<trkpt lat="43.4568612" lon="6.8685451"><ele></ele><time>2022-5-31T6:44:38Z</time></trkpt>
<trkpt lat="43.4568612" lon="6.8685455"><ele></ele><time>2022-5-31T6:44:41Z</time></trkpt>
<trkpt lat="43.4568612" lon="6.8685459"><ele></ele><time>2022-5-31T6:44:44Z</time></trkpt>
<trkpt lat="43.4568618" lon="6.8685465"><ele></ele><time>2022-5-31T6:44:47Z</time></trkpt>
<trkpt lat="43.4568660" lon="6.8685512"><ele></ele><time>2022-5-31T6:44:50Z</time></trkpt>
<trkpt lat="43.4568673" lon="6.8685523"><ele></ele><time>2022-5-31T6:44:53Z</time></trkpt>
<trkpt lat="43.4568711" lon="6.8685514"><ele></ele><time>2022-5-31T6:44:56Z</time></trkpt>
<trkpt lat="43.4568715" lon="6.8685507"><ele></ele><time>2022-5-31T6:44:59Z</time></trkpt>
<trkpt lat="43.4568718" lon="6.8685499"><ele></ele><time>2022-5-31T6:45:2Z</time></trkpt>
<trkpt lat="43.4568719" lon="6.8685495"><ele></ele><time>2022-5-31T6:45:5Z</time></trkpt>
<trkpt lat="43.4568728" lon="6.8685480"><ele></ele><time>2022-5-31T6:45:8Z</time></trkpt>
<trkpt lat="43.4568728" lon="6.8685450"><ele></ele><time>2022-5-31T6:45:11Z</time></trkpt>
<trkpt lat="43.4568732" lon="6.8685441"><ele></ele><time>2022-5-31T6:45:14Z</time></trkpt>
<trkpt lat="43.4568743" lon="6.8685452"><ele></ele><time>2022-5-31T6:45:17Z</time></trkpt>
<trkpt lat="43.4568748" lon="6.8685463"><ele></ele><time>2022-5-31T6:45:20Z</time></trkpt>
<trkpt lat="43.4568751" lon="6.8685475"><ele></ele><time>2022-5-31T6:45:23Z</time></trkpt>
<trkpt lat="43.4568752" lon="6.8685478"><ele></ele><time>2022-5-31T6:45:26Z</time></trkpt>
<trkpt lat="43.4568752" lon="6.8685482"><ele></ele><time>2022-5-31T6:45:29Z</time></trkpt>
<trkpt lat="43.4568751" lon="6.8685482"><ele></ele><time>2022-5-31T6:45:32Z</time></trkpt>
<trkpt lat="43.4568752" lon="6.8685485"><ele></ele><time>2022-5-31T6:45:35Z</time></trkpt>
<trkpt lat="43.4568754" lon="6.8685481"><ele></ele><time>2022-5-31T6:45:38Z</time></trkpt>
<trkpt lat="43.4568755" lon="6.8685484"><ele></ele><time>2022-5-31T6:45:41Z</time></trkpt>
<trkpt lat="43.4568755" lon="6.8685485"><ele></ele><time>2022-5-31T6:45:44Z</time></trkpt>
<trkpt lat="43.4568753" lon="6.8685488"><ele></ele><time>2022-5-31T6:45:47Z</time></trkpt>
<trkpt lat="43.4568752" lon="6.8685491"><ele></ele><time>2022-5-31T6:45:50Z</time></trkpt>
<trkpt lat="43.4568752" lon="6.8685490"><ele></ele><time>2022-5-31T6:45:53Z</time></trkpt>
<trkpt lat="43.4568751" lon="6.8685487"><ele></ele><time>2022-5-31T6:45:56Z</time></trkpt>
<trkpt lat="43.4568753" lon="6.8685484"><ele></ele><time>2022-5-31T6:45:59Z</time></trkpt>
<trkpt lat="43.4568755" lon="6.8685486"><ele></ele><time>2022-5-31T6:46:2Z</time></trkpt>
<trkpt lat="43.4568755" lon="6.8685486"><ele></ele><time>2022-5-31T6:46:5Z</time></trkpt>
<trkpt lat="43.4568753" lon="6.8685492"><ele></ele><time>2022-5-31T6:46:8Z</time></trkpt>
<trkpt lat="43.4568753" lon="6.8685496"><ele></ele><time>2022-5-31T6:46:11Z</time></trkpt>
<trkpt lat="43.4568754" lon="6.8685502"><ele></ele><time>2022-5-31T6:46:14Z</time></trkpt>
<trkpt lat="43.4568753" lon="6.8685504"><ele></ele><time>2022-5-31T6:46:17Z</time></trkpt>
<trkpt lat="43.4568756" lon="6.8685499"><ele></ele><time>2022-5-31T6:46:20Z</time></trkpt>
<trkpt lat="43.4568767" lon="6.8685495"><ele></ele><time>2022-5-31T6:46:23Z</time></trkpt>
<trkpt lat="43.4568764" lon="6.8685495"><ele></ele><time>2022-5-31T6:46:26Z</time></trkpt>
<trkpt lat="43.4568765" lon="6.8685502"><ele></ele><time>2022-5-31T6:46:29Z</time></trkpt>
<trkpt lat="43.4568770" lon="6.8685510"><ele></ele><time>2022-5-31T6:46:32Z</time></trkpt>
<trkpt lat="43.4568768" lon="6.8685517"><ele></ele><time>2022-5-31T6:46:35Z</time></trkpt>
<trkpt lat="43.4568766" lon="6.8685504"><ele></ele><time>2022-5-31T6:46:38Z</time></trkpt>
<trkpt lat="43.4568771" lon="6.8685511"><ele></ele><time>2022-5-31T6:46:41Z</time></trkpt>
<trkpt lat="43.4568771" lon="6.8685502"><ele></ele><time>2022-5-31T6:46:44Z</time></trkpt>
<trkpt lat="43.4568784" lon="6.8685499"><ele></ele><time>2022-5-31T6:46:47Z</time></trkpt>
<trkpt lat="43.4568801" lon="6.8685486"><ele></ele><time>2022-5-31T6:46:50Z</time></trkpt>
<trkpt lat="43.4568799" lon="6.8685479"><ele></ele><time>2022-5-31T6:46:53Z</time></trkpt>
<trkpt lat="43.4568782" lon="6.8685503"><ele></ele><time>2022-5-31T6:46:56Z</time></trkpt>
<trkpt lat="43.4568823" lon="6.8685444"><ele></ele><time>2022-5-31T6:46:59Z</time></trkpt>
<trkpt lat="43.4568872" lon="6.8685337"><ele></ele><time>2022-5-31T6:47:2Z</time></trkpt>
<trkpt lat="43.4568874" lon="6.8685171"><ele></ele><time>2022-5-31T6:47:5Z</time></trkpt>
<trkpt lat="43.4568888" lon="6.8684904"><ele></ele><time>2022-5-31T6:47:8Z</time></trkpt>
<trkpt lat="43.4568928" lon="6.8684581"><ele></ele><time>2022-5-31T6:47:11Z</time></trkpt>
<trkpt lat="43.4568975" lon="6.8684218"><ele></ele><time>2022-5-31T6:47:14Z</time></trkpt>
<trkpt lat="43.4569043" lon="6.8683773"><ele></ele><time>2022-5-31T6:47:17Z</time></trkpt>
<trkpt lat="43.4569074" lon="6.8683260"><ele></ele><time>2022-5-31T6:47:20Z</time></trkpt>
<trkpt lat="43.4569083" lon="6.8682851"><ele></ele><time>2022-5-31T6:47:23Z</time></trkpt>
<trkpt lat="43.4569121" lon="6.8682392"><ele></ele><time>2022-5-31T6:47:26Z</time></trkpt>
<trkpt lat="43.4569121" lon="6.8681976"><ele></ele><time>2022-5-31T6:47:29Z</time></trkpt>
<trkpt lat="43.4569116" lon="6.8681544"><ele></ele><time>2022-5-31T6:47:32Z</time></trkpt>
<trkpt lat="43.4569115" lon="6.8681129"><ele></ele><time>2022-5-31T6:47:35Z</time></trkpt>
<trkpt lat="43.4569130" lon="6.8680698"><ele></ele><time>2022-5-31T6:47:38Z</time></trkpt>
<trkpt lat="43.4569163" lon="6.8680259"><ele></ele><time>2022-5-31T6:47:41Z</time></trkpt>
<trkpt lat="43.4569191" lon="6.8679828"><ele></ele><time>2022-5-31T6:47:44Z</time></trkpt>
<trkpt lat="43.4569215" lon="6.8679402"><ele></ele><time>2022-5-31T6:47:47Z</time></trkpt>
<trkpt lat="43.4569240" lon="6.8678963"><ele></ele><time>2022-5-31T6:47:50Z</time></trkpt>
<trkpt lat="43.4569319" lon="6.8678581"><ele></ele><time>2022-5-31T6:47:53Z</time></trkpt>
<trkpt lat="43.4569424" lon="6.8678167"><ele></ele><time>2022-5-31T6:47:56Z</time></trkpt>
<trkpt lat="43.4569538" lon="6.8677738"><ele></ele><time>2022-5-31T6:47:59Z</time></trkpt>
<trkpt lat="43.4569682" lon="6.8677332"><ele></ele><time>2022-5-31T6:48:2Z</time></trkpt>
<trkpt lat="43.4569825" lon="6.8677029"><ele></ele><time>2022-5-31T6:48:5Z</time></trkpt>
<trkpt lat="43.4569947" lon="6.8676625"><ele></ele><time>2022-5-31T6:48:8Z</time></trkpt>
<trkpt lat="43.4570031" lon="6.8676159"><ele></ele><time>2022-5-31T6:48:11Z</time></trkpt>
<trkpt lat="43.4570125" lon="6.8675632"><ele></ele><time>2022-5-31T6:48:14Z</time></trkpt>
<trkpt lat="43.4570208" lon="6.8675096"><ele></ele><time>2022-5-31T6:48:17Z</time></trkpt>
<trkpt lat="43.4570296" lon="6.8674658"><ele></ele><time>2022-5-31T6:48:20Z</time></trkpt>
<trkpt lat="43.4570360" lon="6.8674187"><ele></ele><time>2022-5-31T6:48:23Z</time></trkpt>
<trkpt lat="43.4570402" lon="6.8673795"><ele></ele><time>2022-5-31T6:48:26Z</time></trkpt>
<trkpt lat="43.4570416" lon="6.8673401"><ele></ele><time>2022-5-31T6:48:29Z</time></trkpt>
<trkpt lat="43.4570461" lon="6.8673015"><ele></ele><time>2022-5-31T6:48:32Z</time></trkpt>
<trkpt lat="43.4570499" lon="6.8672617"><ele></ele><time>2022-5-31T6:48:35Z</time></trkpt>
<trkpt lat="43.4570458" lon="6.8672238"><ele></ele><time>2022-5-31T6:48:38Z</time></trkpt>
<trkpt lat="43.4570370" lon="6.8671926"><ele></ele><time>2022-5-31T6:48:41Z</time></trkpt>
<trkpt lat="43.4570316" lon="6.8671555"><ele></ele><time>2022-5-31T6:48:44Z</time></trkpt>
<trkpt lat="43.4570274" lon="6.8671111"><ele></ele><time>2022-5-31T6:48:47Z</time></trkpt>
<trkpt lat="43.4570214" lon="6.8670689"><ele></ele><time>2022-5-31T6:48:50Z</time></trkpt>
<trkpt lat="43.4570097" lon="6.8670257"><ele></ele><time>2022-5-31T6:48:53Z</time></trkpt>
<trkpt lat="43.4569965" lon="6.8669774"><ele></ele><time>2022-5-31T6:48:56Z</time></trkpt>
<trkpt lat="43.4569873" lon="6.8669264"><ele></ele><time>2022-5-31T6:48:59Z</time></trkpt>
<trkpt lat="43.4569783" lon="6.8668761"><ele></ele><time>2022-5-31T6:49:2Z</time></trkpt>
<trkpt lat="43.4569714" lon="6.8668267"><ele></ele><time>2022-5-31T6:49:5Z</time></trkpt>
<trkpt lat="43.4569722" lon="6.8667813"><ele></ele><time>2022-5-31T6:49:8Z</time></trkpt>
<trkpt lat="43.4569761" lon="6.8667346"><ele></ele><time>2022-5-31T6:49:11Z</time></trkpt>
<trkpt lat="43.4569789" lon="6.8666932"><ele></ele><time>2022-5-31T6:49:14Z</time></trkpt>
<trkpt lat="43.4569805" lon="6.8666549"><ele></ele><time>2022-5-31T6:49:17Z</time></trkpt>
<trkpt lat="43.4569805" lon="6.8666182"><ele></ele><time>2022-5-31T6:49:20Z</time></trkpt>
<trkpt lat="43.4569816" lon="6.8665767"><ele></ele><time>2022-5-31T6:49:23Z</time></trkpt>
<trkpt lat="43.4569814" lon="6.8665273"><ele></ele><time>2022-5-31T6:49:26Z</time></trkpt>
<trkpt lat="43.4569714" lon="6.8664812"><ele></ele><time>2022-5-31T6:49:29Z</time></trkpt>
<trkpt lat="43.4569484" lon="6.8664426"><ele></ele><time>2022-5-31T6:49:32Z</time></trkpt>
<trkpt lat="43.4569279" lon="6.8663919"><ele></ele><time>2022-5-31T6:49:35Z</time></trkpt>
<trkpt lat="43.4569168" lon="6.8663265"><ele></ele><time>2022-5-31T6:49:38Z</time></trkpt>
<trkpt lat="43.4569080" lon="6.8662595"><ele></ele><time>2022-5-31T6:49:41Z</time></trkpt>
<trkpt lat="43.4568967" lon="6.8661908"><ele></ele><time>2022-5-31T6:49:44Z</time></trkpt>
<trkpt lat="43.4568728" lon="6.8661201"><ele></ele><time>2022-5-31T6:49:47Z</time></trkpt>
<trkpt lat="43.4568450" lon="6.8660541"><ele></ele><time>2022-5-31T6:49:50Z</time></trkpt>
<trkpt lat="43.4568148" lon="6.8659847"><ele></ele><time>2022-5-31T6:49:53Z</time></trkpt>
<trkpt lat="43.4567820" lon="6.8659049"><ele></ele><time>2022-5-31T6:49:56Z</time></trkpt>
<trkpt lat="43.4567569" lon="6.8658168"><ele></ele><time>2022-5-31T6:49:59Z</time></trkpt>
<trkpt lat="43.4567290" lon="6.8657200"><ele></ele><time>2022-5-31T6:50:2Z</time></trkpt>
<trkpt lat="43.4566954" lon="6.8656168"><ele></ele><time>2022-5-31T6:50:5Z</time></trkpt>
<trkpt lat="43.4566563" lon="6.8655329"><ele></ele><time>2022-5-31T6:50:8Z</time></trkpt>
<trkpt lat="43.4566166" lon="6.8654541"><ele></ele><time>2022-5-31T6:50:11Z</time></trkpt>
<trkpt lat="43.4565722" lon="6.8653824"><ele></ele><time>2022-5-31T6:50:14Z</time></trkpt>
<trkpt lat="43.4565293" lon="6.8653150"><ele></ele><time>2022-5-31T6:50:17Z</time></trkpt>
<trkpt lat="43.4564887" lon="6.8652566"><ele></ele><time>2022-5-31T6:50:20Z</time></trkpt>
<trkpt lat="43.4564472" lon="6.8651985"><ele></ele><time>2022-5-31T6:50:23Z</time></trkpt>
<trkpt lat="43.4564086" lon="6.8651472"><ele></ele><time>2022-5-31T6:50:26Z</time></trkpt>
<trkpt lat="43.4563644" lon="6.8651025"><ele></ele><time>2022-5-31T6:50:29Z</time></trkpt>
<trkpt lat="43.4563217" lon="6.8650538"><ele></ele><time>2022-5-31T6:50:32Z</time></trkpt>
<trkpt lat="43.4562766" lon="6.8650040"><ele></ele><time>2022-5-31T6:50:35Z</time></trkpt>
<trkpt lat="43.4562390" lon="6.8649585"><ele></ele><time>2022-5-31T6:50:38Z</time></trkpt>
<trkpt lat="43.4562073" lon="6.8649046"><ele></ele><time>2022-5-31T6:50:41Z</time></trkpt>
<trkpt lat="43.4561739" lon="6.8648438"><ele></ele><time>2022-5-31T6:50:44Z</time></trkpt>
<trkpt lat="43.4561461" lon="6.8647928"><ele></ele><time>2022-5-31T6:50:47Z</time></trkpt>
<trkpt lat="43.4561178" lon="6.8647471"><ele></ele><time>2022-5-31T6:50:50Z</time></trkpt>
<trkpt lat="43.4560929" lon="6.8647019"><ele></ele><time>2022-5-31T6:50:53Z</time></trkpt>
<trkpt lat="43.4560624" lon="6.8646510"><ele></ele><time>2022-5-31T6:50:56Z</time></trkpt>
<trkpt lat="43.4560318" lon="6.8646011"><ele></ele><time>2022-5-31T6:50:59Z</time></trkpt>
<trkpt lat="43.4560010" lon="6.8645543"><ele></ele><time>2022-5-31T6:51:2Z</time></trkpt>
<trkpt lat="43.4559709" lon="6.8645107"><ele></ele><time>2022-5-31T6:51:5Z</time></trkpt>
<trkpt lat="43.4559420" lon="6.8644673"><ele></ele><time>2022-5-31T6:51:8Z</time></trkpt>
<trkpt lat="43.4559118" lon="6.8644249"><ele></ele><time>2022-5-31T6:51:11Z</time></trkpt>
<trkpt lat="43.4558845" lon="6.8643797"><ele></ele><time>2022-5-31T6:51:14Z</time></trkpt>
<trkpt lat="43.4558693" lon="6.8643227"><ele></ele><time>2022-5-31T6:51:17Z</time></trkpt>
<trkpt lat="43.4558492" lon="6.8642602"><ele></ele><time>2022-5-31T6:51:20Z</time></trkpt>
<trkpt lat="43.4558299" lon="6.8641999"><ele></ele><time>2022-5-31T6:51:23Z</time></trkpt>
<trkpt lat="43.4558136" lon="6.8641345"><ele></ele><time>2022-5-31T6:51:26Z</time></trkpt>
<trkpt lat="43.4557994" lon="6.8640687"><ele></ele><time>2022-5-31T6:51:29Z</time></trkpt>
<trkpt lat="43.4557874" lon="6.8640069"><ele></ele><time>2022-5-31T6:51:32Z</time></trkpt>
<trkpt lat="43.4557766" lon="6.8639486"><ele></ele><time>2022-5-31T6:51:35Z</time></trkpt>
<trkpt lat="43.4557615" lon="6.8638873"><ele></ele><time>2022-5-31T6:51:38Z</time></trkpt>
<trkpt lat="43.4557352" lon="6.8638308"><ele></ele><time>2022-5-31T6:51:41Z</time></trkpt>
<trkpt lat="43.4557107" lon="6.8637675"><ele></ele><time>2022-5-31T6:51:44Z</time></trkpt>
<trkpt lat="43.4556824" lon="6.8637123"><ele></ele><time>2022-5-31T6:51:47Z</time></trkpt>
<trkpt lat="43.4556542" lon="6.8636599"><ele></ele><time>2022-5-31T6:51:50Z</time></trkpt>
<trkpt lat="43.4556245" lon="6.8636082"><ele></ele><time>2022-5-31T6:51:53Z</time></trkpt>
<trkpt lat="43.4556192" lon="6.8635459"><ele></ele><time>2022-5-31T6:51:56Z</time></trkpt>
<trkpt lat="43.4556070" lon="6.8634907"><ele></ele><time>2022-5-31T6:51:59Z</time></trkpt>
<trkpt lat="43.4555889" lon="6.8634444"><ele></ele><time>2022-5-31T6:52:2Z</time></trkpt>
<trkpt lat="43.4555713" lon="6.8633941"><ele></ele><time>2022-5-31T6:52:5Z</time></trkpt>
<trkpt lat="43.4555541" lon="6.8633471"><ele></ele><time>2022-5-31T6:52:8Z</time></trkpt>
<trkpt lat="43.4555344" lon="6.8633026"><ele></ele><time>2022-5-31T6:52:11Z</time></trkpt>
<trkpt lat="43.4555271" lon="6.8632550"><ele></ele><time>2022-5-31T6:52:14Z</time></trkpt>
<trkpt lat="43.4555210" lon="6.8632043"><ele></ele><time>2022-5-31T6:52:17Z</time></trkpt>
<trkpt lat="43.4555081" lon="6.8631604"><ele></ele><time>2022-5-31T6:52:20Z</time></trkpt>
<trkpt lat="43.4554880" lon="6.8631146"><ele></ele><time>2022-5-31T6:52:23Z</time></trkpt>
<trkpt lat="43.4554700" lon="6.8630762"><ele></ele><time>2022-5-31T6:52:26Z</time></trkpt>
<trkpt lat="43.4554596" lon="6.8630368"><ele></ele><time>2022-5-31T6:52:29Z</time></trkpt>
<trkpt lat="43.4554479" lon="6.8629978"><ele></ele><time>2022-5-31T6:52:32Z</time></trkpt>
<trkpt lat="43.4554406" lon="6.8629570"><ele></ele><time>2022-5-31T6:52:35Z</time></trkpt>
<trkpt lat="43.4554297" lon="6.8629111"><ele></ele><time>2022-5-31T6:52:38Z</time></trkpt>
<trkpt lat="43.4554040" lon="6.8628679"><ele></ele><time>2022-5-31T6:52:41Z</time></trkpt>
<trkpt lat="43.4553822" lon="6.8628298"><ele></ele><time>2022-5-31T6:52:44Z</time></trkpt>
<trkpt lat="43.4553684" lon="6.8627877"><ele></ele><time>2022-5-31T6:52:47Z</time></trkpt>
<trkpt lat="43.4553616" lon="6.8627349"><ele></ele><time>2022-5-31T6:52:50Z</time></trkpt>
<trkpt lat="43.4553518" lon="6.8626916"><ele></ele><time>2022-5-31T6:52:53Z</time></trkpt>
<trkpt lat="43.4553426" lon="6.8626484"><ele></ele><time>2022-5-31T6:52:56Z</time></trkpt>
<trkpt lat="43.4553329" lon="6.8625902"><ele></ele><time>2022-5-31T6:52:59Z</time></trkpt>
<trkpt lat="43.4553171" lon="6.8625441"><ele></ele><time>2022-5-31T6:53:2Z</time></trkpt>
<trkpt lat="43.4553038" lon="6.8624980"><ele></ele><time>2022-5-31T6:53:5Z</time></trkpt>
<trkpt lat="43.4553011" lon="6.8624529"><ele></ele><time>2022-5-31T6:53:8Z</time></trkpt>
<trkpt lat="43.4552855" lon="6.8624066"><ele></ele><time>2022-5-31T6:53:11Z</time></trkpt>
<trkpt lat="43.4552754" lon="6.8623609"><ele></ele><time>2022-5-31T6:53:14Z</time></trkpt>
<trkpt lat="43.4552763" lon="6.8623159"><ele></ele><time>2022-5-31T6:53:17Z</time></trkpt>
<trkpt lat="43.4552719" lon="6.8622811"><ele></ele><time>2022-5-31T6:53:20Z</time></trkpt>
<trkpt lat="43.4552641" lon="6.8622636"><ele></ele><time>2022-5-31T6:53:23Z</time></trkpt>
<trkpt lat="43.4552530" lon="6.8622401"><ele></ele><time>2022-5-31T6:53:26Z</time></trkpt>
<trkpt lat="43.4552361" lon="6.8622167"><ele></ele><time>2022-5-31T6:53:29Z</time></trkpt>
<trkpt lat="43.4552177" lon="6.8621801"><ele></ele><time>2022-5-31T6:53:32Z</time></trkpt>
<trkpt lat="43.4551976" lon="6.8621353"><ele></ele><time>2022-5-31T6:53:35Z</time></trkpt>
<trkpt lat="43.4551773" lon="6.8620945"><ele></ele><time>2022-5-31T6:53:38Z</time></trkpt>
<trkpt lat="43.4551624" lon="6.8620537"><ele></ele><time>2022-5-31T6:53:41Z</time></trkpt>
<trkpt lat="43.4551483" lon="6.8620024"><ele></ele><time>2022-5-31T6:53:44Z</time></trkpt>
<trkpt lat="43.4551322" lon="6.8619458"><ele></ele><time>2022-5-31T6:53:47Z</time></trkpt>
<trkpt lat="43.4551120" lon="6.8618935"><ele></ele><time>2022-5-31T6:53:50Z</time></trkpt>
<trkpt lat="43.4550904" lon="6.8618385"><ele></ele><time>2022-5-31T6:53:53Z</time></trkpt>
<trkpt lat="43.4550645" lon="6.8617773"><ele></ele><time>2022-5-31T6:53:56Z</time></trkpt>
<trkpt lat="43.4550441" lon="6.8617175"><ele></ele><time>2022-5-31T6:53:59Z</time></trkpt>
<trkpt lat="43.4550238" lon="6.8616623"><ele></ele><time>2022-5-31T6:54:2Z</time></trkpt>
<trkpt lat="43.4550096" lon="6.8616070"><ele></ele><time>2022-5-31T6:54:5Z</time></trkpt>
<trkpt lat="43.4550049" lon="6.8615670"><ele></ele><time>2022-5-31T6:54:8Z</time></trkpt>
<trkpt lat="43.4550097" lon="6.8615387"><ele></ele><time>2022-5-31T6:54:11Z</time></trkpt>
<trkpt lat="43.4550224" lon="6.8615189"><ele></ele><time>2022-5-31T6:54:14Z</time></trkpt>
<trkpt lat="43.4550422" lon="6.8615053"><ele></ele><time>2022-5-31T6:54:17Z</time></trkpt>
<trkpt lat="43.4550658" lon="6.8614972"><ele></ele><time>2022-5-31T6:54:20Z</time></trkpt>
<trkpt lat="43.4550872" lon="6.8614685"><ele></ele><time>2022-5-31T6:54:23Z</time></trkpt>
<trkpt lat="43.4551061" lon="6.8614478"><ele></ele><time>2022-5-31T6:54:26Z</time></trkpt>
<trkpt lat="43.4551369" lon="6.8614386"><ele></ele><time>2022-5-31T6:54:29Z</time></trkpt>
<trkpt lat="43.4551663" lon="6.8614296"><ele></ele><time>2022-5-31T6:54:32Z</time></trkpt>
<trkpt lat="43.4551964" lon="6.8614242"><ele></ele><time>2022-5-31T6:54:35Z</time></trkpt>
<trkpt lat="43.4552274" lon="6.8614149"><ele></ele><time>2022-5-31T6:54:38Z</time></trkpt>
<trkpt lat="43.4552626" lon="6.8614040"><ele></ele><time>2022-5-31T6:54:41Z</time></trkpt>
<trkpt lat="43.4552945" lon="6.8613909"><ele></ele><time>2022-5-31T6:54:44Z</time></trkpt>
<trkpt lat="43.4553195" lon="6.8613746"><ele></ele><time>2022-5-31T6:54:47Z</time></trkpt>
<trkpt lat="43.4553424" lon="6.8613570"><ele></ele><time>2022-5-31T6:54:50Z</time></trkpt>
<trkpt lat="43.4553659" lon="6.8613407"><ele></ele><time>2022-5-31T6:54:53Z</time></trkpt>
<trkpt lat="43.4553916" lon="6.8613308"><ele></ele><time>2022-5-31T6:54:56Z</time></trkpt>
<trkpt lat="43.4554189" lon="6.8613228"><ele></ele><time>2022-5-31T6:54:59Z</time></trkpt>
<trkpt lat="43.4554509" lon="6.8613324"><ele></ele><time>2022-5-31T6:55:2Z</time></trkpt>
<trkpt lat="43.4554851" lon="6.8613378"><ele></ele><time>2022-5-31T6:55:5Z</time></trkpt>
<trkpt lat="43.4555117" lon="6.8613259"><ele></ele><time>2022-5-31T6:55:8Z</time></trkpt>
<trkpt lat="43.4555401" lon="6.8613042"><ele></ele><time>2022-5-31T6:55:11Z</time></trkpt>
<trkpt lat="43.4555689" lon="6.8612820"><ele></ele><time>2022-5-31T6:55:14Z</time></trkpt>
<trkpt lat="43.4556005" lon="6.8612622"><ele></ele><time>2022-5-31T6:55:17Z</time></trkpt>
<trkpt lat="43.4556290" lon="6.8612442"><ele></ele><time>2022-5-31T6:55:20Z</time></trkpt>
<trkpt lat="43.4556648" lon="6.8612366"><ele></ele><time>2022-5-31T6:55:23Z</time></trkpt>
<trkpt lat="43.4557042" lon="6.8612307"><ele></ele><time>2022-5-31T6:55:26Z</time></trkpt>
<trkpt lat="43.4557349" lon="6.8612220"><ele></ele><time>2022-5-31T6:55:29Z</time></trkpt>
<trkpt lat="43.4557631" lon="6.8612040"><ele></ele><time>2022-5-31T6:55:32Z</time></trkpt>
<trkpt lat="43.4557902" lon="6.8611909"><ele></ele><time>2022-5-31T6:55:35Z</time></trkpt>
<trkpt lat="43.4558190" lon="6.8611771"><ele></ele><time>2022-5-31T6:55:38Z</time></trkpt>
<trkpt lat="43.4558493" lon="6.8611636"><ele></ele><time>2022-5-31T6:55:41Z</time></trkpt>
<trkpt lat="43.4558742" lon="6.8611563"><ele></ele><time>2022-5-31T6:55:44Z</time></trkpt>
<trkpt lat="43.4559045" lon="6.8611478"><ele></ele><time>2022-5-31T6:55:47Z</time></trkpt>
<trkpt lat="43.4559390" lon="6.8611387"><ele></ele><time>2022-5-31T6:55:50Z</time></trkpt>
<trkpt lat="43.4559706" lon="6.8611452"><ele></ele><time>2022-5-31T6:55:53Z</time></trkpt>
<trkpt lat="43.4560024" lon="6.8611400"><ele></ele><time>2022-5-31T6:55:56Z</time></trkpt>
<trkpt lat="43.4560221" lon="6.8611315"><ele></ele><time>2022-5-31T6:55:59Z</time></trkpt>
<trkpt lat="43.4560517" lon="6.8611215"><ele></ele><time>2022-5-31T6:56:2Z</time></trkpt>
<trkpt lat="43.4560839" lon="6.8611112"><ele></ele><time>2022-5-31T6:56:5Z</time></trkpt>
<trkpt lat="43.4561115" lon="6.8611056"><ele></ele><time>2022-5-31T6:56:8Z</time></trkpt>
<trkpt lat="43.4561428" lon="6.8610968"><ele></ele><time>2022-5-31T6:56:11Z</time></trkpt>
<trkpt lat="43.4561772" lon="6.8610854"><ele></ele><time>2022-5-31T6:56:14Z</time></trkpt>
<trkpt lat="43.4562101" lon="6.8610748"><ele></ele><time>2022-5-31T6:56:17Z</time></trkpt>
<trkpt lat="43.4562411" lon="6.8610569"><ele></ele><time>2022-5-31T6:56:20Z</time></trkpt>
<trkpt lat="43.4562694" lon="6.8610389"><ele></ele><time>2022-5-31T6:56:23Z</time></trkpt>
<trkpt lat="43.4562960" lon="6.8610191"><ele></ele><time>2022-5-31T6:56:26Z</time></trkpt>
<trkpt lat="43.4563259" lon="6.8610011"><ele></ele><time>2022-5-31T6:56:29Z</time></trkpt>
<trkpt lat="43.4563598" lon="6.8609944"><ele></ele><time>2022-5-31T6:56:32Z</time></trkpt>
<trkpt lat="43.4563964" lon="6.8609875"><ele></ele><time>2022-5-31T6:56:35Z</time></trkpt>
<trkpt lat="43.4564322" lon="6.8609727"><ele></ele><time>2022-5-31T6:56:38Z</time></trkpt>
<trkpt lat="43.4564647" lon="6.8609589"><ele></ele><time>2022-5-31T6:56:41Z</time></trkpt>
<trkpt lat="43.4564989" lon="6.8609482"><ele></ele><time>2022-5-31T6:56:44Z</time></trkpt>
<trkpt lat="43.4565328" lon="6.8609404"><ele></ele><time>2022-5-31T6:56:47Z</time></trkpt>
<trkpt lat="43.4565679" lon="6.8609380"><ele></ele><time>2022-5-31T6:56:50Z</time></trkpt>
<trkpt lat="43.4566009" lon="6.8609284"><ele></ele><time>2022-5-31T6:56:53Z</time></trkpt>
<trkpt lat="43.4566341" lon="6.8609149"><ele></ele><time>2022-5-31T6:56:56Z</time></trkpt>
<trkpt lat="43.4566686" lon="6.8609157"><ele></ele><time>2022-5-31T6:56:59Z</time></trkpt>
<trkpt lat="43.4566968" lon="6.8609112"><ele></ele><time>2022-5-31T6:57:2Z</time></trkpt>
<trkpt lat="43.4567315" lon="6.8608999"><ele></ele><time>2022-5-31T6:57:5Z</time></trkpt>
<trkpt lat="43.4567674" lon="6.8608879"><ele></ele><time>2022-5-31T6:57:8Z</time></trkpt>
<trkpt lat="43.4568023" lon="6.8608771"><ele></ele><time>2022-5-31T6:57:11Z</time></trkpt>
<trkpt lat="43.4568355" lon="6.8608664"><ele></ele><time>2022-5-31T6:57:14Z</time></trkpt>
<trkpt lat="43.4568660" lon="6.8608504"><ele></ele><time>2022-5-31T6:57:17Z</time></trkpt>
<trkpt lat="43.4568924" lon="6.8608351"><ele></ele><time>2022-5-31T6:57:20Z</time></trkpt>
<trkpt lat="43.4569223" lon="6.8608294"><ele></ele><time>2022-5-31T6:57:23Z</time></trkpt>
<trkpt lat="43.4569524" lon="6.8608284"><ele></ele><time>2022-5-31T6:57:26Z</time></trkpt>
<trkpt lat="43.4569942" lon="6.8608137"><ele></ele><time>2022-5-31T6:57:29Z</time></trkpt>
<trkpt lat="43.4570271" lon="6.8608035"><ele></ele><time>2022-5-31T6:57:32Z</time></trkpt>
<trkpt lat="43.4570559" lon="6.8607976"><ele></ele><time>2022-5-31T6:57:35Z</time></trkpt>
<trkpt lat="43.4570889" lon="6.8607807"><ele></ele><time>2022-5-31T6:57:38Z</time></trkpt>
<trkpt lat="43.4571230" lon="6.8607732"><ele></ele><time>2022-5-31T6:57:41Z</time></trkpt>
<trkpt lat="43.4571529" lon="6.8607716"><ele></ele><time>2022-5-31T6:57:44Z</time></trkpt>
<trkpt lat="43.4571720" lon="6.8607781"><ele></ele><time>2022-5-31T6:57:47Z</time></trkpt>
<trkpt lat="43.4571988" lon="6.8607698"><ele></ele><time>2022-5-31T6:57:50Z</time></trkpt>
<trkpt lat="43.4572272" lon="6.8607504"><ele></ele><time>2022-5-31T6:57:53Z</time></trkpt>
<trkpt lat="43.4572572" lon="6.8607327"><ele></ele><time>2022-5-31T6:57:56Z</time></trkpt>
<trkpt lat="43.4572797" lon="6.8607172"><ele></ele><time>2022-5-31T6:57:59Z</time></trkpt>
<trkpt lat="43.4572990" lon="6.8607153"><ele></ele><time>2022-5-31T6:58:2Z</time></trkpt>
<trkpt lat="43.4573152" lon="6.8607133"><ele></ele><time>2022-5-31T6:58:5Z</time></trkpt>
<trkpt lat="43.4573271" lon="6.8607074"><ele></ele><time>2022-5-31T6:58:8Z</time></trkpt>
<trkpt lat="43.4573279" lon="6.8607110"><ele></ele><time>2022-5-31T6:58:11Z</time></trkpt>
<trkpt lat="43.4573285" lon="6.8607118"><ele></ele><time>2022-5-31T6:58:14Z</time></trkpt>
<trkpt lat="43.4573304" lon="6.8607103"><ele></ele><time>2022-5-31T6:58:17Z</time></trkpt>
<trkpt lat="43.4573304" lon="6.8607107"><ele></ele><time>2022-5-31T6:58:20Z</time></trkpt>
<trkpt lat="43.4573324" lon="6.8607104"><ele></ele><time>2022-5-31T6:58:23Z</time></trkpt>
<trkpt lat="43.4573326" lon="6.8607102"><ele></ele><time>2022-5-31T6:58:26Z</time></trkpt>
<trkpt lat="43.4573329" lon="6.8607096"><ele></ele><time>2022-5-31T6:58:29Z</time></trkpt>
<trkpt lat="43.4573315" lon="6.8607087"><ele></ele><time>2022-5-31T6:58:32Z</time></trkpt>
<trkpt lat="43.4573350" lon="6.8607095"><ele></ele><time>2022-5-31T6:58:35Z</time></trkpt>
<trkpt lat="43.4573401" lon="6.8607059"><ele></ele><time>2022-5-31T6:58:38Z</time></trkpt>
<trkpt lat="43.4573398" lon="6.8607049"><ele></ele><time>2022-5-31T6:58:41Z</time></trkpt>
<trkpt lat="43.4573451" lon="6.8606959"><ele></ele><time>2022-5-31T6:58:44Z</time></trkpt>
<trkpt lat="43.4573516" lon="6.8606862"><ele></ele><time>2022-5-31T6:58:47Z</time></trkpt>
<trkpt lat="43.4573618" lon="6.8606780"><ele></ele><time>2022-5-31T6:58:50Z</time></trkpt>
<trkpt lat="43.4573669" lon="6.8606615"><ele></ele><time>2022-5-31T6:58:53Z</time></trkpt>
<trkpt lat="43.4573732" lon="6.8606528"><ele></ele><time>2022-5-31T6:58:56Z</time></trkpt>
<trkpt lat="43.4573748" lon="6.8606499"><ele></ele><time>2022-5-31T6:58:59Z</time></trkpt>
<trkpt lat="43.4573749" lon="6.8606514"><ele></ele><time>2022-5-31T6:59:2Z</time></trkpt>
<trkpt lat="43.4573757" lon="6.8606501"><ele></ele><time>2022-5-31T6:59:5Z</time></trkpt>
<trkpt lat="43.4573823" lon="6.8606445"><ele></ele><time>2022-5-31T6:59:8Z</time></trkpt>
<trkpt lat="43.4573966" lon="6.8606353"><ele></ele><time>2022-5-31T6:59:11Z</time></trkpt>
<trkpt lat="43.4574139" lon="6.8606235"><ele></ele><time>2022-5-31T6:59:14Z</time></trkpt>
<trkpt lat="43.4574311" lon="6.8606054"><ele></ele><time>2022-5-31T6:59:17Z</time></trkpt>
<trkpt lat="43.4574413" lon="6.8605958"><ele></ele><time>2022-5-31T6:59:20Z</time></trkpt>
<trkpt lat="43.4574518" lon="6.8605893"><ele></ele><time>2022-5-31T6:59:23Z</time></trkpt>
<trkpt lat="43.4574706" lon="6.8605906"><ele></ele><time>2022-5-31T6:59:26Z</time></trkpt>
<trkpt lat="43.4574796" lon="6.8605924"><ele></ele><time>2022-5-31T6:59:29Z</time></trkpt>
<trkpt lat="43.4574818" lon="6.8605943"><ele></ele><time>2022-5-31T6:59:32Z</time></trkpt>
<trkpt lat="43.4574784" lon="6.8605942"><ele></ele><time>2022-5-31T6:59:35Z</time></trkpt>
<trkpt lat="43.4574786" lon="6.8605953"><ele></ele><time>2022-5-31T6:59:38Z</time></trkpt>
<trkpt lat="43.4574841" lon="6.8605975"><ele></ele><time>2022-5-31T6:59:41Z</time></trkpt>
<trkpt lat="43.4574966" lon="6.8605994"><ele></ele><time>2022-5-31T6:59:44Z</time></trkpt>
<trkpt lat="43.4575053" lon="6.8606039"><ele></ele><time>2022-5-31T6:59:47Z</time></trkpt>
<trkpt lat="43.4575124" lon="6.8606038"><ele></ele><time>2022-5-31T6:59:50Z</time></trkpt>
<trkpt lat="43.4575178" lon="6.8606002"><ele></ele><time>2022-5-31T6:59:53Z</time></trkpt>
<trkpt lat="43.4575285" lon="6.8605993"><ele></ele><time>2022-5-31T6:59:56Z</time></trkpt>
<trkpt lat="43.4575391" lon="6.8606016"><ele></ele><time>2022-5-31T6:59:59Z</time></trkpt>
<trkpt lat="43.4575458" lon="6.8605994"><ele></ele><time>2022-5-31T7:0:2Z</time></trkpt>
<trkpt lat="43.4575499" lon="6.8605995"><ele></ele><time>2022-5-31T7:0:5Z</time></trkpt>
<trkpt lat="43.4575582" lon="6.8606028"><ele></ele><time>2022-5-31T7:0:8Z</time></trkpt>
<trkpt lat="43.4575671" lon="6.8606035"><ele></ele><time>2022-5-31T7:0:11Z</time></trkpt>
<trkpt lat="43.4575750" lon="6.8606044"><ele></ele><time>2022-5-31T7:0:14Z</time></trkpt>
<trkpt lat="43.4575860" lon="6.8606018"><ele></ele><time>2022-5-31T7:0:17Z</time></trkpt>
<trkpt lat="43.4575980" lon="6.8605961"><ele></ele><time>2022-5-31T7:0:20Z</time></trkpt>
<trkpt lat="43.4576063" lon="6.8605915"><ele></ele><time>2022-5-31T7:0:23Z</time></trkpt>
<trkpt lat="43.4576134" lon="6.8605889"><ele></ele><time>2022-5-31T7:0:26Z</time></trkpt>
<trkpt lat="43.4576244" lon="6.8605839"><ele></ele><time>2022-5-31T7:0:29Z</time></trkpt>
<trkpt lat="43.4576386" lon="6.8605806"><ele></ele><time>2022-5-31T7:0:32Z</time></trkpt>
<trkpt lat="43.4576490" lon="6.8605779"><ele></ele><time>2022-5-31T7:0:35Z</time></trkpt>
<trkpt lat="43.4576543" lon="6.8605759"><ele></ele><time>2022-5-31T7:0:38Z</time></trkpt>
<trkpt lat="43.4576589" lon="6.8605679"><ele></ele><time>2022-5-31T7:0:41Z</time></trkpt>
<trkpt lat="43.4576655" lon="6.8605602"><ele></ele><time>2022-5-31T7:0:44Z</time></trkpt>
<trkpt lat="43.4576749" lon="6.8605541"><ele></ele><time>2022-5-31T7:0:47Z</time></trkpt>
<trkpt lat="43.4576832" lon="6.8605481"><ele></ele><time>2022-5-31T7:0:50Z</time></trkpt>
<trkpt lat="43.4576971" lon="6.8605416"><ele></ele><time>2022-5-31T7:0:53Z</time></trkpt>
<trkpt lat="43.4577064" lon="6.8605415"><ele></ele><time>2022-5-31T7:0:56Z</time></trkpt>
<trkpt lat="43.4577127" lon="6.8605421"><ele></ele><time>2022-5-31T7:0:59Z</time></trkpt>
<trkpt lat="43.4577257" lon="6.8605405"><ele></ele><time>2022-5-31T7:1:2Z</time></trkpt>
<trkpt lat="43.4577466" lon="6.8605374"><ele></ele><time>2022-5-31T7:1:5Z</time></trkpt>
<trkpt lat="43.4577579" lon="6.8605365"><ele></ele><time>2022-5-31T7:1:8Z</time></trkpt>
<trkpt lat="43.4577603" lon="6.8605316"><ele></ele><time>2022-5-31T7:1:11Z</time></trkpt>
<trkpt lat="43.4577635" lon="6.8605251"><ele></ele><time>2022-5-31T7:1:14Z</time></trkpt>
<trkpt lat="43.4577735" lon="6.8605268"><ele></ele><time>2022-5-31T7:1:17Z</time></trkpt>
<trkpt lat="43.4577717" lon="6.8605291"><ele></ele><time>2022-5-31T7:1:20Z</time></trkpt>
<trkpt lat="43.4577656" lon="6.8605305"><ele></ele><time>2022-5-31T7:1:23Z</time></trkpt>
<trkpt lat="43.4577625" lon="6.8605321"><ele></ele><time>2022-5-31T7:1:26Z</time></trkpt>
<trkpt lat="43.4577653" lon="6.8605262"><ele></ele><time>2022-5-31T7:1:29Z</time></trkpt>
<trkpt lat="43.4577691" lon="6.8605264"><ele></ele><time>2022-5-31T7:1:32Z</time></trkpt>
<trkpt lat="43.4577738" lon="6.8605267"><ele></ele><time>2022-5-31T7:1:35Z</time></trkpt>
<trkpt lat="43.4577751" lon="6.8605285"><ele></ele><time>2022-5-31T7:1:38Z</time></trkpt>
<trkpt lat="43.4577794" lon="6.8605285"><ele></ele><time>2022-5-31T7:1:41Z</time></trkpt>
<trkpt lat="43.4577787" lon="6.8605290"><ele></ele><time>2022-5-31T7:1:44Z</time></trkpt>
<trkpt lat="43.4577835" lon="6.8605246"><ele></ele><time>2022-5-31T7:1:47Z</time></trkpt>
<trkpt lat="43.4577878" lon="6.8605207"><ele></ele><time>2022-5-31T7:1:50Z</time></trkpt>
<trkpt lat="43.4577931" lon="6.8605179"><ele></ele><time>2022-5-31T7:1:53Z</time></trkpt>
<trkpt lat="43.4577978" lon="6.8605172"><ele></ele><time>2022-5-31T7:1:56Z</time></trkpt>
<trkpt lat="43.4578074" lon="6.8605110"><ele></ele><time>2022-5-31T7:1:59Z</time></trkpt>
<trkpt lat="43.4578160" lon="6.8605069"><ele></ele><time>2022-5-31T7:2:2Z</time></trkpt>
<trkpt lat="43.4578243" lon="6.8605023"><ele></ele><time>2022-5-31T7:2:5Z</time></trkpt>
<trkpt lat="43.4578304" lon="6.8605000"><ele></ele><time>2022-5-31T7:2:8Z</time></trkpt>
<trkpt lat="43.4578332" lon="6.8604952"><ele></ele><time>2022-5-31T7:2:11Z</time></trkpt>
<trkpt lat="43.4578389" lon="6.8604911"><ele></ele><time>2022-5-31T7:2:14Z</time></trkpt>
<trkpt lat="43.4578363" lon="6.8604903"><ele></ele><time>2022-5-31T7:2:17Z</time></trkpt>
<trkpt lat="43.4578373" lon="6.8604916"><ele></ele><time>2022-5-31T7:2:20Z</time></trkpt>
<trkpt lat="43.4578421" lon="6.8604900"><ele></ele><time>2022-5-31T7:2:23Z</time></trkpt>
<trkpt lat="43.4578397" lon="6.8604861"><ele></ele><time>2022-5-31T7:2:26Z</time></trkpt>
<trkpt lat="43.4578399" lon="6.8604859"><ele></ele><time>2022-5-31T7:2:29Z</time></trkpt>
<trkpt lat="43.4578402" lon="6.8604857"><ele></ele><time>2022-5-31T7:2:32Z</time></trkpt>
<trkpt lat="43.4578402" lon="6.8604856"><ele></ele><time>2022-5-31T7:2:35Z</time></trkpt>
<trkpt lat="43.4578403" lon="6.8604857"><ele></ele><time>2022-5-31T7:2:38Z</time></trkpt>
<trkpt lat="43.4578405" lon="6.8604844"><ele></ele><time>2022-5-31T7:2:41Z</time></trkpt>
<trkpt lat="43.4578418" lon="6.8604833"><ele></ele><time>2022-5-31T7:2:44Z</time></trkpt>
<trkpt lat="43.4578469" lon="6.8604841"><ele></ele><time>2022-5-31T7:2:47Z</time></trkpt>
<trkpt lat="43.4578476" lon="6.8604835"><ele></ele><time>2022-5-31T7:2:50Z</time></trkpt>
<trkpt lat="43.4578481" lon="6.8604835"><ele></ele><time>2022-5-31T7:2:53Z</time></trkpt>
<trkpt lat="43.4578482" lon="6.8604833"><ele></ele><time>2022-5-31T7:2:56Z</time></trkpt>
<trkpt lat="43.4578491" lon="6.8604827"><ele></ele><time>2022-5-31T7:2:59Z</time></trkpt>
<trkpt lat="43.4578498" lon="6.8604815"><ele></ele><time>2022-5-31T7:3:2Z</time></trkpt>
<trkpt lat="43.4578498" lon="6.8604810"><ele></ele><time>2022-5-31T7:3:5Z</time></trkpt>
<trkpt lat="43.4578497" lon="6.8604807"><ele></ele><time>2022-5-31T7:3:8Z</time></trkpt>
<trkpt lat="43.4578500" lon="6.8604800"><ele></ele><time>2022-5-31T7:3:11Z</time></trkpt>
<trkpt lat="43.4578573" lon="6.8604772"><ele></ele><time>2022-5-31T7:3:14Z</time></trkpt>
<trkpt lat="43.4578727" lon="6.8604765"><ele></ele><time>2022-5-31T7:3:17Z</time></trkpt>
<trkpt lat="43.4578912" lon="6.8604876"><ele></ele><time>2022-5-31T7:3:20Z</time></trkpt>
<trkpt lat="43.4579063" lon="6.8604874"><ele></ele><time>2022-5-31T7:3:23Z</time></trkpt>
<trkpt lat="43.4579086" lon="6.8604860"><ele></ele><time>2022-5-31T7:3:26Z</time></trkpt>
<trkpt lat="43.4579036" lon="6.8604819"><ele></ele><time>2022-5-31T7:3:29Z</time></trkpt>
<trkpt lat="43.4579074" lon="6.8604776"><ele></ele><time>2022-5-31T7:3:32Z</time></trkpt>
<trkpt lat="43.4579159" lon="6.8604709"><ele></ele><time>2022-5-31T7:3:35Z</time></trkpt>
<trkpt lat="43.4579233" lon="6.8604681"><ele></ele><time>2022-5-31T7:3:38Z</time></trkpt>
<trkpt lat="43.4579207" lon="6.8604698"><ele></ele><time>2022-5-31T7:3:41Z</time></trkpt>
<trkpt lat="43.4579145" lon="6.8604762"><ele></ele><time>2022-5-31T7:3:44Z</time></trkpt>
<trkpt lat="43.4579181" lon="6.8604685"><ele></ele><time>2022-5-31T7:3:47Z</time></trkpt>
<trkpt lat="43.4579328" lon="6.8604598"><ele></ele><time>2022-5-31T7:3:50Z</time></trkpt>
<trkpt lat="43.4579438" lon="6.8604561"><ele></ele><time>2022-5-31T7:3:53Z</time></trkpt>
<trkpt lat="43.4579656" lon="6.8604576"><ele></ele><time>2022-5-31T7:3:56Z</time></trkpt>
<trkpt lat="43.4579903" lon="6.8604542"><ele></ele><time>2022-5-31T7:3:59Z</time></trkpt>
<trkpt lat="43.4580084" lon="6.8604475"><ele></ele><time>2022-5-31T7:4:2Z</time></trkpt>
<trkpt lat="43.4580220" lon="6.8604386"><ele></ele><time>2022-5-31T7:4:5Z</time></trkpt>
<trkpt lat="43.4580274" lon="6.8604231"><ele></ele><time>2022-5-31T7:4:8Z</time></trkpt>
<trkpt lat="43.4580320" lon="6.8604139"><ele></ele><time>2022-5-31T7:4:11Z</time></trkpt>
<trkpt lat="43.4580344" lon="6.8604078"><ele></ele><time>2022-5-31T7:4:14Z</time></trkpt>
<trkpt lat="43.4580375" lon="6.8604022"><ele></ele><time>2022-5-31T7:4:17Z</time></trkpt>
<trkpt lat="43.4580449" lon="6.8603921"><ele></ele><time>2022-5-31T7:4:20Z</time></trkpt>
<trkpt lat="43.4580560" lon="6.8603892"><ele></ele><time>2022-5-31T7:4:23Z</time></trkpt>
<trkpt lat="43.4580675" lon="6.8603877"><ele></ele><time>2022-5-31T7:4:26Z</time></trkpt>
<trkpt lat="43.4580797" lon="6.8603892"><ele></ele><time>2022-5-31T7:4:29Z</time></trkpt>
<trkpt lat="43.4580945" lon="6.8603856"><ele></ele><time>2022-5-31T7:4:32Z</time></trkpt>
<trkpt lat="43.4581093" lon="6.8603880"><ele></ele><time>2022-5-31T7:4:35Z</time></trkpt>
<trkpt lat="43.4581215" lon="6.8603922"><ele></ele><time>2022-5-31T7:4:38Z</time></trkpt>
<trkpt lat="43.4581324" lon="6.8603995"><ele></ele><time>2022-5-31T7:4:41Z</time></trkpt>
<trkpt lat="43.4581417" lon="6.8604080"><ele></ele><time>2022-5-31T7:4:44Z</time></trkpt>
<trkpt lat="43.4581511" lon="6.8604119"><ele></ele><time>2022-5-31T7:4:47Z</time></trkpt>
<trkpt lat="43.4581577" lon="6.8604150"><ele></ele><time>2022-5-31T7:4:50Z</time></trkpt>
<trkpt lat="43.4581675" lon="6.8604189"><ele></ele><time>2022-5-31T7:4:53Z</time></trkpt>
<trkpt lat="43.4581773" lon="6.8604151"><ele></ele><time>2022-5-31T7:4:56Z</time></trkpt>
<trkpt lat="43.4581802" lon="6.8604114"><ele></ele><time>2022-5-31T7:4:59Z</time></trkpt>
<trkpt lat="43.4581856" lon="6.8604073"><ele></ele><time>2022-5-31T7:5:2Z</time></trkpt>
<trkpt lat="43.4581892" lon="6.8604032"><ele></ele><time>2022-5-31T7:5:5Z</time></trkpt>
<trkpt lat="43.4581863" lon="6.8604045"><ele></ele><time>2022-5-31T7:5:8Z</time></trkpt>
<trkpt lat="43.4581891" lon="6.8604008"><ele></ele><time>2022-5-31T7:5:11Z</time></trkpt>
<trkpt lat="43.4581971" lon="6.8603944"><ele></ele><time>2022-5-31T7:5:14Z</time></trkpt>
<trkpt lat="43.4582106" lon="6.8603937"><ele></ele><time>2022-5-31T7:5:17Z</time></trkpt>
<trkpt lat="43.4582201" lon="6.8603920"><ele></ele><time>2022-5-31T7:5:20Z</time></trkpt>
<trkpt lat="43.4582247" lon="6.8603907"><ele></ele><time>2022-5-31T7:5:23Z</time></trkpt>
<trkpt lat="43.4582302" lon="6.8603889"><ele></ele><time>2022-5-31T7:5:26Z</time></trkpt>
<trkpt lat="43.4582455" lon="6.8603743"><ele></ele><time>2022-5-31T7:5:29Z</time></trkpt>
<trkpt lat="43.4582548" lon="6.8603660"><ele></ele><time>2022-5-31T7:5:32Z</time></trkpt>
<trkpt lat="43.4582611" lon="6.8603624"><ele></ele><time>2022-5-31T7:5:35Z</time></trkpt>
<trkpt lat="43.4582685" lon="6.8603548"><ele></ele><time>2022-5-31T7:5:38Z</time></trkpt>
<trkpt lat="43.4582737" lon="6.8603476"><ele></ele><time>2022-5-31T7:5:41Z</time></trkpt>
<trkpt lat="43.4582850" lon="6.8603435"><ele></ele><time>2022-5-31T7:5:44Z</time></trkpt>
<trkpt lat="43.4583006" lon="6.8603421"><ele></ele><time>2022-5-31T7:5:47Z</time></trkpt>
<trkpt lat="43.4583131" lon="6.8603383"><ele></ele><time>2022-5-31T7:5:50Z</time></trkpt>
<trkpt lat="43.4583148" lon="6.8603346"><ele></ele><time>2022-5-31T7:5:53Z</time></trkpt>
<trkpt lat="43.4583148" lon="6.8603352"><ele></ele><time>2022-5-31T7:5:56Z</time></trkpt>
<trkpt lat="43.4583123" lon="6.8603319"><ele></ele><time>2022-5-31T7:5:59Z</time></trkpt>
<trkpt lat="43.4583120" lon="6.8603318"><ele></ele><time>2022-5-31T7:6:2Z</time></trkpt>
<trkpt lat="43.4583119" lon="6.8603316"><ele></ele><time>2022-5-31T7:6:5Z</time></trkpt>
<trkpt lat="43.4583121" lon="6.8603317"><ele></ele><time>2022-5-31T7:6:8Z</time></trkpt>
<trkpt lat="43.4583116" lon="6.8603315"><ele></ele><time>2022-5-31T7:6:11Z</time></trkpt>
<trkpt lat="43.4583118" lon="6.8603318"><ele></ele><time>2022-5-31T7:6:14Z</time></trkpt>
<trkpt lat="43.4583101" lon="6.8603321"><ele></ele><time>2022-5-31T7:6:17Z</time></trkpt>
<trkpt lat="43.4583099" lon="6.8603328"><ele></ele><time>2022-5-31T7:6:20Z</time></trkpt>
<trkpt lat="43.4583092" lon="6.8603329"><ele></ele><time>2022-5-31T7:6:23Z</time></trkpt>
<trkpt lat="43.4583080" lon="6.8603342"><ele></ele><time>2022-5-31T7:6:26Z</time></trkpt>
<trkpt lat="43.4583064" lon="6.8603340"><ele></ele><time>2022-5-31T7:6:29Z</time></trkpt>
<trkpt lat="43.4582996" lon="6.8603352"><ele></ele><time>2022-5-31T7:6:32Z</time></trkpt>
<trkpt lat="43.4583012" lon="6.8603379"><ele></ele><time>2022-5-31T7:6:35Z</time></trkpt>
<trkpt lat="43.4583152" lon="6.8603400"><ele></ele><time>2022-5-31T7:6:38Z</time></trkpt>
<trkpt lat="43.4583386" lon="6.8603427"><ele></ele><time>2022-5-31T7:6:41Z</time></trkpt>
<trkpt lat="43.4583671" lon="6.8603494"><ele></ele><time>2022-5-31T7:6:44Z</time></trkpt>
<trkpt lat="43.4583907" lon="6.8603499"><ele></ele><time>2022-5-31T7:6:47Z</time></trkpt>
<trkpt lat="43.4584139" lon="6.8603427"><ele></ele><time>2022-5-31T7:6:50Z</time></trkpt>
<trkpt lat="43.4584404" lon="6.8603341"><ele></ele><time>2022-5-31T7:6:53Z</time></trkpt>
<trkpt lat="43.4584716" lon="6.8603289"><ele></ele><time>2022-5-31T7:6:56Z</time></trkpt>
<trkpt lat="43.4584942" lon="6.8603343"><ele></ele><time>2022-5-31T7:6:59Z</time></trkpt>
<trkpt lat="43.4585140" lon="6.8603494"><ele></ele><time>2022-5-31T7:7:2Z</time></trkpt>
<trkpt lat="43.4585386" lon="6.8603474"><ele></ele><time>2022-5-31T7:7:5Z</time></trkpt>
<trkpt lat="43.4585649" lon="6.8603443"><ele></ele><time>2022-5-31T7:7:8Z</time></trkpt>
<trkpt lat="43.4585848" lon="6.8603456"><ele></ele><time>2022-5-31T7:7:11Z</time></trkpt>
<trkpt lat="43.4586026" lon="6.8603530"><ele></ele><time>2022-5-31T7:7:14Z</time></trkpt>
<trkpt lat="43.4586189" lon="6.8603563"><ele></ele><time>2022-5-31T7:7:17Z</time></trkpt>
<trkpt lat="43.4586362" lon="6.8603446"><ele></ele><time>2022-5-31T7:7:20Z</time></trkpt>
<trkpt lat="43.4586515" lon="6.8603304"><ele></ele><time>2022-5-31T7:7:23Z</time></trkpt>
<trkpt lat="43.4586658" lon="6.8603323"><ele></ele><time>2022-5-31T7:7:26Z</time></trkpt>
<trkpt lat="43.4586880" lon="6.8603344"><ele></ele><time>2022-5-31T7:7:29Z</time></trkpt>
<trkpt lat="43.4587061" lon="6.8603478"><ele></ele><time>2022-5-31T7:7:32Z</time></trkpt>
<trkpt lat="43.4587269" lon="6.8603633"><ele></ele><time>2022-5-31T7:7:35Z</time></trkpt>
<trkpt lat="43.4587461" lon="6.8603616"><ele></ele><time>2022-5-31T7:7:38Z</time></trkpt>
<trkpt lat="43.4587648" lon="6.8603662"><ele></ele><time>2022-5-31T7:7:41Z</time></trkpt>
<trkpt lat="43.4587852" lon="6.8603773"><ele></ele><time>2022-5-31T7:7:44Z</time></trkpt>
<trkpt lat="43.4588100" lon="6.8603816"><ele></ele><time>2022-5-31T7:7:47Z</time></trkpt>
<trkpt lat="43.4588320" lon="6.8603736"><ele></ele><time>2022-5-31T7:7:50Z</time></trkpt>
<trkpt lat="43.4588540" lon="6.8603617"><ele></ele><time>2022-5-31T7:7:53Z</time></trkpt>
<trkpt lat="43.4588729" lon="6.8603532"><ele></ele><time>2022-5-31T7:7:56Z</time></trkpt>
<trkpt lat="43.4588854" lon="6.8603444"><ele></ele><time>2022-5-31T7:7:59Z</time></trkpt>
<trkpt lat="43.4588986" lon="6.8603351"><ele></ele><time>2022-5-31T7:8:2Z</time></trkpt>
<trkpt lat="43.4589207" lon="6.8603224"><ele></ele><time>2022-5-31T7:8:5Z</time></trkpt>
<trkpt lat="43.4589435" lon="6.8603202"><ele></ele><time>2022-5-31T7:8:8Z</time></trkpt>
<trkpt lat="43.4589563" lon="6.8603172"><ele></ele><time>2022-5-31T7:8:11Z</time></trkpt>
<trkpt lat="43.4589614" lon="6.8603114"><ele></ele><time>2022-5-31T7:8:14Z</time></trkpt>
<trkpt lat="43.4589782" lon="6.8603079"><ele></ele><time>2022-5-31T7:8:17Z</time></trkpt>
<trkpt lat="43.4589956" lon="6.8602985"><ele></ele><time>2022-5-31T7:8:20Z</time></trkpt>
<trkpt lat="43.4590166" lon="6.8602885"><ele></ele><time>2022-5-31T7:8:23Z</time></trkpt>
<trkpt lat="43.4590323" lon="6.8602832"><ele></ele><time>2022-5-31T7:8:26Z</time></trkpt>
<trkpt lat="43.4590459" lon="6.8602784"><ele></ele><time>2022-5-31T7:8:29Z</time></trkpt>
<trkpt lat="43.4590656" lon="6.8602735"><ele></ele><time>2022-5-31T7:8:32Z</time></trkpt>
<trkpt lat="43.4590879" lon="6.8602690"><ele></ele><time>2022-5-31T7:8:35Z</time></trkpt>
<trkpt lat="43.4591101" lon="6.8602628"><ele></ele><time>2022-5-31T7:8:38Z</time></trkpt>
<trkpt lat="43.4591213" lon="6.8602569"><ele></ele><time>2022-5-31T7:8:41Z</time></trkpt>
<trkpt lat="43.4591407" lon="6.8602521"><ele></ele><time>2022-5-31T7:8:44Z</time></trkpt>
<trkpt lat="43.4591673" lon="6.8602434"><ele></ele><time>2022-5-31T7:8:47Z</time></trkpt>
<trkpt lat="43.4591907" lon="6.8602362"><ele></ele><time>2022-5-31T7:8:50Z</time></trkpt>
<trkpt lat="43.4592142" lon="6.8602273"><ele></ele><time>2022-5-31T7:8:53Z</time></trkpt>
<trkpt lat="43.4592363" lon="6.8602180"><ele></ele><time>2022-5-31T7:8:56Z</time></trkpt>
<trkpt lat="43.4592564" lon="6.8602082"><ele></ele><time>2022-5-31T7:8:59Z</time></trkpt>
<trkpt lat="43.4592754" lon="6.8602040"><ele></ele><time>2022-5-31T7:9:2Z</time></trkpt>
<trkpt lat="43.4592969" lon="6.8602114"><ele></ele><time>2022-5-31T7:9:5Z</time></trkpt>
<trkpt lat="43.4593132" lon="6.8602070"><ele></ele><time>2022-5-31T7:9:8Z</time></trkpt>
<trkpt lat="43.4593299" lon="6.8601945"><ele></ele><time>2022-5-31T7:9:11Z</time></trkpt>
<trkpt lat="43.4593508" lon="6.8601937"><ele></ele><time>2022-5-31T7:9:14Z</time></trkpt>
<trkpt lat="43.4593743" lon="6.8601961"><ele></ele><time>2022-5-31T7:9:17Z</time></trkpt>
<trkpt lat="43.4593950" lon="6.8601965"><ele></ele><time>2022-5-31T7:9:20Z</time></trkpt>
<trkpt lat="43.4594145" lon="6.8601834"><ele></ele><time>2022-5-31T7:9:23Z</time></trkpt>
<trkpt lat="43.4594326" lon="6.8601708"><ele></ele><time>2022-5-31T7:9:26Z</time></trkpt>
<trkpt lat="43.4594505" lon="6.8601595"><ele></ele><time>2022-5-31T7:9:29Z</time></trkpt>
<trkpt lat="43.4594694" lon="6.8601497"><ele></ele><time>2022-5-31T7:9:32Z</time></trkpt>
<trkpt lat="43.4594834" lon="6.8601418"><ele></ele><time>2022-5-31T7:9:35Z</time></trkpt>
<trkpt lat="43.4594997" lon="6.8601307"><ele></ele><time>2022-5-31T7:9:38Z</time></trkpt>
<trkpt lat="43.4595177" lon="6.8601213"><ele></ele><time>2022-5-31T7:9:41Z</time></trkpt>
<trkpt lat="43.4595348" lon="6.8601132"><ele></ele><time>2022-5-31T7:9:44Z</time></trkpt>
<trkpt lat="43.4595488" lon="6.8601081"><ele></ele><time>2022-5-31T7:9:47Z</time></trkpt>
<trkpt lat="43.4595653" lon="6.8600980"><ele></ele><time>2022-5-31T7:9:50Z</time></trkpt>
<trkpt lat="43.4595818" lon="6.8600856"><ele></ele><time>2022-5-31T7:9:53Z</time></trkpt>
<trkpt lat="43.4596011" lon="6.8600729"><ele></ele><time>2022-5-31T7:9:56Z</time></trkpt>
<trkpt lat="43.4596181" lon="6.8600590"><ele></ele><time>2022-5-31T7:9:59Z</time></trkpt>
<trkpt lat="43.4596372" lon="6.8600459"><ele></ele><time>2022-5-31T7:10:2Z</time></trkpt>
<trkpt lat="43.4596550" lon="6.8600355"><ele></ele><time>2022-5-31T7:10:5Z</time></trkpt>
<trkpt lat="43.4596720" lon="6.8600262"><ele></ele><time>2022-5-31T7:10:8Z</time></trkpt>
<trkpt lat="43.4596943" lon="6.8600150"><ele></ele><time>2022-5-31T7:10:11Z</time></trkpt>
<trkpt lat="43.4597157" lon="6.8600076"><ele></ele><time>2022-5-31T7:10:14Z</time></trkpt>
<trkpt lat="43.4597317" lon="6.8599999"><ele></ele><time>2022-5-31T7:10:17Z</time></trkpt>
<trkpt lat="43.4597538" lon="6.8599866"><ele></ele><time>2022-5-31T7:10:20Z</time></trkpt>
<trkpt lat="43.4597744" lon="6.8599798"><ele></ele><time>2022-5-31T7:10:23Z</time></trkpt>
<trkpt lat="43.4597961" lon="6.8599929"><ele></ele><time>2022-5-31T7:10:26Z</time></trkpt>
<trkpt lat="43.4598176" lon="6.8599928"><ele></ele><time>2022-5-31T7:10:29Z</time></trkpt>
<trkpt lat="43.4598451" lon="6.8599805"><ele></ele><time>2022-5-31T7:10:32Z</time></trkpt>
<trkpt lat="43.4598709" lon="6.8599758"><ele></ele><time>2022-5-31T7:10:35Z</time></trkpt>
<trkpt lat="43.4598974" lon="6.8599771"><ele></ele><time>2022-5-31T7:10:38Z</time></trkpt>
<trkpt lat="43.4599265" lon="6.8599785"><ele></ele><time>2022-5-31T7:10:41Z</time></trkpt>
<trkpt lat="43.4599605" lon="6.8599820"><ele></ele><time>2022-5-31T7:10:44Z</time></trkpt>
<trkpt lat="43.4599895" lon="6.8599838"><ele></ele><time>2022-5-31T7:10:47Z</time></trkpt>
<trkpt lat="43.4600208" lon="6.8599789"><ele></ele><time>2022-5-31T7:10:50Z</time></trkpt>
<trkpt lat="43.4600522" lon="6.8599760"><ele></ele><time>2022-5-31T7:10:53Z</time></trkpt>
<trkpt lat="43.4600835" lon="6.8599730"><ele></ele><time>2022-5-31T7:10:56Z</time></trkpt>
<trkpt lat="43.4601122" lon="6.8599766"><ele></ele><time>2022-5-31T7:10:59Z</time></trkpt>
<trkpt lat="43.4601414" lon="6.8599792"><ele></ele><time>2022-5-31T7:11:2Z</time></trkpt>
<trkpt lat="43.4601631" lon="6.8599855"><ele></ele><time>2022-5-31T7:11:5Z</time></trkpt>
<trkpt lat="43.4601811" lon="6.8599934"><ele></ele><time>2022-5-31T7:11:8Z</time></trkpt>
<trkpt lat="43.4602055" lon="6.8600005"><ele></ele><time>2022-5-31T7:11:11Z</time></trkpt>
<trkpt lat="43.4602267" lon="6.8599967"><ele></ele><time>2022-5-31T7:11:14Z</time></trkpt>
<trkpt lat="43.4602434" lon="6.8599951"><ele></ele><time>2022-5-31T7:11:17Z</time></trkpt>
<trkpt lat="43.4602645" lon="6.8599933"><ele></ele><time>2022-5-31T7:11:20Z</time></trkpt>
<trkpt lat="43.4602837" lon="6.8599890"><ele></ele><time>2022-5-31T7:11:23Z</time></trkpt>
<trkpt lat="43.4603011" lon="6.8599763"><ele></ele><time>2022-5-31T7:11:26Z</time></trkpt>
<trkpt lat="43.4603205" lon="6.8599668"><ele></ele><time>2022-5-31T7:11:29Z</time></trkpt>
<trkpt lat="43.4603396" lon="6.8599661"><ele></ele><time>2022-5-31T7:11:32Z</time></trkpt>
<trkpt lat="43.4603597" lon="6.8599596"><ele></ele><time>2022-5-31T7:11:35Z</time></trkpt>
<trkpt lat="43.4603817" lon="6.8599485"><ele></ele><time>2022-5-31T7:11:38Z</time></trkpt>
<trkpt lat="43.4604018" lon="6.8599391"><ele></ele><time>2022-5-31T7:11:41Z</time></trkpt>
<trkpt lat="43.4604225" lon="6.8599351"><ele></ele><time>2022-5-31T7:11:44Z</time></trkpt>
<trkpt lat="43.4604393" lon="6.8599230"><ele></ele><time>2022-5-31T7:11:47Z</time></trkpt>
<trkpt lat="43.4604564" lon="6.8599033"><ele></ele><time>2022-5-31T7:11:50Z</time></trkpt>
<trkpt lat="43.4604664" lon="6.8598924"><ele></ele><time>2022-5-31T7:11:53Z</time></trkpt>
<trkpt lat="43.4604840" lon="6.8598772"><ele></ele><time>2022-5-31T7:11:56Z</time></trkpt>
<trkpt lat="43.4605026" lon="6.8598555"><ele></ele><time>2022-5-31T7:11:59Z</time></trkpt>
<trkpt lat="43.4605177" lon="6.8598384"><ele></ele><time>2022-5-31T7:12:2Z</time></trkpt>
<trkpt lat="43.4605355" lon="6.8598216"><ele></ele><time>2022-5-31T7:12:5Z</time></trkpt>
<trkpt lat="43.4605518" lon="6.8597990"><ele></ele><time>2022-5-31T7:12:8Z</time></trkpt>
<trkpt lat="43.4605613" lon="6.8597736"><ele></ele><time>2022-5-31T7:12:11Z</time></trkpt>
<trkpt lat="43.4605795" lon="6.8597514"><ele></ele><time>2022-5-31T7:12:14Z</time></trkpt>
<trkpt lat="43.4606003" lon="6.8597318"><ele></ele><time>2022-5-31T7:12:17Z</time></trkpt>
<trkpt lat="43.4606133" lon="6.8597100"><ele></ele><time>2022-5-31T7:12:20Z</time></trkpt>
<trkpt lat="43.4606257" lon="6.8596931"><ele></ele><time>2022-5-31T7:12:23Z</time></trkpt>
<trkpt lat="43.4606416" lon="6.8596798"><ele></ele><time>2022-5-31T7:12:26Z</time></trkpt>
<trkpt lat="43.4606619" lon="6.8596743"><ele></ele><time>2022-5-31T7:12:29Z</time></trkpt>
<trkpt lat="43.4606856" lon="6.8596643"><ele></ele><time>2022-5-31T7:12:32Z</time></trkpt>
<trkpt lat="43.4607077" lon="6.8596461"><ele></ele><time>2022-5-31T7:12:35Z</time></trkpt>
<trkpt lat="43.4607330" lon="6.8596350"><ele></ele><time>2022-5-31T7:12:38Z</time></trkpt>
<trkpt lat="43.4607571" lon="6.8596161"><ele></ele><time>2022-5-31T7:12:41Z</time></trkpt>
<trkpt lat="43.4607827" lon="6.8596037"><ele></ele><time>2022-5-31T7:12:44Z</time></trkpt>
<trkpt lat="43.4608079" lon="6.8595980"><ele></ele><time>2022-5-31T7:12:47Z</time></trkpt>
<trkpt lat="43.4608309" lon="6.8595956"><ele></ele><time>2022-5-31T7:12:50Z</time></trkpt>
<trkpt lat="43.4608547" lon="6.8595956"><ele></ele><time>2022-5-31T7:12:53Z</time></trkpt>
<trkpt lat="43.4608768" lon="6.8595995"><ele></ele><time>2022-5-31T7:12:56Z</time></trkpt>
<trkpt lat="43.4609048" lon="6.8595964"><ele></ele><time>2022-5-31T7:12:59Z</time></trkpt>
<trkpt lat="43.4609271" lon="6.8596025"><ele></ele><time>2022-5-31T7:13:2Z</time></trkpt>
<trkpt lat="43.4609435" lon="6.8596167"><ele></ele><time>2022-5-31T7:13:5Z</time></trkpt>
<trkpt lat="43.4609694" lon="6.8596225"><ele></ele><time>2022-5-31T7:13:8Z</time></trkpt>
<trkpt lat="43.4609984" lon="6.8596133"><ele></ele><time>2022-5-31T7:13:11Z</time></trkpt>
<trkpt lat="43.4610175" lon="6.8596045"><ele></ele><time>2022-5-31T7:13:14Z</time></trkpt>
<trkpt lat="43.4610356" lon="6.8595896"><ele></ele><time>2022-5-31T7:13:17Z</time></trkpt>
<trkpt lat="43.4610352" lon="6.8595697"><ele></ele><time>2022-5-31T7:13:20Z</time></trkpt>
<trkpt lat="43.4610235" lon="6.8595446"><ele></ele><time>2022-5-31T7:13:23Z</time></trkpt>
<trkpt lat="43.4610155" lon="6.8594936"><ele></ele><time>2022-5-31T7:13:26Z</time></trkpt>
<trkpt lat="43.4610139" lon="6.8594571"><ele></ele><time>2022-5-31T7:13:29Z</time></trkpt>
<trkpt lat="43.4610120" lon="6.8594206"><ele></ele><time>2022-5-31T7:13:32Z</time></trkpt>
<trkpt lat="43.4610043" lon="6.8593839"><ele></ele><time>2022-5-31T7:13:35Z</time></trkpt>
<trkpt lat="43.4609976" lon="6.8593532"><ele></ele><time>2022-5-31T7:13:38Z</time></trkpt>
<trkpt lat="43.4609973" lon="6.8593186"><ele></ele><time>2022-5-31T7:13:41Z</time></trkpt>
<trkpt lat="43.4609996" lon="6.8592831"><ele></ele><time>2022-5-31T7:13:44Z</time></trkpt>
<trkpt lat="43.4610039" lon="6.8592555"><ele></ele><time>2022-5-31T7:13:47Z</time></trkpt>
<trkpt lat="43.4610119" lon="6.8592244"><ele></ele><time>2022-5-31T7:13:50Z</time></trkpt>
<trkpt lat="43.4610213" lon="6.8591945"><ele></ele><time>2022-5-31T7:13:53Z</time></trkpt>
<trkpt lat="43.4610331" lon="6.8591682"><ele></ele><time>2022-5-31T7:13:56Z</time></trkpt>
<trkpt lat="43.4610458" lon="6.8591492"><ele></ele><time>2022-5-31T7:13:59Z</time></trkpt>
<trkpt lat="43.4610615" lon="6.8591315"><ele></ele><time>2022-5-31T7:14:2Z</time></trkpt>
<trkpt lat="43.4610800" lon="6.8591196"><ele></ele><time>2022-5-31T7:14:5Z</time></trkpt>
<trkpt lat="43.4610962" lon="6.8591071"><ele></ele><time>2022-5-31T7:14:8Z</time></trkpt>
<trkpt lat="43.4611159" lon="6.8590972"><ele></ele><time>2022-5-31T7:14:11Z</time></trkpt>
<trkpt lat="43.4611379" lon="6.8590898"><ele></ele><time>2022-5-31T7:14:14Z</time></trkpt>
<trkpt lat="43.4611584" lon="6.8590794"><ele></ele><time>2022-5-31T7:14:17Z</time></trkpt>
<trkpt lat="43.4611814" lon="6.8590639"><ele></ele><time>2022-5-31T7:14:20Z</time></trkpt>
<trkpt lat="43.4612026" lon="6.8590510"><ele></ele><time>2022-5-31T7:14:23Z</time></trkpt>
<trkpt lat="43.4612245" lon="6.8590390"><ele></ele><time>2022-5-31T7:14:26Z</time></trkpt>
<trkpt lat="43.4612446" lon="6.8590193"><ele></ele><time>2022-5-31T7:14:29Z</time></trkpt>
<trkpt lat="43.4612622" lon="6.8589926"><ele></ele><time>2022-5-31T7:14:32Z</time></trkpt>
<trkpt lat="43.4612831" lon="6.8589734"><ele></ele><time>2022-5-31T7:14:35Z</time></trkpt>
<trkpt lat="43.4612990" lon="6.8589534"><ele></ele><time>2022-5-31T7:14:38Z</time></trkpt>
<trkpt lat="43.4613142" lon="6.8589292"><ele></ele><time>2022-5-31T7:14:41Z</time></trkpt>
<trkpt lat="43.4613284" lon="6.8589075"><ele></ele><time>2022-5-31T7:14:44Z</time></trkpt>
<trkpt lat="43.4613487" lon="6.8588898"><ele></ele><time>2022-5-31T7:14:47Z</time></trkpt>
<trkpt lat="43.4613714" lon="6.8588790"><ele></ele><time>2022-5-31T7:14:50Z</time></trkpt>
<trkpt lat="43.4613904" lon="6.8588658"><ele></ele><time>2022-5-31T7:14:53Z</time></trkpt>
<trkpt lat="43.4614122" lon="6.8588570"><ele></ele><time>2022-5-31T7:14:56Z</time></trkpt>
<trkpt lat="43.4614352" lon="6.8588509"><ele></ele><time>2022-5-31T7:14:59Z</time></trkpt>
<trkpt lat="43.4614626" lon="6.8588458"><ele></ele><time>2022-5-31T7:15:2Z</time></trkpt>
<trkpt lat="43.4614928" lon="6.8588361"><ele></ele><time>2022-5-31T7:15:5Z</time></trkpt>
<trkpt lat="43.4615252" lon="6.8588246"><ele></ele><time>2022-5-31T7:15:8Z</time></trkpt>
<trkpt lat="43.4615517" lon="6.8588175"><ele></ele><time>2022-5-31T7:15:11Z</time></trkpt>
<trkpt lat="43.4615723" lon="6.8588217"><ele></ele><time>2022-5-31T7:15:14Z</time></trkpt>
<trkpt lat="43.4615881" lon="6.8588219"><ele></ele><time>2022-5-31T7:15:17Z</time></trkpt>
<trkpt lat="43.4616109" lon="6.8588139"><ele></ele><time>2022-5-31T7:15:20Z</time></trkpt>
<trkpt lat="43.4616331" lon="6.8588145"><ele></ele><time>2022-5-31T7:15:23Z</time></trkpt>
<trkpt lat="43.4616539" lon="6.8588159"><ele></ele><time>2022-5-31T7:15:26Z</time></trkpt>
<trkpt lat="43.4616716" lon="6.8588119"><ele></ele><time>2022-5-31T7:15:29Z</time></trkpt>
<trkpt lat="43.4616882" lon="6.8587966"><ele></ele><time>2022-5-31T7:15:32Z</time></trkpt>
<trkpt lat="43.4617115" lon="6.8587927"><ele></ele><time>2022-5-31T7:15:35Z</time></trkpt>
<trkpt lat="43.4617302" lon="6.8587881"><ele></ele><time>2022-5-31T7:15:38Z</time></trkpt>
<trkpt lat="43.4617487" lon="6.8587848"><ele></ele><time>2022-5-31T7:15:41Z</time></trkpt>
<trkpt lat="43.4617690" lon="6.8587824"><ele></ele><time>2022-5-31T7:15:44Z</time></trkpt>
<trkpt lat="43.4617940" lon="6.8587731"><ele></ele><time>2022-5-31T7:15:47Z</time></trkpt>
<trkpt lat="43.4618214" lon="6.8587644"><ele></ele><time>2022-5-31T7:15:50Z</time></trkpt>
<trkpt lat="43.4618485" lon="6.8587589"><ele></ele><time>2022-5-31T7:15:53Z</time></trkpt>
<trkpt lat="43.4618692" lon="6.8587532"><ele></ele><time>2022-5-31T7:15:56Z</time></trkpt>
<trkpt lat="43.4618879" lon="6.8587502"><ele></ele><time>2022-5-31T7:15:59Z</time></trkpt>
<trkpt lat="43.4619150" lon="6.8587449"><ele></ele><time>2022-5-31T7:16:2Z</time></trkpt>
<trkpt lat="43.4619384" lon="6.8587400"><ele></ele><time>2022-5-31T7:16:5Z</time></trkpt>
<trkpt lat="43.4619550" lon="6.8587360"><ele></ele><time>2022-5-31T7:16:8Z</time></trkpt>
<trkpt lat="43.4619705" lon="6.8587302"><ele></ele><time>2022-5-31T7:16:11Z</time></trkpt>
<trkpt lat="43.4619865" lon="6.8587231"><ele></ele><time>2022-5-31T7:16:14Z</time></trkpt>
<trkpt lat="43.4620090" lon="6.8587198"><ele></ele><time>2022-5-31T7:16:17Z</time></trkpt>
<trkpt lat="43.4620393" lon="6.8587253"><ele></ele><time>2022-5-31T7:16:20Z</time></trkpt>
<trkpt lat="43.4620610" lon="6.8587324"><ele></ele><time>2022-5-31T7:16:23Z</time></trkpt>
<trkpt lat="43.4620795" lon="6.8587449"><ele></ele><time>2022-5-31T7:16:26Z</time></trkpt>
<trkpt lat="43.4620970" lon="6.8587553"><ele></ele><time>2022-5-31T7:16:29Z</time></trkpt>
<trkpt lat="43.4621190" lon="6.8587706"><ele></ele><time>2022-5-31T7:16:32Z</time></trkpt>
<trkpt lat="43.4621435" lon="6.8588018"><ele></ele><time>2022-5-31T7:16:35Z</time></trkpt>
<trkpt lat="43.4621666" lon="6.8588306"><ele></ele><time>2022-5-31T7:16:38Z</time></trkpt>
<trkpt lat="43.4621905" lon="6.8588637"><ele></ele><time>2022-5-31T7:16:41Z</time></trkpt>
<trkpt lat="43.4622123" lon="6.8589002"><ele></ele><time>2022-5-31T7:16:44Z</time></trkpt>
<trkpt lat="43.4622278" lon="6.8589323"><ele></ele><time>2022-5-31T7:16:47Z</time></trkpt>
<trkpt lat="43.4622396" lon="6.8589597"><ele></ele><time>2022-5-31T7:16:50Z</time></trkpt>
<trkpt lat="43.4622427" lon="6.8589865"><ele></ele><time>2022-5-31T7:16:53Z</time></trkpt>
<trkpt lat="43.4622491" lon="6.8590164"><ele></ele><time>2022-5-31T7:16:56Z</time></trkpt>
<trkpt lat="43.4622579" lon="6.8590509"><ele></ele><time>2022-5-31T7:16:59Z</time></trkpt>
<trkpt lat="43.4622693" lon="6.8590831"><ele></ele><time>2022-5-31T7:17:2Z</time></trkpt>
<trkpt lat="43.4622791" lon="6.8591201"><ele></ele><time>2022-5-31T7:17:5Z</time></trkpt>
<trkpt lat="43.4622809" lon="6.8591579"><ele></ele><time>2022-5-31T7:17:8Z</time></trkpt>
<trkpt lat="43.4622842" lon="6.8591757"><ele></ele><time>2022-5-31T7:17:11Z</time></trkpt>
<trkpt lat="43.4622934" lon="6.8591987"><ele></ele><time>2022-5-31T7:17:14Z</time></trkpt>
<trkpt lat="43.4622915" lon="6.8592238"><ele></ele><time>2022-5-31T7:17:17Z</time></trkpt>
<trkpt lat="43.4622937" lon="6.8592460"><ele></ele><time>2022-5-31T7:17:20Z</time></trkpt>
<trkpt lat="43.4622931" lon="6.8592677"><ele></ele><time>2022-5-31T7:17:23Z</time></trkpt>
<trkpt lat="43.4622890" lon="6.8592933"><ele></ele><time>2022-5-31T7:17:26Z</time></trkpt>
<trkpt lat="43.4622866" lon="6.8593146"><ele></ele><time>2022-5-31T7:17:29Z</time></trkpt>
<trkpt lat="43.4622918" lon="6.8593365"><ele></ele><time>2022-5-31T7:17:32Z</time></trkpt>
<trkpt lat="43.4622945" lon="6.8593636"><ele></ele><time>2022-5-31T7:17:35Z</time></trkpt>
<trkpt lat="43.4622931" lon="6.8593904"><ele></ele><time>2022-5-31T7:17:38Z</time></trkpt>
<trkpt lat="43.4622972" lon="6.8594175"><ele></ele><time>2022-5-31T7:17:41Z</time></trkpt>
<trkpt lat="43.4622986" lon="6.8594422"><ele></ele><time>2022-5-31T7:17:44Z</time></trkpt>
<trkpt lat="43.4622991" lon="6.8594662"><ele></ele><time>2022-5-31T7:17:47Z</time></trkpt>
<trkpt lat="43.4623138" lon="6.8594869"><ele></ele><time>2022-5-31T7:17:50Z</time></trkpt>
<trkpt lat="43.4623269" lon="6.8595141"><ele></ele><time>2022-5-31T7:17:53Z</time></trkpt>
<trkpt lat="43.4623337" lon="6.8595475"><ele></ele><time>2022-5-31T7:17:56Z</time></trkpt>
<trkpt lat="43.4623436" lon="6.8595788"><ele></ele><time>2022-5-31T7:17:59Z</time></trkpt>
<trkpt lat="43.4623561" lon="6.8596061"><ele></ele><time>2022-5-31T7:18:2Z</time></trkpt>
<trkpt lat="43.4623716" lon="6.8596335"><ele></ele><time>2022-5-31T7:18:5Z</time></trkpt>
<trkpt lat="43.4623904" lon="6.8596560"><ele></ele><time>2022-5-31T7:18:8Z</time></trkpt>
<trkpt lat="43.4624082" lon="6.8596771"><ele></ele><time>2022-5-31T7:18:11Z</time></trkpt>
<trkpt lat="43.4624270" lon="6.8596994"><ele></ele><time>2022-5-31T7:18:14Z</time></trkpt>
<trkpt lat="43.4624427" lon="6.8597205"><ele></ele><time>2022-5-31T7:18:17Z</time></trkpt>
<trkpt lat="43.4624649" lon="6.8597299"><ele></ele><time>2022-5-31T7:18:20Z</time></trkpt>
<trkpt lat="43.4624866" lon="6.8597327"><ele></ele><time>2022-5-31T7:18:23Z</time></trkpt>
<trkpt lat="43.4625081" lon="6.8597223"><ele></ele><time>2022-5-31T7:18:26Z</time></trkpt>
<trkpt lat="43.4625268" lon="6.8597025"><ele></ele><time>2022-5-31T7:18:29Z</time></trkpt>
<trkpt lat="43.4625507" lon="6.8596813"><ele></ele><time>2022-5-31T7:18:32Z</time></trkpt>
<trkpt lat="43.4625821" lon="6.8596574"><ele></ele><time>2022-5-31T7:18:35Z</time></trkpt>
<trkpt lat="43.4626164" lon="6.8596347"><ele></ele><time>2022-5-31T7:18:38Z</time></trkpt>
<trkpt lat="43.4626492" lon="6.8596078"><ele></ele><time>2022-5-31T7:18:41Z</time></trkpt>
<trkpt lat="43.4626785" lon="6.8595892"><ele></ele><time>2022-5-31T7:18:44Z</time></trkpt>
<trkpt lat="43.4627033" lon="6.8595684"><ele></ele><time>2022-5-31T7:18:47Z</time></trkpt>
<trkpt lat="43.4627289" lon="6.8595461"><ele></ele><time>2022-5-31T7:18:50Z</time></trkpt>
<trkpt lat="43.4627594" lon="6.8595342"><ele></ele><time>2022-5-31T7:18:53Z</time></trkpt>
<trkpt lat="43.4627795" lon="6.8595166"><ele></ele><time>2022-5-31T7:18:56Z</time></trkpt>
<trkpt lat="43.4627998" lon="6.8594992"><ele></ele><time>2022-5-31T7:18:59Z</time></trkpt>
<trkpt lat="43.4628246" lon="6.8594816"><ele></ele><time>2022-5-31T7:19:2Z</time></trkpt>
<trkpt lat="43.4628433" lon="6.8594625"><ele></ele><time>2022-5-31T7:19:5Z</time></trkpt>
<trkpt lat="43.4628615" lon="6.8594470"><ele></ele><time>2022-5-31T7:19:8Z</time></trkpt>
<trkpt lat="43.4628800" lon="6.8594363"><ele></ele><time>2022-5-31T7:19:11Z</time></trkpt>
<trkpt lat="43.4628960" lon="6.8594281"><ele></ele><time>2022-5-31T7:19:14Z</time></trkpt>
<trkpt lat="43.4629123" lon="6.8594182"><ele></ele><time>2022-5-31T7:19:17Z</time></trkpt>
<trkpt lat="43.4629246" lon="6.8594038"><ele></ele><time>2022-5-31T7:19:20Z</time></trkpt>
<trkpt lat="43.4629429" lon="6.8593966"><ele></ele><time>2022-5-31T7:19:23Z</time></trkpt>
<trkpt lat="43.4629609" lon="6.8593835"><ele></ele><time>2022-5-31T7:19:26Z</time></trkpt>
<trkpt lat="43.4629774" lon="6.8593735"><ele></ele><time>2022-5-31T7:19:29Z</time></trkpt>
<trkpt lat="43.4629877" lon="6.8593603"><ele></ele><time>2022-5-31T7:19:32Z</time></trkpt>
<trkpt lat="43.4629999" lon="6.8593495"><ele></ele><time>2022-5-31T7:19:35Z</time></trkpt>
<trkpt lat="43.4630150" lon="6.8593484"><ele></ele><time>2022-5-31T7:19:38Z</time></trkpt>
<trkpt lat="43.4630301" lon="6.8593434"><ele></ele><time>2022-5-31T7:19:41Z</time></trkpt>
<trkpt lat="43.4630434" lon="6.8593336"><ele></ele><time>2022-5-31T7:19:44Z</time></trkpt>
<trkpt lat="43.4630582" lon="6.8593206"><ele></ele><time>2022-5-31T7:19:47Z</time></trkpt>
<trkpt lat="43.4630760" lon="6.8593135"><ele></ele><time>2022-5-31T7:19:50Z</time></trkpt>
<trkpt lat="43.4630885" lon="6.8593065"><ele></ele><time>2022-5-31T7:19:53Z</time></trkpt>
<trkpt lat="43.4631033" lon="6.8592911"><ele></ele><time>2022-5-31T7:19:56Z</time></trkpt>
<trkpt lat="43.4631172" lon="6.8592717"><ele></ele><time>2022-5-31T7:19:59Z</time></trkpt>
<trkpt lat="43.4631336" lon="6.8592464"><ele></ele><time>2022-5-31T7:20:2Z</time></trkpt>
<trkpt lat="43.4631557" lon="6.8592191"><ele></ele><time>2022-5-31T7:20:5Z</time></trkpt>
<trkpt lat="43.4631844" lon="6.8591819"><ele></ele><time>2022-5-31T7:20:8Z</time></trkpt>
<trkpt lat="43.4632107" lon="6.8591344"><ele></ele><time>2022-5-31T7:20:11Z</time></trkpt>
<trkpt lat="43.4632293" lon="6.8590911"><ele></ele><time>2022-5-31T7:20:14Z</time></trkpt>
<trkpt lat="43.4632383" lon="6.8590530"><ele></ele><time>2022-5-31T7:20:17Z</time></trkpt>
<trkpt lat="43.4632303" lon="6.8590114"><ele></ele><time>2022-5-31T7:20:20Z</time></trkpt>
<trkpt lat="43.4632229" lon="6.8589670"><ele></ele><time>2022-5-31T7:20:23Z</time></trkpt>
<trkpt lat="43.4632231" lon="6.8589189"><ele></ele><time>2022-5-31T7:20:26Z</time></trkpt>
<trkpt lat="43.4632266" lon="6.8588709"><ele></ele><time>2022-5-31T7:20:29Z</time></trkpt>
<trkpt lat="43.4632361" lon="6.8588249"><ele></ele><time>2022-5-31T7:20:32Z</time></trkpt>
<trkpt lat="43.4632473" lon="6.8587770"><ele></ele><time>2022-5-31T7:20:35Z</time></trkpt>
<trkpt lat="43.4632585" lon="6.8587333"><ele></ele><time>2022-5-31T7:20:38Z</time></trkpt>
<trkpt lat="43.4632731" lon="6.8586885"><ele></ele><time>2022-5-31T7:20:41Z</time></trkpt>
<trkpt lat="43.4632897" lon="6.8586363"><ele></ele><time>2022-5-31T7:20:44Z</time></trkpt>
<trkpt lat="43.4633090" lon="6.8585821"><ele></ele><time>2022-5-31T7:20:47Z</time></trkpt>
<trkpt lat="43.4633279" lon="6.8585260"><ele></ele><time>2022-5-31T7:20:50Z</time></trkpt>
<trkpt lat="43.4633440" lon="6.8584781"><ele></ele><time>2022-5-31T7:20:53Z</time></trkpt>
<trkpt lat="43.4633626" lon="6.8584360"><ele></ele><time>2022-5-31T7:20:56Z</time></trkpt>
<trkpt lat="43.4633819" lon="6.8583935"><ele></ele><time>2022-5-31T7:20:59Z</time></trkpt>
<trkpt lat="43.4634047" lon="6.8583508"><ele></ele><time>2022-5-31T7:21:2Z</time></trkpt>
<trkpt lat="43.4634302" lon="6.8583103"><ele></ele><time>2022-5-31T7:21:5Z</time></trkpt>
<trkpt lat="43.4634550" lon="6.8582680"><ele></ele><time>2022-5-31T7:21:8Z</time></trkpt>
<trkpt lat="43.4634855" lon="6.8582260"><ele></ele><time>2022-5-31T7:21:11Z</time></trkpt>
<trkpt lat="43.4635137" lon="6.8581839"><ele></ele><time>2022-5-31T7:21:14Z</time></trkpt>
<trkpt lat="43.4635433" lon="6.8581402"><ele></ele><time>2022-5-31T7:21:17Z</time></trkpt>
<trkpt lat="43.4635798" lon="6.8581007"><ele></ele><time>2022-5-31T7:21:20Z</time></trkpt>
<trkpt lat="43.4636161" lon="6.8580633"><ele></ele><time>2022-5-31T7:21:23Z</time></trkpt>
<trkpt lat="43.4636536" lon="6.8580214"><ele></ele><time>2022-5-31T7:21:26Z</time></trkpt>
<trkpt lat="43.4636900" lon="6.8579839"><ele></ele><time>2022-5-31T7:21:29Z</time></trkpt>
<trkpt lat="43.4637350" lon="6.8579428"><ele></ele><time>2022-5-31T7:21:32Z</time></trkpt>
<trkpt lat="43.4637764" lon="6.8579088"><ele></ele><time>2022-5-31T7:21:35Z</time></trkpt>
<trkpt lat="43.4638135" lon="6.8578776"><ele></ele><time>2022-5-31T7:21:38Z</time></trkpt>
<trkpt lat="43.4638505" lon="6.8578564"><ele></ele><time>2022-5-31T7:21:41Z</time></trkpt>
<trkpt lat="43.4638976" lon="6.8578365"><ele></ele><time>2022-5-31T7:21:44Z</time></trkpt>
<trkpt lat="43.4639462" lon="6.8578199"><ele></ele><time>2022-5-31T7:21:47Z</time></trkpt>
<trkpt lat="43.4639826" lon="6.8577974"><ele></ele><time>2022-5-31T7:21:50Z</time></trkpt>
<trkpt lat="43.4639932" lon="6.8577460"><ele></ele><time>2022-5-31T7:21:53Z</time></trkpt>
<trkpt lat="43.4639828" lon="6.8576762"><ele></ele><time>2022-5-31T7:21:56Z</time></trkpt>
<trkpt lat="43.4639607" lon="6.8576309"><ele></ele><time>2022-5-31T7:21:59Z</time></trkpt>
<trkpt lat="43.4639261" lon="6.8576216"><ele></ele><time>2022-5-31T7:22:2Z</time></trkpt>
<trkpt lat="43.4638902" lon="6.8575963"><ele></ele><time>2022-5-31T7:22:5Z</time></trkpt>
<trkpt lat="43.4638520" lon="6.8575485"><ele></ele><time>2022-5-31T7:22:8Z</time></trkpt>
<trkpt lat="43.4638075" lon="6.8575113"><ele></ele><time>2022-5-31T7:22:11Z</time></trkpt>
<trkpt lat="43.4637625" lon="6.8574804"><ele></ele><time>2022-5-31T7:22:14Z</time></trkpt>
<trkpt lat="43.4637171" lon="6.8574502"><ele></ele><time>2022-5-31T7:22:17Z</time></trkpt>
<trkpt lat="43.4636653" lon="6.8574201"><ele></ele><time>2022-5-31T7:22:20Z</time></trkpt>
<trkpt lat="43.4636176" lon="6.8573890"><ele></ele><time>2022-5-31T7:22:23Z</time></trkpt>
<trkpt lat="43.4635796" lon="6.8573533"><ele></ele><time>2022-5-31T7:22:26Z</time></trkpt>
<trkpt lat="43.4635506" lon="6.8572980"><ele></ele><time>2022-5-31T7:22:29Z</time></trkpt>
<trkpt lat="43.4635289" lon="6.8572373"><ele></ele><time>2022-5-31T7:22:32Z</time></trkpt>
<trkpt lat="43.4635238" lon="6.8571705"><ele></ele><time>2022-5-31T7:22:35Z</time></trkpt>
<trkpt lat="43.4635262" lon="6.8570949"><ele></ele><time>2022-5-31T7:22:38Z</time></trkpt>
<trkpt lat="43.4635364" lon="6.8570279"><ele></ele><time>2022-5-31T7:22:41Z</time></trkpt>
<trkpt lat="43.4635477" lon="6.8569657"><ele></ele><time>2022-5-31T7:22:44Z</time></trkpt>
<trkpt lat="43.4635646" lon="6.8569039"><ele></ele><time>2022-5-31T7:22:47Z</time></trkpt>
<trkpt lat="43.4635874" lon="6.8568356"><ele></ele><time>2022-5-31T7:22:50Z</time></trkpt>
<trkpt lat="43.4636075" lon="6.8567660"><ele></ele><time>2022-5-31T7:22:53Z</time></trkpt>
<trkpt lat="43.4636171" lon="6.8566996"><ele></ele><time>2022-5-31T7:22:56Z</time></trkpt>
<trkpt lat="43.4636140" lon="6.8566314"><ele></ele><time>2022-5-31T7:22:59Z</time></trkpt>
<trkpt lat="43.4635990" lon="6.8565710"><ele></ele><time>2022-5-31T7:23:2Z</time></trkpt>
<trkpt lat="43.4635819" lon="6.8565086"><ele></ele><time>2022-5-31T7:23:5Z</time></trkpt>
<trkpt lat="43.4635682" lon="6.8564452"><ele></ele><time>2022-5-31T7:23:8Z</time></trkpt>
<trkpt lat="43.4635606" lon="6.8563814"><ele></ele><time>2022-5-31T7:23:11Z</time></trkpt>
<trkpt lat="43.4635578" lon="6.8563172"><ele></ele><time>2022-5-31T7:23:14Z</time></trkpt>
<trkpt lat="43.4635568" lon="6.8562510"><ele></ele><time>2022-5-31T7:23:17Z</time></trkpt>
<trkpt lat="43.4635533" lon="6.8561769"><ele></ele><time>2022-5-31T7:23:20Z</time></trkpt>
<trkpt lat="43.4635563" lon="6.8561010"><ele></ele><time>2022-5-31T7:23:23Z</time></trkpt>
<trkpt lat="43.4635702" lon="6.8560370"><ele></ele><time>2022-5-31T7:23:26Z</time></trkpt>
<trkpt lat="43.4635855" lon="6.8559748"><ele></ele><time>2022-5-31T7:23:29Z</time></trkpt>
<trkpt lat="43.4636081" lon="6.8559037"><ele></ele><time>2022-5-31T7:23:32Z</time></trkpt>
<trkpt lat="43.4636288" lon="6.8558387"><ele></ele><time>2022-5-31T7:23:35Z</time></trkpt>
<trkpt lat="43.4636451" lon="6.8557718"><ele></ele><time>2022-5-31T7:23:38Z</time></trkpt>
<trkpt lat="43.4636616" lon="6.8557020"><ele></ele><time>2022-5-31T7:23:41Z</time></trkpt>
<trkpt lat="43.4636888" lon="6.8556407"><ele></ele><time>2022-5-31T7:23:44Z</time></trkpt>
<trkpt lat="43.4637310" lon="6.8555978"><ele></ele><time>2022-5-31T7:23:47Z</time></trkpt>
<trkpt lat="43.4637710" lon="6.8555449"><ele></ele><time>2022-5-31T7:23:50Z</time></trkpt>
<trkpt lat="43.4637703" lon="6.8554898"><ele></ele><time>2022-5-31T7:23:53Z</time></trkpt>
<trkpt lat="43.4637427" lon="6.8554514"><ele></ele><time>2022-5-31T7:23:56Z</time></trkpt>
<trkpt lat="43.4637097" lon="6.8554381"><ele></ele><time>2022-5-31T7:23:59Z</time></trkpt>
<trkpt lat="43.4636656" lon="6.8554275"><ele></ele><time>2022-5-31T7:24:2Z</time></trkpt>
<trkpt lat="43.4636222" lon="6.8554110"><ele></ele><time>2022-5-31T7:24:5Z</time></trkpt>
<trkpt lat="43.4635891" lon="6.8553939"><ele></ele><time>2022-5-31T7:24:8Z</time></trkpt>
<trkpt lat="43.4635569" lon="6.8553643"><ele></ele><time>2022-5-31T7:24:11Z</time></trkpt>
<trkpt lat="43.4635410" lon="6.8553219"><ele></ele><time>2022-5-31T7:24:14Z</time></trkpt>
<trkpt lat="43.4635271" lon="6.8552790"><ele></ele><time>2022-5-31T7:24:17Z</time></trkpt>
<trkpt lat="43.4635211" lon="6.8552583"><ele></ele><time>2022-5-31T7:24:20Z</time></trkpt>
<trkpt lat="43.4635160" lon="6.8552443"><ele></ele><time>2022-5-31T7:24:23Z</time></trkpt>
<trkpt lat="43.4635140" lon="6.8552332"><ele></ele><time>2022-5-31T7:24:26Z</time></trkpt>
<trkpt lat="43.4635146" lon="6.8552388"><ele></ele><time>2022-5-31T7:24:29Z</time></trkpt>
<trkpt lat="43.4635123" lon="6.8552380"><ele></ele><time>2022-5-31T7:24:32Z</time></trkpt>
<trkpt lat="43.4635118" lon="6.8552369"><ele></ele><time>2022-5-31T7:24:35Z</time></trkpt>
<trkpt lat="43.4635139" lon="6.8552447"><ele></ele><time>2022-5-31T7:24:38Z</time></trkpt>
<trkpt lat="43.4635137" lon="6.8552448"><ele></ele><time>2022-5-31T7:24:41Z</time></trkpt>
<trkpt lat="43.4635136" lon="6.8552459"><ele></ele><time>2022-5-31T7:24:44Z</time></trkpt>
<trkpt lat="43.4635133" lon="6.8552466"><ele></ele><time>2022-5-31T7:24:47Z</time></trkpt>
<trkpt lat="43.4635133" lon="6.8552470"><ele></ele><time>2022-5-31T7:24:50Z</time></trkpt>
<trkpt lat="43.4635127" lon="6.8552462"><ele></ele><time>2022-5-31T7:24:53Z</time></trkpt>
<trkpt lat="43.4635117" lon="6.8552457"><ele></ele><time>2022-5-31T7:24:56Z</time></trkpt>
<trkpt lat="43.4635109" lon="6.8552458"><ele></ele><time>2022-5-31T7:24:59Z</time></trkpt>
<trkpt lat="43.4635107" lon="6.8552451"><ele></ele><time>2022-5-31T7:25:2Z</time></trkpt>
<trkpt lat="43.4635104" lon="6.8552452"><ele></ele><time>2022-5-31T7:25:5Z</time></trkpt>
<trkpt lat="43.4635103" lon="6.8552448"><ele></ele><time>2022-5-31T7:25:8Z</time></trkpt>
<trkpt lat="43.4635092" lon="6.8552369"><ele></ele><time>2022-5-31T7:25:11Z</time></trkpt>
<trkpt lat="43.4635090" lon="6.8552288"><ele></ele><time>2022-5-31T7:25:14Z</time></trkpt>
<trkpt lat="43.4635083" lon="6.8552295"><ele></ele><time>2022-5-31T7:25:17Z</time></trkpt>
<trkpt lat="43.4635071" lon="6.8552275"><ele></ele><time>2022-5-31T7:25:20Z</time></trkpt>
<trkpt lat="43.4635066" lon="6.8552269"><ele></ele><time>2022-5-31T7:25:23Z</time></trkpt>
<trkpt lat="43.4635063" lon="6.8552261"><ele></ele><time>2022-5-31T7:25:26Z</time></trkpt>
<trkpt lat="43.4635063" lon="6.8552258"><ele></ele><time>2022-5-31T7:25:29Z</time></trkpt>
<trkpt lat="43.4635062" lon="6.8552262"><ele></ele><time>2022-5-31T7:25:32Z</time></trkpt>
<trkpt lat="43.4635060" lon="6.8552264"><ele></ele><time>2022-5-31T7:25:35Z</time></trkpt>
<trkpt lat="43.4635061" lon="6.8552257"><ele></ele><time>2022-5-31T7:25:38Z</time></trkpt>
<trkpt lat="43.4635059" lon="6.8552250"><ele></ele><time>2022-5-31T7:25:41Z</time></trkpt>
<trkpt lat="43.4635084" lon="6.8552192"><ele></ele><time>2022-5-31T7:25:44Z</time></trkpt>
<trkpt lat="43.4635224" lon="6.8552118"><ele></ele><time>2022-5-31T7:25:47Z</time></trkpt>
<trkpt lat="43.4635341" lon="6.8552075"><ele></ele><time>2022-5-31T7:25:50Z</time></trkpt>
<trkpt lat="43.4635506" lon="6.8552037"><ele></ele><time>2022-5-31T7:25:53Z</time></trkpt>
<trkpt lat="43.4635670" lon="6.8551911"><ele></ele><time>2022-5-31T7:25:56Z</time></trkpt>
<trkpt lat="43.4635829" lon="6.8551790"><ele></ele><time>2022-5-31T7:25:59Z</time></trkpt>
<trkpt lat="43.4635978" lon="6.8551616"><ele></ele><time>2022-5-31T7:26:2Z</time></trkpt>
<trkpt lat="43.4636140" lon="6.8551468"><ele></ele><time>2022-5-31T7:26:5Z</time></trkpt>
<trkpt lat="43.4636267" lon="6.8551297"><ele></ele><time>2022-5-31T7:26:8Z</time></trkpt>
<trkpt lat="43.4636399" lon="6.8551124"><ele></ele><time>2022-5-31T7:26:11Z</time></trkpt>
<trkpt lat="43.4636572" lon="6.8550975"><ele></ele><time>2022-5-31T7:26:14Z</time></trkpt>
<trkpt lat="43.4636798" lon="6.8550790"><ele></ele><time>2022-5-31T7:26:17Z</time></trkpt>
<trkpt lat="43.4637013" lon="6.8550578"><ele></ele><time>2022-5-31T7:26:20Z</time></trkpt>
<trkpt lat="43.4637180" lon="6.8550404"><ele></ele><time>2022-5-31T7:26:23Z</time></trkpt>
<trkpt lat="43.4637358" lon="6.8550254"><ele></ele><time>2022-5-31T7:26:26Z</time></trkpt>
<trkpt lat="43.4637512" lon="6.8550117"><ele></ele><time>2022-5-31T7:26:29Z</time></trkpt>
<trkpt lat="43.4637690" lon="6.8549932"><ele></ele><time>2022-5-31T7:26:32Z</time></trkpt>
<trkpt lat="43.4637899" lon="6.8549783"><ele></ele><time>2022-5-31T7:26:35Z</time></trkpt>
<trkpt lat="43.4638070" lon="6.8549646"><ele></ele><time>2022-5-31T7:26:38Z</time></trkpt>
<trkpt lat="43.4638244" lon="6.8549491"><ele></ele><time>2022-5-31T7:26:41Z</time></trkpt>
<trkpt lat="43.4638482" lon="6.8549334"><ele></ele><time>2022-5-31T7:26:44Z</time></trkpt>
<trkpt lat="43.4638693" lon="6.8549161"><ele></ele><time>2022-5-31T7:26:47Z</time></trkpt>
<trkpt lat="43.4638889" lon="6.8549017"><ele></ele><time>2022-5-31T7:26:50Z</time></trkpt>
<trkpt lat="43.4639086" lon="6.8548874"><ele></ele><time>2022-5-31T7:26:53Z</time></trkpt>
<trkpt lat="43.4639308" lon="6.8548723"><ele></ele><time>2022-5-31T7:26:56Z</time></trkpt>
<trkpt lat="43.4639503" lon="6.8548585"><ele></ele><time>2022-5-31T7:26:59Z</time></trkpt>
<trkpt lat="43.4639638" lon="6.8548454"><ele></ele><time>2022-5-31T7:27:2Z</time></trkpt>
<trkpt lat="43.4639776" lon="6.8548203"><ele></ele><time>2022-5-31T7:27:5Z</time></trkpt>
<trkpt lat="43.4639962" lon="6.8547967"><ele></ele><time>2022-5-31T7:27:8Z</time></trkpt>
<trkpt lat="43.4640066" lon="6.8547697"><ele></ele><time>2022-5-31T7:27:11Z</time></trkpt>
<trkpt lat="43.4640192" lon="6.8547462"><ele></ele><time>2022-5-31T7:27:14Z</time></trkpt>
<trkpt lat="43.4640388" lon="6.8547439"><ele></ele><time>2022-5-31T7:27:17Z</time></trkpt>
<trkpt lat="43.4640652" lon="6.8547337"><ele></ele><time>2022-5-31T7:27:20Z</time></trkpt>
<trkpt lat="43.4640882" lon="6.8547060"><ele></ele><time>2022-5-31T7:27:23Z</time></trkpt>
<trkpt lat="43.4641150" lon="6.8546754"><ele></ele><time>2022-5-31T7:27:26Z</time></trkpt>
<trkpt lat="43.4641362" lon="6.8546493"><ele></ele><time>2022-5-31T7:27:29Z</time></trkpt>
<trkpt lat="43.4641570" lon="6.8546265"><ele></ele><time>2022-5-31T7:27:32Z</time></trkpt>
<trkpt lat="43.4641771" lon="6.8545990"><ele></ele><time>2022-5-31T7:27:35Z</time></trkpt>
<trkpt lat="43.4641971" lon="6.8545748"><ele></ele><time>2022-5-31T7:27:38Z</time></trkpt>
<trkpt lat="43.4642178" lon="6.8545636"><ele></ele><time>2022-5-31T7:27:41Z</time></trkpt>
<trkpt lat="43.4642409" lon="6.8545627"><ele></ele><time>2022-5-31T7:27:44Z</time></trkpt>
<trkpt lat="43.4642676" lon="6.8545794"><ele></ele><time>2022-5-31T7:27:47Z</time></trkpt>
<trkpt lat="43.4642934" lon="6.8546000"><ele></ele><time>2022-5-31T7:27:50Z</time></trkpt>
<trkpt lat="43.4643101" lon="6.8546257"><ele></ele><time>2022-5-31T7:27:53Z</time></trkpt>
<trkpt lat="43.4643213" lon="6.8546513"><ele></ele><time>2022-5-31T7:27:56Z</time></trkpt>
<trkpt lat="43.4643336" lon="6.8546868"><ele></ele><time>2022-5-31T7:27:59Z</time></trkpt>
<trkpt lat="43.4643586" lon="6.8547193"><ele></ele><time>2022-5-31T7:28:2Z</time></trkpt>
<trkpt lat="43.4643691" lon="6.8547542"><ele></ele><time>2022-5-31T7:28:5Z</time></trkpt>
<trkpt lat="43.4643769" lon="6.8547988"><ele></ele><time>2022-5-31T7:28:8Z</time></trkpt>
<trkpt lat="43.4643926" lon="6.8548333"><ele></ele><time>2022-5-31T7:28:11Z</time></trkpt>
<trkpt lat="43.4644101" lon="6.8548600"><ele></ele><time>2022-5-31T7:28:14Z</time></trkpt>
<trkpt lat="43.4644275" lon="6.8548863"><ele></ele><time>2022-5-31T7:28:17Z</time></trkpt>
<trkpt lat="43.4644509" lon="6.8549128"><ele></ele><time>2022-5-31T7:28:20Z</time></trkpt>
<trkpt lat="43.4644703" lon="6.8549474"><ele></ele><time>2022-5-31T7:28:23Z</time></trkpt>
<trkpt lat="43.4644873" lon="6.8549771"><ele></ele><time>2022-5-31T7:28:26Z</time></trkpt>
<trkpt lat="43.4645042" lon="6.8549936"><ele></ele><time>2022-5-31T7:28:29Z</time></trkpt>
<trkpt lat="43.4645242" lon="6.8550153"><ele></ele><time>2022-5-31T7:28:32Z</time></trkpt>
<trkpt lat="43.4645456" lon="6.8550383"><ele></ele><time>2022-5-31T7:28:35Z</time></trkpt>
<trkpt lat="43.4645696" lon="6.8550585"><ele></ele><time>2022-5-31T7:28:38Z</time></trkpt>
<trkpt lat="43.4645957" lon="6.8550670"><ele></ele><time>2022-5-31T7:28:41Z</time></trkpt>
<trkpt lat="43.4646190" lon="6.8550781"><ele></ele><time>2022-5-31T7:28:44Z</time></trkpt>
<trkpt lat="43.4646401" lon="6.8550900"><ele></ele><time>2022-5-31T7:28:47Z</time></trkpt>
<trkpt lat="43.4646577" lon="6.8551116"><ele></ele><time>2022-5-31T7:28:50Z</time></trkpt>
<trkpt lat="43.4646764" lon="6.8551415"><ele></ele><time>2022-5-31T7:28:53Z</time></trkpt>
<trkpt lat="43.4646799" lon="6.8551743"><ele></ele><time>2022-5-31T7:28:56Z</time></trkpt>
<trkpt lat="43.4646735" lon="6.8552111"><ele></ele><time>2022-5-31T7:28:59Z</time></trkpt>
<trkpt lat="43.4646649" lon="6.8552480"><ele></ele><time>2022-5-31T7:29:2Z</time></trkpt>
<trkpt lat="43.4646561" lon="6.8552833"><ele></ele><time>2022-5-31T7:29:5Z</time></trkpt>
<trkpt lat="43.4646501" lon="6.8553130"><ele></ele><time>2022-5-31T7:29:8Z</time></trkpt>
<trkpt lat="43.4646437" lon="6.8553461"><ele></ele><time>2022-5-31T7:29:11Z</time></trkpt>
<trkpt lat="43.4646394" lon="6.8553722"><ele></ele><time>2022-5-31T7:29:14Z</time></trkpt>
<trkpt lat="43.4646410" lon="6.8554038"><ele></ele><time>2022-5-31T7:29:17Z</time></trkpt>
<trkpt lat="43.4646402" lon="6.8554375"><ele></ele><time>2022-5-31T7:29:20Z</time></trkpt>
<trkpt lat="43.4646340" lon="6.8554639"><ele></ele><time>2022-5-31T7:29:23Z</time></trkpt>
<trkpt lat="43.4646321" lon="6.8554927"><ele></ele><time>2022-5-31T7:29:26Z</time></trkpt>
<trkpt lat="43.4646351" lon="6.8555259"><ele></ele><time>2022-5-31T7:29:29Z</time></trkpt>
<trkpt lat="43.4646415" lon="6.8555618"><ele></ele><time>2022-5-31T7:29:32Z</time></trkpt>
<trkpt lat="43.4646456" lon="6.8556008"><ele></ele><time>2022-5-31T7:29:35Z</time></trkpt>
<trkpt lat="43.4646508" lon="6.8556426"><ele></ele><time>2022-5-31T7:29:38Z</time></trkpt>
<trkpt lat="43.4646690" lon="6.8556838"><ele></ele><time>2022-5-31T7:29:41Z</time></trkpt>
<trkpt lat="43.4646782" lon="6.8557228"><ele></ele><time>2022-5-31T7:29:44Z</time></trkpt>
<trkpt lat="43.4646739" lon="6.8557595"><ele></ele><time>2022-5-31T7:29:47Z</time></trkpt>
<trkpt lat="43.4646723" lon="6.8557933"><ele></ele><time>2022-5-31T7:29:50Z</time></trkpt>
<trkpt lat="43.4646829" lon="6.8558319"><ele></ele><time>2022-5-31T7:29:53Z</time></trkpt>
<trkpt lat="43.4646941" lon="6.8558674"><ele></ele><time>2022-5-31T7:29:56Z</time></trkpt>
<trkpt lat="43.4647095" lon="6.8559035"><ele></ele><time>2022-5-31T7:29:59Z</time></trkpt>
<trkpt lat="43.4647300" lon="6.8559389"><ele></ele><time>2022-5-31T7:30:2Z</time></trkpt>
<trkpt lat="43.4647430" lon="6.8559694"><ele></ele><time>2022-5-31T7:30:5Z</time></trkpt>
<trkpt lat="43.4647587" lon="6.8560021"><ele></ele><time>2022-5-31T7:30:8Z</time></trkpt>
<trkpt lat="43.4647767" lon="6.8560299"><ele></ele><time>2022-5-31T7:30:11Z</time></trkpt>
<trkpt lat="43.4647940" lon="6.8560556"><ele></ele><time>2022-5-31T7:30:14Z</time></trkpt>
<trkpt lat="43.4648087" lon="6.8560824"><ele></ele><time>2022-5-31T7:30:17Z</time></trkpt>
<trkpt lat="43.4648315" lon="6.8561035"><ele></ele><time>2022-5-31T7:30:20Z</time></trkpt>
<trkpt lat="43.4648555" lon="6.8561274"><ele></ele><time>2022-5-31T7:30:23Z</time></trkpt>
<trkpt lat="43.4648698" lon="6.8561592"><ele></ele><time>2022-5-31T7:30:26Z</time></trkpt>
<trkpt lat="43.4648861" lon="6.8561916"><ele></ele><time>2022-5-31T7:30:29Z</time></trkpt>
<trkpt lat="43.4649078" lon="6.8562217"><ele></ele><time>2022-5-31T7:30:32Z</time></trkpt>
<trkpt lat="43.4649260" lon="6.8562484"><ele></ele><time>2022-5-31T7:30:35Z</time></trkpt>
<trkpt lat="43.4649403" lon="6.8562762"><ele></ele><time>2022-5-31T7:30:38Z</time></trkpt>
<trkpt lat="43.4649558" lon="6.8562979"><ele></ele><time>2022-5-31T7:30:41Z</time></trkpt>
<trkpt lat="43.4649766" lon="6.8563221"><ele></ele><time>2022-5-31T7:30:44Z</time></trkpt>
<trkpt lat="43.4649962" lon="6.8563501"><ele></ele><time>2022-5-31T7:30:47Z</time></trkpt>
<trkpt lat="43.4650134" lon="6.8563756"><ele></ele><time>2022-5-31T7:30:50Z</time></trkpt>
<trkpt lat="43.4650328" lon="6.8564018"><ele></ele><time>2022-5-31T7:30:53Z</time></trkpt>
<trkpt lat="43.4650454" lon="6.8564229"><ele></ele><time>2022-5-31T7:30:56Z</time></trkpt>
<trkpt lat="43.4650642" lon="6.8564420"><ele></ele><time>2022-5-31T7:30:59Z</time></trkpt>
<trkpt lat="43.4650884" lon="6.8564631"><ele></ele><time>2022-5-31T7:31:2Z</time></trkpt>
<trkpt lat="43.4651116" lon="6.8564846"><ele></ele><time>2022-5-31T7:31:5Z</time></trkpt>
<trkpt lat="43.4651301" lon="6.8565102"><ele></ele><time>2022-5-31T7:31:8Z</time></trkpt>
<trkpt lat="43.4651446" lon="6.8565393"><ele></ele><time>2022-5-31T7:31:11Z</time></trkpt>
<trkpt lat="43.4651553" lon="6.8565744"><ele></ele><time>2022-5-31T7:31:14Z</time></trkpt>
<trkpt lat="43.4651614" lon="6.8566051"><ele></ele><time>2022-5-31T7:31:17Z</time></trkpt>
<trkpt lat="43.4651657" lon="6.8566364"><ele></ele><time>2022-5-31T7:31:20Z</time></trkpt>
<trkpt lat="43.4651666" lon="6.8566675"><ele></ele><time>2022-5-31T7:31:23Z</time></trkpt>
<trkpt lat="43.4651647" lon="6.8566952"><ele></ele><time>2022-5-31T7:31:26Z</time></trkpt>
<trkpt lat="43.4651807" lon="6.8567172"><ele></ele><time>2022-5-31T7:31:29Z</time></trkpt>
<trkpt lat="43.4652045" lon="6.8567193"><ele></ele><time>2022-5-31T7:31:32Z</time></trkpt>
<trkpt lat="43.4652141" lon="6.8567023"><ele></ele><time>2022-5-31T7:31:35Z</time></trkpt>
<trkpt lat="43.4652065" lon="6.8566822"><ele></ele><time>2022-5-31T7:31:38Z</time></trkpt>
<trkpt lat="43.4651970" lon="6.8566576"><ele></ele><time>2022-5-31T7:31:41Z</time></trkpt>
<trkpt lat="43.4651892" lon="6.8566171"><ele></ele><time>2022-5-31T7:31:44Z</time></trkpt>
<trkpt lat="43.4651849" lon="6.8565740"><ele></ele><time>2022-5-31T7:31:47Z</time></trkpt>
<trkpt lat="43.4651814" lon="6.8565310"><ele></ele><time>2022-5-31T7:31:50Z</time></trkpt>
<trkpt lat="43.4651762" lon="6.8564792"><ele></ele><time>2022-5-31T7:31:53Z</time></trkpt>
<trkpt lat="43.4651714" lon="6.8564268"><ele></ele><time>2022-5-31T7:31:56Z</time></trkpt>
<trkpt lat="43.4651686" lon="6.8563734"><ele></ele><time>2022-5-31T7:31:59Z</time></trkpt>
<trkpt lat="43.4651740" lon="6.8563149"><ele></ele><time>2022-5-31T7:32:2Z</time></trkpt>
<trkpt lat="43.4651891" lon="6.8562577"><ele></ele><time>2022-5-31T7:32:5Z</time></trkpt>
<trkpt lat="43.4652135" lon="6.8562015"><ele></ele><time>2022-5-31T7:32:8Z</time></trkpt>
<trkpt lat="43.4652478" lon="6.8561544"><ele></ele><time>2022-5-31T7:32:11Z</time></trkpt>
<trkpt lat="43.4652842" lon="6.8561232"><ele></ele><time>2022-5-31T7:32:14Z</time></trkpt>
<trkpt lat="43.4653272" lon="6.8561290"><ele></ele><time>2022-5-31T7:32:17Z</time></trkpt>
<trkpt lat="43.4653679" lon="6.8561599"><ele></ele><time>2022-5-31T7:32:20Z</time></trkpt>
<trkpt lat="43.4653859" lon="6.8562128"><ele></ele><time>2022-5-31T7:32:23Z</time></trkpt>
<trkpt lat="43.4654058" lon="6.8562662"><ele></ele><time>2022-5-31T7:32:26Z</time></trkpt>
<trkpt lat="43.4654003" lon="6.8563420"><ele></ele><time>2022-5-31T7:32:29Z</time></trkpt>
<trkpt lat="43.4653894" lon="6.8564173"><ele></ele><time>2022-5-31T7:32:32Z</time></trkpt>
<trkpt lat="43.4653752" lon="6.8564918"><ele></ele><time>2022-5-31T7:32:35Z</time></trkpt>
<trkpt lat="43.4653581" lon="6.8565580"><ele></ele><time>2022-5-31T7:32:38Z</time></trkpt>
<trkpt lat="43.4653399" lon="6.8566224"><ele></ele><time>2022-5-31T7:32:41Z</time></trkpt>
<trkpt lat="43.4653175" lon="6.8566932"><ele></ele><time>2022-5-31T7:32:44Z</time></trkpt>
<trkpt lat="43.4653018" lon="6.8567638"><ele></ele><time>2022-5-31T7:32:47Z</time></trkpt>
<trkpt lat="43.4653012" lon="6.8568393"><ele></ele><time>2022-5-31T7:32:50Z</time></trkpt>
<trkpt lat="43.4652886" lon="6.8569292"><ele></ele><time>2022-5-31T7:32:53Z</time></trkpt>
<trkpt lat="43.4652789" lon="6.8570120"><ele></ele><time>2022-5-31T7:32:56Z</time></trkpt>
<trkpt lat="43.4652917" lon="6.8570922"><ele></ele><time>2022-5-31T7:32:59Z</time></trkpt>
<trkpt lat="43.4653212" lon="6.8571458"><ele></ele><time>2022-5-31T7:33:2Z</time></trkpt>
<trkpt lat="43.4653657" lon="6.8571675"><ele></ele><time>2022-5-31T7:33:5Z</time></trkpt>
<trkpt lat="43.4654178" lon="6.8571626"><ele></ele><time>2022-5-31T7:33:8Z</time></trkpt>
<trkpt lat="43.4654808" lon="6.8571690"><ele></ele><time>2022-5-31T7:33:11Z</time></trkpt>
<trkpt lat="43.4655450" lon="6.8571981"><ele></ele><time>2022-5-31T7:33:14Z</time></trkpt>
<trkpt lat="43.4656037" lon="6.8572244"><ele></ele><time>2022-5-31T7:33:17Z</time></trkpt>
<trkpt lat="43.4656670" lon="6.8572499"><ele></ele><time>2022-5-31T7:33:20Z</time></trkpt>
<trkpt lat="43.4657290" lon="6.8572859"><ele></ele><time>2022-5-31T7:33:23Z</time></trkpt>
<trkpt lat="43.4657937" lon="6.8573248"><ele></ele><time>2022-5-31T7:33:26Z</time></trkpt>
<trkpt lat="43.4658545" lon="6.8573654"><ele></ele><time>2022-5-31T7:33:29Z</time></trkpt>
<trkpt lat="43.4659144" lon="6.8574025"><ele></ele><time>2022-5-31T7:33:32Z</time></trkpt>
<trkpt lat="43.4659812" lon="6.8574392"><ele></ele><time>2022-5-31T7:33:35Z</time></trkpt>
<trkpt lat="43.4660446" lon="6.8574806"><ele></ele><time>2022-5-31T7:33:38Z</time></trkpt>
<trkpt lat="43.4661136" lon="6.8575297"><ele></ele><time>2022-5-31T7:33:41Z</time></trkpt>
<trkpt lat="43.4661919" lon="6.8575791"><ele></ele><time>2022-5-31T7:33:44Z</time></trkpt>
<trkpt lat="43.4662759" lon="6.8576203"><ele></ele><time>2022-5-31T7:33:47Z</time></trkpt>
<trkpt lat="43.4663509" lon="6.8576598"><ele></ele><time>2022-5-31T7:33:50Z</time></trkpt>
<trkpt lat="43.4664160" lon="6.8576946"><ele></ele><time>2022-5-31T7:33:53Z</time></trkpt>
<trkpt lat="43.4664707" lon="6.8577562"><ele></ele><time>2022-5-31T7:33:56Z</time></trkpt>
<trkpt lat="43.4665153" lon="6.8578503"><ele></ele><time>2022-5-31T7:33:59Z</time></trkpt>
<trkpt lat="43.4665269" lon="6.8579635"><ele></ele><time>2022-5-31T7:34:2Z</time></trkpt>
<trkpt lat="43.4665250" lon="6.8580744"><ele></ele><time>2022-5-31T7:34:5Z</time></trkpt>
<trkpt lat="43.4664948" lon="6.8581763"><ele></ele><time>2022-5-31T7:34:8Z</time></trkpt>
<trkpt lat="43.4664512" lon="6.8582812"><ele></ele><time>2022-5-31T7:34:11Z</time></trkpt>
<trkpt lat="43.4664204" lon="6.8583834"><ele></ele><time>2022-5-31T7:34:14Z</time></trkpt>
<trkpt lat="43.4664148" lon="6.8584790"><ele></ele><time>2022-5-31T7:34:17Z</time></trkpt>
<trkpt lat="43.4664517" lon="6.8585637"><ele></ele><time>2022-5-31T7:34:20Z</time></trkpt>
<trkpt lat="43.4665165" lon="6.8586208"><ele></ele><time>2022-5-31T7:34:23Z</time></trkpt>
<trkpt lat="43.4665802" lon="6.8586596"><ele></ele><time>2022-5-31T7:34:26Z</time></trkpt>
<trkpt lat="43.4666425" lon="6.8586865"><ele></ele><time>2022-5-31T7:34:29Z</time></trkpt>
<trkpt lat="43.4667017" lon="6.8587256"><ele></ele><time>2022-5-31T7:34:32Z</time></trkpt>
<trkpt lat="43.4667664" lon="6.8587815"><ele></ele><time>2022-5-31T7:34:35Z</time></trkpt>
<trkpt lat="43.4668303" lon="6.8588071"><ele></ele><time>2022-5-31T7:34:38Z</time></trkpt>
<trkpt lat="43.4668950" lon="6.8587847"><ele></ele><time>2022-5-31T7:34:41Z</time></trkpt>
<trkpt lat="43.4669309" lon="6.8587152"><ele></ele><time>2022-5-31T7:34:44Z</time></trkpt>
<trkpt lat="43.4669268" lon="6.8586279"><ele></ele><time>2022-5-31T7:34:47Z</time></trkpt>
<trkpt lat="43.4669148" lon="6.8585501"><ele></ele><time>2022-5-31T7:34:50Z</time></trkpt>
<trkpt lat="43.4669025" lon="6.8584593"><ele></ele><time>2022-5-31T7:34:53Z</time></trkpt>
<trkpt lat="43.4669012" lon="6.8583698"><ele></ele><time>2022-5-31T7:34:56Z</time></trkpt>
<trkpt lat="43.4669066" lon="6.8582783"><ele></ele><time>2022-5-31T7:34:59Z</time></trkpt>
<trkpt lat="43.4669295" lon="6.8581904"><ele></ele><time>2022-5-31T7:35:2Z</time></trkpt>
<trkpt lat="43.4669623" lon="6.8581065"><ele></ele><time>2022-5-31T7:35:5Z</time></trkpt>
<trkpt lat="43.4669970" lon="6.8580192"><ele></ele><time>2022-5-31T7:35:8Z</time></trkpt>
<trkpt lat="43.4670263" lon="6.8579336"><ele></ele><time>2022-5-31T7:35:11Z</time></trkpt>
<trkpt lat="43.4670580" lon="6.8578451"><ele></ele><time>2022-5-31T7:35:14Z</time></trkpt>
<trkpt lat="43.4670922" lon="6.8577569"><ele></ele><time>2022-5-31T7:35:17Z</time></trkpt>
<trkpt lat="43.4671290" lon="6.8576683"><ele></ele><time>2022-5-31T7:35:20Z</time></trkpt>
<trkpt lat="43.4671608" lon="6.8575749"><ele></ele><time>2022-5-31T7:35:23Z</time></trkpt>
<trkpt lat="43.4671876" lon="6.8574814"><ele></ele><time>2022-5-31T7:35:26Z</time></trkpt>
<trkpt lat="43.4672198" lon="6.8573862"><ele></ele><time>2022-5-31T7:35:29Z</time></trkpt>
<trkpt lat="43.4672525" lon="6.8572870"><ele></ele><time>2022-5-31T7:35:32Z</time></trkpt>
<trkpt lat="43.4672855" lon="6.8571860"><ele></ele><time>2022-5-31T7:35:35Z</time></trkpt>
<trkpt lat="43.4673180" lon="6.8570869"><ele></ele><time>2022-5-31T7:35:38Z</time></trkpt>
<trkpt lat="43.4673559" lon="6.8569874"><ele></ele><time>2022-5-31T7:35:41Z</time></trkpt>
<trkpt lat="43.4674064" lon="6.8568951"><ele></ele><time>2022-5-31T7:35:44Z</time></trkpt>
<trkpt lat="43.4674585" lon="6.8568051"><ele></ele><time>2022-5-31T7:35:47Z</time></trkpt>
<trkpt lat="43.4675197" lon="6.8567306"><ele></ele><time>2022-5-31T7:35:50Z</time></trkpt>
<trkpt lat="43.4675963" lon="6.8566922"><ele></ele><time>2022-5-31T7:35:53Z</time></trkpt>
<trkpt lat="43.4676715" lon="6.8566510"><ele></ele><time>2022-5-31T7:35:56Z</time></trkpt>
<trkpt lat="43.4677495" lon="6.8566103"><ele></ele><time>2022-5-31T7:35:59Z</time></trkpt>
<trkpt lat="43.4678280" lon="6.8565722"><ele></ele><time>2022-5-31T7:36:2Z</time></trkpt>
<trkpt lat="43.4679066" lon="6.8565400"><ele></ele><time>2022-5-31T7:36:5Z</time></trkpt>
<trkpt lat="43.4679853" lon="6.8565165"><ele></ele><time>2022-5-31T7:36:8Z</time></trkpt>
<trkpt lat="43.4680665" lon="6.8564937"><ele></ele><time>2022-5-31T7:36:11Z</time></trkpt>
<trkpt lat="43.4681533" lon="6.8564797"><ele></ele><time>2022-5-31T7:36:14Z</time></trkpt>
<trkpt lat="43.4682380" lon="6.8564659"><ele></ele><time>2022-5-31T7:36:17Z</time></trkpt>
<trkpt lat="43.4683269" lon="6.8564589"><ele></ele><time>2022-5-31T7:36:20Z</time></trkpt>
<trkpt lat="43.4684187" lon="6.8564587"><ele></ele><time>2022-5-31T7:36:23Z</time></trkpt>
<trkpt lat="43.4685091" lon="6.8564666"><ele></ele><time>2022-5-31T7:36:26Z</time></trkpt>
<trkpt lat="43.4686016" lon="6.8564763"><ele></ele><time>2022-5-31T7:36:29Z</time></trkpt>
<trkpt lat="43.4687034" lon="6.8564973"><ele></ele><time>2022-5-31T7:36:32Z</time></trkpt>
<trkpt lat="43.4688032" lon="6.8565084"><ele></ele><time>2022-5-31T7:36:35Z</time></trkpt>
<trkpt lat="43.4689018" lon="6.8565193"><ele></ele><time>2022-5-31T7:36:38Z</time></trkpt>
<trkpt lat="43.4689964" lon="6.8565019"><ele></ele><time>2022-5-31T7:36:41Z</time></trkpt>
<trkpt lat="43.4690801" lon="6.8564643"><ele></ele><time>2022-5-31T7:36:44Z</time></trkpt>
<trkpt lat="43.4691609" lon="6.8564187"><ele></ele><time>2022-5-31T7:36:47Z</time></trkpt>
<trkpt lat="43.4692467" lon="6.8563918"><ele></ele><time>2022-5-31T7:36:50Z</time></trkpt>
<trkpt lat="43.4693370" lon="6.8564000"><ele></ele><time>2022-5-31T7:36:53Z</time></trkpt>
<trkpt lat="43.4694253" lon="6.8564099"><ele></ele><time>2022-5-31T7:36:56Z</time></trkpt>
<trkpt lat="43.4695159" lon="6.8564166"><ele></ele><time>2022-5-31T7:36:59Z</time></trkpt>
<trkpt lat="43.4696077" lon="6.8564201"><ele></ele><time>2022-5-31T7:37:2Z</time></trkpt>
<trkpt lat="43.4696961" lon="6.8564215"><ele></ele><time>2022-5-31T7:37:5Z</time></trkpt>
<trkpt lat="43.4697866" lon="6.8564367"><ele></ele><time>2022-5-31T7:37:8Z</time></trkpt>
<trkpt lat="43.4698795" lon="6.8564640"><ele></ele><time>2022-5-31T7:37:11Z</time></trkpt>
<trkpt lat="43.4699759" lon="6.8565015"><ele></ele><time>2022-5-31T7:37:14Z</time></trkpt>
<trkpt lat="43.4700707" lon="6.8565164"><ele></ele><time>2022-5-31T7:37:17Z</time></trkpt>
<trkpt lat="43.4701630" lon="6.8565309"><ele></ele><time>2022-5-31T7:37:20Z</time></trkpt>
<trkpt lat="43.4702296" lon="6.8565472"><ele></ele><time>2022-5-31T7:37:23Z</time></trkpt>
<trkpt lat="43.4702780" lon="6.8565081"><ele></ele><time>2022-5-31T7:37:26Z</time></trkpt>
<trkpt lat="43.4703134" lon="6.8564323"><ele></ele><time>2022-5-31T7:37:29Z</time></trkpt>
<trkpt lat="43.4703555" lon="6.8563652"><ele></ele><time>2022-5-31T7:37:32Z</time></trkpt>
<trkpt lat="43.4703824" lon="6.8563085"><ele></ele><time>2022-5-31T7:37:35Z</time></trkpt>
<trkpt lat="43.4703649" lon="6.8562558"><ele></ele><time>2022-5-31T7:37:38Z</time></trkpt>
<trkpt lat="43.4703309" lon="6.8562153"><ele></ele><time>2022-5-31T7:37:41Z</time></trkpt>
<trkpt lat="43.4702844" lon="6.8562174"><ele></ele><time>2022-5-31T7:37:44Z</time></trkpt>
<trkpt lat="43.4702303" lon="6.8562181"><ele></ele><time>2022-5-31T7:37:47Z</time></trkpt>
<trkpt lat="43.4701842" lon="6.8562020"><ele></ele><time>2022-5-31T7:37:50Z</time></trkpt>
<trkpt lat="43.4701361" lon="6.8561670"><ele></ele><time>2022-5-31T7:37:53Z</time></trkpt>
<trkpt lat="43.4700853" lon="6.8561410"><ele></ele><time>2022-5-31T7:37:56Z</time></trkpt>
<trkpt lat="43.4700326" lon="6.8561306"><ele></ele><time>2022-5-31T7:37:59Z</time></trkpt>
<trkpt lat="43.4699750" lon="6.8561010"><ele></ele><time>2022-5-31T7:38:2Z</time></trkpt>
<trkpt lat="43.4699316" lon="6.8560714"><ele></ele><time>2022-5-31T7:38:5Z</time></trkpt>
<trkpt lat="43.4698905" lon="6.8560338"><ele></ele><time>2022-5-31T7:38:8Z</time></trkpt>
<trkpt lat="43.4698486" lon="6.8560002"><ele></ele><time>2022-5-31T7:38:11Z</time></trkpt>
<trkpt lat="43.4698099" lon="6.8559730"><ele></ele><time>2022-5-31T7:38:14Z</time></trkpt>
<trkpt lat="43.4697661" lon="6.8559620"><ele></ele><time>2022-5-31T7:38:17Z</time></trkpt>
<trkpt lat="43.4697176" lon="6.8559379"><ele></ele><time>2022-5-31T7:38:20Z</time></trkpt>
<trkpt lat="43.4696818" lon="6.8559284"><ele></ele><time>2022-5-31T7:38:23Z</time></trkpt>
<trkpt lat="43.4696402" lon="6.8559358"><ele></ele><time>2022-5-31T7:38:26Z</time></trkpt>
<trkpt lat="43.4695915" lon="6.8559450"><ele></ele><time>2022-5-31T7:38:29Z</time></trkpt>
<trkpt lat="43.4695441" lon="6.8559476"><ele></ele><time>2022-5-31T7:38:32Z</time></trkpt>
<trkpt lat="43.4694987" lon="6.8559401"><ele></ele><time>2022-5-31T7:38:35Z</time></trkpt>
<trkpt lat="43.4694487" lon="6.8559263"><ele></ele><time>2022-5-31T7:38:38Z</time></trkpt>
<trkpt lat="43.4694007" lon="6.8559035"><ele></ele><time>2022-5-31T7:38:41Z</time></trkpt>
<trkpt lat="43.4693524" lon="6.8558780"><ele></ele><time>2022-5-31T7:38:44Z</time></trkpt>
<trkpt lat="43.4693065" lon="6.8558515"><ele></ele><time>2022-5-31T7:38:47Z</time></trkpt>
<trkpt lat="43.4692634" lon="6.8558135"><ele></ele><time>2022-5-31T7:38:50Z</time></trkpt>
<trkpt lat="43.4692201" lon="6.8557777"><ele></ele><time>2022-5-31T7:38:53Z</time></trkpt>
<trkpt lat="43.4691782" lon="6.8557532"><ele></ele><time>2022-5-31T7:38:56Z</time></trkpt>
<trkpt lat="43.4691373" lon="6.8557219"><ele></ele><time>2022-5-31T7:38:59Z</time></trkpt>
<trkpt lat="43.4690969" lon="6.8556992"><ele></ele><time>2022-5-31T7:39:2Z</time></trkpt>
<trkpt lat="43.4690520" lon="6.8556805"><ele></ele><time>2022-5-31T7:39:5Z</time></trkpt>
<trkpt lat="43.4690090" lon="6.8556600"><ele></ele><time>2022-5-31T7:39:8Z</time></trkpt>
<trkpt lat="43.4689646" lon="6.8556440"><ele></ele><time>2022-5-31T7:39:11Z</time></trkpt>
<trkpt lat="43.4689142" lon="6.8556319"><ele></ele><time>2022-5-31T7:39:14Z</time></trkpt>
<trkpt lat="43.4688618" lon="6.8556156"><ele></ele><time>2022-5-31T7:39:17Z</time></trkpt>
<trkpt lat="43.4688171" lon="6.8556126"><ele></ele><time>2022-5-31T7:39:20Z</time></trkpt>
<trkpt lat="43.4687722" lon="6.8555985"><ele></ele><time>2022-5-31T7:39:23Z</time></trkpt>
<trkpt lat="43.4687300" lon="6.8555800"><ele></ele><time>2022-5-31T7:39:26Z</time></trkpt>
<trkpt lat="43.4686918" lon="6.8555633"><ele></ele><time>2022-5-31T7:39:29Z</time></trkpt>
<trkpt lat="43.4686511" lon="6.8555516"><ele></ele><time>2022-5-31T7:39:32Z</time></trkpt>
<trkpt lat="43.4686094" lon="6.8555362"><ele></ele><time>2022-5-31T7:39:35Z</time></trkpt>
<trkpt lat="43.4685674" lon="6.8555241"><ele></ele><time>2022-5-31T7:39:38Z</time></trkpt>
<trkpt lat="43.4685261" lon="6.8555104"><ele></ele><time>2022-5-31T7:39:41Z</time></trkpt>
<trkpt lat="43.4684886" lon="6.8554962"><ele></ele><time>2022-5-31T7:39:44Z</time></trkpt>
<trkpt lat="43.4684472" lon="6.8554818"><ele></ele><time>2022-5-31T7:39:47Z</time></trkpt>
<trkpt lat="43.4684051" lon="6.8554677"><ele></ele><time>2022-5-31T7:39:50Z</time></trkpt>
<trkpt lat="43.4683677" lon="6.8554552"><ele></ele><time>2022-5-31T7:39:53Z</time></trkpt>
<trkpt lat="43.4683268" lon="6.8554428"><ele></ele><time>2022-5-31T7:39:56Z</time></trkpt>
<trkpt lat="43.4682909" lon="6.8554270"><ele></ele><time>2022-5-31T7:39:59Z</time></trkpt>
<trkpt lat="43.4682495" lon="6.8554042"><ele></ele><time>2022-5-31T7:40:2Z</time></trkpt>
<trkpt lat="43.4682116" lon="6.8553827"><ele></ele><time>2022-5-31T7:40:5Z</time></trkpt>
<trkpt lat="43.4681705" lon="6.8553589"><ele></ele><time>2022-5-31T7:40:8Z</time></trkpt>
<trkpt lat="43.4681356" lon="6.8553341"><ele></ele><time>2022-5-31T7:40:11Z</time></trkpt>
<trkpt lat="43.4681033" lon="6.8553071"><ele></ele><time>2022-5-31T7:40:14Z</time></trkpt>
<trkpt lat="43.4680774" lon="6.8552777"><ele></ele><time>2022-5-31T7:40:17Z</time></trkpt>
<trkpt lat="43.4680454" lon="6.8552458"><ele></ele><time>2022-5-31T7:40:20Z</time></trkpt>
<trkpt lat="43.4680146" lon="6.8552158"><ele></ele><time>2022-5-31T7:40:23Z</time></trkpt>
<trkpt lat="43.4679847" lon="6.8551828"><ele></ele><time>2022-5-31T7:40:26Z</time></trkpt>
<trkpt lat="43.4679583" lon="6.8551446"><ele></ele><time>2022-5-31T7:40:29Z</time></trkpt>
<trkpt lat="43.4679313" lon="6.8551093"><ele></ele><time>2022-5-31T7:40:32Z</time></trkpt>
<trkpt lat="43.4678997" lon="6.8550752"><ele></ele><time>2022-5-31T7:40:35Z</time></trkpt>
<trkpt lat="43.4678695" lon="6.8550324"><ele></ele><time>2022-5-31T7:40:38Z</time></trkpt>
<trkpt lat="43.4678467" lon="6.8549845"><ele></ele><time>2022-5-31T7:40:41Z</time></trkpt>
<trkpt lat="43.4678217" lon="6.8549324"><ele></ele><time>2022-5-31T7:40:44Z</time></trkpt>
<trkpt lat="43.4678010" lon="6.8548845"><ele></ele><time>2022-5-31T7:40:47Z</time></trkpt>
<trkpt lat="43.4677872" lon="6.8548411"><ele></ele><time>2022-5-31T7:40:50Z</time></trkpt>
<trkpt lat="43.4677720" lon="6.8547869"><ele></ele><time>2022-5-31T7:40:53Z</time></trkpt>
<trkpt lat="43.4677561" lon="6.8547300"><ele></ele><time>2022-5-31T7:40:56Z</time></trkpt>
<trkpt lat="43.4677425" lon="6.8546747"><ele></ele><time>2022-5-31T7:40:59Z</time></trkpt>
<trkpt lat="43.4677276" lon="6.8546166"><ele></ele><time>2022-5-31T7:41:2Z</time></trkpt>
<trkpt lat="43.4677157" lon="6.8545609"><ele></ele><time>2022-5-31T7:41:5Z</time></trkpt>
<trkpt lat="43.4677068" lon="6.8544983"><ele></ele><time>2022-5-31T7:41:8Z</time></trkpt>
<trkpt lat="43.4677061" lon="6.8544337"><ele></ele><time>2022-5-31T7:41:11Z</time></trkpt>
<trkpt lat="43.4676979" lon="6.8543702"><ele></ele><time>2022-5-31T7:41:14Z</time></trkpt>
<trkpt lat="43.4676944" lon="6.8542983"><ele></ele><time>2022-5-31T7:41:17Z</time></trkpt>
<trkpt lat="43.4676976" lon="6.8542323"><ele></ele><time>2022-5-31T7:41:20Z</time></trkpt>
<trkpt lat="43.4677014" lon="6.8541696"><ele></ele><time>2022-5-31T7:41:23Z</time></trkpt>
<trkpt lat="43.4677031" lon="6.8541077"><ele></ele><time>2022-5-31T7:41:26Z</time></trkpt>
<trkpt lat="43.4677027" lon="6.8540434"><ele></ele><time>2022-5-31T7:41:29Z</time></trkpt>
<trkpt lat="43.4677017" lon="6.8539739"><ele></ele><time>2022-5-31T7:41:32Z</time></trkpt>
<trkpt lat="43.4677004" lon="6.8539129"><ele></ele><time>2022-5-31T7:41:35Z</time></trkpt>
<trkpt lat="43.4676994" lon="6.8538515"><ele></ele><time>2022-5-31T7:41:38Z</time></trkpt>
<trkpt lat="43.4676964" lon="6.8537921"><ele></ele><time>2022-5-31T7:41:41Z</time></trkpt>
<trkpt lat="43.4676915" lon="6.8537407"><ele></ele><time>2022-5-31T7:41:44Z</time></trkpt>
<trkpt lat="43.4676818" lon="6.8536922"><ele></ele><time>2022-5-31T7:41:47Z</time></trkpt>
<trkpt lat="43.4676759" lon="6.8536430"><ele></ele><time>2022-5-31T7:41:50Z</time></trkpt>
<trkpt lat="43.4676657" lon="6.8535934"><ele></ele><time>2022-5-31T7:41:53Z</time></trkpt>
<trkpt lat="43.4676581" lon="6.8535463"><ele></ele><time>2022-5-31T7:41:56Z</time></trkpt>
<trkpt lat="43.4676473" lon="6.8535010"><ele></ele><time>2022-5-31T7:41:59Z</time></trkpt>
<trkpt lat="43.4676392" lon="6.8534511"><ele></ele><time>2022-5-31T7:42:2Z</time></trkpt>
<trkpt lat="43.4676301" lon="6.8534003"><ele></ele><time>2022-5-31T7:42:5Z</time></trkpt>
<trkpt lat="43.4676172" lon="6.8533479"><ele></ele><time>2022-5-31T7:42:8Z</time></trkpt>
<trkpt lat="43.4676093" lon="6.8532952"><ele></ele><time>2022-5-31T7:42:11Z</time></trkpt>
<trkpt lat="43.4676034" lon="6.8532460"><ele></ele><time>2022-5-31T7:42:14Z</time></trkpt>
<trkpt lat="43.4676009" lon="6.8532022"><ele></ele><time>2022-5-31T7:42:17Z</time></trkpt>
<trkpt lat="43.4676008" lon="6.8531604"><ele></ele><time>2022-5-31T7:42:20Z</time></trkpt>
<trkpt lat="43.4675987" lon="6.8531081"><ele></ele><time>2022-5-31T7:42:23Z</time></trkpt>
<trkpt lat="43.4675968" lon="6.8530639"><ele></ele><time>2022-5-31T7:42:26Z</time></trkpt>
<trkpt lat="43.4675982" lon="6.8530240"><ele></ele><time>2022-5-31T7:42:29Z</time></trkpt>
<trkpt lat="43.4675975" lon="6.8529760"><ele></ele><time>2022-5-31T7:42:32Z</time></trkpt>
<trkpt lat="43.4675960" lon="6.8529275"><ele></ele><time>2022-5-31T7:42:35Z</time></trkpt>
<trkpt lat="43.4675904" lon="6.8528819"><ele></ele><time>2022-5-31T7:42:38Z</time></trkpt>
<trkpt lat="43.4675913" lon="6.8528283"><ele></ele><time>2022-5-31T7:42:41Z</time></trkpt>
<trkpt lat="43.4675970" lon="6.8527837"><ele></ele><time>2022-5-31T7:42:44Z</time></trkpt>
<trkpt lat="43.4675928" lon="6.8527305"><ele></ele><time>2022-5-31T7:42:47Z</time></trkpt>
<trkpt lat="43.4675897" lon="6.8526810"><ele></ele><time>2022-5-31T7:42:50Z</time></trkpt>
<trkpt lat="43.4675758" lon="6.8526260"><ele></ele><time>2022-5-31T7:42:53Z</time></trkpt>
<trkpt lat="43.4675605" lon="6.8525806"><ele></ele><time>2022-5-31T7:42:56Z</time></trkpt>
<trkpt lat="43.4675427" lon="6.8525285"><ele></ele><time>2022-5-31T7:42:59Z</time></trkpt>
<trkpt lat="43.4675265" lon="6.8524706"><ele></ele><time>2022-5-31T7:43:2Z</time></trkpt>
<trkpt lat="43.4675135" lon="6.8524247"><ele></ele><time>2022-5-31T7:43:5Z</time></trkpt>
<trkpt lat="43.4675011" lon="6.8523798"><ele></ele><time>2022-5-31T7:43:8Z</time></trkpt>
<trkpt lat="43.4674845" lon="6.8523321"><ele></ele><time>2022-5-31T7:43:11Z</time></trkpt>
<trkpt lat="43.4674780" lon="6.8522888"><ele></ele><time>2022-5-31T7:43:14Z</time></trkpt>
<trkpt lat="43.4674649" lon="6.8522437"><ele></ele><time>2022-5-31T7:43:17Z</time></trkpt>
<trkpt lat="43.4674581" lon="6.8522031"><ele></ele><time>2022-5-31T7:43:20Z</time></trkpt>
<trkpt lat="43.4674464" lon="6.8521518"><ele></ele><time>2022-5-31T7:43:23Z</time></trkpt>
<trkpt lat="43.4674425" lon="6.8521038"><ele></ele><time>2022-5-31T7:43:26Z</time></trkpt>
<trkpt lat="43.4674333" lon="6.8520561"><ele></ele><time>2022-5-31T7:43:29Z</time></trkpt>
<trkpt lat="43.4674242" lon="6.8520045"><ele></ele><time>2022-5-31T7:43:32Z</time></trkpt>
<trkpt lat="43.4674190" lon="6.8519565"><ele></ele><time>2022-5-31T7:43:35Z</time></trkpt>
<trkpt lat="43.4674153" lon="6.8519112"><ele></ele><time>2022-5-31T7:43:38Z</time></trkpt>
<trkpt lat="43.4674126" lon="6.8518687"><ele></ele><time>2022-5-31T7:43:41Z</time></trkpt>
<trkpt lat="43.4674081" lon="6.8518247"><ele></ele><time>2022-5-31T7:43:44Z</time></trkpt>
<trkpt lat="43.4674024" lon="6.8517784"><ele></ele><time>2022-5-31T7:43:47Z</time></trkpt>
<trkpt lat="43.4673963" lon="6.8517331"><ele></ele><time>2022-5-31T7:43:50Z</time></trkpt>
<trkpt lat="43.4673917" lon="6.8516886"><ele></ele><time>2022-5-31T7:43:53Z</time></trkpt>
<trkpt lat="43.4673886" lon="6.8516411"><ele></ele><time>2022-5-31T7:43:56Z</time></trkpt>
<trkpt lat="43.4673835" lon="6.8515912"><ele></ele><time>2022-5-31T7:43:59Z</time></trkpt>
<trkpt lat="43.4673816" lon="6.8515423"><ele></ele><time>2022-5-31T7:44:2Z</time></trkpt>
<trkpt lat="43.4673816" lon="6.8514943"><ele></ele><time>2022-5-31T7:44:5Z</time></trkpt>
<trkpt lat="43.4673894" lon="6.8514419"><ele></ele><time>2022-5-31T7:44:8Z</time></trkpt>
<trkpt lat="43.4673971" lon="6.8513951"><ele></ele><time>2022-5-31T7:44:11Z</time></trkpt>
<trkpt lat="43.4674064" lon="6.8513438"><ele></ele><time>2022-5-31T7:44:14Z</time></trkpt>
<trkpt lat="43.4674214" lon="6.8512973"><ele></ele><time>2022-5-31T7:44:17Z</time></trkpt>
<trkpt lat="43.4674368" lon="6.8512555"><ele></ele><time>2022-5-31T7:44:20Z</time></trkpt>
<trkpt lat="43.4674531" lon="6.8512160"><ele></ele><time>2022-5-31T7:44:23Z</time></trkpt>
<trkpt lat="43.4674708" lon="6.8511745"><ele></ele><time>2022-5-31T7:44:26Z</time></trkpt>
<trkpt lat="43.4674899" lon="6.8511336"><ele></ele><time>2022-5-31T7:44:29Z</time></trkpt>
<trkpt lat="43.4675103" lon="6.8510909"><ele></ele><time>2022-5-31T7:44:32Z</time></trkpt>
<trkpt lat="43.4675322" lon="6.8510466"><ele></ele><time>2022-5-31T7:44:35Z</time></trkpt>
<trkpt lat="43.4675516" lon="6.8510091"><ele></ele><time>2022-5-31T7:44:38Z</time></trkpt>
<trkpt lat="43.4675718" lon="6.8509720"><ele></ele><time>2022-5-31T7:44:41Z</time></trkpt>
<trkpt lat="43.4675911" lon="6.8509313"><ele></ele><time>2022-5-31T7:44:44Z</time></trkpt>
<trkpt lat="43.4676093" lon="6.8508943"><ele></ele><time>2022-5-31T7:44:47Z</time></trkpt>
<trkpt lat="43.4676293" lon="6.8508566"><ele></ele><time>2022-5-31T7:44:50Z</time></trkpt>
<trkpt lat="43.4676480" lon="6.8508217"><ele></ele><time>2022-5-31T7:44:53Z</time></trkpt>
<trkpt lat="43.4676659" lon="6.8507825"><ele></ele><time>2022-5-31T7:44:56Z</time></trkpt>
<trkpt lat="43.4676843" lon="6.8507411"><ele></ele><time>2022-5-31T7:44:59Z</time></trkpt>
<trkpt lat="43.4677018" lon="6.8507029"><ele></ele><time>2022-5-31T7:45:2Z</time></trkpt>
<trkpt lat="43.4677187" lon="6.8506674"><ele></ele><time>2022-5-31T7:45:5Z</time></trkpt>
<trkpt lat="43.4677395" lon="6.8506315"><ele></ele><time>2022-5-31T7:45:8Z</time></trkpt>
<trkpt lat="43.4677614" lon="6.8505923"><ele></ele><time>2022-5-31T7:45:11Z</time></trkpt>
<trkpt lat="43.4677819" lon="6.8505480"><ele></ele><time>2022-5-31T7:45:14Z</time></trkpt>
<trkpt lat="43.4677975" lon="6.8505057"><ele></ele><time>2022-5-31T7:45:17Z</time></trkpt>
<trkpt lat="43.4678087" lon="6.8504653"><ele></ele><time>2022-5-31T7:45:20Z</time></trkpt>
<trkpt lat="43.4678141" lon="6.8504141"><ele></ele><time>2022-5-31T7:45:23Z</time></trkpt>
<trkpt lat="43.4678041" lon="6.8503600"><ele></ele><time>2022-5-31T7:45:26Z</time></trkpt>
<trkpt lat="43.4677878" lon="6.8503179"><ele></ele><time>2022-5-31T7:45:29Z</time></trkpt>
<trkpt lat="43.4677726" lon="6.8502794"><ele></ele><time>2022-5-31T7:45:32Z</time></trkpt>
<trkpt lat="43.4677543" lon="6.8502090"><ele></ele><time>2022-5-31T7:45:35Z</time></trkpt>
<trkpt lat="43.4677297" lon="6.8501340"><ele></ele><time>2022-5-31T7:45:38Z</time></trkpt>
<trkpt lat="43.4677119" lon="6.8500676"><ele></ele><time>2022-5-31T7:45:41Z</time></trkpt>
<trkpt lat="43.4676970" lon="6.8500101"><ele></ele><time>2022-5-31T7:45:44Z</time></trkpt>
<trkpt lat="43.4676817" lon="6.8499430"><ele></ele><time>2022-5-31T7:45:47Z</time></trkpt>
<trkpt lat="43.4676652" lon="6.8498724"><ele></ele><time>2022-5-31T7:45:50Z</time></trkpt>
<trkpt lat="43.4676507" lon="6.8498075"><ele></ele><time>2022-5-31T7:45:53Z</time></trkpt>
<trkpt lat="43.4676489" lon="6.8497578"><ele></ele><time>2022-5-31T7:45:56Z</time></trkpt>
<trkpt lat="43.4676575" lon="6.8497014"><ele></ele><time>2022-5-31T7:45:59Z</time></trkpt>
<trkpt lat="43.4676647" lon="6.8496597"><ele></ele><time>2022-5-31T7:46:2Z</time></trkpt>
<trkpt lat="43.4676715" lon="6.8496096"><ele></ele><time>2022-5-31T7:46:5Z</time></trkpt>
<trkpt lat="43.4676819" lon="6.8495473"><ele></ele><time>2022-5-31T7:46:8Z</time></trkpt>
<trkpt lat="43.4676864" lon="6.8494888"><ele></ele><time>2022-5-31T7:46:11Z</time></trkpt>
<trkpt lat="43.4676721" lon="6.8494248"><ele></ele><time>2022-5-31T7:46:14Z</time></trkpt>
<trkpt lat="43.4676643" lon="6.8493733"><ele></ele><time>2022-5-31T7:46:17Z</time></trkpt>
<trkpt lat="43.4676388" lon="6.8493286"><ele></ele><time>2022-5-31T7:46:20Z</time></trkpt>
<trkpt lat="43.4676043" lon="6.8492825"><ele></ele><time>2022-5-31T7:46:23Z</time></trkpt>
<trkpt lat="43.4675731" lon="6.8492404"><ele></ele><time>2022-5-31T7:46:26Z</time></trkpt>
<trkpt lat="43.4675297" lon="6.8492089"><ele></ele><time>2022-5-31T7:46:29Z</time></trkpt>
<trkpt lat="43.4674884" lon="6.8491915"><ele></ele><time>2022-5-31T7:46:32Z</time></trkpt>
<trkpt lat="43.4674484" lon="6.8491697"><ele></ele><time>2022-5-31T7:46:35Z</time></trkpt>
<trkpt lat="43.4674061" lon="6.8491438"><ele></ele><time>2022-5-31T7:46:38Z</time></trkpt>
<trkpt lat="43.4673691" lon="6.8491150"><ele></ele><time>2022-5-31T7:46:41Z</time></trkpt>
<trkpt lat="43.4673350" lon="6.8490866"><ele></ele><time>2022-5-31T7:46:44Z</time></trkpt>
<trkpt lat="43.4673022" lon="6.8490564"><ele></ele><time>2022-5-31T7:46:47Z</time></trkpt>
<trkpt lat="43.4672663" lon="6.8490170"><ele></ele><time>2022-5-31T7:46:50Z</time></trkpt>
<trkpt lat="43.4672286" lon="6.8489767"><ele></ele><time>2022-5-31T7:46:53Z</time></trkpt>
<trkpt lat="43.4671886" lon="6.8489336"><ele></ele><time>2022-5-31T7:46:56Z</time></trkpt>
<trkpt lat="43.4671607" lon="6.8488961"><ele></ele><time>2022-5-31T7:46:59Z</time></trkpt>
<trkpt lat="43.4671289" lon="6.8488486"><ele></ele><time>2022-5-31T7:47:2Z</time></trkpt>
<trkpt lat="43.4670929" lon="6.8488253"><ele></ele><time>2022-5-31T7:47:5Z</time></trkpt>
<trkpt lat="43.4670608" lon="6.8488053"><ele></ele><time>2022-5-31T7:47:8Z</time></trkpt>
<trkpt lat="43.4670322" lon="6.8487634"><ele></ele><time>2022-5-31T7:47:11Z</time></trkpt>
<trkpt lat="43.4670079" lon="6.8487208"><ele></ele><time>2022-5-31T7:47:14Z</time></trkpt>
<trkpt lat="43.4669807" lon="6.8486786"><ele></ele><time>2022-5-31T7:47:17Z</time></trkpt>
<trkpt lat="43.4669455" lon="6.8486387"><ele></ele><time>2022-5-31T7:47:20Z</time></trkpt>
<trkpt lat="43.4669061" lon="6.8485955"><ele></ele><time>2022-5-31T7:47:23Z</time></trkpt>
<trkpt lat="43.4668739" lon="6.8485625"><ele></ele><time>2022-5-31T7:47:26Z</time></trkpt>
<trkpt lat="43.4668455" lon="6.8485250"><ele></ele><time>2022-5-31T7:47:29Z</time></trkpt>
<trkpt lat="43.4668256" lon="6.8484915"><ele></ele><time>2022-5-31T7:47:32Z</time></trkpt>
<trkpt lat="43.4668010" lon="6.8484504"><ele></ele><time>2022-5-31T7:47:35Z</time></trkpt>
<trkpt lat="43.4667649" lon="6.8484082"><ele></ele><time>2022-5-31T7:47:38Z</time></trkpt>
<trkpt lat="43.4667235" lon="6.8483664"><ele></ele><time>2022-5-31T7:47:41Z</time></trkpt>
<trkpt lat="43.4666974" lon="6.8483268"><ele></ele><time>2022-5-31T7:47:44Z</time></trkpt>
<trkpt lat="43.4666801" lon="6.8482789"><ele></ele><time>2022-5-31T7:47:47Z</time></trkpt>
<trkpt lat="43.4666670" lon="6.8482274"><ele></ele><time>2022-5-31T7:47:50Z</time></trkpt>
<trkpt lat="43.4666597" lon="6.8481813"><ele></ele><time>2022-5-31T7:47:53Z</time></trkpt>
<trkpt lat="43.4666545" lon="6.8481269"><ele></ele><time>2022-5-31T7:47:56Z</time></trkpt>
<trkpt lat="43.4666590" lon="6.8480740"><ele></ele><time>2022-5-31T7:47:59Z</time></trkpt>
<trkpt lat="43.4666679" lon="6.8480239"><ele></ele><time>2022-5-31T7:48:2Z</time></trkpt>
<trkpt lat="43.4666756" lon="6.8479754"><ele></ele><time>2022-5-31T7:48:5Z</time></trkpt>
<trkpt lat="43.4666842" lon="6.8479276"><ele></ele><time>2022-5-31T7:48:8Z</time></trkpt>
<trkpt lat="43.4667086" lon="6.8478878"><ele></ele><time>2022-5-31T7:48:11Z</time></trkpt>
<trkpt lat="43.4667357" lon="6.8478632"><ele></ele><time>2022-5-31T7:48:14Z</time></trkpt>
<trkpt lat="43.4667635" lon="6.8478410"><ele></ele><time>2022-5-31T7:48:17Z</time></trkpt>
<trkpt lat="43.4667870" lon="6.8478106"><ele></ele><time>2022-5-31T7:48:20Z</time></trkpt>
<trkpt lat="43.4668132" lon="6.8477865"><ele></ele><time>2022-5-31T7:48:23Z</time></trkpt>
<trkpt lat="43.4668411" lon="6.8477622"><ele></ele><time>2022-5-31T7:48:26Z</time></trkpt>
<trkpt lat="43.4668674" lon="6.8477403"><ele></ele><time>2022-5-31T7:48:29Z</time></trkpt>
<trkpt lat="43.4668904" lon="6.8477181"><ele></ele><time>2022-5-31T7:48:32Z</time></trkpt>
<trkpt lat="43.4669181" lon="6.8477020"><ele></ele><time>2022-5-31T7:48:35Z</time></trkpt>
<trkpt lat="43.4669475" lon="6.8476828"><ele></ele><time>2022-5-31T7:48:38Z</time></trkpt>
<trkpt lat="43.4669743" lon="6.8476651"><ele></ele><time>2022-5-31T7:48:41Z</time></trkpt>
<trkpt lat="43.4669973" lon="6.8476485"><ele></ele><time>2022-5-31T7:48:44Z</time></trkpt>
<trkpt lat="43.4670269" lon="6.8476349"><ele></ele><time>2022-5-31T7:48:47Z</time></trkpt>
<trkpt lat="43.4670571" lon="6.8476212"><ele></ele><time>2022-5-31T7:48:50Z</time></trkpt>
<trkpt lat="43.4670831" lon="6.8476173"><ele></ele><time>2022-5-31T7:48:53Z</time></trkpt>
<trkpt lat="43.4671105" lon="6.8476170"><ele></ele><time>2022-5-31T7:48:56Z</time></trkpt>
<trkpt lat="43.4671414" lon="6.8476214"><ele></ele><time>2022-5-31T7:48:59Z</time></trkpt>
<trkpt lat="43.4671687" lon="6.8476240"><ele></ele><time>2022-5-31T7:49:2Z</time></trkpt>
<trkpt lat="43.4671950" lon="6.8476313"><ele></ele><time>2022-5-31T7:49:5Z</time></trkpt>
<trkpt lat="43.4672157" lon="6.8476429"><ele></ele><time>2022-5-31T7:49:8Z</time></trkpt>
<trkpt lat="43.4672488" lon="6.8476592"><ele></ele><time>2022-5-31T7:49:11Z</time></trkpt>
<trkpt lat="43.4672806" lon="6.8476783"><ele></ele><time>2022-5-31T7:49:14Z</time></trkpt>
<trkpt lat="43.4673136" lon="6.8476985"><ele></ele><time>2022-5-31T7:49:17Z</time></trkpt>
<trkpt lat="43.4673466" lon="6.8477149"><ele></ele><time>2022-5-31T7:49:20Z</time></trkpt>
<trkpt lat="43.4673731" lon="6.8477285"><ele></ele><time>2022-5-31T7:49:23Z</time></trkpt>
<trkpt lat="43.4674027" lon="6.8477479"><ele></ele><time>2022-5-31T7:49:26Z</time></trkpt>
<trkpt lat="43.4674275" lon="6.8477650"><ele></ele><time>2022-5-31T7:49:29Z</time></trkpt>
<trkpt lat="43.4674501" lon="6.8477724"><ele></ele><time>2022-5-31T7:49:32Z</time></trkpt>
<trkpt lat="43.4674798" lon="6.8477793"><ele></ele><time>2022-5-31T7:49:35Z</time></trkpt>
<trkpt lat="43.4675073" lon="6.8477908"><ele></ele><time>2022-5-31T7:49:38Z</time></trkpt>
<trkpt lat="43.4675318" lon="6.8477992"><ele></ele><time>2022-5-31T7:49:41Z</time></trkpt>
<trkpt lat="43.4675476" lon="6.8478036"><ele></ele><time>2022-5-31T7:49:44Z</time></trkpt>
<trkpt lat="43.4675691" lon="6.8478150"><ele></ele><time>2022-5-31T7:49:47Z</time></trkpt>
<trkpt lat="43.4675971" lon="6.8478237"><ele></ele><time>2022-5-31T7:49:50Z</time></trkpt>
<trkpt lat="43.4676342" lon="6.8478249"><ele></ele><time>2022-5-31T7:49:53Z</time></trkpt>
<trkpt lat="43.4676702" lon="6.8478318"><ele></ele><time>2022-5-31T7:49:56Z</time></trkpt>
<trkpt lat="43.4676967" lon="6.8478413"><ele></ele><time>2022-5-31T7:49:59Z</time></trkpt>
<trkpt lat="43.4677212" lon="6.8478486"><ele></ele><time>2022-5-31T7:50:2Z</time></trkpt>
<trkpt lat="43.4677487" lon="6.8478577"><ele></ele><time>2022-5-31T7:50:5Z</time></trkpt>
<trkpt lat="43.4677780" lon="6.8478546"><ele></ele><time>2022-5-31T7:50:8Z</time></trkpt>
<trkpt lat="43.4678051" lon="6.8478377"><ele></ele><time>2022-5-31T7:50:11Z</time></trkpt>
<trkpt lat="43.4678296" lon="6.8478417"><ele></ele><time>2022-5-31T7:50:14Z</time></trkpt>
<trkpt lat="43.4678512" lon="6.8478444"><ele></ele><time>2022-5-31T7:50:17Z</time></trkpt>
<trkpt lat="43.4678760" lon="6.8478463"><ele></ele><time>2022-5-31T7:50:20Z</time></trkpt>
<trkpt lat="43.4679073" lon="6.8478491"><ele></ele><time>2022-5-31T7:50:23Z</time></trkpt>
<trkpt lat="43.4679390" lon="6.8478493"><ele></ele><time>2022-5-31T7:50:26Z</time></trkpt>
<trkpt lat="43.4679721" lon="6.8478512"><ele></ele><time>2022-5-31T7:50:29Z</time></trkpt>
<trkpt lat="43.4680007" lon="6.8478564"><ele></ele><time>2022-5-31T7:50:32Z</time></trkpt>
<trkpt lat="43.4680206" lon="6.8478633"><ele></ele><time>2022-5-31T7:50:35Z</time></trkpt>
<trkpt lat="43.4680489" lon="6.8478702"><ele></ele><time>2022-5-31T7:50:38Z</time></trkpt>
<trkpt lat="43.4680750" lon="6.8478815"><ele></ele><time>2022-5-31T7:50:41Z</time></trkpt>
<trkpt lat="43.4680959" lon="6.8478835"><ele></ele><time>2022-5-31T7:50:44Z</time></trkpt>
<trkpt lat="43.4681292" lon="6.8478786"><ele></ele><time>2022-5-31T7:50:47Z</time></trkpt>
<trkpt lat="43.4681569" lon="6.8478866"><ele></ele><time>2022-5-31T7:50:50Z</time></trkpt>
<trkpt lat="43.4681867" lon="6.8478951"><ele></ele><time>2022-5-31T7:50:53Z</time></trkpt>
<trkpt lat="43.4682204" lon="6.8478943"><ele></ele><time>2022-5-31T7:50:56Z</time></trkpt>
<trkpt lat="43.4682575" lon="6.8478975"><ele></ele><time>2022-5-31T7:50:59Z</time></trkpt>
<trkpt lat="43.4683043" lon="6.8479120"><ele></ele><time>2022-5-31T7:51:2Z</time></trkpt>
<trkpt lat="43.4683466" lon="6.8479182"><ele></ele><time>2022-5-31T7:51:5Z</time></trkpt>
<trkpt lat="43.4683866" lon="6.8479253"><ele></ele><time>2022-5-31T7:51:8Z</time></trkpt>
<trkpt lat="43.4684183" lon="6.8479355"><ele></ele><time>2022-5-31T7:51:11Z</time></trkpt>
<trkpt lat="43.4684502" lon="6.8479480"><ele></ele><time>2022-5-31T7:51:14Z</time></trkpt>
<trkpt lat="43.4684781" lon="6.8479552"><ele></ele><time>2022-5-31T7:51:17Z</time></trkpt>
<trkpt lat="43.4685153" lon="6.8479536"><ele></ele><time>2022-5-31T7:51:20Z</time></trkpt>
<trkpt lat="43.4685478" lon="6.8479642"><ele></ele><time>2022-5-31T7:51:23Z</time></trkpt>
<trkpt lat="43.4685827" lon="6.8479709"><ele></ele><time>2022-5-31T7:51:26Z</time></trkpt>
<trkpt lat="43.4686143" lon="6.8479847"><ele></ele><time>2022-5-31T7:51:29Z</time></trkpt>
<trkpt lat="43.4686486" lon="6.8479919"><ele></ele><time>2022-5-31T7:51:32Z</time></trkpt>
<trkpt lat="43.4686812" lon="6.8479826"><ele></ele><time>2022-5-31T7:51:35Z</time></trkpt>
<trkpt lat="43.4687103" lon="6.8479742"><ele></ele><time>2022-5-31T7:51:38Z</time></trkpt>
<trkpt lat="43.4687432" lon="6.8479588"><ele></ele><time>2022-5-31T7:51:41Z</time></trkpt>
<trkpt lat="43.4687759" lon="6.8479393"><ele></ele><time>2022-5-31T7:51:44Z</time></trkpt>
<trkpt lat="43.4688084" lon="6.8479141"><ele></ele><time>2022-5-31T7:51:47Z</time></trkpt>
<trkpt lat="43.4688379" lon="6.8478858"><ele></ele><time>2022-5-31T7:51:50Z</time></trkpt>
<trkpt lat="43.4688668" lon="6.8478497"><ele></ele><time>2022-5-31T7:51:53Z</time></trkpt>
<trkpt lat="43.4688990" lon="6.8478195"><ele></ele><time>2022-5-31T7:51:56Z</time></trkpt>
<trkpt lat="43.4689302" lon="6.8477936"><ele></ele><time>2022-5-31T7:51:59Z</time></trkpt>
<trkpt lat="43.4689596" lon="6.8477697"><ele></ele><time>2022-5-31T7:52:2Z</time></trkpt>
<trkpt lat="43.4689902" lon="6.8477422"><ele></ele><time>2022-5-31T7:52:5Z</time></trkpt>
<trkpt lat="43.4690231" lon="6.8477110"><ele></ele><time>2022-5-31T7:52:8Z</time></trkpt>
<trkpt lat="43.4690550" lon="6.8476737"><ele></ele><time>2022-5-31T7:52:11Z</time></trkpt>
<trkpt lat="43.4690855" lon="6.8476499"><ele></ele><time>2022-5-31T7:52:14Z</time></trkpt>
<trkpt lat="43.4691176" lon="6.8476210"><ele></ele><time>2022-5-31T7:52:17Z</time></trkpt>
<trkpt lat="43.4691496" lon="6.8475922"><ele></ele><time>2022-5-31T7:52:20Z</time></trkpt>
<trkpt lat="43.4691778" lon="6.8475626"><ele></ele><time>2022-5-31T7:52:23Z</time></trkpt>
<trkpt lat="43.4692045" lon="6.8475250"><ele></ele><time>2022-5-31T7:52:26Z</time></trkpt>
<trkpt lat="43.4692243" lon="6.8474796"><ele></ele><time>2022-5-31T7:52:29Z</time></trkpt>
<trkpt lat="43.4692518" lon="6.8474336"><ele></ele><time>2022-5-31T7:52:32Z</time></trkpt>
<trkpt lat="43.4692709" lon="6.8473844"><ele></ele><time>2022-5-31T7:52:35Z</time></trkpt>
<trkpt lat="43.4692921" lon="6.8473454"><ele></ele><time>2022-5-31T7:52:38Z</time></trkpt>
<trkpt lat="43.4693144" lon="6.8473015"><ele></ele><time>2022-5-31T7:52:41Z</time></trkpt>
<trkpt lat="43.4693349" lon="6.8472508"><ele></ele><time>2022-5-31T7:52:44Z</time></trkpt>
<trkpt lat="43.4693530" lon="6.8472112"><ele></ele><time>2022-5-31T7:52:47Z</time></trkpt>
<trkpt lat="43.4693757" lon="6.8471731"><ele></ele><time>2022-5-31T7:52:50Z</time></trkpt>
<trkpt lat="43.4693967" lon="6.8471350"><ele></ele><time>2022-5-31T7:52:53Z</time></trkpt>
<trkpt lat="43.4694207" lon="6.8470987"><ele></ele><time>2022-5-31T7:52:56Z</time></trkpt>
<trkpt lat="43.4694438" lon="6.8470656"><ele></ele><time>2022-5-31T7:52:59Z</time></trkpt>
<trkpt lat="43.4694669" lon="6.8470287"><ele></ele><time>2022-5-31T7:53:2Z</time></trkpt>
<trkpt lat="43.4694914" lon="6.8469939"><ele></ele><time>2022-5-31T7:53:5Z</time></trkpt>
<trkpt lat="43.4695161" lon="6.8469624"><ele></ele><time>2022-5-31T7:53:8Z</time></trkpt>
<trkpt lat="43.4695393" lon="6.8469318"><ele></ele><time>2022-5-31T7:53:11Z</time></trkpt>
<trkpt lat="43.4695656" lon="6.8469046"><ele></ele><time>2022-5-31T7:53:14Z</time></trkpt>
<trkpt lat="43.4695897" lon="6.8468736"><ele></ele><time>2022-5-31T7:53:17Z</time></trkpt>
<trkpt lat="43.4696126" lon="6.8468440"><ele></ele><time>2022-5-31T7:53:20Z</time></trkpt>
<trkpt lat="43.4696395" lon="6.8468158"><ele></ele><time>2022-5-31T7:53:23Z</time></trkpt>
<trkpt lat="43.4696687" lon="6.8467865"><ele></ele><time>2022-5-31T7:53:26Z</time></trkpt>
<trkpt lat="43.4696949" lon="6.8467628"><ele></ele><time>2022-5-31T7:53:29Z</time></trkpt>
<trkpt lat="43.4697243" lon="6.8467402"><ele></ele><time>2022-5-31T7:53:32Z</time></trkpt>
<trkpt lat="43.4697545" lon="6.8467171"><ele></ele><time>2022-5-31T7:53:35Z</time></trkpt>
<trkpt lat="43.4697798" lon="6.8466938"><ele></ele><time>2022-5-31T7:53:38Z</time></trkpt>
<trkpt lat="43.4698076" lon="6.8466668"><ele></ele><time>2022-5-31T7:53:41Z</time></trkpt>
<trkpt lat="43.4698411" lon="6.8466407"><ele></ele><time>2022-5-31T7:53:44Z</time></trkpt>
<trkpt lat="43.4698705" lon="6.8466152"><ele></ele><time>2022-5-31T7:53:47Z</time></trkpt>
<trkpt lat="43.4698957" lon="6.8465962"><ele></ele><time>2022-5-31T7:53:50Z</time></trkpt>
<trkpt lat="43.4699256" lon="6.8465724"><ele></ele><time>2022-5-31T7:53:53Z</time></trkpt>
<trkpt lat="43.4699556" lon="6.8465488"><ele></ele><time>2022-5-31T7:53:56Z</time></trkpt>
<trkpt lat="43.4699866" lon="6.8465275"><ele></ele><time>2022-5-31T7:53:59Z</time></trkpt>
<trkpt lat="43.4700188" lon="6.8465104"><ele></ele><time>2022-5-31T7:54:2Z</time></trkpt>
<trkpt lat="43.4700482" lon="6.8464887"><ele></ele><time>2022-5-31T7:54:5Z</time></trkpt>
<trkpt lat="43.4700755" lon="6.8464718"><ele></ele><time>2022-5-31T7:54:8Z</time></trkpt>
<trkpt lat="43.4701042" lon="6.8464571"><ele></ele><time>2022-5-31T7:54:11Z</time></trkpt>
<trkpt lat="43.4701341" lon="6.8464384"><ele></ele><time>2022-5-31T7:54:14Z</time></trkpt>
<trkpt lat="43.4701688" lon="6.8464208"><ele></ele><time>2022-5-31T7:54:17Z</time></trkpt>
<trkpt lat="43.4701933" lon="6.8464044"><ele></ele><time>2022-5-31T7:54:20Z</time></trkpt>
<trkpt lat="43.4702156" lon="6.8463808"><ele></ele><time>2022-5-31T7:54:23Z</time></trkpt>
<trkpt lat="43.4702532" lon="6.8463671"><ele></ele><time>2022-5-31T7:54:26Z</time></trkpt>
<trkpt lat="43.4702871" lon="6.8463548"><ele></ele><time>2022-5-31T7:54:29Z</time></trkpt>
<trkpt lat="43.4703158" lon="6.8463382"><ele></ele><time>2022-5-31T7:54:32Z</time></trkpt>
<trkpt lat="43.4703373" lon="6.8463275"><ele></ele><time>2022-5-31T7:54:35Z</time></trkpt>
<trkpt lat="43.4703768" lon="6.8463314"><ele></ele><time>2022-5-31T7:54:38Z</time></trkpt>
<trkpt lat="43.4704202" lon="6.8463299"><ele></ele><time>2022-5-31T7:54:41Z</time></trkpt>
<trkpt lat="43.4704534" lon="6.8463349"><ele></ele><time>2022-5-31T7:54:44Z</time></trkpt>
<trkpt lat="43.4704950" lon="6.8463450"><ele></ele><time>2022-5-31T7:54:47Z</time></trkpt>
<trkpt lat="43.4705420" lon="6.8463551"><ele></ele><time>2022-5-31T7:54:50Z</time></trkpt>
<trkpt lat="43.4705794" lon="6.8463612"><ele></ele><time>2022-5-31T7:54:53Z</time></trkpt>
<trkpt lat="43.4706096" lon="6.8463589"><ele></ele><time>2022-5-31T7:54:56Z</time></trkpt>
<trkpt lat="43.4706389" lon="6.8463523"><ele></ele><time>2022-5-31T7:54:59Z</time></trkpt>
<trkpt lat="43.4706680" lon="6.8463434"><ele></ele><time>2022-5-31T7:55:2Z</time></trkpt>
<trkpt lat="43.4706972" lon="6.8463253"><ele></ele><time>2022-5-31T7:55:5Z</time></trkpt>
<trkpt lat="43.4707212" lon="6.8462935"><ele></ele><time>2022-5-31T7:55:8Z</time></trkpt>
<trkpt lat="43.4707411" lon="6.8462505"><ele></ele><time>2022-5-31T7:55:11Z</time></trkpt>
<trkpt lat="43.4707544" lon="6.8462064"><ele></ele><time>2022-5-31T7:55:14Z</time></trkpt>
<trkpt lat="43.4707620" lon="6.8461642"><ele></ele><time>2022-5-31T7:55:17Z</time></trkpt>
<trkpt lat="43.4707468" lon="6.8461178"><ele></ele><time>2022-5-31T7:55:20Z</time></trkpt>
<trkpt lat="43.4707405" lon="6.8460683"><ele></ele><time>2022-5-31T7:55:23Z</time></trkpt>
<trkpt lat="43.4707356" lon="6.8460186"><ele></ele><time>2022-5-31T7:55:26Z</time></trkpt>
<trkpt lat="43.4707223" lon="6.8459793"><ele></ele><time>2022-5-31T7:55:29Z</time></trkpt>
<trkpt lat="43.4707035" lon="6.8459517"><ele></ele><time>2022-5-31T7:55:32Z</time></trkpt>
<trkpt lat="43.4706859" lon="6.8459229"><ele></ele><time>2022-5-31T7:55:35Z</time></trkpt>
<trkpt lat="43.4706712" lon="6.8458821"><ele></ele><time>2022-5-31T7:55:38Z</time></trkpt>
<trkpt lat="43.4706582" lon="6.8458360"><ele></ele><time>2022-5-31T7:55:41Z</time></trkpt>
<trkpt lat="43.4706496" lon="6.8457788"><ele></ele><time>2022-5-31T7:55:44Z</time></trkpt>
<trkpt lat="43.4706401" lon="6.8457189"><ele></ele><time>2022-5-31T7:55:47Z</time></trkpt>
<trkpt lat="43.4706309" lon="6.8456668"><ele></ele><time>2022-5-31T7:55:50Z</time></trkpt>
<trkpt lat="43.4706166" lon="6.8456190"><ele></ele><time>2022-5-31T7:55:53Z</time></trkpt>
<trkpt lat="43.4705990" lon="6.8455697"><ele></ele><time>2022-5-31T7:55:56Z</time></trkpt>
<trkpt lat="43.4705821" lon="6.8455215"><ele></ele><time>2022-5-31T7:55:59Z</time></trkpt>
<trkpt lat="43.4705659" lon="6.8454762"><ele></ele><time>2022-5-31T7:56:2Z</time></trkpt>
<trkpt lat="43.4705481" lon="6.8454313"><ele></ele><time>2022-5-31T7:56:5Z</time></trkpt>
<trkpt lat="43.4705250" lon="6.8453881"><ele></ele><time>2022-5-31T7:56:8Z</time></trkpt>
<trkpt lat="43.4705067" lon="6.8453332"><ele></ele><time>2022-5-31T7:56:11Z</time></trkpt>
<trkpt lat="43.4704864" lon="6.8452775"><ele></ele><time>2022-5-31T7:56:14Z</time></trkpt>
<trkpt lat="43.4704650" lon="6.8452292"><ele></ele><time>2022-5-31T7:56:17Z</time></trkpt>
<trkpt lat="43.4704310" lon="6.8451788"><ele></ele><time>2022-5-31T7:56:20Z</time></trkpt>
<trkpt lat="43.4704015" lon="6.8451355"><ele></ele><time>2022-5-31T7:56:23Z</time></trkpt>
<trkpt lat="43.4703692" lon="6.8450884"><ele></ele><time>2022-5-31T7:56:26Z</time></trkpt>
<trkpt lat="43.4703336" lon="6.8450401"><ele></ele><time>2022-5-31T7:56:29Z</time></trkpt>
<trkpt lat="43.4703029" lon="6.8449961"><ele></ele><time>2022-5-31T7:56:32Z</time></trkpt>
<trkpt lat="43.4702799" lon="6.8449530"><ele></ele><time>2022-5-31T7:56:35Z</time></trkpt>
<trkpt lat="43.4702549" lon="6.8449136"><ele></ele><time>2022-5-31T7:56:38Z</time></trkpt>
<trkpt lat="43.4702213" lon="6.8448669"><ele></ele><time>2022-5-31T7:56:41Z</time></trkpt>
<trkpt lat="43.4702031" lon="6.8448108"><ele></ele><time>2022-5-31T7:56:44Z</time></trkpt>
<trkpt lat="43.4701781" lon="6.8447600"><ele></ele><time>2022-5-31T7:56:47Z</time></trkpt>
<trkpt lat="43.4701546" lon="6.8447082"><ele></ele><time>2022-5-31T7:56:50Z</time></trkpt>
<trkpt lat="43.4701313" lon="6.8446584"><ele></ele><time>2022-5-31T7:56:53Z</time></trkpt>
<trkpt lat="43.4701130" lon="6.8446170"><ele></ele><time>2022-5-31T7:56:56Z</time></trkpt>
<trkpt lat="43.4700929" lon="6.8445700"><ele></ele><time>2022-5-31T7:56:59Z</time></trkpt>
<trkpt lat="43.4700681" lon="6.8445175"><ele></ele><time>2022-5-31T7:57:2Z</time></trkpt>
<trkpt lat="43.4700458" lon="6.8444663"><ele></ele><time>2022-5-31T7:57:5Z</time></trkpt>
<trkpt lat="43.4700295" lon="6.8444142"><ele></ele><time>2022-5-31T7:57:8Z</time></trkpt>
<trkpt lat="43.4700156" lon="6.8443661"><ele></ele><time>2022-5-31T7:57:11Z</time></trkpt>
<trkpt lat="43.4699962" lon="6.8443256"><ele></ele><time>2022-5-31T7:57:14Z</time></trkpt>
<trkpt lat="43.4699802" lon="6.8442786"><ele></ele><time>2022-5-31T7:57:17Z</time></trkpt>
<trkpt lat="43.4699722" lon="6.8442251"><ele></ele><time>2022-5-31T7:57:20Z</time></trkpt>
<trkpt lat="43.4699646" lon="6.8441698"><ele></ele><time>2022-5-31T7:57:23Z</time></trkpt>
<trkpt lat="43.4699545" lon="6.8441146"><ele></ele><time>2022-5-31T7:57:26Z</time></trkpt>
<trkpt lat="43.4699374" lon="6.8440610"><ele></ele><time>2022-5-31T7:57:29Z</time></trkpt>
<trkpt lat="43.4699203" lon="6.8440090"><ele></ele><time>2022-5-31T7:57:32Z</time></trkpt>
<trkpt lat="43.4698882" lon="6.8439726"><ele></ele><time>2022-5-31T7:57:35Z</time></trkpt>
<trkpt lat="43.4698471" lon="6.8439448"><ele></ele><time>2022-5-31T7:57:38Z</time></trkpt>
<trkpt lat="43.4698069" lon="6.8439452"><ele></ele><time>2022-5-31T7:57:41Z</time></trkpt>
<trkpt lat="43.4697612" lon="6.8439512"><ele></ele><time>2022-5-31T7:57:44Z</time></trkpt>
<trkpt lat="43.4697164" lon="6.8439535"><ele></ele><time>2022-5-31T7:57:47Z</time></trkpt>
<trkpt lat="43.4696678" lon="6.8439510"><ele></ele><time>2022-5-31T7:57:50Z</time></trkpt>
<trkpt lat="43.4696224" lon="6.8439495"><ele></ele><time>2022-5-31T7:57:53Z</time></trkpt>
<trkpt lat="43.4695769" lon="6.8439438"><ele></ele><time>2022-5-31T7:57:56Z</time></trkpt>
<trkpt lat="43.4695418" lon="6.8439306"><ele></ele><time>2022-5-31T7:57:59Z</time></trkpt>
<trkpt lat="43.4695099" lon="6.8438973"><ele></ele><time>2022-5-31T7:58:2Z</time></trkpt>
<trkpt lat="43.4694713" lon="6.8438647"><ele></ele><time>2022-5-31T7:58:5Z</time></trkpt>
<trkpt lat="43.4694387" lon="6.8438152"><ele></ele><time>2022-5-31T7:58:8Z</time></trkpt>
<trkpt lat="43.4694073" lon="6.8437548"><ele></ele><time>2022-5-31T7:58:11Z</time></trkpt>
<trkpt lat="43.4693930" lon="6.8436819"><ele></ele><time>2022-5-31T7:58:14Z</time></trkpt>
<trkpt lat="43.4693919" lon="6.8436182"><ele></ele><time>2022-5-31T7:58:17Z</time></trkpt>
<trkpt lat="43.4694084" lon="6.8435531"><ele></ele><time>2022-5-31T7:58:20Z</time></trkpt>
<trkpt lat="43.4694361" lon="6.8434932"><ele></ele><time>2022-5-31T7:58:23Z</time></trkpt>
<trkpt lat="43.4694656" lon="6.8434317"><ele></ele><time>2022-5-31T7:58:26Z</time></trkpt>
<trkpt lat="43.4695003" lon="6.8433774"><ele></ele><time>2022-5-31T7:58:29Z</time></trkpt>
<trkpt lat="43.4695367" lon="6.8433266"><ele></ele><time>2022-5-31T7:58:32Z</time></trkpt>
<trkpt lat="43.4695832" lon="6.8432828"><ele></ele><time>2022-5-31T7:58:35Z</time></trkpt>
<trkpt lat="43.4696326" lon="6.8432408"><ele></ele><time>2022-5-31T7:58:38Z</time></trkpt>
<trkpt lat="43.4696695" lon="6.8432033"><ele></ele><time>2022-5-31T7:58:41Z</time></trkpt>
<trkpt lat="43.4697069" lon="6.8431599"><ele></ele><time>2022-5-31T7:58:44Z</time></trkpt>
<trkpt lat="43.4697483" lon="6.8430969"><ele></ele><time>2022-5-31T7:58:47Z</time></trkpt>
<trkpt lat="43.4697672" lon="6.8430288"><ele></ele><time>2022-5-31T7:58:50Z</time></trkpt>
<trkpt lat="43.4697866" lon="6.8429647"><ele></ele><time>2022-5-31T7:58:53Z</time></trkpt>
<trkpt lat="43.4698117" lon="6.8429099"><ele></ele><time>2022-5-31T7:58:56Z</time></trkpt>
<trkpt lat="43.4698285" lon="6.8428444"><ele></ele><time>2022-5-31T7:58:59Z</time></trkpt>
<trkpt lat="43.4698457" lon="6.8427696"><ele></ele><time>2022-5-31T7:59:2Z</time></trkpt>
<trkpt lat="43.4698586" lon="6.8426934"><ele></ele><time>2022-5-31T7:59:5Z</time></trkpt>
<trkpt lat="43.4698766" lon="6.8426148"><ele></ele><time>2022-5-31T7:59:8Z</time></trkpt>
<trkpt lat="43.4698895" lon="6.8425442"><ele></ele><time>2022-5-31T7:59:11Z</time></trkpt>
<trkpt lat="43.4699047" lon="6.8424690"><ele></ele><time>2022-5-31T7:59:14Z</time></trkpt>
<trkpt lat="43.4699140" lon="6.8423924"><ele></ele><time>2022-5-31T7:59:17Z</time></trkpt>
<trkpt lat="43.4699236" lon="6.8423233"><ele></ele><time>2022-5-31T7:59:20Z</time></trkpt>
<trkpt lat="43.4699104" lon="6.8422436"><ele></ele><time>2022-5-31T7:59:23Z</time></trkpt>
<trkpt lat="43.4698956" lon="6.8421754"><ele></ele><time>2022-5-31T7:59:26Z</time></trkpt>
<trkpt lat="43.4698926" lon="6.8421139"><ele></ele><time>2022-5-31T7:59:29Z</time></trkpt>
<trkpt lat="43.4698789" lon="6.8420546"><ele></ele><time>2022-5-31T7:59:32Z</time></trkpt>
<trkpt lat="43.4698451" lon="6.8419810"><ele></ele><time>2022-5-31T7:59:35Z</time></trkpt>
<trkpt lat="43.4698267" lon="6.8418977"><ele></ele><time>2022-5-31T7:59:38Z</time></trkpt>
<trkpt lat="43.4698095" lon="6.8418175"><ele></ele><time>2022-5-31T7:59:41Z</time></trkpt>
<trkpt lat="43.4697911" lon="6.8417394"><ele></ele><time>2022-5-31T7:59:44Z</time></trkpt>
<trkpt lat="43.4697668" lon="6.8416614"><ele></ele><time>2022-5-31T7:59:47Z</time></trkpt>
<trkpt lat="43.4697430" lon="6.8415836"><ele></ele><time>2022-5-31T7:59:50Z</time></trkpt>
<trkpt lat="43.4697236" lon="6.8415155"><ele></ele><time>2022-5-31T7:59:53Z</time></trkpt>
<trkpt lat="43.4696935" lon="6.8414544"><ele></ele><time>2022-5-31T7:59:56Z</time></trkpt>
<trkpt lat="43.4696491" lon="6.8413801"><ele></ele><time>2022-5-31T7:59:59Z</time></trkpt>
<trkpt lat="43.4695989" lon="6.8413046"><ele></ele><time>2022-5-31T8:0:2Z</time></trkpt>
<trkpt lat="43.4695493" lon="6.8412312"><ele></ele><time>2022-5-31T8:0:5Z</time></trkpt>
<trkpt lat="43.4695071" lon="6.8411631"><ele></ele><time>2022-5-31T8:0:8Z</time></trkpt>
<trkpt lat="43.4694772" lon="6.8410944"><ele></ele><time>2022-5-31T8:0:11Z</time></trkpt>
<trkpt lat="43.4694522" lon="6.8410303"><ele></ele><time>2022-5-31T8:0:14Z</time></trkpt>
<trkpt lat="43.4694299" lon="6.8409760"><ele></ele><time>2022-5-31T8:0:17Z</time></trkpt>
<trkpt lat="43.4694133" lon="6.8409295"><ele></ele><time>2022-5-31T8:0:20Z</time></trkpt>
<trkpt lat="43.4693979" lon="6.8408951"><ele></ele><time>2022-5-31T8:0:23Z</time></trkpt>
<trkpt lat="43.4693877" lon="6.8408553"><ele></ele><time>2022-5-31T8:0:26Z</time></trkpt>
<trkpt lat="43.4693798" lon="6.8408071"><ele></ele><time>2022-5-31T8:0:29Z</time></trkpt>
<trkpt lat="43.4693704" lon="6.8407729"><ele></ele><time>2022-5-31T8:0:32Z</time></trkpt>
<trkpt lat="43.4693641" lon="6.8407394"><ele></ele><time>2022-5-31T8:0:35Z</time></trkpt>
<trkpt lat="43.4693713" lon="6.8407052"><ele></ele><time>2022-5-31T8:0:38Z</time></trkpt>
<trkpt lat="43.4693888" lon="6.8406663"><ele></ele><time>2022-5-31T8:0:41Z</time></trkpt>
<trkpt lat="43.4694130" lon="6.8406312"><ele></ele><time>2022-5-31T8:0:44Z</time></trkpt>
<trkpt lat="43.4694374" lon="6.8405845"><ele></ele><time>2022-5-31T8:0:47Z</time></trkpt>
<trkpt lat="43.4694646" lon="6.8405334"><ele></ele><time>2022-5-31T8:0:50Z</time></trkpt>
<trkpt lat="43.4694940" lon="6.8404872"><ele></ele><time>2022-5-31T8:0:53Z</time></trkpt>
<trkpt lat="43.4695262" lon="6.8404415"><ele></ele><time>2022-5-31T8:0:56Z</time></trkpt>
<trkpt lat="43.4695641" lon="6.8404008"><ele></ele><time>2022-5-31T8:0:59Z</time></trkpt>
<trkpt lat="43.4695988" lon="6.8403638"><ele></ele><time>2022-5-31T8:1:2Z</time></trkpt>
<trkpt lat="43.4696363" lon="6.8403309"><ele></ele><time>2022-5-31T8:1:5Z</time></trkpt>
<trkpt lat="43.4696734" lon="6.8403022"><ele></ele><time>2022-5-31T8:1:8Z</time></trkpt>
<trkpt lat="43.4697171" lon="6.8402982"><ele></ele><time>2022-5-31T8:1:11Z</time></trkpt>
<trkpt lat="43.4697610" lon="6.8402990"><ele></ele><time>2022-5-31T8:1:14Z</time></trkpt>
<trkpt lat="43.4698004" lon="6.8403110"><ele></ele><time>2022-5-31T8:1:17Z</time></trkpt>
<trkpt lat="43.4698401" lon="6.8403291"><ele></ele><time>2022-5-31T8:1:20Z</time></trkpt>
<trkpt lat="43.4698839" lon="6.8403596"><ele></ele><time>2022-5-31T8:1:23Z</time></trkpt>
<trkpt lat="43.4699262" lon="6.8403915"><ele></ele><time>2022-5-31T8:1:26Z</time></trkpt>
<trkpt lat="43.4699683" lon="6.8404241"><ele></ele><time>2022-5-31T8:1:29Z</time></trkpt>
<trkpt lat="43.4700177" lon="6.8404514"><ele></ele><time>2022-5-31T8:1:32Z</time></trkpt>
<trkpt lat="43.4700732" lon="6.8404742"><ele></ele><time>2022-5-31T8:1:35Z</time></trkpt>
<trkpt lat="43.4701295" lon="6.8404924"><ele></ele><time>2022-5-31T8:1:38Z</time></trkpt>
<trkpt lat="43.4701812" lon="6.8404978"><ele></ele><time>2022-5-31T8:1:41Z</time></trkpt>
<trkpt lat="43.4702325" lon="6.8404929"><ele></ele><time>2022-5-31T8:1:44Z</time></trkpt>
<trkpt lat="43.4702772" lon="6.8404772"><ele></ele><time>2022-5-31T8:1:47Z</time></trkpt>
<trkpt lat="43.4703243" lon="6.8404640"><ele></ele><time>2022-5-31T8:1:50Z</time></trkpt>
<trkpt lat="43.4703712" lon="6.8404483"><ele></ele><time>2022-5-31T8:1:53Z</time></trkpt>
<trkpt lat="43.4704061" lon="6.8404036"><ele></ele><time>2022-5-31T8:1:56Z</time></trkpt>
<trkpt lat="43.4704470" lon="6.8403692"><ele></ele><time>2022-5-31T8:1:59Z</time></trkpt>
<trkpt lat="43.4704956" lon="6.8403339"><ele></ele><time>2022-5-31T8:2:2Z</time></trkpt>
<trkpt lat="43.4705439" lon="6.8402978"><ele></ele><time>2022-5-31T8:2:5Z</time></trkpt>
<trkpt lat="43.4705933" lon="6.8402704"><ele></ele><time>2022-5-31T8:2:8Z</time></trkpt>
<trkpt lat="43.4706435" lon="6.8402367"><ele></ele><time>2022-5-31T8:2:11Z</time></trkpt>
<trkpt lat="43.4706988" lon="6.8401950"><ele></ele><time>2022-5-31T8:2:14Z</time></trkpt>
<trkpt lat="43.4707527" lon="6.8401605"><ele></ele><time>2022-5-31T8:2:17Z</time></trkpt>
<trkpt lat="43.4708043" lon="6.8401237"><ele></ele><time>2022-5-31T8:2:20Z</time></trkpt>
<trkpt lat="43.4708563" lon="6.8400842"><ele></ele><time>2022-5-31T8:2:23Z</time></trkpt>
<trkpt lat="43.4709120" lon="6.8400487"><ele></ele><time>2022-5-31T8:2:26Z</time></trkpt>
<trkpt lat="43.4709684" lon="6.8400163"><ele></ele><time>2022-5-31T8:2:29Z</time></trkpt>
<trkpt lat="43.4710247" lon="6.8399790"><ele></ele><time>2022-5-31T8:2:32Z</time></trkpt>
<trkpt lat="43.4710710" lon="6.8399385"><ele></ele><time>2022-5-31T8:2:35Z</time></trkpt>
<trkpt lat="43.4711261" lon="6.8398982"><ele></ele><time>2022-5-31T8:2:38Z</time></trkpt>
<trkpt lat="43.4711828" lon="6.8398595"><ele></ele><time>2022-5-31T8:2:41Z</time></trkpt>
<trkpt lat="43.4712308" lon="6.8398261"><ele></ele><time>2022-5-31T8:2:44Z</time></trkpt>
<trkpt lat="43.4712765" lon="6.8397863"><ele></ele><time>2022-5-31T8:2:47Z</time></trkpt>
<trkpt lat="43.4713301" lon="6.8397523"><ele></ele><time>2022-5-31T8:2:50Z</time></trkpt>
<trkpt lat="43.4713870" lon="6.8397436"><ele></ele><time>2022-5-31T8:2:53Z</time></trkpt>
<trkpt lat="43.4714418" lon="6.8397386"><ele></ele><time>2022-5-31T8:2:56Z</time></trkpt>
<trkpt lat="43.4714928" lon="6.8397325"><ele></ele><time>2022-5-31T8:2:59Z</time></trkpt>
<trkpt lat="43.4715615" lon="6.8397143"><ele></ele><time>2022-5-31T8:3:2Z</time></trkpt>
<trkpt lat="43.4716219" lon="6.8396819"><ele></ele><time>2022-5-31T8:3:5Z</time></trkpt>
<trkpt lat="43.4716712" lon="6.8396396"><ele></ele><time>2022-5-31T8:3:8Z</time></trkpt>
<trkpt lat="43.4717186" lon="6.8395833"><ele></ele><time>2022-5-31T8:3:11Z</time></trkpt>
<trkpt lat="43.4717648" lon="6.8395291"><ele></ele><time>2022-5-31T8:3:14Z</time></trkpt>
<trkpt lat="43.4718129" lon="6.8394828"><ele></ele><time>2022-5-31T8:3:17Z</time></trkpt>
<trkpt lat="43.4718626" lon="6.8394358"><ele></ele><time>2022-5-31T8:3:20Z</time></trkpt>
<trkpt lat="43.4719083" lon="6.8393844"><ele></ele><time>2022-5-31T8:3:23Z</time></trkpt>
<trkpt lat="43.4719528" lon="6.8393320"><ele></ele><time>2022-5-31T8:3:26Z</time></trkpt>
<trkpt lat="43.4720021" lon="6.8392799"><ele></ele><time>2022-5-31T8:3:29Z</time></trkpt>
<trkpt lat="43.4720482" lon="6.8392290"><ele></ele><time>2022-5-31T8:3:32Z</time></trkpt>
<trkpt lat="43.4720922" lon="6.8391729"><ele></ele><time>2022-5-31T8:3:35Z</time></trkpt>
<trkpt lat="43.4721301" lon="6.8391049"><ele></ele><time>2022-5-31T8:3:38Z</time></trkpt>
<trkpt lat="43.4721735" lon="6.8390471"><ele></ele><time>2022-5-31T8:3:41Z</time></trkpt>
<trkpt lat="43.4722222" lon="6.8389972"><ele></ele><time>2022-5-31T8:3:44Z</time></trkpt>
<trkpt lat="43.4722824" lon="6.8389590"><ele></ele><time>2022-5-31T8:3:47Z</time></trkpt>
<trkpt lat="43.4723400" lon="6.8389238"><ele></ele><time>2022-5-31T8:3:50Z</time></trkpt>
<trkpt lat="43.4723962" lon="6.8388937"><ele></ele><time>2022-5-31T8:3:53Z</time></trkpt>
<trkpt lat="43.4724521" lon="6.8388795"><ele></ele><time>2022-5-31T8:3:56Z</time></trkpt>
<trkpt lat="43.4725070" lon="6.8388678"><ele></ele><time>2022-5-31T8:3:59Z</time></trkpt>
<trkpt lat="43.4725671" lon="6.8388521"><ele></ele><time>2022-5-31T8:4:2Z</time></trkpt>
<trkpt lat="43.4726177" lon="6.8388245"><ele></ele><time>2022-5-31T8:4:5Z</time></trkpt>
<trkpt lat="43.4726644" lon="6.8387852"><ele></ele><time>2022-5-31T8:4:8Z</time></trkpt>
<trkpt lat="43.4726855" lon="6.8387263"><ele></ele><time>2022-5-31T8:4:11Z</time></trkpt>
<trkpt lat="43.4727013" lon="6.8386609"><ele></ele><time>2022-5-31T8:4:14Z</time></trkpt>
<trkpt lat="43.4727035" lon="6.8385950"><ele></ele><time>2022-5-31T8:4:17Z</time></trkpt>
<trkpt lat="43.4726949" lon="6.8385279"><ele></ele><time>2022-5-31T8:4:20Z</time></trkpt>
<trkpt lat="43.4726751" lon="6.8384696"><ele></ele><time>2022-5-31T8:4:23Z</time></trkpt>
<trkpt lat="43.4726456" lon="6.8384254"><ele></ele><time>2022-5-31T8:4:26Z</time></trkpt>
<trkpt lat="43.4726024" lon="6.8383917"><ele></ele><time>2022-5-31T8:4:29Z</time></trkpt>
<trkpt lat="43.4725587" lon="6.8383638"><ele></ele><time>2022-5-31T8:4:32Z</time></trkpt>
<trkpt lat="43.4725139" lon="6.8383365"><ele></ele><time>2022-5-31T8:4:35Z</time></trkpt>
<trkpt lat="43.4724791" lon="6.8383106"><ele></ele><time>2022-5-31T8:4:38Z</time></trkpt>
<trkpt lat="43.4724370" lon="6.8382600"><ele></ele><time>2022-5-31T8:4:41Z</time></trkpt>
<trkpt lat="43.4724088" lon="6.8381787"><ele></ele><time>2022-5-31T8:4:44Z</time></trkpt>
<trkpt lat="43.4723871" lon="6.8381033"><ele></ele><time>2022-5-31T8:4:47Z</time></trkpt>
<trkpt lat="43.4723754" lon="6.8380322"><ele></ele><time>2022-5-31T8:4:50Z</time></trkpt>
<trkpt lat="43.4723792" lon="6.8379639"><ele></ele><time>2022-5-31T8:4:53Z</time></trkpt>
<trkpt lat="43.4723844" lon="6.8378957"><ele></ele><time>2022-5-31T8:4:56Z</time></trkpt>
<trkpt lat="43.4723976" lon="6.8378321"><ele></ele><time>2022-5-31T8:4:59Z</time></trkpt>
<trkpt lat="43.4724238" lon="6.8377832"><ele></ele><time>2022-5-31T8:5:2Z</time></trkpt>
<trkpt lat="43.4724570" lon="6.8377468"><ele></ele><time>2022-5-31T8:5:5Z</time></trkpt>
<trkpt lat="43.4724958" lon="6.8377217"><ele></ele><time>2022-5-31T8:5:8Z</time></trkpt>
<trkpt lat="43.4725343" lon="6.8377024"><ele></ele><time>2022-5-31T8:5:11Z</time></trkpt>
<trkpt lat="43.4725718" lon="6.8376866"><ele></ele><time>2022-5-31T8:5:14Z</time></trkpt>
<trkpt lat="43.4726108" lon="6.8376841"><ele></ele><time>2022-5-31T8:5:17Z</time></trkpt>
<trkpt lat="43.4726592" lon="6.8376864"><ele></ele><time>2022-5-31T8:5:20Z</time></trkpt>
<trkpt lat="43.4727115" lon="6.8376866"><ele></ele><time>2022-5-31T8:5:23Z</time></trkpt>
<trkpt lat="43.4727594" lon="6.8376863"><ele></ele><time>2022-5-31T8:5:26Z</time></trkpt>
<trkpt lat="43.4728037" lon="6.8376823"><ele></ele><time>2022-5-31T8:5:29Z</time></trkpt>
<trkpt lat="43.4728510" lon="6.8376733"><ele></ele><time>2022-5-31T8:5:32Z</time></trkpt>
<trkpt lat="43.4728933" lon="6.8376558"><ele></ele><time>2022-5-31T8:5:35Z</time></trkpt>
<trkpt lat="43.4729337" lon="6.8376312"><ele></ele><time>2022-5-31T8:5:38Z</time></trkpt>
<trkpt lat="43.4729747" lon="6.8376094"><ele></ele><time>2022-5-31T8:5:41Z</time></trkpt>
<trkpt lat="43.4730137" lon="6.8375865"><ele></ele><time>2022-5-31T8:5:44Z</time></trkpt>
<trkpt lat="43.4730530" lon="6.8375568"><ele></ele><time>2022-5-31T8:5:47Z</time></trkpt>
<trkpt lat="43.4730905" lon="6.8375264"><ele></ele><time>2022-5-31T8:5:50Z</time></trkpt>
<trkpt lat="43.4731231" lon="6.8374889"><ele></ele><time>2022-5-31T8:5:53Z</time></trkpt>
<trkpt lat="43.4731481" lon="6.8374347"><ele></ele><time>2022-5-31T8:5:56Z</time></trkpt>
<trkpt lat="43.4731685" lon="6.8373764"><ele></ele><time>2022-5-31T8:5:59Z</time></trkpt>
<trkpt lat="43.4731858" lon="6.8373166"><ele></ele><time>2022-5-31T8:6:2Z</time></trkpt>
<trkpt lat="43.4731962" lon="6.8372479"><ele></ele><time>2022-5-31T8:6:5Z</time></trkpt>
<trkpt lat="43.4732085" lon="6.8371824"><ele></ele><time>2022-5-31T8:6:8Z</time></trkpt>
<trkpt lat="43.4732181" lon="6.8371154"><ele></ele><time>2022-5-31T8:6:11Z</time></trkpt>
<trkpt lat="43.4732297" lon="6.8370503"><ele></ele><time>2022-5-31T8:6:14Z</time></trkpt>
<trkpt lat="43.4732351" lon="6.8369823"><ele></ele><time>2022-5-31T8:6:17Z</time></trkpt>
<trkpt lat="43.4732382" lon="6.8369114"><ele></ele><time>2022-5-31T8:6:20Z</time></trkpt>
<trkpt lat="43.4732423" lon="6.8368397"><ele></ele><time>2022-5-31T8:6:23Z</time></trkpt>
<trkpt lat="43.4732414" lon="6.8367696"><ele></ele><time>2022-5-31T8:6:26Z</time></trkpt>
<trkpt lat="43.4732419" lon="6.8366977"><ele></ele><time>2022-5-31T8:6:29Z</time></trkpt>
<trkpt lat="43.4732469" lon="6.8366214"><ele></ele><time>2022-5-31T8:6:32Z</time></trkpt>
<trkpt lat="43.4732568" lon="6.8365499"><ele></ele><time>2022-5-31T8:6:35Z</time></trkpt>
<trkpt lat="43.4732718" lon="6.8364770"><ele></ele><time>2022-5-31T8:6:38Z</time></trkpt>
<trkpt lat="43.4732893" lon="6.8364069"><ele></ele><time>2022-5-31T8:6:41Z</time></trkpt>
<trkpt lat="43.4733101" lon="6.8363392"><ele></ele><time>2022-5-31T8:6:44Z</time></trkpt>
<trkpt lat="43.4733360" lon="6.8362737"><ele></ele><time>2022-5-31T8:6:47Z</time></trkpt>
<trkpt lat="43.4733603" lon="6.8362135"><ele></ele><time>2022-5-31T8:6:50Z</time></trkpt>
<trkpt lat="43.4733856" lon="6.8361539"><ele></ele><time>2022-5-31T8:6:53Z</time></trkpt>
<trkpt lat="43.4734123" lon="6.8360922"><ele></ele><time>2022-5-31T8:6:56Z</time></trkpt>
<trkpt lat="43.4734516" lon="6.8360406"><ele></ele><time>2022-5-31T8:6:59Z</time></trkpt>
<trkpt lat="43.4734864" lon="6.8359845"><ele></ele><time>2022-5-31T8:7:2Z</time></trkpt>
<trkpt lat="43.4735238" lon="6.8359272"><ele></ele><time>2022-5-31T8:7:5Z</time></trkpt>
<trkpt lat="43.4735569" lon="6.8358692"><ele></ele><time>2022-5-31T8:7:8Z</time></trkpt>
<trkpt lat="43.4735878" lon="6.8358163"><ele></ele><time>2022-5-31T8:7:11Z</time></trkpt>
<trkpt lat="43.4736167" lon="6.8357535"><ele></ele><time>2022-5-31T8:7:14Z</time></trkpt>
<trkpt lat="43.4736486" lon="6.8356936"><ele></ele><time>2022-5-31T8:7:17Z</time></trkpt>
<trkpt lat="43.4736816" lon="6.8356350"><ele></ele><time>2022-5-31T8:7:20Z</time></trkpt>
<trkpt lat="43.4737131" lon="6.8355791"><ele></ele><time>2022-5-31T8:7:23Z</time></trkpt>
<trkpt lat="43.4737436" lon="6.8355259"><ele></ele><time>2022-5-31T8:7:26Z</time></trkpt>
<trkpt lat="43.4737745" lon="6.8354704"><ele></ele><time>2022-5-31T8:7:29Z</time></trkpt>
<trkpt lat="43.4738069" lon="6.8354141"><ele></ele><time>2022-5-31T8:7:32Z</time></trkpt>
<trkpt lat="43.4738419" lon="6.8353645"><ele></ele><time>2022-5-31T8:7:35Z</time></trkpt>
<trkpt lat="43.4738771" lon="6.8353178"><ele></ele><time>2022-5-31T8:7:38Z</time></trkpt>
<trkpt lat="43.4739159" lon="6.8352721"><ele></ele><time>2022-5-31T8:7:41Z</time></trkpt>
<trkpt lat="43.4739547" lon="6.8352293"><ele></ele><time>2022-5-31T8:7:44Z</time></trkpt>
<trkpt lat="43.4739976" lon="6.8351870"><ele></ele><time>2022-5-31T8:7:47Z</time></trkpt>
<trkpt lat="43.4740476" lon="6.8351509"><ele></ele><time>2022-5-31T8:7:50Z</time></trkpt>
<trkpt lat="43.4740939" lon="6.8351231"><ele></ele><time>2022-5-31T8:7:53Z</time></trkpt>
<trkpt lat="43.4741384" lon="6.8350940"><ele></ele><time>2022-5-31T8:7:56Z</time></trkpt>
<trkpt lat="43.4741811" lon="6.8350722"><ele></ele><time>2022-5-31T8:7:59Z</time></trkpt>
<trkpt lat="43.4742242" lon="6.8350494"><ele></ele><time>2022-5-31T8:8:2Z</time></trkpt>
<trkpt lat="43.4742726" lon="6.8350370"><ele></ele><time>2022-5-31T8:8:5Z</time></trkpt>
<trkpt lat="43.4743286" lon="6.8350348"><ele></ele><time>2022-5-31T8:8:8Z</time></trkpt>
<trkpt lat="43.4743870" lon="6.8350514"><ele></ele><time>2022-5-31T8:8:11Z</time></trkpt>
<trkpt lat="43.4744424" lon="6.8350720"><ele></ele><time>2022-5-31T8:8:14Z</time></trkpt>
<trkpt lat="43.4744938" lon="6.8350917"><ele></ele><time>2022-5-31T8:8:17Z</time></trkpt>
<trkpt lat="43.4745450" lon="6.8351109"><ele></ele><time>2022-5-31T8:8:20Z</time></trkpt>
<trkpt lat="43.4745922" lon="6.8351275"><ele></ele><time>2022-5-31T8:8:23Z</time></trkpt>
<trkpt lat="43.4746488" lon="6.8351312"><ele></ele><time>2022-5-31T8:8:26Z</time></trkpt>
<trkpt lat="43.4747008" lon="6.8351022"><ele></ele><time>2022-5-31T8:8:29Z</time></trkpt>
<trkpt lat="43.4747557" lon="6.8350666"><ele></ele><time>2022-5-31T8:8:32Z</time></trkpt>
<trkpt lat="43.4748005" lon="6.8350172"><ele></ele><time>2022-5-31T8:8:35Z</time></trkpt>
<trkpt lat="43.4748437" lon="6.8349749"><ele></ele><time>2022-5-31T8:8:38Z</time></trkpt>
<trkpt lat="43.4748862" lon="6.8349348"><ele></ele><time>2022-5-31T8:8:41Z</time></trkpt>
<trkpt lat="43.4749297" lon="6.8348941"><ele></ele><time>2022-5-31T8:8:44Z</time></trkpt>
<trkpt lat="43.4749727" lon="6.8348516"><ele></ele><time>2022-5-31T8:8:47Z</time></trkpt>
<trkpt lat="43.4750148" lon="6.8348062"><ele></ele><time>2022-5-31T8:8:50Z</time></trkpt>
<trkpt lat="43.4750555" lon="6.8347599"><ele></ele><time>2022-5-31T8:8:53Z</time></trkpt>
<trkpt lat="43.4750920" lon="6.8347130"><ele></ele><time>2022-5-31T8:8:56Z</time></trkpt>
<trkpt lat="43.4751270" lon="6.8346632"><ele></ele><time>2022-5-31T8:8:59Z</time></trkpt>
<trkpt lat="43.4751602" lon="6.8346121"><ele></ele><time>2022-5-31T8:9:2Z</time></trkpt>
<trkpt lat="43.4751885" lon="6.8345591"><ele></ele><time>2022-5-31T8:9:5Z</time></trkpt>
<trkpt lat="43.4752170" lon="6.8345114"><ele></ele><time>2022-5-31T8:9:8Z</time></trkpt>
<trkpt lat="43.4752353" lon="6.8344522"><ele></ele><time>2022-5-31T8:9:11Z</time></trkpt>
<trkpt lat="43.4752506" lon="6.8343820"><ele></ele><time>2022-5-31T8:9:14Z</time></trkpt>
<trkpt lat="43.4752509" lon="6.8343066"><ele></ele><time>2022-5-31T8:9:17Z</time></trkpt>
<trkpt lat="43.4752401" lon="6.8342375"><ele></ele><time>2022-5-31T8:9:20Z</time></trkpt>
<trkpt lat="43.4752230" lon="6.8341678"><ele></ele><time>2022-5-31T8:9:23Z</time></trkpt>
<trkpt lat="43.4751932" lon="6.8341016"><ele></ele><time>2022-5-31T8:9:26Z</time></trkpt>
<trkpt lat="43.4751474" lon="6.8340591"><ele></ele><time>2022-5-31T8:9:29Z</time></trkpt>
<trkpt lat="43.4751171" lon="6.8340269"><ele></ele><time>2022-5-31T8:9:32Z</time></trkpt>
<trkpt lat="43.4750740" lon="6.8339934"><ele></ele><time>2022-5-31T8:9:35Z</time></trkpt>
<trkpt lat="43.4750276" lon="6.8339648"><ele></ele><time>2022-5-31T8:9:38Z</time></trkpt>
<trkpt lat="43.4749842" lon="6.8339382"><ele></ele><time>2022-5-31T8:9:41Z</time></trkpt>
<trkpt lat="43.4749402" lon="6.8339190"><ele></ele><time>2022-5-31T8:9:44Z</time></trkpt>
<trkpt lat="43.4748930" lon="6.8339127"><ele></ele><time>2022-5-31T8:9:47Z</time></trkpt>
<trkpt lat="43.4748502" lon="6.8339055"><ele></ele><time>2022-5-31T8:9:50Z</time></trkpt>
<trkpt lat="43.4748100" lon="6.8338827"><ele></ele><time>2022-5-31T8:9:53Z</time></trkpt>
<trkpt lat="43.4747756" lon="6.8338569"><ele></ele><time>2022-5-31T8:9:56Z</time></trkpt>
<trkpt lat="43.4747446" lon="6.8338209"><ele></ele><time>2022-5-31T8:9:59Z</time></trkpt>
<trkpt lat="43.4747155" lon="6.8337683"><ele></ele><time>2022-5-31T8:10:2Z</time></trkpt>
<trkpt lat="43.4746911" lon="6.8337159"><ele></ele><time>2022-5-31T8:10:5Z</time></trkpt>
<trkpt lat="43.4746699" lon="6.8336660"><ele></ele><time>2022-5-31T8:10:8Z</time></trkpt>
<trkpt lat="43.4746572" lon="6.8336158"><ele></ele><time>2022-5-31T8:10:11Z</time></trkpt>
<trkpt lat="43.4746534" lon="6.8335664"><ele></ele><time>2022-5-31T8:10:14Z</time></trkpt>
<trkpt lat="43.4746566" lon="6.8335064"><ele></ele><time>2022-5-31T8:10:17Z</time></trkpt>
<trkpt lat="43.4746704" lon="6.8334425"><ele></ele><time>2022-5-31T8:10:20Z</time></trkpt>
<trkpt lat="43.4746860" lon="6.8333808"><ele></ele><time>2022-5-31T8:10:23Z</time></trkpt>
<trkpt lat="43.4747102" lon="6.8333220"><ele></ele><time>2022-5-31T8:10:26Z</time></trkpt>
<trkpt lat="43.4747390" lon="6.8332657"><ele></ele><time>2022-5-31T8:10:29Z</time></trkpt>
<trkpt lat="43.4747689" lon="6.8332213"><ele></ele><time>2022-5-31T8:10:32Z</time></trkpt>
<trkpt lat="43.4747964" lon="6.8331821"><ele></ele><time>2022-5-31T8:10:35Z</time></trkpt>
<trkpt lat="43.4748125" lon="6.8331332"><ele></ele><time>2022-5-31T8:10:38Z</time></trkpt>
<trkpt lat="43.4748313" lon="6.8330845"><ele></ele><time>2022-5-31T8:10:41Z</time></trkpt>
<trkpt lat="43.4748571" lon="6.8330420"><ele></ele><time>2022-5-31T8:10:44Z</time></trkpt>
<trkpt lat="43.4748803" lon="6.8330006"><ele></ele><time>2022-5-31T8:10:47Z</time></trkpt>
<trkpt lat="43.4748979" lon="6.8329591"><ele></ele><time>2022-5-31T8:10:50Z</time></trkpt>
<trkpt lat="43.4749136" lon="6.8329181"><ele></ele><time>2022-5-31T8:10:53Z</time></trkpt>
<trkpt lat="43.4749203" lon="6.8328713"><ele></ele><time>2022-5-31T8:10:56Z</time></trkpt>
<trkpt lat="43.4749265" lon="6.8328255"><ele></ele><time>2022-5-31T8:10:59Z</time></trkpt>
<trkpt lat="43.4749300" lon="6.8327768"><ele></ele><time>2022-5-31T8:11:2Z</time></trkpt>
<trkpt lat="43.4749295" lon="6.8327282"><ele></ele><time>2022-5-31T8:11:5Z</time></trkpt>
<trkpt lat="43.4749249" lon="6.8326781"><ele></ele><time>2022-5-31T8:11:8Z</time></trkpt>
<trkpt lat="43.4749213" lon="6.8326292"><ele></ele><time>2022-5-31T8:11:11Z</time></trkpt>
<trkpt lat="43.4749145" lon="6.8325825"><ele></ele><time>2022-5-31T8:11:14Z</time></trkpt>
<trkpt lat="43.4749093" lon="6.8325336"><ele></ele><time>2022-5-31T8:11:17Z</time></trkpt>
<trkpt lat="43.4749022" lon="6.8324850"><ele></ele><time>2022-5-31T8:11:20Z</time></trkpt>
<trkpt lat="43.4748951" lon="6.8324373"><ele></ele><time>2022-5-31T8:11:23Z</time></trkpt>
<trkpt lat="43.4748897" lon="6.8323901"><ele></ele><time>2022-5-31T8:11:26Z</time></trkpt>
<trkpt lat="43.4748842" lon="6.8323408"><ele></ele><time>2022-5-31T8:11:29Z</time></trkpt>
<trkpt lat="43.4748794" lon="6.8322958"><ele></ele><time>2022-5-31T8:11:32Z</time></trkpt>
<trkpt lat="43.4748779" lon="6.8322500"><ele></ele><time>2022-5-31T8:11:35Z</time></trkpt>
<trkpt lat="43.4748812" lon="6.8322077"><ele></ele><time>2022-5-31T8:11:38Z</time></trkpt>
<trkpt lat="43.4748841" lon="6.8321660"><ele></ele><time>2022-5-31T8:11:41Z</time></trkpt>
<trkpt lat="43.4748838" lon="6.8321244"><ele></ele><time>2022-5-31T8:11:44Z</time></trkpt>
<trkpt lat="43.4748838" lon="6.8320838"><ele></ele><time>2022-5-31T8:11:47Z</time></trkpt>
<trkpt lat="43.4748849" lon="6.8320395"><ele></ele><time>2022-5-31T8:11:50Z</time></trkpt>
<trkpt lat="43.4748860" lon="6.8319910"><ele></ele><time>2022-5-31T8:11:53Z</time></trkpt>
<trkpt lat="43.4748921" lon="6.8319420"><ele></ele><time>2022-5-31T8:11:56Z</time></trkpt>
<trkpt lat="43.4748985" lon="6.8318905"><ele></ele><time>2022-5-31T8:11:59Z</time></trkpt>
<trkpt lat="43.4749045" lon="6.8318392"><ele></ele><time>2022-5-31T8:12:2Z</time></trkpt>
<trkpt lat="43.4749100" lon="6.8317915"><ele></ele><time>2022-5-31T8:12:5Z</time></trkpt>
<trkpt lat="43.4749133" lon="6.8317434"><ele></ele><time>2022-5-31T8:12:8Z</time></trkpt>
<trkpt lat="43.4749186" lon="6.8316899"><ele></ele><time>2022-5-31T8:12:11Z</time></trkpt>
<trkpt lat="43.4749259" lon="6.8316296"><ele></ele><time>2022-5-31T8:12:14Z</time></trkpt>
<trkpt lat="43.4749341" lon="6.8315652"><ele></ele><time>2022-5-31T8:12:17Z</time></trkpt>
<trkpt lat="43.4749408" lon="6.8315047"><ele></ele><time>2022-5-31T8:12:20Z</time></trkpt>
<trkpt lat="43.4749438" lon="6.8314425"><ele></ele><time>2022-5-31T8:12:23Z</time></trkpt>
<trkpt lat="43.4749411" lon="6.8313829"><ele></ele><time>2022-5-31T8:12:26Z</time></trkpt>
<trkpt lat="43.4749399" lon="6.8313170"><ele></ele><time>2022-5-31T8:12:29Z</time></trkpt>
<trkpt lat="43.4749385" lon="6.8312532"><ele></ele><time>2022-5-31T8:12:32Z</time></trkpt>
<trkpt lat="43.4749340" lon="6.8311860"><ele></ele><time>2022-5-31T8:12:35Z</time></trkpt>
<trkpt lat="43.4749211" lon="6.8311185"><ele></ele><time>2022-5-31T8:12:38Z</time></trkpt>
<trkpt lat="43.4749075" lon="6.8310477"><ele></ele><time>2022-5-31T8:12:41Z</time></trkpt>
<trkpt lat="43.4748967" lon="6.8309815"><ele></ele><time>2022-5-31T8:12:44Z</time></trkpt>
<trkpt lat="43.4748874" lon="6.8309141"><ele></ele><time>2022-5-31T8:12:47Z</time></trkpt>
<trkpt lat="43.4748786" lon="6.8308411"><ele></ele><time>2022-5-31T8:12:50Z</time></trkpt>
<trkpt lat="43.4748744" lon="6.8307592"><ele></ele><time>2022-5-31T8:12:53Z</time></trkpt>
<trkpt lat="43.4748711" lon="6.8306808"><ele></ele><time>2022-5-31T8:12:56Z</time></trkpt>
<trkpt lat="43.4748676" lon="6.8306060"><ele></ele><time>2022-5-31T8:12:59Z</time></trkpt>
<trkpt lat="43.4748648" lon="6.8305241"><ele></ele><time>2022-5-31T8:13:2Z</time></trkpt>
<trkpt lat="43.4748586" lon="6.8304413"><ele></ele><time>2022-5-31T8:13:5Z</time></trkpt>
<trkpt lat="43.4748311" lon="6.8303570"><ele></ele><time>2022-5-31T8:13:8Z</time></trkpt>
<trkpt lat="43.4747998" lon="6.8302833"><ele></ele><time>2022-5-31T8:13:11Z</time></trkpt>
<trkpt lat="43.4747697" lon="6.8302267"><ele></ele><time>2022-5-31T8:13:14Z</time></trkpt>
<trkpt lat="43.4747330" lon="6.8301805"><ele></ele><time>2022-5-31T8:13:17Z</time></trkpt>
<trkpt lat="43.4746923" lon="6.8301303"><ele></ele><time>2022-5-31T8:13:20Z</time></trkpt>
<trkpt lat="43.4746528" lon="6.8300815"><ele></ele><time>2022-5-31T8:13:23Z</time></trkpt>
<trkpt lat="43.4746164" lon="6.8300360"><ele></ele><time>2022-5-31T8:13:26Z</time></trkpt>
<trkpt lat="43.4745798" lon="6.8299859"><ele></ele><time>2022-5-31T8:13:29Z</time></trkpt>
<trkpt lat="43.4745340" lon="6.8299270"><ele></ele><time>2022-5-31T8:13:32Z</time></trkpt>
<trkpt lat="43.4744849" lon="6.8298570"><ele></ele><time>2022-5-31T8:13:35Z</time></trkpt>
<trkpt lat="43.4744324" lon="6.8297901"><ele></ele><time>2022-5-31T8:13:38Z</time></trkpt>
<trkpt lat="43.4743809" lon="6.8297286"><ele></ele><time>2022-5-31T8:13:41Z</time></trkpt>
<trkpt lat="43.4743166" lon="6.8296826"><ele></ele><time>2022-5-31T8:13:44Z</time></trkpt>
<trkpt lat="43.4742451" lon="6.8296526"><ele></ele><time>2022-5-31T8:13:47Z</time></trkpt>
<trkpt lat="43.4741798" lon="6.8296686"><ele></ele><time>2022-5-31T8:13:50Z</time></trkpt>
<trkpt lat="43.4741270" lon="6.8297145"><ele></ele><time>2022-5-31T8:13:53Z</time></trkpt>
<trkpt lat="43.4740852" lon="6.8297714"><ele></ele><time>2022-5-31T8:13:56Z</time></trkpt>
<trkpt lat="43.4740559" lon="6.8298394"><ele></ele><time>2022-5-31T8:13:59Z</time></trkpt>
<trkpt lat="43.4740222" lon="6.8299075"><ele></ele><time>2022-5-31T8:14:2Z</time></trkpt>
<trkpt lat="43.4739792" lon="6.8299632"><ele></ele><time>2022-5-31T8:14:5Z</time></trkpt>
<trkpt lat="43.4739389" lon="6.8300123"><ele></ele><time>2022-5-31T8:14:8Z</time></trkpt>
<trkpt lat="43.4739024" lon="6.8300585"><ele></ele><time>2022-5-31T8:14:11Z</time></trkpt>
<trkpt lat="43.4738557" lon="6.8300968"><ele></ele><time>2022-5-31T8:14:14Z</time></trkpt>
<trkpt lat="43.4738043" lon="6.8301316"><ele></ele><time>2022-5-31T8:14:17Z</time></trkpt>
<trkpt lat="43.4737529" lon="6.8301572"><ele></ele><time>2022-5-31T8:14:20Z</time></trkpt>
<trkpt lat="43.4737002" lon="6.8301773"><ele></ele><time>2022-5-31T8:14:23Z</time></trkpt>
<trkpt lat="43.4736491" lon="6.8301855"><ele></ele><time>2022-5-31T8:14:26Z</time></trkpt>
<trkpt lat="43.4735900" lon="6.8301819"><ele></ele><time>2022-5-31T8:14:29Z</time></trkpt>
<trkpt lat="43.4735334" lon="6.8301533"><ele></ele><time>2022-5-31T8:14:32Z</time></trkpt>
<trkpt lat="43.4734845" lon="6.8301222"><ele></ele><time>2022-5-31T8:14:35Z</time></trkpt>
<trkpt lat="43.4734419" lon="6.8300694"><ele></ele><time>2022-5-31T8:14:38Z</time></trkpt>
<trkpt lat="43.4734016" lon="6.8300099"><ele></ele><time>2022-5-31T8:14:41Z</time></trkpt>
<trkpt lat="43.4733808" lon="6.8299335"><ele></ele><time>2022-5-31T8:14:44Z</time></trkpt>
<trkpt lat="43.4733652" lon="6.8298467"><ele></ele><time>2022-5-31T8:14:47Z</time></trkpt>
<trkpt lat="43.4733559" lon="6.8297595"><ele></ele><time>2022-5-31T8:14:50Z</time></trkpt>
<trkpt lat="43.4733451" lon="6.8296760"><ele></ele><time>2022-5-31T8:14:53Z</time></trkpt>
<trkpt lat="43.4733309" lon="6.8295910"><ele></ele><time>2022-5-31T8:14:56Z</time></trkpt>
<trkpt lat="43.4733143" lon="6.8295025"><ele></ele><time>2022-5-31T8:14:59Z</time></trkpt>
<trkpt lat="43.4732971" lon="6.8294130"><ele></ele><time>2022-5-31T8:15:2Z</time></trkpt>
<trkpt lat="43.4732750" lon="6.8293299"><ele></ele><time>2022-5-31T8:15:5Z</time></trkpt>
<trkpt lat="43.4732535" lon="6.8292499"><ele></ele><time>2022-5-31T8:15:8Z</time></trkpt>
<trkpt lat="43.4732276" lon="6.8291762"><ele></ele><time>2022-5-31T8:15:11Z</time></trkpt>
<trkpt lat="43.4731843" lon="6.8291121"><ele></ele><time>2022-5-31T8:15:14Z</time></trkpt>
<trkpt lat="43.4731322" lon="6.8290584"><ele></ele><time>2022-5-31T8:15:17Z</time></trkpt>
<trkpt lat="43.4730728" lon="6.8290120"><ele></ele><time>2022-5-31T8:15:20Z</time></trkpt>
<trkpt lat="43.4730093" lon="6.8289690"><ele></ele><time>2022-5-31T8:15:23Z</time></trkpt>
<trkpt lat="43.4729486" lon="6.8289312"><ele></ele><time>2022-5-31T8:15:26Z</time></trkpt>
<trkpt lat="43.4728903" lon="6.8288897"><ele></ele><time>2022-5-31T8:15:29Z</time></trkpt>
<trkpt lat="43.4728279" lon="6.8288419"><ele></ele><time>2022-5-31T8:15:32Z</time></trkpt>
<trkpt lat="43.4727725" lon="6.8287845"><ele></ele><time>2022-5-31T8:15:35Z</time></trkpt>
<trkpt lat="43.4727235" lon="6.8287194"><ele></ele><time>2022-5-31T8:15:38Z</time></trkpt>
<trkpt lat="43.4726816" lon="6.8286459"><ele></ele><time>2022-5-31T8:15:41Z</time></trkpt>
<trkpt lat="43.4726452" lon="6.8285712"><ele></ele><time>2022-5-31T8:15:44Z</time></trkpt>
<trkpt lat="43.4726118" lon="6.8284988"><ele></ele><time>2022-5-31T8:15:47Z</time></trkpt>
<trkpt lat="43.4725876" lon="6.8284172"><ele></ele><time>2022-5-31T8:15:50Z</time></trkpt>
<trkpt lat="43.4725574" lon="6.8283446"><ele></ele><time>2022-5-31T8:15:53Z</time></trkpt>
<trkpt lat="43.4725231" lon="6.8282647"><ele></ele><time>2022-5-31T8:15:56Z</time></trkpt>
<trkpt lat="43.4724945" lon="6.8281800"><ele></ele><time>2022-5-31T8:15:59Z</time></trkpt>
<trkpt lat="43.4724680" lon="6.8280988"><ele></ele><time>2022-5-31T8:16:2Z</time></trkpt>
<trkpt lat="43.4724408" lon="6.8280195"><ele></ele><time>2022-5-31T8:16:5Z</time></trkpt>
<trkpt lat="43.4724139" lon="6.8279398"><ele></ele><time>2022-5-31T8:16:8Z</time></trkpt>
<trkpt lat="43.4723870" lon="6.8278651"><ele></ele><time>2022-5-31T8:16:11Z</time></trkpt>
<trkpt lat="43.4723661" lon="6.8277869"><ele></ele><time>2022-5-31T8:16:14Z</time></trkpt>
<trkpt lat="43.4723480" lon="6.8277086"><ele></ele><time>2022-5-31T8:16:17Z</time></trkpt>
<trkpt lat="43.4723379" lon="6.8276262"><ele></ele><time>2022-5-31T8:16:20Z</time></trkpt>
<trkpt lat="43.4723320" lon="6.8275396"><ele></ele><time>2022-5-31T8:16:23Z</time></trkpt>
<trkpt lat="43.4723345" lon="6.8274492"><ele></ele><time>2022-5-31T8:16:26Z</time></trkpt>
<trkpt lat="43.4723463" lon="6.8273650"><ele></ele><time>2022-5-31T8:16:29Z</time></trkpt>
<trkpt lat="43.4723515" lon="6.8272836"><ele></ele><time>2022-5-31T8:16:32Z</time></trkpt>
<trkpt lat="43.4723525" lon="6.8271981"><ele></ele><time>2022-5-31T8:16:35Z</time></trkpt>
<trkpt lat="43.4723579" lon="6.8271136"><ele></ele><time>2022-5-31T8:16:38Z</time></trkpt>
<trkpt lat="43.4723679" lon="6.8270258"><ele></ele><time>2022-5-31T8:16:41Z</time></trkpt>
<trkpt lat="43.4723702" lon="6.8269360"><ele></ele><time>2022-5-31T8:16:44Z</time></trkpt>
<trkpt lat="43.4723673" lon="6.8268454"><ele></ele><time>2022-5-31T8:16:47Z</time></trkpt>
<trkpt lat="43.4723698" lon="6.8267551"><ele></ele><time>2022-5-31T8:16:50Z</time></trkpt>
<trkpt lat="43.4723739" lon="6.8266668"><ele></ele><time>2022-5-31T8:16:53Z</time></trkpt>
<trkpt lat="43.4723790" lon="6.8265815"><ele></ele><time>2022-5-31T8:16:56Z</time></trkpt>
<trkpt lat="43.4723854" lon="6.8264945"><ele></ele><time>2022-5-31T8:16:59Z</time></trkpt>
<trkpt lat="43.4723954" lon="6.8264063"><ele></ele><time>2022-5-31T8:17:2Z</time></trkpt>
<trkpt lat="43.4724139" lon="6.8263125"><ele></ele><time>2022-5-31T8:17:5Z</time></trkpt>
<trkpt lat="43.4724330" lon="6.8262247"><ele></ele><time>2022-5-31T8:17:8Z</time></trkpt>
<trkpt lat="43.4724638" lon="6.8261465"><ele></ele><time>2022-5-31T8:17:11Z</time></trkpt>
<trkpt lat="43.4725017" lon="6.8260758"><ele></ele><time>2022-5-31T8:17:14Z</time></trkpt>
<trkpt lat="43.4725422" lon="6.8260092"><ele></ele><time>2022-5-31T8:17:17Z</time></trkpt>
<trkpt lat="43.4725881" lon="6.8259488"><ele></ele><time>2022-5-31T8:17:20Z</time></trkpt>
<trkpt lat="43.4726208" lon="6.8258765"><ele></ele><time>2022-5-31T8:17:23Z</time></trkpt>
<trkpt lat="43.4726408" lon="6.8257869"><ele></ele><time>2022-5-31T8:17:26Z</time></trkpt>
<trkpt lat="43.4726450" lon="6.8256934"><ele></ele><time>2022-5-31T8:17:29Z</time></trkpt>
<trkpt lat="43.4726454" lon="6.8256105"><ele></ele><time>2022-5-31T8:17:32Z</time></trkpt>
<trkpt lat="43.4726434" lon="6.8255251"><ele></ele><time>2022-5-31T8:17:35Z</time></trkpt>
<trkpt lat="43.4726395" lon="6.8254422"><ele></ele><time>2022-5-31T8:17:38Z</time></trkpt>
<trkpt lat="43.4726401" lon="6.8253553"><ele></ele><time>2022-5-31T8:17:41Z</time></trkpt>
<trkpt lat="43.4726493" lon="6.8252698"><ele></ele><time>2022-5-31T8:17:44Z</time></trkpt>
<trkpt lat="43.4726633" lon="6.8251837"><ele></ele><time>2022-5-31T8:17:47Z</time></trkpt>
<trkpt lat="43.4726874" lon="6.8251031"><ele></ele><time>2022-5-31T8:17:50Z</time></trkpt>
<trkpt lat="43.4727179" lon="6.8250211"><ele></ele><time>2022-5-31T8:17:53Z</time></trkpt>
<trkpt lat="43.4727490" lon="6.8249461"><ele></ele><time>2022-5-31T8:17:56Z</time></trkpt>
<trkpt lat="43.4727840" lon="6.8248770"><ele></ele><time>2022-5-31T8:17:59Z</time></trkpt>
<trkpt lat="43.4728112" lon="6.8248059"><ele></ele><time>2022-5-31T8:18:2Z</time></trkpt>
<trkpt lat="43.4728357" lon="6.8247366"><ele></ele><time>2022-5-31T8:18:5Z</time></trkpt>
<trkpt lat="43.4728533" lon="6.8246596"><ele></ele><time>2022-5-31T8:18:8Z</time></trkpt>
<trkpt lat="43.4728688" lon="6.8245848"><ele></ele><time>2022-5-31T8:18:11Z</time></trkpt>
<trkpt lat="43.4728820" lon="6.8245065"><ele></ele><time>2022-5-31T8:18:14Z</time></trkpt>
<trkpt lat="43.4728959" lon="6.8244282"><ele></ele><time>2022-5-31T8:18:17Z</time></trkpt>
<trkpt lat="43.4729120" lon="6.8243474"><ele></ele><time>2022-5-31T8:18:20Z</time></trkpt>
<trkpt lat="43.4729231" lon="6.8242710"><ele></ele><time>2022-5-31T8:18:23Z</time></trkpt>
<trkpt lat="43.4729355" lon="6.8241872"><ele></ele><time>2022-5-31T8:18:26Z</time></trkpt>
<trkpt lat="43.4729577" lon="6.8241051"><ele></ele><time>2022-5-31T8:18:29Z</time></trkpt>
<trkpt lat="43.4729838" lon="6.8240250"><ele></ele><time>2022-5-31T8:18:32Z</time></trkpt>
<trkpt lat="43.4730070" lon="6.8239388"><ele></ele><time>2022-5-31T8:18:35Z</time></trkpt>
<trkpt lat="43.4730243" lon="6.8238459"><ele></ele><time>2022-5-31T8:18:38Z</time></trkpt>
<trkpt lat="43.4730358" lon="6.8237547"><ele></ele><time>2022-5-31T8:18:41Z</time></trkpt>
<trkpt lat="43.4730524" lon="6.8236685"><ele></ele><time>2022-5-31T8:18:44Z</time></trkpt>
<trkpt lat="43.4730614" lon="6.8235806"><ele></ele><time>2022-5-31T8:18:47Z</time></trkpt>
<trkpt lat="43.4730683" lon="6.8234937"><ele></ele><time>2022-5-31T8:18:50Z</time></trkpt>
<trkpt lat="43.4730703" lon="6.8234084"><ele></ele><time>2022-5-31T8:18:53Z</time></trkpt>
<trkpt lat="43.4730780" lon="6.8233268"><ele></ele><time>2022-5-31T8:18:56Z</time></trkpt>
<trkpt lat="43.4730829" lon="6.8232471"><ele></ele><time>2022-5-31T8:18:59Z</time></trkpt>
<trkpt lat="43.4730890" lon="6.8231649"><ele></ele><time>2022-5-31T8:19:2Z</time></trkpt>
<trkpt lat="43.4730941" lon="6.8230813"><ele></ele><time>2022-5-31T8:19:5Z</time></trkpt>
<trkpt lat="43.4731009" lon="6.8229970"><ele></ele><time>2022-5-31T8:19:8Z</time></trkpt>
<trkpt lat="43.4731073" lon="6.8229125"><ele></ele><time>2022-5-31T8:19:11Z</time></trkpt>
<trkpt lat="43.4731148" lon="6.8228285"><ele></ele><time>2022-5-31T8:19:14Z</time></trkpt>
<trkpt lat="43.4731360" lon="6.8227491"><ele></ele><time>2022-5-31T8:19:17Z</time></trkpt>
<trkpt lat="43.4731494" lon="6.8226674"><ele></ele><time>2022-5-31T8:19:20Z</time></trkpt>
<trkpt lat="43.4731586" lon="6.8225808"><ele></ele><time>2022-5-31T8:19:23Z</time></trkpt>
<trkpt lat="43.4731665" lon="6.8224981"><ele></ele><time>2022-5-31T8:19:26Z</time></trkpt>
<trkpt lat="43.4731789" lon="6.8224102"><ele></ele><time>2022-5-31T8:19:29Z</time></trkpt>
<trkpt lat="43.4732027" lon="6.8223288"><ele></ele><time>2022-5-31T8:19:32Z</time></trkpt>
<trkpt lat="43.4732279" lon="6.8222469"><ele></ele><time>2022-5-31T8:19:35Z</time></trkpt>
<trkpt lat="43.4732542" lon="6.8221687"><ele></ele><time>2022-5-31T8:19:38Z</time></trkpt>
<trkpt lat="43.4732824" lon="6.8220923"><ele></ele><time>2022-5-31T8:19:41Z</time></trkpt>
<trkpt lat="43.4733133" lon="6.8220202"><ele></ele><time>2022-5-31T8:19:44Z</time></trkpt>
<trkpt lat="43.4733422" lon="6.8219478"><ele></ele><time>2022-5-31T8:19:47Z</time></trkpt>
<trkpt lat="43.4733753" lon="6.8218806"><ele></ele><time>2022-5-31T8:19:50Z</time></trkpt>
<trkpt lat="43.4734138" lon="6.8218283"><ele></ele><time>2022-5-31T8:19:53Z</time></trkpt>
<trkpt lat="43.4734477" lon="6.8217713"><ele></ele><time>2022-5-31T8:19:56Z</time></trkpt>
<trkpt lat="43.4734808" lon="6.8217160"><ele></ele><time>2022-5-31T8:19:59Z</time></trkpt>
<trkpt lat="43.4735107" lon="6.8216630"><ele></ele><time>2022-5-31T8:20:2Z</time></trkpt>
<trkpt lat="43.4735379" lon="6.8216046"><ele></ele><time>2022-5-31T8:20:5Z</time></trkpt>
<trkpt lat="43.4735693" lon="6.8215452"><ele></ele><time>2022-5-31T8:20:8Z</time></trkpt>
<trkpt lat="43.4736031" lon="6.8214905"><ele></ele><time>2022-5-31T8:20:11Z</time></trkpt>
<trkpt lat="43.4736500" lon="6.8214549"><ele></ele><time>2022-5-31T8:20:14Z</time></trkpt>
<trkpt lat="43.4736948" lon="6.8214108"><ele></ele><time>2022-5-31T8:20:17Z</time></trkpt>
<trkpt lat="43.4737379" lon="6.8213610"><ele></ele><time>2022-5-31T8:20:20Z</time></trkpt>
<trkpt lat="43.4737720" lon="6.8212980"><ele></ele><time>2022-5-31T8:20:23Z</time></trkpt>
<trkpt lat="43.4737935" lon="6.8212235"><ele></ele><time>2022-5-31T8:20:26Z</time></trkpt>
<trkpt lat="43.4738070" lon="6.8211456"><ele></ele><time>2022-5-31T8:20:29Z</time></trkpt>
<trkpt lat="43.4738154" lon="6.8210705"><ele></ele><time>2022-5-31T8:20:32Z</time></trkpt>
<trkpt lat="43.4738201" lon="6.8209938"><ele></ele><time>2022-5-31T8:20:35Z</time></trkpt>
<trkpt lat="43.4738323" lon="6.8209218"><ele></ele><time>2022-5-31T8:20:38Z</time></trkpt>
<trkpt lat="43.4738518" lon="6.8208639"><ele></ele><time>2022-5-31T8:20:41Z</time></trkpt>
<trkpt lat="43.4738757" lon="6.8208180"><ele></ele><time>2022-5-31T8:20:44Z</time></trkpt>
<trkpt lat="43.4738884" lon="6.8207700"><ele></ele><time>2022-5-31T8:20:47Z</time></trkpt>
<trkpt lat="43.4738985" lon="6.8207159"><ele></ele><time>2022-5-31T8:20:50Z</time></trkpt>
<trkpt lat="43.4739169" lon="6.8206694"><ele></ele><time>2022-5-31T8:20:53Z</time></trkpt>
<trkpt lat="43.4739314" lon="6.8206210"><ele></ele><time>2022-5-31T8:20:56Z</time></trkpt>
<trkpt lat="43.4739434" lon="6.8205718"><ele></ele><time>2022-5-31T8:20:59Z</time></trkpt>
<trkpt lat="43.4739480" lon="6.8205153"><ele></ele><time>2022-5-31T8:21:2Z</time></trkpt>
<trkpt lat="43.4739522" lon="6.8204567"><ele></ele><time>2022-5-31T8:21:5Z</time></trkpt>
<trkpt lat="43.4739563" lon="6.8204027"><ele></ele><time>2022-5-31T8:21:8Z</time></trkpt>
<trkpt lat="43.4739596" lon="6.8203418"><ele></ele><time>2022-5-31T8:21:11Z</time></trkpt>
<trkpt lat="43.4739620" lon="6.8202877"><ele></ele><time>2022-5-31T8:21:14Z</time></trkpt>
<trkpt lat="43.4739604" lon="6.8202388"><ele></ele><time>2022-5-31T8:21:17Z</time></trkpt>
<trkpt lat="43.4739583" lon="6.8201884"><ele></ele><time>2022-5-31T8:21:20Z</time></trkpt>
<trkpt lat="43.4739581" lon="6.8201381"><ele></ele><time>2022-5-31T8:21:23Z</time></trkpt>
<trkpt lat="43.4739579" lon="6.8200909"><ele></ele><time>2022-5-31T8:21:26Z</time></trkpt>
<trkpt lat="43.4739608" lon="6.8200345"><ele></ele><time>2022-5-31T8:21:29Z</time></trkpt>
<trkpt lat="43.4739606" lon="6.8199773"><ele></ele><time>2022-5-31T8:21:32Z</time></trkpt>
<trkpt lat="43.4739631" lon="6.8199245"><ele></ele><time>2022-5-31T8:21:35Z</time></trkpt>
<trkpt lat="43.4739717" lon="6.8198686"><ele></ele><time>2022-5-31T8:21:38Z</time></trkpt>
<trkpt lat="43.4739764" lon="6.8198150"><ele></ele><time>2022-5-31T8:21:41Z</time></trkpt>
<trkpt lat="43.4739747" lon="6.8197604"><ele></ele><time>2022-5-31T8:21:44Z</time></trkpt>
<trkpt lat="43.4739618" lon="6.8197076"><ele></ele><time>2022-5-31T8:21:47Z</time></trkpt>
<trkpt lat="43.4739521" lon="6.8196505"><ele></ele><time>2022-5-31T8:21:50Z</time></trkpt>
<trkpt lat="43.4739561" lon="6.8195943"><ele></ele><time>2022-5-31T8:21:53Z</time></trkpt>
<trkpt lat="43.4739646" lon="6.8195350"><ele></ele><time>2022-5-31T8:21:56Z</time></trkpt>
<trkpt lat="43.4739748" lon="6.8194729"><ele></ele><time>2022-5-31T8:21:59Z</time></trkpt>
<trkpt lat="43.4739839" lon="6.8194152"><ele></ele><time>2022-5-31T8:22:2Z</time></trkpt>
<trkpt lat="43.4739825" lon="6.8193502"><ele></ele><time>2022-5-31T8:22:5Z</time></trkpt>
<trkpt lat="43.4739802" lon="6.8192965"><ele></ele><time>2022-5-31T8:22:8Z</time></trkpt>
<trkpt lat="43.4739835" lon="6.8192481"><ele></ele><time>2022-5-31T8:22:11Z</time></trkpt>
<trkpt lat="43.4739848" lon="6.8191932"><ele></ele><time>2022-5-31T8:22:14Z</time></trkpt>
<trkpt lat="43.4739833" lon="6.8191314"><ele></ele><time>2022-5-31T8:22:17Z</time></trkpt>
<trkpt lat="43.4739773" lon="6.8190715"><ele></ele><time>2022-5-31T8:22:20Z</time></trkpt>
<trkpt lat="43.4739726" lon="6.8190076"><ele></ele><time>2022-5-31T8:22:23Z</time></trkpt>
<trkpt lat="43.4739661" lon="6.8189511"><ele></ele><time>2022-5-31T8:22:26Z</time></trkpt>
<trkpt lat="43.4739597" lon="6.8188997"><ele></ele><time>2022-5-31T8:22:29Z</time></trkpt>
<trkpt lat="43.4739526" lon="6.8188538"><ele></ele><time>2022-5-31T8:22:32Z</time></trkpt>
<trkpt lat="43.4739571" lon="6.8188044"><ele></ele><time>2022-5-31T8:22:35Z</time></trkpt>
<trkpt lat="43.4739608" lon="6.8187458"><ele></ele><time>2022-5-31T8:22:38Z</time></trkpt>
<trkpt lat="43.4739562" lon="6.8186757"><ele></ele><time>2022-5-31T8:22:41Z</time></trkpt>
<trkpt lat="43.4739531" lon="6.8186066"><ele></ele><time>2022-5-31T8:22:44Z</time></trkpt>
<trkpt lat="43.4739522" lon="6.8185505"><ele></ele><time>2022-5-31T8:22:47Z</time></trkpt>
<trkpt lat="43.4739498" lon="6.8184929"><ele></ele><time>2022-5-31T8:22:50Z</time></trkpt>
<trkpt lat="43.4739485" lon="6.8184336"><ele></ele><time>2022-5-31T8:22:53Z</time></trkpt>
<trkpt lat="43.4739451" lon="6.8183789"><ele></ele><time>2022-5-31T8:22:56Z</time></trkpt>
<trkpt lat="43.4739267" lon="6.8183195"><ele></ele><time>2022-5-31T8:22:59Z</time></trkpt>
<trkpt lat="43.4738998" lon="6.8182675"><ele></ele><time>2022-5-31T8:23:2Z</time></trkpt>
<trkpt lat="43.4738675" lon="6.8182412"><ele></ele><time>2022-5-31T8:23:5Z</time></trkpt>
<trkpt lat="43.4738317" lon="6.8182433"><ele></ele><time>2022-5-31T8:23:8Z</time></trkpt>
<trkpt lat="43.4737957" lon="6.8182763"><ele></ele><time>2022-5-31T8:23:11Z</time></trkpt>
<trkpt lat="43.4737604" lon="6.8183106"><ele></ele><time>2022-5-31T8:23:14Z</time></trkpt>
<trkpt lat="43.4737394" lon="6.8183551"><ele></ele><time>2022-5-31T8:23:17Z</time></trkpt>
<trkpt lat="43.4737174" lon="6.8184129"><ele></ele><time>2022-5-31T8:23:20Z</time></trkpt>
<trkpt lat="43.4736994" lon="6.8184804"><ele></ele><time>2022-5-31T8:23:23Z</time></trkpt>
<trkpt lat="43.4736912" lon="6.8185382"><ele></ele><time>2022-5-31T8:23:26Z</time></trkpt>
<trkpt lat="43.4736821" lon="6.8185848"><ele></ele><time>2022-5-31T8:23:29Z</time></trkpt>
<trkpt lat="43.4736665" lon="6.8186405"><ele></ele><time>2022-5-31T8:23:32Z</time></trkpt>
<trkpt lat="43.4736603" lon="6.8187020"><ele></ele><time>2022-5-31T8:23:35Z</time></trkpt>
<trkpt lat="43.4736564" lon="6.8187598"><ele></ele><time>2022-5-31T8:23:38Z</time></trkpt>
<trkpt lat="43.4736444" lon="6.8188177"><ele></ele><time>2022-5-31T8:23:41Z</time></trkpt>
<trkpt lat="43.4736406" lon="6.8188803"><ele></ele><time>2022-5-31T8:23:44Z</time></trkpt>
<trkpt lat="43.4736349" lon="6.8189412"><ele></ele><time>2022-5-31T8:23:47Z</time></trkpt>
<trkpt lat="43.4736316" lon="6.8189948"><ele></ele><time>2022-5-31T8:23:50Z</time></trkpt>
<trkpt lat="43.4736318" lon="6.8190532"><ele></ele><time>2022-5-31T8:23:53Z</time></trkpt>
<trkpt lat="43.4736267" lon="6.8191135"><ele></ele><time>2022-5-31T8:23:56Z</time></trkpt>
<trkpt lat="43.4736208" lon="6.8191723"><ele></ele><time>2022-5-31T8:23:59Z</time></trkpt>
<trkpt lat="43.4736121" lon="6.8192347"><ele></ele><time>2022-5-31T8:24:2Z</time></trkpt>
<trkpt lat="43.4736071" lon="6.8192963"><ele></ele><time>2022-5-31T8:24:5Z</time></trkpt>
<trkpt lat="43.4735995" lon="6.8193505"><ele></ele><time>2022-5-31T8:24:8Z</time></trkpt>
<trkpt lat="43.4735828" lon="6.8194040"><ele></ele><time>2022-5-31T8:24:11Z</time></trkpt>
<trkpt lat="43.4735782" lon="6.8194627"><ele></ele><time>2022-5-31T8:24:14Z</time></trkpt>
<trkpt lat="43.4735842" lon="6.8195211"><ele></ele><time>2022-5-31T8:24:17Z</time></trkpt>
<trkpt lat="43.4735887" lon="6.8195756"><ele></ele><time>2022-5-31T8:24:20Z</time></trkpt>
<trkpt lat="43.4735967" lon="6.8196302"><ele></ele><time>2022-5-31T8:24:23Z</time></trkpt>
<trkpt lat="43.4735992" lon="6.8196909"><ele></ele><time>2022-5-31T8:24:26Z</time></trkpt>
<trkpt lat="43.4735994" lon="6.8197534"><ele></ele><time>2022-5-31T8:24:29Z</time></trkpt>
<trkpt lat="43.4735969" lon="6.8198113"><ele></ele><time>2022-5-31T8:24:32Z</time></trkpt>
<trkpt lat="43.4735932" lon="6.8198705"><ele></ele><time>2022-5-31T8:24:35Z</time></trkpt>
<trkpt lat="43.4735864" lon="6.8199257"><ele></ele><time>2022-5-31T8:24:38Z</time></trkpt>
<trkpt lat="43.4735669" lon="6.8199700"><ele></ele><time>2022-5-31T8:24:41Z</time></trkpt>
<trkpt lat="43.4735462" lon="6.8200155"><ele></ele><time>2022-5-31T8:24:44Z</time></trkpt>
<trkpt lat="43.4735267" lon="6.8200670"><ele></ele><time>2022-5-31T8:24:47Z</time></trkpt>
<trkpt lat="43.4735075" lon="6.8201100"><ele></ele><time>2022-5-31T8:24:50Z</time></trkpt>
<trkpt lat="43.4734863" lon="6.8201565"><ele></ele><time>2022-5-31T8:24:53Z</time></trkpt>
<trkpt lat="43.4734626" lon="6.8202094"><ele></ele><time>2022-5-31T8:24:56Z</time></trkpt>
<trkpt lat="43.4734399" lon="6.8202611"><ele></ele><time>2022-5-31T8:24:59Z</time></trkpt>
<trkpt lat="43.4734098" lon="6.8203125"><ele></ele><time>2022-5-31T8:25:2Z</time></trkpt>
<trkpt lat="43.4733816" lon="6.8203560"><ele></ele><time>2022-5-31T8:25:5Z</time></trkpt>
<trkpt lat="43.4733547" lon="6.8204083"><ele></ele><time>2022-5-31T8:25:8Z</time></trkpt>
<trkpt lat="43.4733277" lon="6.8204559"><ele></ele><time>2022-5-31T8:25:11Z</time></trkpt>
<trkpt lat="43.4732964" lon="6.8204983"><ele></ele><time>2022-5-31T8:25:14Z</time></trkpt>
<trkpt lat="43.4732668" lon="6.8205266"><ele></ele><time>2022-5-31T8:25:17Z</time></trkpt>
<trkpt lat="43.4732335" lon="6.8205718"><ele></ele><time>2022-5-31T8:25:20Z</time></trkpt>
<trkpt lat="43.4732118" lon="6.8206262"><ele></ele><time>2022-5-31T8:25:23Z</time></trkpt>
<trkpt lat="43.4731856" lon="6.8206793"><ele></ele><time>2022-5-31T8:25:26Z</time></trkpt>
<trkpt lat="43.4731543" lon="6.8207313"><ele></ele><time>2022-5-31T8:25:29Z</time></trkpt>
<trkpt lat="43.4731240" lon="6.8207748"><ele></ele><time>2022-5-31T8:25:32Z</time></trkpt>
<trkpt lat="43.4730997" lon="6.8208189"><ele></ele><time>2022-5-31T8:25:35Z</time></trkpt>
<trkpt lat="43.4730769" lon="6.8208650"><ele></ele><time>2022-5-31T8:25:38Z</time></trkpt>
<trkpt lat="43.4730535" lon="6.8209136"><ele></ele><time>2022-5-31T8:25:41Z</time></trkpt>
<trkpt lat="43.4730256" lon="6.8209602"><ele></ele><time>2022-5-31T8:25:44Z</time></trkpt>
<trkpt lat="43.4729965" lon="6.8210072"><ele></ele><time>2022-5-31T8:25:47Z</time></trkpt>
<trkpt lat="43.4729720" lon="6.8210553"><ele></ele><time>2022-5-31T8:25:50Z</time></trkpt>
<trkpt lat="43.4729465" lon="6.8211025"><ele></ele><time>2022-5-31T8:25:53Z</time></trkpt>
<trkpt lat="43.4729232" lon="6.8211482"><ele></ele><time>2022-5-31T8:25:56Z</time></trkpt>
<trkpt lat="43.4728971" lon="6.8211972"><ele></ele><time>2022-5-31T8:25:59Z</time></trkpt>
<trkpt lat="43.4728704" lon="6.8212424"><ele></ele><time>2022-5-31T8:26:2Z</time></trkpt>
<trkpt lat="43.4728504" lon="6.8212824"><ele></ele><time>2022-5-31T8:26:5Z</time></trkpt>
<trkpt lat="43.4728315" lon="6.8213319"><ele></ele><time>2022-5-31T8:26:8Z</time></trkpt>
<trkpt lat="43.4728146" lon="6.8213834"><ele></ele><time>2022-5-31T8:26:11Z</time></trkpt>
<trkpt lat="43.4727966" lon="6.8214390"><ele></ele><time>2022-5-31T8:26:14Z</time></trkpt>
<trkpt lat="43.4727718" lon="6.8214892"><ele></ele><time>2022-5-31T8:26:17Z</time></trkpt>
<trkpt lat="43.4727467" lon="6.8215434"><ele></ele><time>2022-5-31T8:26:20Z</time></trkpt>
<trkpt lat="43.4727245" lon="6.8215966"><ele></ele><time>2022-5-31T8:26:23Z</time></trkpt>
<trkpt lat="43.4726973" lon="6.8216527"><ele></ele><time>2022-5-31T8:26:26Z</time></trkpt>
<trkpt lat="43.4726719" lon="6.8217015"><ele></ele><time>2022-5-31T8:26:29Z</time></trkpt>
<trkpt lat="43.4726477" lon="6.8217645"><ele></ele><time>2022-5-31T8:26:32Z</time></trkpt>
<trkpt lat="43.4726262" lon="6.8218218"><ele></ele><time>2022-5-31T8:26:35Z</time></trkpt>
<trkpt lat="43.4726047" lon="6.8218707"><ele></ele><time>2022-5-31T8:26:38Z</time></trkpt>
<trkpt lat="43.4725852" lon="6.8219154"><ele></ele><time>2022-5-31T8:26:41Z</time></trkpt>
<trkpt lat="43.4725610" lon="6.8219697"><ele></ele><time>2022-5-31T8:26:44Z</time></trkpt>
<trkpt lat="43.4725384" lon="6.8220231"><ele></ele><time>2022-5-31T8:26:47Z</time></trkpt>
<trkpt lat="43.4725082" lon="6.8220652"><ele></ele><time>2022-5-31T8:26:50Z</time></trkpt>
<trkpt lat="43.4724816" lon="6.8221096"><ele></ele><time>2022-5-31T8:26:53Z</time></trkpt>
<trkpt lat="43.4724559" lon="6.8221613"><ele></ele><time>2022-5-31T8:26:56Z</time></trkpt>
<trkpt lat="43.4724341" lon="6.8221974"><ele></ele><time>2022-5-31T8:26:59Z</time></trkpt>
<trkpt lat="43.4724069" lon="6.8222406"><ele></ele><time>2022-5-31T8:27:2Z</time></trkpt>
<trkpt lat="43.4723757" lon="6.8222916"><ele></ele><time>2022-5-31T8:27:5Z</time></trkpt>
<trkpt lat="43.4723517" lon="6.8223279"><ele></ele><time>2022-5-31T8:27:8Z</time></trkpt>
<trkpt lat="43.4723270" lon="6.8223561"><ele></ele><time>2022-5-31T8:27:11Z</time></trkpt>
<trkpt lat="43.4723017" lon="6.8223862"><ele></ele><time>2022-5-31T8:27:14Z</time></trkpt>
<trkpt lat="43.4722703" lon="6.8224293"><ele></ele><time>2022-5-31T8:27:17Z</time></trkpt>
<trkpt lat="43.4722484" lon="6.8224565"><ele></ele><time>2022-5-31T8:27:20Z</time></trkpt>
<trkpt lat="43.4722251" lon="6.8224833"><ele></ele><time>2022-5-31T8:27:23Z</time></trkpt>
<trkpt lat="43.4721948" lon="6.8225124"><ele></ele><time>2022-5-31T8:27:26Z</time></trkpt>
<trkpt lat="43.4721670" lon="6.8225379"><ele></ele><time>2022-5-31T8:27:29Z</time></trkpt>
<trkpt lat="43.4721427" lon="6.8225582"><ele></ele><time>2022-5-31T8:27:32Z</time></trkpt>
<trkpt lat="43.4721172" lon="6.8225851"><ele></ele><time>2022-5-31T8:27:35Z</time></trkpt>
<trkpt lat="43.4720880" lon="6.8226123"><ele></ele><time>2022-5-31T8:27:38Z</time></trkpt>
<trkpt lat="43.4720606" lon="6.8226400"><ele></ele><time>2022-5-31T8:27:41Z</time></trkpt>
<trkpt lat="43.4720324" lon="6.8226665"><ele></ele><time>2022-5-31T8:27:44Z</time></trkpt>
<trkpt lat="43.4720070" lon="6.8226938"><ele></ele><time>2022-5-31T8:27:47Z</time></trkpt>
<trkpt lat="43.4719844" lon="6.8227230"><ele></ele><time>2022-5-31T8:27:50Z</time></trkpt>
<trkpt lat="43.4719592" lon="6.8227489"><ele></ele><time>2022-5-31T8:27:53Z</time></trkpt>
<trkpt lat="43.4719282" lon="6.8227792"><ele></ele><time>2022-5-31T8:27:56Z</time></trkpt>
<trkpt lat="43.4718959" lon="6.8228049"><ele></ele><time>2022-5-31T8:27:59Z</time></trkpt>
<trkpt lat="43.4718689" lon="6.8228241"><ele></ele><time>2022-5-31T8:28:2Z</time></trkpt>
<trkpt lat="43.4718410" lon="6.8228447"><ele></ele><time>2022-5-31T8:28:5Z</time></trkpt>
<trkpt lat="43.4718133" lon="6.8228629"><ele></ele><time>2022-5-31T8:28:8Z</time></trkpt>
<trkpt lat="43.4717856" lon="6.8228818"><ele></ele><time>2022-5-31T8:28:11Z</time></trkpt>
<trkpt lat="43.4717548" lon="6.8229034"><ele></ele><time>2022-5-31T8:28:14Z</time></trkpt>
<trkpt lat="43.4717232" lon="6.8229259"><ele></ele><time>2022-5-31T8:28:17Z</time></trkpt>
<trkpt lat="43.4716940" lon="6.8229464"><ele></ele><time>2022-5-31T8:28:20Z</time></trkpt>
<trkpt lat="43.4716621" lon="6.8229668"><ele></ele><time>2022-5-31T8:28:23Z</time></trkpt>
<trkpt lat="43.4716254" lon="6.8229740"><ele></ele><time>2022-5-31T8:28:26Z</time></trkpt>
<trkpt lat="43.4715911" lon="6.8229747"><ele></ele><time>2022-5-31T8:28:29Z</time></trkpt>
<trkpt lat="43.4715560" lon="6.8229570"><ele></ele><time>2022-5-31T8:28:32Z</time></trkpt>
<trkpt lat="43.4715213" lon="6.8229407"><ele></ele><time>2022-5-31T8:28:35Z</time></trkpt>
<trkpt lat="43.4714914" lon="6.8229156"><ele></ele><time>2022-5-31T8:28:38Z</time></trkpt>
<trkpt lat="43.4714587" lon="6.8228851"><ele></ele><time>2022-5-31T8:28:41Z</time></trkpt>
<trkpt lat="43.4714321" lon="6.8228579"><ele></ele><time>2022-5-31T8:28:44Z</time></trkpt>
<trkpt lat="43.4714051" lon="6.8228296"><ele></ele><time>2022-5-31T8:28:47Z</time></trkpt>
<trkpt lat="43.4713768" lon="6.8227998"><ele></ele><time>2022-5-31T8:28:50Z</time></trkpt>
<trkpt lat="43.4713507" lon="6.8227752"><ele></ele><time>2022-5-31T8:28:53Z</time></trkpt>
<trkpt lat="43.4713210" lon="6.8227479"><ele></ele><time>2022-5-31T8:28:56Z</time></trkpt>
<trkpt lat="43.4712896" lon="6.8227191"><ele></ele><time>2022-5-31T8:28:59Z</time></trkpt>
<trkpt lat="43.4712629" lon="6.8226943"><ele></ele><time>2022-5-31T8:29:2Z</time></trkpt>
<trkpt lat="43.4712349" lon="6.8226654"><ele></ele><time>2022-5-31T8:29:5Z</time></trkpt>
<trkpt lat="43.4712101" lon="6.8226380"><ele></ele><time>2022-5-31T8:29:8Z</time></trkpt>
<trkpt lat="43.4711873" lon="6.8226076"><ele></ele><time>2022-5-31T8:29:11Z</time></trkpt>
<trkpt lat="43.4711632" lon="6.8225772"><ele></ele><time>2022-5-31T8:29:14Z</time></trkpt>
<trkpt lat="43.4711428" lon="6.8225445"><ele></ele><time>2022-5-31T8:29:17Z</time></trkpt>
<trkpt lat="43.4711246" lon="6.8225123"><ele></ele><time>2022-5-31T8:29:20Z</time></trkpt>
<trkpt lat="43.4711110" lon="6.8224798"><ele></ele><time>2022-5-31T8:29:23Z</time></trkpt>
<trkpt lat="43.4710967" lon="6.8224500"><ele></ele><time>2022-5-31T8:29:26Z</time></trkpt>
<trkpt lat="43.4710859" lon="6.8224147"><ele></ele><time>2022-5-31T8:29:29Z</time></trkpt>
<trkpt lat="43.4710764" lon="6.8223711"><ele></ele><time>2022-5-31T8:29:32Z</time></trkpt>
<trkpt lat="43.4710719" lon="6.8223321"><ele></ele><time>2022-5-31T8:29:35Z</time></trkpt>
<trkpt lat="43.4710729" lon="6.8222933"><ele></ele><time>2022-5-31T8:29:38Z</time></trkpt>
<trkpt lat="43.4710808" lon="6.8222542"><ele></ele><time>2022-5-31T8:29:41Z</time></trkpt>
<trkpt lat="43.4710963" lon="6.8222093"><ele></ele><time>2022-5-31T8:29:44Z</time></trkpt>
<trkpt lat="43.4711157" lon="6.8221654"><ele></ele><time>2022-5-31T8:29:47Z</time></trkpt>
<trkpt lat="43.4711370" lon="6.8221089"><ele></ele><time>2022-5-31T8:29:50Z</time></trkpt>
<trkpt lat="43.4711532" lon="6.8220559"><ele></ele><time>2022-5-31T8:29:53Z</time></trkpt>
<trkpt lat="43.4711696" lon="6.8219985"><ele></ele><time>2022-5-31T8:29:56Z</time></trkpt>
<trkpt lat="43.4711680" lon="6.8219354"><ele></ele><time>2022-5-31T8:29:59Z</time></trkpt>
<trkpt lat="43.4711580" lon="6.8218744"><ele></ele><time>2022-5-31T8:30:2Z</time></trkpt>
<trkpt lat="43.4711392" lon="6.8218153"><ele></ele><time>2022-5-31T8:30:5Z</time></trkpt>
<trkpt lat="43.4711210" lon="6.8217485"><ele></ele><time>2022-5-31T8:30:8Z</time></trkpt>
<trkpt lat="43.4710972" lon="6.8216791"><ele></ele><time>2022-5-31T8:30:11Z</time></trkpt>
<trkpt lat="43.4710719" lon="6.8216115"><ele></ele><time>2022-5-31T8:30:14Z</time></trkpt>
<trkpt lat="43.4710523" lon="6.8215364"><ele></ele><time>2022-5-31T8:30:17Z</time></trkpt>
<trkpt lat="43.4710340" lon="6.8214620"><ele></ele><time>2022-5-31T8:30:20Z</time></trkpt>
<trkpt lat="43.4710161" lon="6.8213914"><ele></ele><time>2022-5-31T8:30:23Z</time></trkpt>
<trkpt lat="43.4710010" lon="6.8213099"><ele></ele><time>2022-5-31T8:30:26Z</time></trkpt>
<trkpt lat="43.4709874" lon="6.8212239"><ele></ele><time>2022-5-31T8:30:29Z</time></trkpt>
<trkpt lat="43.4709793" lon="6.8211410"><ele></ele><time>2022-5-31T8:30:32Z</time></trkpt>
<trkpt lat="43.4709704" lon="6.8210648"><ele></ele><time>2022-5-31T8:30:35Z</time></trkpt>
<trkpt lat="43.4709566" lon="6.8209879"><ele></ele><time>2022-5-31T8:30:38Z</time></trkpt>
<trkpt lat="43.4709446" lon="6.8209082"><ele></ele><time>2022-5-31T8:30:41Z</time></trkpt>
<trkpt lat="43.4709306" lon="6.8208304"><ele></ele><time>2022-5-31T8:30:44Z</time></trkpt>
<trkpt lat="43.4709092" lon="6.8207418"><ele></ele><time>2022-5-31T8:30:47Z</time></trkpt>
<trkpt lat="43.4708885" lon="6.8206543"><ele></ele><time>2022-5-31T8:30:50Z</time></trkpt>
<trkpt lat="43.4708662" lon="6.8205597"><ele></ele><time>2022-5-31T8:30:53Z</time></trkpt>
<trkpt lat="43.4708314" lon="6.8204843"><ele></ele><time>2022-5-31T8:30:56Z</time></trkpt>
<trkpt lat="43.4707935" lon="6.8204050"><ele></ele><time>2022-5-31T8:30:59Z</time></trkpt>
<trkpt lat="43.4707573" lon="6.8203201"><ele></ele><time>2022-5-31T8:31:2Z</time></trkpt>
<trkpt lat="43.4707154" lon="6.8202458"><ele></ele><time>2022-5-31T8:31:5Z</time></trkpt>
<trkpt lat="43.4706680" lon="6.8201764"><ele></ele><time>2022-5-31T8:31:8Z</time></trkpt>
<trkpt lat="43.4706218" lon="6.8201053"><ele></ele><time>2022-5-31T8:31:11Z</time></trkpt>
<trkpt lat="43.4705834" lon="6.8200381"><ele></ele><time>2022-5-31T8:31:14Z</time></trkpt>
<trkpt lat="43.4705415" lon="6.8199612"><ele></ele><time>2022-5-31T8:31:17Z</time></trkpt>
<trkpt lat="43.4704968" lon="6.8198846"><ele></ele><time>2022-5-31T8:31:20Z</time></trkpt>
<trkpt lat="43.4704522" lon="6.8198144"><ele></ele><time>2022-5-31T8:31:23Z</time></trkpt>
<trkpt lat="43.4704179" lon="6.8197407"><ele></ele><time>2022-5-31T8:31:26Z</time></trkpt>
<trkpt lat="43.4703879" lon="6.8196693"><ele></ele><time>2022-5-31T8:31:29Z</time></trkpt>
<trkpt lat="43.4703510" lon="6.8195975"><ele></ele><time>2022-5-31T8:31:32Z</time></trkpt>
<trkpt lat="43.4703120" lon="6.8195251"><ele></ele><time>2022-5-31T8:31:35Z</time></trkpt>
<trkpt lat="43.4702749" lon="6.8194489"><ele></ele><time>2022-5-31T8:31:38Z</time></trkpt>
<trkpt lat="43.4702408" lon="6.8193781"><ele></ele><time>2022-5-31T8:31:41Z</time></trkpt>
<trkpt lat="43.4702042" lon="6.8193041"><ele></ele><time>2022-5-31T8:31:44Z</time></trkpt>
<trkpt lat="43.4701681" lon="6.8192214"><ele></ele><time>2022-5-31T8:31:47Z</time></trkpt>
<trkpt lat="43.4701311" lon="6.8191395"><ele></ele><time>2022-5-31T8:31:50Z</time></trkpt>
<trkpt lat="43.4700959" lon="6.8190628"><ele></ele><time>2022-5-31T8:31:53Z</time></trkpt>
<trkpt lat="43.4700549" lon="6.8189868"><ele></ele><time>2022-5-31T8:31:56Z</time></trkpt>
<trkpt lat="43.4700026" lon="6.8189149"><ele></ele><time>2022-5-31T8:31:59Z</time></trkpt>
<trkpt lat="43.4699466" lon="6.8188387"><ele></ele><time>2022-5-31T8:32:2Z</time></trkpt>
<trkpt lat="43.4698892" lon="6.8187642"><ele></ele><time>2022-5-31T8:32:5Z</time></trkpt>
<trkpt lat="43.4698315" lon="6.8186954"><ele></ele><time>2022-5-31T8:32:8Z</time></trkpt>
<trkpt lat="43.4697707" lon="6.8186353"><ele></ele><time>2022-5-31T8:32:11Z</time></trkpt>
<trkpt lat="43.4697026" lon="6.8185669"><ele></ele><time>2022-5-31T8:32:14Z</time></trkpt>
<trkpt lat="43.4696350" lon="6.8184991"><ele></ele><time>2022-5-31T8:32:17Z</time></trkpt>
<trkpt lat="43.4695767" lon="6.8184336"><ele></ele><time>2022-5-31T8:32:20Z</time></trkpt>
<trkpt lat="43.4695209" lon="6.8183738"><ele></ele><time>2022-5-31T8:32:23Z</time></trkpt>
<trkpt lat="43.4694719" lon="6.8183059"><ele></ele><time>2022-5-31T8:32:26Z</time></trkpt>
<trkpt lat="43.4694314" lon="6.8182214"><ele></ele><time>2022-5-31T8:32:29Z</time></trkpt>
<trkpt lat="43.4693964" lon="6.8181394"><ele></ele><time>2022-5-31T8:32:32Z</time></trkpt>
<trkpt lat="43.4693617" lon="6.8180613"><ele></ele><time>2022-5-31T8:32:35Z</time></trkpt>
<trkpt lat="43.4693303" lon="6.8179937"><ele></ele><time>2022-5-31T8:32:38Z</time></trkpt>
<trkpt lat="43.4693005" lon="6.8179320"><ele></ele><time>2022-5-31T8:32:41Z</time></trkpt>
<trkpt lat="43.4692626" lon="6.8178604"><ele></ele><time>2022-5-31T8:32:44Z</time></trkpt>
<trkpt lat="43.4692303" lon="6.8177959"><ele></ele><time>2022-5-31T8:32:47Z</time></trkpt>
<trkpt lat="43.4691969" lon="6.8177242"><ele></ele><time>2022-5-31T8:32:50Z</time></trkpt>
<trkpt lat="43.4691670" lon="6.8176483"><ele></ele><time>2022-5-31T8:32:53Z</time></trkpt>
<trkpt lat="43.4691358" lon="6.8175723"><ele></ele><time>2022-5-31T8:32:56Z</time></trkpt>
<trkpt lat="43.4691011" lon="6.8174959"><ele></ele><time>2022-5-31T8:32:59Z</time></trkpt>
<trkpt lat="43.4690683" lon="6.8174208"><ele></ele><time>2022-5-31T8:33:2Z</time></trkpt>
<trkpt lat="43.4690362" lon="6.8173426"><ele></ele><time>2022-5-31T8:33:5Z</time></trkpt>
<trkpt lat="43.4690043" lon="6.8172683"><ele></ele><time>2022-5-31T8:33:8Z</time></trkpt>
<trkpt lat="43.4689712" lon="6.8171924"><ele></ele><time>2022-5-31T8:33:11Z</time></trkpt>
<trkpt lat="43.4689411" lon="6.8171145"><ele></ele><time>2022-5-31T8:33:14Z</time></trkpt>
<trkpt lat="43.4689149" lon="6.8170365"><ele></ele><time>2022-5-31T8:33:17Z</time></trkpt>
<trkpt lat="43.4688906" lon="6.8169576"><ele></ele><time>2022-5-31T8:33:20Z</time></trkpt>
<trkpt lat="43.4688620" lon="6.8168802"><ele></ele><time>2022-5-31T8:33:23Z</time></trkpt>
<trkpt lat="43.4688388" lon="6.8167996"><ele></ele><time>2022-5-31T8:33:26Z</time></trkpt>
<trkpt lat="43.4688268" lon="6.8167156"><ele></ele><time>2022-5-31T8:33:29Z</time></trkpt>
<trkpt lat="43.4688206" lon="6.8166313"><ele></ele><time>2022-5-31T8:33:32Z</time></trkpt>
<trkpt lat="43.4688158" lon="6.8165476"><ele></ele><time>2022-5-31T8:33:35Z</time></trkpt>
<trkpt lat="43.4688107" lon="6.8164611"><ele></ele><time>2022-5-31T8:33:38Z</time></trkpt>
<trkpt lat="43.4688093" lon="6.8163791"><ele></ele><time>2022-5-31T8:33:41Z</time></trkpt>
<trkpt lat="43.4688071" lon="6.8162935"><ele></ele><time>2022-5-31T8:33:44Z</time></trkpt>
<trkpt lat="43.4688031" lon="6.8162105"><ele></ele><time>2022-5-31T8:33:47Z</time></trkpt>
<trkpt lat="43.4687961" lon="6.8161343"><ele></ele><time>2022-5-31T8:33:50Z</time></trkpt>
<trkpt lat="43.4687927" lon="6.8160596"><ele></ele><time>2022-5-31T8:33:53Z</time></trkpt>
<trkpt lat="43.4687908" lon="6.8159819"><ele></ele><time>2022-5-31T8:33:56Z</time></trkpt>
<trkpt lat="43.4687968" lon="6.8159129"><ele></ele><time>2022-5-31T8:33:59Z</time></trkpt>
<trkpt lat="43.4688105" lon="6.8158466"><ele></ele><time>2022-5-31T8:34:2Z</time></trkpt>
<trkpt lat="43.4688257" lon="6.8157908"><ele></ele><time>2022-5-31T8:34:5Z</time></trkpt>
<trkpt lat="43.4688513" lon="6.8157337"><ele></ele><time>2022-5-31T8:34:8Z</time></trkpt>
<trkpt lat="43.4688739" lon="6.8156772"><ele></ele><time>2022-5-31T8:34:11Z</time></trkpt>
<trkpt lat="43.4688898" lon="6.8156250"><ele></ele><time>2022-5-31T8:34:14Z</time></trkpt>
<trkpt lat="43.4689060" lon="6.8155754"><ele></ele><time>2022-5-31T8:34:17Z</time></trkpt>
<trkpt lat="43.4689267" lon="6.8155238"><ele></ele><time>2022-5-31T8:34:20Z</time></trkpt>
<trkpt lat="43.4689477" lon="6.8154746"><ele></ele><time>2022-5-31T8:34:23Z</time></trkpt>
<trkpt lat="43.4689664" lon="6.8154298"><ele></ele><time>2022-5-31T8:34:26Z</time></trkpt>
<trkpt lat="43.4689810" lon="6.8153938"><ele></ele><time>2022-5-31T8:34:29Z</time></trkpt>
<trkpt lat="43.4689974" lon="6.8153544"><ele></ele><time>2022-5-31T8:34:32Z</time></trkpt>
<trkpt lat="43.4690096" lon="6.8153065"><ele></ele><time>2022-5-31T8:34:35Z</time></trkpt>
<trkpt lat="43.4690162" lon="6.8152567"><ele></ele><time>2022-5-31T8:34:38Z</time></trkpt>
<trkpt lat="43.4690244" lon="6.8152064"><ele></ele><time>2022-5-31T8:34:41Z</time></trkpt>
<trkpt lat="43.4690334" lon="6.8151590"><ele></ele><time>2022-5-31T8:34:44Z</time></trkpt>
<trkpt lat="43.4690409" lon="6.8151126"><ele></ele><time>2022-5-31T8:34:47Z</time></trkpt>
<trkpt lat="43.4690482" lon="6.8150653"><ele></ele><time>2022-5-31T8:34:50Z</time></trkpt>
<trkpt lat="43.4690512" lon="6.8150214"><ele></ele><time>2022-5-31T8:34:53Z</time></trkpt>
<trkpt lat="43.4690539" lon="6.8149769"><ele></ele><time>2022-5-31T8:34:56Z</time></trkpt>
<trkpt lat="43.4690586" lon="6.8149365"><ele></ele><time>2022-5-31T8:34:59Z</time></trkpt>
<trkpt lat="43.4690615" lon="6.8148967"><ele></ele><time>2022-5-31T8:35:2Z</time></trkpt>
<trkpt lat="43.4690667" lon="6.8148501"><ele></ele><time>2022-5-31T8:35:5Z</time></trkpt>
<trkpt lat="43.4690755" lon="6.8148047"><ele></ele><time>2022-5-31T8:35:8Z</time></trkpt>
<trkpt lat="43.4690851" lon="6.8147658"><ele></ele><time>2022-5-31T8:35:11Z</time></trkpt>
<trkpt lat="43.4690948" lon="6.8147305"><ele></ele><time>2022-5-31T8:35:14Z</time></trkpt>
<trkpt lat="43.4691039" lon="6.8146950"><ele></ele><time>2022-5-31T8:35:17Z</time></trkpt>
<trkpt lat="43.4691108" lon="6.8146560"><ele></ele><time>2022-5-31T8:35:20Z</time></trkpt>
<trkpt lat="43.4691198" lon="6.8146207"><ele></ele><time>2022-5-31T8:35:23Z</time></trkpt>
<trkpt lat="43.4691272" lon="6.8145770"><ele></ele><time>2022-5-31T8:35:26Z</time></trkpt>
<trkpt lat="43.4691359" lon="6.8145383"><ele></ele><time>2022-5-31T8:35:29Z</time></trkpt>
<trkpt lat="43.4691444" lon="6.8145005"><ele></ele><time>2022-5-31T8:35:32Z</time></trkpt>
<trkpt lat="43.4691515" lon="6.8144646"><ele></ele><time>2022-5-31T8:35:35Z</time></trkpt>
<trkpt lat="43.4691577" lon="6.8144244"><ele></ele><time>2022-5-31T8:35:38Z</time></trkpt>
<trkpt lat="43.4691615" lon="6.8143805"><ele></ele><time>2022-5-31T8:35:41Z</time></trkpt>
<trkpt lat="43.4691640" lon="6.8143372"><ele></ele><time>2022-5-31T8:35:44Z</time></trkpt>
<trkpt lat="43.4691679" lon="6.8142932"><ele></ele><time>2022-5-31T8:35:47Z</time></trkpt>
<trkpt lat="43.4691719" lon="6.8142528"><ele></ele><time>2022-5-31T8:35:50Z</time></trkpt>
<trkpt lat="43.4691797" lon="6.8142189"><ele></ele><time>2022-5-31T8:35:53Z</time></trkpt>
<trkpt lat="43.4691866" lon="6.8141845"><ele></ele><time>2022-5-31T8:35:56Z</time></trkpt>
<trkpt lat="43.4691903" lon="6.8141523"><ele></ele><time>2022-5-31T8:35:59Z</time></trkpt>
<trkpt lat="43.4691926" lon="6.8141092"><ele></ele><time>2022-5-31T8:36:2Z</time></trkpt>
<trkpt lat="43.4691945" lon="6.8140623"><ele></ele><time>2022-5-31T8:36:5Z</time></trkpt>
<trkpt lat="43.4691960" lon="6.8140153"><ele></ele><time>2022-5-31T8:36:8Z</time></trkpt>
<trkpt lat="43.4692015" lon="6.8139666"><ele></ele><time>2022-5-31T8:36:11Z</time></trkpt>
<trkpt lat="43.4692119" lon="6.8139140"><ele></ele><time>2022-5-31T8:36:14Z</time></trkpt>
<trkpt lat="43.4692241" lon="6.8138559"><ele></ele><time>2022-5-31T8:36:17Z</time></trkpt>
<trkpt lat="43.4692312" lon="6.8137942"><ele></ele><time>2022-5-31T8:36:20Z</time></trkpt>
<trkpt lat="43.4692377" lon="6.8137242"><ele></ele><time>2022-5-31T8:36:23Z</time></trkpt>
<trkpt lat="43.4692447" lon="6.8136492"><ele></ele><time>2022-5-31T8:36:26Z</time></trkpt>
<trkpt lat="43.4692461" lon="6.8135761"><ele></ele><time>2022-5-31T8:36:29Z</time></trkpt>
<trkpt lat="43.4692374" lon="6.8134987"><ele></ele><time>2022-5-31T8:36:32Z</time></trkpt>
<trkpt lat="43.4692216" lon="6.8134167"><ele></ele><time>2022-5-31T8:36:35Z</time></trkpt>
<trkpt lat="43.4692047" lon="6.8133267"><ele></ele><time>2022-5-31T8:36:38Z</time></trkpt>
<trkpt lat="43.4691868" lon="6.8132402"><ele></ele><time>2022-5-31T8:36:41Z</time></trkpt>
<trkpt lat="43.4691755" lon="6.8131503"><ele></ele><time>2022-5-31T8:36:44Z</time></trkpt>
<trkpt lat="43.4691533" lon="6.8130574"><ele></ele><time>2022-5-31T8:36:47Z</time></trkpt>
<trkpt lat="43.4691249" lon="6.8129634"><ele></ele><time>2022-5-31T8:36:50Z</time></trkpt>
<trkpt lat="43.4690993" lon="6.8128636"><ele></ele><time>2022-5-31T8:36:53Z</time></trkpt>
<trkpt lat="43.4690821" lon="6.8127664"><ele></ele><time>2022-5-31T8:36:56Z</time></trkpt>
<trkpt lat="43.4690721" lon="6.8126683"><ele></ele><time>2022-5-31T8:36:59Z</time></trkpt>
<trkpt lat="43.4690580" lon="6.8125691"><ele></ele><time>2022-5-31T8:37:2Z</time></trkpt>
<trkpt lat="43.4690516" lon="6.8124688"><ele></ele><time>2022-5-31T8:37:5Z</time></trkpt>
<trkpt lat="43.4690500" lon="6.8123654"><ele></ele><time>2022-5-31T8:37:8Z</time></trkpt>
<trkpt lat="43.4690454" lon="6.8122627"><ele></ele><time>2022-5-31T8:37:11Z</time></trkpt>
<trkpt lat="43.4690410" lon="6.8121610"><ele></ele><time>2022-5-31T8:37:14Z</time></trkpt>
<trkpt lat="43.4690308" lon="6.8120561"><ele></ele><time>2022-5-31T8:37:17Z</time></trkpt>
<trkpt lat="43.4690165" lon="6.8119481"><ele></ele><time>2022-5-31T8:37:20Z</time></trkpt>
<trkpt lat="43.4690004" lon="6.8118384"><ele></ele><time>2022-5-31T8:37:23Z</time></trkpt>
<trkpt lat="43.4689932" lon="6.8117304"><ele></ele><time>2022-5-31T8:37:26Z</time></trkpt>
<trkpt lat="43.4689860" lon="6.8116228"><ele></ele><time>2022-5-31T8:37:29Z</time></trkpt>
<trkpt lat="43.4689750" lon="6.8115195"><ele></ele><time>2022-5-31T8:37:32Z</time></trkpt>
<trkpt lat="43.4689570" lon="6.8114177"><ele></ele><time>2022-5-31T8:37:35Z</time></trkpt>
<trkpt lat="43.4689400" lon="6.8113129"><ele></ele><time>2022-5-31T8:37:38Z</time></trkpt>
<trkpt lat="43.4689253" lon="6.8112072"><ele></ele><time>2022-5-31T8:37:41Z</time></trkpt>
<trkpt lat="43.4689096" lon="6.8111030"><ele></ele><time>2022-5-31T8:37:44Z</time></trkpt>
<trkpt lat="43.4688935" lon="6.8110006"><ele></ele><time>2022-5-31T8:37:47Z</time></trkpt>
<trkpt lat="43.4688793" lon="6.8108981"><ele></ele><time>2022-5-31T8:37:50Z</time></trkpt>
<trkpt lat="43.4688674" lon="6.8107967"><ele></ele><time>2022-5-31T8:37:53Z</time></trkpt>
<trkpt lat="43.4688587" lon="6.8107037"><ele></ele><time>2022-5-31T8:37:56Z</time></trkpt>
<trkpt lat="43.4688424" lon="6.8106182"><ele></ele><time>2022-5-31T8:37:59Z</time></trkpt>
<trkpt lat="43.4688200" lon="6.8105392"><ele></ele><time>2022-5-31T8:38:2Z</time></trkpt>
<trkpt lat="43.4688031" lon="6.8104597"><ele></ele><time>2022-5-31T8:38:5Z</time></trkpt>
<trkpt lat="43.4687895" lon="6.8103879"><ele></ele><time>2022-5-31T8:38:8Z</time></trkpt>
<trkpt lat="43.4687725" lon="6.8103181"><ele></ele><time>2022-5-31T8:38:11Z</time></trkpt>
<trkpt lat="43.4687600" lon="6.8102371"><ele></ele><time>2022-5-31T8:38:14Z</time></trkpt>
<trkpt lat="43.4687554" lon="6.8101541"><ele></ele><time>2022-5-31T8:38:17Z</time></trkpt>
<trkpt lat="43.4687590" lon="6.8100770"><ele></ele><time>2022-5-31T8:38:20Z</time></trkpt>
<trkpt lat="43.4687703" lon="6.8100004"><ele></ele><time>2022-5-31T8:38:23Z</time></trkpt>
<trkpt lat="43.4687887" lon="6.8099210"><ele></ele><time>2022-5-31T8:38:26Z</time></trkpt>
<trkpt lat="43.4688183" lon="6.8098478"><ele></ele><time>2022-5-31T8:38:29Z</time></trkpt>
<trkpt lat="43.4688497" lon="6.8097758"><ele></ele><time>2022-5-31T8:38:32Z</time></trkpt>
<trkpt lat="43.4688747" lon="6.8097047"><ele></ele><time>2022-5-31T8:38:35Z</time></trkpt>
<trkpt lat="43.4688860" lon="6.8096211"><ele></ele><time>2022-5-31T8:38:38Z</time></trkpt>
<trkpt lat="43.4688880" lon="6.8095340"><ele></ele><time>2022-5-31T8:38:41Z</time></trkpt>
<trkpt lat="43.4688865" lon="6.8094517"><ele></ele><time>2022-5-31T8:38:44Z</time></trkpt>
<trkpt lat="43.4688878" lon="6.8093712"><ele></ele><time>2022-5-31T8:38:47Z</time></trkpt>
<trkpt lat="43.4688948" lon="6.8092894"><ele></ele><time>2022-5-31T8:38:50Z</time></trkpt>
<trkpt lat="43.4689086" lon="6.8092140"><ele></ele><time>2022-5-31T8:38:53Z</time></trkpt>
<trkpt lat="43.4689242" lon="6.8091395"><ele></ele><time>2022-5-31T8:38:56Z</time></trkpt>
<trkpt lat="43.4689379" lon="6.8090616"><ele></ele><time>2022-5-31T8:38:59Z</time></trkpt>
<trkpt lat="43.4689522" lon="6.8089834"><ele></ele><time>2022-5-31T8:39:2Z</time></trkpt>
<trkpt lat="43.4689727" lon="6.8089022"><ele></ele><time>2022-5-31T8:39:5Z</time></trkpt>
<trkpt lat="43.4689993" lon="6.8088282"><ele></ele><time>2022-5-31T8:39:8Z</time></trkpt>
<trkpt lat="43.4690268" lon="6.8087552"><ele></ele><time>2022-5-31T8:39:11Z</time></trkpt>
<trkpt lat="43.4690566" lon="6.8086882"><ele></ele><time>2022-5-31T8:39:14Z</time></trkpt>
<trkpt lat="43.4690876" lon="6.8086230"><ele></ele><time>2022-5-31T8:39:17Z</time></trkpt>
<trkpt lat="43.4691170" lon="6.8085562"><ele></ele><time>2022-5-31T8:39:20Z</time></trkpt>
<trkpt lat="43.4691487" lon="6.8084914"><ele></ele><time>2022-5-31T8:39:23Z</time></trkpt>
<trkpt lat="43.4691760" lon="6.8084265"><ele></ele><time>2022-5-31T8:39:26Z</time></trkpt>
<trkpt lat="43.4691975" lon="6.8083594"><ele></ele><time>2022-5-31T8:39:29Z</time></trkpt>
<trkpt lat="43.4692070" lon="6.8082944"><ele></ele><time>2022-5-31T8:39:32Z</time></trkpt>
<trkpt lat="43.4692092" lon="6.8082220"><ele></ele><time>2022-5-31T8:39:35Z</time></trkpt>
<trkpt lat="43.4692121" lon="6.8081495"><ele></ele><time>2022-5-31T8:39:38Z</time></trkpt>
<trkpt lat="43.4692126" lon="6.8080835"><ele></ele><time>2022-5-31T8:39:41Z</time></trkpt>
<trkpt lat="43.4691952" lon="6.8080134"><ele></ele><time>2022-5-31T8:39:44Z</time></trkpt>
<trkpt lat="43.4691816" lon="6.8079434"><ele></ele><time>2022-5-31T8:39:47Z</time></trkpt>
<trkpt lat="43.4691719" lon="6.8078724"><ele></ele><time>2022-5-31T8:39:50Z</time></trkpt>
<trkpt lat="43.4691675" lon="6.8078035"><ele></ele><time>2022-5-31T8:39:53Z</time></trkpt>
<trkpt lat="43.4691610" lon="6.8077358"><ele></ele><time>2022-5-31T8:39:56Z</time></trkpt>
<trkpt lat="43.4691496" lon="6.8076690"><ele></ele><time>2022-5-31T8:39:59Z</time></trkpt>
<trkpt lat="43.4691398" lon="6.8076003"><ele></ele><time>2022-5-31T8:40:2Z</time></trkpt>
<trkpt lat="43.4691403" lon="6.8075335"><ele></ele><time>2022-5-31T8:40:5Z</time></trkpt>
<trkpt lat="43.4691415" lon="6.8074620"><ele></ele><time>2022-5-31T8:40:8Z</time></trkpt>
<trkpt lat="43.4691522" lon="6.8074038"><ele></ele><time>2022-5-31T8:40:11Z</time></trkpt>
<trkpt lat="43.4691712" lon="6.8073492"><ele></ele><time>2022-5-31T8:40:14Z</time></trkpt>
<trkpt lat="43.4691879" lon="6.8072957"><ele></ele><time>2022-5-31T8:40:17Z</time></trkpt>
<trkpt lat="43.4692014" lon="6.8072421"><ele></ele><time>2022-5-31T8:40:20Z</time></trkpt>
<trkpt lat="43.4692106" lon="6.8071917"><ele></ele><time>2022-5-31T8:40:23Z</time></trkpt>
<trkpt lat="43.4692264" lon="6.8071397"><ele></ele><time>2022-5-31T8:40:26Z</time></trkpt>
<trkpt lat="43.4692344" lon="6.8071020"><ele></ele><time>2022-5-31T8:40:29Z</time></trkpt>
<trkpt lat="43.4692511" lon="6.8070493"><ele></ele><time>2022-5-31T8:40:32Z</time></trkpt>
<trkpt lat="43.4692762" lon="6.8069897"><ele></ele><time>2022-5-31T8:40:35Z</time></trkpt>
<trkpt lat="43.4692927" lon="6.8069283"><ele></ele><time>2022-5-31T8:40:38Z</time></trkpt>
<trkpt lat="43.4692994" lon="6.8068681"><ele></ele><time>2022-5-31T8:40:41Z</time></trkpt>
<trkpt lat="43.4693012" lon="6.8068120"><ele></ele><time>2022-5-31T8:40:44Z</time></trkpt>
<trkpt lat="43.4693055" lon="6.8067481"><ele></ele><time>2022-5-31T8:40:47Z</time></trkpt>
<trkpt lat="43.4693089" lon="6.8066927"><ele></ele><time>2022-5-31T8:40:50Z</time></trkpt>
<trkpt lat="43.4693127" lon="6.8066330"><ele></ele><time>2022-5-31T8:40:53Z</time></trkpt>
<trkpt lat="43.4693137" lon="6.8065778"><ele></ele><time>2022-5-31T8:40:56Z</time></trkpt>
<trkpt lat="43.4693189" lon="6.8065256"><ele></ele><time>2022-5-31T8:40:59Z</time></trkpt>
<trkpt lat="43.4693303" lon="6.8064737"><ele></ele><time>2022-5-31T8:41:2Z</time></trkpt>
<trkpt lat="43.4693401" lon="6.8064214"><ele></ele><time>2022-5-31T8:41:5Z</time></trkpt>
<trkpt lat="43.4693407" lon="6.8063693"><ele></ele><time>2022-5-31T8:41:8Z</time></trkpt>
<trkpt lat="43.4693361" lon="6.8063182"><ele></ele><time>2022-5-31T8:41:11Z</time></trkpt>
<trkpt lat="43.4693443" lon="6.8062662"><ele></ele><time>2022-5-31T8:41:14Z</time></trkpt>
<trkpt lat="43.4693566" lon="6.8062164"><ele></ele><time>2022-5-31T8:41:17Z</time></trkpt>
<trkpt lat="43.4693708" lon="6.8061702"><ele></ele><time>2022-5-31T8:41:20Z</time></trkpt>
<trkpt lat="43.4693803" lon="6.8061208"><ele></ele><time>2022-5-31T8:41:23Z</time></trkpt>
<trkpt lat="43.4693905" lon="6.8060656"><ele></ele><time>2022-5-31T8:41:26Z</time></trkpt>
<trkpt lat="43.4693989" lon="6.8060159"><ele></ele><time>2022-5-31T8:41:29Z</time></trkpt>
<trkpt lat="43.4694063" lon="6.8059732"><ele></ele><time>2022-5-31T8:41:32Z</time></trkpt>
<trkpt lat="43.4694222" lon="6.8059378"><ele></ele><time>2022-5-31T8:41:35Z</time></trkpt>
<trkpt lat="43.4694450" lon="6.8058959"><ele></ele><time>2022-5-31T8:41:38Z</time></trkpt>
<trkpt lat="43.4694580" lon="6.8058651"><ele></ele><time>2022-5-31T8:41:41Z</time></trkpt>
<trkpt lat="43.4694698" lon="6.8058215"><ele></ele><time>2022-5-31T8:41:44Z</time></trkpt>
<trkpt lat="43.4694754" lon="6.8057779"><ele></ele><time>2022-5-31T8:41:47Z</time></trkpt>
<trkpt lat="43.4694855" lon="6.8057315"><ele></ele><time>2022-5-31T8:41:50Z</time></trkpt>
<trkpt lat="43.4695010" lon="6.8056866"><ele></ele><time>2022-5-31T8:41:53Z</time></trkpt>
<trkpt lat="43.4695172" lon="6.8056494"><ele></ele><time>2022-5-31T8:41:56Z</time></trkpt>
<trkpt lat="43.4695272" lon="6.8056215"><ele></ele><time>2022-5-31T8:41:59Z</time></trkpt>
<trkpt lat="43.4695338" lon="6.8055915"><ele></ele><time>2022-5-31T8:42:2Z</time></trkpt>
<trkpt lat="43.4695409" lon="6.8055517"><ele></ele><time>2022-5-31T8:42:5Z</time></trkpt>
<trkpt lat="43.4695465" lon="6.8055132"><ele></ele><time>2022-5-31T8:42:8Z</time></trkpt>
<trkpt lat="43.4695501" lon="6.8054713"><ele></ele><time>2022-5-31T8:42:11Z</time></trkpt>
<trkpt lat="43.4695520" lon="6.8054323"><ele></ele><time>2022-5-31T8:42:14Z</time></trkpt>
<trkpt lat="43.4695565" lon="6.8053867"><ele></ele><time>2022-5-31T8:42:17Z</time></trkpt>
<trkpt lat="43.4695582" lon="6.8053458"><ele></ele><time>2022-5-31T8:42:20Z</time></trkpt>
<trkpt lat="43.4695625" lon="6.8052982"><ele></ele><time>2022-5-31T8:42:23Z</time></trkpt>
<trkpt lat="43.4695691" lon="6.8052508"><ele></ele><time>2022-5-31T8:42:26Z</time></trkpt>
<trkpt lat="43.4695778" lon="6.8051987"><ele></ele><time>2022-5-31T8:42:29Z</time></trkpt>
<trkpt lat="43.4695863" lon="6.8051492"><ele></ele><time>2022-5-31T8:42:32Z</time></trkpt>
<trkpt lat="43.4695964" lon="6.8051030"><ele></ele><time>2022-5-31T8:42:35Z</time></trkpt>
<trkpt lat="43.4696071" lon="6.8050599"><ele></ele><time>2022-5-31T8:42:38Z</time></trkpt>
<trkpt lat="43.4696160" lon="6.8050163"><ele></ele><time>2022-5-31T8:42:41Z</time></trkpt>
<trkpt lat="43.4696232" lon="6.8049708"><ele></ele><time>2022-5-31T8:42:44Z</time></trkpt>
<trkpt lat="43.4696291" lon="6.8049269"><ele></ele><time>2022-5-31T8:42:47Z</time></trkpt>
<trkpt lat="43.4696357" lon="6.8048787"><ele></ele><time>2022-5-31T8:42:50Z</time></trkpt>
<trkpt lat="43.4696420" lon="6.8048319"><ele></ele><time>2022-5-31T8:42:53Z</time></trkpt>
<trkpt lat="43.4696446" lon="6.8048016"><ele></ele><time>2022-5-31T8:42:56Z</time></trkpt>
<trkpt lat="43.4696458" lon="6.8047792"><ele></ele><time>2022-5-31T8:42:59Z</time></trkpt>
<trkpt lat="43.4696474" lon="6.8047505"><ele></ele><time>2022-5-31T8:43:2Z</time></trkpt>
<trkpt lat="43.4696500" lon="6.8047126"><ele></ele><time>2022-5-31T8:43:5Z</time></trkpt>
<trkpt lat="43.4696533" lon="6.8046722"><ele></ele><time>2022-5-31T8:43:8Z</time></trkpt>
<trkpt lat="43.4696551" lon="6.8046308"><ele></ele><time>2022-5-31T8:43:11Z</time></trkpt>
<trkpt lat="43.4696556" lon="6.8045892"><ele></ele><time>2022-5-31T8:43:14Z</time></trkpt>
<trkpt lat="43.4696598" lon="6.8045501"><ele></ele><time>2022-5-31T8:43:17Z</time></trkpt>
<trkpt lat="43.4696655" lon="6.8045132"><ele></ele><time>2022-5-31T8:43:20Z</time></trkpt>
<trkpt lat="43.4696796" lon="6.8044686"><ele></ele><time>2022-5-31T8:43:23Z</time></trkpt>
<trkpt lat="43.4696968" lon="6.8044205"><ele></ele><time>2022-5-31T8:43:26Z</time></trkpt>
<trkpt lat="43.4697106" lon="6.8043738"><ele></ele><time>2022-5-31T8:43:29Z</time></trkpt>
<trkpt lat="43.4697256" lon="6.8043355"><ele></ele><time>2022-5-31T8:43:32Z</time></trkpt>
<trkpt lat="43.4697459" lon="6.8043012"><ele></ele><time>2022-5-31T8:43:35Z</time></trkpt>
<trkpt lat="43.4697656" lon="6.8042669"><ele></ele><time>2022-5-31T8:43:38Z</time></trkpt>
<trkpt lat="43.4697871" lon="6.8042363"><ele></ele><time>2022-5-31T8:43:41Z</time></trkpt>
<trkpt lat="43.4698136" lon="6.8042016"><ele></ele><time>2022-5-31T8:43:44Z</time></trkpt>
<trkpt lat="43.4698359" lon="6.8041710"><ele></ele><time>2022-5-31T8:43:47Z</time></trkpt>
<trkpt lat="43.4698595" lon="6.8041449"><ele></ele><time>2022-5-31T8:43:50Z</time></trkpt>
<trkpt lat="43.4698825" lon="6.8041241"><ele></ele><time>2022-5-31T8:43:53Z</time></trkpt>
<trkpt lat="43.4699088" lon="6.8041048"><ele></ele><time>2022-5-31T8:43:56Z</time></trkpt>
<trkpt lat="43.4699318" lon="6.8040853"><ele></ele><time>2022-5-31T8:43:59Z</time></trkpt>
<trkpt lat="43.4699537" lon="6.8040675"><ele></ele><time>2022-5-31T8:44:2Z</time></trkpt>
<trkpt lat="43.4699738" lon="6.8040499"><ele></ele><time>2022-5-31T8:44:5Z</time></trkpt>
<trkpt lat="43.4699969" lon="6.8040330"><ele></ele><time>2022-5-31T8:44:8Z</time></trkpt>
<trkpt lat="43.4700119" lon="6.8040189"><ele></ele><time>2022-5-31T8:44:11Z</time></trkpt>
<trkpt lat="43.4700278" lon="6.8040046"><ele></ele><time>2022-5-31T8:44:14Z</time></trkpt>
<trkpt lat="43.4700504" lon="6.8039924"><ele></ele><time>2022-5-31T8:44:17Z</time></trkpt>
<trkpt lat="43.4700681" lon="6.8039828"><ele></ele><time>2022-5-31T8:44:20Z</time></trkpt>
<trkpt lat="43.4700878" lon="6.8039662"><ele></ele><time>2022-5-31T8:44:23Z</time></trkpt>
<trkpt lat="43.4701116" lon="6.8039542"><ele></ele><time>2022-5-31T8:44:26Z</time></trkpt>
<trkpt lat="43.4701374" lon="6.8039425"><ele></ele><time>2022-5-31T8:44:29Z</time></trkpt>
<trkpt lat="43.4701572" lon="6.8039439"><ele></ele><time>2022-5-31T8:44:32Z</time></trkpt>
<trkpt lat="43.4701768" lon="6.8039495"><ele></ele><time>2022-5-31T8:44:35Z</time></trkpt>
<trkpt lat="43.4702043" lon="6.8039520"><ele></ele><time>2022-5-31T8:44:38Z</time></trkpt>
<trkpt lat="43.4702297" lon="6.8039450"><ele></ele><time>2022-5-31T8:44:41Z</time></trkpt>
<trkpt lat="43.4702543" lon="6.8039466"><ele></ele><time>2022-5-31T8:44:44Z</time></trkpt>
<trkpt lat="43.4702750" lon="6.8039498"><ele></ele><time>2022-5-31T8:44:47Z</time></trkpt>
<trkpt lat="43.4702960" lon="6.8039536"><ele></ele><time>2022-5-31T8:44:50Z</time></trkpt>
<trkpt lat="43.4703116" lon="6.8039572"><ele></ele><time>2022-5-31T8:44:53Z</time></trkpt>
<trkpt lat="43.4703302" lon="6.8039593"><ele></ele><time>2022-5-31T8:44:56Z</time></trkpt>
<trkpt lat="43.4703483" lon="6.8039595"><ele></ele><time>2022-5-31T8:44:59Z</time></trkpt>
<trkpt lat="43.4703422" lon="6.8039623"><ele></ele><time>2022-5-31T8:45:2Z</time></trkpt>
<trkpt lat="43.4703374" lon="6.8039571"><ele></ele><time>2022-5-31T8:45:5Z</time></trkpt>
<trkpt lat="43.4703321" lon="6.8039600"><ele></ele><time>2022-5-31T8:45:8Z</time></trkpt>
<trkpt lat="43.4703298" lon="6.8039614"><ele></ele><time>2022-5-31T8:45:11Z</time></trkpt>
<trkpt lat="43.4703304" lon="6.8039596"><ele></ele><time>2022-5-31T8:45:14Z</time></trkpt>
<trkpt lat="43.4703314" lon="6.8039592"><ele></ele><time>2022-5-31T8:45:17Z</time></trkpt>
<trkpt lat="43.4703317" lon="6.8039592"><ele></ele><time>2022-5-31T8:45:20Z</time></trkpt>
<trkpt lat="43.4703312" lon="6.8039591"><ele></ele><time>2022-5-31T8:45:23Z</time></trkpt>
<trkpt lat="43.4703316" lon="6.8039588"><ele></ele><time>2022-5-31T8:45:26Z</time></trkpt>
<trkpt lat="43.4703326" lon="6.8039594"><ele></ele><time>2022-5-31T8:45:29Z</time></trkpt>
<trkpt lat="43.4703326" lon="6.8039606"><ele></ele><time>2022-5-31T8:45:32Z</time></trkpt>
<trkpt lat="43.4703353" lon="6.8039626"><ele></ele><time>2022-5-31T8:45:35Z</time></trkpt>
<trkpt lat="43.4703327" lon="6.8039603"><ele></ele><time>2022-5-31T8:45:38Z</time></trkpt>
<trkpt lat="43.4703324" lon="6.8039602"><ele></ele><time>2022-5-31T8:45:41Z</time></trkpt>
<trkpt lat="43.4703301" lon="6.8039632"><ele></ele><time>2022-5-31T8:45:44Z</time></trkpt>
<trkpt lat="43.4703288" lon="6.8039641"><ele></ele><time>2022-5-31T8:45:47Z</time></trkpt>
<trkpt lat="43.4703284" lon="6.8039647"><ele></ele><time>2022-5-31T8:45:50Z</time></trkpt>
<trkpt lat="43.4703166" lon="6.8032643"><ele></ele><time>2022-5-31T8:45:53Z</time></trkpt>
<trkpt lat="43.4703163" lon="6.8032641"><ele></ele><time>2022-5-31T8:45:56Z</time></trkpt>
<trkpt lat="43.4703154" lon="6.8032635"><ele></ele><time>2022-5-31T8:45:59Z</time></trkpt>
<trkpt lat="43.4703144" lon="6.8032624"><ele></ele><time>2022-5-31T8:46:2Z</time></trkpt>
<trkpt lat="43.4703129" lon="6.8032615"><ele></ele><time>2022-5-31T8:46:5Z</time></trkpt>
<trkpt lat="43.4703107" lon="6.8032685"><ele></ele><time>2022-5-31T8:46:8Z</time></trkpt>
<trkpt lat="43.4703111" lon="6.8032863"><ele></ele><time>2022-5-31T8:46:11Z</time></trkpt>
<trkpt lat="43.4703148" lon="6.8032998"><ele></ele><time>2022-5-31T8:46:14Z</time></trkpt>
<trkpt lat="43.4703141" lon="6.8033077"><ele></ele><time>2022-5-31T8:46:17Z</time></trkpt>
<trkpt lat="43.4703138" lon="6.8033092"><ele></ele><time>2022-5-31T8:46:20Z</time></trkpt>
<trkpt lat="43.4703140" lon="6.8033110"><ele></ele><time>2022-5-31T8:46:23Z</time></trkpt>
<trkpt lat="43.4703160" lon="6.8033153"><ele></ele><time>2022-5-31T8:46:26Z</time></trkpt>
<trkpt lat="43.4703188" lon="6.8033206"><ele></ele><time>2022-5-31T8:46:29Z</time></trkpt>
<trkpt lat="43.4703225" lon="6.8033270"><ele></ele><time>2022-5-31T8:46:32Z</time></trkpt>
<trkpt lat="43.4703258" lon="6.8033332"><ele></ele><time>2022-5-31T8:46:35Z</time></trkpt>
<trkpt lat="43.4703289" lon="6.8033389"><ele></ele><time>2022-5-31T8:46:38Z</time></trkpt>
<trkpt lat="43.4703319" lon="6.8033439"><ele></ele><time>2022-5-31T8:46:41Z</time></trkpt>
<trkpt lat="43.4703350" lon="6.8033497"><ele></ele><time>2022-5-31T8:46:44Z</time></trkpt>
<trkpt lat="43.4703372" lon="6.8033546"><ele></ele><time>2022-5-31T8:46:47Z</time></trkpt>
<trkpt lat="43.4703387" lon="6.8033567"><ele></ele><time>2022-5-31T8:46:50Z</time></trkpt>
<trkpt lat="43.4703385" lon="6.8033571"><ele></ele><time>2022-5-31T8:46:53Z</time></trkpt>
<trkpt lat="43.4703387" lon="6.8033582"><ele></ele><time>2022-5-31T8:46:56Z</time></trkpt>
<trkpt lat="43.4703366" lon="6.8033564"><ele></ele><time>2022-5-31T8:46:59Z</time></trkpt>
<trkpt lat="43.4703365" lon="6.8033577"><ele></ele><time>2022-5-31T8:47:2Z</time></trkpt>
<trkpt lat="43.4703360" lon="6.8033581"><ele></ele><time>2022-5-31T8:47:5Z</time></trkpt>
<trkpt lat="43.4703351" lon="6.8033589"><ele></ele><time>2022-5-31T8:47:8Z</time></trkpt>
<trkpt lat="43.4703350" lon="6.8033606"><ele></ele><time>2022-5-31T8:47:11Z</time></trkpt>
<trkpt lat="43.4703335" lon="6.8033607"><ele></ele><time>2022-5-31T8:47:14Z</time></trkpt>
<trkpt lat="43.4703326" lon="6.8033614"><ele></ele><time>2022-5-31T8:47:17Z</time></trkpt>
<trkpt lat="43.4703327" lon="6.8033623"><ele></ele><time>2022-5-31T8:47:20Z</time></trkpt>
<trkpt lat="43.4703324" lon="6.8033641"><ele></ele><time>2022-5-31T8:47:23Z</time></trkpt>
<trkpt lat="43.4703319" lon="6.8033652"><ele></ele><time>2022-5-31T8:47:26Z</time></trkpt>
<trkpt lat="43.4703319" lon="6.8033673"><ele></ele><time>2022-5-31T8:47:29Z</time></trkpt>
<trkpt lat="43.4703311" lon="6.8033680"><ele></ele><time>2022-5-31T8:47:32Z</time></trkpt>
<trkpt lat="43.4703314" lon="6.8033689"><ele></ele><time>2022-5-31T8:47:35Z</time></trkpt>
<trkpt lat="43.4703313" lon="6.8033700"><ele></ele><time>2022-5-31T8:47:38Z</time></trkpt>
<trkpt lat="43.4703311" lon="6.8033702"><ele></ele><time>2022-5-31T8:47:41Z</time></trkpt>
<trkpt lat="43.4703308" lon="6.8033714"><ele></ele><time>2022-5-31T8:47:44Z</time></trkpt>
<trkpt lat="43.4703307" lon="6.8033726"><ele></ele><time>2022-5-31T8:47:47Z</time></trkpt>
<trkpt lat="43.4703303" lon="6.8033728"><ele></ele><time>2022-5-31T8:47:50Z</time></trkpt>
<trkpt lat="43.4703302" lon="6.8033744"><ele></ele><time>2022-5-31T8:47:53Z</time></trkpt>
<trkpt lat="43.4703303" lon="6.8033756"><ele></ele><time>2022-5-31T8:47:56Z</time></trkpt>
<trkpt lat="43.4703304" lon="6.8033775"><ele></ele><time>2022-5-31T8:47:59Z</time></trkpt>
<trkpt lat="43.4703293" lon="6.8033778"><ele></ele><time>2022-5-31T8:48:2Z</time></trkpt>
<trkpt lat="43.4703284" lon="6.8033782"><ele></ele><time>2022-5-31T8:48:5Z</time></trkpt>
<trkpt lat="43.4703279" lon="6.8033781"><ele></ele><time>2022-5-31T8:48:8Z</time></trkpt>
<trkpt lat="43.4703274" lon="6.8033795"><ele></ele><time>2022-5-31T8:48:11Z</time></trkpt>
<trkpt lat="43.4703273" lon="6.8033807"><ele></ele><time>2022-5-31T8:48:14Z</time></trkpt>
<trkpt lat="43.4703269" lon="6.8033813"><ele></ele><time>2022-5-31T8:48:17Z</time></trkpt>
<trkpt lat="43.4703267" lon="6.8033823"><ele></ele><time>2022-5-31T8:48:20Z</time></trkpt>
<trkpt lat="43.4703262" lon="6.8033838"><ele></ele><time>2022-5-31T8:48:23Z</time></trkpt>
<trkpt lat="43.4703262" lon="6.8033845"><ele></ele><time>2022-5-31T8:48:26Z</time></trkpt>
<trkpt lat="43.4703261" lon="6.8033854"><ele></ele><time>2022-5-31T8:48:29Z</time></trkpt>
<trkpt lat="43.4703262" lon="6.8033860"><ele></ele><time>2022-5-31T8:48:32Z</time></trkpt>
<trkpt lat="43.4703261" lon="6.8033864"><ele></ele><time>2022-5-31T8:48:35Z</time></trkpt>
<trkpt lat="43.4703256" lon="6.8033874"><ele></ele><time>2022-5-31T8:48:38Z</time></trkpt>
<trkpt lat="43.4703257" lon="6.8033886"><ele></ele><time>2022-5-31T8:48:41Z</time></trkpt>
<trkpt lat="43.4703254" lon="6.8033902"><ele></ele><time>2022-5-31T8:48:44Z</time></trkpt>
<trkpt lat="43.4703223" lon="6.8033884"><ele></ele><time>2022-5-31T8:48:47Z</time></trkpt>
<trkpt lat="43.4703200" lon="6.8033878"><ele></ele><time>2022-5-31T8:48:50Z</time></trkpt>
<trkpt lat="43.4703194" lon="6.8033900"><ele></ele><time>2022-5-31T8:48:53Z</time></trkpt>
<trkpt lat="43.4703190" lon="6.8033913"><ele></ele><time>2022-5-31T8:48:56Z</time></trkpt>
<trkpt lat="43.4703191" lon="6.8033921"><ele></ele><time>2022-5-31T8:48:59Z</time></trkpt>
<trkpt lat="43.4703189" lon="6.8033933"><ele></ele><time>2022-5-31T8:49:2Z</time></trkpt>
<trkpt lat="43.4703188" lon="6.8033946"><ele></ele><time>2022-5-31T8:49:5Z</time></trkpt>
<trkpt lat="43.4703186" lon="6.8033965"><ele></ele><time>2022-5-31T8:49:8Z</time></trkpt>
<trkpt lat="43.4703181" lon="6.8033972"><ele></ele><time>2022-5-31T8:49:11Z</time></trkpt>
<trkpt lat="43.4703182" lon="6.8033979"><ele></ele><time>2022-5-31T8:49:14Z</time></trkpt>
<trkpt lat="43.4703181" lon="6.8033986"><ele></ele><time>2022-5-31T8:49:17Z</time></trkpt>
<trkpt lat="43.4703176" lon="6.8034004"><ele></ele><time>2022-5-31T8:49:20Z</time></trkpt>
<trkpt lat="43.4703179" lon="6.8034028"><ele></ele><time>2022-5-31T8:49:23Z</time></trkpt>
<trkpt lat="43.4703183" lon="6.8034062"><ele></ele><time>2022-5-31T8:49:26Z</time></trkpt>
<trkpt lat="43.4703183" lon="6.8034089"><ele></ele><time>2022-5-31T8:49:29Z</time></trkpt>
<trkpt lat="43.4703193" lon="6.8034113"><ele></ele><time>2022-5-31T8:49:32Z</time></trkpt>
<trkpt lat="43.4703188" lon="6.8034124"><ele></ele><time>2022-5-31T8:49:35Z</time></trkpt>
<trkpt lat="43.4703190" lon="6.8034139"><ele></ele><time>2022-5-31T8:49:38Z</time></trkpt>
<trkpt lat="43.4703197" lon="6.8034159"><ele></ele><time>2022-5-31T8:49:41Z</time></trkpt>
<trkpt lat="43.4703205" lon="6.8034190"><ele></ele><time>2022-5-31T8:49:44Z</time></trkpt>
<trkpt lat="43.4703192" lon="6.8034189"><ele></ele><time>2022-5-31T8:49:47Z</time></trkpt>
<trkpt lat="43.4703181" lon="6.8034187"><ele></ele><time>2022-5-31T8:49:50Z</time></trkpt>
<trkpt lat="43.4703182" lon="6.8034204"><ele></ele><time>2022-5-31T8:49:53Z</time></trkpt>
<trkpt lat="43.4703179" lon="6.8034216"><ele></ele><time>2022-5-31T8:49:56Z</time></trkpt>
<trkpt lat="43.4703178" lon="6.8034228"><ele></ele><time>2022-5-31T8:49:59Z</time></trkpt>
<trkpt lat="43.4703178" lon="6.8034244"><ele></ele><time>2022-5-31T8:50:2Z</time></trkpt>
<trkpt lat="43.4703172" lon="6.8034253"><ele></ele><time>2022-5-31T8:50:5Z</time></trkpt>
<trkpt lat="43.4703169" lon="6.8034262"><ele></ele><time>2022-5-31T8:50:8Z</time></trkpt>
<trkpt lat="43.4703170" lon="6.8034275"><ele></ele><time>2022-5-31T8:50:11Z</time></trkpt>
<trkpt lat="43.4703163" lon="6.8034278"><ele></ele><time>2022-5-31T8:50:14Z</time></trkpt>
<trkpt lat="43.4703165" lon="6.8034287"><ele></ele><time>2022-5-31T8:50:17Z</time></trkpt>
<trkpt lat="43.4703171" lon="6.8034298"><ele></ele><time>2022-5-31T8:50:20Z</time></trkpt>
<trkpt lat="43.4703174" lon="6.8034305"><ele></ele><time>2022-5-31T8:50:23Z</time></trkpt>
<trkpt lat="43.4703176" lon="6.8034309"><ele></ele><time>2022-5-31T8:50:26Z</time></trkpt>
<trkpt lat="43.4703179" lon="6.8034318"><ele></ele><time>2022-5-31T8:50:29Z</time></trkpt>
<trkpt lat="43.4703182" lon="6.8034331"><ele></ele><time>2022-5-31T8:50:32Z</time></trkpt>
<trkpt lat="43.4703179" lon="6.8034341"><ele></ele><time>2022-5-31T8:50:35Z</time></trkpt>
<trkpt lat="43.4703186" lon="6.8034362"><ele></ele><time>2022-5-31T8:50:38Z</time></trkpt>
<trkpt lat="43.4703185" lon="6.8034372"><ele></ele><time>2022-5-31T8:50:41Z</time></trkpt>
<trkpt lat="43.4703186" lon="6.8034386"><ele></ele><time>2022-5-31T8:50:44Z</time></trkpt>
<trkpt lat="43.4703177" lon="6.8034380"><ele></ele><time>2022-5-31T8:50:47Z</time></trkpt>
<trkpt lat="43.4703176" lon="6.8034388"><ele></ele><time>2022-5-31T8:50:50Z</time></trkpt>
<trkpt lat="43.4703175" lon="6.8034394"><ele></ele><time>2022-5-31T8:50:53Z</time></trkpt>
<trkpt lat="43.4703174" lon="6.8034402"><ele></ele><time>2022-5-31T8:50:56Z</time></trkpt>
<trkpt lat="43.4703177" lon="6.8034409"><ele></ele><time>2022-5-31T8:50:59Z</time></trkpt>
<trkpt lat="43.4703176" lon="6.8034419"><ele></ele><time>2022-5-31T8:51:2Z</time></trkpt>
<trkpt lat="43.4703175" lon="6.8034426"><ele></ele><time>2022-5-31T8:51:5Z</time></trkpt>
<trkpt lat="43.4703174" lon="6.8034440"><ele></ele><time>2022-5-31T8:51:8Z</time></trkpt>
<trkpt lat="43.4703172" lon="6.8034452"><ele></ele><time>2022-5-31T8:51:11Z</time></trkpt>
<trkpt lat="43.4703174" lon="6.8034457"><ele></ele><time>2022-5-31T8:51:14Z</time></trkpt>
<trkpt lat="43.4703169" lon="6.8034463"><ele></ele><time>2022-5-31T8:51:17Z</time></trkpt>
<trkpt lat="43.4703167" lon="6.8034473"><ele></ele><time>2022-5-31T8:51:20Z</time></trkpt>
<trkpt lat="43.4703166" lon="6.8034490"><ele></ele><time>2022-5-31T8:51:23Z</time></trkpt>
<trkpt lat="43.4703166" lon="6.8034500"><ele></ele><time>2022-5-31T8:51:26Z</time></trkpt>
<trkpt lat="43.4703166" lon="6.8034511"><ele></ele><time>2022-5-31T8:51:29Z</time></trkpt>
<trkpt lat="43.4703163" lon="6.8034528"><ele></ele><time>2022-5-31T8:51:32Z</time></trkpt>
<trkpt lat="43.4703163" lon="6.8034544"><ele></ele><time>2022-5-31T8:51:35Z</time></trkpt>
<trkpt lat="43.4703172" lon="6.8034568"><ele></ele><time>2022-5-31T8:51:38Z</time></trkpt>
<trkpt lat="43.4703166" lon="6.8034572"><ele></ele><time>2022-5-31T8:51:41Z</time></trkpt>
<trkpt lat="43.4703161" lon="6.8034572"><ele></ele><time>2022-5-31T8:51:44Z</time></trkpt>
<trkpt lat="43.4703162" lon="6.8034582"><ele></ele><time>2022-5-31T8:51:47Z</time></trkpt>
<trkpt lat="43.4703164" lon="6.8034586"><ele></ele><time>2022-5-31T8:51:50Z</time></trkpt>
<trkpt lat="43.4703166" lon="6.8034588"><ele></ele><time>2022-5-31T8:51:53Z</time></trkpt>
<trkpt lat="43.4703167" lon="6.8034602"><ele></ele><time>2022-5-31T8:51:56Z</time></trkpt>
<trkpt lat="43.4703178" lon="6.8034620"><ele></ele><time>2022-5-31T8:51:59Z</time></trkpt>
<trkpt lat="43.4703200" lon="6.8034664"><ele></ele><time>2022-5-31T8:52:2Z</time></trkpt>
<trkpt lat="43.4703218" lon="6.8034705"><ele></ele><time>2022-5-31T8:52:5Z</time></trkpt>
<trkpt lat="43.4703203" lon="6.8034697"><ele></ele><time>2022-5-31T8:52:8Z</time></trkpt>
<trkpt lat="43.4703198" lon="6.8034700"><ele></ele><time>2022-5-31T8:52:11Z</time></trkpt>
<trkpt lat="43.4703202" lon="6.8034711"><ele></ele><time>2022-5-31T8:52:14Z</time></trkpt>
<trkpt lat="43.4703205" lon="6.8034721"><ele></ele><time>2022-5-31T8:52:17Z</time></trkpt>
<trkpt lat="43.4703206" lon="6.8034728"><ele></ele><time>2022-5-31T8:52:20Z</time></trkpt>
<trkpt lat="43.4703208" lon="6.8034742"><ele></ele><time>2022-5-31T8:52:23Z</time></trkpt>
<trkpt lat="43.4703204" lon="6.8034748"><ele></ele><time>2022-5-31T8:52:26Z</time></trkpt>
<trkpt lat="43.4703199" lon="6.8034752"><ele></ele><time>2022-5-31T8:52:29Z</time></trkpt>
<trkpt lat="43.4703199" lon="6.8034760"><ele></ele><time>2022-5-31T8:52:32Z</time></trkpt>
<trkpt lat="43.4703199" lon="6.8034777"><ele></ele><time>2022-5-31T8:52:35Z</time></trkpt>
<trkpt lat="43.4703183" lon="6.8034766"><ele></ele><time>2022-5-31T8:52:38Z</time></trkpt>
<trkpt lat="43.4703186" lon="6.8034781"><ele></ele><time>2022-5-31T8:52:41Z</time></trkpt>
<trkpt lat="43.4703187" lon="6.8034794"><ele></ele><time>2022-5-31T8:52:44Z</time></trkpt>
<trkpt lat="43.4703188" lon="6.8034798"><ele></ele><time>2022-5-31T8:52:47Z</time></trkpt>
<trkpt lat="43.4703191" lon="6.8034804"><ele></ele><time>2022-5-31T8:52:50Z</time></trkpt>
<trkpt lat="43.4703188" lon="6.8034801"><ele></ele><time>2022-5-31T8:52:53Z</time></trkpt>
<trkpt lat="43.4703186" lon="6.8034808"><ele></ele><time>2022-5-31T8:52:56Z</time></trkpt>
<trkpt lat="43.4703186" lon="6.8034817"><ele></ele><time>2022-5-31T8:52:59Z</time></trkpt>
<trkpt lat="43.4703186" lon="6.8034830"><ele></ele><time>2022-5-31T8:53:2Z</time></trkpt>
<trkpt lat="43.4703194" lon="6.8034842"><ele></ele><time>2022-5-31T8:53:5Z</time></trkpt>
<trkpt lat="43.4703196" lon="6.8034858"><ele></ele><time>2022-5-31T8:53:8Z</time></trkpt>
<trkpt lat="43.4703206" lon="6.8034874"><ele></ele><time>2022-5-31T8:53:11Z</time></trkpt>
<trkpt lat="43.4703206" lon="6.8034888"><ele></ele><time>2022-5-31T8:53:14Z</time></trkpt>
<trkpt lat="43.4703215" lon="6.8034903"><ele></ele><time>2022-5-31T8:53:17Z</time></trkpt>
<trkpt lat="43.4703217" lon="6.8034913"><ele></ele><time>2022-5-31T8:53:20Z</time></trkpt>
<trkpt lat="43.4703213" lon="6.8034921"><ele></ele><time>2022-5-31T8:53:23Z</time></trkpt>
<trkpt lat="43.4703216" lon="6.8034943"><ele></ele><time>2022-5-31T8:53:26Z</time></trkpt>
<trkpt lat="43.4703224" lon="6.8034967"><ele></ele><time>2022-5-31T8:53:29Z</time></trkpt>
<trkpt lat="43.4703202" lon="6.8034947"><ele></ele><time>2022-5-31T8:53:32Z</time></trkpt>
<trkpt lat="43.4703199" lon="6.8034947"><ele></ele><time>2022-5-31T8:53:35Z</time></trkpt>
<trkpt lat="43.4703200" lon="6.8034960"><ele></ele><time>2022-5-31T8:53:38Z</time></trkpt>
<trkpt lat="43.4703206" lon="6.8034975"><ele></ele><time>2022-5-31T8:53:41Z</time></trkpt>
<trkpt lat="43.4703211" lon="6.8034987"><ele></ele><time>2022-5-31T8:53:44Z</time></trkpt>
<trkpt lat="43.4703210" lon="6.8034988"><ele></ele><time>2022-5-31T8:53:47Z</time></trkpt>
<trkpt lat="43.4703207" lon="6.8034994"><ele></ele><time>2022-5-31T8:53:50Z</time></trkpt>
<trkpt lat="43.4703209" lon="6.8035001"><ele></ele><time>2022-5-31T8:53:53Z</time></trkpt>
<trkpt lat="43.4703210" lon="6.8035006"><ele></ele><time>2022-5-31T8:53:56Z</time></trkpt>
<trkpt lat="43.4703209" lon="6.8035009"><ele></ele><time>2022-5-31T8:53:59Z</time></trkpt>
<trkpt lat="43.4703213" lon="6.8035017"><ele></ele><time>2022-5-31T8:54:2Z</time></trkpt>
<trkpt lat="43.4703213" lon="6.8035020"><ele></ele><time>2022-5-31T8:54:5Z</time></trkpt>
<trkpt lat="43.4703214" lon="6.8035031"><ele></ele><time>2022-5-31T8:54:8Z</time></trkpt>
<trkpt lat="43.4703206" lon="6.8035024"><ele></ele><time>2022-5-31T8:54:11Z</time></trkpt>
<trkpt lat="43.4703209" lon="6.8035032"><ele></ele><time>2022-5-31T8:54:14Z</time></trkpt>
<trkpt lat="43.4703210" lon="6.8035045"><ele></ele><time>2022-5-31T8:54:17Z</time></trkpt>
<trkpt lat="43.4703209" lon="6.8035049"><ele></ele><time>2022-5-31T8:54:20Z</time></trkpt>
<trkpt lat="43.4703212" lon="6.8035055"><ele></ele><time>2022-5-31T8:54:23Z</time></trkpt>
<trkpt lat="43.4703213" lon="6.8035065"><ele></ele><time>2022-5-31T8:54:26Z</time></trkpt>
<trkpt lat="43.4703213" lon="6.8035073"><ele></ele><time>2022-5-31T8:54:29Z</time></trkpt>
<trkpt lat="43.4703213" lon="6.8035087"><ele></ele><time>2022-5-31T8:54:32Z</time></trkpt>
<trkpt lat="43.4703219" lon="6.8035102"><ele></ele><time>2022-5-31T8:54:35Z</time></trkpt>
<trkpt lat="43.4703219" lon="6.8035103"><ele></ele><time>2022-5-31T8:54:38Z</time></trkpt>
<trkpt lat="43.4703218" lon="6.8035106"><ele></ele><time>2022-5-31T8:54:41Z</time></trkpt>
<trkpt lat="43.4703222" lon="6.8035115"><ele></ele><time>2022-5-31T8:54:44Z</time></trkpt>
<trkpt lat="43.4703225" lon="6.8035121"><ele></ele><time>2022-5-31T8:54:47Z</time></trkpt>
<trkpt lat="43.4703229" lon="6.8035125"><ele></ele><time>2022-5-31T8:54:50Z</time></trkpt>
<trkpt lat="43.4703233" lon="6.8035135"><ele></ele><time>2022-5-31T8:54:53Z</time></trkpt>
<trkpt lat="43.4703230" lon="6.8035143"><ele></ele><time>2022-5-31T8:54:56Z</time></trkpt>
<trkpt lat="43.4703233" lon="6.8035155"><ele></ele><time>2022-5-31T8:54:59Z</time></trkpt>
<trkpt lat="43.4703235" lon="6.8035162"><ele></ele><time>2022-5-31T8:55:2Z</time></trkpt>
<trkpt lat="43.4703236" lon="6.8035174"><ele></ele><time>2022-5-31T8:55:5Z</time></trkpt>
<trkpt lat="43.4703234" lon="6.8035179"><ele></ele><time>2022-5-31T8:55:8Z</time></trkpt>
<trkpt lat="43.4703236" lon="6.8035192"><ele></ele><time>2022-5-31T8:55:11Z</time></trkpt>
<trkpt lat="43.4703241" lon="6.8035207"><ele></ele><time>2022-5-31T8:55:14Z</time></trkpt>
<trkpt lat="43.4703247" lon="6.8035220"><ele></ele><time>2022-5-31T8:55:17Z</time></trkpt>
<trkpt lat="43.4703250" lon="6.8035230"><ele></ele><time>2022-5-31T8:55:20Z</time></trkpt>
<trkpt lat="43.4703256" lon="6.8035240"><ele></ele><time>2022-5-31T8:55:23Z</time></trkpt>
<trkpt lat="43.4703258" lon="6.8035254"><ele></ele><time>2022-5-31T8:55:26Z</time></trkpt>
<trkpt lat="43.4703255" lon="6.8035260"><ele></ele><time>2022-5-31T8:55:29Z</time></trkpt>
<trkpt lat="43.4703256" lon="6.8035267"><ele></ele><time>2022-5-31T8:55:32Z</time></trkpt>
<trkpt lat="43.4703259" lon="6.8035274"><ele></ele><time>2022-5-31T8:55:35Z</time></trkpt>
<trkpt lat="43.4703259" lon="6.8035278"><ele></ele><time>2022-5-31T8:55:38Z</time></trkpt>
<trkpt lat="43.4703256" lon="6.8035279"><ele></ele><time>2022-5-31T8:55:41Z</time></trkpt>
<trkpt lat="43.4703252" lon="6.8035277"><ele></ele><time>2022-5-31T8:55:44Z</time></trkpt>
<trkpt lat="43.4703254" lon="6.8035283"><ele></ele><time>2022-5-31T8:55:47Z</time></trkpt>
<trkpt lat="43.4703254" lon="6.8035284"><ele></ele><time>2022-5-31T8:55:50Z</time></trkpt>
<trkpt lat="43.4703255" lon="6.8035288"><ele></ele><time>2022-5-31T8:55:53Z</time></trkpt>
<trkpt lat="43.4703256" lon="6.8035292"><ele></ele><time>2022-5-31T8:55:56Z</time></trkpt>
<trkpt lat="43.4703258" lon="6.8035297"><ele></ele><time>2022-5-31T8:55:59Z</time></trkpt>
<trkpt lat="43.4703261" lon="6.8035306"><ele></ele><time>2022-5-31T8:56:2Z</time></trkpt>
<trkpt lat="43.4703263" lon="6.8035315"><ele></ele><time>2022-5-31T8:56:5Z</time></trkpt>
<trkpt lat="43.4703259" lon="6.8035330"><ele></ele><time>2022-5-31T8:56:8Z</time></trkpt>
<trkpt lat="43.4703263" lon="6.8035345"><ele></ele><time>2022-5-31T8:56:11Z</time></trkpt>
<trkpt lat="43.4703271" lon="6.8035361"><ele></ele><time>2022-5-31T8:56:14Z</time></trkpt>
<trkpt lat="43.4703271" lon="6.8035366"><ele></ele><time>2022-5-31T8:56:17Z</time></trkpt>
<trkpt lat="43.4703272" lon="6.8035369"><ele></ele><time>2022-5-31T8:56:20Z</time></trkpt>
<trkpt lat="43.4703273" lon="6.8035372"><ele></ele><time>2022-5-31T8:56:23Z</time></trkpt>
<trkpt lat="43.4703278" lon="6.8035374"><ele></ele><time>2022-5-31T8:56:26Z</time></trkpt>
<trkpt lat="43.4703280" lon="6.8035375"><ele></ele><time>2022-5-31T8:56:29Z</time></trkpt>
<trkpt lat="43.4703282" lon="6.8035389"><ele></ele><time>2022-5-31T8:56:32Z</time></trkpt>
<trkpt lat="43.4703291" lon="6.8035412"><ele></ele><time>2022-5-31T8:56:35Z</time></trkpt>
<trkpt lat="43.4703279" lon="6.8035398"><ele></ele><time>2022-5-31T8:56:38Z</time></trkpt>
<trkpt lat="43.4703286" lon="6.8035408"><ele></ele><time>2022-5-31T8:56:41Z</time></trkpt>
<trkpt lat="43.4703294" lon="6.8035419"><ele></ele><time>2022-5-31T8:56:44Z</time></trkpt>
<trkpt lat="43.4703299" lon="6.8035429"><ele></ele><time>2022-5-31T8:56:47Z</time></trkpt>
<trkpt lat="43.4703303" lon="6.8035440"><ele></ele><time>2022-5-31T8:56:50Z</time></trkpt>
<trkpt lat="43.4703307" lon="6.8035450"><ele></ele><time>2022-5-31T8:56:53Z</time></trkpt>
<trkpt lat="43.4703311" lon="6.8035454"><ele></ele><time>2022-5-31T8:56:56Z</time></trkpt>
<trkpt lat="43.4703315" lon="6.8035465"><ele></ele><time>2022-5-31T8:56:59Z</time></trkpt>
<trkpt lat="43.4703316" lon="6.8035471"><ele></ele><time>2022-5-31T8:57:2Z</time></trkpt>
<trkpt lat="43.4703316" lon="6.8035474"><ele></ele><time>2022-5-31T8:57:5Z</time></trkpt>
<trkpt lat="43.4703319" lon="6.8035487"><ele></ele><time>2022-5-31T8:57:8Z</time></trkpt>
<trkpt lat="43.4703325" lon="6.8035494"><ele></ele><time>2022-5-31T8:57:11Z</time></trkpt>
<trkpt lat="43.4703332" lon="6.8035506"><ele></ele><time>2022-5-31T8:57:14Z</time></trkpt>
<trkpt lat="43.4703337" lon="6.8035512"><ele></ele><time>2022-5-31T8:57:17Z</time></trkpt>
<trkpt lat="43.4703341" lon="6.8035518"><ele></ele><time>2022-5-31T8:57:20Z</time></trkpt>
<trkpt lat="43.4703349" lon="6.8035529"><ele></ele><time>2022-5-31T8:57:23Z</time></trkpt>
<trkpt lat="43.4703352" lon="6.8035536"><ele></ele><time>2022-5-31T8:57:26Z</time></trkpt>
<trkpt lat="43.4703356" lon="6.8035545"><ele></ele><time>2022-5-31T8:57:29Z</time></trkpt>
<trkpt lat="43.4703361" lon="6.8035553"><ele></ele><time>2022-5-31T8:57:32Z</time></trkpt>
<trkpt lat="43.4703367" lon="6.8035562"><ele></ele><time>2022-5-31T8:57:35Z</time></trkpt>
<trkpt lat="43.4703373" lon="6.8035569"><ele></ele><time>2022-5-31T8:57:38Z</time></trkpt>
<trkpt lat="43.4703376" lon="6.8035577"><ele></ele><time>2022-5-31T8:57:41Z</time></trkpt>
<trkpt lat="43.4703381" lon="6.8035583"><ele></ele><time>2022-5-31T8:57:44Z</time></trkpt>
<trkpt lat="43.4703378" lon="6.8035585"><ele></ele><time>2022-5-31T8:57:47Z</time></trkpt>
<trkpt lat="43.4703376" lon="6.8035591"><ele></ele><time>2022-5-31T8:57:50Z</time></trkpt>
<trkpt lat="43.4703375" lon="6.8035593"><ele></ele><time>2022-5-31T8:57:53Z</time></trkpt>
<trkpt lat="43.4703377" lon="6.8035598"><ele></ele><time>2022-5-31T8:57:56Z</time></trkpt>
<trkpt lat="43.4703377" lon="6.8035603"><ele></ele><time>2022-5-31T8:57:59Z</time></trkpt>
<trkpt lat="43.4703375" lon="6.8035605"><ele></ele><time>2022-5-31T8:58:2Z</time></trkpt>
<trkpt lat="43.4703378" lon="6.8035612"><ele></ele><time>2022-5-31T8:58:5Z</time></trkpt>
<trkpt lat="43.4703378" lon="6.8035615"><ele></ele><time>2022-5-31T8:58:8Z</time></trkpt>
<trkpt lat="43.4703375" lon="6.8035614"><ele></ele><time>2022-5-31T8:58:11Z</time></trkpt>
<trkpt lat="43.4703367" lon="6.8035606"><ele></ele><time>2022-5-31T8:58:14Z</time></trkpt>
<trkpt lat="43.4703370" lon="6.8035611"><ele></ele><time>2022-5-31T8:58:17Z</time></trkpt>
<trkpt lat="43.4703374" lon="6.8035616"><ele></ele><time>2022-5-31T8:58:20Z</time></trkpt>
<trkpt lat="43.4703382" lon="6.8035627"><ele></ele><time>2022-5-31T8:58:23Z</time></trkpt>
<trkpt lat="43.4703383" lon="6.8035632"><ele></ele><time>2022-5-31T8:58:26Z</time></trkpt>
<trkpt lat="43.4703384" lon="6.8035633"><ele></ele><time>2022-5-31T8:58:29Z</time></trkpt>
<trkpt lat="43.4703387" lon="6.8035638"><ele></ele><time>2022-5-31T8:58:32Z</time></trkpt>
<trkpt lat="43.4703390" lon="6.8035645"><ele></ele><time>2022-5-31T8:58:35Z</time></trkpt>
<trkpt lat="43.4703391" lon="6.8035656"><ele></ele><time>2022-5-31T8:58:38Z</time></trkpt>
<trkpt lat="43.4703395" lon="6.8035666"><ele></ele><time>2022-5-31T8:58:41Z</time></trkpt>
<trkpt lat="43.4703397" lon="6.8035672"><ele></ele><time>2022-5-31T8:58:44Z</time></trkpt>
<trkpt lat="43.4703404" lon="6.8035685"><ele></ele><time>2022-5-31T8:58:47Z</time></trkpt>
<trkpt lat="43.4703405" lon="6.8035690"><ele></ele><time>2022-5-31T8:58:50Z</time></trkpt>
<trkpt lat="43.4703406" lon="6.8035695"><ele></ele><time>2022-5-31T8:58:53Z</time></trkpt>
<trkpt lat="43.4703407" lon="6.8035698"><ele></ele><time>2022-5-31T8:58:56Z</time></trkpt>
<trkpt lat="43.4703404" lon="6.8035696"><ele></ele><time>2022-5-31T8:58:59Z</time></trkpt>
<trkpt lat="43.4703401" lon="6.8035698"><ele></ele><time>2022-5-31T8:59:2Z</time></trkpt>
<trkpt lat="43.4703400" lon="6.8035699"><ele></ele><time>2022-5-31T8:59:5Z</time></trkpt>
<trkpt lat="43.4703398" lon="6.8035703"><ele></ele><time>2022-5-31T8:59:8Z</time></trkpt>
<trkpt lat="43.4703400" lon="6.8035715"><ele></ele><time>2022-5-31T8:59:11Z</time></trkpt>
<trkpt lat="43.4703401" lon="6.8035717"><ele></ele><time>2022-5-31T8:59:14Z</time></trkpt>
<trkpt lat="43.4703401" lon="6.8035728"><ele></ele><time>2022-5-31T8:59:17Z</time></trkpt>
<trkpt lat="43.4703407" lon="6.8035748"><ele></ele><time>2022-5-31T8:59:20Z</time></trkpt>
<trkpt lat="43.4703415" lon="6.8035763"><ele></ele><time>2022-5-31T8:59:23Z</time></trkpt>
<trkpt lat="43.4703414" lon="6.8035776"><ele></ele><time>2022-5-31T8:59:26Z</time></trkpt>
<trkpt lat="43.4703423" lon="6.8035791"><ele></ele><time>2022-5-31T8:59:29Z</time></trkpt>
<trkpt lat="43.4703421" lon="6.8035796"><ele></ele><time>2022-5-31T8:59:32Z</time></trkpt>
<trkpt lat="43.4703428" lon="6.8035800"><ele></ele><time>2022-5-31T8:59:35Z</time></trkpt>
<trkpt lat="43.4703434" lon="6.8035840"><ele></ele><time>2022-5-31T8:59:38Z</time></trkpt>
<trkpt lat="43.4703443" lon="6.8035862"><ele></ele><time>2022-5-31T8:59:41Z</time></trkpt>
<trkpt lat="43.4703451" lon="6.8035874"><ele></ele><time>2022-5-31T8:59:44Z</time></trkpt>
<trkpt lat="43.4703449" lon="6.8035905"><ele></ele><time>2022-5-31T8:59:47Z</time></trkpt>
<trkpt lat="43.4703448" lon="6.8035926"><ele></ele><time>2022-5-31T8:59:50Z</time></trkpt>
<trkpt lat="43.4703452" lon="6.8035941"><ele></ele><time>2022-5-31T8:59:53Z</time></trkpt>
<trkpt lat="43.4703457" lon="6.8035956"><ele></ele><time>2022-5-31T8:59:56Z</time></trkpt>
<trkpt lat="43.4703463" lon="6.8035971"><ele></ele><time>2022-5-31T8:59:59Z</time></trkpt>
<trkpt lat="43.4703469" lon="6.8035992"><ele></ele><time>2022-5-31T9:0:2Z</time></trkpt>
<trkpt lat="43.4703471" lon="6.8036005"><ele></ele><time>2022-5-31T9:0:5Z</time></trkpt>
<trkpt lat="43.4703475" lon="6.8036038"><ele></ele><time>2022-5-31T9:0:8Z</time></trkpt>
<trkpt lat="43.4703473" lon="6.8036053"><ele></ele><time>2022-5-31T9:0:11Z</time></trkpt>
<trkpt lat="43.4703468" lon="6.8036059"><ele></ele><time>2022-5-31T9:0:14Z</time></trkpt>
<trkpt lat="43.4703468" lon="6.8036066"><ele></ele><time>2022-5-31T9:0:17Z</time></trkpt>
<trkpt lat="43.4703469" lon="6.8036071"><ele></ele><time>2022-5-31T9:0:20Z</time></trkpt>
<trkpt lat="43.4703470" lon="6.8036075"><ele></ele><time>2022-5-31T9:0:23Z</time></trkpt>
<trkpt lat="43.4703469" lon="6.8036080"><ele></ele><time>2022-5-31T9:0:26Z</time></trkpt>
<trkpt lat="43.4703469" lon="6.8036085"><ele></ele><time>2022-5-31T9:0:29Z</time></trkpt>
<trkpt lat="43.4703470" lon="6.8036090"><ele></ele><time>2022-5-31T9:0:32Z</time></trkpt>
<trkpt lat="43.4703469" lon="6.8036095"><ele></ele><time>2022-5-31T9:0:35Z</time></trkpt>
<trkpt lat="43.4703469" lon="6.8036113"><ele></ele><time>2022-5-31T9:0:38Z</time></trkpt>
<trkpt lat="43.4703469" lon="6.8036127"><ele></ele><time>2022-5-31T9:0:41Z</time></trkpt>
<trkpt lat="43.4703466" lon="6.8036139"><ele></ele><time>2022-5-31T9:0:44Z</time></trkpt>
<trkpt lat="43.4703467" lon="6.8036154"><ele></ele><time>2022-5-31T9:0:47Z</time></trkpt>
<trkpt lat="43.4703466" lon="6.8036164"><ele></ele><time>2022-5-31T9:0:50Z</time></trkpt>
<trkpt lat="43.4703461" lon="6.8036177"><ele></ele><time>2022-5-31T9:0:53Z</time></trkpt>
<trkpt lat="43.4703457" lon="6.8036198"><ele></ele><time>2022-5-31T9:0:56Z</time></trkpt>
<trkpt lat="43.4703453" lon="6.8036220"><ele></ele><time>2022-5-31T9:0:59Z</time></trkpt>
<trkpt lat="43.4703446" lon="6.8036243"><ele></ele><time>2022-5-31T9:1:2Z</time></trkpt>
<trkpt lat="43.4703445" lon="6.8036247"><ele></ele><time>2022-5-31T9:1:5Z</time></trkpt>
<trkpt lat="43.4703442" lon="6.8036256"><ele></ele><time>2022-5-31T9:1:8Z</time></trkpt>
<trkpt lat="43.4703438" lon="6.8036261"><ele></ele><time>2022-5-31T9:1:11Z</time></trkpt>
<trkpt lat="43.4703436" lon="6.8036264"><ele></ele><time>2022-5-31T9:1:14Z</time></trkpt>
<trkpt lat="43.4703437" lon="6.8036271"><ele></ele><time>2022-5-31T9:1:17Z</time></trkpt>
<trkpt lat="43.4703425" lon="6.8036283"><ele></ele><time>2022-5-31T9:1:20Z</time></trkpt>
<trkpt lat="43.4703420" lon="6.8036287"><ele></ele><time>2022-5-31T9:1:23Z</time></trkpt>
<trkpt lat="43.4703426" lon="6.8036295"><ele></ele><time>2022-5-31T9:1:26Z</time></trkpt>
<trkpt lat="43.4703423" lon="6.8036303"><ele></ele><time>2022-5-31T9:1:29Z</time></trkpt>
<trkpt lat="43.4703423" lon="6.8036317"><ele></ele><time>2022-5-31T9:1:32Z</time></trkpt>
<trkpt lat="43.4703430" lon="6.8036322"><ele></ele><time>2022-5-31T9:1:35Z</time></trkpt>
<trkpt lat="43.4703431" lon="6.8036320"><ele></ele><time>2022-5-31T9:1:38Z</time></trkpt>
<trkpt lat="43.4703426" lon="6.8036323"><ele></ele><time>2022-5-31T9:1:41Z</time></trkpt>
<trkpt lat="43.4703430" lon="6.8036336"><ele></ele><time>2022-5-31T9:1:44Z</time></trkpt>
<trkpt lat="43.4703430" lon="6.8036339"><ele></ele><time>2022-5-31T9:1:47Z</time></trkpt>
<trkpt lat="43.4703433" lon="6.8036353"><ele></ele><time>2022-5-31T9:1:50Z</time></trkpt>
<trkpt lat="43.4703441" lon="6.8036365"><ele></ele><time>2022-5-31T9:1:53Z</time></trkpt>
<trkpt lat="43.4703441" lon="6.8036368"><ele></ele><time>2022-5-31T9:1:56Z</time></trkpt>
<trkpt lat="43.4703444" lon="6.8036375"><ele></ele><time>2022-5-31T9:1:59Z</time></trkpt>
<trkpt lat="43.4703452" lon="6.8036385"><ele></ele><time>2022-5-31T9:2:2Z</time></trkpt>
<trkpt lat="43.4703454" lon="6.8036388"><ele></ele><time>2022-5-31T9:2:5Z</time></trkpt>
<trkpt lat="43.4703453" lon="6.8036393"><ele></ele><time>2022-5-31T9:2:8Z</time></trkpt>
<trkpt lat="43.4703456" lon="6.8036406"><ele></ele><time>2022-5-31T9:2:11Z</time></trkpt>
<trkpt lat="43.4703456" lon="6.8036419"><ele></ele><time>2022-5-31T9:2:14Z</time></trkpt>
<trkpt lat="43.4703455" lon="6.8036420"><ele></ele><time>2022-5-31T9:2:17Z</time></trkpt>
<trkpt lat="43.4703462" lon="6.8036439"><ele></ele><time>2022-5-31T9:2:20Z</time></trkpt>
<trkpt lat="43.4703461" lon="6.8036441"><ele></ele><time>2022-5-31T9:2:23Z</time></trkpt>
<trkpt lat="43.4703457" lon="6.8036449"><ele></ele><time>2022-5-31T9:2:26Z</time></trkpt>
<trkpt lat="43.4703462" lon="6.8036462"><ele></ele><time>2022-5-31T9:2:29Z</time></trkpt>
<trkpt lat="43.4703460" lon="6.8036465"><ele></ele><time>2022-5-31T9:2:32Z</time></trkpt>
<trkpt lat="43.4703460" lon="6.8036467"><ele></ele><time>2022-5-31T9:2:35Z</time></trkpt>
<trkpt lat="43.4703458" lon="6.8036475"><ele></ele><time>2022-5-31T9:2:38Z</time></trkpt>
<trkpt lat="43.4703459" lon="6.8036486"><ele></ele><time>2022-5-31T9:2:41Z</time></trkpt>
<trkpt lat="43.4703461" lon="6.8036508"><ele></ele><time>2022-5-31T9:2:44Z</time></trkpt>
<trkpt lat="43.4703456" lon="6.8036520"><ele></ele><time>2022-5-31T9:2:47Z</time></trkpt>
<trkpt lat="43.4703453" lon="6.8036523"><ele></ele><time>2022-5-31T9:2:50Z</time></trkpt>
<trkpt lat="43.4703454" lon="6.8036537"><ele></ele><time>2022-5-31T9:2:53Z</time></trkpt>
<trkpt lat="43.4703458" lon="6.8036545"><ele></ele><time>2022-5-31T9:2:56Z</time></trkpt>
<trkpt lat="43.4703460" lon="6.8036554"><ele></ele><time>2022-5-31T9:2:59Z</time></trkpt>
<trkpt lat="43.4703456" lon="6.8036555"><ele></ele><time>2022-5-31T9:3:2Z</time></trkpt>
<trkpt lat="43.4703437" lon="6.8036549"><ele></ele><time>2022-5-31T9:3:5Z</time></trkpt>
<trkpt lat="43.4703438" lon="6.8036565"><ele></ele><time>2022-5-31T9:3:8Z</time></trkpt>
<trkpt lat="43.4703435" lon="6.8036609"><ele></ele><time>2022-5-31T9:3:11Z</time></trkpt>
<trkpt lat="43.4703446" lon="6.8036634"><ele></ele><time>2022-5-31T9:3:14Z</time></trkpt>
<trkpt lat="43.4703447" lon="6.8036643"><ele></ele><time>2022-5-31T9:3:17Z</time></trkpt>
<trkpt lat="43.4703442" lon="6.8036686"><ele></ele><time>2022-5-31T9:3:20Z</time></trkpt>
<trkpt lat="43.4703452" lon="6.8036714"><ele></ele><time>2022-5-31T9:3:23Z</time></trkpt>
<trkpt lat="43.4703459" lon="6.8036780"><ele></ele><time>2022-5-31T9:3:26Z</time></trkpt>
<trkpt lat="43.4703471" lon="6.8036806"><ele></ele><time>2022-5-31T9:3:29Z</time></trkpt>
<trkpt lat="43.4703470" lon="6.8036840"><ele></ele><time>2022-5-31T9:3:32Z</time></trkpt>
<trkpt lat="43.4703477" lon="6.8036855"><ele></ele><time>2022-5-31T9:3:35Z</time></trkpt>
<trkpt lat="43.4703478" lon="6.8036859"><ele></ele><time>2022-5-31T9:3:38Z</time></trkpt>
<trkpt lat="43.4703478" lon="6.8036871"><ele></ele><time>2022-5-31T9:3:41Z</time></trkpt>
<trkpt lat="43.4703477" lon="6.8036870"><ele></ele><time>2022-5-31T9:3:44Z</time></trkpt>
<trkpt lat="43.4703480" lon="6.8036876"><ele></ele><time>2022-5-31T9:3:47Z</time></trkpt>
<trkpt lat="43.4703478" lon="6.8036876"><ele></ele><time>2022-5-31T9:3:50Z</time></trkpt>
<trkpt lat="43.4703493" lon="6.8036903"><ele></ele><time>2022-5-31T9:3:53Z</time></trkpt>
<trkpt lat="43.4703495" lon="6.8036913"><ele></ele><time>2022-5-31T9:3:56Z</time></trkpt>
<trkpt lat="43.4703502" lon="6.8036925"><ele></ele><time>2022-5-31T9:3:59Z</time></trkpt>
<trkpt lat="43.4703506" lon="6.8036932"><ele></ele><time>2022-5-31T9:4:2Z</time></trkpt>
<trkpt lat="43.4703508" lon="6.8036938"><ele></ele><time>2022-5-31T9:4:5Z</time></trkpt>
<trkpt lat="43.4703509" lon="6.8036945"><ele></ele><time>2022-5-31T9:4:8Z</time></trkpt>
<trkpt lat="43.4703512" lon="6.8036958"><ele></ele><time>2022-5-31T9:4:11Z</time></trkpt>
<trkpt lat="43.4703513" lon="6.8036973"><ele></ele><time>2022-5-31T9:4:14Z</time></trkpt>
<trkpt lat="43.4703514" lon="6.8036988"><ele></ele><time>2022-5-31T9:4:17Z</time></trkpt>
<trkpt lat="43.4703520" lon="6.8037007"><ele></ele><time>2022-5-31T9:4:20Z</time></trkpt>
<trkpt lat="43.4703520" lon="6.8037033"><ele></ele><time>2022-5-31T9:4:23Z</time></trkpt>
<trkpt lat="43.4703522" lon="6.8037065"><ele></ele><time>2022-5-31T9:4:26Z</time></trkpt>
<trkpt lat="43.4703527" lon="6.8037075"><ele></ele><time>2022-5-31T9:4:29Z</time></trkpt>
<trkpt lat="43.4703531" lon="6.8037105"><ele></ele><time>2022-5-31T9:4:32Z</time></trkpt>
<trkpt lat="43.4703539" lon="6.8037122"><ele></ele><time>2022-5-31T9:4:35Z</time></trkpt>
<trkpt lat="43.4703541" lon="6.8037126"><ele></ele><time>2022-5-31T9:4:38Z</time></trkpt>
<trkpt lat="43.4703548" lon="6.8037135"><ele></ele><time>2022-5-31T9:4:41Z</time></trkpt>
<trkpt lat="43.4703550" lon="6.8037138"><ele></ele><time>2022-5-31T9:4:44Z</time></trkpt>
<trkpt lat="43.4703556" lon="6.8037146"><ele></ele><time>2022-5-31T9:4:47Z</time></trkpt>
<trkpt lat="43.4703555" lon="6.8037154"><ele></ele><time>2022-5-31T9:4:50Z</time></trkpt>
<trkpt lat="43.4703552" lon="6.8037164"><ele></ele><time>2022-5-31T9:4:53Z</time></trkpt>
<trkpt lat="43.4703549" lon="6.8037181"><ele></ele><time>2022-5-31T9:4:56Z</time></trkpt>
<trkpt lat="43.4703568" lon="6.8037204"><ele></ele><time>2022-5-31T9:4:59Z</time></trkpt>
<trkpt lat="43.4703576" lon="6.8037217"><ele></ele><time>2022-5-31T9:5:2Z</time></trkpt>
<trkpt lat="43.4703582" lon="6.8037226"><ele></ele><time>2022-5-31T9:5:5Z</time></trkpt>
<trkpt lat="43.4703579" lon="6.8037239"><ele></ele><time>2022-5-31T9:5:8Z</time></trkpt>
<trkpt lat="43.4703577" lon="6.8037236"><ele></ele><time>2022-5-31T9:5:11Z</time></trkpt>
<trkpt lat="43.4703577" lon="6.8037248"><ele></ele><time>2022-5-31T9:5:14Z</time></trkpt>
<trkpt lat="43.4703575" lon="6.8037257"><ele></ele><time>2022-5-31T9:5:17Z</time></trkpt>
<trkpt lat="43.4703577" lon="6.8037257"><ele></ele><time>2022-5-31T9:5:20Z</time></trkpt>
<trkpt lat="43.4703581" lon="6.8037270"><ele></ele><time>2022-5-31T9:5:23Z</time></trkpt>
<trkpt lat="43.4703580" lon="6.8037281"><ele></ele><time>2022-5-31T9:5:26Z</time></trkpt>
<trkpt lat="43.4703585" lon="6.8037302"><ele></ele><time>2022-5-31T9:5:29Z</time></trkpt>
<trkpt lat="43.4703587" lon="6.8037326"><ele></ele><time>2022-5-31T9:5:32Z</time></trkpt>
<trkpt lat="43.4703587" lon="6.8037339"><ele></ele><time>2022-5-31T9:5:35Z</time></trkpt>
<trkpt lat="43.4703580" lon="6.8037364"><ele></ele><time>2022-5-31T9:5:38Z</time></trkpt>
<trkpt lat="43.4703576" lon="6.8037374"><ele></ele><time>2022-5-31T9:5:41Z</time></trkpt>
<trkpt lat="43.4703577" lon="6.8037374"><ele></ele><time>2022-5-31T9:5:44Z</time></trkpt>
<trkpt lat="43.4703575" lon="6.8037374"><ele></ele><time>2022-5-31T9:5:47Z</time></trkpt>
<trkpt lat="43.4703581" lon="6.8037380"><ele></ele><time>2022-5-31T9:5:50Z</time></trkpt>
<trkpt lat="43.4703586" lon="6.8037383"><ele></ele><time>2022-5-31T9:5:53Z</time></trkpt>
<trkpt lat="43.4703591" lon="6.8037391"><ele></ele><time>2022-5-31T9:5:56Z</time></trkpt>
<trkpt lat="43.4703593" lon="6.8037397"><ele></ele><time>2022-5-31T9:5:59Z</time></trkpt>
<trkpt lat="43.4703589" lon="6.8037398"><ele></ele><time>2022-5-31T9:6:2Z</time></trkpt>
<trkpt lat="43.4703584" lon="6.8037414"><ele></ele><time>2022-5-31T9:6:5Z</time></trkpt>
<trkpt lat="43.4703579" lon="6.8037426"><ele></ele><time>2022-5-31T9:6:8Z</time></trkpt>
<trkpt lat="43.4703580" lon="6.8037435"><ele></ele><time>2022-5-31T9:6:11Z</time></trkpt>
<trkpt lat="43.4703581" lon="6.8037434"><ele></ele><time>2022-5-31T9:6:14Z</time></trkpt>
<trkpt lat="43.4703583" lon="6.8037441"><ele></ele><time>2022-5-31T9:6:17Z</time></trkpt>
<trkpt lat="43.4703581" lon="6.8037450"><ele></ele><time>2022-5-31T9:6:20Z</time></trkpt>
<trkpt lat="43.4703586" lon="6.8037456"><ele></ele><time>2022-5-31T9:6:23Z</time></trkpt>
<trkpt lat="43.4703569" lon="6.8037479"><ele></ele><time>2022-5-31T9:6:26Z</time></trkpt>
<trkpt lat="43.4703569" lon="6.8037492"><ele></ele><time>2022-5-31T9:6:29Z</time></trkpt>
<trkpt lat="43.4703564" lon="6.8037495"><ele></ele><time>2022-5-31T9:6:32Z</time></trkpt>
<trkpt lat="43.4703572" lon="6.8037514"><ele></ele><time>2022-5-31T9:6:35Z</time></trkpt>
<trkpt lat="43.4703583" lon="6.8037539"><ele></ele><time>2022-5-31T9:6:38Z</time></trkpt>
<trkpt lat="43.4703584" lon="6.8037536"><ele></ele><time>2022-5-31T9:6:41Z</time></trkpt>
<trkpt lat="43.4703593" lon="6.8037544"><ele></ele><time>2022-5-31T9:6:44Z</time></trkpt>
<trkpt lat="43.4703602" lon="6.8037559"><ele></ele><time>2022-5-31T9:6:47Z</time></trkpt>
<trkpt lat="43.4703602" lon="6.8037559"><ele></ele><time>2022-5-31T9:6:50Z</time></trkpt>
<trkpt lat="43.4703603" lon="6.8037559"><ele></ele><time>2022-5-31T9:6:53Z</time></trkpt>
<trkpt lat="43.4703604" lon="6.8037574"><ele></ele><time>2022-5-31T9:6:56Z</time></trkpt>
<trkpt lat="43.4703607" lon="6.8037586"><ele></ele><time>2022-5-31T9:6:59Z</time></trkpt>
<trkpt lat="43.4703608" lon="6.8037586"><ele></ele><time>2022-5-31T9:7:2Z</time></trkpt>
<trkpt lat="43.4703607" lon="6.8037607"><ele></ele><time>2022-5-31T9:7:5Z</time></trkpt>
<trkpt lat="43.4703604" lon="6.8037609"><ele></ele><time>2022-5-31T9:7:8Z</time></trkpt>
<trkpt lat="43.4703602" lon="6.8037624"><ele></ele><time>2022-5-31T9:7:11Z</time></trkpt>
<trkpt lat="43.4703602" lon="6.8037626"><ele></ele><time>2022-5-31T9:7:14Z</time></trkpt>
<trkpt lat="43.4703601" lon="6.8037626"><ele></ele><time>2022-5-31T9:7:17Z</time></trkpt>
<trkpt lat="43.4703602" lon="6.8037632"><ele></ele><time>2022-5-31T9:7:20Z</time></trkpt>
<trkpt lat="43.4703604" lon="6.8037634"><ele></ele><time>2022-5-31T9:7:23Z</time></trkpt>
<trkpt lat="43.4703602" lon="6.8037636"><ele></ele><time>2022-5-31T9:7:26Z</time></trkpt>
<trkpt lat="43.4703604" lon="6.8037639"><ele></ele><time>2022-5-31T9:7:29Z</time></trkpt>
<trkpt lat="43.4703605" lon="6.8037641"><ele></ele><time>2022-5-31T9:7:32Z</time></trkpt>
<trkpt lat="43.4703607" lon="6.8037644"><ele></ele><time>2022-5-31T9:7:35Z</time></trkpt>
<trkpt lat="43.4703610" lon="6.8037649"><ele></ele><time>2022-5-31T9:7:38Z</time></trkpt>
<trkpt lat="43.4703488" lon="6.8037740"><ele></ele><time>2022-5-31T9:7:41Z</time></trkpt>
<trkpt lat="43.4703502" lon="6.8037816"><ele></ele><time>2022-5-31T9:7:44Z</time></trkpt>
<trkpt lat="43.4703516" lon="6.8037907"><ele></ele><time>2022-5-31T9:7:47Z</time></trkpt>
<trkpt lat="43.4703512" lon="6.8037911"><ele></ele><time>2022-5-31T9:7:50Z</time></trkpt>
<trkpt lat="43.4703517" lon="6.8037916"><ele></ele><time>2022-5-31T9:7:53Z</time></trkpt>
<trkpt lat="43.4703515" lon="6.8037925"><ele></ele><time>2022-5-31T9:7:56Z</time></trkpt>
<trkpt lat="43.4703512" lon="6.8037936"><ele></ele><time>2022-5-31T9:7:59Z</time></trkpt>
<trkpt lat="43.4703508" lon="6.8037944"><ele></ele><time>2022-5-31T9:8:2Z</time></trkpt>
<trkpt lat="43.4703505" lon="6.8037944"><ele></ele><time>2022-5-31T9:8:5Z</time></trkpt>
<trkpt lat="43.4703506" lon="6.8037937"><ele></ele><time>2022-5-31T9:8:8Z</time></trkpt>
<trkpt lat="43.4703508" lon="6.8037937"><ele></ele><time>2022-5-31T9:8:11Z</time></trkpt>
<trkpt lat="43.4703512" lon="6.8037936"><ele></ele><time>2022-5-31T9:8:14Z</time></trkpt>
<trkpt lat="43.4703520" lon="6.8037929"><ele></ele><time>2022-5-31T9:8:17Z</time></trkpt>
<trkpt lat="43.4703521" lon="6.8037922"><ele></ele><time>2022-5-31T9:8:20Z</time></trkpt>
<trkpt lat="43.4703522" lon="6.8037923"><ele></ele><time>2022-5-31T9:8:23Z</time></trkpt>
<trkpt lat="43.4703524" lon="6.8037928"><ele></ele><time>2022-5-31T9:8:26Z</time></trkpt>
<trkpt lat="43.4703523" lon="6.8037935"><ele></ele><time>2022-5-31T9:8:29Z</time></trkpt>
<trkpt lat="43.4703524" lon="6.8037941"><ele></ele><time>2022-5-31T9:8:32Z</time></trkpt>
<trkpt lat="43.4703522" lon="6.8037943"><ele></ele><time>2022-5-31T9:8:35Z</time></trkpt>
<trkpt lat="43.4703519" lon="6.8037943"><ele></ele><time>2022-5-31T9:8:38Z</time></trkpt>
<trkpt lat="43.4703515" lon="6.8037946"><ele></ele><time>2022-5-31T9:8:41Z</time></trkpt>
<trkpt lat="43.4703513" lon="6.8037952"><ele></ele><time>2022-5-31T9:8:44Z</time></trkpt>
<trkpt lat="43.4703512" lon="6.8037954"><ele></ele><time>2022-5-31T9:8:47Z</time></trkpt>
<trkpt lat="43.4703515" lon="6.8037954"><ele></ele><time>2022-5-31T9:8:50Z</time></trkpt>
<trkpt lat="43.4703520" lon="6.8037954"><ele></ele><time>2022-5-31T9:8:53Z</time></trkpt>
<trkpt lat="43.4703524" lon="6.8037954"><ele></ele><time>2022-5-31T9:8:56Z</time></trkpt>
<trkpt lat="43.4703530" lon="6.8037957"><ele></ele><time>2022-5-31T9:8:59Z</time></trkpt>
<trkpt lat="43.4703531" lon="6.8037963"><ele></ele><time>2022-5-31T9:9:2Z</time></trkpt>
<trkpt lat="43.4703532" lon="6.8037965"><ele></ele><time>2022-5-31T9:9:5Z</time></trkpt>
<trkpt lat="43.4703531" lon="6.8037976"><ele></ele><time>2022-5-31T9:9:8Z</time></trkpt>
<trkpt lat="43.4703526" lon="6.8037983"><ele></ele><time>2022-5-31T9:9:11Z</time></trkpt>
<trkpt lat="43.4703526" lon="6.8037987"><ele></ele><time>2022-5-31T9:9:14Z</time></trkpt>
<trkpt lat="43.4703526" lon="6.8037988"><ele></ele><time>2022-5-31T9:9:17Z</time></trkpt>
<trkpt lat="43.4703525" lon="6.8037987"><ele></ele><time>2022-5-31T9:9:20Z</time></trkpt>
<trkpt lat="43.4703526" lon="6.8037999"><ele></ele><time>2022-5-31T9:9:23Z</time></trkpt>
<trkpt lat="43.4703526" lon="6.8037998"><ele></ele><time>2022-5-31T9:9:26Z</time></trkpt>
<trkpt lat="43.4703526" lon="6.8037999"><ele></ele><time>2022-5-31T9:9:29Z</time></trkpt>
<trkpt lat="43.4703529" lon="6.8038000"><ele></ele><time>2022-5-31T9:9:32Z</time></trkpt>
<trkpt lat="43.4703529" lon="6.8038004"><ele></ele><time>2022-5-31T9:9:35Z</time></trkpt>
<trkpt lat="43.4703529" lon="6.8038008"><ele></ele><time>2022-5-31T9:9:38Z</time></trkpt>
<trkpt lat="43.4703530" lon="6.8038010"><ele></ele><time>2022-5-31T9:9:41Z</time></trkpt>
<trkpt lat="43.4703526" lon="6.8038018"><ele></ele><time>2022-5-31T9:9:44Z</time></trkpt>
<trkpt lat="43.4703532" lon="6.8038027"><ele></ele><time>2022-5-31T9:9:47Z</time></trkpt>
<trkpt lat="43.4703536" lon="6.8038032"><ele></ele><time>2022-5-31T9:9:50Z</time></trkpt>
<trkpt lat="43.4703541" lon="6.8038037"><ele></ele><time>2022-5-31T9:9:53Z</time></trkpt>
<trkpt lat="43.4703542" lon="6.8038047"><ele></ele><time>2022-5-31T9:9:56Z</time></trkpt>
<trkpt lat="43.4703546" lon="6.8038052"><ele></ele><time>2022-5-31T9:9:59Z</time></trkpt>
<trkpt lat="43.4703551" lon="6.8038059"><ele></ele><time>2022-5-31T9:10:2Z</time></trkpt>
<trkpt lat="43.4703555" lon="6.8038068"><ele></ele><time>2022-5-31T9:10:5Z</time></trkpt>
<trkpt lat="43.4703555" lon="6.8038082"><ele></ele><time>2022-5-31T9:10:8Z</time></trkpt>
<trkpt lat="43.4703549" lon="6.8038094"><ele></ele><time>2022-5-31T9:10:11Z</time></trkpt>
<trkpt lat="43.4703552" lon="6.8038098"><ele></ele><time>2022-5-31T9:10:14Z</time></trkpt>
<trkpt lat="43.4703556" lon="6.8038103"><ele></ele><time>2022-5-31T9:10:17Z</time></trkpt>
<trkpt lat="43.4703562" lon="6.8038113"><ele></ele><time>2022-5-31T9:10:20Z</time></trkpt>
<trkpt lat="43.4703568" lon="6.8038120"><ele></ele><time>2022-5-31T9:10:23Z</time></trkpt>
<trkpt lat="43.4703574" lon="6.8038132"><ele></ele><time>2022-5-31T9:10:26Z</time></trkpt>
<trkpt lat="43.4703564" lon="6.8038133"><ele></ele><time>2022-5-31T9:10:29Z</time></trkpt>
<trkpt lat="43.4703547" lon="6.8038128"><ele></ele><time>2022-5-31T9:10:32Z</time></trkpt>
<trkpt lat="43.4703548" lon="6.8038130"><ele></ele><time>2022-5-31T9:10:35Z</time></trkpt>
<trkpt lat="43.4703546" lon="6.8038126"><ele></ele><time>2022-5-31T9:10:38Z</time></trkpt>
<trkpt lat="43.4703542" lon="6.8038124"><ele></ele><time>2022-5-31T9:10:41Z</time></trkpt>
<trkpt lat="43.4703540" lon="6.8038126"><ele></ele><time>2022-5-31T9:10:44Z</time></trkpt>
<trkpt lat="43.4703546" lon="6.8038138"><ele></ele><time>2022-5-31T9:10:47Z</time></trkpt>
<trkpt lat="43.4703546" lon="6.8038136"><ele></ele><time>2022-5-31T9:10:50Z</time></trkpt>
<trkpt lat="43.4703547" lon="6.8038134"><ele></ele><time>2022-5-31T9:10:53Z</time></trkpt>
<trkpt lat="43.4703535" lon="6.8038131"><ele></ele><time>2022-5-31T9:10:56Z</time></trkpt>
<trkpt lat="43.4703533" lon="6.8038133"><ele></ele><time>2022-5-31T9:10:59Z</time></trkpt>
<trkpt lat="43.4703532" lon="6.8038136"><ele></ele><time>2022-5-31T9:11:2Z</time></trkpt>
<trkpt lat="43.4703531" lon="6.8038136"><ele></ele><time>2022-5-31T9:11:5Z</time></trkpt>
<trkpt lat="43.4703530" lon="6.8038137"><ele></ele><time>2022-5-31T9:11:8Z</time></trkpt>
<trkpt lat="43.4703536" lon="6.8038140"><ele></ele><time>2022-5-31T9:11:11Z</time></trkpt>
<trkpt lat="43.4703535" lon="6.8038144"><ele></ele><time>2022-5-31T9:11:14Z</time></trkpt>
<trkpt lat="43.4703531" lon="6.8038152"><ele></ele><time>2022-5-31T9:11:17Z</time></trkpt>
<trkpt lat="43.4703535" lon="6.8038156"><ele></ele><time>2022-5-31T9:11:20Z</time></trkpt>
<trkpt lat="43.4703535" lon="6.8038155"><ele></ele><time>2022-5-31T9:11:23Z</time></trkpt>
<trkpt lat="43.4703530" lon="6.8038149"><ele></ele><time>2022-5-31T9:11:26Z</time></trkpt>
<trkpt lat="43.4703529" lon="6.8038148"><ele></ele><time>2022-5-31T9:11:29Z</time></trkpt>
<trkpt lat="43.4703526" lon="6.8038145"><ele></ele><time>2022-5-31T9:11:32Z</time></trkpt>
<trkpt lat="43.4703522" lon="6.8038140"><ele></ele><time>2022-5-31T9:11:35Z</time></trkpt>
<trkpt lat="43.4703519" lon="6.8038137"><ele></ele><time>2022-5-31T9:11:38Z</time></trkpt>
<trkpt lat="43.4703527" lon="6.8038147"><ele></ele><time>2022-5-31T9:11:41Z</time></trkpt>
<trkpt lat="43.4703538" lon="6.8038159"><ele></ele><time>2022-5-31T9:11:44Z</time></trkpt>
<trkpt lat="43.4703540" lon="6.8038165"><ele></ele><time>2022-5-31T9:11:47Z</time></trkpt>
<trkpt lat="43.4703543" lon="6.8038167"><ele></ele><time>2022-5-31T9:11:50Z</time></trkpt>
<trkpt lat="43.4703542" lon="6.8038173"><ele></ele><time>2022-5-31T9:11:53Z</time></trkpt>
<trkpt lat="43.4703540" lon="6.8038174"><ele></ele><time>2022-5-31T9:11:56Z</time></trkpt>
<trkpt lat="43.4703538" lon="6.8038172"><ele></ele><time>2022-5-31T9:11:59Z</time></trkpt>
<trkpt lat="43.4703529" lon="6.8038170"><ele></ele><time>2022-5-31T9:12:2Z</time></trkpt>
<trkpt lat="43.4703527" lon="6.8038170"><ele></ele><time>2022-5-31T9:12:5Z</time></trkpt>
<trkpt lat="43.4703517" lon="6.8038163"><ele></ele><time>2022-5-31T9:12:8Z</time></trkpt>
<trkpt lat="43.4703513" lon="6.8038159"><ele></ele><time>2022-5-31T9:12:11Z</time></trkpt>
<trkpt lat="43.4703509" lon="6.8038154"><ele></ele><time>2022-5-31T9:12:14Z</time></trkpt>
<trkpt lat="43.4703513" lon="6.8038163"><ele></ele><time>2022-5-31T9:12:17Z</time></trkpt>
<trkpt lat="43.4703496" lon="6.8038165"><ele></ele><time>2022-5-31T9:12:20Z</time></trkpt>
<trkpt lat="43.4703493" lon="6.8038166"><ele></ele><time>2022-5-31T9:12:23Z</time></trkpt>
<trkpt lat="43.4703491" lon="6.8038168"><ele></ele><time>2022-5-31T9:12:26Z</time></trkpt>
<trkpt lat="43.4703486" lon="6.8038169"><ele></ele><time>2022-5-31T9:12:29Z</time></trkpt>
<trkpt lat="43.4703483" lon="6.8038172"><ele></ele><time>2022-5-31T9:12:32Z</time></trkpt>
<trkpt lat="43.4703482" lon="6.8038172"><ele></ele><time>2022-5-31T9:12:35Z</time></trkpt>
<trkpt lat="43.4703479" lon="6.8038171"><ele></ele><time>2022-5-31T9:12:38Z</time></trkpt>
<trkpt lat="43.4703475" lon="6.8038171"><ele></ele><time>2022-5-31T9:12:41Z</time></trkpt>
<trkpt lat="43.4703474" lon="6.8038172"><ele></ele><time>2022-5-31T9:12:44Z</time></trkpt>
<trkpt lat="43.4703471" lon="6.8038175"><ele></ele><time>2022-5-31T9:12:47Z</time></trkpt>
<trkpt lat="43.4703469" lon="6.8038176"><ele></ele><time>2022-5-31T9:12:50Z</time></trkpt>
<trkpt lat="43.4703470" lon="6.8038178"><ele></ele><time>2022-5-31T9:12:53Z</time></trkpt>
<trkpt lat="43.4703466" lon="6.8038186"><ele></ele><time>2022-5-31T9:12:56Z</time></trkpt>
<trkpt lat="43.4703465" lon="6.8038187"><ele></ele><time>2022-5-31T9:12:59Z</time></trkpt>
<trkpt lat="43.4703440" lon="6.8038224"><ele></ele><time>2022-5-31T9:13:2Z</time></trkpt>
<trkpt lat="43.4703432" lon="6.8038284"><ele></ele><time>2022-5-31T9:13:5Z</time></trkpt>
<trkpt lat="43.4703413" lon="6.8038317"><ele></ele><time>2022-5-31T9:13:8Z</time></trkpt>
<trkpt lat="43.4703413" lon="6.8038336"><ele></ele><time>2022-5-31T9:13:11Z</time></trkpt>
<trkpt lat="43.4703407" lon="6.8038361"><ele></ele><time>2022-5-31T9:13:14Z</time></trkpt>
<trkpt lat="43.4703406" lon="6.8038362"><ele></ele><time>2022-5-31T9:13:17Z</time></trkpt>
<trkpt lat="43.4703404" lon="6.8038365"><ele></ele><time>2022-5-31T9:13:20Z</time></trkpt>
<trkpt lat="43.4703403" lon="6.8038367"><ele></ele><time>2022-5-31T9:13:23Z</time></trkpt>
<trkpt lat="43.4703401" lon="6.8038366"><ele></ele><time>2022-5-31T9:13:26Z</time></trkpt>
<trkpt lat="43.4703405" lon="6.8038369"><ele></ele><time>2022-5-31T9:13:29Z</time></trkpt>
<trkpt lat="43.4703411" lon="6.8038365"><ele></ele><time>2022-5-31T9:13:32Z</time></trkpt>
<trkpt lat="43.4703413" lon="6.8038363"><ele></ele><time>2022-5-31T9:13:35Z</time></trkpt>
<trkpt lat="43.4703420" lon="6.8038358"><ele></ele><time>2022-5-31T9:13:38Z</time></trkpt>
<trkpt lat="43.4703425" lon="6.8038353"><ele></ele><time>2022-5-31T9:13:41Z</time></trkpt>
<trkpt lat="43.4703427" lon="6.8038358"><ele></ele><time>2022-5-31T9:13:44Z</time></trkpt>
<trkpt lat="43.4703428" lon="6.8038363"><ele></ele><time>2022-5-31T9:13:47Z</time></trkpt>
<trkpt lat="43.4703428" lon="6.8038372"><ele></ele><time>2022-5-31T9:13:50Z</time></trkpt>
<trkpt lat="43.4703431" lon="6.8038376"><ele></ele><time>2022-5-31T9:13:53Z</time></trkpt>
<trkpt lat="43.4703429" lon="6.8038385"><ele></ele><time>2022-5-31T9:13:56Z</time></trkpt>
<trkpt lat="43.4703431" lon="6.8038389"><ele></ele><time>2022-5-31T9:13:59Z</time></trkpt>
<trkpt lat="43.4703429" lon="6.8038394"><ele></ele><time>2022-5-31T9:14:2Z</time></trkpt>
<trkpt lat="43.4703429" lon="6.8038393"><ele></ele><time>2022-5-31T9:14:5Z</time></trkpt>
<trkpt lat="43.4703430" lon="6.8038393"><ele></ele><time>2022-5-31T9:14:8Z</time></trkpt>
<trkpt lat="43.4703433" lon="6.8038391"><ele></ele><time>2022-5-31T9:14:11Z</time></trkpt>
<trkpt lat="43.4703433" lon="6.8038399"><ele></ele><time>2022-5-31T9:14:14Z</time></trkpt>
<trkpt lat="43.4703433" lon="6.8038402"><ele></ele><time>2022-5-31T9:14:17Z</time></trkpt>
<trkpt lat="43.4703432" lon="6.8038414"><ele></ele><time>2022-5-31T9:14:20Z</time></trkpt>
<trkpt lat="43.4703432" lon="6.8038417"><ele></ele><time>2022-5-31T9:14:23Z</time></trkpt>
<trkpt lat="43.4703426" lon="6.8038436"><ele></ele><time>2022-5-31T9:14:26Z</time></trkpt>
<trkpt lat="43.4703426" lon="6.8038436"><ele></ele><time>2022-5-31T9:14:29Z</time></trkpt>
<trkpt lat="43.4703424" lon="6.8038437"><ele></ele><time>2022-5-31T9:14:32Z</time></trkpt>
<trkpt lat="43.4703416" lon="6.8038451"><ele></ele><time>2022-5-31T9:14:35Z</time></trkpt>
<trkpt lat="43.4703412" lon="6.8038448"><ele></ele><time>2022-5-31T9:14:38Z</time></trkpt>
<trkpt lat="43.4703411" lon="6.8038452"><ele></ele><time>2022-5-31T9:14:41Z</time></trkpt>
<trkpt lat="43.4703411" lon="6.8038452"><ele></ele><time>2022-5-31T9:14:44Z</time></trkpt>
<trkpt lat="43.4703411" lon="6.8038455"><ele></ele><time>2022-5-31T9:14:47Z</time></trkpt>
<trkpt lat="43.4703410" lon="6.8038456"><ele></ele><time>2022-5-31T9:14:50Z</time></trkpt>
<trkpt lat="43.4703408" lon="6.8038457"><ele></ele><time>2022-5-31T9:14:53Z</time></trkpt>
<trkpt lat="43.4703407" lon="6.8038458"><ele></ele><time>2022-5-31T9:14:56Z</time></trkpt>
<trkpt lat="43.4703405" lon="6.8038455"><ele></ele><time>2022-5-31T9:14:59Z</time></trkpt>
<trkpt lat="43.4703402" lon="6.8038455"><ele></ele><time>2022-5-31T9:15:2Z</time></trkpt>
<trkpt lat="43.4703400" lon="6.8038454"><ele></ele><time>2022-5-31T9:15:5Z</time></trkpt>
<trkpt lat="43.4703396" lon="6.8038455"><ele></ele><time>2022-5-31T9:15:8Z</time></trkpt>
<trkpt lat="43.4703392" lon="6.8038454"><ele></ele><time>2022-5-31T9:15:11Z</time></trkpt>
<trkpt lat="43.4703388" lon="6.8038458"><ele></ele><time>2022-5-31T9:15:14Z</time></trkpt>
<trkpt lat="43.4703389" lon="6.8038513"><ele></ele><time>2022-5-31T9:15:17Z</time></trkpt>
<trkpt lat="43.4703388" lon="6.8038566"><ele></ele><time>2022-5-31T9:15:20Z</time></trkpt>
<trkpt lat="43.4703411" lon="6.8038599"><ele></ele><time>2022-5-31T9:15:23Z</time></trkpt>
<trkpt lat="43.4703415" lon="6.8038602"><ele></ele><time>2022-5-31T9:15:26Z</time></trkpt>
<trkpt lat="43.4703414" lon="6.8038603"><ele></ele><time>2022-5-31T9:15:29Z</time></trkpt>
<trkpt lat="43.4703413" lon="6.8038604"><ele></ele><time>2022-5-31T9:15:32Z</time></trkpt>
<trkpt lat="43.4703414" lon="6.8038601"><ele></ele><time>2022-5-31T9:15:35Z</time></trkpt>
<trkpt lat="43.4703414" lon="6.8038598"><ele></ele><time>2022-5-31T9:15:38Z</time></trkpt>
<trkpt lat="43.4703414" lon="6.8038597"><ele></ele><time>2022-5-31T9:15:41Z</time></trkpt>
<trkpt lat="43.4703413" lon="6.8038597"><ele></ele><time>2022-5-31T9:15:44Z</time></trkpt>
<trkpt lat="43.4703413" lon="6.8038596"><ele></ele><time>2022-5-31T9:15:47Z</time></trkpt>
<trkpt lat="43.4703413" lon="6.8038593"><ele></ele><time>2022-5-31T9:15:50Z</time></trkpt>
<trkpt lat="43.4703409" lon="6.8038604"><ele></ele><time>2022-5-31T9:15:53Z</time></trkpt>
<trkpt lat="43.4703407" lon="6.8038605"><ele></ele><time>2022-5-31T9:15:56Z</time></trkpt>
<trkpt lat="43.4703406" lon="6.8038602"><ele></ele><time>2022-5-31T9:15:59Z</time></trkpt>
<trkpt lat="43.4703407" lon="6.8038600"><ele></ele><time>2022-5-31T9:16:2Z</time></trkpt>
<trkpt lat="43.4703406" lon="6.8038604"><ele></ele><time>2022-5-31T9:16:5Z</time></trkpt>
<trkpt lat="43.4703406" lon="6.8038605"><ele></ele><time>2022-5-31T9:16:8Z</time></trkpt>
<trkpt lat="43.4703406" lon="6.8038604"><ele></ele><time>2022-5-31T9:16:11Z</time></trkpt>
<trkpt lat="43.4703404" lon="6.8038608"><ele></ele><time>2022-5-31T9:16:14Z</time></trkpt>
<trkpt lat="43.4703402" lon="6.8038606"><ele></ele><time>2022-5-31T9:16:17Z</time></trkpt>
<trkpt lat="43.4703397" lon="6.8038620"><ele></ele><time>2022-5-31T9:16:20Z</time></trkpt>
<trkpt lat="43.4703396" lon="6.8038621"><ele></ele><time>2022-5-31T9:16:23Z</time></trkpt>
<trkpt lat="43.4703397" lon="6.8038622"><ele></ele><time>2022-5-31T9:16:26Z</time></trkpt>
<trkpt lat="43.4703395" lon="6.8038624"><ele></ele><time>2022-5-31T9:16:29Z</time></trkpt>
<trkpt lat="43.4703393" lon="6.8038620"><ele></ele><time>2022-5-31T9:16:32Z</time></trkpt>
<trkpt lat="43.4703392" lon="6.8038617"><ele></ele><time>2022-5-31T9:16:35Z</time></trkpt>
<trkpt lat="43.4703393" lon="6.8038620"><ele></ele><time>2022-5-31T9:16:38Z</time></trkpt>
<trkpt lat="43.4703389" lon="6.8038619"><ele></ele><time>2022-5-31T9:16:41Z</time></trkpt>
<trkpt lat="43.4703387" lon="6.8038623"><ele></ele><time>2022-5-31T9:16:44Z</time></trkpt>
<trkpt lat="43.4703402" lon="6.8038638"><ele></ele><time>2022-5-31T9:16:47Z</time></trkpt>
<trkpt lat="43.4703419" lon="6.8038652"><ele></ele><time>2022-5-31T9:16:50Z</time></trkpt>
<trkpt lat="43.4703427" lon="6.8038735"><ele></ele><time>2022-5-31T9:16:53Z</time></trkpt>
<trkpt lat="43.4703428" lon="6.8038725"><ele></ele><time>2022-5-31T9:16:56Z</time></trkpt>
<trkpt lat="43.4703374" lon="6.8038753"><ele></ele><time>2022-5-31T9:16:59Z</time></trkpt>
<trkpt lat="43.4703454" lon="6.8038799"><ele></ele><time>2022-5-31T9:17:2Z</time></trkpt>
<trkpt lat="43.4703539" lon="6.8038859"><ele></ele><time>2022-5-31T9:17:5Z</time></trkpt>
<trkpt lat="43.4703623" lon="6.8038888"><ele></ele><time>2022-5-31T9:17:8Z</time></trkpt>
<trkpt lat="43.4703709" lon="6.8038916"><ele></ele><time>2022-5-31T9:17:11Z</time></trkpt>
<trkpt lat="43.4703718" lon="6.8038918"><ele></ele><time>2022-5-31T9:17:14Z</time></trkpt>
<trkpt lat="43.4703703" lon="6.8038925"><ele></ele><time>2022-5-31T9:17:17Z</time></trkpt>
<trkpt lat="43.4703705" lon="6.8038929"><ele></ele><time>2022-5-31T9:17:20Z</time></trkpt>
<trkpt lat="43.4703715" lon="6.8038847"><ele></ele><time>2022-5-31T9:17:23Z</time></trkpt>
<trkpt lat="43.4703764" lon="6.8038691"><ele></ele><time>2022-5-31T9:17:26Z</time></trkpt>
<trkpt lat="43.4703791" lon="6.8038547"><ele></ele><time>2022-5-31T9:17:29Z</time></trkpt>
<trkpt lat="43.4703772" lon="6.8038303"><ele></ele><time>2022-5-31T9:17:32Z</time></trkpt>
<trkpt lat="43.4703708" lon="6.8037959"><ele></ele><time>2022-5-31T9:17:35Z</time></trkpt>
<trkpt lat="43.4703646" lon="6.8037615"><ele></ele><time>2022-5-31T9:17:38Z</time></trkpt>
<trkpt lat="43.4703574" lon="6.8037269"><ele></ele><time>2022-5-31T9:17:41Z</time></trkpt>
<trkpt lat="43.4703498" lon="6.8036927"><ele></ele><time>2022-5-31T9:17:44Z</time></trkpt>
<trkpt lat="43.4703394" lon="6.8036553"><ele></ele><time>2022-5-31T9:17:47Z</time></trkpt>
<trkpt lat="43.4703298" lon="6.8036241"><ele></ele><time>2022-5-31T9:17:50Z</time></trkpt>
<trkpt lat="43.4703212" lon="6.8035950"><ele></ele><time>2022-5-31T9:17:53Z</time></trkpt>
<trkpt lat="43.4703122" lon="6.8035658"><ele></ele><time>2022-5-31T9:17:56Z</time></trkpt>
<trkpt lat="43.4703033" lon="6.8035291"><ele></ele><time>2022-5-31T9:17:59Z</time></trkpt>
<trkpt lat="43.4703010" lon="6.8034908"><ele></ele><time>2022-5-31T9:18:2Z</time></trkpt>
<trkpt lat="43.4703043" lon="6.8034549"><ele></ele><time>2022-5-31T9:18:5Z</time></trkpt>
<trkpt lat="43.4703111" lon="6.8034133"><ele></ele><time>2022-5-31T9:18:8Z</time></trkpt>
<trkpt lat="43.4703177" lon="6.8033730"><ele></ele><time>2022-5-31T9:18:11Z</time></trkpt>
<trkpt lat="43.4703239" lon="6.8033331"><ele></ele><time>2022-5-31T9:18:14Z</time></trkpt>
<trkpt lat="43.4703310" lon="6.8032923"><ele></ele><time>2022-5-31T9:18:17Z</time></trkpt>
<trkpt lat="43.4703410" lon="6.8032557"><ele></ele><time>2022-5-31T9:18:20Z</time></trkpt>
<trkpt lat="43.4703536" lon="6.8032167"><ele></ele><time>2022-5-31T9:18:23Z</time></trkpt>
<trkpt lat="43.4703669" lon="6.8031754"><ele></ele><time>2022-5-31T9:18:26Z</time></trkpt>
<trkpt lat="43.4703805" lon="6.8031369"><ele></ele><time>2022-5-31T9:18:29Z</time></trkpt>
<trkpt lat="43.4703944" lon="6.8031005"><ele></ele><time>2022-5-31T9:18:32Z</time></trkpt>
<trkpt lat="43.4704045" lon="6.8030663"><ele></ele><time>2022-5-31T9:18:35Z</time></trkpt>
<trkpt lat="43.4704113" lon="6.8030346"><ele></ele><time>2022-5-31T9:18:38Z</time></trkpt>
<trkpt lat="43.4704157" lon="6.8030017"><ele></ele><time>2022-5-31T9:18:41Z</time></trkpt>
<trkpt lat="43.4704182" lon="6.8029672"><ele></ele><time>2022-5-31T9:18:44Z</time></trkpt>
<trkpt lat="43.4704201" lon="6.8029242"><ele></ele><time>2022-5-31T9:18:47Z</time></trkpt>
<trkpt lat="43.4704163" lon="6.8028837"><ele></ele><time>2022-5-31T9:18:50Z</time></trkpt>
<trkpt lat="43.4704029" lon="6.8028473"><ele></ele><time>2022-5-31T9:18:53Z</time></trkpt>
<trkpt lat="43.4703845" lon="6.8028165"><ele></ele><time>2022-5-31T9:18:56Z</time></trkpt>
<trkpt lat="43.4703681" lon="6.8027872"><ele></ele><time>2022-5-31T9:18:59Z</time></trkpt>
<trkpt lat="43.4703574" lon="6.8027595"><ele></ele><time>2022-5-31T9:19:2Z</time></trkpt>
<trkpt lat="43.4703455" lon="6.8027233"><ele></ele><time>2022-5-31T9:19:5Z</time></trkpt>
<trkpt lat="43.4703334" lon="6.8026905"><ele></ele><time>2022-5-31T9:19:8Z</time></trkpt>
<trkpt lat="43.4703209" lon="6.8026567"><ele></ele><time>2022-5-31T9:19:11Z</time></trkpt>
<trkpt lat="43.4703090" lon="6.8026238"><ele></ele><time>2022-5-31T9:19:14Z</time></trkpt>
<trkpt lat="43.4703033" lon="6.8025859"><ele></ele><time>2022-5-31T9:19:17Z</time></trkpt>
<trkpt lat="43.4703002" lon="6.8025487"><ele></ele><time>2022-5-31T9:19:20Z</time></trkpt>
<trkpt lat="43.4702996" lon="6.8025114"><ele></ele><time>2022-5-31T9:19:23Z</time></trkpt>
<trkpt lat="43.4703027" lon="6.8024770"><ele></ele><time>2022-5-31T9:19:26Z</time></trkpt>
<trkpt lat="43.4703118" lon="6.8024488"><ele></ele><time>2022-5-31T9:19:29Z</time></trkpt>
<trkpt lat="43.4703230" lon="6.8024150"><ele></ele><time>2022-5-31T9:19:32Z</time></trkpt>
<trkpt lat="43.4703345" lon="6.8023859"><ele></ele><time>2022-5-31T9:19:35Z</time></trkpt>
<trkpt lat="43.4703437" lon="6.8023584"><ele></ele><time>2022-5-31T9:19:38Z</time></trkpt>
<trkpt lat="43.4703536" lon="6.8023275"><ele></ele><time>2022-5-31T9:19:41Z</time></trkpt>
<trkpt lat="43.4703598" lon="6.8022960"><ele></ele><time>2022-5-31T9:19:44Z</time></trkpt>
<trkpt lat="43.4703658" lon="6.8022650"><ele></ele><time>2022-5-31T9:19:47Z</time></trkpt>
<trkpt lat="43.4703753" lon="6.8022358"><ele></ele><time>2022-5-31T9:19:50Z</time></trkpt>
<trkpt lat="43.4703806" lon="6.8022076"><ele></ele><time>2022-5-31T9:19:53Z</time></trkpt>
<trkpt lat="43.4703861" lon="6.8021767"><ele></ele><time>2022-5-31T9:19:56Z</time></trkpt>
<trkpt lat="43.4703902" lon="6.8021468"><ele></ele><time>2022-5-31T9:19:59Z</time></trkpt>
<trkpt lat="43.4703924" lon="6.8021196"><ele></ele><time>2022-5-31T9:20:2Z</time></trkpt>
<trkpt lat="43.4703928" lon="6.8020863"><ele></ele><time>2022-5-31T9:20:5Z</time></trkpt>
<trkpt lat="43.4703913" lon="6.8020471"><ele></ele><time>2022-5-31T9:20:8Z</time></trkpt>
<trkpt lat="43.4703914" lon="6.8020036"><ele></ele><time>2022-5-31T9:20:11Z</time></trkpt>
<trkpt lat="43.4703855" lon="6.8019634"><ele></ele><time>2022-5-31T9:20:14Z</time></trkpt>
<trkpt lat="43.4703753" lon="6.8019241"><ele></ele><time>2022-5-31T9:20:17Z</time></trkpt>
<trkpt lat="43.4703650" lon="6.8018924"><ele></ele><time>2022-5-31T9:20:20Z</time></trkpt>
<trkpt lat="43.4703485" lon="6.8018598"><ele></ele><time>2022-5-31T9:20:23Z</time></trkpt>
<trkpt lat="43.4703318" lon="6.8018274"><ele></ele><time>2022-5-31T9:20:26Z</time></trkpt>
<trkpt lat="43.4703100" lon="6.8018017"><ele></ele><time>2022-5-31T9:20:29Z</time></trkpt>
<trkpt lat="43.4702830" lon="6.8017824"><ele></ele><time>2022-5-31T9:20:32Z</time></trkpt>
<trkpt lat="43.4702547" lon="6.8017719"><ele></ele><time>2022-5-31T9:20:35Z</time></trkpt>
<trkpt lat="43.4702276" lon="6.8017586"><ele></ele><time>2022-5-31T9:20:38Z</time></trkpt>
<trkpt lat="43.4702012" lon="6.8017400"><ele></ele><time>2022-5-31T9:20:41Z</time></trkpt>
<trkpt lat="43.4701760" lon="6.8017246"><ele></ele><time>2022-5-31T9:20:44Z</time></trkpt>
<trkpt lat="43.4701460" lon="6.8017126"><ele></ele><time>2022-5-31T9:20:47Z</time></trkpt>
<trkpt lat="43.4701169" lon="6.8016986"><ele></ele><time>2022-5-31T9:20:50Z</time></trkpt>
<trkpt lat="43.4700868" lon="6.8016805"><ele></ele><time>2022-5-31T9:20:53Z</time></trkpt>
<trkpt lat="43.4700576" lon="6.8016631"><ele></ele><time>2022-5-31T9:20:56Z</time></trkpt>
<trkpt lat="43.4700352" lon="6.8016374"><ele></ele><time>2022-5-31T9:20:59Z</time></trkpt>
<trkpt lat="43.4700200" lon="6.8016099"><ele></ele><time>2022-5-31T9:21:2Z</time></trkpt>
<trkpt lat="43.4699969" lon="6.8015861"><ele></ele><time>2022-5-31T9:21:5Z</time></trkpt>
<trkpt lat="43.4699772" lon="6.8015570"><ele></ele><time>2022-5-31T9:21:8Z</time></trkpt>
<trkpt lat="43.4699615" lon="6.8015290"><ele></ele><time>2022-5-31T9:21:11Z</time></trkpt>
<trkpt lat="43.4699452" lon="6.8014907"><ele></ele><time>2022-5-31T9:21:14Z</time></trkpt>
<trkpt lat="43.4699286" lon="6.8014560"><ele></ele><time>2022-5-31T9:21:17Z</time></trkpt>
<trkpt lat="43.4699129" lon="6.8014218"><ele></ele><time>2022-5-31T9:21:20Z</time></trkpt>
<trkpt lat="43.4699052" lon="6.8013803"><ele></ele><time>2022-5-31T9:21:23Z</time></trkpt>
<trkpt lat="43.4698995" lon="6.8013397"><ele></ele><time>2022-5-31T9:21:26Z</time></trkpt>
<trkpt lat="43.4698939" lon="6.8012953"><ele></ele><time>2022-5-31T9:21:29Z</time></trkpt>
<trkpt lat="43.4698847" lon="6.8012584"><ele></ele><time>2022-5-31T9:21:32Z</time></trkpt>
<trkpt lat="43.4698763" lon="6.8012211"><ele></ele><time>2022-5-31T9:21:35Z</time></trkpt>
<trkpt lat="43.4698715" lon="6.8011798"><ele></ele><time>2022-5-31T9:21:38Z</time></trkpt>
<trkpt lat="43.4698670" lon="6.8011391"><ele></ele><time>2022-5-31T9:21:41Z</time></trkpt>
<trkpt lat="43.4698646" lon="6.8010997"><ele></ele><time>2022-5-31T9:21:44Z</time></trkpt>
<trkpt lat="43.4698595" lon="6.8010607"><ele></ele><time>2022-5-31T9:21:47Z</time></trkpt>
<trkpt lat="43.4698546" lon="6.8010204"><ele></ele><time>2022-5-31T9:21:50Z</time></trkpt>
<trkpt lat="43.4698431" lon="6.8009831"><ele></ele><time>2022-5-31T9:21:53Z</time></trkpt>
<trkpt lat="43.4698314" lon="6.8009525"><ele></ele><time>2022-5-31T9:21:56Z</time></trkpt>
<trkpt lat="43.4698138" lon="6.8009252"><ele></ele><time>2022-5-31T9:21:59Z</time></trkpt>
<trkpt lat="43.4697923" lon="6.8009005"><ele></ele><time>2022-5-31T9:22:2Z</time></trkpt>
<trkpt lat="43.4697723" lon="6.8008734"><ele></ele><time>2022-5-31T9:22:5Z</time></trkpt>
<trkpt lat="43.4697486" lon="6.8008546"><ele></ele><time>2022-5-31T9:22:8Z</time></trkpt>
<trkpt lat="43.4697178" lon="6.8008517"><ele></ele><time>2022-5-31T9:22:11Z</time></trkpt>
<trkpt lat="43.4696841" lon="6.8008479"><ele></ele><time>2022-5-31T9:22:14Z</time></trkpt>
<trkpt lat="43.4696511" lon="6.8008427"><ele></ele><time>2022-5-31T9:22:17Z</time></trkpt>
<trkpt lat="43.4696146" lon="6.8008370"><ele></ele><time>2022-5-31T9:22:20Z</time></trkpt>
<trkpt lat="43.4695706" lon="6.8008326"><ele></ele><time>2022-5-31T9:22:23Z</time></trkpt>
<trkpt lat="43.4695201" lon="6.8008289"><ele></ele><time>2022-5-31T9:22:26Z</time></trkpt>
<trkpt lat="43.4694725" lon="6.8008182"><ele></ele><time>2022-5-31T9:22:29Z</time></trkpt>
<trkpt lat="43.4694228" lon="6.8008059"><ele></ele><time>2022-5-31T9:22:32Z</time></trkpt>
<trkpt lat="43.4693716" lon="6.8007954"><ele></ele><time>2022-5-31T9:22:35Z</time></trkpt>
<trkpt lat="43.4693145" lon="6.8007844"><ele></ele><time>2022-5-31T9:22:38Z</time></trkpt>
<trkpt lat="43.4692527" lon="6.8007740"><ele></ele><time>2022-5-31T9:22:41Z</time></trkpt>
<trkpt lat="43.4691922" lon="6.8007616"><ele></ele><time>2022-5-31T9:22:44Z</time></trkpt>
<trkpt lat="43.4691351" lon="6.8007571"><ele></ele><time>2022-5-31T9:22:47Z</time></trkpt>
<trkpt lat="43.4690742" lon="6.8007447"><ele></ele><time>2022-5-31T9:22:50Z</time></trkpt>
<trkpt lat="43.4690130" lon="6.8007238"><ele></ele><time>2022-5-31T9:22:53Z</time></trkpt>
<trkpt lat="43.4689567" lon="6.8006965"><ele></ele><time>2022-5-31T9:22:56Z</time></trkpt>
<trkpt lat="43.4689019" lon="6.8006705"><ele></ele><time>2022-5-31T9:22:59Z</time></trkpt>
<trkpt lat="43.4688545" lon="6.8006361"><ele></ele><time>2022-5-31T9:23:2Z</time></trkpt>
<trkpt lat="43.4688054" lon="6.8006056"><ele></ele><time>2022-5-31T9:23:5Z</time></trkpt>
<trkpt lat="43.4687583" lon="6.8005784"><ele></ele><time>2022-5-31T9:23:8Z</time></trkpt>
<trkpt lat="43.4687061" lon="6.8005579"><ele></ele><time>2022-5-31T9:23:11Z</time></trkpt>
<trkpt lat="43.4686535" lon="6.8005410"><ele></ele><time>2022-5-31T9:23:14Z</time></trkpt>
<trkpt lat="43.4686033" lon="6.8005254"><ele></ele><time>2022-5-31T9:23:17Z</time></trkpt>
<trkpt lat="43.4685550" lon="6.8005080"><ele></ele><time>2022-5-31T9:23:20Z</time></trkpt>
<trkpt lat="43.4685085" lon="6.8004953"><ele></ele><time>2022-5-31T9:23:23Z</time></trkpt>
<trkpt lat="43.4684654" lon="6.8004840"><ele></ele><time>2022-5-31T9:23:26Z</time></trkpt>
<trkpt lat="43.4684193" lon="6.8004730"><ele></ele><time>2022-5-31T9:23:29Z</time></trkpt>
<trkpt lat="43.4683736" lon="6.8004719"><ele></ele><time>2022-5-31T9:23:32Z</time></trkpt>
<trkpt lat="43.4683273" lon="6.8004726"><ele></ele><time>2022-5-31T9:23:35Z</time></trkpt>
<trkpt lat="43.4682786" lon="6.8004649"><ele></ele><time>2022-5-31T9:23:38Z</time></trkpt>
<trkpt lat="43.4682277" lon="6.8004567"><ele></ele><time>2022-5-31T9:23:41Z</time></trkpt>
<trkpt lat="43.4681772" lon="6.8004497"><ele></ele><time>2022-5-31T9:23:44Z</time></trkpt>
<trkpt lat="43.4681300" lon="6.8004406"><ele></ele><time>2022-5-31T9:23:47Z</time></trkpt>
<trkpt lat="43.4680850" lon="6.8004274"><ele></ele><time>2022-5-31T9:23:50Z</time></trkpt>
<trkpt lat="43.4680430" lon="6.8004144"><ele></ele><time>2022-5-31T9:23:53Z</time></trkpt>
<trkpt lat="43.4680048" lon="6.8004002"><ele></ele><time>2022-5-31T9:23:56Z</time></trkpt>
<trkpt lat="43.4679716" lon="6.8003814"><ele></ele><time>2022-5-31T9:23:59Z</time></trkpt>
<trkpt lat="43.4679412" lon="6.8003599"><ele></ele><time>2022-5-31T9:24:2Z</time></trkpt>
<trkpt lat="43.4679171" lon="6.8003341"><ele></ele><time>2022-5-31T9:24:5Z</time></trkpt>
<trkpt lat="43.4678953" lon="6.8003031"><ele></ele><time>2022-5-31T9:24:8Z</time></trkpt>
<trkpt lat="43.4678625" lon="6.8002719"><ele></ele><time>2022-5-31T9:24:11Z</time></trkpt>
<trkpt lat="43.4678253" lon="6.8002426"><ele></ele><time>2022-5-31T9:24:14Z</time></trkpt>
<trkpt lat="43.4677842" lon="6.8002199"><ele></ele><time>2022-5-31T9:24:17Z</time></trkpt>
<trkpt lat="43.4677471" lon="6.8001948"><ele></ele><time>2022-5-31T9:24:20Z</time></trkpt>
<trkpt lat="43.4677180" lon="6.8001555"><ele></ele><time>2022-5-31T9:24:23Z</time></trkpt>
<trkpt lat="43.4677044" lon="6.8001021"><ele></ele><time>2022-5-31T9:24:26Z</time></trkpt>
<trkpt lat="43.4676888" lon="6.8000372"><ele></ele><time>2022-5-31T9:24:29Z</time></trkpt>
<trkpt lat="43.4676701" lon="6.7999715"><ele></ele><time>2022-5-31T9:24:32Z</time></trkpt>
<trkpt lat="43.4676665" lon="6.7998876"><ele></ele><time>2022-5-31T9:24:35Z</time></trkpt>
<trkpt lat="43.4676551" lon="6.7998123"><ele></ele><time>2022-5-31T9:24:38Z</time></trkpt>
<trkpt lat="43.4676370" lon="6.7997440"><ele></ele><time>2022-5-31T9:24:41Z</time></trkpt>
<trkpt lat="43.4676114" lon="6.7996836"><ele></ele><time>2022-5-31T9:24:44Z</time></trkpt>
<trkpt lat="43.4675788" lon="6.7996149"><ele></ele><time>2022-5-31T9:24:47Z</time></trkpt>
<trkpt lat="43.4675509" lon="6.7995503"><ele></ele><time>2022-5-31T9:24:50Z</time></trkpt>
<trkpt lat="43.4675264" lon="6.7994894"><ele></ele><time>2022-5-31T9:24:53Z</time></trkpt>
<trkpt lat="43.4674972" lon="6.7994369"><ele></ele><time>2022-5-31T9:24:56Z</time></trkpt>
<trkpt lat="43.4674711" lon="6.7993803"><ele></ele><time>2022-5-31T9:24:59Z</time></trkpt>
<trkpt lat="43.4674573" lon="6.7993094"><ele></ele><time>2022-5-31T9:25:2Z</time></trkpt>
<trkpt lat="43.4674499" lon="6.7992337"><ele></ele><time>2022-5-31T9:25:5Z</time></trkpt>
<trkpt lat="43.4674499" lon="6.7991627"><ele></ele><time>2022-5-31T9:25:8Z</time></trkpt>
<trkpt lat="43.4674598" lon="6.7991037"><ele></ele><time>2022-5-31T9:25:11Z</time></trkpt>
<trkpt lat="43.4674859" lon="6.7990469"><ele></ele><time>2022-5-31T9:25:14Z</time></trkpt>
<trkpt lat="43.4675150" lon="6.7989952"><ele></ele><time>2022-5-31T9:25:17Z</time></trkpt>
<trkpt lat="43.4675507" lon="6.7989413"><ele></ele><time>2022-5-31T9:25:20Z</time></trkpt>
<trkpt lat="43.4675917" lon="6.7988973"><ele></ele><time>2022-5-31T9:25:23Z</time></trkpt>
<trkpt lat="43.4676378" lon="6.7988601"><ele></ele><time>2022-5-31T9:25:26Z</time></trkpt>
<trkpt lat="43.4676898" lon="6.7988287"><ele></ele><time>2022-5-31T9:25:29Z</time></trkpt>
<trkpt lat="43.4677359" lon="6.7988051"><ele></ele><time>2022-5-31T9:25:32Z</time></trkpt>
<trkpt lat="43.4677732" lon="6.7987743"><ele></ele><time>2022-5-31T9:25:35Z</time></trkpt>
<trkpt lat="43.4678101" lon="6.7987382"><ele></ele><time>2022-5-31T9:25:38Z</time></trkpt>
<trkpt lat="43.4678442" lon="6.7986875"><ele></ele><time>2022-5-31T9:25:41Z</time></trkpt>
<trkpt lat="43.4678761" lon="6.7986339"><ele></ele><time>2022-5-31T9:25:44Z</time></trkpt>
<trkpt lat="43.4679080" lon="6.7985772"><ele></ele><time>2022-5-31T9:25:47Z</time></trkpt>
<trkpt lat="43.4679329" lon="6.7985154"><ele></ele><time>2022-5-31T9:25:50Z</time></trkpt>
<trkpt lat="43.4679596" lon="6.7984544"><ele></ele><time>2022-5-31T9:25:53Z</time></trkpt>
<trkpt lat="43.4679897" lon="6.7983850"><ele></ele><time>2022-5-31T9:25:56Z</time></trkpt>
<trkpt lat="43.4680201" lon="6.7983098"><ele></ele><time>2022-5-31T9:25:59Z</time></trkpt>
<trkpt lat="43.4680560" lon="6.7982414"><ele></ele><time>2022-5-31T9:26:2Z</time></trkpt>
<trkpt lat="43.4681034" lon="6.7981684"><ele></ele><time>2022-5-31T9:26:5Z</time></trkpt>
<trkpt lat="43.4681513" lon="6.7981052"><ele></ele><time>2022-5-31T9:26:8Z</time></trkpt>
<trkpt lat="43.4681967" lon="6.7980463"><ele></ele><time>2022-5-31T9:26:11Z</time></trkpt>
<trkpt lat="43.4682478" lon="6.7979932"><ele></ele><time>2022-5-31T9:26:14Z</time></trkpt>
<trkpt lat="43.4682949" lon="6.7979498"><ele></ele><time>2022-5-31T9:26:17Z</time></trkpt>
<trkpt lat="43.4683499" lon="6.7979168"><ele></ele><time>2022-5-31T9:26:20Z</time></trkpt>
<trkpt lat="43.4684089" lon="6.7978851"><ele></ele><time>2022-5-31T9:26:23Z</time></trkpt>
<trkpt lat="43.4684678" lon="6.7978584"><ele></ele><time>2022-5-31T9:26:26Z</time></trkpt>
<trkpt lat="43.4685170" lon="6.7978178"><ele></ele><time>2022-5-31T9:26:29Z</time></trkpt>
<trkpt lat="43.4685639" lon="6.7977584"><ele></ele><time>2022-5-31T9:26:32Z</time></trkpt>
<trkpt lat="43.4685983" lon="6.7976884"><ele></ele><time>2022-5-31T9:26:35Z</time></trkpt>
<trkpt lat="43.4686152" lon="6.7976013"><ele></ele><time>2022-5-31T9:26:38Z</time></trkpt>
<trkpt lat="43.4686074" lon="6.7975083"><ele></ele><time>2022-5-31T9:26:41Z</time></trkpt>
<trkpt lat="43.4685831" lon="6.7974232"><ele></ele><time>2022-5-31T9:26:44Z</time></trkpt>
<trkpt lat="43.4685375" lon="6.7973576"><ele></ele><time>2022-5-31T9:26:47Z</time></trkpt>
<trkpt lat="43.4684842" lon="6.7973123"><ele></ele><time>2022-5-31T9:26:50Z</time></trkpt>
<trkpt lat="43.4684257" lon="6.7972666"><ele></ele><time>2022-5-31T9:26:53Z</time></trkpt>
<trkpt lat="43.4683606" lon="6.7972395"><ele></ele><time>2022-5-31T9:26:56Z</time></trkpt>
<trkpt lat="43.4682975" lon="6.7972240"><ele></ele><time>2022-5-31T9:26:59Z</time></trkpt>
<trkpt lat="43.4682414" lon="6.7972095"><ele></ele><time>2022-5-31T9:27:2Z</time></trkpt>
<trkpt lat="43.4681828" lon="6.7972051"><ele></ele><time>2022-5-31T9:27:5Z</time></trkpt>
<trkpt lat="43.4681225" lon="6.7972076"><ele></ele><time>2022-5-31T9:27:8Z</time></trkpt>
<trkpt lat="43.4680619" lon="6.7972121"><ele></ele><time>2022-5-31T9:27:11Z</time></trkpt>
<trkpt lat="43.4680018" lon="6.7972139"><ele></ele><time>2022-5-31T9:27:14Z</time></trkpt>
<trkpt lat="43.4679399" lon="6.7972089"><ele></ele><time>2022-5-31T9:27:17Z</time></trkpt>
<trkpt lat="43.4678786" lon="6.7972036"><ele></ele><time>2022-5-31T9:27:20Z</time></trkpt>
<trkpt lat="43.4678168" lon="6.7971996"><ele></ele><time>2022-5-31T9:27:23Z</time></trkpt>
<trkpt lat="43.4677545" lon="6.7971955"><ele></ele><time>2022-5-31T9:27:26Z</time></trkpt>
<trkpt lat="43.4676940" lon="6.7971944"><ele></ele><time>2022-5-31T9:27:29Z</time></trkpt>
<trkpt lat="43.4676330" lon="6.7971879"><ele></ele><time>2022-5-31T9:27:32Z</time></trkpt>
<trkpt lat="43.4675701" lon="6.7971807"><ele></ele><time>2022-5-31T9:27:35Z</time></trkpt>
<trkpt lat="43.4675067" lon="6.7971729"><ele></ele><time>2022-5-31T9:27:38Z</time></trkpt>
<trkpt lat="43.4674446" lon="6.7971641"><ele></ele><time>2022-5-31T9:27:41Z</time></trkpt>
<trkpt lat="43.4673865" lon="6.7971491"><ele></ele><time>2022-5-31T9:27:44Z</time></trkpt>
<trkpt lat="43.4673325" lon="6.7971255"><ele></ele><time>2022-5-31T9:27:47Z</time></trkpt>
<trkpt lat="43.4672810" lon="6.7970976"><ele></ele><time>2022-5-31T9:27:50Z</time></trkpt>
<trkpt lat="43.4672343" lon="6.7970554"><ele></ele><time>2022-5-31T9:27:53Z</time></trkpt>
<trkpt lat="43.4671883" lon="6.7970131"><ele></ele><time>2022-5-31T9:27:56Z</time></trkpt>
<trkpt lat="43.4671416" lon="6.7969731"><ele></ele><time>2022-5-31T9:27:59Z</time></trkpt>
<trkpt lat="43.4671015" lon="6.7969232"><ele></ele><time>2022-5-31T9:28:2Z</time></trkpt>
<trkpt lat="43.4670610" lon="6.7968759"><ele></ele><time>2022-5-31T9:28:5Z</time></trkpt>
<trkpt lat="43.4670142" lon="6.7968289"><ele></ele><time>2022-5-31T9:28:8Z</time></trkpt>
<trkpt lat="43.4669725" lon="6.7967796"><ele></ele><time>2022-5-31T9:28:11Z</time></trkpt>
<trkpt lat="43.4669376" lon="6.7967193"><ele></ele><time>2022-5-31T9:28:14Z</time></trkpt>
<trkpt lat="43.4669085" lon="6.7966503"><ele></ele><time>2022-5-31T9:28:17Z</time></trkpt>
<trkpt lat="43.4668860" lon="6.7965798"><ele></ele><time>2022-5-31T9:28:20Z</time></trkpt>
<trkpt lat="43.4668692" lon="6.7965039"><ele></ele><time>2022-5-31T9:28:23Z</time></trkpt>
<trkpt lat="43.4668536" lon="6.7964242"><ele></ele><time>2022-5-31T9:28:26Z</time></trkpt>
<trkpt lat="43.4668480" lon="6.7963378"><ele></ele><time>2022-5-31T9:28:29Z</time></trkpt>
<trkpt lat="43.4668440" lon="6.7962549"><ele></ele><time>2022-5-31T9:28:32Z</time></trkpt>
<trkpt lat="43.4668382" lon="6.7961829"><ele></ele><time>2022-5-31T9:28:35Z</time></trkpt>
<trkpt lat="43.4668289" lon="6.7961226"><ele></ele><time>2022-5-31T9:28:38Z</time></trkpt>
<trkpt lat="43.4668132" lon="6.7960637"><ele></ele><time>2022-5-31T9:28:41Z</time></trkpt>
<trkpt lat="43.4667849" lon="6.7960111"><ele></ele><time>2022-5-31T9:28:44Z</time></trkpt>
<trkpt lat="43.4667439" lon="6.7959800"><ele></ele><time>2022-5-31T9:28:47Z</time></trkpt>
<trkpt lat="43.4667011" lon="6.7959560"><ele></ele><time>2022-5-31T9:28:50Z</time></trkpt>
<trkpt lat="43.4666534" lon="6.7959477"><ele></ele><time>2022-5-31T9:28:53Z</time></trkpt>
<trkpt lat="43.4666125" lon="6.7959322"><ele></ele><time>2022-5-31T9:28:56Z</time></trkpt>
<trkpt lat="43.4665786" lon="6.7959125"><ele></ele><time>2022-5-31T9:28:59Z</time></trkpt>
<trkpt lat="43.4665438" lon="6.7958893"><ele></ele><time>2022-5-31T9:29:2Z</time></trkpt>
<trkpt lat="43.4665027" lon="6.7958619"><ele></ele><time>2022-5-31T9:29:5Z</time></trkpt>
<trkpt lat="43.4664620" lon="6.7958348"><ele></ele><time>2022-5-31T9:29:8Z</time></trkpt>
<trkpt lat="43.4664244" lon="6.7958063"><ele></ele><time>2022-5-31T9:29:11Z</time></trkpt>
<trkpt lat="43.4663860" lon="6.7957780"><ele></ele><time>2022-5-31T9:29:14Z</time></trkpt>
<trkpt lat="43.4663516" lon="6.7957501"><ele></ele><time>2022-5-31T9:29:17Z</time></trkpt>
<trkpt lat="43.4663162" lon="6.7957186"><ele></ele><time>2022-5-31T9:29:20Z</time></trkpt>
<trkpt lat="43.4662803" lon="6.7956853"><ele></ele><time>2022-5-31T9:29:23Z</time></trkpt>
<trkpt lat="43.4662448" lon="6.7956535"><ele></ele><time>2022-5-31T9:29:26Z</time></trkpt>
<trkpt lat="43.4662137" lon="6.7956196"><ele></ele><time>2022-5-31T9:29:29Z</time></trkpt>
<trkpt lat="43.4661820" lon="6.7955858"><ele></ele><time>2022-5-31T9:29:32Z</time></trkpt>
<trkpt lat="43.4661532" lon="6.7955547"><ele></ele><time>2022-5-31T9:29:35Z</time></trkpt>
<trkpt lat="43.4661266" lon="6.7955228"><ele></ele><time>2022-5-31T9:29:38Z</time></trkpt>
<trkpt lat="43.4660995" lon="6.7954894"><ele></ele><time>2022-5-31T9:29:41Z</time></trkpt>
<trkpt lat="43.4660857" lon="6.7954462"><ele></ele><time>2022-5-31T9:29:44Z</time></trkpt>
<trkpt lat="43.4660726" lon="6.7953943"><ele></ele><time>2022-5-31T9:29:47Z</time></trkpt>
<trkpt lat="43.4660637" lon="6.7953446"><ele></ele><time>2022-5-31T9:29:50Z</time></trkpt>
<trkpt lat="43.4660688" lon="6.7952821"><ele></ele><time>2022-5-31T9:29:53Z</time></trkpt>
<trkpt lat="43.4660802" lon="6.7952115"><ele></ele><time>2022-5-31T9:29:56Z</time></trkpt>
<trkpt lat="43.4660956" lon="6.7951463"><ele></ele><time>2022-5-31T9:29:59Z</time></trkpt>
<trkpt lat="43.4661073" lon="6.7950914"><ele></ele><time>2022-5-31T9:30:2Z</time></trkpt>
<trkpt lat="43.4661223" lon="6.7950318"><ele></ele><time>2022-5-31T9:30:5Z</time></trkpt>
<trkpt lat="43.4661427" lon="6.7949725"><ele></ele><time>2022-5-31T9:30:8Z</time></trkpt>
<trkpt lat="43.4661588" lon="6.7949153"><ele></ele><time>2022-5-31T9:30:11Z</time></trkpt>
<trkpt lat="43.4661785" lon="6.7948547"><ele></ele><time>2022-5-31T9:30:14Z</time></trkpt>
<trkpt lat="43.4662028" lon="6.7948007"><ele></ele><time>2022-5-31T9:30:17Z</time></trkpt>
<trkpt lat="43.4662300" lon="6.7947437"><ele></ele><time>2022-5-31T9:30:20Z</time></trkpt>
<trkpt lat="43.4662563" lon="6.7946887"><ele></ele><time>2022-5-31T9:30:23Z</time></trkpt>
<trkpt lat="43.4662861" lon="6.7946286"><ele></ele><time>2022-5-31T9:30:26Z</time></trkpt>
<trkpt lat="43.4663158" lon="6.7945696"><ele></ele><time>2022-5-31T9:30:29Z</time></trkpt>
<trkpt lat="43.4663468" lon="6.7945069"><ele></ele><time>2022-5-31T9:30:32Z</time></trkpt>
<trkpt lat="43.4663707" lon="6.7944440"><ele></ele><time>2022-5-31T9:30:35Z</time></trkpt>
<trkpt lat="43.4663823" lon="6.7943778"><ele></ele><time>2022-5-31T9:30:38Z</time></trkpt>
<trkpt lat="43.4663801" lon="6.7943093"><ele></ele><time>2022-5-31T9:30:41Z</time></trkpt>
<trkpt lat="43.4663568" lon="6.7942442"><ele></ele><time>2022-5-31T9:30:44Z</time></trkpt>
<trkpt lat="43.4663116" lon="6.7941898"><ele></ele><time>2022-5-31T9:30:47Z</time></trkpt>
<trkpt lat="43.4662646" lon="6.7941484"><ele></ele><time>2022-5-31T9:30:50Z</time></trkpt>
<trkpt lat="43.4662198" lon="6.7941069"><ele></ele><time>2022-5-31T9:30:53Z</time></trkpt>
<trkpt lat="43.4661853" lon="6.7940581"><ele></ele><time>2022-5-31T9:30:56Z</time></trkpt>
<trkpt lat="43.4661636" lon="6.7939994"><ele></ele><time>2022-5-31T9:30:59Z</time></trkpt>
<trkpt lat="43.4661486" lon="6.7939398"><ele></ele><time>2022-5-31T9:31:2Z</time></trkpt>
<trkpt lat="43.4661334" lon="6.7938841"><ele></ele><time>2022-5-31T9:31:5Z</time></trkpt>
<trkpt lat="43.4661180" lon="6.7938213"><ele></ele><time>2022-5-31T9:31:8Z</time></trkpt>
<trkpt lat="43.4661079" lon="6.7937574"><ele></ele><time>2022-5-31T9:31:11Z</time></trkpt>
<trkpt lat="43.4660982" lon="6.7936943"><ele></ele><time>2022-5-31T9:31:14Z</time></trkpt>
<trkpt lat="43.4660929" lon="6.7936305"><ele></ele><time>2022-5-31T9:31:17Z</time></trkpt>
<trkpt lat="43.4660942" lon="6.7935616"><ele></ele><time>2022-5-31T9:31:20Z</time></trkpt>
<trkpt lat="43.4660992" lon="6.7934914"><ele></ele><time>2022-5-31T9:31:23Z</time></trkpt>
<trkpt lat="43.4661137" lon="6.7934278"><ele></ele><time>2022-5-31T9:31:26Z</time></trkpt>
<trkpt lat="43.4661370" lon="6.7933711"><ele></ele><time>2022-5-31T9:31:29Z</time></trkpt>
<trkpt lat="43.4661726" lon="6.7933188"><ele></ele><time>2022-5-31T9:31:32Z</time></trkpt>
<trkpt lat="43.4662137" lon="6.7932772"><ele></ele><time>2022-5-31T9:31:35Z</time></trkpt>
<trkpt lat="43.4662541" lon="6.7932423"><ele></ele><time>2022-5-31T9:31:38Z</time></trkpt>
<trkpt lat="43.4662986" lon="6.7932064"><ele></ele><time>2022-5-31T9:31:41Z</time></trkpt>
<trkpt lat="43.4663499" lon="6.7931777"><ele></ele><time>2022-5-31T9:31:44Z</time></trkpt>
<trkpt lat="43.4664033" lon="6.7931639"><ele></ele><time>2022-5-31T9:31:47Z</time></trkpt>
<trkpt lat="43.4664579" lon="6.7931656"><ele></ele><time>2022-5-31T9:31:50Z</time></trkpt>
<trkpt lat="43.4665107" lon="6.7931708"><ele></ele><time>2022-5-31T9:31:53Z</time></trkpt>
<trkpt lat="43.4665649" lon="6.7931864"><ele></ele><time>2022-5-31T9:31:56Z</time></trkpt>
<trkpt lat="43.4666211" lon="6.7932019"><ele></ele><time>2022-5-31T9:31:59Z</time></trkpt>
<trkpt lat="43.4666794" lon="6.7932146"><ele></ele><time>2022-5-31T9:32:2Z</time></trkpt>
<trkpt lat="43.4667304" lon="6.7932347"><ele></ele><time>2022-5-31T9:32:5Z</time></trkpt>
<trkpt lat="43.4667804" lon="6.7932603"><ele></ele><time>2022-5-31T9:32:8Z</time></trkpt>
<trkpt lat="43.4668327" lon="6.7932879"><ele></ele><time>2022-5-31T9:32:11Z</time></trkpt>
<trkpt lat="43.4668924" lon="6.7933030"><ele></ele><time>2022-5-31T9:32:14Z</time></trkpt>
<trkpt lat="43.4669530" lon="6.7933228"><ele></ele><time>2022-5-31T9:32:17Z</time></trkpt>
<trkpt lat="43.4670106" lon="6.7933326"><ele></ele><time>2022-5-31T9:32:20Z</time></trkpt>
<trkpt lat="43.4670706" lon="6.7933348"><ele></ele><time>2022-5-31T9:32:23Z</time></trkpt>
<trkpt lat="43.4671337" lon="6.7933423"><ele></ele><time>2022-5-31T9:32:26Z</time></trkpt>
<trkpt lat="43.4671938" lon="6.7933538"><ele></ele><time>2022-5-31T9:32:29Z</time></trkpt>
<trkpt lat="43.4672504" lon="6.7933456"><ele></ele><time>2022-5-31T9:32:32Z</time></trkpt>
<trkpt lat="43.4673127" lon="6.7933472"><ele></ele><time>2022-5-31T9:32:35Z</time></trkpt>
<trkpt lat="43.4673751" lon="6.7933412"><ele></ele><time>2022-5-31T9:32:38Z</time></trkpt>
<trkpt lat="43.4674358" lon="6.7933277"><ele></ele><time>2022-5-31T9:32:41Z</time></trkpt>
<trkpt lat="43.4674898" lon="6.7933228"><ele></ele><time>2022-5-31T9:32:44Z</time></trkpt>
<trkpt lat="43.4675524" lon="6.7933176"><ele></ele><time>2022-5-31T9:32:47Z</time></trkpt>
<trkpt lat="43.4676067" lon="6.7933315"><ele></ele><time>2022-5-31T9:32:50Z</time></trkpt>
<trkpt lat="43.4676733" lon="6.7933329"><ele></ele><time>2022-5-31T9:32:53Z</time></trkpt>
<trkpt lat="43.4677356" lon="6.7933452"><ele></ele><time>2022-5-31T9:32:56Z</time></trkpt>
<trkpt lat="43.4677971" lon="6.7933508"><ele></ele><time>2022-5-31T9:32:59Z</time></trkpt>
<trkpt lat="43.4678613" lon="6.7933583"><ele></ele><time>2022-5-31T9:33:2Z</time></trkpt>
<trkpt lat="43.4679208" lon="6.7933781"><ele></ele><time>2022-5-31T9:33:5Z</time></trkpt>
<trkpt lat="43.4679758" lon="6.7933971"><ele></ele><time>2022-5-31T9:33:8Z</time></trkpt>
<trkpt lat="43.4680306" lon="6.7933996"><ele></ele><time>2022-5-31T9:33:11Z</time></trkpt>
<trkpt lat="43.4680841" lon="6.7934144"><ele></ele><time>2022-5-31T9:33:14Z</time></trkpt>
<trkpt lat="43.4681360" lon="6.7934483"><ele></ele><time>2022-5-31T9:33:17Z</time></trkpt>
<trkpt lat="43.4681950" lon="6.7934649"><ele></ele><time>2022-5-31T9:33:20Z</time></trkpt>
<trkpt lat="43.4682529" lon="6.7934728"><ele></ele><time>2022-5-31T9:33:23Z</time></trkpt>
<trkpt lat="43.4682996" lon="6.7934503"><ele></ele><time>2022-5-31T9:33:26Z</time></trkpt>
<trkpt lat="43.4683343" lon="6.7933991"><ele></ele><time>2022-5-31T9:33:29Z</time></trkpt>
<trkpt lat="43.4683490" lon="6.7933289"><ele></ele><time>2022-5-31T9:33:32Z</time></trkpt>
<trkpt lat="43.4683431" lon="6.7932537"><ele></ele><time>2022-5-31T9:33:35Z</time></trkpt>
<trkpt lat="43.4683184" lon="6.7931839"><ele></ele><time>2022-5-31T9:33:38Z</time></trkpt>
<trkpt lat="43.4682881" lon="6.7931331"><ele></ele><time>2022-5-31T9:33:41Z</time></trkpt>
<trkpt lat="43.4682531" lon="6.7931012"><ele></ele><time>2022-5-31T9:33:44Z</time></trkpt>
<trkpt lat="43.4682133" lon="6.7930685"><ele></ele><time>2022-5-31T9:33:47Z</time></trkpt>
<trkpt lat="43.4681707" lon="6.7930341"><ele></ele><time>2022-5-31T9:33:50Z</time></trkpt>
<trkpt lat="43.4681268" lon="6.7930071"><ele></ele><time>2022-5-31T9:33:53Z</time></trkpt>
<trkpt lat="43.4680860" lon="6.7929890"><ele></ele><time>2022-5-31T9:33:56Z</time></trkpt>
<trkpt lat="43.4680468" lon="6.7929686"><ele></ele><time>2022-5-31T9:33:59Z</time></trkpt>
<trkpt lat="43.4680075" lon="6.7929432"><ele></ele><time>2022-5-31T9:34:2Z</time></trkpt>
<trkpt lat="43.4679656" lon="6.7929184"><ele></ele><time>2022-5-31T9:34:5Z</time></trkpt>
<trkpt lat="43.4679201" lon="6.7929012"><ele></ele><time>2022-5-31T9:34:8Z</time></trkpt>
<trkpt lat="43.4678733" lon="6.7928836"><ele></ele><time>2022-5-31T9:34:11Z</time></trkpt>
<trkpt lat="43.4678288" lon="6.7928575"><ele></ele><time>2022-5-31T9:34:14Z</time></trkpt>
<trkpt lat="43.4677833" lon="6.7928378"><ele></ele><time>2022-5-31T9:34:17Z</time></trkpt>
<trkpt lat="43.4677363" lon="6.7928251"><ele></ele><time>2022-5-31T9:34:20Z</time></trkpt>
<trkpt lat="43.4676898" lon="6.7928116"><ele></ele><time>2022-5-31T9:34:23Z</time></trkpt>
<trkpt lat="43.4676461" lon="6.7927969"><ele></ele><time>2022-5-31T9:34:26Z</time></trkpt>
<trkpt lat="43.4676006" lon="6.7927891"><ele></ele><time>2022-5-31T9:34:29Z</time></trkpt>
<trkpt lat="43.4675520" lon="6.7927839"><ele></ele><time>2022-5-31T9:34:32Z</time></trkpt>
<trkpt lat="43.4675049" lon="6.7927804"><ele></ele><time>2022-5-31T9:34:35Z</time></trkpt>
<trkpt lat="43.4674610" lon="6.7927721"><ele></ele><time>2022-5-31T9:34:38Z</time></trkpt>
<trkpt lat="43.4674164" lon="6.7927625"><ele></ele><time>2022-5-31T9:34:41Z</time></trkpt>
<trkpt lat="43.4673732" lon="6.7927533"><ele></ele><time>2022-5-31T9:34:44Z</time></trkpt>
<trkpt lat="43.4673294" lon="6.7927380"><ele></ele><time>2022-5-31T9:34:47Z</time></trkpt>
<trkpt lat="43.4672869" lon="6.7927211"><ele></ele><time>2022-5-31T9:34:50Z</time></trkpt>
<trkpt lat="43.4672414" lon="6.7927064"><ele></ele><time>2022-5-31T9:34:53Z</time></trkpt>
<trkpt lat="43.4671969" lon="6.7926835"><ele></ele><time>2022-5-31T9:34:56Z</time></trkpt>
<trkpt lat="43.4671543" lon="6.7926594"><ele></ele><time>2022-5-31T9:34:59Z</time></trkpt>
<trkpt lat="43.4671112" lon="6.7926377"><ele></ele><time>2022-5-31T9:35:2Z</time></trkpt>
<trkpt lat="43.4670709" lon="6.7926160"><ele></ele><time>2022-5-31T9:35:5Z</time></trkpt>
<trkpt lat="43.4670324" lon="6.7925941"><ele></ele><time>2022-5-31T9:35:8Z</time></trkpt>
<trkpt lat="43.4669989" lon="6.7925628"><ele></ele><time>2022-5-31T9:35:11Z</time></trkpt>
<trkpt lat="43.4669652" lon="6.7925250"><ele></ele><time>2022-5-31T9:35:14Z</time></trkpt>
<trkpt lat="43.4669440" lon="6.7924839"><ele></ele><time>2022-5-31T9:35:17Z</time></trkpt>
<trkpt lat="43.4669355" lon="6.7924305"><ele></ele><time>2022-5-31T9:35:20Z</time></trkpt>
<trkpt lat="43.4669381" lon="6.7923757"><ele></ele><time>2022-5-31T9:35:23Z</time></trkpt>
<trkpt lat="43.4669571" lon="6.7923180"><ele></ele><time>2022-5-31T9:35:26Z</time></trkpt>
<trkpt lat="43.4669831" lon="6.7922666"><ele></ele><time>2022-5-31T9:35:29Z</time></trkpt>
<trkpt lat="43.4670125" lon="6.7922268"><ele></ele><time>2022-5-31T9:35:32Z</time></trkpt>
<trkpt lat="43.4670420" lon="6.7921928"><ele></ele><time>2022-5-31T9:35:35Z</time></trkpt>
<trkpt lat="43.4670784" lon="6.7921606"><ele></ele><time>2022-5-31T9:35:38Z</time></trkpt>
<trkpt lat="43.4671098" lon="6.7921390"><ele></ele><time>2022-5-31T9:35:41Z</time></trkpt>
<trkpt lat="43.4671415" lon="6.7921163"><ele></ele><time>2022-5-31T9:35:44Z</time></trkpt>
<trkpt lat="43.4671738" lon="6.7920934"><ele></ele><time>2022-5-31T9:35:47Z</time></trkpt>
<trkpt lat="43.4672065" lon="6.7920694"><ele></ele><time>2022-5-31T9:35:50Z</time></trkpt>
<trkpt lat="43.4672398" lon="6.7920470"><ele></ele><time>2022-5-31T9:35:53Z</time></trkpt>
<trkpt lat="43.4672748" lon="6.7920172"><ele></ele><time>2022-5-31T9:35:56Z</time></trkpt>
<trkpt lat="43.4672995" lon="6.7919800"><ele></ele><time>2022-5-31T9:35:59Z</time></trkpt>
<trkpt lat="43.4673205" lon="6.7919339"><ele></ele><time>2022-5-31T9:36:2Z</time></trkpt>
<trkpt lat="43.4673427" lon="6.7919013"><ele></ele><time>2022-5-31T9:36:5Z</time></trkpt>
<trkpt lat="43.4673621" lon="6.7918668"><ele></ele><time>2022-5-31T9:36:8Z</time></trkpt>
<trkpt lat="43.4673814" lon="6.7918299"><ele></ele><time>2022-5-31T9:36:11Z</time></trkpt>
<trkpt lat="43.4674010" lon="6.7917916"><ele></ele><time>2022-5-31T9:36:14Z</time></trkpt>
<trkpt lat="43.4674128" lon="6.7917492"><ele></ele><time>2022-5-31T9:36:17Z</time></trkpt>
<trkpt lat="43.4674130" lon="6.7917009"><ele></ele><time>2022-5-31T9:36:20Z</time></trkpt>
<trkpt lat="43.4674095" lon="6.7916535"><ele></ele><time>2022-5-31T9:36:23Z</time></trkpt>
<trkpt lat="43.4674055" lon="6.7916054"><ele></ele><time>2022-5-31T9:36:26Z</time></trkpt>
<trkpt lat="43.4673930" lon="6.7915660"><ele></ele><time>2022-5-31T9:36:29Z</time></trkpt>
<trkpt lat="43.4673813" lon="6.7915289"><ele></ele><time>2022-5-31T9:36:32Z</time></trkpt>
<trkpt lat="43.4673738" lon="6.7914814"><ele></ele><time>2022-5-31T9:36:35Z</time></trkpt>
<trkpt lat="43.4673652" lon="6.7914324"><ele></ele><time>2022-5-31T9:36:38Z</time></trkpt>
<trkpt lat="43.4673566" lon="6.7913877"><ele></ele><time>2022-5-31T9:36:41Z</time></trkpt>
<trkpt lat="43.4673474" lon="6.7913390"><ele></ele><time>2022-5-31T9:36:44Z</time></trkpt>
<trkpt lat="43.4673427" lon="6.7912855"><ele></ele><time>2022-5-31T9:36:47Z</time></trkpt>
<trkpt lat="43.4673381" lon="6.7912355"><ele></ele><time>2022-5-31T9:36:50Z</time></trkpt>
<trkpt lat="43.4673356" lon="6.7911886"><ele></ele><time>2022-5-31T9:36:53Z</time></trkpt>
<trkpt lat="43.4673349" lon="6.7911407"><ele></ele><time>2022-5-31T9:36:56Z</time></trkpt>
<trkpt lat="43.4673343" lon="6.7910920"><ele></ele><time>2022-5-31T9:36:59Z</time></trkpt>
<trkpt lat="43.4673308" lon="6.7910444"><ele></ele><time>2022-5-31T9:37:2Z</time></trkpt>
<trkpt lat="43.4673263" lon="6.7909937"><ele></ele><time>2022-5-31T9:37:5Z</time></trkpt>
<trkpt lat="43.4673211" lon="6.7909478"><ele></ele><time>2022-5-31T9:37:8Z</time></trkpt>
<trkpt lat="43.4673211" lon="6.7908990"><ele></ele><time>2022-5-31T9:37:11Z</time></trkpt>
<trkpt lat="43.4673213" lon="6.7908519"><ele></ele><time>2022-5-31T9:37:14Z</time></trkpt>
<trkpt lat="43.4673251" lon="6.7908109"><ele></ele><time>2022-5-31T9:37:17Z</time></trkpt>
<trkpt lat="43.4673303" lon="6.7907716"><ele></ele><time>2022-5-31T9:37:20Z</time></trkpt>
<trkpt lat="43.4673335" lon="6.7907441"><ele></ele><time>2022-5-31T9:37:23Z</time></trkpt>
<trkpt lat="43.4673374" lon="6.7907150"><ele></ele><time>2022-5-31T9:37:26Z</time></trkpt>
<trkpt lat="43.4673427" lon="6.7906901"><ele></ele><time>2022-5-31T9:37:29Z</time></trkpt>
<trkpt lat="43.4673523" lon="6.7906716"><ele></ele><time>2022-5-31T9:37:32Z</time></trkpt>
<trkpt lat="43.4673627" lon="6.7906583"><ele></ele><time>2022-5-31T9:37:35Z</time></trkpt>
<trkpt lat="43.4673729" lon="6.7906359"><ele></ele><time>2022-5-31T9:37:38Z</time></trkpt>
<trkpt lat="43.4673776" lon="6.7906210"><ele></ele><time>2022-5-31T9:37:41Z</time></trkpt>
<trkpt lat="43.4673819" lon="6.7906025"><ele></ele><time>2022-5-31T9:37:44Z</time></trkpt>
<trkpt lat="43.4673843" lon="6.7905744"><ele></ele><time>2022-5-31T9:37:47Z</time></trkpt>
<trkpt lat="43.4673823" lon="6.7905558"><ele></ele><time>2022-5-31T9:37:50Z</time></trkpt>
<trkpt lat="43.4673792" lon="6.7905432"><ele></ele><time>2022-5-31T9:37:53Z</time></trkpt>
<trkpt lat="43.4673802" lon="6.7905596"><ele></ele><time>2022-5-31T9:37:56Z</time></trkpt>
<trkpt lat="43.4673802" lon="6.7905611"><ele></ele><time>2022-5-31T9:37:59Z</time></trkpt>
<trkpt lat="43.4673806" lon="6.7905605"><ele></ele><time>2022-5-31T9:38:2Z</time></trkpt>
<trkpt lat="43.4673811" lon="6.7905605"><ele></ele><time>2022-5-31T9:38:5Z</time></trkpt>
<trkpt lat="43.4673816" lon="6.7905603"><ele></ele><time>2022-5-31T9:38:8Z</time></trkpt>
<trkpt lat="43.4673820" lon="6.7905602"><ele></ele><time>2022-5-31T9:38:11Z</time></trkpt>
<trkpt lat="43.4673822" lon="6.7905599"><ele></ele><time>2022-5-31T9:38:14Z</time></trkpt>
<trkpt lat="43.4673823" lon="6.7905599"><ele></ele><time>2022-5-31T9:38:17Z</time></trkpt>
<trkpt lat="43.4673825" lon="6.7905598"><ele></ele><time>2022-5-31T9:38:20Z</time></trkpt>
<trkpt lat="43.4673826" lon="6.7905602"><ele></ele><time>2022-5-31T9:38:23Z</time></trkpt>
<trkpt lat="43.4673828" lon="6.7905600"><ele></ele><time>2022-5-31T9:38:26Z</time></trkpt>
<trkpt lat="43.4673828" lon="6.7905596"><ele></ele><time>2022-5-31T9:38:29Z</time></trkpt>
<trkpt lat="43.4673831" lon="6.7905588"><ele></ele><time>2022-5-31T9:38:32Z</time></trkpt>
<trkpt lat="43.4673832" lon="6.7905585"><ele></ele><time>2022-5-31T9:38:35Z</time></trkpt>
<trkpt lat="43.4673833" lon="6.7905579"><ele></ele><time>2022-5-31T9:38:38Z</time></trkpt>
<trkpt lat="43.4673834" lon="6.7905577"><ele></ele><time>2022-5-31T9:38:41Z</time></trkpt>
<trkpt lat="43.4673835" lon="6.7905576"><ele></ele><time>2022-5-31T9:38:44Z</time></trkpt>
<trkpt lat="43.4673835" lon="6.7905574"><ele></ele><time>2022-5-31T9:38:47Z</time></trkpt>
<trkpt lat="43.4673836" lon="6.7905573"><ele></ele><time>2022-5-31T9:38:50Z</time></trkpt>
<trkpt lat="43.4673837" lon="6.7905574"><ele></ele><time>2022-5-31T9:38:53Z</time></trkpt>
<trkpt lat="43.4673837" lon="6.7905573"><ele></ele><time>2022-5-31T9:38:56Z</time></trkpt>
<trkpt lat="43.4673841" lon="6.7905560"><ele></ele><time>2022-5-31T9:38:59Z</time></trkpt>
<trkpt lat="43.4673840" lon="6.7905545"><ele></ele><time>2022-5-31T9:39:2Z</time></trkpt>
<trkpt lat="43.4673832" lon="6.7905517"><ele></ele><time>2022-5-31T9:39:5Z</time></trkpt>
<trkpt lat="43.4673741" lon="6.7905403"><ele></ele><time>2022-5-31T9:39:8Z</time></trkpt>
<trkpt lat="43.4673588" lon="6.7905296"><ele></ele><time>2022-5-31T9:39:11Z</time></trkpt>
<trkpt lat="43.4673383" lon="6.7905028"><ele></ele><time>2022-5-31T9:39:14Z</time></trkpt>
<trkpt lat="43.4673111" lon="6.7904714"><ele></ele><time>2022-5-31T9:39:17Z</time></trkpt>
<trkpt lat="43.4672899" lon="6.7904422"><ele></ele><time>2022-5-31T9:39:20Z</time></trkpt>
<trkpt lat="43.4672694" lon="6.7904086"><ele></ele><time>2022-5-31T9:39:23Z</time></trkpt>
<trkpt lat="43.4672474" lon="6.7903730"><ele></ele><time>2022-5-31T9:39:26Z</time></trkpt>
<trkpt lat="43.4672245" lon="6.7903331"><ele></ele><time>2022-5-31T9:39:29Z</time></trkpt>
<trkpt lat="43.4672002" lon="6.7902930"><ele></ele><time>2022-5-31T9:39:32Z</time></trkpt>
<trkpt lat="43.4671752" lon="6.7902579"><ele></ele><time>2022-5-31T9:39:35Z</time></trkpt>
<trkpt lat="43.4671482" lon="6.7902225"><ele></ele><time>2022-5-31T9:39:38Z</time></trkpt>
<trkpt lat="43.4671196" lon="6.7901876"><ele></ele><time>2022-5-31T9:39:41Z</time></trkpt>
<trkpt lat="43.4670914" lon="6.7901563"><ele></ele><time>2022-5-31T9:39:44Z</time></trkpt>
<trkpt lat="43.4670650" lon="6.7901311"><ele></ele><time>2022-5-31T9:39:47Z</time></trkpt>
<trkpt lat="43.4670394" lon="6.7901032"><ele></ele><time>2022-5-31T9:39:50Z</time></trkpt>
<trkpt lat="43.4670173" lon="6.7900694"><ele></ele><time>2022-5-31T9:39:53Z</time></trkpt>
<trkpt lat="43.4669962" lon="6.7900382"><ele></ele><time>2022-5-31T9:39:56Z</time></trkpt>
<trkpt lat="43.4669742" lon="6.7900052"><ele></ele><time>2022-5-31T9:39:59Z</time></trkpt>
<trkpt lat="43.4669532" lon="6.7899728"><ele></ele><time>2022-5-31T9:40:2Z</time></trkpt>
<trkpt lat="43.4669363" lon="6.7899394"><ele></ele><time>2022-5-31T9:40:5Z</time></trkpt>
<trkpt lat="43.4669224" lon="6.7898986"><ele></ele><time>2022-5-31T9:40:8Z</time></trkpt>
<trkpt lat="43.4669091" lon="6.7898617"><ele></ele><time>2022-5-31T9:40:11Z</time></trkpt>
<trkpt lat="43.4668938" lon="6.7898203"><ele></ele><time>2022-5-31T9:40:14Z</time></trkpt>
<trkpt lat="43.4668765" lon="6.7897813"><ele></ele><time>2022-5-31T9:40:17Z</time></trkpt>
<trkpt lat="43.4668576" lon="6.7897414"><ele></ele><time>2022-5-31T9:40:20Z</time></trkpt>
<trkpt lat="43.4668393" lon="6.7897019"><ele></ele><time>2022-5-31T9:40:23Z</time></trkpt>
<trkpt lat="43.4668236" lon="6.7896633"><ele></ele><time>2022-5-31T9:40:26Z</time></trkpt>
<trkpt lat="43.4668060" lon="6.7896201"><ele></ele><time>2022-5-31T9:40:29Z</time></trkpt>
<trkpt lat="43.4667840" lon="6.7895843"><ele></ele><time>2022-5-31T9:40:32Z</time></trkpt>
<trkpt lat="43.4667617" lon="6.7895489"><ele></ele><time>2022-5-31T9:40:35Z</time></trkpt>
<trkpt lat="43.4667401" lon="6.7895142"><ele></ele><time>2022-5-31T9:40:38Z</time></trkpt>
<trkpt lat="43.4667164" lon="6.7894771"><ele></ele><time>2022-5-31T9:40:41Z</time></trkpt>
<trkpt lat="43.4666919" lon="6.7894424"><ele></ele><time>2022-5-31T9:40:44Z</time></trkpt>
<trkpt lat="43.4666675" lon="6.7894100"><ele></ele><time>2022-5-31T9:40:47Z</time></trkpt>
<trkpt lat="43.4666366" lon="6.7893885"><ele></ele><time>2022-5-31T9:40:50Z</time></trkpt>
<trkpt lat="43.4666067" lon="6.7893687"><ele></ele><time>2022-5-31T9:40:53Z</time></trkpt>
<trkpt lat="43.4665772" lon="6.7893662"><ele></ele><time>2022-5-31T9:40:56Z</time></trkpt>
<trkpt lat="43.4665413" lon="6.7893712"><ele></ele><time>2022-5-31T9:40:59Z</time></trkpt>
<trkpt lat="43.4665057" lon="6.7893763"><ele></ele><time>2022-5-31T9:41:2Z</time></trkpt>
<trkpt lat="43.4664674" lon="6.7893769"><ele></ele><time>2022-5-31T9:41:5Z</time></trkpt>
<trkpt lat="43.4664346" lon="6.7893738"><ele></ele><time>2022-5-31T9:41:8Z</time></trkpt>
<trkpt lat="43.4664002" lon="6.7893726"><ele></ele><time>2022-5-31T9:41:11Z</time></trkpt>
<trkpt lat="43.4663702" lon="6.7893713"><ele></ele><time>2022-5-31T9:41:14Z</time></trkpt>
<trkpt lat="43.4663389" lon="6.7893710"><ele></ele><time>2022-5-31T9:41:17Z</time></trkpt>
<trkpt lat="43.4663079" lon="6.7893657"><ele></ele><time>2022-5-31T9:41:20Z</time></trkpt>
<trkpt lat="43.4662757" lon="6.7893603"><ele></ele><time>2022-5-31T9:41:23Z</time></trkpt>
<trkpt lat="43.4662433" lon="6.7893562"><ele></ele><time>2022-5-31T9:41:26Z</time></trkpt>
<trkpt lat="43.4662131" lon="6.7893538"><ele></ele><time>2022-5-31T9:41:29Z</time></trkpt>
<trkpt lat="43.4661811" lon="6.7893578"><ele></ele><time>2022-5-31T9:41:32Z</time></trkpt>
<trkpt lat="43.4661451" lon="6.7893585"><ele></ele><time>2022-5-31T9:41:35Z</time></trkpt>
<trkpt lat="43.4661099" lon="6.7893545"><ele></ele><time>2022-5-31T9:41:38Z</time></trkpt>
<trkpt lat="43.4660765" lon="6.7893503"><ele></ele><time>2022-5-31T9:41:41Z</time></trkpt>
<trkpt lat="43.4660511" lon="6.7893404"><ele></ele><time>2022-5-31T9:41:44Z</time></trkpt>
<trkpt lat="43.4660291" lon="6.7893358"><ele></ele><time>2022-5-31T9:41:47Z</time></trkpt>
<trkpt lat="43.4660149" lon="6.7893396"><ele></ele><time>2022-5-31T9:41:50Z</time></trkpt>
<trkpt lat="43.4659916" lon="6.7893444"><ele></ele><time>2022-5-31T9:41:53Z</time></trkpt>
<trkpt lat="43.4659647" lon="6.7893496"><ele></ele><time>2022-5-31T9:41:56Z</time></trkpt>
<trkpt lat="43.4659357" lon="6.7893473"><ele></ele><time>2022-5-31T9:41:59Z</time></trkpt>
<trkpt lat="43.4659074" lon="6.7893470"><ele></ele><time>2022-5-31T9:42:2Z</time></trkpt>
<trkpt lat="43.4658787" lon="6.7893532"><ele></ele><time>2022-5-31T9:42:5Z</time></trkpt>
<trkpt lat="43.4658476" lon="6.7893629"><ele></ele><time>2022-5-31T9:42:8Z</time></trkpt>
<trkpt lat="43.4658195" lon="6.7893763"><ele></ele><time>2022-5-31T9:42:11Z</time></trkpt>
<trkpt lat="43.4657908" lon="6.7893918"><ele></ele><time>2022-5-31T9:42:14Z</time></trkpt>
<trkpt lat="43.4657672" lon="6.7894104"><ele></ele><time>2022-5-31T9:42:17Z</time></trkpt>
<trkpt lat="43.4657396" lon="6.7894354"><ele></ele><time>2022-5-31T9:42:20Z</time></trkpt>
<trkpt lat="43.4657129" lon="6.7894697"><ele></ele><time>2022-5-31T9:42:23Z</time></trkpt>
<trkpt lat="43.4656946" lon="6.7895036"><ele></ele><time>2022-5-31T9:42:26Z</time></trkpt>
<trkpt lat="43.4656795" lon="6.7895404"><ele></ele><time>2022-5-31T9:42:29Z</time></trkpt>
<trkpt lat="43.4656662" lon="6.7895801"><ele></ele><time>2022-5-31T9:42:32Z</time></trkpt>
<trkpt lat="43.4656537" lon="6.7896192"><ele></ele><time>2022-5-31T9:42:35Z</time></trkpt>
<trkpt lat="43.4656390" lon="6.7896553"><ele></ele><time>2022-5-31T9:42:38Z</time></trkpt>
<trkpt lat="43.4656213" lon="6.7896939"><ele></ele><time>2022-5-31T9:42:41Z</time></trkpt>
<trkpt lat="43.4655938" lon="6.7897204"><ele></ele><time>2022-5-31T9:42:44Z</time></trkpt>
<trkpt lat="43.4655572" lon="6.7897265"><ele></ele><time>2022-5-31T9:42:47Z</time></trkpt>
<trkpt lat="43.4655161" lon="6.7897175"><ele></ele><time>2022-5-31T9:42:50Z</time></trkpt>
<trkpt lat="43.4654729" lon="6.7896997"><ele></ele><time>2022-5-31T9:42:53Z</time></trkpt>
<trkpt lat="43.4654287" lon="6.7896801"><ele></ele><time>2022-5-31T9:42:56Z</time></trkpt>
<trkpt lat="43.4653784" lon="6.7896576"><ele></ele><time>2022-5-31T9:42:59Z</time></trkpt>
<trkpt lat="43.4653249" lon="6.7896327"><ele></ele><time>2022-5-31T9:43:2Z</time></trkpt>
<trkpt lat="43.4652717" lon="6.7895981"><ele></ele><time>2022-5-31T9:43:5Z</time></trkpt>
<trkpt lat="43.4652169" lon="6.7895674"><ele></ele><time>2022-5-31T9:43:8Z</time></trkpt>
<trkpt lat="43.4651669" lon="6.7895365"><ele></ele><time>2022-5-31T9:43:11Z</time></trkpt>
<trkpt lat="43.4651208" lon="6.7895085"><ele></ele><time>2022-5-31T9:43:14Z</time></trkpt>
<trkpt lat="43.4650736" lon="6.7894836"><ele></ele><time>2022-5-31T9:43:17Z</time></trkpt>
<trkpt lat="43.4650220" lon="6.7894698"><ele></ele><time>2022-5-31T9:43:20Z</time></trkpt>
<trkpt lat="43.4649737" lon="6.7894498"><ele></ele><time>2022-5-31T9:43:23Z</time></trkpt>
<trkpt lat="43.4649305" lon="6.7894180"><ele></ele><time>2022-5-31T9:43:26Z</time></trkpt>
<trkpt lat="43.4648961" lon="6.7893716"><ele></ele><time>2022-5-31T9:43:29Z</time></trkpt>
<trkpt lat="43.4648697" lon="6.7893089"><ele></ele><time>2022-5-31T9:43:32Z</time></trkpt>
<trkpt lat="43.4648547" lon="6.7892434"><ele></ele><time>2022-5-31T9:43:35Z</time></trkpt>
<trkpt lat="43.4648482" lon="6.7891674"><ele></ele><time>2022-5-31T9:43:38Z</time></trkpt>
<trkpt lat="43.4648347" lon="6.7890891"><ele></ele><time>2022-5-31T9:43:41Z</time></trkpt>
<trkpt lat="43.4648132" lon="6.7890185"><ele></ele><time>2022-5-31T9:43:44Z</time></trkpt>
<trkpt lat="43.4647898" lon="6.7889553"><ele></ele><time>2022-5-31T9:43:47Z</time></trkpt>
<trkpt lat="43.4647682" lon="6.7888904"><ele></ele><time>2022-5-31T9:43:50Z</time></trkpt>
<trkpt lat="43.4647471" lon="6.7888282"><ele></ele><time>2022-5-31T9:43:53Z</time></trkpt>
<trkpt lat="43.4647279" lon="6.7887645"><ele></ele><time>2022-5-31T9:43:56Z</time></trkpt>
<trkpt lat="43.4647064" lon="6.7886957"><ele></ele><time>2022-5-31T9:43:59Z</time></trkpt>
<trkpt lat="43.4646838" lon="6.7886278"><ele></ele><time>2022-5-31T9:44:2Z</time></trkpt>
<trkpt lat="43.4646603" lon="6.7885579"><ele></ele><time>2022-5-31T9:44:5Z</time></trkpt>
<trkpt lat="43.4646373" lon="6.7884885"><ele></ele><time>2022-5-31T9:44:8Z</time></trkpt>
<trkpt lat="43.4646195" lon="6.7884210"><ele></ele><time>2022-5-31T9:44:11Z</time></trkpt>
<trkpt lat="43.4646031" lon="6.7883564"><ele></ele><time>2022-5-31T9:44:14Z</time></trkpt>
<trkpt lat="43.4645777" lon="6.7882950"><ele></ele><time>2022-5-31T9:44:17Z</time></trkpt>
<trkpt lat="43.4645542" lon="6.7882333"><ele></ele><time>2022-5-31T9:44:20Z</time></trkpt>
<trkpt lat="43.4645370" lon="6.7881662"><ele></ele><time>2022-5-31T9:44:23Z</time></trkpt>
<trkpt lat="43.4645157" lon="6.7880983"><ele></ele><time>2022-5-31T9:44:26Z</time></trkpt>
<trkpt lat="43.4644882" lon="6.7880367"><ele></ele><time>2022-5-31T9:44:29Z</time></trkpt>
<trkpt lat="43.4644605" lon="6.7879737"><ele></ele><time>2022-5-31T9:44:32Z</time></trkpt>
<trkpt lat="43.4644294" lon="6.7879122"><ele></ele><time>2022-5-31T9:44:35Z</time></trkpt>
<trkpt lat="43.4643938" lon="6.7878508"><ele></ele><time>2022-5-31T9:44:38Z</time></trkpt>
<trkpt lat="43.4643591" lon="6.7877946"><ele></ele><time>2022-5-31T9:44:41Z</time></trkpt>
<trkpt lat="43.4643218" lon="6.7877370"><ele></ele><time>2022-5-31T9:44:44Z</time></trkpt>
<trkpt lat="43.4642867" lon="6.7876798"><ele></ele><time>2022-5-31T9:44:47Z</time></trkpt>
<trkpt lat="43.4642497" lon="6.7876262"><ele></ele><time>2022-5-31T9:44:50Z</time></trkpt>
<trkpt lat="43.4642131" lon="6.7875755"><ele></ele><time>2022-5-31T9:44:53Z</time></trkpt>
<trkpt lat="43.4641776" lon="6.7875269"><ele></ele><time>2022-5-31T9:44:56Z</time></trkpt>
<trkpt lat="43.4641420" lon="6.7874748"><ele></ele><time>2022-5-31T9:44:59Z</time></trkpt>
<trkpt lat="43.4641037" lon="6.7874176"><ele></ele><time>2022-5-31T9:45:2Z</time></trkpt>
<trkpt lat="43.4640662" lon="6.7873570"><ele></ele><time>2022-5-31T9:45:5Z</time></trkpt>
<trkpt lat="43.4640285" lon="6.7872963"><ele></ele><time>2022-5-31T9:45:8Z</time></trkpt>
<trkpt lat="43.4639937" lon="6.7872328"><ele></ele><time>2022-5-31T9:45:11Z</time></trkpt>
<trkpt lat="43.4639544" lon="6.7871698"><ele></ele><time>2022-5-31T9:45:14Z</time></trkpt>
<trkpt lat="43.4639180" lon="6.7871110"><ele></ele><time>2022-5-31T9:45:17Z</time></trkpt>
<trkpt lat="43.4638808" lon="6.7870581"><ele></ele><time>2022-5-31T9:45:20Z</time></trkpt>
<trkpt lat="43.4638409" lon="6.7870107"><ele></ele><time>2022-5-31T9:45:23Z</time></trkpt>
<trkpt lat="43.4637997" lon="6.7869586"><ele></ele><time>2022-5-31T9:45:26Z</time></trkpt>
<trkpt lat="43.4637541" lon="6.7869048"><ele></ele><time>2022-5-31T9:45:29Z</time></trkpt>
<trkpt lat="43.4637029" lon="6.7868544"><ele></ele><time>2022-5-31T9:45:32Z</time></trkpt>
<trkpt lat="43.4636520" lon="6.7868170"><ele></ele><time>2022-5-31T9:45:35Z</time></trkpt>
<trkpt lat="43.4636066" lon="6.7867744"><ele></ele><time>2022-5-31T9:45:38Z</time></trkpt>
<trkpt lat="43.4635601" lon="6.7867355"><ele></ele><time>2022-5-31T9:45:41Z</time></trkpt>
<trkpt lat="43.4635113" lon="6.7866981"><ele></ele><time>2022-5-31T9:45:44Z</time></trkpt>
<trkpt lat="43.4634613" lon="6.7866546"><ele></ele><time>2022-5-31T9:45:47Z</time></trkpt>
<trkpt lat="43.4634107" lon="6.7866139"><ele></ele><time>2022-5-31T9:45:50Z</time></trkpt>
<trkpt lat="43.4633593" lon="6.7865836"><ele></ele><time>2022-5-31T9:45:53Z</time></trkpt>
<trkpt lat="43.4633022" lon="6.7865501"><ele></ele><time>2022-5-31T9:45:56Z</time></trkpt>
<trkpt lat="43.4632464" lon="6.7865157"><ele></ele><time>2022-5-31T9:45:59Z</time></trkpt>
<trkpt lat="43.4631944" lon="6.7864846"><ele></ele><time>2022-5-31T9:46:2Z</time></trkpt>
<trkpt lat="43.4631506" lon="6.7864441"><ele></ele><time>2022-5-31T9:46:5Z</time></trkpt>
<trkpt lat="43.4631056" lon="6.7864077"><ele></ele><time>2022-5-31T9:46:8Z</time></trkpt>
<trkpt lat="43.4630626" lon="6.7863711"><ele></ele><time>2022-5-31T9:46:11Z</time></trkpt>
<trkpt lat="43.4630274" lon="6.7863309"><ele></ele><time>2022-5-31T9:46:14Z</time></trkpt>
<trkpt lat="43.4629928" lon="6.7862867"><ele></ele><time>2022-5-31T9:46:17Z</time></trkpt>
<trkpt lat="43.4629526" lon="6.7862565"><ele></ele><time>2022-5-31T9:46:20Z</time></trkpt>
<trkpt lat="43.4629117" lon="6.7862256"><ele></ele><time>2022-5-31T9:46:23Z</time></trkpt>
<trkpt lat="43.4628688" lon="6.7861935"><ele></ele><time>2022-5-31T9:46:26Z</time></trkpt>
<trkpt lat="43.4628245" lon="6.7861618"><ele></ele><time>2022-5-31T9:46:29Z</time></trkpt>
<trkpt lat="43.4627843" lon="6.7861309"><ele></ele><time>2022-5-31T9:46:32Z</time></trkpt>
<trkpt lat="43.4627402" lon="6.7860976"><ele></ele><time>2022-5-31T9:46:35Z</time></trkpt>
<trkpt lat="43.4626981" lon="6.7860478"><ele></ele><time>2022-5-31T9:46:38Z</time></trkpt>
<trkpt lat="43.4626699" lon="6.7859857"><ele></ele><time>2022-5-31T9:46:41Z</time></trkpt>
<trkpt lat="43.4626354" lon="6.7859410"><ele></ele><time>2022-5-31T9:46:44Z</time></trkpt>
<trkpt lat="43.4626003" lon="6.7858874"><ele></ele><time>2022-5-31T9:46:47Z</time></trkpt>
<trkpt lat="43.4625765" lon="6.7858179"><ele></ele><time>2022-5-31T9:46:50Z</time></trkpt>
<trkpt lat="43.4625450" lon="6.7857405"><ele></ele><time>2022-5-31T9:46:53Z</time></trkpt>
<trkpt lat="43.4625095" lon="6.7856755"><ele></ele><time>2022-5-31T9:46:56Z</time></trkpt>
<trkpt lat="43.4624767" lon="6.7856048"><ele></ele><time>2022-5-31T9:46:59Z</time></trkpt>
<trkpt lat="43.4624505" lon="6.7855243"><ele></ele><time>2022-5-31T9:47:2Z</time></trkpt>
<trkpt lat="43.4624248" lon="6.7854316"><ele></ele><time>2022-5-31T9:47:5Z</time></trkpt>
<trkpt lat="43.4623923" lon="6.7853397"><ele></ele><time>2022-5-31T9:47:8Z</time></trkpt>
<trkpt lat="43.4623574" lon="6.7852624"><ele></ele><time>2022-5-31T9:47:11Z</time></trkpt>
<trkpt lat="43.4623143" lon="6.7851834"><ele></ele><time>2022-5-31T9:47:14Z</time></trkpt>
<trkpt lat="43.4622577" lon="6.7851108"><ele></ele><time>2022-5-31T9:47:17Z</time></trkpt>
<trkpt lat="43.4621992" lon="6.7850444"><ele></ele><time>2022-5-31T9:47:20Z</time></trkpt>
<trkpt lat="43.4621291" lon="6.7849876"><ele></ele><time>2022-5-31T9:47:23Z</time></trkpt>
<trkpt lat="43.4620547" lon="6.7849360"><ele></ele><time>2022-5-31T9:47:26Z</time></trkpt>
<trkpt lat="43.4619810" lon="6.7848809"><ele></ele><time>2022-5-31T9:47:29Z</time></trkpt>
<trkpt lat="43.4619043" lon="6.7848264"><ele></ele><time>2022-5-31T9:47:32Z</time></trkpt>
<trkpt lat="43.4618300" lon="6.7847661"><ele></ele><time>2022-5-31T9:47:35Z</time></trkpt>
<trkpt lat="43.4617566" lon="6.7846988"><ele></ele><time>2022-5-31T9:47:38Z</time></trkpt>
<trkpt lat="43.4616896" lon="6.7846140"><ele></ele><time>2022-5-31T9:47:41Z</time></trkpt>
<trkpt lat="43.4616233" lon="6.7845284"><ele></ele><time>2022-5-31T9:47:44Z</time></trkpt>
<trkpt lat="43.4615481" lon="6.7844534"><ele></ele><time>2022-5-31T9:47:47Z</time></trkpt>
<trkpt lat="43.4614681" lon="6.7844001"><ele></ele><time>2022-5-31T9:47:50Z</time></trkpt>
<trkpt lat="43.4613814" lon="6.7843560"><ele></ele><time>2022-5-31T9:47:53Z</time></trkpt>
<trkpt lat="43.4612924" lon="6.7843238"><ele></ele><time>2022-5-31T9:47:56Z</time></trkpt>
<trkpt lat="43.4612060" lon="6.7842867"><ele></ele><time>2022-5-31T9:47:59Z</time></trkpt>
<trkpt lat="43.4611210" lon="6.7842473"><ele></ele><time>2022-5-31T9:48:2Z</time></trkpt>
<trkpt lat="43.4610378" lon="6.7842045"><ele></ele><time>2022-5-31T9:48:5Z</time></trkpt>
<trkpt lat="43.4609543" lon="6.7841662"><ele></ele><time>2022-5-31T9:48:8Z</time></trkpt>
<trkpt lat="43.4608718" lon="6.7841226"><ele></ele><time>2022-5-31T9:48:11Z</time></trkpt>
<trkpt lat="43.4607905" lon="6.7840765"><ele></ele><time>2022-5-31T9:48:14Z</time></trkpt>
<trkpt lat="43.4607101" lon="6.7840391"><ele></ele><time>2022-5-31T9:48:17Z</time></trkpt>
<trkpt lat="43.4606293" lon="6.7840198"><ele></ele><time>2022-5-31T9:48:20Z</time></trkpt>
<trkpt lat="43.4605491" lon="6.7839982"><ele></ele><time>2022-5-31T9:48:23Z</time></trkpt>
<trkpt lat="43.4604690" lon="6.7839735"><ele></ele><time>2022-5-31T9:48:26Z</time></trkpt>
<trkpt lat="43.4603890" lon="6.7839447"><ele></ele><time>2022-5-31T9:48:29Z</time></trkpt>
<trkpt lat="43.4603098" lon="6.7839131"><ele></ele><time>2022-5-31T9:48:32Z</time></trkpt>
<trkpt lat="43.4602312" lon="6.7838817"><ele></ele><time>2022-5-31T9:48:35Z</time></trkpt>
<trkpt lat="43.4601522" lon="6.7838581"><ele></ele><time>2022-5-31T9:48:38Z</time></trkpt>
<trkpt lat="43.4600746" lon="6.7838296"><ele></ele><time>2022-5-31T9:48:41Z</time></trkpt>
<trkpt lat="43.4599974" lon="6.7837959"><ele></ele><time>2022-5-31T9:48:44Z</time></trkpt>
<trkpt lat="43.4599207" lon="6.7837644"><ele></ele><time>2022-5-31T9:48:47Z</time></trkpt>
<trkpt lat="43.4598439" lon="6.7837423"><ele></ele><time>2022-5-31T9:48:50Z</time></trkpt>
<trkpt lat="43.4597685" lon="6.7837197"><ele></ele><time>2022-5-31T9:48:53Z</time></trkpt>
<trkpt lat="43.4596951" lon="6.7836916"><ele></ele><time>2022-5-31T9:48:56Z</time></trkpt>
<trkpt lat="43.4596230" lon="6.7836635"><ele></ele><time>2022-5-31T9:48:59Z</time></trkpt>
<trkpt lat="43.4595504" lon="6.7836336"><ele></ele><time>2022-5-31T9:49:2Z</time></trkpt>
<trkpt lat="43.4594773" lon="6.7836095"><ele></ele><time>2022-5-31T9:49:5Z</time></trkpt>
<trkpt lat="43.4594046" lon="6.7835841"><ele></ele><time>2022-5-31T9:49:8Z</time></trkpt>
<trkpt lat="43.4593308" lon="6.7835594"><ele></ele><time>2022-5-31T9:49:11Z</time></trkpt>
<trkpt lat="43.4592566" lon="6.7835357"><ele></ele><time>2022-5-31T9:49:14Z</time></trkpt>
<trkpt lat="43.4591807" lon="6.7835199"><ele></ele><time>2022-5-31T9:49:17Z</time></trkpt>
<trkpt lat="43.4591037" lon="6.7835024"><ele></ele><time>2022-5-31T9:49:20Z</time></trkpt>
<trkpt lat="43.4590307" lon="6.7834634"><ele></ele><time>2022-5-31T9:49:23Z</time></trkpt>
<trkpt lat="43.4589535" lon="6.7834202"><ele></ele><time>2022-5-31T9:49:26Z</time></trkpt>
<trkpt lat="43.4588724" lon="6.7833826"><ele></ele><time>2022-5-31T9:49:29Z</time></trkpt>
<trkpt lat="43.4587910" lon="6.7833479"><ele></ele><time>2022-5-31T9:49:32Z</time></trkpt>
<trkpt lat="43.4587083" lon="6.7833109"><ele></ele><time>2022-5-31T9:49:35Z</time></trkpt>
<trkpt lat="43.4586223" lon="6.7832784"><ele></ele><time>2022-5-31T9:49:38Z</time></trkpt>
<trkpt lat="43.4585344" lon="6.7832448"><ele></ele><time>2022-5-31T9:49:41Z</time></trkpt>
<trkpt lat="43.4584437" lon="6.7832112"><ele></ele><time>2022-5-31T9:49:44Z</time></trkpt>
<trkpt lat="43.4583530" lon="6.7831762"><ele></ele><time>2022-5-31T9:49:47Z</time></trkpt>
<trkpt lat="43.4582644" lon="6.7831415"><ele></ele><time>2022-5-31T9:49:50Z</time></trkpt>
<trkpt lat="43.4581745" lon="6.7831132"><ele></ele><time>2022-5-31T9:49:53Z</time></trkpt>
<trkpt lat="43.4580824" lon="6.7830838"><ele></ele><time>2022-5-31T9:49:56Z</time></trkpt>
<trkpt lat="43.4579851" lon="6.7830591"><ele></ele><time>2022-5-31T9:49:59Z</time></trkpt>
<trkpt lat="43.4578915" lon="6.7830270"><ele></ele><time>2022-5-31T9:50:2Z</time></trkpt>
<trkpt lat="43.4577977" lon="6.7830085"><ele></ele><time>2022-5-31T9:50:5Z</time></trkpt>
<trkpt lat="43.4577039" lon="6.7829931"><ele></ele><time>2022-5-31T9:50:8Z</time></trkpt>
<trkpt lat="43.4576012" lon="6.7830118"><ele></ele><time>2022-5-31T9:50:11Z</time></trkpt>
<trkpt lat="43.4575013" lon="6.7830036"><ele></ele><time>2022-5-31T9:50:14Z</time></trkpt>
<trkpt lat="43.4574094" lon="6.7829608"><ele></ele><time>2022-5-31T9:50:17Z</time></trkpt>
<trkpt lat="43.4573098" lon="6.7829544"><ele></ele><time>2022-5-31T9:50:20Z</time></trkpt>
<trkpt lat="43.4572128" lon="6.7829596"><ele></ele><time>2022-5-31T9:50:23Z</time></trkpt>
<trkpt lat="43.4571156" lon="6.7829774"><ele></ele><time>2022-5-31T9:50:26Z</time></trkpt>
<trkpt lat="43.4570170" lon="6.7829929"><ele></ele><time>2022-5-31T9:50:29Z</time></trkpt>
<trkpt lat="43.4569138" lon="6.7829871"><ele></ele><time>2022-5-31T9:50:32Z</time></trkpt>
<trkpt lat="43.4568099" lon="6.7829893"><ele></ele><time>2022-5-31T9:50:35Z</time></trkpt>
<trkpt lat="43.4567083" lon="6.7829985"><ele></ele><time>2022-5-31T9:50:38Z</time></trkpt>
<trkpt lat="43.4566104" lon="6.7830298"><ele></ele><time>2022-5-31T9:50:41Z</time></trkpt>
<trkpt lat="43.4565162" lon="6.7830746"><ele></ele><time>2022-5-31T9:50:44Z</time></trkpt>
<trkpt lat="43.4564240" lon="6.7830976"><ele></ele><time>2022-5-31T9:50:47Z</time></trkpt>
<trkpt lat="43.4563372" lon="6.7831110"><ele></ele><time>2022-5-31T9:50:50Z</time></trkpt>
<trkpt lat="43.4562506" lon="6.7831156"><ele></ele><time>2022-5-31T9:50:53Z</time></trkpt>
<trkpt lat="43.4561656" lon="6.7831170"><ele></ele><time>2022-5-31T9:50:56Z</time></trkpt>
<trkpt lat="43.4560819" lon="6.7831108"><ele></ele><time>2022-5-31T9:50:59Z</time></trkpt>
<trkpt lat="43.4559971" lon="6.7830907"><ele></ele><time>2022-5-31T9:51:2Z</time></trkpt>
<trkpt lat="43.4559202" lon="6.7830435"><ele></ele><time>2022-5-31T9:51:5Z</time></trkpt>
<trkpt lat="43.4558470" lon="6.7829987"><ele></ele><time>2022-5-31T9:51:8Z</time></trkpt>
<trkpt lat="43.4557751" lon="6.7829603"><ele></ele><time>2022-5-31T9:51:11Z</time></trkpt>
<trkpt lat="43.4557152" lon="6.7829013"><ele></ele><time>2022-5-31T9:51:14Z</time></trkpt>
<trkpt lat="43.4556504" lon="6.7828492"><ele></ele><time>2022-5-31T9:51:17Z</time></trkpt>
<trkpt lat="43.4555802" lon="6.7828067"><ele></ele><time>2022-5-31T9:51:20Z</time></trkpt>
<trkpt lat="43.4555129" lon="6.7827487"><ele></ele><time>2022-5-31T9:51:23Z</time></trkpt>
<trkpt lat="43.4554436" lon="6.7826835"><ele></ele><time>2022-5-31T9:51:26Z</time></trkpt>
<trkpt lat="43.4553548" lon="6.7826438"><ele></ele><time>2022-5-31T9:51:29Z</time></trkpt>
<trkpt lat="43.4552846" lon="6.7825687"><ele></ele><time>2022-5-31T9:51:32Z</time></trkpt>
<trkpt lat="43.4552075" lon="6.7825095"><ele></ele><time>2022-5-31T9:51:35Z</time></trkpt>
<trkpt lat="43.4551283" lon="6.7824481"><ele></ele><time>2022-5-31T9:51:38Z</time></trkpt>
<trkpt lat="43.4550514" lon="6.7823870"><ele></ele><time>2022-5-31T9:51:41Z</time></trkpt>
<trkpt lat="43.4549762" lon="6.7823208"><ele></ele><time>2022-5-31T9:51:44Z</time></trkpt>
<trkpt lat="43.4549011" lon="6.7822661"><ele></ele><time>2022-5-31T9:51:47Z</time></trkpt>
<trkpt lat="43.4548271" lon="6.7822147"><ele></ele><time>2022-5-31T9:51:50Z</time></trkpt>
<trkpt lat="43.4547530" lon="6.7821507"><ele></ele><time>2022-5-31T9:51:53Z</time></trkpt>
<trkpt lat="43.4546727" lon="6.7820997"><ele></ele><time>2022-5-31T9:51:56Z</time></trkpt>
<trkpt lat="43.4545928" lon="6.7820503"><ele></ele><time>2022-5-31T9:51:59Z</time></trkpt>
<trkpt lat="43.4545171" lon="6.7819999"><ele></ele><time>2022-5-31T9:52:2Z</time></trkpt>
<trkpt lat="43.4544406" lon="6.7819524"><ele></ele><time>2022-5-31T9:52:5Z</time></trkpt>
<trkpt lat="43.4543650" lon="6.7819013"><ele></ele><time>2022-5-31T9:52:8Z</time></trkpt>
<trkpt lat="43.4542940" lon="6.7818408"><ele></ele><time>2022-5-31T9:52:11Z</time></trkpt>
<trkpt lat="43.4542246" lon="6.7817814"><ele></ele><time>2022-5-31T9:52:14Z</time></trkpt>
<trkpt lat="43.4541603" lon="6.7817231"><ele></ele><time>2022-5-31T9:52:17Z</time></trkpt>
<trkpt lat="43.4540889" lon="6.7816856"><ele></ele><time>2022-5-31T9:52:20Z</time></trkpt>
<trkpt lat="43.4540208" lon="6.7816348"><ele></ele><time>2022-5-31T9:52:23Z</time></trkpt>
<trkpt lat="43.4539505" lon="6.7815854"><ele></ele><time>2022-5-31T9:52:26Z</time></trkpt>
<trkpt lat="43.4538764" lon="6.7815481"><ele></ele><time>2022-5-31T9:52:29Z</time></trkpt>
<trkpt lat="43.4538065" lon="6.7815011"><ele></ele><time>2022-5-31T9:52:32Z</time></trkpt>
<trkpt lat="43.4537268" lon="6.7814739"><ele></ele><time>2022-5-31T9:52:35Z</time></trkpt>
<trkpt lat="43.4536487" lon="6.7814313"><ele></ele><time>2022-5-31T9:52:38Z</time></trkpt>
<trkpt lat="43.4535674" lon="6.7813968"><ele></ele><time>2022-5-31T9:52:41Z</time></trkpt>
<trkpt lat="43.4534931" lon="6.7813501"><ele></ele><time>2022-5-31T9:52:44Z</time></trkpt>
<trkpt lat="43.4534169" lon="6.7813123"><ele></ele><time>2022-5-31T9:52:47Z</time></trkpt>
<trkpt lat="43.4533352" lon="6.7812744"><ele></ele><time>2022-5-31T9:52:50Z</time></trkpt>
<trkpt lat="43.4532481" lon="6.7812521"><ele></ele><time>2022-5-31T9:52:53Z</time></trkpt>
<trkpt lat="43.4531625" lon="6.7812247"><ele></ele><time>2022-5-31T9:52:56Z</time></trkpt>
<trkpt lat="43.4530723" lon="6.7812075"><ele></ele><time>2022-5-31T9:52:59Z</time></trkpt>
<trkpt lat="43.4529850" lon="6.7811840"><ele></ele><time>2022-5-31T9:53:2Z</time></trkpt>
<trkpt lat="43.4529010" lon="6.7811577"><ele></ele><time>2022-5-31T9:53:5Z</time></trkpt>
<trkpt lat="43.4528175" lon="6.7811239"><ele></ele><time>2022-5-31T9:53:8Z</time></trkpt>
<trkpt lat="43.4527312" lon="6.7810878"><ele></ele><time>2022-5-31T9:53:11Z</time></trkpt>
<trkpt lat="43.4526451" lon="6.7810531"><ele></ele><time>2022-5-31T9:53:14Z</time></trkpt>
<trkpt lat="43.4525577" lon="6.7810253"><ele></ele><time>2022-5-31T9:53:17Z</time></trkpt>
<trkpt lat="43.4524693" lon="6.7810087"><ele></ele><time>2022-5-31T9:53:20Z</time></trkpt>
<trkpt lat="43.4523876" lon="6.7809889"><ele></ele><time>2022-5-31T9:53:23Z</time></trkpt>
<trkpt lat="43.4523133" lon="6.7809727"><ele></ele><time>2022-5-31T9:53:26Z</time></trkpt>
<trkpt lat="43.4522453" lon="6.7809644"><ele></ele><time>2022-5-31T9:53:29Z</time></trkpt>
<trkpt lat="43.4521782" lon="6.7809612"><ele></ele><time>2022-5-31T9:53:32Z</time></trkpt>
<trkpt lat="43.4521132" lon="6.7809453"><ele></ele><time>2022-5-31T9:53:35Z</time></trkpt>
<trkpt lat="43.4520509" lon="6.7809207"><ele></ele><time>2022-5-31T9:53:38Z</time></trkpt>
<trkpt lat="43.4519956" lon="6.7809297"><ele></ele><time>2022-5-31T9:53:41Z</time></trkpt>
<trkpt lat="43.4519492" lon="6.7809610"><ele></ele><time>2022-5-31T9:53:44Z</time></trkpt>
<trkpt lat="43.4519410" lon="6.7810253"><ele></ele><time>2022-5-31T9:53:47Z</time></trkpt>
<trkpt lat="43.4519725" lon="6.7810757"><ele></ele><time>2022-5-31T9:53:50Z</time></trkpt>
<trkpt lat="43.4520283" lon="6.7811045"><ele></ele><time>2022-5-31T9:53:53Z</time></trkpt>
<trkpt lat="43.4520754" lon="6.7811403"><ele></ele><time>2022-5-31T9:53:56Z</time></trkpt>
<trkpt lat="43.4521109" lon="6.7811932"><ele></ele><time>2022-5-31T9:53:59Z</time></trkpt>
<trkpt lat="43.4521415" lon="6.7812438"><ele></ele><time>2022-5-31T9:54:2Z</time></trkpt>
<trkpt lat="43.4521760" lon="6.7812914"><ele></ele><time>2022-5-31T9:54:5Z</time></trkpt>
<trkpt lat="43.4522112" lon="6.7813558"><ele></ele><time>2022-5-31T9:54:8Z</time></trkpt>
<trkpt lat="43.4522405" lon="6.7814197"><ele></ele><time>2022-5-31T9:54:11Z</time></trkpt>
<trkpt lat="43.4522705" lon="6.7814843"><ele></ele><time>2022-5-31T9:54:14Z</time></trkpt>
<trkpt lat="43.4523005" lon="6.7815456"><ele></ele><time>2022-5-31T9:54:17Z</time></trkpt>
<trkpt lat="43.4523272" lon="6.7816109"><ele></ele><time>2022-5-31T9:54:20Z</time></trkpt>
<trkpt lat="43.4523522" lon="6.7816735"><ele></ele><time>2022-5-31T9:54:23Z</time></trkpt>
<trkpt lat="43.4523825" lon="6.7817305"><ele></ele><time>2022-5-31T9:54:26Z</time></trkpt>
<trkpt lat="43.4524117" lon="6.7817866"><ele></ele><time>2022-5-31T9:54:29Z</time></trkpt>
<trkpt lat="43.4524358" lon="6.7818468"><ele></ele><time>2022-5-31T9:54:32Z</time></trkpt>
<trkpt lat="43.4524603" lon="6.7819019"><ele></ele><time>2022-5-31T9:54:35Z</time></trkpt>
<trkpt lat="43.4524902" lon="6.7819639"><ele></ele><time>2022-5-31T9:54:38Z</time></trkpt>
<trkpt lat="43.4525189" lon="6.7820229"><ele></ele><time>2022-5-31T9:54:41Z</time></trkpt>
<trkpt lat="43.4525446" lon="6.7820759"><ele></ele><time>2022-5-31T9:54:44Z</time></trkpt>
<trkpt lat="43.4525726" lon="6.7821308"><ele></ele><time>2022-5-31T9:54:47Z</time></trkpt>
<trkpt lat="43.4526074" lon="6.7821938"><ele></ele><time>2022-5-31T9:54:50Z</time></trkpt>
<trkpt lat="43.4526339" lon="6.7822502"><ele></ele><time>2022-5-31T9:54:53Z</time></trkpt>
<trkpt lat="43.4526620" lon="6.7823092"><ele></ele><time>2022-5-31T9:54:56Z</time></trkpt>
<trkpt lat="43.4526909" lon="6.7823656"><ele></ele><time>2022-5-31T9:54:59Z</time></trkpt>
<trkpt lat="43.4527172" lon="6.7824277"><ele></ele><time>2022-5-31T9:55:2Z</time></trkpt>
<trkpt lat="43.4527442" lon="6.7824816"><ele></ele><time>2022-5-31T9:55:5Z</time></trkpt>
<trkpt lat="43.4527665" lon="6.7825373"><ele></ele><time>2022-5-31T9:55:8Z</time></trkpt>
<trkpt lat="43.4527896" lon="6.7825913"><ele></ele><time>2022-5-31T9:55:11Z</time></trkpt>
<trkpt lat="43.4528179" lon="6.7826462"><ele></ele><time>2022-5-31T9:55:14Z</time></trkpt>
<trkpt lat="43.4528402" lon="6.7826953"><ele></ele><time>2022-5-31T9:55:17Z</time></trkpt>
<trkpt lat="43.4528610" lon="6.7827410"><ele></ele><time>2022-5-31T9:55:20Z</time></trkpt>
<trkpt lat="43.4528764" lon="6.7827888"><ele></ele><time>2022-5-31T9:55:23Z</time></trkpt>
<trkpt lat="43.4528949" lon="6.7828362"><ele></ele><time>2022-5-31T9:55:26Z</time></trkpt>
<trkpt lat="43.4529132" lon="6.7828830"><ele></ele><time>2022-5-31T9:55:29Z</time></trkpt>
<trkpt lat="43.4529307" lon="6.7829266"><ele></ele><time>2022-5-31T9:55:32Z</time></trkpt>
<trkpt lat="43.4529473" lon="6.7829763"><ele></ele><time>2022-5-31T9:55:35Z</time></trkpt>
<trkpt lat="43.4529682" lon="6.7830332"><ele></ele><time>2022-5-31T9:55:38Z</time></trkpt>
<trkpt lat="43.4529902" lon="6.7830936"><ele></ele><time>2022-5-31T9:55:41Z</time></trkpt>
<trkpt lat="43.4530164" lon="6.7831538"><ele></ele><time>2022-5-31T9:55:44Z</time></trkpt>
<trkpt lat="43.4530417" lon="6.7832116"><ele></ele><time>2022-5-31T9:55:47Z</time></trkpt>
<trkpt lat="43.4530672" lon="6.7832629"><ele></ele><time>2022-5-31T9:55:50Z</time></trkpt>
<trkpt lat="43.4530907" lon="6.7833062"><ele></ele><time>2022-5-31T9:55:53Z</time></trkpt>
<trkpt lat="43.4531038" lon="6.7833400"><ele></ele><time>2022-5-31T9:55:56Z</time></trkpt>
<trkpt lat="43.4531055" lon="6.7833604"><ele></ele><time>2022-5-31T9:55:59Z</time></trkpt>
<trkpt lat="43.4531021" lon="6.7833857"><ele></ele><time>2022-5-31T9:56:2Z</time></trkpt>
<trkpt lat="43.4530983" lon="6.7834230"><ele></ele><time>2022-5-31T9:56:5Z</time></trkpt>
<trkpt lat="43.4530943" lon="6.7834681"><ele></ele><time>2022-5-31T9:56:8Z</time></trkpt>
<trkpt lat="43.4530786" lon="6.7835124"><ele></ele><time>2022-5-31T9:56:11Z</time></trkpt>
<trkpt lat="43.4530464" lon="6.7835324"><ele></ele><time>2022-5-31T9:56:14Z</time></trkpt>
<trkpt lat="43.4530077" lon="6.7835114"><ele></ele><time>2022-5-31T9:56:17Z</time></trkpt>
<trkpt lat="43.4529695" lon="6.7834802"><ele></ele><time>2022-5-31T9:56:20Z</time></trkpt>
<trkpt lat="43.4529501" lon="6.7834276"><ele></ele><time>2022-5-31T9:56:23Z</time></trkpt>
<trkpt lat="43.4529289" lon="6.7833738"><ele></ele><time>2022-5-31T9:56:26Z</time></trkpt>
<trkpt lat="43.4529056" lon="6.7833364"><ele></ele><time>2022-5-31T9:56:29Z</time></trkpt>
<trkpt lat="43.4528903" lon="6.7832860"><ele></ele><time>2022-5-31T9:56:32Z</time></trkpt>
<trkpt lat="43.4528737" lon="6.7832472"><ele></ele><time>2022-5-31T9:56:35Z</time></trkpt>
<trkpt lat="43.4528609" lon="6.7832324"><ele></ele><time>2022-5-31T9:56:38Z</time></trkpt>
<trkpt lat="43.4528353" lon="6.7832052"><ele></ele><time>2022-5-31T9:56:41Z</time></trkpt>
<trkpt lat="43.4528131" lon="6.7831631"><ele></ele><time>2022-5-31T9:56:44Z</time></trkpt>
<trkpt lat="43.4528004" lon="6.7831213"><ele></ele><time>2022-5-31T9:56:47Z</time></trkpt>
<trkpt lat="43.4527825" lon="6.7830783"><ele></ele><time>2022-5-31T9:56:50Z</time></trkpt>
<trkpt lat="43.4527549" lon="6.7830465"><ele></ele><time>2022-5-31T9:56:53Z</time></trkpt>
<trkpt lat="43.4527250" lon="6.7830230"><ele></ele><time>2022-5-31T9:56:56Z</time></trkpt>
<trkpt lat="43.4526969" lon="6.7830027"><ele></ele><time>2022-5-31T9:56:59Z</time></trkpt>
<trkpt lat="43.4526674" lon="6.7829871"><ele></ele><time>2022-5-31T9:57:2Z</time></trkpt>
<trkpt lat="43.4526391" lon="6.7829915"><ele></ele><time>2022-5-31T9:57:5Z</time></trkpt>
<trkpt lat="43.4526176" lon="6.7829921"><ele></ele><time>2022-5-31T9:57:8Z</time></trkpt>
<trkpt lat="43.4526107" lon="6.7829923"><ele></ele><time>2022-5-31T9:57:11Z</time></trkpt>
<trkpt lat="43.4526005" lon="6.7829960"><ele></ele><time>2022-5-31T9:57:14Z</time></trkpt>
<trkpt lat="43.4525888" lon="6.7829955"><ele></ele><time>2022-5-31T9:57:17Z</time></trkpt>
<trkpt lat="43.4525869" lon="6.7829833"><ele></ele><time>2022-5-31T9:57:20Z</time></trkpt>
<trkpt lat="43.4525869" lon="6.7829783"><ele></ele><time>2022-5-31T9:57:23Z</time></trkpt>
<trkpt lat="43.4525854" lon="6.7829845"><ele></ele><time>2022-5-31T9:57:26Z</time></trkpt>
<trkpt lat="43.4525853" lon="6.7829857"><ele></ele><time>2022-5-31T9:57:29Z</time></trkpt>
<trkpt lat="43.4525855" lon="6.7829868"><ele></ele><time>2022-5-31T9:57:32Z</time></trkpt>
<trkpt lat="43.4525857" lon="6.7829863"><ele></ele><time>2022-5-31T9:57:35Z</time></trkpt>
<trkpt lat="43.4525857" lon="6.7829868"><ele></ele><time>2022-5-31T9:57:38Z</time></trkpt>
<trkpt lat="43.4525859" lon="6.7829866"><ele></ele><time>2022-5-31T9:57:41Z</time></trkpt>
<trkpt lat="43.4525859" lon="6.7829869"><ele></ele><time>2022-5-31T9:57:44Z</time></trkpt>
<trkpt lat="43.4525858" lon="6.7829876"><ele></ele><time>2022-5-31T9:57:47Z</time></trkpt>
<trkpt lat="43.4525854" lon="6.7829885"><ele></ele><time>2022-5-31T9:57:50Z</time></trkpt>
<trkpt lat="43.4525850" lon="6.7829886"><ele></ele><time>2022-5-31T9:57:53Z</time></trkpt>
<trkpt lat="43.4525848" lon="6.7829889"><ele></ele><time>2022-5-31T9:57:56Z</time></trkpt>
<trkpt lat="43.4525846" lon="6.7829902"><ele></ele><time>2022-5-31T9:57:59Z</time></trkpt>
<trkpt lat="43.4525841" lon="6.7829921"><ele></ele><time>2022-5-31T9:58:2Z</time></trkpt>
<trkpt lat="43.4525838" lon="6.7829925"><ele></ele><time>2022-5-31T9:58:5Z</time></trkpt>
<trkpt lat="43.4525834" lon="6.7829938"><ele></ele><time>2022-5-31T9:58:8Z</time></trkpt>
<trkpt lat="43.4525830" lon="6.7829948"><ele></ele><time>2022-5-31T9:58:11Z</time></trkpt>
<trkpt lat="43.4525830" lon="6.7829947"><ele></ele><time>2022-5-31T9:58:14Z</time></trkpt>
<trkpt lat="43.4525830" lon="6.7829942"><ele></ele><time>2022-5-31T9:58:17Z</time></trkpt>
<trkpt lat="43.4525829" lon="6.7829932"><ele></ele><time>2022-5-31T9:58:20Z</time></trkpt>
<trkpt lat="43.4525829" lon="6.7829933"><ele></ele><time>2022-5-31T9:58:23Z</time></trkpt>
<trkpt lat="43.4525829" lon="6.7829939"><ele></ele><time>2022-5-31T9:58:26Z</time></trkpt>
<trkpt lat="43.4525829" lon="6.7829938"><ele></ele><time>2022-5-31T9:58:29Z</time></trkpt>
<trkpt lat="43.4525829" lon="6.7829930"><ele></ele><time>2022-5-31T9:58:32Z</time></trkpt>
<trkpt lat="43.4525829" lon="6.7829925"><ele></ele><time>2022-5-31T9:58:35Z</time></trkpt>
<trkpt lat="43.4525828" lon="6.7829933"><ele></ele><time>2022-5-31T9:58:38Z</time></trkpt>
<trkpt lat="43.4525827" lon="6.7829935"><ele></ele><time>2022-5-31T9:58:41Z</time></trkpt>
<trkpt lat="43.4525827" lon="6.7829936"><ele></ele><time>2022-5-31T9:58:44Z</time></trkpt>
<trkpt lat="43.4525826" lon="6.7829936"><ele></ele><time>2022-5-31T9:58:47Z</time></trkpt>
<trkpt lat="43.4525824" lon="6.7829932"><ele></ele><time>2022-5-31T9:58:50Z</time></trkpt>
<trkpt lat="43.4525824" lon="6.7829930"><ele></ele><time>2022-5-31T9:58:53Z</time></trkpt>
<trkpt lat="43.4525823" lon="6.7829925"><ele></ele><time>2022-5-31T9:58:56Z</time></trkpt>
<trkpt lat="43.4525822" lon="6.7829927"><ele></ele><time>2022-5-31T9:58:59Z</time></trkpt>
<trkpt lat="43.4525823" lon="6.7829927"><ele></ele><time>2022-5-31T9:59:2Z</time></trkpt>
<trkpt lat="43.4525821" lon="6.7829928"><ele></ele><time>2022-5-31T9:59:5Z</time></trkpt>
<trkpt lat="43.4525819" lon="6.7829924"><ele></ele><time>2022-5-31T9:59:8Z</time></trkpt>
<trkpt lat="43.4525817" lon="6.7829917"><ele></ele><time>2022-5-31T9:59:11Z</time></trkpt>
<trkpt lat="43.4525815" lon="6.7829912"><ele></ele><time>2022-5-31T9:59:14Z</time></trkpt>
<trkpt lat="43.4525814" lon="6.7829915"><ele></ele><time>2022-5-31T9:59:17Z</time></trkpt>
<trkpt lat="43.4525812" lon="6.7829920"><ele></ele><time>2022-5-31T9:59:20Z</time></trkpt>
<trkpt lat="43.4525811" lon="6.7829934"><ele></ele><time>2022-5-31T9:59:23Z</time></trkpt>
<trkpt lat="43.4525810" lon="6.7829934"><ele></ele><time>2022-5-31T9:59:26Z</time></trkpt>
<trkpt lat="43.4525808" lon="6.7829940"><ele></ele><time>2022-5-31T9:59:29Z</time></trkpt>
<trkpt lat="43.4525807" lon="6.7829940"><ele></ele><time>2022-5-31T9:59:32Z</time></trkpt>
<trkpt lat="43.4525805" lon="6.7829941"><ele></ele><time>2022-5-31T9:59:35Z</time></trkpt>
<trkpt lat="43.4525804" lon="6.7829937"><ele></ele><time>2022-5-31T9:59:38Z</time></trkpt>
<trkpt lat="43.4525802" lon="6.7829940"><ele></ele><time>2022-5-31T9:59:41Z</time></trkpt>
<trkpt lat="43.4525800" lon="6.7829947"><ele></ele><time>2022-5-31T9:59:44Z</time></trkpt>
<trkpt lat="43.4525798" lon="6.7829954"><ele></ele><time>2022-5-31T9:59:47Z</time></trkpt>
<trkpt lat="43.4525797" lon="6.7829958"><ele></ele><time>2022-5-31T9:59:50Z</time></trkpt>
<trkpt lat="43.4525797" lon="6.7829974"><ele></ele><time>2022-5-31T9:59:53Z</time></trkpt>
<trkpt lat="43.4525796" lon="6.7829976"><ele></ele><time>2022-5-31T9:59:56Z</time></trkpt>
<trkpt lat="43.4525794" lon="6.7829965"><ele></ele><time>2022-5-31T9:59:59Z</time></trkpt>
<trkpt lat="43.4525793" lon="6.7829963"><ele></ele><time>2022-5-31T10:0:2Z</time></trkpt>
<trkpt lat="43.4525793" lon="6.7829969"><ele></ele><time>2022-5-31T10:0:5Z</time></trkpt>
<trkpt lat="43.4525793" lon="6.7829964"><ele></ele><time>2022-5-31T10:0:8Z</time></trkpt>
<trkpt lat="43.4525792" lon="6.7829956"><ele></ele><time>2022-5-31T10:0:11Z</time></trkpt>
<trkpt lat="43.4525792" lon="6.7829956"><ele></ele><time>2022-5-31T10:0:14Z</time></trkpt>
<trkpt lat="43.4525792" lon="6.7829956"><ele></ele><time>2022-5-31T10:0:17Z</time></trkpt>
<trkpt lat="43.4525791" lon="6.7829961"><ele></ele><time>2022-5-31T10:0:20Z</time></trkpt>
<trkpt lat="43.4525791" lon="6.7829962"><ele></ele><time>2022-5-31T10:0:23Z</time></trkpt>
<trkpt lat="43.4525790" lon="6.7829960"><ele></ele><time>2022-5-31T10:0:26Z</time></trkpt>
<trkpt lat="43.4525789" lon="6.7829962"><ele></ele><time>2022-5-31T10:0:29Z</time></trkpt>
<trkpt lat="43.4525788" lon="6.7829954"><ele></ele><time>2022-5-31T10:0:32Z</time></trkpt>
<trkpt lat="43.4525787" lon="6.7829950"><ele></ele><time>2022-5-31T10:0:35Z</time></trkpt>
<trkpt lat="43.4525786" lon="6.7829952"><ele></ele><time>2022-5-31T10:0:38Z</time></trkpt>
<trkpt lat="43.4525784" lon="6.7829947"><ele></ele><time>2022-5-31T10:0:41Z</time></trkpt>
<trkpt lat="43.4525784" lon="6.7829947"><ele></ele><time>2022-5-31T10:0:44Z</time></trkpt>
<trkpt lat="43.4525782" lon="6.7829946"><ele></ele><time>2022-5-31T10:0:47Z</time></trkpt>
<trkpt lat="43.4525781" lon="6.7829942"><ele></ele><time>2022-5-31T10:0:50Z</time></trkpt>
<trkpt lat="43.4525780" lon="6.7829941"><ele></ele><time>2022-5-31T10:0:53Z</time></trkpt>
<trkpt lat="43.4525778" lon="6.7829932"><ele></ele><time>2022-5-31T10:0:56Z</time></trkpt>
<trkpt lat="43.4525776" lon="6.7829935"><ele></ele><time>2022-5-31T10:0:59Z</time></trkpt>
<trkpt lat="43.4525774" lon="6.7829951"><ele></ele><time>2022-5-31T10:1:2Z</time></trkpt>
<trkpt lat="43.4525772" lon="6.7829960"><ele></ele><time>2022-5-31T10:1:5Z</time></trkpt>
<trkpt lat="43.4525772" lon="6.7829980"><ele></ele><time>2022-5-31T10:1:8Z</time></trkpt>
<trkpt lat="43.4525771" lon="6.7829983"><ele></ele><time>2022-5-31T10:1:11Z</time></trkpt>
<trkpt lat="43.4525771" lon="6.7829980"><ele></ele><time>2022-5-31T10:1:14Z</time></trkpt>
<trkpt lat="43.4525770" lon="6.7829983"><ele></ele><time>2022-5-31T10:1:17Z</time></trkpt>
<trkpt lat="43.4525769" lon="6.7829991"><ele></ele><time>2022-5-31T10:1:20Z</time></trkpt>
<trkpt lat="43.4525768" lon="6.7829991"><ele></ele><time>2022-5-31T10:1:23Z</time></trkpt>
<trkpt lat="43.4525768" lon="6.7829980"><ele></ele><time>2022-5-31T10:1:26Z</time></trkpt>
<trkpt lat="43.4525768" lon="6.7829977"><ele></ele><time>2022-5-31T10:1:29Z</time></trkpt>
<trkpt lat="43.4525767" lon="6.7829968"><ele></ele><time>2022-5-31T10:1:32Z</time></trkpt>
<trkpt lat="43.4525766" lon="6.7829971"><ele></ele><time>2022-5-31T10:1:35Z</time></trkpt>
<trkpt lat="43.4525766" lon="6.7829966"><ele></ele><time>2022-5-31T10:1:38Z</time></trkpt>
<trkpt lat="43.4525766" lon="6.7829954"><ele></ele><time>2022-5-31T10:1:41Z</time></trkpt>
<trkpt lat="43.4525766" lon="6.7829958"><ele></ele><time>2022-5-31T10:1:44Z</time></trkpt>
<trkpt lat="43.4525766" lon="6.7829964"><ele></ele><time>2022-5-31T10:1:47Z</time></trkpt>
<trkpt lat="43.4525768" lon="6.7829968"><ele></ele><time>2022-5-31T10:1:50Z</time></trkpt>
<trkpt lat="43.4525769" lon="6.7829969"><ele></ele><time>2022-5-31T10:1:53Z</time></trkpt>
<trkpt lat="43.4525770" lon="6.7829966"><ele></ele><time>2022-5-31T10:1:56Z</time></trkpt>
<trkpt lat="43.4525771" lon="6.7829957"><ele></ele><time>2022-5-31T10:1:59Z</time></trkpt>
<trkpt lat="43.4525773" lon="6.7829950"><ele></ele><time>2022-5-31T10:2:2Z</time></trkpt>
<trkpt lat="43.4525775" lon="6.7829951"><ele></ele><time>2022-5-31T10:2:5Z</time></trkpt>
<trkpt lat="43.4525780" lon="6.7829954"><ele></ele><time>2022-5-31T10:2:8Z</time></trkpt>
<trkpt lat="43.4525783" lon="6.7829945"><ele></ele><time>2022-5-31T10:2:11Z</time></trkpt>
<trkpt lat="43.4525786" lon="6.7829942"><ele></ele><time>2022-5-31T10:2:14Z</time></trkpt>
<trkpt lat="43.4525788" lon="6.7829939"><ele></ele><time>2022-5-31T10:2:17Z</time></trkpt>
<trkpt lat="43.4525791" lon="6.7829942"><ele></ele><time>2022-5-31T10:2:20Z</time></trkpt>
<trkpt lat="43.4525793" lon="6.7829942"><ele></ele><time>2022-5-31T10:2:23Z</time></trkpt>
<trkpt lat="43.4525795" lon="6.7829941"><ele></ele><time>2022-5-31T10:2:26Z</time></trkpt>
<trkpt lat="43.4525798" lon="6.7829941"><ele></ele><time>2022-5-31T10:2:29Z</time></trkpt>
<trkpt lat="43.4525799" lon="6.7829950"><ele></ele><time>2022-5-31T10:2:32Z</time></trkpt>
<trkpt lat="43.4525801" lon="6.7829958"><ele></ele><time>2022-5-31T10:2:35Z</time></trkpt>
<trkpt lat="43.4525804" lon="6.7829960"><ele></ele><time>2022-5-31T10:2:38Z</time></trkpt>
<trkpt lat="43.4525806" lon="6.7829958"><ele></ele><time>2022-5-31T10:2:41Z</time></trkpt>
<trkpt lat="43.4525807" lon="6.7829960"><ele></ele><time>2022-5-31T10:2:44Z</time></trkpt>
<trkpt lat="43.4525808" lon="6.7829963"><ele></ele><time>2022-5-31T10:2:47Z</time></trkpt>
<trkpt lat="43.4525808" lon="6.7829967"><ele></ele><time>2022-5-31T10:2:50Z</time></trkpt>
<trkpt lat="43.4525809" lon="6.7829971"><ele></ele><time>2022-5-31T10:2:53Z</time></trkpt>
<trkpt lat="43.4525810" lon="6.7829971"><ele></ele><time>2022-5-31T10:2:56Z</time></trkpt>
<trkpt lat="43.4525810" lon="6.7829972"><ele></ele><time>2022-5-31T10:2:59Z</time></trkpt>
<trkpt lat="43.4525811" lon="6.7829971"><ele></ele><time>2022-5-31T10:3:2Z</time></trkpt>
<trkpt lat="43.4525811" lon="6.7829961"><ele></ele><time>2022-5-31T10:3:5Z</time></trkpt>
<trkpt lat="43.4525811" lon="6.7829962"><ele></ele><time>2022-5-31T10:3:8Z</time></trkpt>
<trkpt lat="43.4525812" lon="6.7829957"><ele></ele><time>2022-5-31T10:3:11Z</time></trkpt>
<trkpt lat="43.4525812" lon="6.7829949"><ele></ele><time>2022-5-31T10:3:14Z</time></trkpt>
<trkpt lat="43.4525813" lon="6.7829950"><ele></ele><time>2022-5-31T10:3:17Z</time></trkpt>
<trkpt lat="43.4525814" lon="6.7829952"><ele></ele><time>2022-5-31T10:3:20Z</time></trkpt>
<trkpt lat="43.4525815" lon="6.7829955"><ele></ele><time>2022-5-31T10:3:23Z</time></trkpt>
<trkpt lat="43.4525818" lon="6.7829958"><ele></ele><time>2022-5-31T10:3:26Z</time></trkpt>
<trkpt lat="43.4525823" lon="6.7829963"><ele></ele><time>2022-5-31T10:3:29Z</time></trkpt>
<trkpt lat="43.4525825" lon="6.7829958"><ele></ele><time>2022-5-31T10:3:32Z</time></trkpt>
<trkpt lat="43.4525828" lon="6.7829951"><ele></ele><time>2022-5-31T10:3:35Z</time></trkpt>
<trkpt lat="43.4525829" lon="6.7829947"><ele></ele><time>2022-5-31T10:3:38Z</time></trkpt>
<trkpt lat="43.4525836" lon="6.7829940"><ele></ele><time>2022-5-31T10:3:41Z</time></trkpt>
<trkpt lat="43.4525837" lon="6.7829936"><ele></ele><time>2022-5-31T10:3:44Z</time></trkpt>
<trkpt lat="43.4525842" lon="6.7829938"><ele></ele><time>2022-5-31T10:3:47Z</time></trkpt>
<trkpt lat="43.4525843" lon="6.7829944"><ele></ele><time>2022-5-31T10:3:50Z</time></trkpt>
<trkpt lat="43.4525845" lon="6.7829938"><ele></ele><time>2022-5-31T10:3:53Z</time></trkpt>
<trkpt lat="43.4525846" lon="6.7829932"><ele></ele><time>2022-5-31T10:3:56Z</time></trkpt>
<trkpt lat="43.4525848" lon="6.7829928"><ele></ele><time>2022-5-31T10:3:59Z</time></trkpt>
<trkpt lat="43.4525851" lon="6.7829929"><ele></ele><time>2022-5-31T10:4:2Z</time></trkpt>
<trkpt lat="43.4525856" lon="6.7829920"><ele></ele><time>2022-5-31T10:4:5Z</time></trkpt>
<trkpt lat="43.4525859" lon="6.7829920"><ele></ele><time>2022-5-31T10:4:8Z</time></trkpt>
<trkpt lat="43.4525862" lon="6.7829914"><ele></ele><time>2022-5-31T10:4:11Z</time></trkpt>
<trkpt lat="43.4525863" lon="6.7829911"><ele></ele><time>2022-5-31T10:4:14Z</time></trkpt>
<trkpt lat="43.4525866" lon="6.7829891"><ele></ele><time>2022-5-31T10:4:17Z</time></trkpt>
<trkpt lat="43.4525869" lon="6.7829887"><ele></ele><time>2022-5-31T10:4:20Z</time></trkpt>
<trkpt lat="43.4525870" lon="6.7829882"><ele></ele><time>2022-5-31T10:4:23Z</time></trkpt>
<trkpt lat="43.4525872" lon="6.7829880"><ele></ele><time>2022-5-31T10:4:26Z</time></trkpt>
<trkpt lat="43.4525874" lon="6.7829874"><ele></ele><time>2022-5-31T10:4:29Z</time></trkpt>
<trkpt lat="43.4525875" lon="6.7829872"><ele></ele><time>2022-5-31T10:4:32Z</time></trkpt>
<trkpt lat="43.4525877" lon="6.7829865"><ele></ele><time>2022-5-31T10:4:35Z</time></trkpt>
<trkpt lat="43.4525877" lon="6.7829866"><ele></ele><time>2022-5-31T10:4:38Z</time></trkpt>
<trkpt lat="43.4525877" lon="6.7829869"><ele></ele><time>2022-5-31T10:4:41Z</time></trkpt>
<trkpt lat="43.4525878" lon="6.7829870"><ele></ele><time>2022-5-31T10:4:44Z</time></trkpt>
<trkpt lat="43.4525879" lon="6.7829867"><ele></ele><time>2022-5-31T10:4:47Z</time></trkpt>
<trkpt lat="43.4525877" lon="6.7829873"><ele></ele><time>2022-5-31T10:4:50Z</time></trkpt>
<trkpt lat="43.4525877" lon="6.7829881"><ele></ele><time>2022-5-31T10:4:53Z</time></trkpt>
<trkpt lat="43.4525876" lon="6.7829880"><ele></ele><time>2022-5-31T10:4:56Z</time></trkpt>
<trkpt lat="43.4525877" lon="6.7829883"><ele></ele><time>2022-5-31T10:4:59Z</time></trkpt>
<trkpt lat="43.4525878" lon="6.7829884"><ele></ele><time>2022-5-31T10:5:2Z</time></trkpt>
<trkpt lat="43.4525877" lon="6.7829880"><ele></ele><time>2022-5-31T10:5:5Z</time></trkpt>
<trkpt lat="43.4525877" lon="6.7829877"><ele></ele><time>2022-5-31T10:5:8Z</time></trkpt>
<trkpt lat="43.4525878" lon="6.7829876"><ele></ele><time>2022-5-31T10:5:11Z</time></trkpt>
<trkpt lat="43.4525880" lon="6.7829880"><ele></ele><time>2022-5-31T10:5:14Z</time></trkpt>
<trkpt lat="43.4525880" lon="6.7829880"><ele></ele><time>2022-5-31T10:5:17Z</time></trkpt>
<trkpt lat="43.4525880" lon="6.7829881"><ele></ele><time>2022-5-31T10:5:20Z</time></trkpt>
<trkpt lat="43.4525881" lon="6.7829880"><ele></ele><time>2022-5-31T10:5:23Z</time></trkpt>
<trkpt lat="43.4525886" lon="6.7829874"><ele></ele><time>2022-5-31T10:5:26Z</time></trkpt>
<trkpt lat="43.4525887" lon="6.7829880"><ele></ele><time>2022-5-31T10:5:29Z</time></trkpt>
<trkpt lat="43.4525889" lon="6.7829878"><ele></ele><time>2022-5-31T10:5:32Z</time></trkpt>
<trkpt lat="43.4525893" lon="6.7829873"><ele></ele><time>2022-5-31T10:5:35Z</time></trkpt>
<trkpt lat="43.4525895" lon="6.7829873"><ele></ele><time>2022-5-31T10:5:38Z</time></trkpt>
<trkpt lat="43.4525899" lon="6.7829871"><ele></ele><time>2022-5-31T10:5:41Z</time></trkpt>
<trkpt lat="43.4525926" lon="6.7829798"><ele></ele><time>2022-5-31T10:5:44Z</time></trkpt>
<trkpt lat="43.4525931" lon="6.7829773"><ele></ele><time>2022-5-31T10:5:47Z</time></trkpt>
<trkpt lat="43.4525944" lon="6.7829754"><ele></ele><time>2022-5-31T10:5:50Z</time></trkpt>
<trkpt lat="43.4525945" lon="6.7829746"><ele></ele><time>2022-5-31T10:5:53Z</time></trkpt>
<trkpt lat="43.4525947" lon="6.7829741"><ele></ele><time>2022-5-31T10:5:56Z</time></trkpt>
<trkpt lat="43.4525947" lon="6.7829739"><ele></ele><time>2022-5-31T10:5:59Z</time></trkpt>
<trkpt lat="43.4525948" lon="6.7829736"><ele></ele><time>2022-5-31T10:6:2Z</time></trkpt>
<trkpt lat="43.4525948" lon="6.7829737"><ele></ele><time>2022-5-31T10:6:5Z</time></trkpt>
<trkpt lat="43.4525948" lon="6.7829744"><ele></ele><time>2022-5-31T10:6:8Z</time></trkpt>
<trkpt lat="43.4525947" lon="6.7829762"><ele></ele><time>2022-5-31T10:6:11Z</time></trkpt>
<trkpt lat="43.4525945" lon="6.7829787"><ele></ele><time>2022-5-31T10:6:14Z</time></trkpt>
<trkpt lat="43.4525945" lon="6.7829785"><ele></ele><time>2022-5-31T10:6:17Z</time></trkpt>
<trkpt lat="43.4525966" lon="6.7829657"><ele></ele><time>2022-5-31T10:6:20Z</time></trkpt>
<trkpt lat="43.4525948" lon="6.7829582"><ele></ele><time>2022-5-31T10:6:23Z</time></trkpt>
<trkpt lat="43.4525965" lon="6.7829460"><ele></ele><time>2022-5-31T10:6:26Z</time></trkpt>
<trkpt lat="43.4525964" lon="6.7829458"><ele></ele><time>2022-5-31T10:6:29Z</time></trkpt>
<trkpt lat="43.4525963" lon="6.7829474"><ele></ele><time>2022-5-31T10:6:32Z</time></trkpt>
<trkpt lat="43.4525982" lon="6.7829359"><ele></ele><time>2022-5-31T10:6:35Z</time></trkpt>
<trkpt lat="43.4525990" lon="6.7829309"><ele></ele><time>2022-5-31T10:6:38Z</time></trkpt>
<trkpt lat="43.4525993" lon="6.7829216"><ele></ele><time>2022-5-31T10:6:41Z</time></trkpt>
<trkpt lat="43.4525983" lon="6.7829235"><ele></ele><time>2022-5-31T10:6:44Z</time></trkpt>
<trkpt lat="43.4525985" lon="6.7829202"><ele></ele><time>2022-5-31T10:6:47Z</time></trkpt>
<trkpt lat="43.4525953" lon="6.7829337"><ele></ele><time>2022-5-31T10:6:50Z</time></trkpt>
<trkpt lat="43.4525951" lon="6.7829342"><ele></ele><time>2022-5-31T10:6:53Z</time></trkpt>
<trkpt lat="43.4525946" lon="6.7829359"><ele></ele><time>2022-5-31T10:6:56Z</time></trkpt>
<trkpt lat="43.4525919" lon="6.7829418"><ele></ele><time>2022-5-31T10:6:59Z</time></trkpt>
<trkpt lat="43.4525925" lon="6.7829432"><ele></ele><time>2022-5-31T10:7:2Z</time></trkpt>
<trkpt lat="43.4525894" lon="6.7829612"><ele></ele><time>2022-5-31T10:7:5Z</time></trkpt>
<trkpt lat="43.4525895" lon="6.7829608"><ele></ele><time>2022-5-31T10:7:8Z</time></trkpt>
<trkpt lat="43.4525895" lon="6.7829605"><ele></ele><time>2022-5-31T10:7:11Z</time></trkpt>
<trkpt lat="43.4525892" lon="6.7829610"><ele></ele><time>2022-5-31T10:7:14Z</time></trkpt>
<trkpt lat="43.4525892" lon="6.7829607"><ele></ele><time>2022-5-31T10:7:17Z</time></trkpt>
<trkpt lat="43.4525888" lon="6.7829619"><ele></ele><time>2022-5-31T10:7:20Z</time></trkpt>
<trkpt lat="43.4525884" lon="6.7829623"><ele></ele><time>2022-5-31T10:7:23Z</time></trkpt>
<trkpt lat="43.4525879" lon="6.7829631"><ele></ele><time>2022-5-31T10:7:26Z</time></trkpt>
<trkpt lat="43.4525875" lon="6.7829642"><ele></ele><time>2022-5-31T10:7:29Z</time></trkpt>
<trkpt lat="43.4525876" lon="6.7829636"><ele></ele><time>2022-5-31T10:7:32Z</time></trkpt>
<trkpt lat="43.4525875" lon="6.7829640"><ele></ele><time>2022-5-31T10:7:35Z</time></trkpt>
<trkpt lat="43.4525876" lon="6.7829635"><ele></ele><time>2022-5-31T10:7:38Z</time></trkpt>
<trkpt lat="43.4525876" lon="6.7829627"><ele></ele><time>2022-5-31T10:7:41Z</time></trkpt>
<trkpt lat="43.4525877" lon="6.7829622"><ele></ele><time>2022-5-31T10:7:44Z</time></trkpt>
<trkpt lat="43.4525877" lon="6.7829624"><ele></ele><time>2022-5-31T10:7:47Z</time></trkpt>
<trkpt lat="43.4525878" lon="6.7829611"><ele></ele><time>2022-5-31T10:7:50Z</time></trkpt>
<trkpt lat="43.4525878" lon="6.7829610"><ele></ele><time>2022-5-31T10:7:53Z</time></trkpt>
<trkpt lat="43.4525877" lon="6.7829601"><ele></ele><time>2022-5-31T10:7:56Z</time></trkpt>
<trkpt lat="43.4525876" lon="6.7829597"><ele></ele><time>2022-5-31T10:7:59Z</time></trkpt>
<trkpt lat="43.4525875" lon="6.7829597"><ele></ele><time>2022-5-31T10:8:2Z</time></trkpt>
<trkpt lat="43.4525884" lon="6.7829508"><ele></ele><time>2022-5-31T10:8:5Z</time></trkpt>
<trkpt lat="43.4525867" lon="6.7829448"><ele></ele><time>2022-5-31T10:8:8Z</time></trkpt>
<trkpt lat="43.4525858" lon="6.7829378"><ele></ele><time>2022-5-31T10:8:11Z</time></trkpt>
<trkpt lat="43.4525836" lon="6.7829361"><ele></ele><time>2022-5-31T10:8:14Z</time></trkpt>
<trkpt lat="43.4525837" lon="6.7829358"><ele></ele><time>2022-5-31T10:8:17Z</time></trkpt>
<trkpt lat="43.4525838" lon="6.7829334"><ele></ele><time>2022-5-31T10:8:20Z</time></trkpt>
<trkpt lat="43.4525828" lon="6.7829332"><ele></ele><time>2022-5-31T10:8:23Z</time></trkpt>
<trkpt lat="43.4525827" lon="6.7829313"><ele></ele><time>2022-5-31T10:8:26Z</time></trkpt>
<trkpt lat="43.4525822" lon="6.7829308"><ele></ele><time>2022-5-31T10:8:29Z</time></trkpt>
<trkpt lat="43.4525819" lon="6.7829308"><ele></ele><time>2022-5-31T10:8:32Z</time></trkpt>
<trkpt lat="43.4525815" lon="6.7829301"><ele></ele><time>2022-5-31T10:8:35Z</time></trkpt>
<trkpt lat="43.4525812" lon="6.7829305"><ele></ele><time>2022-5-31T10:8:38Z</time></trkpt>
<trkpt lat="43.4525813" lon="6.7829296"><ele></ele><time>2022-5-31T10:8:41Z</time></trkpt>
<trkpt lat="43.4525813" lon="6.7829285"><ele></ele><time>2022-5-31T10:8:44Z</time></trkpt>
<trkpt lat="43.4525815" lon="6.7829259"><ele></ele><time>2022-5-31T10:8:47Z</time></trkpt>
<trkpt lat="43.4525810" lon="6.7829253"><ele></ele><time>2022-5-31T10:8:50Z</time></trkpt>
<trkpt lat="43.4525810" lon="6.7829234"><ele></ele><time>2022-5-31T10:8:53Z</time></trkpt>
<trkpt lat="43.4525796" lon="6.7829248"><ele></ele><time>2022-5-31T10:8:56Z</time></trkpt>
<trkpt lat="43.4525793" lon="6.7829238"><ele></ele><time>2022-5-31T10:8:59Z</time></trkpt>
<trkpt lat="43.4525791" lon="6.7829243"><ele></ele><time>2022-5-31T10:9:2Z</time></trkpt>
<trkpt lat="43.4525789" lon="6.7829243"><ele></ele><time>2022-5-31T10:9:5Z</time></trkpt>
<trkpt lat="43.4525785" lon="6.7829255"><ele></ele><time>2022-5-31T10:9:8Z</time></trkpt>
<trkpt lat="43.4525783" lon="6.7829259"><ele></ele><time>2022-5-31T10:9:11Z</time></trkpt>
<trkpt lat="43.4525779" lon="6.7829270"><ele></ele><time>2022-5-31T10:9:14Z</time></trkpt>
<trkpt lat="43.4525775" lon="6.7829280"><ele></ele><time>2022-5-31T10:9:17Z</time></trkpt>
<trkpt lat="43.4525769" lon="6.7829293"><ele></ele><time>2022-5-31T10:9:20Z</time></trkpt>
<trkpt lat="43.4525768" lon="6.7829294"><ele></ele><time>2022-5-31T10:9:23Z</time></trkpt>
<trkpt lat="43.4525767" lon="6.7829300"><ele></ele><time>2022-5-31T10:9:26Z</time></trkpt>
<trkpt lat="43.4525771" lon="6.7829301"><ele></ele><time>2022-5-31T10:9:29Z</time></trkpt>
<trkpt lat="43.4525772" lon="6.7829301"><ele></ele><time>2022-5-31T10:9:32Z</time></trkpt>
<trkpt lat="43.4525774" lon="6.7829306"><ele></ele><time>2022-5-31T10:9:35Z</time></trkpt>
<trkpt lat="43.4525772" lon="6.7829312"><ele></ele><time>2022-5-31T10:9:38Z</time></trkpt>
<trkpt lat="43.4525765" lon="6.7829327"><ele></ele><time>2022-5-31T10:9:41Z</time></trkpt>
<trkpt lat="43.4525764" lon="6.7829344"><ele></ele><time>2022-5-31T10:9:44Z</time></trkpt>
<trkpt lat="43.4525764" lon="6.7829348"><ele></ele><time>2022-5-31T10:9:47Z</time></trkpt>
<trkpt lat="43.4525764" lon="6.7829348"><ele></ele><time>2022-5-31T10:9:50Z</time></trkpt>
<trkpt lat="43.4525765" lon="6.7829343"><ele></ele><time>2022-5-31T10:9:53Z</time></trkpt>
<trkpt lat="43.4525766" lon="6.7829335"><ele></ele><time>2022-5-31T10:9:56Z</time></trkpt>
<trkpt lat="43.4525770" lon="6.7829326"><ele></ele><time>2022-5-31T10:9:59Z</time></trkpt>
<trkpt lat="43.4525772" lon="6.7829324"><ele></ele><time>2022-5-31T10:10:2Z</time></trkpt>
<trkpt lat="43.4525775" lon="6.7829320"><ele></ele><time>2022-5-31T10:10:5Z</time></trkpt>
<trkpt lat="43.4525779" lon="6.7829314"><ele></ele><time>2022-5-31T10:10:8Z</time></trkpt>
<trkpt lat="43.4525778" lon="6.7829318"><ele></ele><time>2022-5-31T10:10:11Z</time></trkpt>
<trkpt lat="43.4525779" lon="6.7829314"><ele></ele><time>2022-5-31T10:10:14Z</time></trkpt>
<trkpt lat="43.4525778" lon="6.7829321"><ele></ele><time>2022-5-31T10:10:17Z</time></trkpt>
<trkpt lat="43.4525775" lon="6.7829325"><ele></ele><time>2022-5-31T10:10:20Z</time></trkpt>
<trkpt lat="43.4525772" lon="6.7829333"><ele></ele><time>2022-5-31T10:10:23Z</time></trkpt>
<trkpt lat="43.4525771" lon="6.7829346"><ele></ele><time>2022-5-31T10:10:26Z</time></trkpt>
<trkpt lat="43.4525768" lon="6.7829351"><ele></ele><time>2022-5-31T10:10:29Z</time></trkpt>
<trkpt lat="43.4525763" lon="6.7829357"><ele></ele><time>2022-5-31T10:10:32Z</time></trkpt>
<trkpt lat="43.4525753" lon="6.7829357"><ele></ele><time>2022-5-31T10:10:35Z</time></trkpt>
<trkpt lat="43.4525751" lon="6.7829360"><ele></ele><time>2022-5-31T10:10:38Z</time></trkpt>
<trkpt lat="43.4525752" lon="6.7829384"><ele></ele><time>2022-5-31T10:10:41Z</time></trkpt>
<trkpt lat="43.4525751" lon="6.7829385"><ele></ele><time>2022-5-31T10:10:44Z</time></trkpt>
<trkpt lat="43.4525751" lon="6.7829396"><ele></ele><time>2022-5-31T10:10:47Z</time></trkpt>
<trkpt lat="43.4525755" lon="6.7829384"><ele></ele><time>2022-5-31T10:10:50Z</time></trkpt>
<trkpt lat="43.4525743" lon="6.7829402"><ele></ele><time>2022-5-31T10:10:53Z</time></trkpt>
<trkpt lat="43.4525739" lon="6.7829410"><ele></ele><time>2022-5-31T10:10:56Z</time></trkpt>
<trkpt lat="43.4525733" lon="6.7829412"><ele></ele><time>2022-5-31T10:10:59Z</time></trkpt>
<trkpt lat="43.4525729" lon="6.7829418"><ele></ele><time>2022-5-31T10:11:2Z</time></trkpt>
<trkpt lat="43.4525729" lon="6.7829430"><ele></ele><time>2022-5-31T10:11:5Z</time></trkpt>
<trkpt lat="43.4525725" lon="6.7829428"><ele></ele><time>2022-5-31T10:11:8Z</time></trkpt>
<trkpt lat="43.4525723" lon="6.7829428"><ele></ele><time>2022-5-31T10:11:11Z</time></trkpt>
<trkpt lat="43.4525724" lon="6.7829437"><ele></ele><time>2022-5-31T10:11:14Z</time></trkpt>
<trkpt lat="43.4525725" lon="6.7829436"><ele></ele><time>2022-5-31T10:11:17Z</time></trkpt>
<trkpt lat="43.4525726" lon="6.7829436"><ele></ele><time>2022-5-31T10:11:20Z</time></trkpt>
<trkpt lat="43.4525725" lon="6.7829435"><ele></ele><time>2022-5-31T10:11:23Z</time></trkpt>
<trkpt lat="43.4525724" lon="6.7829428"><ele></ele><time>2022-5-31T10:11:26Z</time></trkpt>
<trkpt lat="43.4525723" lon="6.7829423"><ele></ele><time>2022-5-31T10:11:29Z</time></trkpt>
<trkpt lat="43.4525725" lon="6.7829407"><ele></ele><time>2022-5-31T10:11:32Z</time></trkpt>
<trkpt lat="43.4525725" lon="6.7829409"><ele></ele><time>2022-5-31T10:11:35Z</time></trkpt>
<trkpt lat="43.4525725" lon="6.7829416"><ele></ele><time>2022-5-31T10:11:38Z</time></trkpt>
<trkpt lat="43.4525719" lon="6.7829421"><ele></ele><time>2022-5-31T10:11:41Z</time></trkpt>
<trkpt lat="43.4525724" lon="6.7829422"><ele></ele><time>2022-5-31T10:11:44Z</time></trkpt>
<trkpt lat="43.4525728" lon="6.7829428"><ele></ele><time>2022-5-31T10:11:47Z</time></trkpt>
<trkpt lat="43.4525731" lon="6.7829440"><ele></ele><time>2022-5-31T10:11:50Z</time></trkpt>
<trkpt lat="43.4525733" lon="6.7829446"><ele></ele><time>2022-5-31T10:11:53Z</time></trkpt>
<trkpt lat="43.4525729" lon="6.7829436"><ele></ele><time>2022-5-31T10:11:56Z</time></trkpt>
<trkpt lat="43.4525727" lon="6.7829436"><ele></ele><time>2022-5-31T10:11:59Z</time></trkpt>
<trkpt lat="43.4525716" lon="6.7829430"><ele></ele><time>2022-5-31T10:12:2Z</time></trkpt>
<trkpt lat="43.4525718" lon="6.7829429"><ele></ele><time>2022-5-31T10:12:5Z</time></trkpt>
<trkpt lat="43.4525715" lon="6.7829398"><ele></ele><time>2022-5-31T10:12:8Z</time></trkpt>
<trkpt lat="43.4525715" lon="6.7829389"><ele></ele><time>2022-5-31T10:12:11Z</time></trkpt>
<trkpt lat="43.4525715" lon="6.7829386"><ele></ele><time>2022-5-31T10:12:14Z</time></trkpt>
<trkpt lat="43.4525713" lon="6.7829377"><ele></ele><time>2022-5-31T10:12:17Z</time></trkpt>
<trkpt lat="43.4525709" lon="6.7829369"><ele></ele><time>2022-5-31T10:12:20Z</time></trkpt>
<trkpt lat="43.4525703" lon="6.7829355"><ele></ele><time>2022-5-31T10:12:23Z</time></trkpt>
<trkpt lat="43.4525704" lon="6.7829348"><ele></ele><time>2022-5-31T10:12:26Z</time></trkpt>
<trkpt lat="43.4525692" lon="6.7829208"><ele></ele><time>2022-5-31T10:12:29Z</time></trkpt>
<trkpt lat="43.4525659" lon="6.7829156"><ele></ele><time>2022-5-31T10:12:32Z</time></trkpt>
<trkpt lat="43.4525637" lon="6.7829259"><ele></ele><time>2022-5-31T10:12:35Z</time></trkpt>
<trkpt lat="43.4525644" lon="6.7829253"><ele></ele><time>2022-5-31T10:12:38Z</time></trkpt>
<trkpt lat="43.4525644" lon="6.7829262"><ele></ele><time>2022-5-31T10:12:41Z</time></trkpt>
<trkpt lat="43.4525644" lon="6.7829265"><ele></ele><time>2022-5-31T10:12:44Z</time></trkpt>
<trkpt lat="43.4525647" lon="6.7829280"><ele></ele><time>2022-5-31T10:12:47Z</time></trkpt>
<trkpt lat="43.4525650" lon="6.7829266"><ele></ele><time>2022-5-31T10:12:50Z</time></trkpt>
<trkpt lat="43.4525649" lon="6.7829284"><ele></ele><time>2022-5-31T10:12:53Z</time></trkpt>
<trkpt lat="43.4525676" lon="6.7829248"><ele></ele><time>2022-5-31T10:12:56Z</time></trkpt>
<trkpt lat="43.4525669" lon="6.7829237"><ele></ele><time>2022-5-31T10:12:59Z</time></trkpt>
<trkpt lat="43.4525684" lon="6.7829193"><ele></ele><time>2022-5-31T10:13:2Z</time></trkpt>
<trkpt lat="43.4525696" lon="6.7829155"><ele></ele><time>2022-5-31T10:13:5Z</time></trkpt>
<trkpt lat="43.4525697" lon="6.7829157"><ele></ele><time>2022-5-31T10:13:8Z</time></trkpt>
<trkpt lat="43.4525701" lon="6.7829145"><ele></ele><time>2022-5-31T10:13:11Z</time></trkpt>
<trkpt lat="43.4525704" lon="6.7829144"><ele></ele><time>2022-5-31T10:13:14Z</time></trkpt>
<trkpt lat="43.4525705" lon="6.7829146"><ele></ele><time>2022-5-31T10:13:17Z</time></trkpt>
<trkpt lat="43.4525707" lon="6.7829141"><ele></ele><time>2022-5-31T10:13:20Z</time></trkpt>
<trkpt lat="43.4525712" lon="6.7829145"><ele></ele><time>2022-5-31T10:13:23Z</time></trkpt>
<trkpt lat="43.4525712" lon="6.7829147"><ele></ele><time>2022-5-31T10:13:26Z</time></trkpt>
<trkpt lat="43.4525714" lon="6.7829144"><ele></ele><time>2022-5-31T10:13:29Z</time></trkpt>
<trkpt lat="43.4525707" lon="6.7829205"><ele></ele><time>2022-5-31T10:13:32Z</time></trkpt>
<trkpt lat="43.4525707" lon="6.7829259"><ele></ele><time>2022-5-31T10:13:35Z</time></trkpt>
<trkpt lat="43.4525699" lon="6.7829291"><ele></ele><time>2022-5-31T10:13:38Z</time></trkpt>
<trkpt lat="43.4525703" lon="6.7829290"><ele></ele><time>2022-5-31T10:13:41Z</time></trkpt>
<trkpt lat="43.4525703" lon="6.7829288"><ele></ele><time>2022-5-31T10:13:44Z</time></trkpt>
<trkpt lat="43.4525702" lon="6.7829292"><ele></ele><time>2022-5-31T10:13:47Z</time></trkpt>
<trkpt lat="43.4525702" lon="6.7829291"><ele></ele><time>2022-5-31T10:13:50Z</time></trkpt>
<trkpt lat="43.4525701" lon="6.7829301"><ele></ele><time>2022-5-31T10:13:53Z</time></trkpt>
<trkpt lat="43.4525701" lon="6.7829300"><ele></ele><time>2022-5-31T10:13:56Z</time></trkpt>
<trkpt lat="43.4525700" lon="6.7829306"><ele></ele><time>2022-5-31T10:13:59Z</time></trkpt>
<trkpt lat="43.4525688" lon="6.7829311"><ele></ele><time>2022-5-31T10:14:2Z</time></trkpt>
<trkpt lat="43.4525692" lon="6.7829274"><ele></ele><time>2022-5-31T10:14:5Z</time></trkpt>
<trkpt lat="43.4525667" lon="6.7829183"><ele></ele><time>2022-5-31T10:14:8Z</time></trkpt>
<trkpt lat="43.4525666" lon="6.7829181"><ele></ele><time>2022-5-31T10:14:11Z</time></trkpt>
<trkpt lat="43.4525666" lon="6.7829207"><ele></ele><time>2022-5-31T10:14:14Z</time></trkpt>
<trkpt lat="43.4525664" lon="6.7829188"><ele></ele><time>2022-5-31T10:14:17Z</time></trkpt>
<trkpt lat="43.4525656" lon="6.7829215"><ele></ele><time>2022-5-31T10:14:20Z</time></trkpt>
<trkpt lat="43.4525650" lon="6.7829242"><ele></ele><time>2022-5-31T10:14:23Z</time></trkpt>
<trkpt lat="43.4525650" lon="6.7829242"><ele></ele><time>2022-5-31T10:14:26Z</time></trkpt>
<trkpt lat="43.4525650" lon="6.7829242"><ele></ele><time>2022-5-31T10:14:29Z</time></trkpt>
<trkpt lat="43.4525649" lon="6.7829245"><ele></ele><time>2022-5-31T10:14:32Z</time></trkpt>
<trkpt lat="43.4525648" lon="6.7829248"><ele></ele><time>2022-5-31T10:14:35Z</time></trkpt>
<trkpt lat="43.4525648" lon="6.7829249"><ele></ele><time>2022-5-31T10:14:38Z</time></trkpt>
<trkpt lat="43.4525647" lon="6.7829251"><ele></ele><time>2022-5-31T10:14:41Z</time></trkpt>
<trkpt lat="43.4525647" lon="6.7829254"><ele></ele><time>2022-5-31T10:14:44Z</time></trkpt>
<trkpt lat="43.4525647" lon="6.7829251"><ele></ele><time>2022-5-31T10:14:47Z</time></trkpt>
<trkpt lat="43.4525647" lon="6.7829251"><ele></ele><time>2022-5-31T10:14:50Z</time></trkpt>
<trkpt lat="43.4525648" lon="6.7829245"><ele></ele><time>2022-5-31T10:14:53Z</time></trkpt>
<trkpt lat="43.4525649" lon="6.7829240"><ele></ele><time>2022-5-31T10:14:56Z</time></trkpt>
<trkpt lat="43.4525649" lon="6.7829236"><ele></ele><time>2022-5-31T10:14:59Z</time></trkpt>
<trkpt lat="43.4525650" lon="6.7829233"><ele></ele><time>2022-5-31T10:15:2Z</time></trkpt>
<trkpt lat="43.4525650" lon="6.7829227"><ele></ele><time>2022-5-31T10:15:5Z</time></trkpt>
<trkpt lat="43.4525649" lon="6.7829226"><ele></ele><time>2022-5-31T10:15:8Z</time></trkpt>
<trkpt lat="43.4525648" lon="6.7829226"><ele></ele><time>2022-5-31T10:15:11Z</time></trkpt>
<trkpt lat="43.4525646" lon="6.7829232"><ele></ele><time>2022-5-31T10:15:14Z</time></trkpt>
<trkpt lat="43.4525645" lon="6.7829231"><ele></ele><time>2022-5-31T10:15:17Z</time></trkpt>
<trkpt lat="43.4525643" lon="6.7829236"><ele></ele><time>2022-5-31T10:15:20Z</time></trkpt>
<trkpt lat="43.4525641" lon="6.7829242"><ele></ele><time>2022-5-31T10:15:23Z</time></trkpt>
<trkpt lat="43.4525640" lon="6.7829242"><ele></ele><time>2022-5-31T10:15:26Z</time></trkpt>
<trkpt lat="43.4525640" lon="6.7829241"><ele></ele><time>2022-5-31T10:15:29Z</time></trkpt>
<trkpt lat="43.4525642" lon="6.7829233"><ele></ele><time>2022-5-31T10:15:32Z</time></trkpt>
<trkpt lat="43.4525642" lon="6.7829231"><ele></ele><time>2022-5-31T10:15:35Z</time></trkpt>
<trkpt lat="43.4525644" lon="6.7829224"><ele></ele><time>2022-5-31T10:15:38Z</time></trkpt>
<trkpt lat="43.4525644" lon="6.7829225"><ele></ele><time>2022-5-31T10:15:41Z</time></trkpt>
<trkpt lat="43.4525643" lon="6.7829226"><ele></ele><time>2022-5-31T10:15:44Z</time></trkpt>
<trkpt lat="43.4525641" lon="6.7829227"><ele></ele><time>2022-5-31T10:15:47Z</time></trkpt>
<trkpt lat="43.4525639" lon="6.7829230"><ele></ele><time>2022-5-31T10:15:50Z</time></trkpt>
<trkpt lat="43.4525639" lon="6.7829230"><ele></ele><time>2022-5-31T10:15:53Z</time></trkpt>
<trkpt lat="43.4525639" lon="6.7829225"><ele></ele><time>2022-5-31T10:15:56Z</time></trkpt>
<trkpt lat="43.4525639" lon="6.7829228"><ele></ele><time>2022-5-31T10:15:59Z</time></trkpt>
<trkpt lat="43.4525629" lon="6.7829244"><ele></ele><time>2022-5-31T10:16:2Z</time></trkpt>
<trkpt lat="43.4525622" lon="6.7829255"><ele></ele><time>2022-5-31T10:16:5Z</time></trkpt>
<trkpt lat="43.4525598" lon="6.7829291"><ele></ele><time>2022-5-31T10:16:8Z</time></trkpt>
<trkpt lat="43.4525567" lon="6.7829376"><ele></ele><time>2022-5-31T10:16:11Z</time></trkpt>
<trkpt lat="43.4525555" lon="6.7829433"><ele></ele><time>2022-5-31T10:16:14Z</time></trkpt>
<trkpt lat="43.4525565" lon="6.7829428"><ele></ele><time>2022-5-31T10:16:17Z</time></trkpt>
<trkpt lat="43.4525582" lon="6.7829409"><ele></ele><time>2022-5-31T10:16:20Z</time></trkpt>
<trkpt lat="43.4525586" lon="6.7829401"><ele></ele><time>2022-5-31T10:16:23Z</time></trkpt>
<trkpt lat="43.4525589" lon="6.7829429"><ele></ele><time>2022-5-31T10:16:26Z</time></trkpt>
<trkpt lat="43.4525593" lon="6.7829439"><ele></ele><time>2022-5-31T10:16:29Z</time></trkpt>
<trkpt lat="43.4525597" lon="6.7829473"><ele></ele><time>2022-5-31T10:16:32Z</time></trkpt>
<trkpt lat="43.4525602" lon="6.7829476"><ele></ele><time>2022-5-31T10:16:35Z</time></trkpt>
<trkpt lat="43.4525609" lon="6.7829462"><ele></ele><time>2022-5-31T10:16:38Z</time></trkpt>
<trkpt lat="43.4525620" lon="6.7829598"><ele></ele><time>2022-5-31T10:16:41Z</time></trkpt>
<trkpt lat="43.4525763" lon="6.7829786"><ele></ele><time>2022-5-31T10:16:44Z</time></trkpt>
<trkpt lat="43.4525965" lon="6.7829951"><ele></ele><time>2022-5-31T10:16:47Z</time></trkpt>
<trkpt lat="43.4526171" lon="6.7830089"><ele></ele><time>2022-5-31T10:16:50Z</time></trkpt>
<trkpt lat="43.4526358" lon="6.7830270"><ele></ele><time>2022-5-31T10:16:53Z</time></trkpt>
<trkpt lat="43.4526581" lon="6.7830558"><ele></ele><time>2022-5-31T10:16:56Z</time></trkpt>
<trkpt lat="43.4526830" lon="6.7830871"><ele></ele><time>2022-5-31T10:16:59Z</time></trkpt>
<trkpt lat="43.4527112" lon="6.7831123"><ele></ele><time>2022-5-31T10:17:2Z</time></trkpt>
<trkpt lat="43.4527417" lon="6.7831381"><ele></ele><time>2022-5-31T10:17:5Z</time></trkpt>
<trkpt lat="43.4527642" lon="6.7831752"><ele></ele><time>2022-5-31T10:17:8Z</time></trkpt>
<trkpt lat="43.4527801" lon="6.7832152"><ele></ele><time>2022-5-31T10:17:11Z</time></trkpt>
<trkpt lat="43.4527995" lon="6.7832558"><ele></ele><time>2022-5-31T10:17:14Z</time></trkpt>
<trkpt lat="43.4528130" lon="6.7832872"><ele></ele><time>2022-5-31T10:17:17Z</time></trkpt>
<trkpt lat="43.4528321" lon="6.7833220"><ele></ele><time>2022-5-31T10:17:20Z</time></trkpt>
<trkpt lat="43.4528519" lon="6.7833586"><ele></ele><time>2022-5-31T10:17:23Z</time></trkpt>
<trkpt lat="43.4528649" lon="6.7833898"><ele></ele><time>2022-5-31T10:17:26Z</time></trkpt>
<trkpt lat="43.4528830" lon="6.7834207"><ele></ele><time>2022-5-31T10:17:29Z</time></trkpt>
<trkpt lat="43.4528979" lon="6.7834469"><ele></ele><time>2022-5-31T10:17:32Z</time></trkpt>
<trkpt lat="43.4529131" lon="6.7834704"><ele></ele><time>2022-5-31T10:17:35Z</time></trkpt>
<trkpt lat="43.4529276" lon="6.7834973"><ele></ele><time>2022-5-31T10:17:38Z</time></trkpt>
<trkpt lat="43.4529406" lon="6.7835241"><ele></ele><time>2022-5-31T10:17:41Z</time></trkpt>
<trkpt lat="43.4529490" lon="6.7835548"><ele></ele><time>2022-5-31T10:17:44Z</time></trkpt>
<trkpt lat="43.4529504" lon="6.7835880"><ele></ele><time>2022-5-31T10:17:47Z</time></trkpt>
<trkpt lat="43.4529279" lon="6.7836215"><ele></ele><time>2022-5-31T10:17:50Z</time></trkpt>
<trkpt lat="43.4528896" lon="6.7836406"><ele></ele><time>2022-5-31T10:17:53Z</time></trkpt>
<trkpt lat="43.4528424" lon="6.7836739"><ele></ele><time>2022-5-31T10:17:56Z</time></trkpt>
<trkpt lat="43.4527975" lon="6.7837161"><ele></ele><time>2022-5-31T10:17:59Z</time></trkpt>
<trkpt lat="43.4527581" lon="6.7837672"><ele></ele><time>2022-5-31T10:18:2Z</time></trkpt>
<trkpt lat="43.4527141" lon="6.7838135"><ele></ele><time>2022-5-31T10:18:5Z</time></trkpt>
<trkpt lat="43.4526708" lon="6.7838457"><ele></ele><time>2022-5-31T10:18:8Z</time></trkpt>
<trkpt lat="43.4526267" lon="6.7838706"><ele></ele><time>2022-5-31T10:18:11Z</time></trkpt>
<trkpt lat="43.4525793" lon="6.7838938"><ele></ele><time>2022-5-31T10:18:14Z</time></trkpt>
<trkpt lat="43.4525246" lon="6.7839137"><ele></ele><time>2022-5-31T10:18:17Z</time></trkpt>
<trkpt lat="43.4524782" lon="6.7839248"><ele></ele><time>2022-5-31T10:18:20Z</time></trkpt>
<trkpt lat="43.4524340" lon="6.7839308"><ele></ele><time>2022-5-31T10:18:23Z</time></trkpt>
<trkpt lat="43.4523916" lon="6.7839321"><ele></ele><time>2022-5-31T10:18:26Z</time></trkpt>
<trkpt lat="43.4523495" lon="6.7839271"><ele></ele><time>2022-5-31T10:18:29Z</time></trkpt>
<trkpt lat="43.4523028" lon="6.7839178"><ele></ele><time>2022-5-31T10:18:32Z</time></trkpt>
<trkpt lat="43.4522483" lon="6.7839013"><ele></ele><time>2022-5-31T10:18:35Z</time></trkpt>
<trkpt lat="43.4521942" lon="6.7838798"><ele></ele><time>2022-5-31T10:18:38Z</time></trkpt>
<trkpt lat="43.4521473" lon="6.7838578"><ele></ele><time>2022-5-31T10:18:41Z</time></trkpt>
<trkpt lat="43.4520899" lon="6.7838372"><ele></ele><time>2022-5-31T10:18:44Z</time></trkpt>
<trkpt lat="43.4520303" lon="6.7838156"><ele></ele><time>2022-5-31T10:18:47Z</time></trkpt>
<trkpt lat="43.4519574" lon="6.7837924"><ele></ele><time>2022-5-31T10:18:50Z</time></trkpt>
<trkpt lat="43.4518831" lon="6.7837725"><ele></ele><time>2022-5-31T10:18:53Z</time></trkpt>
<trkpt lat="43.4518091" lon="6.7837576"><ele></ele><time>2022-5-31T10:18:56Z</time></trkpt>
<trkpt lat="43.4517187" lon="6.7837659"><ele></ele><time>2022-5-31T10:18:59Z</time></trkpt>
<trkpt lat="43.4516271" lon="6.7837844"><ele></ele><time>2022-5-31T10:19:2Z</time></trkpt>
<trkpt lat="43.4515462" lon="6.7838116"><ele></ele><time>2022-5-31T10:19:5Z</time></trkpt>
<trkpt lat="43.4514821" lon="6.7838783"><ele></ele><time>2022-5-31T10:19:8Z</time></trkpt>
<trkpt lat="43.4514350" lon="6.7839772"><ele></ele><time>2022-5-31T10:19:11Z</time></trkpt>
<trkpt lat="43.4513865" lon="6.7840926"><ele></ele><time>2022-5-31T10:19:14Z</time></trkpt>
<trkpt lat="43.4513389" lon="6.7842154"><ele></ele><time>2022-5-31T10:19:17Z</time></trkpt>
<trkpt lat="43.4513053" lon="6.7843169"><ele></ele><time>2022-5-31T10:19:20Z</time></trkpt>
<trkpt lat="43.4512717" lon="6.7844326"><ele></ele><time>2022-5-31T10:19:23Z</time></trkpt>
<trkpt lat="43.4512407" lon="6.7845533"><ele></ele><time>2022-5-31T10:19:26Z</time></trkpt>
<trkpt lat="43.4512158" lon="6.7846841"><ele></ele><time>2022-5-31T10:19:29Z</time></trkpt>
<trkpt lat="43.4511973" lon="6.7848272"><ele></ele><time>2022-5-31T10:19:32Z</time></trkpt>
<trkpt lat="43.4511789" lon="6.7849749"><ele></ele><time>2022-5-31T10:19:35Z</time></trkpt>
<trkpt lat="43.4511620" lon="6.7851294"><ele></ele><time>2022-5-31T10:19:38Z</time></trkpt>
<trkpt lat="43.4511514" lon="6.7852776"><ele></ele><time>2022-5-31T10:19:41Z</time></trkpt>
<trkpt lat="43.4511581" lon="6.7854218"><ele></ele><time>2022-5-31T10:19:44Z</time></trkpt>
<trkpt lat="43.4511651" lon="6.7855670"><ele></ele><time>2022-5-31T10:19:47Z</time></trkpt>
<trkpt lat="43.4511758" lon="6.7857072"><ele></ele><time>2022-5-31T10:19:50Z</time></trkpt>
<trkpt lat="43.4512087" lon="6.7858320"><ele></ele><time>2022-5-31T10:19:53Z</time></trkpt>
<trkpt lat="43.4512495" lon="6.7859505"><ele></ele><time>2022-5-31T10:19:56Z</time></trkpt>
<trkpt lat="43.4512868" lon="6.7860536"><ele></ele><time>2022-5-31T10:19:59Z</time></trkpt>
<trkpt lat="43.4513291" lon="6.7861507"><ele></ele><time>2022-5-31T10:20:2Z</time></trkpt>
<trkpt lat="43.4513754" lon="6.7862390"><ele></ele><time>2022-5-31T10:20:5Z</time></trkpt>
<trkpt lat="43.4514174" lon="6.7863142"><ele></ele><time>2022-5-31T10:20:8Z</time></trkpt>
<trkpt lat="43.4514761" lon="6.7863761"><ele></ele><time>2022-5-31T10:20:11Z</time></trkpt>
<trkpt lat="43.4515338" lon="6.7864367"><ele></ele><time>2022-5-31T10:20:14Z</time></trkpt>
<trkpt lat="43.4515862" lon="6.7864922"><ele></ele><time>2022-5-31T10:20:17Z</time></trkpt>
<trkpt lat="43.4516402" lon="6.7865508"><ele></ele><time>2022-5-31T10:20:20Z</time></trkpt>
<trkpt lat="43.4516979" lon="6.7865983"><ele></ele><time>2022-5-31T10:20:23Z</time></trkpt>
<trkpt lat="43.4517571" lon="6.7866383"><ele></ele><time>2022-5-31T10:20:26Z</time></trkpt>
<trkpt lat="43.4518196" lon="6.7866591"><ele></ele><time>2022-5-31T10:20:29Z</time></trkpt>
<trkpt lat="43.4518786" lon="6.7866895"><ele></ele><time>2022-5-31T10:20:32Z</time></trkpt>
<trkpt lat="43.4519345" lon="6.7867105"><ele></ele><time>2022-5-31T10:20:35Z</time></trkpt>
<trkpt lat="43.4519945" lon="6.7867362"><ele></ele><time>2022-5-31T10:20:38Z</time></trkpt>
<trkpt lat="43.4520561" lon="6.7867701"><ele></ele><time>2022-5-31T10:20:41Z</time></trkpt>
<trkpt lat="43.4521097" lon="6.7868219"><ele></ele><time>2022-5-31T10:20:44Z</time></trkpt>
<trkpt lat="43.4521693" lon="6.7868728"><ele></ele><time>2022-5-31T10:20:47Z</time></trkpt>
<trkpt lat="43.4522313" lon="6.7869428"><ele></ele><time>2022-5-31T10:20:50Z</time></trkpt>
<trkpt lat="43.4522835" lon="6.7870293"><ele></ele><time>2022-5-31T10:20:53Z</time></trkpt>
<trkpt lat="43.4523272" lon="6.7871249"><ele></ele><time>2022-5-31T10:20:56Z</time></trkpt>
<trkpt lat="43.4523657" lon="6.7872214"><ele></ele><time>2022-5-31T10:20:59Z</time></trkpt>
<trkpt lat="43.4523949" lon="6.7873138"><ele></ele><time>2022-5-31T10:21:2Z</time></trkpt>
<trkpt lat="43.4524182" lon="6.7874074"><ele></ele><time>2022-5-31T10:21:5Z</time></trkpt>
<trkpt lat="43.4524408" lon="6.7874960"><ele></ele><time>2022-5-31T10:21:8Z</time></trkpt>
<trkpt lat="43.4524633" lon="6.7875808"><ele></ele><time>2022-5-31T10:21:11Z</time></trkpt>
<trkpt lat="43.4524862" lon="6.7876630"><ele></ele><time>2022-5-31T10:21:14Z</time></trkpt>
<trkpt lat="43.4525081" lon="6.7877449"><ele></ele><time>2022-5-31T10:21:17Z</time></trkpt>
<trkpt lat="43.4525350" lon="6.7878190"><ele></ele><time>2022-5-31T10:21:20Z</time></trkpt>
<trkpt lat="43.4525616" lon="6.7879000"><ele></ele><time>2022-5-31T10:21:23Z</time></trkpt>
<trkpt lat="43.4525869" lon="6.7879808"><ele></ele><time>2022-5-31T10:21:26Z</time></trkpt>
<trkpt lat="43.4526097" lon="6.7880794"><ele></ele><time>2022-5-31T10:21:29Z</time></trkpt>
<trkpt lat="43.4526287" lon="6.7881801"><ele></ele><time>2022-5-31T10:21:32Z</time></trkpt>
<trkpt lat="43.4526484" lon="6.7882768"><ele></ele><time>2022-5-31T10:21:35Z</time></trkpt>
<trkpt lat="43.4526730" lon="6.7883776"><ele></ele><time>2022-5-31T10:21:38Z</time></trkpt>
<trkpt lat="43.4526978" lon="6.7884756"><ele></ele><time>2022-5-31T10:21:41Z</time></trkpt>
<trkpt lat="43.4527222" lon="6.7885737"><ele></ele><time>2022-5-31T10:21:44Z</time></trkpt>
<trkpt lat="43.4527452" lon="6.7886692"><ele></ele><time>2022-5-31T10:21:47Z</time></trkpt>
<trkpt lat="43.4527650" lon="6.7887633"><ele></ele><time>2022-5-31T10:21:50Z</time></trkpt>
<trkpt lat="43.4527806" lon="6.7888553"><ele></ele><time>2022-5-31T10:21:53Z</time></trkpt>
<trkpt lat="43.4527750" lon="6.7889459"><ele></ele><time>2022-5-31T10:21:56Z</time></trkpt>
<trkpt lat="43.4527489" lon="6.7890214"><ele></ele><time>2022-5-31T10:21:59Z</time></trkpt>
<trkpt lat="43.4527201" lon="6.7890843"><ele></ele><time>2022-5-31T10:22:2Z</time></trkpt>
<trkpt lat="43.4526872" lon="6.7891388"><ele></ele><time>2022-5-31T10:22:5Z</time></trkpt>
<trkpt lat="43.4526571" lon="6.7891901"><ele></ele><time>2022-5-31T10:22:8Z</time></trkpt>
<trkpt lat="43.4526301" lon="6.7892405"><ele></ele><time>2022-5-31T10:22:11Z</time></trkpt>
<trkpt lat="43.4526079" lon="6.7892860"><ele></ele><time>2022-5-31T10:22:14Z</time></trkpt>
<trkpt lat="43.4525878" lon="6.7893380"><ele></ele><time>2022-5-31T10:22:17Z</time></trkpt>
<trkpt lat="43.4525583" lon="6.7893986"><ele></ele><time>2022-5-31T10:22:20Z</time></trkpt>
<trkpt lat="43.4525213" lon="6.7894608"><ele></ele><time>2022-5-31T10:22:23Z</time></trkpt>
<trkpt lat="43.4524782" lon="6.7895127"><ele></ele><time>2022-5-31T10:22:26Z</time></trkpt>
<trkpt lat="43.4524266" lon="6.7895445"><ele></ele><time>2022-5-31T10:22:29Z</time></trkpt>
<trkpt lat="43.4523666" lon="6.7895566"><ele></ele><time>2022-5-31T10:22:32Z</time></trkpt>
<trkpt lat="43.4522930" lon="6.7895643"><ele></ele><time>2022-5-31T10:22:35Z</time></trkpt>
<trkpt lat="43.4522356" lon="6.7895579"><ele></ele><time>2022-5-31T10:22:38Z</time></trkpt>
<trkpt lat="43.4521691" lon="6.7895087"><ele></ele><time>2022-5-31T10:22:41Z</time></trkpt>
<trkpt lat="43.4521154" lon="6.7894618"><ele></ele><time>2022-5-31T10:22:44Z</time></trkpt>
<trkpt lat="43.4520670" lon="6.7894277"><ele></ele><time>2022-5-31T10:22:47Z</time></trkpt>
<trkpt lat="43.4520221" lon="6.7893933"><ele></ele><time>2022-5-31T10:22:50Z</time></trkpt>
<trkpt lat="43.4519831" lon="6.7893594"><ele></ele><time>2022-5-31T10:22:53Z</time></trkpt>
<trkpt lat="43.4519432" lon="6.7893246"><ele></ele><time>2022-5-31T10:22:56Z</time></trkpt>
<trkpt lat="43.4518968" lon="6.7893008"><ele></ele><time>2022-5-31T10:22:59Z</time></trkpt>
<trkpt lat="43.4518437" lon="6.7892740"><ele></ele><time>2022-5-31T10:23:2Z</time></trkpt>
<trkpt lat="43.4517900" lon="6.7892407"><ele></ele><time>2022-5-31T10:23:5Z</time></trkpt>
<trkpt lat="43.4517332" lon="6.7892044"><ele></ele><time>2022-5-31T10:23:8Z</time></trkpt>
<trkpt lat="43.4516749" lon="6.7891744"><ele></ele><time>2022-5-31T10:23:11Z</time></trkpt>
<trkpt lat="43.4516139" lon="6.7891586"><ele></ele><time>2022-5-31T10:23:14Z</time></trkpt>
<trkpt lat="43.4515524" lon="6.7891446"><ele></ele><time>2022-5-31T10:23:17Z</time></trkpt>
<trkpt lat="43.4514868" lon="6.7891266"><ele></ele><time>2022-5-31T10:23:20Z</time></trkpt>
<trkpt lat="43.4514269" lon="6.7891105"><ele></ele><time>2022-5-31T10:23:23Z</time></trkpt>
<trkpt lat="43.4513695" lon="6.7890983"><ele></ele><time>2022-5-31T10:23:26Z</time></trkpt>
<trkpt lat="43.4513162" lon="6.7891002"><ele></ele><time>2022-5-31T10:23:29Z</time></trkpt>
<trkpt lat="43.4512637" lon="6.7890990"><ele></ele><time>2022-5-31T10:23:32Z</time></trkpt>
<trkpt lat="43.4512081" lon="6.7891157"><ele></ele><time>2022-5-31T10:23:35Z</time></trkpt>
<trkpt lat="43.4511474" lon="6.7891262"><ele></ele><time>2022-5-31T10:23:38Z</time></trkpt>
<trkpt lat="43.4510937" lon="6.7891416"><ele></ele><time>2022-5-31T10:23:41Z</time></trkpt>
<trkpt lat="43.4510536" lon="6.7891527"><ele></ele><time>2022-5-31T10:23:44Z</time></trkpt>
<trkpt lat="43.4510082" lon="6.7891663"><ele></ele><time>2022-5-31T10:23:47Z</time></trkpt>
<trkpt lat="43.4509595" lon="6.7891829"><ele></ele><time>2022-5-31T10:23:50Z</time></trkpt>
<trkpt lat="43.4509126" lon="6.7892113"><ele></ele><time>2022-5-31T10:23:53Z</time></trkpt>
<trkpt lat="43.4508717" lon="6.7892330"><ele></ele><time>2022-5-31T10:23:56Z</time></trkpt>
<trkpt lat="43.4508356" lon="6.7892479"><ele></ele><time>2022-5-31T10:23:59Z</time></trkpt>
<trkpt lat="43.4507985" lon="6.7892675"><ele></ele><time>2022-5-31T10:24:2Z</time></trkpt>
<trkpt lat="43.4507607" lon="6.7892940"><ele></ele><time>2022-5-31T10:24:5Z</time></trkpt>
<trkpt lat="43.4507159" lon="6.7893263"><ele></ele><time>2022-5-31T10:24:8Z</time></trkpt>
<trkpt lat="43.4506626" lon="6.7893725"><ele></ele><time>2022-5-31T10:24:11Z</time></trkpt>
<trkpt lat="43.4506085" lon="6.7894040"><ele></ele><time>2022-5-31T10:24:14Z</time></trkpt>
<trkpt lat="43.4505437" lon="6.7894227"><ele></ele><time>2022-5-31T10:24:17Z</time></trkpt>
<trkpt lat="43.4504733" lon="6.7894230"><ele></ele><time>2022-5-31T10:24:20Z</time></trkpt>
<trkpt lat="43.4504049" lon="6.7894017"><ele></ele><time>2022-5-31T10:24:23Z</time></trkpt>
<trkpt lat="43.4503370" lon="6.7893735"><ele></ele><time>2022-5-31T10:24:26Z</time></trkpt>
<trkpt lat="43.4502779" lon="6.7893351"><ele></ele><time>2022-5-31T10:24:29Z</time></trkpt>
<trkpt lat="43.4502174" lon="6.7892950"><ele></ele><time>2022-5-31T10:24:32Z</time></trkpt>
<trkpt lat="43.4501575" lon="6.7892336"><ele></ele><time>2022-5-31T10:24:35Z</time></trkpt>
<trkpt lat="43.4501074" lon="6.7891702"><ele></ele><time>2022-5-31T10:24:38Z</time></trkpt>
<trkpt lat="43.4500344" lon="6.7890945"><ele></ele><time>2022-5-31T10:24:41Z</time></trkpt>
<trkpt lat="43.4499601" lon="6.7890448"><ele></ele><time>2022-5-31T10:24:44Z</time></trkpt>
<trkpt lat="43.4498845" lon="6.7890003"><ele></ele><time>2022-5-31T10:24:47Z</time></trkpt>
<trkpt lat="43.4498080" lon="6.7889600"><ele></ele><time>2022-5-31T10:24:50Z</time></trkpt>
<trkpt lat="43.4497323" lon="6.7889455"><ele></ele><time>2022-5-31T10:24:53Z</time></trkpt>
<trkpt lat="43.4496485" lon="6.7889333"><ele></ele><time>2022-5-31T10:24:56Z</time></trkpt>
<trkpt lat="43.4495576" lon="6.7889398"><ele></ele><time>2022-5-31T10:24:59Z</time></trkpt>
<trkpt lat="43.4494667" lon="6.7889502"><ele></ele><time>2022-5-31T10:25:2Z</time></trkpt>
<trkpt lat="43.4493663" lon="6.7889510"><ele></ele><time>2022-5-31T10:25:5Z</time></trkpt>
<trkpt lat="43.4492603" lon="6.7889541"><ele></ele><time>2022-5-31T10:25:8Z</time></trkpt>
<trkpt lat="43.4491614" lon="6.7889613"><ele></ele><time>2022-5-31T10:25:11Z</time></trkpt>
<trkpt lat="43.4490648" lon="6.7889827"><ele></ele><time>2022-5-31T10:25:14Z</time></trkpt>
<trkpt lat="43.4489654" lon="6.7889914"><ele></ele><time>2022-5-31T10:25:17Z</time></trkpt>
<trkpt lat="43.4488693" lon="6.7890217"><ele></ele><time>2022-5-31T10:25:20Z</time></trkpt>
<trkpt lat="43.4487913" lon="6.7891019"><ele></ele><time>2022-5-31T10:25:23Z</time></trkpt>
<trkpt lat="43.4487301" lon="6.7892045"><ele></ele><time>2022-5-31T10:25:26Z</time></trkpt>
<trkpt lat="43.4486805" lon="6.7893170"><ele></ele><time>2022-5-31T10:25:29Z</time></trkpt>
<trkpt lat="43.4486650" lon="6.7894436"><ele></ele><time>2022-5-31T10:25:32Z</time></trkpt>
<trkpt lat="43.4486549" lon="6.7895769"><ele></ele><time>2022-5-31T10:25:35Z</time></trkpt>
<trkpt lat="43.4486781" lon="6.7897167"><ele></ele><time>2022-5-31T10:25:38Z</time></trkpt>
<trkpt lat="43.4486989" lon="6.7898461"><ele></ele><time>2022-5-31T10:25:41Z</time></trkpt>
<trkpt lat="43.4487210" lon="6.7899560"><ele></ele><time>2022-5-31T10:25:44Z</time></trkpt>
<trkpt lat="43.4487479" lon="6.7900663"><ele></ele><time>2022-5-31T10:25:47Z</time></trkpt>
<trkpt lat="43.4487608" lon="6.7901621"><ele></ele><time>2022-5-31T10:25:50Z</time></trkpt>
<trkpt lat="43.4487608" lon="6.7902461"><ele></ele><time>2022-5-31T10:25:53Z</time></trkpt>
<trkpt lat="43.4487556" lon="6.7903237"><ele></ele><time>2022-5-31T10:25:56Z</time></trkpt>
<trkpt lat="43.4487513" lon="6.7903822"><ele></ele><time>2022-5-31T10:25:59Z</time></trkpt>
<trkpt lat="43.4487546" lon="6.7904313"><ele></ele><time>2022-5-31T10:26:2Z</time></trkpt>
<trkpt lat="43.4487674" lon="6.7904741"><ele></ele><time>2022-5-31T10:26:5Z</time></trkpt>
<trkpt lat="43.4487986" lon="6.7905117"><ele></ele><time>2022-5-31T10:26:8Z</time></trkpt>
<trkpt lat="43.4488373" lon="6.7905298"><ele></ele><time>2022-5-31T10:26:11Z</time></trkpt>
<trkpt lat="43.4488743" lon="6.7905490"><ele></ele><time>2022-5-31T10:26:14Z</time></trkpt>
<trkpt lat="43.4489088" lon="6.7905827"><ele></ele><time>2022-5-31T10:26:17Z</time></trkpt>
<trkpt lat="43.4489470" lon="6.7906175"><ele></ele><time>2022-5-31T10:26:20Z</time></trkpt>
<trkpt lat="43.4489824" lon="6.7906504"><ele></ele><time>2022-5-31T10:26:23Z</time></trkpt>
<trkpt lat="43.4490148" lon="6.7906795"><ele></ele><time>2022-5-31T10:26:26Z</time></trkpt>
<trkpt lat="43.4490472" lon="6.7907015"><ele></ele><time>2022-5-31T10:26:29Z</time></trkpt>
<trkpt lat="43.4490843" lon="6.7907170"><ele></ele><time>2022-5-31T10:26:32Z</time></trkpt>
<trkpt lat="43.4491153" lon="6.7907350"><ele></ele><time>2022-5-31T10:26:35Z</time></trkpt>
<trkpt lat="43.4491431" lon="6.7907526"><ele></ele><time>2022-5-31T10:26:38Z</time></trkpt>
<trkpt lat="43.4491802" lon="6.7907755"><ele></ele><time>2022-5-31T10:26:41Z</time></trkpt>
<trkpt lat="43.4492160" lon="6.7907971"><ele></ele><time>2022-5-31T10:26:44Z</time></trkpt>
<trkpt lat="43.4492547" lon="6.7908345"><ele></ele><time>2022-5-31T10:26:47Z</time></trkpt>
<trkpt lat="43.4492987" lon="6.7908735"><ele></ele><time>2022-5-31T10:26:50Z</time></trkpt>
<trkpt lat="43.4493422" lon="6.7909188"><ele></ele><time>2022-5-31T10:26:53Z</time></trkpt>
<trkpt lat="43.4493713" lon="6.7909612"><ele></ele><time>2022-5-31T10:26:56Z</time></trkpt>
<trkpt lat="43.4493887" lon="6.7910043"><ele></ele><time>2022-5-31T10:26:59Z</time></trkpt>
<trkpt lat="43.4493961" lon="6.7910403"><ele></ele><time>2022-5-31T10:27:2Z</time></trkpt>
<trkpt lat="43.4494035" lon="6.7910690"><ele></ele><time>2022-5-31T10:27:5Z</time></trkpt>
<trkpt lat="43.4494088" lon="6.7910812"><ele></ele><time>2022-5-31T10:27:8Z</time></trkpt>
<trkpt lat="43.4494145" lon="6.7910939"><ele></ele><time>2022-5-31T10:27:11Z</time></trkpt>
<trkpt lat="43.4494207" lon="6.7911057"><ele></ele><time>2022-5-31T10:27:14Z</time></trkpt>
<trkpt lat="43.4494207" lon="6.7911057"><ele></ele><time>2022-5-31T10:27:17Z</time></trkpt>
<trkpt lat="43.4494207" lon="6.7911057"><ele></ele><time>2022-5-31T10:27:20Z</time></trkpt>
<trkpt lat="43.4494334" lon="6.7911328"><ele></ele><time>2022-5-31T10:27:23Z</time></trkpt>
<trkpt lat="43.4494334" lon="6.7911328"><ele></ele><time>2022-5-31T10:27:26Z</time></trkpt>
<trkpt lat="43.4494400" lon="6.7911591"><ele></ele><time>2022-5-31T10:27:29Z</time></trkpt>
<trkpt lat="43.4494438" lon="6.7911736"><ele></ele><time>2022-5-31T10:27:32Z</time></trkpt>
<trkpt lat="43.4494438" lon="6.7911736"><ele></ele><time>2022-5-31T10:27:35Z</time></trkpt>
<trkpt lat="43.4494438" lon="6.7911736"><ele></ele><time>2022-5-31T10:27:38Z</time></trkpt>
<trkpt lat="43.4494438" lon="6.7911736"><ele></ele><time>2022-5-31T10:27:41Z</time></trkpt>
<trkpt lat="43.4494438" lon="6.7911736"><ele></ele><time>2022-5-31T10:27:44Z</time></trkpt>
<trkpt lat="43.4494438" lon="6.7911736"><ele></ele><time>2022-5-31T10:27:47Z</time></trkpt>
<trkpt lat="43.4494438" lon="6.7911736"><ele></ele><time>2022-5-31T10:27:50Z</time></trkpt>
<trkpt lat="43.4494438" lon="6.7911736"><ele></ele><time>2022-5-31T10:27:53Z</time></trkpt>
<trkpt lat="43.4494438" lon="6.7911736"><ele></ele><time>2022-5-31T10:27:56Z</time></trkpt>
<trkpt lat="43.4494438" lon="6.7911736"><ele></ele><time>2022-5-31T10:27:59Z</time></trkpt>
<trkpt lat="43.4494567" lon="6.7912344"><ele></ele><time>2022-5-31T10:28:2Z</time></trkpt>
<trkpt lat="43.4494588" lon="6.7912538"><ele></ele><time>2022-5-31T10:28:5Z</time></trkpt>
<trkpt lat="43.4494601" lon="6.7912881"><ele></ele><time>2022-5-31T10:28:8Z</time></trkpt>
<trkpt lat="43.4494663" lon="6.7913233"><ele></ele><time>2022-5-31T10:28:11Z</time></trkpt>
<trkpt lat="43.4494663" lon="6.7913233"><ele></ele><time>2022-5-31T10:28:14Z</time></trkpt>
<trkpt lat="43.4494720" lon="6.7913696"><ele></ele><time>2022-5-31T10:28:17Z</time></trkpt>
<trkpt lat="43.4494762" lon="6.7914050"><ele></ele><time>2022-5-31T10:28:20Z</time></trkpt>
<trkpt lat="43.4494821" lon="6.7914631"><ele></ele><time>2022-5-31T10:28:23Z</time></trkpt>
<trkpt lat="43.4494862" lon="6.7915139"><ele></ele><time>2022-5-31T10:28:26Z</time></trkpt>
<trkpt lat="43.4494880" lon="6.7915568"><ele></ele><time>2022-5-31T10:28:29Z</time></trkpt>
<trkpt lat="43.4494892" lon="6.7916107"><ele></ele><time>2022-5-31T10:28:32Z</time></trkpt>
<trkpt lat="43.4494990" lon="6.7916700"><ele></ele><time>2022-5-31T10:28:35Z</time></trkpt>
<trkpt lat="43.4494998" lon="6.7917330"><ele></ele><time>2022-5-31T10:28:38Z</time></trkpt>
<trkpt lat="43.4494910" lon="6.7917984"><ele></ele><time>2022-5-31T10:28:41Z</time></trkpt>
<trkpt lat="43.4494862" lon="6.7918646"><ele></ele><time>2022-5-31T10:28:44Z</time></trkpt>
<trkpt lat="43.4494852" lon="6.7919318"><ele></ele><time>2022-5-31T10:28:47Z</time></trkpt>
<trkpt lat="43.4494767" lon="6.7920089"><ele></ele><time>2022-5-31T10:28:50Z</time></trkpt>
<trkpt lat="43.4494695" lon="6.7920854"><ele></ele><time>2022-5-31T10:28:53Z</time></trkpt>
<trkpt lat="43.4494624" lon="6.7921654"><ele></ele><time>2022-5-31T10:28:56Z</time></trkpt>
<trkpt lat="43.4494556" lon="6.7922455"><ele></ele><time>2022-5-31T10:28:59Z</time></trkpt>
<trkpt lat="43.4494580" lon="6.7923182"><ele></ele><time>2022-5-31T10:29:2Z</time></trkpt>
<trkpt lat="43.4494519" lon="6.7923904"><ele></ele><time>2022-5-31T10:29:5Z</time></trkpt>
<trkpt lat="43.4494416" lon="6.7924743"><ele></ele><time>2022-5-31T10:29:8Z</time></trkpt>
<trkpt lat="43.4494373" lon="6.7925649"><ele></ele><time>2022-5-31T10:29:11Z</time></trkpt>
<trkpt lat="43.4494389" lon="6.7926545"><ele></ele><time>2022-5-31T10:29:14Z</time></trkpt>
<trkpt lat="43.4494566" lon="6.7927336"><ele></ele><time>2022-5-31T10:29:17Z</time></trkpt>
<trkpt lat="43.4494738" lon="6.7928050"><ele></ele><time>2022-5-31T10:29:20Z</time></trkpt>
<trkpt lat="43.4494852" lon="6.7928639"><ele></ele><time>2022-5-31T10:29:23Z</time></trkpt>
<trkpt lat="43.4494644" lon="6.7929124"><ele></ele><time>2022-5-31T10:29:26Z</time></trkpt>
<trkpt lat="43.4494258" lon="6.7929305"><ele></ele><time>2022-5-31T10:29:29Z</time></trkpt>
<trkpt lat="43.4493965" lon="6.7929316"><ele></ele><time>2022-5-31T10:29:32Z</time></trkpt>
<trkpt lat="43.4493738" lon="6.7929326"><ele></ele><time>2022-5-31T10:29:35Z</time></trkpt>
<trkpt lat="43.4493546" lon="6.7929333"><ele></ele><time>2022-5-31T10:29:38Z</time></trkpt>
<trkpt lat="43.4493546" lon="6.7929333"><ele></ele><time>2022-5-31T10:29:41Z</time></trkpt>
<trkpt lat="43.4493546" lon="6.7929333"><ele></ele><time>2022-5-31T10:29:44Z</time></trkpt>
<trkpt lat="43.4493254" lon="6.7929038"><ele></ele><time>2022-5-31T10:29:47Z</time></trkpt>
<trkpt lat="43.4493340" lon="6.7928953"><ele></ele><time>2022-5-31T10:29:50Z</time></trkpt>
<trkpt lat="43.4493394" lon="6.7929104"><ele></ele><time>2022-5-31T10:29:53Z</time></trkpt>
<trkpt lat="43.4493397" lon="6.7929321"><ele></ele><time>2022-5-31T10:29:56Z</time></trkpt>
<trkpt lat="43.4493397" lon="6.7929321"><ele></ele><time>2022-5-31T10:29:59Z</time></trkpt>
<trkpt lat="43.4493397" lon="6.7929321"><ele></ele><time>2022-5-31T10:30:2Z</time></trkpt>
<trkpt lat="43.4493397" lon="6.7929321"><ele></ele><time>2022-5-31T10:30:5Z</time></trkpt>
<trkpt lat="43.4493397" lon="6.7929321"><ele></ele><time>2022-5-31T10:30:8Z</time></trkpt>
<trkpt lat="43.4493397" lon="6.7929321"><ele></ele><time>2022-5-31T10:30:11Z</time></trkpt>
<trkpt lat="43.4493397" lon="6.7929321"><ele></ele><time>2022-5-31T10:30:14Z</time></trkpt>
<trkpt lat="43.4493397" lon="6.7929321"><ele></ele><time>2022-5-31T10:30:17Z</time></trkpt>
<trkpt lat="43.4493397" lon="6.7929321"><ele></ele><time>2022-5-31T10:30:20Z</time></trkpt>
<trkpt lat="43.4493397" lon="6.7929321"><ele></ele><time>2022-5-31T10:30:23Z</time></trkpt>
<trkpt lat="43.4493397" lon="6.7929321"><ele></ele><time>2022-5-31T10:30:26Z</time></trkpt>
<trkpt lat="43.4493397" lon="6.7929321"><ele></ele><time>2022-5-31T10:30:29Z</time></trkpt>
<trkpt lat="43.4493397" lon="6.7929321"><ele></ele><time>2022-5-31T10:30:32Z</time></trkpt>
<trkpt lat="43.4493397" lon="6.7929321"><ele></ele><time>2022-5-31T10:30:35Z</time></trkpt>
<trkpt lat="43.4493397" lon="6.7929321"><ele></ele><time>2022-5-31T10:30:38Z</time></trkpt>
<trkpt lat="43.4493397" lon="6.7929321"><ele></ele><time>2022-5-31T10:30:41Z</time></trkpt>
<trkpt lat="43.4493397" lon="6.7929321"><ele></ele><time>2022-5-31T10:30:44Z</time></trkpt>
<trkpt lat="43.4493397" lon="6.7929321"><ele></ele><time>2022-5-31T10:30:47Z</time></trkpt>
<trkpt lat="43.4493397" lon="6.7929321"><ele></ele><time>2022-5-31T10:30:50Z</time></trkpt>
<trkpt lat="43.4493397" lon="6.7929321"><ele></ele><time>2022-5-31T10:30:53Z</time></trkpt>
<trkpt lat="43.4493397" lon="6.7929321"><ele></ele><time>2022-5-31T10:30:56Z</time></trkpt>
<trkpt lat="43.4493397" lon="6.7929321"><ele></ele><time>2022-5-31T10:30:59Z</time></trkpt>
<trkpt lat="43.4493397" lon="6.7929321"><ele></ele><time>2022-5-31T10:31:2Z</time></trkpt>
<trkpt lat="43.4493397" lon="6.7929321"><ele></ele><time>2022-5-31T10:31:5Z</time></trkpt>
<trkpt lat="43.4493397" lon="6.7929321"><ele></ele><time>2022-5-31T10:31:8Z</time></trkpt>
<trkpt lat="43.4493397" lon="6.7929321"><ele></ele><time>2022-5-31T10:31:11Z</time></trkpt>
<trkpt lat="43.4493397" lon="6.7929321"><ele></ele><time>2022-5-31T10:31:14Z</time></trkpt>
<trkpt lat="43.4493397" lon="6.7929321"><ele></ele><time>2022-5-31T10:31:17Z</time></trkpt>
<trkpt lat="43.4493397" lon="6.7929321"><ele></ele><time>2022-5-31T10:31:20Z</time></trkpt>
<trkpt lat="43.4493397" lon="6.7929321"><ele></ele><time>2022-5-31T10:31:23Z</time></trkpt>
</trkseg></trk></gpx>